<?xml version="1.0" encoding="UTF-8" standalone="no" ?>
<gpx xmlns="http://www.topografix.com/GPX/1/1" xmlns:xsi="http://www.w3.org/2001/XMLSchema-instance" xsi:schemaLocation="http://www.topografix.com/GPX/1/1 http://www.topografix.com/GPX/1/1/gpx.xsd" version="1.1" creator="VisuGPX - https://www.visugpx.com">
  <metadata>
    <name>Lac du ternay1</name>
  </metadata>
  <trk>
    <name><![CDATA[Lac du ternay1]]></name>
    <trkseg>
      <trkpt lat="45.30095" lon="4.64427">
        <ele>518</ele>
        <time>2019-02-20T07:32:48.000Z</time>
      </trkpt>
      <trkpt lat="45.30095" lon="4.64427">
        <ele>518</ele>
        <time>2019-02-20T07:32:49.000Z</time>
      </trkpt>
      <trkpt lat="45.30104" lon="4.6443">
        <ele>517.79998779297</ele>
        <time>2019-02-20T07:33:10.000Z</time>
      </trkpt>
      <trkpt lat="45.30106" lon="4.6443">
        <ele>517.79998779297</ele>
        <time>2019-02-20T07:33:11.000Z</time>
      </trkpt>
      <trkpt lat="45.30108" lon="4.64431">
        <ele>517.79998779297</ele>
        <time>2019-02-20T07:33:12.000Z</time>
      </trkpt>
      <trkpt lat="45.3011" lon="4.64431">
        <ele>517.79998779297</ele>
        <time>2019-02-20T07:33:13.000Z</time>
      </trkpt>
      <trkpt lat="45.30112" lon="4.64432">
        <ele>517.79998779297</ele>
        <time>2019-02-20T07:33:14.000Z</time>
      </trkpt>
      <trkpt lat="45.30113" lon="4.64433">
        <ele>517.79998779297</ele>
        <time>2019-02-20T07:33:15.000Z</time>
      </trkpt>
      <trkpt lat="45.30115" lon="4.64434">
        <ele>517.79998779297</ele>
        <time>2019-02-20T07:33:16.000Z</time>
      </trkpt>
      <trkpt lat="45.30117" lon="4.64434">
        <ele>517.79998779297</ele>
        <time>2019-02-20T07:33:17.000Z</time>
      </trkpt>
      <trkpt lat="45.30119" lon="4.64435">
        <ele>517.79998779297</ele>
        <time>2019-02-20T07:33:18.000Z</time>
      </trkpt>
      <trkpt lat="45.30121" lon="4.64436">
        <ele>517.59997558594</ele>
        <time>2019-02-20T07:33:19.000Z</time>
      </trkpt>
      <trkpt lat="45.30123" lon="4.64437">
        <ele>517.79998779297</ele>
        <time>2019-02-20T07:33:20.000Z</time>
      </trkpt>
      <trkpt lat="45.30125" lon="4.64437">
        <ele>517.79998779297</ele>
        <time>2019-02-20T07:33:21.000Z</time>
      </trkpt>
      <trkpt lat="45.30127" lon="4.64438">
        <ele>517.59997558594</ele>
        <time>2019-02-20T07:33:22.000Z</time>
      </trkpt>
      <trkpt lat="45.30129" lon="4.64439">
        <ele>517.79998779297</ele>
        <time>2019-02-20T07:33:23.000Z</time>
      </trkpt>
      <trkpt lat="45.30131" lon="4.6444">
        <ele>517.59997558594</ele>
        <time>2019-02-20T07:33:24.000Z</time>
      </trkpt>
      <trkpt lat="45.30132" lon="4.6444">
        <ele>517.59997558594</ele>
        <time>2019-02-20T07:33:25.000Z</time>
      </trkpt>
      <trkpt lat="45.30134" lon="4.64441">
        <ele>517.59997558594</ele>
        <time>2019-02-20T07:33:26.000Z</time>
      </trkpt>
      <trkpt lat="45.30136" lon="4.64441">
        <ele>517.79998779297</ele>
        <time>2019-02-20T07:33:27.000Z</time>
      </trkpt>
      <trkpt lat="45.30138" lon="4.64442">
        <ele>517.59997558594</ele>
        <time>2019-02-20T07:33:28.000Z</time>
      </trkpt>
      <trkpt lat="45.3014" lon="4.64443">
        <ele>517.59997558594</ele>
        <time>2019-02-20T07:33:29.000Z</time>
      </trkpt>
      <trkpt lat="45.30142" lon="4.64443">
        <ele>517.59997558594</ele>
        <time>2019-02-20T07:33:30.000Z</time>
      </trkpt>
      <trkpt lat="45.30145" lon="4.64444">
        <ele>517.79998779297</ele>
        <time>2019-02-20T07:33:31.000Z</time>
      </trkpt>
      <trkpt lat="45.30147" lon="4.64445">
        <ele>517.79998779297</ele>
        <time>2019-02-20T07:33:32.000Z</time>
      </trkpt>
      <trkpt lat="45.3015" lon="4.64446">
        <ele>517.79998779297</ele>
        <time>2019-02-20T07:33:33.000Z</time>
      </trkpt>
      <trkpt lat="45.30152" lon="4.64446">
        <ele>517.79998779297</ele>
        <time>2019-02-20T07:33:34.000Z</time>
      </trkpt>
      <trkpt lat="45.30154" lon="4.64446">
        <ele>517.59997558594</ele>
        <time>2019-02-20T07:33:35.000Z</time>
      </trkpt>
      <trkpt lat="45.30157" lon="4.64446">
        <ele>517.59997558594</ele>
        <time>2019-02-20T07:33:36.000Z</time>
      </trkpt>
      <trkpt lat="45.30159" lon="4.64447">
        <ele>517.79998779297</ele>
        <time>2019-02-20T07:33:37.000Z</time>
      </trkpt>
      <trkpt lat="45.30162" lon="4.64447">
        <ele>517.79998779297</ele>
        <time>2019-02-20T07:33:38.000Z</time>
      </trkpt>
      <trkpt lat="45.30164" lon="4.64447">
        <ele>517.59997558594</ele>
        <time>2019-02-20T07:33:39.000Z</time>
      </trkpt>
      <trkpt lat="45.30167" lon="4.64447">
        <ele>517.59997558594</ele>
        <time>2019-02-20T07:33:40.000Z</time>
      </trkpt>
      <trkpt lat="45.3017" lon="4.64447">
        <ele>517.79998779297</ele>
        <time>2019-02-20T07:33:41.000Z</time>
      </trkpt>
      <trkpt lat="45.30173" lon="4.64447">
        <ele>517.79998779297</ele>
        <time>2019-02-20T07:33:42.000Z</time>
      </trkpt>
      <trkpt lat="45.30176" lon="4.64446">
        <ele>517.59997558594</ele>
        <time>2019-02-20T07:33:43.000Z</time>
      </trkpt>
      <trkpt lat="45.30179" lon="4.64446">
        <ele>517.79998779297</ele>
        <time>2019-02-20T07:33:44.000Z</time>
      </trkpt>
      <trkpt lat="45.30182" lon="4.64445">
        <ele>517.79998779297</ele>
        <time>2019-02-20T07:33:45.000Z</time>
      </trkpt>
      <trkpt lat="45.30185" lon="4.64444">
        <ele>517.79998779297</ele>
        <time>2019-02-20T07:33:46.000Z</time>
      </trkpt>
      <trkpt lat="45.30188" lon="4.64443">
        <ele>517.79998779297</ele>
        <time>2019-02-20T07:33:47.000Z</time>
      </trkpt>
      <trkpt lat="45.3019" lon="4.64441">
        <ele>517.79998779297</ele>
        <time>2019-02-20T07:33:48.000Z</time>
      </trkpt>
      <trkpt lat="45.30194" lon="4.6444">
        <ele>518</ele>
        <time>2019-02-20T07:33:49.000Z</time>
      </trkpt>
      <trkpt lat="45.30197" lon="4.64439">
        <ele>518</ele>
        <time>2019-02-20T07:33:50.000Z</time>
      </trkpt>
      <trkpt lat="45.302" lon="4.64437">
        <ele>518</ele>
        <time>2019-02-20T07:33:51.000Z</time>
      </trkpt>
      <trkpt lat="45.30203" lon="4.64436">
        <ele>518</ele>
        <time>2019-02-20T07:33:52.000Z</time>
      </trkpt>
      <trkpt lat="45.30206" lon="4.64435">
        <ele>518</ele>
        <time>2019-02-20T07:33:53.000Z</time>
      </trkpt>
      <trkpt lat="45.30209" lon="4.64433">
        <ele>518</ele>
        <time>2019-02-20T07:33:54.000Z</time>
      </trkpt>
      <trkpt lat="45.30212" lon="4.64432">
        <ele>518</ele>
        <time>2019-02-20T07:33:55.000Z</time>
      </trkpt>
      <trkpt lat="45.30214" lon="4.6443">
        <ele>518</ele>
        <time>2019-02-20T07:33:56.000Z</time>
      </trkpt>
      <trkpt lat="45.30217" lon="4.64429">
        <ele>518</ele>
        <time>2019-02-20T07:33:57.000Z</time>
      </trkpt>
      <trkpt lat="45.30221" lon="4.64427">
        <ele>518</ele>
        <time>2019-02-20T07:33:58.000Z</time>
      </trkpt>
      <trkpt lat="45.30224" lon="4.64426">
        <ele>517.79998779297</ele>
        <time>2019-02-20T07:33:59.000Z</time>
      </trkpt>
      <trkpt lat="45.30228" lon="4.64425">
        <ele>517.79998779297</ele>
        <time>2019-02-20T07:34:00.000Z</time>
      </trkpt>
      <trkpt lat="45.30231" lon="4.64424">
        <ele>517.79998779297</ele>
        <time>2019-02-20T07:34:01.000Z</time>
      </trkpt>
      <trkpt lat="45.30235" lon="4.64423">
        <ele>517.79998779297</ele>
        <time>2019-02-20T07:34:02.000Z</time>
      </trkpt>
      <trkpt lat="45.30238" lon="4.64422">
        <ele>517.79998779297</ele>
        <time>2019-02-20T07:34:03.000Z</time>
      </trkpt>
      <trkpt lat="45.30242" lon="4.64421">
        <ele>517.59997558594</ele>
        <time>2019-02-20T07:34:04.000Z</time>
      </trkpt>
      <trkpt lat="45.30245" lon="4.64421">
        <ele>517.59997558594</ele>
        <time>2019-02-20T07:34:05.000Z</time>
      </trkpt>
      <trkpt lat="45.30249" lon="4.64421">
        <ele>517.59997558594</ele>
        <time>2019-02-20T07:34:06.000Z</time>
      </trkpt>
      <trkpt lat="45.30252" lon="4.64422">
        <ele>517.59997558594</ele>
        <time>2019-02-20T07:34:07.000Z</time>
      </trkpt>
      <trkpt lat="45.30255" lon="4.64422">
        <ele>517.40002441406</ele>
        <time>2019-02-20T07:34:08.000Z</time>
      </trkpt>
      <trkpt lat="45.30258" lon="4.64422">
        <ele>517.40002441406</ele>
        <time>2019-02-20T07:34:09.000Z</time>
      </trkpt>
      <trkpt lat="45.30261" lon="4.64423">
        <ele>517.40002441406</ele>
        <time>2019-02-20T07:34:10.000Z</time>
      </trkpt>
      <trkpt lat="45.30264" lon="4.64424">
        <ele>517.40002441406</ele>
        <time>2019-02-20T07:34:11.000Z</time>
      </trkpt>
      <trkpt lat="45.30266" lon="4.64424">
        <ele>517.40002441406</ele>
        <time>2019-02-20T07:34:12.000Z</time>
      </trkpt>
      <trkpt lat="45.30269" lon="4.64425">
        <ele>517.40002441406</ele>
        <time>2019-02-20T07:34:13.000Z</time>
      </trkpt>
      <trkpt lat="45.30272" lon="4.64426">
        <ele>517.40002441406</ele>
        <time>2019-02-20T07:34:14.000Z</time>
      </trkpt>
      <trkpt lat="45.30274" lon="4.64426">
        <ele>517.40002441406</ele>
        <time>2019-02-20T07:34:15.000Z</time>
      </trkpt>
      <trkpt lat="45.30276" lon="4.64426">
        <ele>517.20001220703</ele>
        <time>2019-02-20T07:34:16.000Z</time>
      </trkpt>
      <trkpt lat="45.30279" lon="4.64425">
        <ele>517.20001220703</ele>
        <time>2019-02-20T07:34:17.000Z</time>
      </trkpt>
      <trkpt lat="45.30282" lon="4.64425">
        <ele>517.40002441406</ele>
        <time>2019-02-20T07:34:18.000Z</time>
      </trkpt>
      <trkpt lat="45.30284" lon="4.64425">
        <ele>517.40002441406</ele>
        <time>2019-02-20T07:34:19.000Z</time>
      </trkpt>
      <trkpt lat="45.30288" lon="4.64425">
        <ele>517.20001220703</ele>
        <time>2019-02-20T07:34:20.000Z</time>
      </trkpt>
      <trkpt lat="45.30291" lon="4.64425">
        <ele>517.20001220703</ele>
        <time>2019-02-20T07:34:21.000Z</time>
      </trkpt>
      <trkpt lat="45.30294" lon="4.64425">
        <ele>517.40002441406</ele>
        <time>2019-02-20T07:34:22.000Z</time>
      </trkpt>
      <trkpt lat="45.30297" lon="4.64424">
        <ele>517.20001220703</ele>
        <time>2019-02-20T07:34:23.000Z</time>
      </trkpt>
      <trkpt lat="45.303" lon="4.64424">
        <ele>517.20001220703</ele>
        <time>2019-02-20T07:34:24.000Z</time>
      </trkpt>
      <trkpt lat="45.30303" lon="4.64423">
        <ele>517.40002441406</ele>
        <time>2019-02-20T07:34:25.000Z</time>
      </trkpt>
      <trkpt lat="45.30306" lon="4.64422">
        <ele>517.40002441406</ele>
        <time>2019-02-20T07:34:26.000Z</time>
      </trkpt>
      <trkpt lat="45.3031" lon="4.6442">
        <ele>517.40002441406</ele>
        <time>2019-02-20T07:34:27.000Z</time>
      </trkpt>
      <trkpt lat="45.30314" lon="4.6442">
        <ele>517.40002441406</ele>
        <time>2019-02-20T07:34:28.000Z</time>
      </trkpt>
      <trkpt lat="45.30318" lon="4.64419">
        <ele>517.59997558594</ele>
        <time>2019-02-20T07:34:29.000Z</time>
      </trkpt>
      <trkpt lat="45.30322" lon="4.64418">
        <ele>517.40002441406</ele>
        <time>2019-02-20T07:34:30.000Z</time>
      </trkpt>
      <trkpt lat="45.30325" lon="4.64417">
        <ele>517.40002441406</ele>
        <time>2019-02-20T07:34:31.000Z</time>
      </trkpt>
      <trkpt lat="45.30329" lon="4.64417">
        <ele>517.59997558594</ele>
        <time>2019-02-20T07:34:32.000Z</time>
      </trkpt>
      <trkpt lat="45.30333" lon="4.64417">
        <ele>517.59997558594</ele>
        <time>2019-02-20T07:34:33.000Z</time>
      </trkpt>
      <trkpt lat="45.30336" lon="4.64417">
        <ele>517.40002441406</ele>
        <time>2019-02-20T07:34:34.000Z</time>
      </trkpt>
      <trkpt lat="45.3034" lon="4.64416">
        <ele>517.59997558594</ele>
        <time>2019-02-20T07:34:35.000Z</time>
      </trkpt>
      <trkpt lat="45.30344" lon="4.64416">
        <ele>517.40002441406</ele>
        <time>2019-02-20T07:34:36.000Z</time>
      </trkpt>
      <trkpt lat="45.30347" lon="4.64416">
        <ele>517.40002441406</ele>
        <time>2019-02-20T07:34:37.000Z</time>
      </trkpt>
      <trkpt lat="45.3035" lon="4.64417">
        <ele>517.40002441406</ele>
        <time>2019-02-20T07:34:38.000Z</time>
      </trkpt>
      <trkpt lat="45.30353" lon="4.64417">
        <ele>517.40002441406</ele>
        <time>2019-02-20T07:34:39.000Z</time>
      </trkpt>
      <trkpt lat="45.30357" lon="4.64417">
        <ele>517.40002441406</ele>
        <time>2019-02-20T07:34:40.000Z</time>
      </trkpt>
      <trkpt lat="45.3036" lon="4.64417">
        <ele>517.40002441406</ele>
        <time>2019-02-20T07:34:41.000Z</time>
      </trkpt>
      <trkpt lat="45.30363" lon="4.64417">
        <ele>517.40002441406</ele>
        <time>2019-02-20T07:34:42.000Z</time>
      </trkpt>
      <trkpt lat="45.30366" lon="4.64416">
        <ele>517.40002441406</ele>
        <time>2019-02-20T07:34:43.000Z</time>
      </trkpt>
      <trkpt lat="45.30369" lon="4.64416">
        <ele>517.40002441406</ele>
        <time>2019-02-20T07:34:44.000Z</time>
      </trkpt>
      <trkpt lat="45.30372" lon="4.64414">
        <ele>517.40002441406</ele>
        <time>2019-02-20T07:34:45.000Z</time>
      </trkpt>
      <trkpt lat="45.30375" lon="4.64412">
        <ele>517.40002441406</ele>
        <time>2019-02-20T07:34:46.000Z</time>
      </trkpt>
      <trkpt lat="45.30378" lon="4.6441">
        <ele>517.40002441406</ele>
        <time>2019-02-20T07:34:47.000Z</time>
      </trkpt>
      <trkpt lat="45.3038" lon="4.64407">
        <ele>517.40002441406</ele>
        <time>2019-02-20T07:34:48.000Z</time>
      </trkpt>
      <trkpt lat="45.30382" lon="4.64404">
        <ele>517.20001220703</ele>
        <time>2019-02-20T07:34:49.000Z</time>
      </trkpt>
      <trkpt lat="45.30383" lon="4.64401">
        <ele>517.20001220703</ele>
        <time>2019-02-20T07:34:50.000Z</time>
      </trkpt>
      <trkpt lat="45.30384" lon="4.64397">
        <ele>517.20001220703</ele>
        <time>2019-02-20T07:34:51.000Z</time>
      </trkpt>
      <trkpt lat="45.30385" lon="4.64393">
        <ele>517.20001220703</ele>
        <time>2019-02-20T07:34:52.000Z</time>
      </trkpt>
      <trkpt lat="45.30386" lon="4.6439">
        <ele>517.20001220703</ele>
        <time>2019-02-20T07:34:53.000Z</time>
      </trkpt>
      <trkpt lat="45.30386" lon="4.64386">
        <ele>517.20001220703</ele>
        <time>2019-02-20T07:34:54.000Z</time>
      </trkpt>
      <trkpt lat="45.30386" lon="4.64382">
        <ele>517.20001220703</ele>
        <time>2019-02-20T07:34:55.000Z</time>
      </trkpt>
      <trkpt lat="45.30386" lon="4.64379">
        <ele>517.20001220703</ele>
        <time>2019-02-20T07:34:56.000Z</time>
      </trkpt>
      <trkpt lat="45.30385" lon="4.64375">
        <ele>517.20001220703</ele>
        <time>2019-02-20T07:34:57.000Z</time>
      </trkpt>
      <trkpt lat="45.30385" lon="4.64371">
        <ele>517.40002441406</ele>
        <time>2019-02-20T07:34:58.000Z</time>
      </trkpt>
      <trkpt lat="45.30384" lon="4.64367">
        <ele>517.40002441406</ele>
        <time>2019-02-20T07:34:59.000Z</time>
      </trkpt>
      <trkpt lat="45.30383" lon="4.64364">
        <ele>517.20001220703</ele>
        <time>2019-02-20T07:35:00.000Z</time>
      </trkpt>
      <trkpt lat="45.30382" lon="4.6436">
        <ele>517.20001220703</ele>
        <time>2019-02-20T07:35:01.000Z</time>
      </trkpt>
      <trkpt lat="45.30381" lon="4.64356">
        <ele>517.40002441406</ele>
        <time>2019-02-20T07:35:02.000Z</time>
      </trkpt>
      <trkpt lat="45.30379" lon="4.64352">
        <ele>517.40002441406</ele>
        <time>2019-02-20T07:35:03.000Z</time>
      </trkpt>
      <trkpt lat="45.30378" lon="4.64348">
        <ele>517.40002441406</ele>
        <time>2019-02-20T07:35:04.000Z</time>
      </trkpt>
      <trkpt lat="45.30377" lon="4.64344">
        <ele>517.40002441406</ele>
        <time>2019-02-20T07:35:05.000Z</time>
      </trkpt>
      <trkpt lat="45.30376" lon="4.64341">
        <ele>517.40002441406</ele>
        <time>2019-02-20T07:35:06.000Z</time>
      </trkpt>
      <trkpt lat="45.30374" lon="4.64337">
        <ele>517.40002441406</ele>
        <time>2019-02-20T07:35:07.000Z</time>
      </trkpt>
      <trkpt lat="45.30373" lon="4.64333">
        <ele>517.40002441406</ele>
        <time>2019-02-20T07:35:08.000Z</time>
      </trkpt>
      <trkpt lat="45.30371" lon="4.64329">
        <ele>517.40002441406</ele>
        <time>2019-02-20T07:35:09.000Z</time>
      </trkpt>
      <trkpt lat="45.3037" lon="4.64326">
        <ele>517.40002441406</ele>
        <time>2019-02-20T07:35:10.000Z</time>
      </trkpt>
      <trkpt lat="45.30368" lon="4.64322">
        <ele>517.59997558594</ele>
        <time>2019-02-20T07:35:11.000Z</time>
      </trkpt>
      <trkpt lat="45.30366" lon="4.64319">
        <ele>517.40002441406</ele>
        <time>2019-02-20T07:35:12.000Z</time>
      </trkpt>
      <trkpt lat="45.30364" lon="4.64315">
        <ele>517.40002441406</ele>
        <time>2019-02-20T07:35:13.000Z</time>
      </trkpt>
      <trkpt lat="45.30363" lon="4.64311">
        <ele>517.40002441406</ele>
        <time>2019-02-20T07:35:14.000Z</time>
      </trkpt>
      <trkpt lat="45.30361" lon="4.64308">
        <ele>517.40002441406</ele>
        <time>2019-02-20T07:35:15.000Z</time>
      </trkpt>
      <trkpt lat="45.30359" lon="4.64305">
        <ele>517.40002441406</ele>
        <time>2019-02-20T07:35:16.000Z</time>
      </trkpt>
      <trkpt lat="45.30357" lon="4.64301">
        <ele>517.40002441406</ele>
        <time>2019-02-20T07:35:17.000Z</time>
      </trkpt>
      <trkpt lat="45.30355" lon="4.64298">
        <ele>517.40002441406</ele>
        <time>2019-02-20T07:35:18.000Z</time>
      </trkpt>
      <trkpt lat="45.30353" lon="4.64295">
        <ele>517.40002441406</ele>
        <time>2019-02-20T07:35:19.000Z</time>
      </trkpt>
      <trkpt lat="45.30351" lon="4.64292">
        <ele>517.40002441406</ele>
        <time>2019-02-20T07:35:20.000Z</time>
      </trkpt>
      <trkpt lat="45.3035" lon="4.64288">
        <ele>517.40002441406</ele>
        <time>2019-02-20T07:35:21.000Z</time>
      </trkpt>
      <trkpt lat="45.30348" lon="4.64285">
        <ele>517.40002441406</ele>
        <time>2019-02-20T07:35:22.000Z</time>
      </trkpt>
      <trkpt lat="45.30347" lon="4.64281">
        <ele>517.40002441406</ele>
        <time>2019-02-20T07:35:23.000Z</time>
      </trkpt>
      <trkpt lat="45.30346" lon="4.64277">
        <ele>517.40002441406</ele>
        <time>2019-02-20T07:35:24.000Z</time>
      </trkpt>
      <trkpt lat="45.30346" lon="4.64273">
        <ele>517.40002441406</ele>
        <time>2019-02-20T07:35:25.000Z</time>
      </trkpt>
      <trkpt lat="45.30346" lon="4.64268">
        <ele>517.40002441406</ele>
        <time>2019-02-20T07:35:26.000Z</time>
      </trkpt>
      <trkpt lat="45.30347" lon="4.64264">
        <ele>517.40002441406</ele>
        <time>2019-02-20T07:35:27.000Z</time>
      </trkpt>
      <trkpt lat="45.30349" lon="4.6426">
        <ele>517.40002441406</ele>
        <time>2019-02-20T07:35:28.000Z</time>
      </trkpt>
      <trkpt lat="45.30351" lon="4.64257">
        <ele>517.40002441406</ele>
        <time>2019-02-20T07:35:29.000Z</time>
      </trkpt>
      <trkpt lat="45.30353" lon="4.64255">
        <ele>517.40002441406</ele>
        <time>2019-02-20T07:35:30.000Z</time>
      </trkpt>
      <trkpt lat="45.30356" lon="4.64254">
        <ele>517.20001220703</ele>
        <time>2019-02-20T07:35:31.000Z</time>
      </trkpt>
      <trkpt lat="45.30359" lon="4.64252">
        <ele>517.20001220703</ele>
        <time>2019-02-20T07:35:32.000Z</time>
      </trkpt>
      <trkpt lat="45.30362" lon="4.64251">
        <ele>517.20001220703</ele>
        <time>2019-02-20T07:35:33.000Z</time>
      </trkpt>
      <trkpt lat="45.30365" lon="4.64251">
        <ele>517.20001220703</ele>
        <time>2019-02-20T07:35:34.000Z</time>
      </trkpt>
      <trkpt lat="45.30368" lon="4.6425">
        <ele>517.40002441406</ele>
        <time>2019-02-20T07:35:35.000Z</time>
      </trkpt>
      <trkpt lat="45.30372" lon="4.6425">
        <ele>517.20001220703</ele>
        <time>2019-02-20T07:35:36.000Z</time>
      </trkpt>
      <trkpt lat="45.30375" lon="4.6425">
        <ele>517.40002441406</ele>
        <time>2019-02-20T07:35:37.000Z</time>
      </trkpt>
      <trkpt lat="45.30378" lon="4.6425">
        <ele>517.40002441406</ele>
        <time>2019-02-20T07:35:38.000Z</time>
      </trkpt>
      <trkpt lat="45.30381" lon="4.6425">
        <ele>517.40002441406</ele>
        <time>2019-02-20T07:35:39.000Z</time>
      </trkpt>
      <trkpt lat="45.30384" lon="4.64251">
        <ele>517.40002441406</ele>
        <time>2019-02-20T07:35:40.000Z</time>
      </trkpt>
      <trkpt lat="45.30387" lon="4.64251">
        <ele>517.20001220703</ele>
        <time>2019-02-20T07:35:41.000Z</time>
      </trkpt>
      <trkpt lat="45.30389" lon="4.64251">
        <ele>517.20001220703</ele>
        <time>2019-02-20T07:35:42.000Z</time>
      </trkpt>
      <trkpt lat="45.30392" lon="4.64251">
        <ele>517.20001220703</ele>
        <time>2019-02-20T07:35:43.000Z</time>
      </trkpt>
      <trkpt lat="45.30395" lon="4.64251">
        <ele>517.20001220703</ele>
        <time>2019-02-20T07:35:44.000Z</time>
      </trkpt>
      <trkpt lat="45.30397" lon="4.64252">
        <ele>517.40002441406</ele>
        <time>2019-02-20T07:35:45.000Z</time>
      </trkpt>
      <trkpt lat="45.30399" lon="4.64252">
        <ele>517.40002441406</ele>
        <time>2019-02-20T07:35:46.000Z</time>
      </trkpt>
      <trkpt lat="45.30402" lon="4.64252">
        <ele>517.20001220703</ele>
        <time>2019-02-20T07:35:47.000Z</time>
      </trkpt>
      <trkpt lat="45.30404" lon="4.64253">
        <ele>517.40002441406</ele>
        <time>2019-02-20T07:35:48.000Z</time>
      </trkpt>
      <trkpt lat="45.30406" lon="4.64253">
        <ele>517.20001220703</ele>
        <time>2019-02-20T07:35:49.000Z</time>
      </trkpt>
      <trkpt lat="45.30408" lon="4.64253">
        <ele>517.40002441406</ele>
        <time>2019-02-20T07:35:50.000Z</time>
      </trkpt>
      <trkpt lat="45.3041" lon="4.64252">
        <ele>517.40002441406</ele>
        <time>2019-02-20T07:35:51.000Z</time>
      </trkpt>
      <trkpt lat="45.30413" lon="4.6425">
        <ele>517.20001220703</ele>
        <time>2019-02-20T07:35:52.000Z</time>
      </trkpt>
      <trkpt lat="45.30415" lon="4.64249">
        <ele>517.40002441406</ele>
        <time>2019-02-20T07:35:53.000Z</time>
      </trkpt>
      <trkpt lat="45.30417" lon="4.64248">
        <ele>517.20001220703</ele>
        <time>2019-02-20T07:35:54.000Z</time>
      </trkpt>
      <trkpt lat="45.30419" lon="4.64247">
        <ele>517.20001220703</ele>
        <time>2019-02-20T07:35:55.000Z</time>
      </trkpt>
      <trkpt lat="45.30421" lon="4.64246">
        <ele>517.59997558594</ele>
        <time>2019-02-20T07:35:56.000Z</time>
      </trkpt>
      <trkpt lat="45.30424" lon="4.64246">
        <ele>517.40002441406</ele>
        <time>2019-02-20T07:35:57.000Z</time>
      </trkpt>
      <trkpt lat="45.30426" lon="4.64245">
        <ele>517.59997558594</ele>
        <time>2019-02-20T07:35:58.000Z</time>
      </trkpt>
      <trkpt lat="45.30429" lon="4.64244">
        <ele>517.59997558594</ele>
        <time>2019-02-20T07:35:59.000Z</time>
      </trkpt>
      <trkpt lat="45.30432" lon="4.64244">
        <ele>517.40002441406</ele>
        <time>2019-02-20T07:36:00.000Z</time>
      </trkpt>
      <trkpt lat="45.30435" lon="4.64244">
        <ele>517.40002441406</ele>
        <time>2019-02-20T07:36:01.000Z</time>
      </trkpt>
      <trkpt lat="45.30438" lon="4.64244">
        <ele>517.59997558594</ele>
        <time>2019-02-20T07:36:02.000Z</time>
      </trkpt>
      <trkpt lat="45.30441" lon="4.64243">
        <ele>517.59997558594</ele>
        <time>2019-02-20T07:36:03.000Z</time>
      </trkpt>
      <trkpt lat="45.30444" lon="4.64243">
        <ele>517.40002441406</ele>
        <time>2019-02-20T07:36:04.000Z</time>
      </trkpt>
      <trkpt lat="45.30448" lon="4.64242">
        <ele>517.40002441406</ele>
        <time>2019-02-20T07:36:05.000Z</time>
      </trkpt>
      <trkpt lat="45.30451" lon="4.64241">
        <ele>517.40002441406</ele>
        <time>2019-02-20T07:36:06.000Z</time>
      </trkpt>
      <trkpt lat="45.30454" lon="4.64241">
        <ele>517.40002441406</ele>
        <time>2019-02-20T07:36:07.000Z</time>
      </trkpt>
      <trkpt lat="45.30457" lon="4.6424">
        <ele>517.20001220703</ele>
        <time>2019-02-20T07:36:08.000Z</time>
      </trkpt>
      <trkpt lat="45.30461" lon="4.64239">
        <ele>517.20001220703</ele>
        <time>2019-02-20T07:36:09.000Z</time>
      </trkpt>
      <trkpt lat="45.30464" lon="4.64238">
        <ele>516.79998779297</ele>
        <time>2019-02-20T07:36:10.000Z</time>
      </trkpt>
      <trkpt lat="45.30467" lon="4.64238">
        <ele>516.59997558594</ele>
        <time>2019-02-20T07:36:11.000Z</time>
      </trkpt>
      <trkpt lat="45.30471" lon="4.64238">
        <ele>516.20001220703</ele>
        <time>2019-02-20T07:36:12.000Z</time>
      </trkpt>
      <trkpt lat="45.30474" lon="4.64239">
        <ele>516</ele>
        <time>2019-02-20T07:36:13.000Z</time>
      </trkpt>
      <trkpt lat="45.30477" lon="4.64239">
        <ele>515.59997558594</ele>
        <time>2019-02-20T07:36:14.000Z</time>
      </trkpt>
      <trkpt lat="45.30479" lon="4.6424">
        <ele>515.59997558594</ele>
        <time>2019-02-20T07:36:15.000Z</time>
      </trkpt>
      <trkpt lat="45.30482" lon="4.64241">
        <ele>515.59997558594</ele>
        <time>2019-02-20T07:36:16.000Z</time>
      </trkpt>
      <trkpt lat="45.30486" lon="4.64242">
        <ele>515.59997558594</ele>
        <time>2019-02-20T07:36:17.000Z</time>
      </trkpt>
      <trkpt lat="45.30489" lon="4.64243">
        <ele>515.59997558594</ele>
        <time>2019-02-20T07:36:18.000Z</time>
      </trkpt>
      <trkpt lat="45.30491" lon="4.64243">
        <ele>515.59997558594</ele>
        <time>2019-02-20T07:36:19.000Z</time>
      </trkpt>
      <trkpt lat="45.30494" lon="4.64244">
        <ele>515.59997558594</ele>
        <time>2019-02-20T07:36:20.000Z</time>
      </trkpt>
      <trkpt lat="45.30498" lon="4.64245">
        <ele>515.59997558594</ele>
        <time>2019-02-20T07:36:21.000Z</time>
      </trkpt>
      <trkpt lat="45.30501" lon="4.64246">
        <ele>515.59997558594</ele>
        <time>2019-02-20T07:36:22.000Z</time>
      </trkpt>
      <trkpt lat="45.30504" lon="4.64248">
        <ele>515.40002441406</ele>
        <time>2019-02-20T07:36:23.000Z</time>
      </trkpt>
      <trkpt lat="45.30507" lon="4.64249">
        <ele>515.40002441406</ele>
        <time>2019-02-20T07:36:24.000Z</time>
      </trkpt>
      <trkpt lat="45.30509" lon="4.64249">
        <ele>515.40002441406</ele>
        <time>2019-02-20T07:36:25.000Z</time>
      </trkpt>
      <trkpt lat="45.30512" lon="4.6425">
        <ele>515.40002441406</ele>
        <time>2019-02-20T07:36:26.000Z</time>
      </trkpt>
      <trkpt lat="45.30515" lon="4.64251">
        <ele>515.40002441406</ele>
        <time>2019-02-20T07:36:27.000Z</time>
      </trkpt>
      <trkpt lat="45.30517" lon="4.64252">
        <ele>515.40002441406</ele>
        <time>2019-02-20T07:36:28.000Z</time>
      </trkpt>
      <trkpt lat="45.3052" lon="4.64253">
        <ele>515.59997558594</ele>
        <time>2019-02-20T07:36:29.000Z</time>
      </trkpt>
      <trkpt lat="45.30523" lon="4.64253">
        <ele>515.40002441406</ele>
        <time>2019-02-20T07:36:30.000Z</time>
      </trkpt>
      <trkpt lat="45.30526" lon="4.64254">
        <ele>515.40002441406</ele>
        <time>2019-02-20T07:36:31.000Z</time>
      </trkpt>
      <trkpt lat="45.30529" lon="4.64254">
        <ele>515.40002441406</ele>
        <time>2019-02-20T07:36:32.000Z</time>
      </trkpt>
      <trkpt lat="45.30532" lon="4.64254">
        <ele>515.40002441406</ele>
        <time>2019-02-20T07:36:33.000Z</time>
      </trkpt>
      <trkpt lat="45.30535" lon="4.64255">
        <ele>515.59997558594</ele>
        <time>2019-02-20T07:36:34.000Z</time>
      </trkpt>
      <trkpt lat="45.30538" lon="4.64256">
        <ele>515.40002441406</ele>
        <time>2019-02-20T07:36:35.000Z</time>
      </trkpt>
      <trkpt lat="45.30541" lon="4.64257">
        <ele>515.40002441406</ele>
        <time>2019-02-20T07:36:36.000Z</time>
      </trkpt>
      <trkpt lat="45.30544" lon="4.64258">
        <ele>515.40002441406</ele>
        <time>2019-02-20T07:36:37.000Z</time>
      </trkpt>
      <trkpt lat="45.30548" lon="4.64259">
        <ele>515.40002441406</ele>
        <time>2019-02-20T07:36:38.000Z</time>
      </trkpt>
      <trkpt lat="45.3055" lon="4.6426">
        <ele>515.40002441406</ele>
        <time>2019-02-20T07:36:39.000Z</time>
      </trkpt>
      <trkpt lat="45.30553" lon="4.64262">
        <ele>515.40002441406</ele>
        <time>2019-02-20T07:36:40.000Z</time>
      </trkpt>
      <trkpt lat="45.30555" lon="4.64264">
        <ele>515.40002441406</ele>
        <time>2019-02-20T07:36:41.000Z</time>
      </trkpt>
      <trkpt lat="45.30558" lon="4.64266">
        <ele>515.40002441406</ele>
        <time>2019-02-20T07:36:42.000Z</time>
      </trkpt>
      <trkpt lat="45.30561" lon="4.64269">
        <ele>515.20001220703</ele>
        <time>2019-02-20T07:36:43.000Z</time>
      </trkpt>
      <trkpt lat="45.30564" lon="4.64271">
        <ele>515.20001220703</ele>
        <time>2019-02-20T07:36:44.000Z</time>
      </trkpt>
      <trkpt lat="45.30566" lon="4.64273">
        <ele>515.20001220703</ele>
        <time>2019-02-20T07:36:45.000Z</time>
      </trkpt>
      <trkpt lat="45.30568" lon="4.64275">
        <ele>515.20001220703</ele>
        <time>2019-02-20T07:36:46.000Z</time>
      </trkpt>
      <trkpt lat="45.30571" lon="4.64276">
        <ele>515.20001220703</ele>
        <time>2019-02-20T07:36:47.000Z</time>
      </trkpt>
      <trkpt lat="45.30573" lon="4.64278">
        <ele>515.20001220703</ele>
        <time>2019-02-20T07:36:48.000Z</time>
      </trkpt>
      <trkpt lat="45.30576" lon="4.64281">
        <ele>515.20001220703</ele>
        <time>2019-02-20T07:36:49.000Z</time>
      </trkpt>
      <trkpt lat="45.30579" lon="4.64283">
        <ele>515.20001220703</ele>
        <time>2019-02-20T07:36:50.000Z</time>
      </trkpt>
      <trkpt lat="45.30582" lon="4.64285">
        <ele>515.40002441406</ele>
        <time>2019-02-20T07:36:51.000Z</time>
      </trkpt>
      <trkpt lat="45.30585" lon="4.64286">
        <ele>515.40002441406</ele>
        <time>2019-02-20T07:36:52.000Z</time>
      </trkpt>
      <trkpt lat="45.30587" lon="4.64288">
        <ele>515.20001220703</ele>
        <time>2019-02-20T07:36:53.000Z</time>
      </trkpt>
      <trkpt lat="45.3059" lon="4.64289">
        <ele>515.20001220703</ele>
        <time>2019-02-20T07:36:54.000Z</time>
      </trkpt>
      <trkpt lat="45.30593" lon="4.64291">
        <ele>515.20001220703</ele>
        <time>2019-02-20T07:36:55.000Z</time>
      </trkpt>
      <trkpt lat="45.30596" lon="4.64291">
        <ele>515.20001220703</ele>
        <time>2019-02-20T07:36:56.000Z</time>
      </trkpt>
      <trkpt lat="45.306" lon="4.64291">
        <ele>515.20001220703</ele>
        <time>2019-02-20T07:36:57.000Z</time>
      </trkpt>
      <trkpt lat="45.30603" lon="4.64291">
        <ele>515.40002441406</ele>
        <time>2019-02-20T07:36:58.000Z</time>
      </trkpt>
      <trkpt lat="45.30606" lon="4.6429">
        <ele>515.20001220703</ele>
        <time>2019-02-20T07:36:59.000Z</time>
      </trkpt>
      <trkpt lat="45.3061" lon="4.64289">
        <ele>515.40002441406</ele>
        <time>2019-02-20T07:37:00.000Z</time>
      </trkpt>
      <trkpt lat="45.30614" lon="4.64288">
        <ele>515.20001220703</ele>
        <time>2019-02-20T07:37:01.000Z</time>
      </trkpt>
      <trkpt lat="45.30617" lon="4.64286">
        <ele>515.40002441406</ele>
        <time>2019-02-20T07:37:02.000Z</time>
      </trkpt>
      <trkpt lat="45.30619" lon="4.64284">
        <ele>515.40002441406</ele>
        <time>2019-02-20T07:37:03.000Z</time>
      </trkpt>
      <trkpt lat="45.30621" lon="4.64281">
        <ele>515.40002441406</ele>
        <time>2019-02-20T07:37:04.000Z</time>
      </trkpt>
      <trkpt lat="45.30622" lon="4.64279">
        <ele>515.20001220703</ele>
        <time>2019-02-20T07:37:05.000Z</time>
      </trkpt>
      <trkpt lat="45.30622" lon="4.64277">
        <ele>515.40002441406</ele>
        <time>2019-02-20T07:37:06.000Z</time>
      </trkpt>
      <trkpt lat="45.30621" lon="4.64275">
        <ele>515.40002441406</ele>
        <time>2019-02-20T07:37:07.000Z</time>
      </trkpt>
      <trkpt lat="45.30621" lon="4.64272">
        <ele>515.40002441406</ele>
        <time>2019-02-20T07:37:08.000Z</time>
      </trkpt>
      <trkpt lat="45.3062" lon="4.6427">
        <ele>515.40002441406</ele>
        <time>2019-02-20T07:37:09.000Z</time>
      </trkpt>
      <trkpt lat="45.30619" lon="4.64269">
        <ele>515.40002441406</ele>
        <time>2019-02-20T07:37:10.000Z</time>
      </trkpt>
      <trkpt lat="45.30618" lon="4.64267">
        <ele>515.40002441406</ele>
        <time>2019-02-20T07:37:11.000Z</time>
      </trkpt>
      <trkpt lat="45.30617" lon="4.64266">
        <ele>515.40002441406</ele>
        <time>2019-02-20T07:37:12.000Z</time>
      </trkpt>
      <trkpt lat="45.30616" lon="4.64264">
        <ele>515.40002441406</ele>
        <time>2019-02-20T07:37:13.000Z</time>
      </trkpt>
      <trkpt lat="45.30615" lon="4.64263">
        <ele>515.40002441406</ele>
        <time>2019-02-20T07:37:14.000Z</time>
      </trkpt>
      <trkpt lat="45.30614" lon="4.64261">
        <ele>515.40002441406</ele>
        <time>2019-02-20T07:37:15.000Z</time>
      </trkpt>
      <trkpt lat="45.30613" lon="4.64259">
        <ele>515.40002441406</ele>
        <time>2019-02-20T07:37:16.000Z</time>
      </trkpt>
      <trkpt lat="45.30611" lon="4.64257">
        <ele>515.40002441406</ele>
        <time>2019-02-20T07:37:17.000Z</time>
      </trkpt>
      <trkpt lat="45.3061" lon="4.64254">
        <ele>515.40002441406</ele>
        <time>2019-02-20T07:37:18.000Z</time>
      </trkpt>
      <trkpt lat="45.30609" lon="4.64251">
        <ele>515.59997558594</ele>
        <time>2019-02-20T07:37:19.000Z</time>
      </trkpt>
      <trkpt lat="45.30607" lon="4.64249">
        <ele>515.40002441406</ele>
        <time>2019-02-20T07:37:20.000Z</time>
      </trkpt>
      <trkpt lat="45.30606" lon="4.64246">
        <ele>515.40002441406</ele>
        <time>2019-02-20T07:37:21.000Z</time>
      </trkpt>
      <trkpt lat="45.30604" lon="4.64243">
        <ele>515.40002441406</ele>
        <time>2019-02-20T07:37:22.000Z</time>
      </trkpt>
      <trkpt lat="45.30603" lon="4.64241">
        <ele>515.40002441406</ele>
        <time>2019-02-20T07:37:23.000Z</time>
      </trkpt>
      <trkpt lat="45.30601" lon="4.64238">
        <ele>515.40002441406</ele>
        <time>2019-02-20T07:37:24.000Z</time>
      </trkpt>
      <trkpt lat="45.306" lon="4.64235">
        <ele>515.40002441406</ele>
        <time>2019-02-20T07:37:25.000Z</time>
      </trkpt>
      <trkpt lat="45.30598" lon="4.64233">
        <ele>515.40002441406</ele>
        <time>2019-02-20T07:37:26.000Z</time>
      </trkpt>
      <trkpt lat="45.30596" lon="4.6423">
        <ele>515.20001220703</ele>
        <time>2019-02-20T07:37:27.000Z</time>
      </trkpt>
      <trkpt lat="45.30595" lon="4.64227">
        <ele>515.20001220703</ele>
        <time>2019-02-20T07:37:28.000Z</time>
      </trkpt>
      <trkpt lat="45.30593" lon="4.64225">
        <ele>515.40002441406</ele>
        <time>2019-02-20T07:37:29.000Z</time>
      </trkpt>
      <trkpt lat="45.30592" lon="4.64223">
        <ele>515.20001220703</ele>
        <time>2019-02-20T07:37:30.000Z</time>
      </trkpt>
      <trkpt lat="45.3059" lon="4.6422">
        <ele>515.20001220703</ele>
        <time>2019-02-20T07:37:31.000Z</time>
      </trkpt>
      <trkpt lat="45.30589" lon="4.64217">
        <ele>515.20001220703</ele>
        <time>2019-02-20T07:37:32.000Z</time>
      </trkpt>
      <trkpt lat="45.30587" lon="4.64214">
        <ele>515.20001220703</ele>
        <time>2019-02-20T07:37:33.000Z</time>
      </trkpt>
      <trkpt lat="45.30586" lon="4.64212">
        <ele>515</ele>
        <time>2019-02-20T07:37:34.000Z</time>
      </trkpt>
      <trkpt lat="45.30585" lon="4.64209">
        <ele>515</ele>
        <time>2019-02-20T07:37:35.000Z</time>
      </trkpt>
      <trkpt lat="45.30583" lon="4.64206">
        <ele>515.20001220703</ele>
        <time>2019-02-20T07:37:36.000Z</time>
      </trkpt>
      <trkpt lat="45.30582" lon="4.64204">
        <ele>515.20001220703</ele>
        <time>2019-02-20T07:37:37.000Z</time>
      </trkpt>
      <trkpt lat="45.3058" lon="4.642">
        <ele>515.20001220703</ele>
        <time>2019-02-20T07:37:38.000Z</time>
      </trkpt>
      <trkpt lat="45.3058" lon="4.64197">
        <ele>515</ele>
        <time>2019-02-20T07:37:39.000Z</time>
      </trkpt>
      <trkpt lat="45.3058" lon="4.64191">
        <ele>515.20001220703</ele>
        <time>2019-02-20T07:37:40.000Z</time>
      </trkpt>
      <trkpt lat="45.30581" lon="4.64187">
        <ele>515.20001220703</ele>
        <time>2019-02-20T07:37:41.000Z</time>
      </trkpt>
      <trkpt lat="45.30583" lon="4.64183">
        <ele>515.20001220703</ele>
        <time>2019-02-20T07:37:42.000Z</time>
      </trkpt>
      <trkpt lat="45.30584" lon="4.64179">
        <ele>515.20001220703</ele>
        <time>2019-02-20T07:37:43.000Z</time>
      </trkpt>
      <trkpt lat="45.30586" lon="4.64175">
        <ele>515</ele>
        <time>2019-02-20T07:37:44.000Z</time>
      </trkpt>
      <trkpt lat="45.30588" lon="4.64172">
        <ele>515.20001220703</ele>
        <time>2019-02-20T07:37:45.000Z</time>
      </trkpt>
      <trkpt lat="45.3059" lon="4.6417">
        <ele>515</ele>
        <time>2019-02-20T07:37:46.000Z</time>
      </trkpt>
      <trkpt lat="45.30592" lon="4.64167">
        <ele>515</ele>
        <time>2019-02-20T07:37:47.000Z</time>
      </trkpt>
      <trkpt lat="45.30594" lon="4.64164">
        <ele>515</ele>
        <time>2019-02-20T07:37:48.000Z</time>
      </trkpt>
      <trkpt lat="45.30596" lon="4.64162">
        <ele>515.20001220703</ele>
        <time>2019-02-20T07:37:49.000Z</time>
      </trkpt>
      <trkpt lat="45.30598" lon="4.64158">
        <ele>515</ele>
        <time>2019-02-20T07:37:50.000Z</time>
      </trkpt>
      <trkpt lat="45.306" lon="4.64155">
        <ele>515</ele>
        <time>2019-02-20T07:37:51.000Z</time>
      </trkpt>
      <trkpt lat="45.30603" lon="4.64152">
        <ele>515.20001220703</ele>
        <time>2019-02-20T07:37:52.000Z</time>
      </trkpt>
      <trkpt lat="45.30605" lon="4.6415">
        <ele>515</ele>
        <time>2019-02-20T07:37:53.000Z</time>
      </trkpt>
      <trkpt lat="45.30607" lon="4.64146">
        <ele>515.20001220703</ele>
        <time>2019-02-20T07:37:54.000Z</time>
      </trkpt>
      <trkpt lat="45.30609" lon="4.64143">
        <ele>515.20001220703</ele>
        <time>2019-02-20T07:37:55.000Z</time>
      </trkpt>
      <trkpt lat="45.30612" lon="4.64141">
        <ele>515.20001220703</ele>
        <time>2019-02-20T07:37:56.000Z</time>
      </trkpt>
      <trkpt lat="45.30614" lon="4.64138">
        <ele>515</ele>
        <time>2019-02-20T07:37:57.000Z</time>
      </trkpt>
      <trkpt lat="45.30616" lon="4.64135">
        <ele>515</ele>
        <time>2019-02-20T07:37:58.000Z</time>
      </trkpt>
      <trkpt lat="45.30619" lon="4.64132">
        <ele>515</ele>
        <time>2019-02-20T07:37:59.000Z</time>
      </trkpt>
      <trkpt lat="45.30621" lon="4.6413">
        <ele>515.20001220703</ele>
        <time>2019-02-20T07:38:00.000Z</time>
      </trkpt>
      <trkpt lat="45.30623" lon="4.64127">
        <ele>515.20001220703</ele>
        <time>2019-02-20T07:38:01.000Z</time>
      </trkpt>
      <trkpt lat="45.30625" lon="4.64124">
        <ele>515</ele>
        <time>2019-02-20T07:38:02.000Z</time>
      </trkpt>
      <trkpt lat="45.30627" lon="4.64122">
        <ele>515</ele>
        <time>2019-02-20T07:38:03.000Z</time>
      </trkpt>
      <trkpt lat="45.30629" lon="4.64119">
        <ele>515</ele>
        <time>2019-02-20T07:38:04.000Z</time>
      </trkpt>
      <trkpt lat="45.30632" lon="4.64116">
        <ele>515</ele>
        <time>2019-02-20T07:38:05.000Z</time>
      </trkpt>
      <trkpt lat="45.30634" lon="4.64113">
        <ele>515</ele>
        <time>2019-02-20T07:38:06.000Z</time>
      </trkpt>
      <trkpt lat="45.30636" lon="4.6411">
        <ele>515</ele>
        <time>2019-02-20T07:38:07.000Z</time>
      </trkpt>
      <trkpt lat="45.30639" lon="4.64107">
        <ele>515</ele>
        <time>2019-02-20T07:38:08.000Z</time>
      </trkpt>
      <trkpt lat="45.30641" lon="4.64104">
        <ele>515</ele>
        <time>2019-02-20T07:38:09.000Z</time>
      </trkpt>
      <trkpt lat="45.30643" lon="4.64101">
        <ele>515</ele>
        <time>2019-02-20T07:38:10.000Z</time>
      </trkpt>
      <trkpt lat="45.30645" lon="4.64099">
        <ele>515</ele>
        <time>2019-02-20T07:38:11.000Z</time>
      </trkpt>
      <trkpt lat="45.30648" lon="4.64096">
        <ele>515</ele>
        <time>2019-02-20T07:38:12.000Z</time>
      </trkpt>
      <trkpt lat="45.3065" lon="4.64093">
        <ele>515</ele>
        <time>2019-02-20T07:38:13.000Z</time>
      </trkpt>
      <trkpt lat="45.30652" lon="4.64091">
        <ele>514.79998779297</ele>
        <time>2019-02-20T07:38:14.000Z</time>
      </trkpt>
      <trkpt lat="45.30655" lon="4.64089">
        <ele>515</ele>
        <time>2019-02-20T07:38:15.000Z</time>
      </trkpt>
      <trkpt lat="45.30657" lon="4.64086">
        <ele>515</ele>
        <time>2019-02-20T07:38:16.000Z</time>
      </trkpt>
      <trkpt lat="45.30659" lon="4.64084">
        <ele>515</ele>
        <time>2019-02-20T07:38:17.000Z</time>
      </trkpt>
      <trkpt lat="45.30662" lon="4.64082">
        <ele>514.79998779297</ele>
        <time>2019-02-20T07:38:18.000Z</time>
      </trkpt>
      <trkpt lat="45.30665" lon="4.64079">
        <ele>514.79998779297</ele>
        <time>2019-02-20T07:38:19.000Z</time>
      </trkpt>
      <trkpt lat="45.30667" lon="4.64077">
        <ele>514.79998779297</ele>
        <time>2019-02-20T07:38:20.000Z</time>
      </trkpt>
      <trkpt lat="45.3067" lon="4.64076">
        <ele>515</ele>
        <time>2019-02-20T07:38:21.000Z</time>
      </trkpt>
      <trkpt lat="45.30672" lon="4.64074">
        <ele>515</ele>
        <time>2019-02-20T07:38:22.000Z</time>
      </trkpt>
      <trkpt lat="45.30674" lon="4.64073">
        <ele>515</ele>
        <time>2019-02-20T07:38:23.000Z</time>
      </trkpt>
      <trkpt lat="45.30677" lon="4.64071">
        <ele>515</ele>
        <time>2019-02-20T07:38:24.000Z</time>
      </trkpt>
      <trkpt lat="45.30679" lon="4.64069">
        <ele>514.79998779297</ele>
        <time>2019-02-20T07:38:25.000Z</time>
      </trkpt>
      <trkpt lat="45.30681" lon="4.64068">
        <ele>514.79998779297</ele>
        <time>2019-02-20T07:38:26.000Z</time>
      </trkpt>
      <trkpt lat="45.30683" lon="4.64067">
        <ele>515</ele>
        <time>2019-02-20T07:38:27.000Z</time>
      </trkpt>
      <trkpt lat="45.30685" lon="4.64065">
        <ele>515</ele>
        <time>2019-02-20T07:38:28.000Z</time>
      </trkpt>
      <trkpt lat="45.30687" lon="4.64063">
        <ele>515</ele>
        <time>2019-02-20T07:38:29.000Z</time>
      </trkpt>
      <trkpt lat="45.30689" lon="4.6406">
        <ele>515</ele>
        <time>2019-02-20T07:38:30.000Z</time>
      </trkpt>
      <trkpt lat="45.30692" lon="4.64058">
        <ele>515</ele>
        <time>2019-02-20T07:38:31.000Z</time>
      </trkpt>
      <trkpt lat="45.30694" lon="4.64056">
        <ele>515.20001220703</ele>
        <time>2019-02-20T07:38:32.000Z</time>
      </trkpt>
      <trkpt lat="45.30696" lon="4.64054">
        <ele>515</ele>
        <time>2019-02-20T07:38:33.000Z</time>
      </trkpt>
      <trkpt lat="45.30698" lon="4.64051">
        <ele>515</ele>
        <time>2019-02-20T07:38:34.000Z</time>
      </trkpt>
      <trkpt lat="45.30701" lon="4.64048">
        <ele>515</ele>
        <time>2019-02-20T07:38:35.000Z</time>
      </trkpt>
      <trkpt lat="45.30703" lon="4.64046">
        <ele>515</ele>
        <time>2019-02-20T07:38:36.000Z</time>
      </trkpt>
      <trkpt lat="45.30705" lon="4.64042">
        <ele>515</ele>
        <time>2019-02-20T07:38:37.000Z</time>
      </trkpt>
      <trkpt lat="45.30707" lon="4.64039">
        <ele>515</ele>
        <time>2019-02-20T07:38:38.000Z</time>
      </trkpt>
      <trkpt lat="45.3071" lon="4.64035">
        <ele>515</ele>
        <time>2019-02-20T07:38:39.000Z</time>
      </trkpt>
      <trkpt lat="45.30712" lon="4.64032">
        <ele>515</ele>
        <time>2019-02-20T07:38:40.000Z</time>
      </trkpt>
      <trkpt lat="45.30714" lon="4.64028">
        <ele>515</ele>
        <time>2019-02-20T07:38:41.000Z</time>
      </trkpt>
      <trkpt lat="45.30716" lon="4.64025">
        <ele>515</ele>
        <time>2019-02-20T07:38:42.000Z</time>
      </trkpt>
      <trkpt lat="45.30719" lon="4.64023">
        <ele>515</ele>
        <time>2019-02-20T07:38:43.000Z</time>
      </trkpt>
      <trkpt lat="45.30721" lon="4.6402">
        <ele>515</ele>
        <time>2019-02-20T07:38:44.000Z</time>
      </trkpt>
      <trkpt lat="45.30724" lon="4.64016">
        <ele>515</ele>
        <time>2019-02-20T07:38:45.000Z</time>
      </trkpt>
      <trkpt lat="45.30726" lon="4.64014">
        <ele>515</ele>
        <time>2019-02-20T07:38:46.000Z</time>
      </trkpt>
      <trkpt lat="45.30728" lon="4.64011">
        <ele>515</ele>
        <time>2019-02-20T07:38:47.000Z</time>
      </trkpt>
      <trkpt lat="45.30731" lon="4.64008">
        <ele>515</ele>
        <time>2019-02-20T07:38:48.000Z</time>
      </trkpt>
      <trkpt lat="45.30733" lon="4.64005">
        <ele>514.79998779297</ele>
        <time>2019-02-20T07:38:49.000Z</time>
      </trkpt>
      <trkpt lat="45.30735" lon="4.64003">
        <ele>515</ele>
        <time>2019-02-20T07:38:50.000Z</time>
      </trkpt>
      <trkpt lat="45.30737" lon="4.64">
        <ele>514.79998779297</ele>
        <time>2019-02-20T07:38:51.000Z</time>
      </trkpt>
      <trkpt lat="45.3074" lon="4.63997">
        <ele>514.79998779297</ele>
        <time>2019-02-20T07:38:52.000Z</time>
      </trkpt>
      <trkpt lat="45.30742" lon="4.63994">
        <ele>514.79998779297</ele>
        <time>2019-02-20T07:38:53.000Z</time>
      </trkpt>
      <trkpt lat="45.30743" lon="4.63991">
        <ele>515</ele>
        <time>2019-02-20T07:38:54.000Z</time>
      </trkpt>
      <trkpt lat="45.30745" lon="4.63988">
        <ele>515</ele>
        <time>2019-02-20T07:38:55.000Z</time>
      </trkpt>
      <trkpt lat="45.30748" lon="4.63985">
        <ele>514.79998779297</ele>
        <time>2019-02-20T07:38:56.000Z</time>
      </trkpt>
      <trkpt lat="45.3075" lon="4.63983">
        <ele>515</ele>
        <time>2019-02-20T07:38:57.000Z</time>
      </trkpt>
      <trkpt lat="45.30753" lon="4.63979">
        <ele>514.79998779297</ele>
        <time>2019-02-20T07:38:58.000Z</time>
      </trkpt>
      <trkpt lat="45.30755" lon="4.63976">
        <ele>514.79998779297</ele>
        <time>2019-02-20T07:38:59.000Z</time>
      </trkpt>
      <trkpt lat="45.30758" lon="4.63974">
        <ele>514.79998779297</ele>
        <time>2019-02-20T07:39:00.000Z</time>
      </trkpt>
      <trkpt lat="45.3076" lon="4.6397">
        <ele>514.79998779297</ele>
        <time>2019-02-20T07:39:01.000Z</time>
      </trkpt>
      <trkpt lat="45.30763" lon="4.63968">
        <ele>515</ele>
        <time>2019-02-20T07:39:02.000Z</time>
      </trkpt>
      <trkpt lat="45.30766" lon="4.63965">
        <ele>514.79998779297</ele>
        <time>2019-02-20T07:39:03.000Z</time>
      </trkpt>
      <trkpt lat="45.30769" lon="4.63962">
        <ele>514.79998779297</ele>
        <time>2019-02-20T07:39:04.000Z</time>
      </trkpt>
      <trkpt lat="45.30771" lon="4.63959">
        <ele>514.79998779297</ele>
        <time>2019-02-20T07:39:05.000Z</time>
      </trkpt>
      <trkpt lat="45.30774" lon="4.63958">
        <ele>514.79998779297</ele>
        <time>2019-02-20T07:39:06.000Z</time>
      </trkpt>
      <trkpt lat="45.30777" lon="4.63957">
        <ele>514.79998779297</ele>
        <time>2019-02-20T07:39:07.000Z</time>
      </trkpt>
      <trkpt lat="45.30779" lon="4.63958">
        <ele>514.79998779297</ele>
        <time>2019-02-20T07:39:08.000Z</time>
      </trkpt>
      <trkpt lat="45.30781" lon="4.63959">
        <ele>515</ele>
        <time>2019-02-20T07:39:09.000Z</time>
      </trkpt>
      <trkpt lat="45.30784" lon="4.6396">
        <ele>515</ele>
        <time>2019-02-20T07:39:10.000Z</time>
      </trkpt>
      <trkpt lat="45.30786" lon="4.63961">
        <ele>515</ele>
        <time>2019-02-20T07:39:11.000Z</time>
      </trkpt>
      <trkpt lat="45.30789" lon="4.63961">
        <ele>514.79998779297</ele>
        <time>2019-02-20T07:39:12.000Z</time>
      </trkpt>
      <trkpt lat="45.30793" lon="4.63962">
        <ele>514.79998779297</ele>
        <time>2019-02-20T07:39:13.000Z</time>
      </trkpt>
      <trkpt lat="45.30796" lon="4.63962">
        <ele>514.79998779297</ele>
        <time>2019-02-20T07:39:14.000Z</time>
      </trkpt>
      <trkpt lat="45.30799" lon="4.63963">
        <ele>515</ele>
        <time>2019-02-20T07:39:15.000Z</time>
      </trkpt>
      <trkpt lat="45.30802" lon="4.63964">
        <ele>515</ele>
        <time>2019-02-20T07:39:16.000Z</time>
      </trkpt>
      <trkpt lat="45.30805" lon="4.63964">
        <ele>515</ele>
        <time>2019-02-20T07:39:17.000Z</time>
      </trkpt>
      <trkpt lat="45.30809" lon="4.63964">
        <ele>515</ele>
        <time>2019-02-20T07:39:18.000Z</time>
      </trkpt>
      <trkpt lat="45.30812" lon="4.63963">
        <ele>515</ele>
        <time>2019-02-20T07:39:19.000Z</time>
      </trkpt>
      <trkpt lat="45.30814" lon="4.63961">
        <ele>515</ele>
        <time>2019-02-20T07:39:20.000Z</time>
      </trkpt>
      <trkpt lat="45.30815" lon="4.63958">
        <ele>515</ele>
        <time>2019-02-20T07:39:21.000Z</time>
      </trkpt>
      <trkpt lat="45.30815" lon="4.63954">
        <ele>515</ele>
        <time>2019-02-20T07:39:22.000Z</time>
      </trkpt>
      <trkpt lat="45.30815" lon="4.63952">
        <ele>515</ele>
        <time>2019-02-20T07:39:23.000Z</time>
      </trkpt>
      <trkpt lat="45.30814" lon="4.63949">
        <ele>515</ele>
        <time>2019-02-20T07:39:24.000Z</time>
      </trkpt>
      <trkpt lat="45.30813" lon="4.63947">
        <ele>515</ele>
        <time>2019-02-20T07:39:25.000Z</time>
      </trkpt>
      <trkpt lat="45.30812" lon="4.63944">
        <ele>515.20001220703</ele>
        <time>2019-02-20T07:39:26.000Z</time>
      </trkpt>
      <trkpt lat="45.30811" lon="4.6394">
        <ele>515.20001220703</ele>
        <time>2019-02-20T07:39:27.000Z</time>
      </trkpt>
      <trkpt lat="45.30811" lon="4.63935">
        <ele>515.20001220703</ele>
        <time>2019-02-20T07:39:28.000Z</time>
      </trkpt>
      <trkpt lat="45.30811" lon="4.63931">
        <ele>515.20001220703</ele>
        <time>2019-02-20T07:39:29.000Z</time>
      </trkpt>
      <trkpt lat="45.30812" lon="4.63927">
        <ele>515.20001220703</ele>
        <time>2019-02-20T07:39:30.000Z</time>
      </trkpt>
      <trkpt lat="45.30813" lon="4.63922">
        <ele>515.20001220703</ele>
        <time>2019-02-20T07:39:31.000Z</time>
      </trkpt>
      <trkpt lat="45.30814" lon="4.63919">
        <ele>515.40002441406</ele>
        <time>2019-02-20T07:39:32.000Z</time>
      </trkpt>
      <trkpt lat="45.30816" lon="4.63915">
        <ele>515.20001220703</ele>
        <time>2019-02-20T07:39:33.000Z</time>
      </trkpt>
      <trkpt lat="45.30819" lon="4.63912">
        <ele>515.20001220703</ele>
        <time>2019-02-20T07:39:34.000Z</time>
      </trkpt>
      <trkpt lat="45.30821" lon="4.63908">
        <ele>515.20001220703</ele>
        <time>2019-02-20T07:39:35.000Z</time>
      </trkpt>
      <trkpt lat="45.30823" lon="4.63905">
        <ele>515.20001220703</ele>
        <time>2019-02-20T07:39:36.000Z</time>
      </trkpt>
      <trkpt lat="45.30826" lon="4.63901">
        <ele>515</ele>
        <time>2019-02-20T07:39:37.000Z</time>
      </trkpt>
      <trkpt lat="45.30829" lon="4.63899">
        <ele>514.79998779297</ele>
        <time>2019-02-20T07:39:38.000Z</time>
      </trkpt>
      <trkpt lat="45.30832" lon="4.63896">
        <ele>514.79998779297</ele>
        <time>2019-02-20T07:39:39.000Z</time>
      </trkpt>
      <trkpt lat="45.30834" lon="4.63893">
        <ele>514.79998779297</ele>
        <time>2019-02-20T07:39:40.000Z</time>
      </trkpt>
      <trkpt lat="45.30837" lon="4.63889">
        <ele>514.79998779297</ele>
        <time>2019-02-20T07:39:41.000Z</time>
      </trkpt>
      <trkpt lat="45.30839" lon="4.63885">
        <ele>514.79998779297</ele>
        <time>2019-02-20T07:39:42.000Z</time>
      </trkpt>
      <trkpt lat="45.30841" lon="4.63881">
        <ele>514.59997558594</ele>
        <time>2019-02-20T07:39:43.000Z</time>
      </trkpt>
      <trkpt lat="45.30844" lon="4.63877">
        <ele>514.59997558594</ele>
        <time>2019-02-20T07:39:44.000Z</time>
      </trkpt>
      <trkpt lat="45.30847" lon="4.63874">
        <ele>514.59997558594</ele>
        <time>2019-02-20T07:39:45.000Z</time>
      </trkpt>
      <trkpt lat="45.3085" lon="4.6387">
        <ele>514.59997558594</ele>
        <time>2019-02-20T07:39:46.000Z</time>
      </trkpt>
      <trkpt lat="45.30852" lon="4.63867">
        <ele>514.40002441406</ele>
        <time>2019-02-20T07:39:47.000Z</time>
      </trkpt>
      <trkpt lat="45.30855" lon="4.63865">
        <ele>514.40002441406</ele>
        <time>2019-02-20T07:39:48.000Z</time>
      </trkpt>
      <trkpt lat="45.30857" lon="4.63862">
        <ele>514.40002441406</ele>
        <time>2019-02-20T07:39:49.000Z</time>
      </trkpt>
      <trkpt lat="45.30859" lon="4.63859">
        <ele>514.20001220703</ele>
        <time>2019-02-20T07:39:50.000Z</time>
      </trkpt>
      <trkpt lat="45.30862" lon="4.63857">
        <ele>514.20001220703</ele>
        <time>2019-02-20T07:39:51.000Z</time>
      </trkpt>
      <trkpt lat="45.30865" lon="4.63853">
        <ele>514.20001220703</ele>
        <time>2019-02-20T07:39:52.000Z</time>
      </trkpt>
      <trkpt lat="45.30867" lon="4.6385">
        <ele>514.20001220703</ele>
        <time>2019-02-20T07:39:53.000Z</time>
      </trkpt>
      <trkpt lat="45.3087" lon="4.63847">
        <ele>514.20001220703</ele>
        <time>2019-02-20T07:39:54.000Z</time>
      </trkpt>
      <trkpt lat="45.30873" lon="4.63844">
        <ele>514</ele>
        <time>2019-02-20T07:39:55.000Z</time>
      </trkpt>
      <trkpt lat="45.30875" lon="4.63841">
        <ele>514</ele>
        <time>2019-02-20T07:39:56.000Z</time>
      </trkpt>
      <trkpt lat="45.30878" lon="4.63838">
        <ele>514.20001220703</ele>
        <time>2019-02-20T07:39:57.000Z</time>
      </trkpt>
      <trkpt lat="45.3088" lon="4.63834">
        <ele>514.20001220703</ele>
        <time>2019-02-20T07:39:58.000Z</time>
      </trkpt>
      <trkpt lat="45.30883" lon="4.6383">
        <ele>514</ele>
        <time>2019-02-20T07:39:59.000Z</time>
      </trkpt>
      <trkpt lat="45.30885" lon="4.63826">
        <ele>514</ele>
        <time>2019-02-20T07:40:00.000Z</time>
      </trkpt>
      <trkpt lat="45.30888" lon="4.63822">
        <ele>514.20001220703</ele>
        <time>2019-02-20T07:40:01.000Z</time>
      </trkpt>
      <trkpt lat="45.3089" lon="4.63818">
        <ele>514.20001220703</ele>
        <time>2019-02-20T07:40:02.000Z</time>
      </trkpt>
      <trkpt lat="45.30892" lon="4.63813">
        <ele>514</ele>
        <time>2019-02-20T07:40:03.000Z</time>
      </trkpt>
      <trkpt lat="45.30895" lon="4.63808">
        <ele>514.20001220703</ele>
        <time>2019-02-20T07:40:04.000Z</time>
      </trkpt>
      <trkpt lat="45.30897" lon="4.63802">
        <ele>514.20001220703</ele>
        <time>2019-02-20T07:40:05.000Z</time>
      </trkpt>
      <trkpt lat="45.30899" lon="4.63797">
        <ele>514.20001220703</ele>
        <time>2019-02-20T07:40:06.000Z</time>
      </trkpt>
      <trkpt lat="45.309" lon="4.63792">
        <ele>514.20001220703</ele>
        <time>2019-02-20T07:40:07.000Z</time>
      </trkpt>
      <trkpt lat="45.30901" lon="4.63787">
        <ele>514.20001220703</ele>
        <time>2019-02-20T07:40:08.000Z</time>
      </trkpt>
      <trkpt lat="45.30902" lon="4.63782">
        <ele>514.20001220703</ele>
        <time>2019-02-20T07:40:09.000Z</time>
      </trkpt>
      <trkpt lat="45.30903" lon="4.63777">
        <ele>514.20001220703</ele>
        <time>2019-02-20T07:40:10.000Z</time>
      </trkpt>
      <trkpt lat="45.30905" lon="4.63772">
        <ele>514</ele>
        <time>2019-02-20T07:40:11.000Z</time>
      </trkpt>
      <trkpt lat="45.30906" lon="4.63767">
        <ele>514.20001220703</ele>
        <time>2019-02-20T07:40:12.000Z</time>
      </trkpt>
      <trkpt lat="45.30907" lon="4.63763">
        <ele>514</ele>
        <time>2019-02-20T07:40:13.000Z</time>
      </trkpt>
      <trkpt lat="45.30908" lon="4.63759">
        <ele>514</ele>
        <time>2019-02-20T07:40:14.000Z</time>
      </trkpt>
      <trkpt lat="45.30909" lon="4.63755">
        <ele>514.20001220703</ele>
        <time>2019-02-20T07:40:15.000Z</time>
      </trkpt>
      <trkpt lat="45.3091" lon="4.63751">
        <ele>514</ele>
        <time>2019-02-20T07:40:16.000Z</time>
      </trkpt>
      <trkpt lat="45.30911" lon="4.63747">
        <ele>514</ele>
        <time>2019-02-20T07:40:17.000Z</time>
      </trkpt>
      <trkpt lat="45.30913" lon="4.63742">
        <ele>514.20001220703</ele>
        <time>2019-02-20T07:40:18.000Z</time>
      </trkpt>
      <trkpt lat="45.30914" lon="4.63738">
        <ele>514.20001220703</ele>
        <time>2019-02-20T07:40:19.000Z</time>
      </trkpt>
      <trkpt lat="45.30916" lon="4.63734">
        <ele>514</ele>
        <time>2019-02-20T07:40:20.000Z</time>
      </trkpt>
      <trkpt lat="45.30918" lon="4.6373">
        <ele>514</ele>
        <time>2019-02-20T07:40:21.000Z</time>
      </trkpt>
      <trkpt lat="45.30921" lon="4.63726">
        <ele>514.20001220703</ele>
        <time>2019-02-20T07:40:22.000Z</time>
      </trkpt>
      <trkpt lat="45.30924" lon="4.63723">
        <ele>514.20001220703</ele>
        <time>2019-02-20T07:40:23.000Z</time>
      </trkpt>
      <trkpt lat="45.30926" lon="4.6372">
        <ele>514</ele>
        <time>2019-02-20T07:40:24.000Z</time>
      </trkpt>
      <trkpt lat="45.30929" lon="4.63719">
        <ele>514</ele>
        <time>2019-02-20T07:40:25.000Z</time>
      </trkpt>
      <trkpt lat="45.30931" lon="4.63717">
        <ele>514.20001220703</ele>
        <time>2019-02-20T07:40:26.000Z</time>
      </trkpt>
      <trkpt lat="45.30934" lon="4.63716">
        <ele>514.20001220703</ele>
        <time>2019-02-20T07:40:27.000Z</time>
      </trkpt>
      <trkpt lat="45.30936" lon="4.63715">
        <ele>514</ele>
        <time>2019-02-20T07:40:28.000Z</time>
      </trkpt>
      <trkpt lat="45.30938" lon="4.63714">
        <ele>514.40002441406</ele>
        <time>2019-02-20T07:40:29.000Z</time>
      </trkpt>
      <trkpt lat="45.30941" lon="4.63712">
        <ele>514.20001220703</ele>
        <time>2019-02-20T07:40:30.000Z</time>
      </trkpt>
      <trkpt lat="45.30943" lon="4.6371">
        <ele>514.40002441406</ele>
        <time>2019-02-20T07:40:31.000Z</time>
      </trkpt>
      <trkpt lat="45.30946" lon="4.63709">
        <ele>514.40002441406</ele>
        <time>2019-02-20T07:40:32.000Z</time>
      </trkpt>
      <trkpt lat="45.30949" lon="4.63708">
        <ele>514.59997558594</ele>
        <time>2019-02-20T07:40:33.000Z</time>
      </trkpt>
      <trkpt lat="45.30951" lon="4.63706">
        <ele>514.40002441406</ele>
        <time>2019-02-20T07:40:34.000Z</time>
      </trkpt>
      <trkpt lat="45.30954" lon="4.63705">
        <ele>514.59997558594</ele>
        <time>2019-02-20T07:40:35.000Z</time>
      </trkpt>
      <trkpt lat="45.30956" lon="4.63703">
        <ele>514.59997558594</ele>
        <time>2019-02-20T07:40:36.000Z</time>
      </trkpt>
      <trkpt lat="45.30958" lon="4.63701">
        <ele>514.59997558594</ele>
        <time>2019-02-20T07:40:37.000Z</time>
      </trkpt>
      <trkpt lat="45.3096" lon="4.63698">
        <ele>514.79998779297</ele>
        <time>2019-02-20T07:40:38.000Z</time>
      </trkpt>
      <trkpt lat="45.30961" lon="4.63696">
        <ele>514.59997558594</ele>
        <time>2019-02-20T07:40:39.000Z</time>
      </trkpt>
      <trkpt lat="45.30964" lon="4.63694">
        <ele>514.59997558594</ele>
        <time>2019-02-20T07:40:40.000Z</time>
      </trkpt>
      <trkpt lat="45.30967" lon="4.63691">
        <ele>514.79998779297</ele>
        <time>2019-02-20T07:40:41.000Z</time>
      </trkpt>
      <trkpt lat="45.3097" lon="4.63688">
        <ele>514.79998779297</ele>
        <time>2019-02-20T07:40:42.000Z</time>
      </trkpt>
      <trkpt lat="45.30973" lon="4.63684">
        <ele>514.79998779297</ele>
        <time>2019-02-20T07:40:43.000Z</time>
      </trkpt>
      <trkpt lat="45.30975" lon="4.63681">
        <ele>514.79998779297</ele>
        <time>2019-02-20T07:40:44.000Z</time>
      </trkpt>
      <trkpt lat="45.30977" lon="4.63677">
        <ele>514.79998779297</ele>
        <time>2019-02-20T07:40:45.000Z</time>
      </trkpt>
      <trkpt lat="45.30978" lon="4.63674">
        <ele>515</ele>
        <time>2019-02-20T07:40:46.000Z</time>
      </trkpt>
      <trkpt lat="45.30978" lon="4.63672">
        <ele>515</ele>
        <time>2019-02-20T07:40:47.000Z</time>
      </trkpt>
      <trkpt lat="45.30978" lon="4.63669">
        <ele>515.20001220703</ele>
        <time>2019-02-20T07:40:48.000Z</time>
      </trkpt>
      <trkpt lat="45.30977" lon="4.63667">
        <ele>515.20001220703</ele>
        <time>2019-02-20T07:40:49.000Z</time>
      </trkpt>
      <trkpt lat="45.30976" lon="4.63665">
        <ele>515.20001220703</ele>
        <time>2019-02-20T07:40:50.000Z</time>
      </trkpt>
      <trkpt lat="45.30975" lon="4.63662">
        <ele>515.40002441406</ele>
        <time>2019-02-20T07:40:51.000Z</time>
      </trkpt>
      <trkpt lat="45.30974" lon="4.63659">
        <ele>515.40002441406</ele>
        <time>2019-02-20T07:40:52.000Z</time>
      </trkpt>
      <trkpt lat="45.30973" lon="4.63657">
        <ele>515.40002441406</ele>
        <time>2019-02-20T07:40:53.000Z</time>
      </trkpt>
      <trkpt lat="45.30971" lon="4.63654">
        <ele>515.59997558594</ele>
        <time>2019-02-20T07:40:54.000Z</time>
      </trkpt>
      <trkpt lat="45.3097" lon="4.63652">
        <ele>515.40002441406</ele>
        <time>2019-02-20T07:40:55.000Z</time>
      </trkpt>
      <trkpt lat="45.30969" lon="4.6365">
        <ele>515.59997558594</ele>
        <time>2019-02-20T07:40:56.000Z</time>
      </trkpt>
      <trkpt lat="45.30967" lon="4.63648">
        <ele>515.40002441406</ele>
        <time>2019-02-20T07:40:57.000Z</time>
      </trkpt>
      <trkpt lat="45.30965" lon="4.63647">
        <ele>515.40002441406</ele>
        <time>2019-02-20T07:40:58.000Z</time>
      </trkpt>
      <trkpt lat="45.30962" lon="4.63646">
        <ele>515.59997558594</ele>
        <time>2019-02-20T07:40:59.000Z</time>
      </trkpt>
      <trkpt lat="45.30958" lon="4.63645">
        <ele>515.59997558594</ele>
        <time>2019-02-20T07:41:00.000Z</time>
      </trkpt>
      <trkpt lat="45.30955" lon="4.63644">
        <ele>515.59997558594</ele>
        <time>2019-02-20T07:41:01.000Z</time>
      </trkpt>
      <trkpt lat="45.30951" lon="4.63644">
        <ele>515.59997558594</ele>
        <time>2019-02-20T07:41:02.000Z</time>
      </trkpt>
      <trkpt lat="45.30948" lon="4.63644">
        <ele>515.59997558594</ele>
        <time>2019-02-20T07:41:03.000Z</time>
      </trkpt>
      <trkpt lat="45.30945" lon="4.63644">
        <ele>515.59997558594</ele>
        <time>2019-02-20T07:41:04.000Z</time>
      </trkpt>
      <trkpt lat="45.30942" lon="4.63644">
        <ele>515.59997558594</ele>
        <time>2019-02-20T07:41:05.000Z</time>
      </trkpt>
      <trkpt lat="45.3094" lon="4.63644">
        <ele>515.40002441406</ele>
        <time>2019-02-20T07:41:06.000Z</time>
      </trkpt>
      <trkpt lat="45.30939" lon="4.63644">
        <ele>515.40002441406</ele>
        <time>2019-02-20T07:41:07.000Z</time>
      </trkpt>
      <trkpt lat="45.30938" lon="4.63645">
        <ele>515.40002441406</ele>
        <time>2019-02-20T07:41:08.000Z</time>
      </trkpt>
      <trkpt lat="45.30938" lon="4.63645">
        <ele>515.59997558594</ele>
        <time>2019-02-20T07:41:09.000Z</time>
      </trkpt>
      <trkpt lat="45.30938" lon="4.63646">
        <ele>515.40002441406</ele>
        <time>2019-02-20T07:41:10.000Z</time>
      </trkpt>
      <trkpt lat="45.30938" lon="4.63647">
        <ele>515.40002441406</ele>
        <time>2019-02-20T07:41:11.000Z</time>
      </trkpt>
      <trkpt lat="45.30939" lon="4.63648">
        <ele>515.40002441406</ele>
        <time>2019-02-20T07:41:12.000Z</time>
      </trkpt>
      <trkpt lat="45.3094" lon="4.63649">
        <ele>515.20001220703</ele>
        <time>2019-02-20T07:41:13.000Z</time>
      </trkpt>
      <trkpt lat="45.30941" lon="4.63649">
        <ele>515.20001220703</ele>
        <time>2019-02-20T07:41:14.000Z</time>
      </trkpt>
      <trkpt lat="45.30943" lon="4.63649">
        <ele>515.20001220703</ele>
        <time>2019-02-20T07:41:15.000Z</time>
      </trkpt>
      <trkpt lat="45.30945" lon="4.63651">
        <ele>515.20001220703</ele>
        <time>2019-02-20T07:41:16.000Z</time>
      </trkpt>
      <trkpt lat="45.30946" lon="4.63654">
        <ele>515.20001220703</ele>
        <time>2019-02-20T07:41:17.000Z</time>
      </trkpt>
      <trkpt lat="45.30944" lon="4.63657">
        <ele>515.20001220703</ele>
        <time>2019-02-20T07:41:18.000Z</time>
      </trkpt>
      <trkpt lat="45.30942" lon="4.63659">
        <ele>515.20001220703</ele>
        <time>2019-02-20T07:41:19.000Z</time>
      </trkpt>
      <trkpt lat="45.3094" lon="4.6366">
        <ele>515</ele>
        <time>2019-02-20T07:41:20.000Z</time>
      </trkpt>
      <trkpt lat="45.30939" lon="4.63659">
        <ele>515.20001220703</ele>
        <time>2019-02-20T07:41:21.000Z</time>
      </trkpt>
      <trkpt lat="45.30936" lon="4.63659">
        <ele>515</ele>
        <time>2019-02-20T07:41:22.000Z</time>
      </trkpt>
      <trkpt lat="45.30934" lon="4.63658">
        <ele>514.79998779297</ele>
        <time>2019-02-20T07:41:23.000Z</time>
      </trkpt>
      <trkpt lat="45.30932" lon="4.63659">
        <ele>514.59997558594</ele>
        <time>2019-02-20T07:41:24.000Z</time>
      </trkpt>
      <trkpt lat="45.30929" lon="4.63658">
        <ele>514.20001220703</ele>
        <time>2019-02-20T07:41:25.000Z</time>
      </trkpt>
      <trkpt lat="45.30927" lon="4.63658">
        <ele>514</ele>
        <time>2019-02-20T07:41:26.000Z</time>
      </trkpt>
      <trkpt lat="45.30926" lon="4.63659">
        <ele>513.79998779297</ele>
        <time>2019-02-20T07:41:27.000Z</time>
      </trkpt>
      <trkpt lat="45.30925" lon="4.63659">
        <ele>513.79998779297</ele>
        <time>2019-02-20T07:41:28.000Z</time>
      </trkpt>
      <trkpt lat="45.30923" lon="4.63659">
        <ele>513.79998779297</ele>
        <time>2019-02-20T07:41:29.000Z</time>
      </trkpt>
      <trkpt lat="45.30922" lon="4.63661">
        <ele>513.59997558594</ele>
        <time>2019-02-20T07:41:30.000Z</time>
      </trkpt>
      <trkpt lat="45.3092" lon="4.63662">
        <ele>513.59997558594</ele>
        <time>2019-02-20T07:41:31.000Z</time>
      </trkpt>
      <trkpt lat="45.30918" lon="4.63663">
        <ele>513.40002441406</ele>
        <time>2019-02-20T07:41:32.000Z</time>
      </trkpt>
      <trkpt lat="45.30916" lon="4.63663">
        <ele>513.40002441406</ele>
        <time>2019-02-20T07:41:33.000Z</time>
      </trkpt>
      <trkpt lat="45.30914" lon="4.63664">
        <ele>513.20001220703</ele>
        <time>2019-02-20T07:41:34.000Z</time>
      </trkpt>
      <trkpt lat="45.30912" lon="4.63664">
        <ele>513.20001220703</ele>
        <time>2019-02-20T07:41:35.000Z</time>
      </trkpt>
      <trkpt lat="45.3091" lon="4.63665">
        <ele>513.20001220703</ele>
        <time>2019-02-20T07:41:36.000Z</time>
      </trkpt>
      <trkpt lat="45.30908" lon="4.63666">
        <ele>513.20001220703</ele>
        <time>2019-02-20T07:41:37.000Z</time>
      </trkpt>
      <trkpt lat="45.30906" lon="4.63666">
        <ele>513.20001220703</ele>
        <time>2019-02-20T07:41:38.000Z</time>
      </trkpt>
      <trkpt lat="45.30903" lon="4.63666">
        <ele>513</ele>
        <time>2019-02-20T07:41:39.000Z</time>
      </trkpt>
      <trkpt lat="45.30901" lon="4.63666">
        <ele>513</ele>
        <time>2019-02-20T07:41:40.000Z</time>
      </trkpt>
      <trkpt lat="45.30899" lon="4.63667">
        <ele>513</ele>
        <time>2019-02-20T07:41:41.000Z</time>
      </trkpt>
      <trkpt lat="45.30896" lon="4.63668">
        <ele>513</ele>
        <time>2019-02-20T07:41:42.000Z</time>
      </trkpt>
      <trkpt lat="45.30893" lon="4.63669">
        <ele>513.20001220703</ele>
        <time>2019-02-20T07:41:43.000Z</time>
      </trkpt>
      <trkpt lat="45.3089" lon="4.63669">
        <ele>513.20001220703</ele>
        <time>2019-02-20T07:41:44.000Z</time>
      </trkpt>
      <trkpt lat="45.30887" lon="4.6367">
        <ele>513</ele>
        <time>2019-02-20T07:41:45.000Z</time>
      </trkpt>
      <trkpt lat="45.30885" lon="4.63669">
        <ele>512.79998779297</ele>
        <time>2019-02-20T07:41:46.000Z</time>
      </trkpt>
      <trkpt lat="45.30882" lon="4.63668">
        <ele>512.79998779297</ele>
        <time>2019-02-20T07:41:47.000Z</time>
      </trkpt>
      <trkpt lat="45.30879" lon="4.63668">
        <ele>512.79998779297</ele>
        <time>2019-02-20T07:41:48.000Z</time>
      </trkpt>
      <trkpt lat="45.30877" lon="4.63668">
        <ele>512.79998779297</ele>
        <time>2019-02-20T07:41:49.000Z</time>
      </trkpt>
      <trkpt lat="45.30875" lon="4.63668">
        <ele>512.79998779297</ele>
        <time>2019-02-20T07:41:50.000Z</time>
      </trkpt>
      <trkpt lat="45.30873" lon="4.63668">
        <ele>512.79998779297</ele>
        <time>2019-02-20T07:41:51.000Z</time>
      </trkpt>
      <trkpt lat="45.30871" lon="4.63669">
        <ele>512.59997558594</ele>
        <time>2019-02-20T07:41:52.000Z</time>
      </trkpt>
      <trkpt lat="45.30869" lon="4.6367">
        <ele>512.79998779297</ele>
        <time>2019-02-20T07:41:53.000Z</time>
      </trkpt>
      <trkpt lat="45.30866" lon="4.63671">
        <ele>512.79998779297</ele>
        <time>2019-02-20T07:41:54.000Z</time>
      </trkpt>
      <trkpt lat="45.30864" lon="4.63672">
        <ele>512.59997558594</ele>
        <time>2019-02-20T07:41:55.000Z</time>
      </trkpt>
      <trkpt lat="45.30862" lon="4.63673">
        <ele>512.59997558594</ele>
        <time>2019-02-20T07:41:56.000Z</time>
      </trkpt>
      <trkpt lat="45.3086" lon="4.63673">
        <ele>512.59997558594</ele>
        <time>2019-02-20T07:41:57.000Z</time>
      </trkpt>
      <trkpt lat="45.30859" lon="4.63674">
        <ele>512.59997558594</ele>
        <time>2019-02-20T07:41:58.000Z</time>
      </trkpt>
      <trkpt lat="45.30857" lon="4.63675">
        <ele>512.40002441406</ele>
        <time>2019-02-20T07:41:59.000Z</time>
      </trkpt>
      <trkpt lat="45.30856" lon="4.63676">
        <ele>512.59997558594</ele>
        <time>2019-02-20T07:42:00.000Z</time>
      </trkpt>
      <trkpt lat="45.30854" lon="4.63676">
        <ele>512.40002441406</ele>
        <time>2019-02-20T07:42:01.000Z</time>
      </trkpt>
      <trkpt lat="45.30852" lon="4.63678">
        <ele>512.59997558594</ele>
        <time>2019-02-20T07:42:02.000Z</time>
      </trkpt>
      <trkpt lat="45.3085" lon="4.63679">
        <ele>512.40002441406</ele>
        <time>2019-02-20T07:42:03.000Z</time>
      </trkpt>
      <trkpt lat="45.30848" lon="4.6368">
        <ele>512.40002441406</ele>
        <time>2019-02-20T07:42:04.000Z</time>
      </trkpt>
      <trkpt lat="45.30844" lon="4.63682">
        <ele>512.40002441406</ele>
        <time>2019-02-20T07:42:05.000Z</time>
      </trkpt>
      <trkpt lat="45.3084" lon="4.63684">
        <ele>512.40002441406</ele>
        <time>2019-02-20T07:42:06.000Z</time>
      </trkpt>
      <trkpt lat="45.30836" lon="4.63686">
        <ele>512.20001220703</ele>
        <time>2019-02-20T07:42:07.000Z</time>
      </trkpt>
      <trkpt lat="45.30832" lon="4.63689">
        <ele>512.20001220703</ele>
        <time>2019-02-20T07:42:08.000Z</time>
      </trkpt>
      <trkpt lat="45.30828" lon="4.63691">
        <ele>512.20001220703</ele>
        <time>2019-02-20T07:42:09.000Z</time>
      </trkpt>
      <trkpt lat="45.30825" lon="4.63694">
        <ele>512.20001220703</ele>
        <time>2019-02-20T07:42:10.000Z</time>
      </trkpt>
      <trkpt lat="45.30821" lon="4.63695">
        <ele>511.79998779297</ele>
        <time>2019-02-20T07:42:11.000Z</time>
      </trkpt>
      <trkpt lat="45.30818" lon="4.63696">
        <ele>512</ele>
        <time>2019-02-20T07:42:12.000Z</time>
      </trkpt>
      <trkpt lat="45.30815" lon="4.63698">
        <ele>511.79998779297</ele>
        <time>2019-02-20T07:42:13.000Z</time>
      </trkpt>
      <trkpt lat="45.30811" lon="4.63701">
        <ele>511.79998779297</ele>
        <time>2019-02-20T07:42:14.000Z</time>
      </trkpt>
      <trkpt lat="45.30807" lon="4.63704">
        <ele>511.79998779297</ele>
        <time>2019-02-20T07:42:15.000Z</time>
      </trkpt>
      <trkpt lat="45.30802" lon="4.63709">
        <ele>511.60000610352</ele>
        <time>2019-02-20T07:42:16.000Z</time>
      </trkpt>
      <trkpt lat="45.30797" lon="4.63711">
        <ele>511.60000610352</ele>
        <time>2019-02-20T07:42:17.000Z</time>
      </trkpt>
      <trkpt lat="45.30793" lon="4.63713">
        <ele>511.39999389648</ele>
        <time>2019-02-20T07:42:18.000Z</time>
      </trkpt>
      <trkpt lat="45.30789" lon="4.63715">
        <ele>511.39999389648</ele>
        <time>2019-02-20T07:42:19.000Z</time>
      </trkpt>
      <trkpt lat="45.30786" lon="4.63716">
        <ele>511.39999389648</ele>
        <time>2019-02-20T07:42:20.000Z</time>
      </trkpt>
      <trkpt lat="45.30783" lon="4.63717">
        <ele>511.39999389648</ele>
        <time>2019-02-20T07:42:21.000Z</time>
      </trkpt>
      <trkpt lat="45.30781" lon="4.6372">
        <ele>511.39999389648</ele>
        <time>2019-02-20T07:42:22.000Z</time>
      </trkpt>
      <trkpt lat="45.30777" lon="4.63724">
        <ele>511.20001220703</ele>
        <time>2019-02-20T07:42:23.000Z</time>
      </trkpt>
      <trkpt lat="45.30774" lon="4.63728">
        <ele>511.20001220703</ele>
        <time>2019-02-20T07:42:24.000Z</time>
      </trkpt>
      <trkpt lat="45.3077" lon="4.63731">
        <ele>511.20001220703</ele>
        <time>2019-02-20T07:42:25.000Z</time>
      </trkpt>
      <trkpt lat="45.30766" lon="4.63733">
        <ele>511.20001220703</ele>
        <time>2019-02-20T07:42:26.000Z</time>
      </trkpt>
      <trkpt lat="45.30762" lon="4.63735">
        <ele>511</ele>
        <time>2019-02-20T07:42:27.000Z</time>
      </trkpt>
      <trkpt lat="45.30759" lon="4.63737">
        <ele>511</ele>
        <time>2019-02-20T07:42:28.000Z</time>
      </trkpt>
      <trkpt lat="45.30755" lon="4.63739">
        <ele>511</ele>
        <time>2019-02-20T07:42:29.000Z</time>
      </trkpt>
      <trkpt lat="45.30752" lon="4.6374">
        <ele>510.79998779297</ele>
        <time>2019-02-20T07:42:30.000Z</time>
      </trkpt>
      <trkpt lat="45.30749" lon="4.63743">
        <ele>510.79998779297</ele>
        <time>2019-02-20T07:42:31.000Z</time>
      </trkpt>
      <trkpt lat="45.30746" lon="4.63746">
        <ele>510.79998779297</ele>
        <time>2019-02-20T07:42:32.000Z</time>
      </trkpt>
      <trkpt lat="45.30743" lon="4.63749">
        <ele>510.39999389648</ele>
        <time>2019-02-20T07:42:33.000Z</time>
      </trkpt>
      <trkpt lat="45.30741" lon="4.63752">
        <ele>510</ele>
        <time>2019-02-20T07:42:34.000Z</time>
      </trkpt>
      <trkpt lat="45.30738" lon="4.63754">
        <ele>509.79998779297</ele>
        <time>2019-02-20T07:42:35.000Z</time>
      </trkpt>
      <trkpt lat="45.30736" lon="4.63757">
        <ele>509.60000610352</ele>
        <time>2019-02-20T07:42:36.000Z</time>
      </trkpt>
      <trkpt lat="45.30734" lon="4.6376">
        <ele>509.60000610352</ele>
        <time>2019-02-20T07:42:37.000Z</time>
      </trkpt>
      <trkpt lat="45.30732" lon="4.63764">
        <ele>509.60000610352</ele>
        <time>2019-02-20T07:42:38.000Z</time>
      </trkpt>
      <trkpt lat="45.3073" lon="4.63767">
        <ele>509.60000610352</ele>
        <time>2019-02-20T07:42:39.000Z</time>
      </trkpt>
      <trkpt lat="45.30729" lon="4.6377">
        <ele>509.39999389648</ele>
        <time>2019-02-20T07:42:40.000Z</time>
      </trkpt>
      <trkpt lat="45.30727" lon="4.63774">
        <ele>509.39999389648</ele>
        <time>2019-02-20T07:42:41.000Z</time>
      </trkpt>
      <trkpt lat="45.30725" lon="4.63777">
        <ele>509.60000610352</ele>
        <time>2019-02-20T07:42:42.000Z</time>
      </trkpt>
      <trkpt lat="45.30724" lon="4.63781">
        <ele>509.60000610352</ele>
        <time>2019-02-20T07:42:43.000Z</time>
      </trkpt>
      <trkpt lat="45.30723" lon="4.63784">
        <ele>509.39999389648</ele>
        <time>2019-02-20T07:42:44.000Z</time>
      </trkpt>
      <trkpt lat="45.30721" lon="4.63787">
        <ele>509.39999389648</ele>
        <time>2019-02-20T07:42:45.000Z</time>
      </trkpt>
      <trkpt lat="45.30719" lon="4.63788">
        <ele>509.60000610352</ele>
        <time>2019-02-20T07:42:46.000Z</time>
      </trkpt>
      <trkpt lat="45.30717" lon="4.63789">
        <ele>509.60000610352</ele>
        <time>2019-02-20T07:42:47.000Z</time>
      </trkpt>
      <trkpt lat="45.30715" lon="4.63791">
        <ele>509.60000610352</ele>
        <time>2019-02-20T07:42:48.000Z</time>
      </trkpt>
      <trkpt lat="45.30713" lon="4.63793">
        <ele>509.39999389648</ele>
        <time>2019-02-20T07:42:49.000Z</time>
      </trkpt>
      <trkpt lat="45.30711" lon="4.63795">
        <ele>509.60000610352</ele>
        <time>2019-02-20T07:42:50.000Z</time>
      </trkpt>
      <trkpt lat="45.30708" lon="4.63797">
        <ele>509.60000610352</ele>
        <time>2019-02-20T07:42:51.000Z</time>
      </trkpt>
      <trkpt lat="45.30706" lon="4.63798">
        <ele>509.79998779297</ele>
        <time>2019-02-20T07:42:52.000Z</time>
      </trkpt>
      <trkpt lat="45.30703" lon="4.638">
        <ele>509.79998779297</ele>
        <time>2019-02-20T07:42:53.000Z</time>
      </trkpt>
      <trkpt lat="45.30701" lon="4.63802">
        <ele>509.79998779297</ele>
        <time>2019-02-20T07:42:54.000Z</time>
      </trkpt>
      <trkpt lat="45.30699" lon="4.63803">
        <ele>509.79998779297</ele>
        <time>2019-02-20T07:42:55.000Z</time>
      </trkpt>
      <trkpt lat="45.30696" lon="4.63805">
        <ele>510</ele>
        <time>2019-02-20T07:42:56.000Z</time>
      </trkpt>
      <trkpt lat="45.30693" lon="4.63807">
        <ele>510</ele>
        <time>2019-02-20T07:42:57.000Z</time>
      </trkpt>
      <trkpt lat="45.30691" lon="4.63809">
        <ele>510.20001220703</ele>
        <time>2019-02-20T07:42:58.000Z</time>
      </trkpt>
      <trkpt lat="45.30688" lon="4.6381">
        <ele>510.39999389648</ele>
        <time>2019-02-20T07:42:59.000Z</time>
      </trkpt>
      <trkpt lat="45.30686" lon="4.63812">
        <ele>510.20001220703</ele>
        <time>2019-02-20T07:43:00.000Z</time>
      </trkpt>
      <trkpt lat="45.30683" lon="4.63813">
        <ele>510.20001220703</ele>
        <time>2019-02-20T07:43:01.000Z</time>
      </trkpt>
      <trkpt lat="45.30681" lon="4.63815">
        <ele>510.20001220703</ele>
        <time>2019-02-20T07:43:02.000Z</time>
      </trkpt>
      <trkpt lat="45.30678" lon="4.63816">
        <ele>510.20001220703</ele>
        <time>2019-02-20T07:43:03.000Z</time>
      </trkpt>
      <trkpt lat="45.30675" lon="4.63818">
        <ele>510.20001220703</ele>
        <time>2019-02-20T07:43:04.000Z</time>
      </trkpt>
      <trkpt lat="45.30673" lon="4.63819">
        <ele>510.39999389648</ele>
        <time>2019-02-20T07:43:05.000Z</time>
      </trkpt>
      <trkpt lat="45.3067" lon="4.63821">
        <ele>510.20001220703</ele>
        <time>2019-02-20T07:43:06.000Z</time>
      </trkpt>
      <trkpt lat="45.30668" lon="4.63822">
        <ele>510.20001220703</ele>
        <time>2019-02-20T07:43:07.000Z</time>
      </trkpt>
      <trkpt lat="45.30665" lon="4.63823">
        <ele>510.20001220703</ele>
        <time>2019-02-20T07:43:08.000Z</time>
      </trkpt>
      <trkpt lat="45.30663" lon="4.63825">
        <ele>510.20001220703</ele>
        <time>2019-02-20T07:43:09.000Z</time>
      </trkpt>
      <trkpt lat="45.3066" lon="4.63826">
        <ele>510.20001220703</ele>
        <time>2019-02-20T07:43:10.000Z</time>
      </trkpt>
      <trkpt lat="45.30658" lon="4.63828">
        <ele>510.20001220703</ele>
        <time>2019-02-20T07:43:11.000Z</time>
      </trkpt>
      <trkpt lat="45.30655" lon="4.6383">
        <ele>510</ele>
        <time>2019-02-20T07:43:12.000Z</time>
      </trkpt>
      <trkpt lat="45.30653" lon="4.63831">
        <ele>510.20001220703</ele>
        <time>2019-02-20T07:43:13.000Z</time>
      </trkpt>
      <trkpt lat="45.3065" lon="4.63833">
        <ele>510</ele>
        <time>2019-02-20T07:43:14.000Z</time>
      </trkpt>
      <trkpt lat="45.30647" lon="4.63834">
        <ele>510.20001220703</ele>
        <time>2019-02-20T07:43:15.000Z</time>
      </trkpt>
      <trkpt lat="45.30645" lon="4.63836">
        <ele>510</ele>
        <time>2019-02-20T07:43:16.000Z</time>
      </trkpt>
      <trkpt lat="45.30642" lon="4.63838">
        <ele>510</ele>
        <time>2019-02-20T07:43:17.000Z</time>
      </trkpt>
      <trkpt lat="45.30639" lon="4.6384">
        <ele>510</ele>
        <time>2019-02-20T07:43:18.000Z</time>
      </trkpt>
      <trkpt lat="45.30637" lon="4.63842">
        <ele>510</ele>
        <time>2019-02-20T07:43:19.000Z</time>
      </trkpt>
      <trkpt lat="45.30635" lon="4.63844">
        <ele>510</ele>
        <time>2019-02-20T07:43:20.000Z</time>
      </trkpt>
      <trkpt lat="45.30633" lon="4.63846">
        <ele>510</ele>
        <time>2019-02-20T07:43:21.000Z</time>
      </trkpt>
      <trkpt lat="45.30631" lon="4.63848">
        <ele>509.79998779297</ele>
        <time>2019-02-20T07:43:22.000Z</time>
      </trkpt>
      <trkpt lat="45.30629" lon="4.63851">
        <ele>509.79998779297</ele>
        <time>2019-02-20T07:43:23.000Z</time>
      </trkpt>
      <trkpt lat="45.30627" lon="4.63853">
        <ele>509.79998779297</ele>
        <time>2019-02-20T07:43:24.000Z</time>
      </trkpt>
      <trkpt lat="45.30625" lon="4.63855">
        <ele>510</ele>
        <time>2019-02-20T07:43:25.000Z</time>
      </trkpt>
      <trkpt lat="45.30623" lon="4.63857">
        <ele>509.79998779297</ele>
        <time>2019-02-20T07:43:26.000Z</time>
      </trkpt>
      <trkpt lat="45.30621" lon="4.63859">
        <ele>509.79998779297</ele>
        <time>2019-02-20T07:43:27.000Z</time>
      </trkpt>
      <trkpt lat="45.30619" lon="4.63861">
        <ele>509.79998779297</ele>
        <time>2019-02-20T07:43:28.000Z</time>
      </trkpt>
      <trkpt lat="45.30617" lon="4.63862">
        <ele>510</ele>
        <time>2019-02-20T07:43:29.000Z</time>
      </trkpt>
      <trkpt lat="45.30614" lon="4.63863">
        <ele>510</ele>
        <time>2019-02-20T07:43:30.000Z</time>
      </trkpt>
      <trkpt lat="45.30611" lon="4.63864">
        <ele>510</ele>
        <time>2019-02-20T07:43:31.000Z</time>
      </trkpt>
      <trkpt lat="45.30609" lon="4.63865">
        <ele>510</ele>
        <time>2019-02-20T07:43:32.000Z</time>
      </trkpt>
      <trkpt lat="45.30606" lon="4.63865">
        <ele>510.20001220703</ele>
        <time>2019-02-20T07:43:33.000Z</time>
      </trkpt>
      <trkpt lat="45.30603" lon="4.63866">
        <ele>510</ele>
        <time>2019-02-20T07:43:34.000Z</time>
      </trkpt>
      <trkpt lat="45.306" lon="4.63866">
        <ele>510</ele>
        <time>2019-02-20T07:43:35.000Z</time>
      </trkpt>
      <trkpt lat="45.30597" lon="4.63866">
        <ele>510.20001220703</ele>
        <time>2019-02-20T07:43:36.000Z</time>
      </trkpt>
      <trkpt lat="45.30594" lon="4.63866">
        <ele>510</ele>
        <time>2019-02-20T07:43:37.000Z</time>
      </trkpt>
      <trkpt lat="45.30591" lon="4.63865">
        <ele>510</ele>
        <time>2019-02-20T07:43:38.000Z</time>
      </trkpt>
      <trkpt lat="45.30588" lon="4.63865">
        <ele>510.20001220703</ele>
        <time>2019-02-20T07:43:39.000Z</time>
      </trkpt>
      <trkpt lat="45.30585" lon="4.63865">
        <ele>510</ele>
        <time>2019-02-20T07:43:40.000Z</time>
      </trkpt>
      <trkpt lat="45.30581" lon="4.63864">
        <ele>510</ele>
        <time>2019-02-20T07:43:41.000Z</time>
      </trkpt>
      <trkpt lat="45.30578" lon="4.63864">
        <ele>510</ele>
        <time>2019-02-20T07:43:42.000Z</time>
      </trkpt>
      <trkpt lat="45.30575" lon="4.63864">
        <ele>510</ele>
        <time>2019-02-20T07:43:43.000Z</time>
      </trkpt>
      <trkpt lat="45.30571" lon="4.63864">
        <ele>510</ele>
        <time>2019-02-20T07:43:44.000Z</time>
      </trkpt>
      <trkpt lat="45.30568" lon="4.63865">
        <ele>510</ele>
        <time>2019-02-20T07:43:45.000Z</time>
      </trkpt>
      <trkpt lat="45.30565" lon="4.63866">
        <ele>510</ele>
        <time>2019-02-20T07:43:46.000Z</time>
      </trkpt>
      <trkpt lat="45.30562" lon="4.63867">
        <ele>509.79998779297</ele>
        <time>2019-02-20T07:43:47.000Z</time>
      </trkpt>
      <trkpt lat="45.30559" lon="4.63868">
        <ele>510</ele>
        <time>2019-02-20T07:43:48.000Z</time>
      </trkpt>
      <trkpt lat="45.30555" lon="4.63869">
        <ele>510</ele>
        <time>2019-02-20T07:43:49.000Z</time>
      </trkpt>
      <trkpt lat="45.30552" lon="4.6387">
        <ele>510</ele>
        <time>2019-02-20T07:43:50.000Z</time>
      </trkpt>
      <trkpt lat="45.30549" lon="4.6387">
        <ele>510</ele>
        <time>2019-02-20T07:43:51.000Z</time>
      </trkpt>
      <trkpt lat="45.30546" lon="4.6387">
        <ele>510</ele>
        <time>2019-02-20T07:43:52.000Z</time>
      </trkpt>
      <trkpt lat="45.30542" lon="4.63871">
        <ele>509.79998779297</ele>
        <time>2019-02-20T07:43:53.000Z</time>
      </trkpt>
      <trkpt lat="45.30539" lon="4.63871">
        <ele>509.79998779297</ele>
        <time>2019-02-20T07:43:54.000Z</time>
      </trkpt>
      <trkpt lat="45.30536" lon="4.63871">
        <ele>509.79998779297</ele>
        <time>2019-02-20T07:43:55.000Z</time>
      </trkpt>
      <trkpt lat="45.30533" lon="4.63871">
        <ele>510</ele>
        <time>2019-02-20T07:43:56.000Z</time>
      </trkpt>
      <trkpt lat="45.30529" lon="4.63871">
        <ele>510</ele>
        <time>2019-02-20T07:43:57.000Z</time>
      </trkpt>
      <trkpt lat="45.30526" lon="4.63872">
        <ele>509.79998779297</ele>
        <time>2019-02-20T07:43:58.000Z</time>
      </trkpt>
      <trkpt lat="45.30522" lon="4.63874">
        <ele>510</ele>
        <time>2019-02-20T07:43:59.000Z</time>
      </trkpt>
      <trkpt lat="45.30519" lon="4.63875">
        <ele>509.79998779297</ele>
        <time>2019-02-20T07:44:00.000Z</time>
      </trkpt>
      <trkpt lat="45.30516" lon="4.63877">
        <ele>509.79998779297</ele>
        <time>2019-02-20T07:44:01.000Z</time>
      </trkpt>
      <trkpt lat="45.30512" lon="4.63879">
        <ele>509.79998779297</ele>
        <time>2019-02-20T07:44:02.000Z</time>
      </trkpt>
      <trkpt lat="45.30509" lon="4.63881">
        <ele>509.79998779297</ele>
        <time>2019-02-20T07:44:03.000Z</time>
      </trkpt>
      <trkpt lat="45.30506" lon="4.63882">
        <ele>509.60000610352</ele>
        <time>2019-02-20T07:44:04.000Z</time>
      </trkpt>
      <trkpt lat="45.30503" lon="4.63884">
        <ele>509.60000610352</ele>
        <time>2019-02-20T07:44:05.000Z</time>
      </trkpt>
      <trkpt lat="45.30501" lon="4.63886">
        <ele>509.39999389648</ele>
        <time>2019-02-20T07:44:06.000Z</time>
      </trkpt>
      <trkpt lat="45.30498" lon="4.63888">
        <ele>509.60000610352</ele>
        <time>2019-02-20T07:44:07.000Z</time>
      </trkpt>
      <trkpt lat="45.30496" lon="4.63889">
        <ele>509.39999389648</ele>
        <time>2019-02-20T07:44:08.000Z</time>
      </trkpt>
      <trkpt lat="45.30493" lon="4.63891">
        <ele>509.39999389648</ele>
        <time>2019-02-20T07:44:09.000Z</time>
      </trkpt>
      <trkpt lat="45.3049" lon="4.63892">
        <ele>509.39999389648</ele>
        <time>2019-02-20T07:44:10.000Z</time>
      </trkpt>
      <trkpt lat="45.30487" lon="4.63894">
        <ele>509.39999389648</ele>
        <time>2019-02-20T07:44:11.000Z</time>
      </trkpt>
      <trkpt lat="45.30484" lon="4.63895">
        <ele>509.39999389648</ele>
        <time>2019-02-20T07:44:12.000Z</time>
      </trkpt>
      <trkpt lat="45.30481" lon="4.63897">
        <ele>509.39999389648</ele>
        <time>2019-02-20T07:44:13.000Z</time>
      </trkpt>
      <trkpt lat="45.30479" lon="4.63899">
        <ele>509.39999389648</ele>
        <time>2019-02-20T07:44:14.000Z</time>
      </trkpt>
      <trkpt lat="45.30476" lon="4.63901">
        <ele>509.39999389648</ele>
        <time>2019-02-20T07:44:15.000Z</time>
      </trkpt>
      <trkpt lat="45.30473" lon="4.63902">
        <ele>509.20001220703</ele>
        <time>2019-02-20T07:44:16.000Z</time>
      </trkpt>
      <trkpt lat="45.30471" lon="4.63904">
        <ele>509.39999389648</ele>
        <time>2019-02-20T07:44:17.000Z</time>
      </trkpt>
      <trkpt lat="45.30468" lon="4.63907">
        <ele>509.20001220703</ele>
        <time>2019-02-20T07:44:18.000Z</time>
      </trkpt>
      <trkpt lat="45.30466" lon="4.63909">
        <ele>509.20001220703</ele>
        <time>2019-02-20T07:44:19.000Z</time>
      </trkpt>
      <trkpt lat="45.30463" lon="4.63911">
        <ele>509.20001220703</ele>
        <time>2019-02-20T07:44:20.000Z</time>
      </trkpt>
      <trkpt lat="45.3046" lon="4.63912">
        <ele>509.20001220703</ele>
        <time>2019-02-20T07:44:21.000Z</time>
      </trkpt>
      <trkpt lat="45.30457" lon="4.63914">
        <ele>509.20001220703</ele>
        <time>2019-02-20T07:44:22.000Z</time>
      </trkpt>
      <trkpt lat="45.30454" lon="4.63916">
        <ele>509.20001220703</ele>
        <time>2019-02-20T07:44:23.000Z</time>
      </trkpt>
      <trkpt lat="45.30452" lon="4.63917">
        <ele>509.20001220703</ele>
        <time>2019-02-20T07:44:24.000Z</time>
      </trkpt>
      <trkpt lat="45.30449" lon="4.63919">
        <ele>509.20001220703</ele>
        <time>2019-02-20T07:44:25.000Z</time>
      </trkpt>
      <trkpt lat="45.30447" lon="4.63921">
        <ele>509.20001220703</ele>
        <time>2019-02-20T07:44:26.000Z</time>
      </trkpt>
      <trkpt lat="45.30444" lon="4.63923">
        <ele>509.20001220703</ele>
        <time>2019-02-20T07:44:27.000Z</time>
      </trkpt>
      <trkpt lat="45.30441" lon="4.63925">
        <ele>509.20001220703</ele>
        <time>2019-02-20T07:44:28.000Z</time>
      </trkpt>
      <trkpt lat="45.30438" lon="4.63927">
        <ele>509.20001220703</ele>
        <time>2019-02-20T07:44:29.000Z</time>
      </trkpt>
      <trkpt lat="45.30435" lon="4.63929">
        <ele>509.20001220703</ele>
        <time>2019-02-20T07:44:30.000Z</time>
      </trkpt>
      <trkpt lat="45.30433" lon="4.63931">
        <ele>509.20001220703</ele>
        <time>2019-02-20T07:44:31.000Z</time>
      </trkpt>
      <trkpt lat="45.3043" lon="4.63933">
        <ele>509.20001220703</ele>
        <time>2019-02-20T07:44:32.000Z</time>
      </trkpt>
      <trkpt lat="45.30427" lon="4.63934">
        <ele>509</ele>
        <time>2019-02-20T07:44:33.000Z</time>
      </trkpt>
      <trkpt lat="45.30424" lon="4.63936">
        <ele>508.79998779297</ele>
        <time>2019-02-20T07:44:34.000Z</time>
      </trkpt>
      <trkpt lat="45.30421" lon="4.63937">
        <ele>508.79998779297</ele>
        <time>2019-02-20T07:44:35.000Z</time>
      </trkpt>
      <trkpt lat="45.30419" lon="4.6394">
        <ele>508.79998779297</ele>
        <time>2019-02-20T07:44:36.000Z</time>
      </trkpt>
      <trkpt lat="45.30416" lon="4.63942">
        <ele>509</ele>
        <time>2019-02-20T07:44:37.000Z</time>
      </trkpt>
      <trkpt lat="45.30413" lon="4.63944">
        <ele>509</ele>
        <time>2019-02-20T07:44:38.000Z</time>
      </trkpt>
      <trkpt lat="45.3041" lon="4.63946">
        <ele>508.79998779297</ele>
        <time>2019-02-20T07:44:39.000Z</time>
      </trkpt>
      <trkpt lat="45.30408" lon="4.63948">
        <ele>508.79998779297</ele>
        <time>2019-02-20T07:44:40.000Z</time>
      </trkpt>
      <trkpt lat="45.30405" lon="4.6395">
        <ele>508.79998779297</ele>
        <time>2019-02-20T07:44:41.000Z</time>
      </trkpt>
      <trkpt lat="45.30402" lon="4.63952">
        <ele>508.79998779297</ele>
        <time>2019-02-20T07:44:42.000Z</time>
      </trkpt>
      <trkpt lat="45.304" lon="4.63954">
        <ele>508.79998779297</ele>
        <time>2019-02-20T07:44:43.000Z</time>
      </trkpt>
      <trkpt lat="45.30397" lon="4.63956">
        <ele>508.79998779297</ele>
        <time>2019-02-20T07:44:44.000Z</time>
      </trkpt>
      <trkpt lat="45.30394" lon="4.63957">
        <ele>508.60000610352</ele>
        <time>2019-02-20T07:44:45.000Z</time>
      </trkpt>
      <trkpt lat="45.30391" lon="4.63959">
        <ele>508.60000610352</ele>
        <time>2019-02-20T07:44:46.000Z</time>
      </trkpt>
      <trkpt lat="45.30388" lon="4.63961">
        <ele>508.39999389648</ele>
        <time>2019-02-20T07:44:47.000Z</time>
      </trkpt>
      <trkpt lat="45.30386" lon="4.63963">
        <ele>508.39999389648</ele>
        <time>2019-02-20T07:44:48.000Z</time>
      </trkpt>
      <trkpt lat="45.30383" lon="4.63965">
        <ele>508.39999389648</ele>
        <time>2019-02-20T07:44:49.000Z</time>
      </trkpt>
      <trkpt lat="45.3038" lon="4.63966">
        <ele>508.39999389648</ele>
        <time>2019-02-20T07:44:50.000Z</time>
      </trkpt>
      <trkpt lat="45.30378" lon="4.63967">
        <ele>508.60000610352</ele>
        <time>2019-02-20T07:44:51.000Z</time>
      </trkpt>
      <trkpt lat="45.30375" lon="4.63968">
        <ele>508.60000610352</ele>
        <time>2019-02-20T07:44:52.000Z</time>
      </trkpt>
      <trkpt lat="45.30372" lon="4.6397">
        <ele>508.60000610352</ele>
        <time>2019-02-20T07:44:53.000Z</time>
      </trkpt>
      <trkpt lat="45.3037" lon="4.63972">
        <ele>508.39999389648</ele>
        <time>2019-02-20T07:44:54.000Z</time>
      </trkpt>
      <trkpt lat="45.30368" lon="4.63974">
        <ele>508.39999389648</ele>
        <time>2019-02-20T07:44:55.000Z</time>
      </trkpt>
      <trkpt lat="45.30366" lon="4.63976">
        <ele>508.60000610352</ele>
        <time>2019-02-20T07:44:56.000Z</time>
      </trkpt>
      <trkpt lat="45.30363" lon="4.63978">
        <ele>508.60000610352</ele>
        <time>2019-02-20T07:44:57.000Z</time>
      </trkpt>
      <trkpt lat="45.30361" lon="4.63981">
        <ele>508.60000610352</ele>
        <time>2019-02-20T07:44:58.000Z</time>
      </trkpt>
      <trkpt lat="45.30358" lon="4.63983">
        <ele>508.60000610352</ele>
        <time>2019-02-20T07:44:59.000Z</time>
      </trkpt>
      <trkpt lat="45.30356" lon="4.63985">
        <ele>508.60000610352</ele>
        <time>2019-02-20T07:45:00.000Z</time>
      </trkpt>
      <trkpt lat="45.30353" lon="4.63987">
        <ele>508.60000610352</ele>
        <time>2019-02-20T07:45:01.000Z</time>
      </trkpt>
      <trkpt lat="45.30351" lon="4.6399">
        <ele>508.60000610352</ele>
        <time>2019-02-20T07:45:02.000Z</time>
      </trkpt>
      <trkpt lat="45.30349" lon="4.63992">
        <ele>508.39999389648</ele>
        <time>2019-02-20T07:45:03.000Z</time>
      </trkpt>
      <trkpt lat="45.30346" lon="4.63994">
        <ele>508.39999389648</ele>
        <time>2019-02-20T07:45:04.000Z</time>
      </trkpt>
      <trkpt lat="45.30344" lon="4.63995">
        <ele>508.39999389648</ele>
        <time>2019-02-20T07:45:05.000Z</time>
      </trkpt>
      <trkpt lat="45.30341" lon="4.63997">
        <ele>508.20001220703</ele>
        <time>2019-02-20T07:45:06.000Z</time>
      </trkpt>
      <trkpt lat="45.30339" lon="4.63999">
        <ele>508.39999389648</ele>
        <time>2019-02-20T07:45:07.000Z</time>
      </trkpt>
      <trkpt lat="45.30338" lon="4.64">
        <ele>508.20001220703</ele>
        <time>2019-02-20T07:45:08.000Z</time>
      </trkpt>
      <trkpt lat="45.30336" lon="4.64001">
        <ele>508.20001220703</ele>
        <time>2019-02-20T07:45:09.000Z</time>
      </trkpt>
      <trkpt lat="45.30334" lon="4.64003">
        <ele>508.20001220703</ele>
        <time>2019-02-20T07:45:10.000Z</time>
      </trkpt>
      <trkpt lat="45.30333" lon="4.64005">
        <ele>508.20001220703</ele>
        <time>2019-02-20T07:45:11.000Z</time>
      </trkpt>
      <trkpt lat="45.30331" lon="4.64007">
        <ele>508.20001220703</ele>
        <time>2019-02-20T07:45:12.000Z</time>
      </trkpt>
      <trkpt lat="45.30329" lon="4.64009">
        <ele>508.20001220703</ele>
        <time>2019-02-20T07:45:13.000Z</time>
      </trkpt>
      <trkpt lat="45.30328" lon="4.64009">
        <ele>508.20001220703</ele>
        <time>2019-02-20T07:45:14.000Z</time>
      </trkpt>
      <trkpt lat="45.30326" lon="4.6401">
        <ele>508.20001220703</ele>
        <time>2019-02-20T07:45:15.000Z</time>
      </trkpt>
      <trkpt lat="45.30324" lon="4.6401">
        <ele>508.20001220703</ele>
        <time>2019-02-20T07:45:16.000Z</time>
      </trkpt>
      <trkpt lat="45.30322" lon="4.64011">
        <ele>508.20001220703</ele>
        <time>2019-02-20T07:45:17.000Z</time>
      </trkpt>
      <trkpt lat="45.30321" lon="4.64011">
        <ele>508.20001220703</ele>
        <time>2019-02-20T07:45:18.000Z</time>
      </trkpt>
      <trkpt lat="45.30319" lon="4.64011">
        <ele>508.20001220703</ele>
        <time>2019-02-20T07:45:19.000Z</time>
      </trkpt>
      <trkpt lat="45.30318" lon="4.64012">
        <ele>508.20001220703</ele>
        <time>2019-02-20T07:45:20.000Z</time>
      </trkpt>
      <trkpt lat="45.30316" lon="4.64013">
        <ele>508.39999389648</ele>
        <time>2019-02-20T07:45:21.000Z</time>
      </trkpt>
      <trkpt lat="45.30315" lon="4.64013">
        <ele>508.39999389648</ele>
        <time>2019-02-20T07:45:22.000Z</time>
      </trkpt>
      <trkpt lat="45.30314" lon="4.64013">
        <ele>508.79998779297</ele>
        <time>2019-02-20T07:45:23.000Z</time>
      </trkpt>
      <trkpt lat="45.30312" lon="4.64013">
        <ele>508.79998779297</ele>
        <time>2019-02-20T07:45:24.000Z</time>
      </trkpt>
      <trkpt lat="45.30311" lon="4.64013">
        <ele>509.20001220703</ele>
        <time>2019-02-20T07:45:25.000Z</time>
      </trkpt>
      <trkpt lat="45.3031" lon="4.64013">
        <ele>509.79998779297</ele>
        <time>2019-02-20T07:45:26.000Z</time>
      </trkpt>
      <trkpt lat="45.30309" lon="4.64012">
        <ele>510</ele>
        <time>2019-02-20T07:45:27.000Z</time>
      </trkpt>
      <trkpt lat="45.30308" lon="4.64012">
        <ele>510</ele>
        <time>2019-02-20T07:45:28.000Z</time>
      </trkpt>
      <trkpt lat="45.30308" lon="4.64012">
        <ele>510.79998779297</ele>
        <time>2019-02-20T07:45:29.000Z</time>
      </trkpt>
      <trkpt lat="45.30308" lon="4.64013">
        <ele>511.20001220703</ele>
        <time>2019-02-20T07:45:30.000Z</time>
      </trkpt>
      <trkpt lat="45.30297" lon="4.64015">
        <ele>514.40002441406</ele>
        <time>2019-02-20T07:45:49.000Z</time>
      </trkpt>
      <trkpt lat="45.30296" lon="4.64014">
        <ele>514.40002441406</ele>
        <time>2019-02-20T07:45:50.000Z</time>
      </trkpt>
      <trkpt lat="45.30295" lon="4.64013">
        <ele>514.59997558594</ele>
        <time>2019-02-20T07:45:51.000Z</time>
      </trkpt>
      <trkpt lat="45.30294" lon="4.64013">
        <ele>514.59997558594</ele>
        <time>2019-02-20T07:45:52.000Z</time>
      </trkpt>
      <trkpt lat="45.30292" lon="4.64013">
        <ele>514.59997558594</ele>
        <time>2019-02-20T07:45:53.000Z</time>
      </trkpt>
      <trkpt lat="45.30291" lon="4.64013">
        <ele>514.59997558594</ele>
        <time>2019-02-20T07:45:54.000Z</time>
      </trkpt>
      <trkpt lat="45.3029" lon="4.64013">
        <ele>514.59997558594</ele>
        <time>2019-02-20T07:45:55.000Z</time>
      </trkpt>
      <trkpt lat="45.30288" lon="4.64013">
        <ele>514.79998779297</ele>
        <time>2019-02-20T07:45:56.000Z</time>
      </trkpt>
      <trkpt lat="45.30287" lon="4.64013">
        <ele>514.79998779297</ele>
        <time>2019-02-20T07:45:57.000Z</time>
      </trkpt>
      <trkpt lat="45.30286" lon="4.64013">
        <ele>514.79998779297</ele>
        <time>2019-02-20T07:45:58.000Z</time>
      </trkpt>
      <trkpt lat="45.30285" lon="4.64012">
        <ele>515</ele>
        <time>2019-02-20T07:45:59.000Z</time>
      </trkpt>
      <trkpt lat="45.30283" lon="4.64013">
        <ele>515</ele>
        <time>2019-02-20T07:46:00.000Z</time>
      </trkpt>
      <trkpt lat="45.30282" lon="4.64012">
        <ele>515</ele>
        <time>2019-02-20T07:46:01.000Z</time>
      </trkpt>
      <trkpt lat="45.30281" lon="4.64012">
        <ele>515.40002441406</ele>
        <time>2019-02-20T07:46:02.000Z</time>
      </trkpt>
      <trkpt lat="45.30279" lon="4.64011">
        <ele>515.40002441406</ele>
        <time>2019-02-20T07:46:03.000Z</time>
      </trkpt>
      <trkpt lat="45.30278" lon="4.64011">
        <ele>515.59997558594</ele>
        <time>2019-02-20T07:46:04.000Z</time>
      </trkpt>
      <trkpt lat="45.30277" lon="4.6401">
        <ele>515.79998779297</ele>
        <time>2019-02-20T07:46:05.000Z</time>
      </trkpt>
      <trkpt lat="45.30275" lon="4.64009">
        <ele>516</ele>
        <time>2019-02-20T07:46:06.000Z</time>
      </trkpt>
      <trkpt lat="45.30274" lon="4.64009">
        <ele>516</ele>
        <time>2019-02-20T07:46:07.000Z</time>
      </trkpt>
      <trkpt lat="45.30273" lon="4.64009">
        <ele>516.40002441406</ele>
        <time>2019-02-20T07:46:08.000Z</time>
      </trkpt>
      <trkpt lat="45.30272" lon="4.64009">
        <ele>516.59997558594</ele>
        <time>2019-02-20T07:46:09.000Z</time>
      </trkpt>
      <trkpt lat="45.3027" lon="4.64009">
        <ele>516.79998779297</ele>
        <time>2019-02-20T07:46:10.000Z</time>
      </trkpt>
      <trkpt lat="45.30269" lon="4.64008">
        <ele>517</ele>
        <time>2019-02-20T07:46:11.000Z</time>
      </trkpt>
      <trkpt lat="45.30268" lon="4.64007">
        <ele>517</ele>
        <time>2019-02-20T07:46:12.000Z</time>
      </trkpt>
      <trkpt lat="45.30267" lon="4.64006">
        <ele>517</ele>
        <time>2019-02-20T07:46:13.000Z</time>
      </trkpt>
      <trkpt lat="45.30266" lon="4.64006">
        <ele>517.20001220703</ele>
        <time>2019-02-20T07:46:14.000Z</time>
      </trkpt>
      <trkpt lat="45.30265" lon="4.64005">
        <ele>517.59997558594</ele>
        <time>2019-02-20T07:46:15.000Z</time>
      </trkpt>
      <trkpt lat="45.30264" lon="4.64005">
        <ele>517.79998779297</ele>
        <time>2019-02-20T07:46:16.000Z</time>
      </trkpt>
      <trkpt lat="45.30263" lon="4.64004">
        <ele>518.20001220703</ele>
        <time>2019-02-20T07:46:17.000Z</time>
      </trkpt>
      <trkpt lat="45.30261" lon="4.64004">
        <ele>518.40002441406</ele>
        <time>2019-02-20T07:46:18.000Z</time>
      </trkpt>
      <trkpt lat="45.3026" lon="4.64003">
        <ele>518.59997558594</ele>
        <time>2019-02-20T07:46:19.000Z</time>
      </trkpt>
      <trkpt lat="45.30259" lon="4.64002">
        <ele>519</ele>
        <time>2019-02-20T07:46:20.000Z</time>
      </trkpt>
      <trkpt lat="45.30258" lon="4.64001">
        <ele>519.20001220703</ele>
        <time>2019-02-20T07:46:21.000Z</time>
      </trkpt>
      <trkpt lat="45.30256" lon="4.64">
        <ele>519.40002441406</ele>
        <time>2019-02-20T07:46:22.000Z</time>
      </trkpt>
      <trkpt lat="45.30255" lon="4.63999">
        <ele>519.79998779297</ele>
        <time>2019-02-20T07:46:23.000Z</time>
      </trkpt>
      <trkpt lat="45.30254" lon="4.63998">
        <ele>520</ele>
        <time>2019-02-20T07:46:24.000Z</time>
      </trkpt>
      <trkpt lat="45.30253" lon="4.63997">
        <ele>520.59997558594</ele>
        <time>2019-02-20T07:46:25.000Z</time>
      </trkpt>
      <trkpt lat="45.30252" lon="4.63996">
        <ele>521</ele>
        <time>2019-02-20T07:46:26.000Z</time>
      </trkpt>
      <trkpt lat="45.3025" lon="4.63995">
        <ele>521.40002441406</ele>
        <time>2019-02-20T07:46:27.000Z</time>
      </trkpt>
      <trkpt lat="45.30249" lon="4.63994">
        <ele>521.59997558594</ele>
        <time>2019-02-20T07:46:28.000Z</time>
      </trkpt>
      <trkpt lat="45.30248" lon="4.63993">
        <ele>521.79998779297</ele>
        <time>2019-02-20T07:46:29.000Z</time>
      </trkpt>
      <trkpt lat="45.30247" lon="4.63992">
        <ele>522.20001220703</ele>
        <time>2019-02-20T07:46:30.000Z</time>
      </trkpt>
      <trkpt lat="45.30246" lon="4.63991">
        <ele>522.40002441406</ele>
        <time>2019-02-20T07:46:31.000Z</time>
      </trkpt>
      <trkpt lat="45.30245" lon="4.6399">
        <ele>523</ele>
        <time>2019-02-20T07:46:32.000Z</time>
      </trkpt>
      <trkpt lat="45.30243" lon="4.63989">
        <ele>523.20001220703</ele>
        <time>2019-02-20T07:46:33.000Z</time>
      </trkpt>
      <trkpt lat="45.30242" lon="4.63988">
        <ele>523.40002441406</ele>
        <time>2019-02-20T07:46:34.000Z</time>
      </trkpt>
      <trkpt lat="45.30241" lon="4.63987">
        <ele>523.79998779297</ele>
        <time>2019-02-20T07:46:35.000Z</time>
      </trkpt>
      <trkpt lat="45.3024" lon="4.63985">
        <ele>524</ele>
        <time>2019-02-20T07:46:36.000Z</time>
      </trkpt>
      <trkpt lat="45.30239" lon="4.63984">
        <ele>524.20001220703</ele>
        <time>2019-02-20T07:46:37.000Z</time>
      </trkpt>
      <trkpt lat="45.30238" lon="4.63983">
        <ele>524.59997558594</ele>
        <time>2019-02-20T07:46:38.000Z</time>
      </trkpt>
      <trkpt lat="45.30238" lon="4.63981">
        <ele>525</ele>
        <time>2019-02-20T07:46:39.000Z</time>
      </trkpt>
      <trkpt lat="45.30237" lon="4.6398">
        <ele>525.40002441406</ele>
        <time>2019-02-20T07:46:40.000Z</time>
      </trkpt>
      <trkpt lat="45.30236" lon="4.63979">
        <ele>525.40002441406</ele>
        <time>2019-02-20T07:46:41.000Z</time>
      </trkpt>
      <trkpt lat="45.30235" lon="4.63977">
        <ele>525.59997558594</ele>
        <time>2019-02-20T07:46:42.000Z</time>
      </trkpt>
      <trkpt lat="45.30233" lon="4.63976">
        <ele>526</ele>
        <time>2019-02-20T07:46:43.000Z</time>
      </trkpt>
      <trkpt lat="45.30232" lon="4.63975">
        <ele>526.20001220703</ele>
        <time>2019-02-20T07:46:44.000Z</time>
      </trkpt>
      <trkpt lat="45.30231" lon="4.63973">
        <ele>526.40002441406</ele>
        <time>2019-02-20T07:46:45.000Z</time>
      </trkpt>
      <trkpt lat="45.3023" lon="4.63972">
        <ele>526.79998779297</ele>
        <time>2019-02-20T07:46:46.000Z</time>
      </trkpt>
      <trkpt lat="45.3023" lon="4.63971">
        <ele>527.20001220703</ele>
        <time>2019-02-20T07:46:47.000Z</time>
      </trkpt>
      <trkpt lat="45.30228" lon="4.6397">
        <ele>527.59997558594</ele>
        <time>2019-02-20T07:46:48.000Z</time>
      </trkpt>
      <trkpt lat="45.30227" lon="4.63969">
        <ele>527.79998779297</ele>
        <time>2019-02-20T07:46:49.000Z</time>
      </trkpt>
      <trkpt lat="45.30226" lon="4.63968">
        <ele>528</ele>
        <time>2019-02-20T07:46:50.000Z</time>
      </trkpt>
      <trkpt lat="45.30225" lon="4.63967">
        <ele>528</ele>
        <time>2019-02-20T07:46:51.000Z</time>
      </trkpt>
      <trkpt lat="45.30224" lon="4.63966">
        <ele>528.20001220703</ele>
        <time>2019-02-20T07:46:52.000Z</time>
      </trkpt>
      <trkpt lat="45.30223" lon="4.63965">
        <ele>528.79998779297</ele>
        <time>2019-02-20T07:46:53.000Z</time>
      </trkpt>
      <trkpt lat="45.30222" lon="4.63964">
        <ele>529</ele>
        <time>2019-02-20T07:46:54.000Z</time>
      </trkpt>
      <trkpt lat="45.30221" lon="4.63963">
        <ele>529.40002441406</ele>
        <time>2019-02-20T07:46:55.000Z</time>
      </trkpt>
      <trkpt lat="45.30221" lon="4.63962">
        <ele>529.59997558594</ele>
        <time>2019-02-20T07:46:56.000Z</time>
      </trkpt>
      <trkpt lat="45.3022" lon="4.6396">
        <ele>529.79998779297</ele>
        <time>2019-02-20T07:46:57.000Z</time>
      </trkpt>
      <trkpt lat="45.30219" lon="4.63959">
        <ele>530</ele>
        <time>2019-02-20T07:46:58.000Z</time>
      </trkpt>
      <trkpt lat="45.30218" lon="4.63958">
        <ele>530.20001220703</ele>
        <time>2019-02-20T07:46:59.000Z</time>
      </trkpt>
      <trkpt lat="45.30217" lon="4.63956">
        <ele>530.40002441406</ele>
        <time>2019-02-20T07:47:00.000Z</time>
      </trkpt>
      <trkpt lat="45.30217" lon="4.63955">
        <ele>530.59997558594</ele>
        <time>2019-02-20T07:47:01.000Z</time>
      </trkpt>
      <trkpt lat="45.30216" lon="4.63953">
        <ele>530.79998779297</ele>
        <time>2019-02-20T07:47:02.000Z</time>
      </trkpt>
      <trkpt lat="45.30215" lon="4.63952">
        <ele>531</ele>
        <time>2019-02-20T07:47:03.000Z</time>
      </trkpt>
      <trkpt lat="45.30214" lon="4.63951">
        <ele>531</ele>
        <time>2019-02-20T07:47:04.000Z</time>
      </trkpt>
      <trkpt lat="45.30213" lon="4.63949">
        <ele>531.40002441406</ele>
        <time>2019-02-20T07:47:05.000Z</time>
      </trkpt>
      <trkpt lat="45.30212" lon="4.63948">
        <ele>531.59997558594</ele>
        <time>2019-02-20T07:47:06.000Z</time>
      </trkpt>
      <trkpt lat="45.30211" lon="4.63947">
        <ele>531.40002441406</ele>
        <time>2019-02-20T07:47:07.000Z</time>
      </trkpt>
      <trkpt lat="45.30211" lon="4.63945">
        <ele>531.59997558594</ele>
        <time>2019-02-20T07:47:08.000Z</time>
      </trkpt>
      <trkpt lat="45.3021" lon="4.63944">
        <ele>532</ele>
        <time>2019-02-20T07:47:09.000Z</time>
      </trkpt>
      <trkpt lat="45.30209" lon="4.63943">
        <ele>532.20001220703</ele>
        <time>2019-02-20T07:47:10.000Z</time>
      </trkpt>
      <trkpt lat="45.30209" lon="4.63941">
        <ele>532.59997558594</ele>
        <time>2019-02-20T07:47:11.000Z</time>
      </trkpt>
      <trkpt lat="45.30208" lon="4.6394">
        <ele>532.79998779297</ele>
        <time>2019-02-20T07:47:12.000Z</time>
      </trkpt>
      <trkpt lat="45.30207" lon="4.63938">
        <ele>533</ele>
        <time>2019-02-20T07:47:13.000Z</time>
      </trkpt>
      <trkpt lat="45.30207" lon="4.63937">
        <ele>533.20001220703</ele>
        <time>2019-02-20T07:47:14.000Z</time>
      </trkpt>
      <trkpt lat="45.30207" lon="4.63935">
        <ele>533.20001220703</ele>
        <time>2019-02-20T07:47:15.000Z</time>
      </trkpt>
      <trkpt lat="45.30206" lon="4.63933">
        <ele>533.40002441406</ele>
        <time>2019-02-20T07:47:16.000Z</time>
      </trkpt>
      <trkpt lat="45.30206" lon="4.63932">
        <ele>533.59997558594</ele>
        <time>2019-02-20T07:47:17.000Z</time>
      </trkpt>
      <trkpt lat="45.30205" lon="4.6393">
        <ele>533.79998779297</ele>
        <time>2019-02-20T07:47:18.000Z</time>
      </trkpt>
      <trkpt lat="45.30205" lon="4.63929">
        <ele>534</ele>
        <time>2019-02-20T07:47:19.000Z</time>
      </trkpt>
      <trkpt lat="45.30206" lon="4.63927">
        <ele>534.20001220703</ele>
        <time>2019-02-20T07:47:20.000Z</time>
      </trkpt>
      <trkpt lat="45.30206" lon="4.63925">
        <ele>534.20001220703</ele>
        <time>2019-02-20T07:47:21.000Z</time>
      </trkpt>
      <trkpt lat="45.30206" lon="4.63924">
        <ele>534.59997558594</ele>
        <time>2019-02-20T07:47:22.000Z</time>
      </trkpt>
      <trkpt lat="45.30207" lon="4.63923">
        <ele>534.79998779297</ele>
        <time>2019-02-20T07:47:23.000Z</time>
      </trkpt>
      <trkpt lat="45.30207" lon="4.63922">
        <ele>535.20001220703</ele>
        <time>2019-02-20T07:47:24.000Z</time>
      </trkpt>
      <trkpt lat="45.30208" lon="4.63921">
        <ele>535.40002441406</ele>
        <time>2019-02-20T07:47:25.000Z</time>
      </trkpt>
      <trkpt lat="45.30208" lon="4.6392">
        <ele>535.40002441406</ele>
        <time>2019-02-20T07:47:26.000Z</time>
      </trkpt>
      <trkpt lat="45.30208" lon="4.63919">
        <ele>535.59997558594</ele>
        <time>2019-02-20T07:47:27.000Z</time>
      </trkpt>
      <trkpt lat="45.30208" lon="4.63918">
        <ele>535.79998779297</ele>
        <time>2019-02-20T07:47:28.000Z</time>
      </trkpt>
      <trkpt lat="45.30208" lon="4.63917">
        <ele>535.79998779297</ele>
        <time>2019-02-20T07:47:29.000Z</time>
      </trkpt>
      <trkpt lat="45.30209" lon="4.63916">
        <ele>535.79998779297</ele>
        <time>2019-02-20T07:47:30.000Z</time>
      </trkpt>
      <trkpt lat="45.30209" lon="4.63915">
        <ele>535.79998779297</ele>
        <time>2019-02-20T07:47:31.000Z</time>
      </trkpt>
      <trkpt lat="45.3021" lon="4.63914">
        <ele>535.79998779297</ele>
        <time>2019-02-20T07:47:32.000Z</time>
      </trkpt>
      <trkpt lat="45.3021" lon="4.63913">
        <ele>535.79998779297</ele>
        <time>2019-02-20T07:47:33.000Z</time>
      </trkpt>
      <trkpt lat="45.30211" lon="4.63912">
        <ele>535.79998779297</ele>
        <time>2019-02-20T07:47:34.000Z</time>
      </trkpt>
      <trkpt lat="45.30211" lon="4.63911">
        <ele>535.79998779297</ele>
        <time>2019-02-20T07:47:35.000Z</time>
      </trkpt>
      <trkpt lat="45.30211" lon="4.63911">
        <ele>535.79998779297</ele>
        <time>2019-02-20T07:47:36.000Z</time>
      </trkpt>
      <trkpt lat="45.30212" lon="4.6391">
        <ele>535.79998779297</ele>
        <time>2019-02-20T07:47:37.000Z</time>
      </trkpt>
      <trkpt lat="45.30213" lon="4.63909">
        <ele>535.79998779297</ele>
        <time>2019-02-20T07:47:38.000Z</time>
      </trkpt>
      <trkpt lat="45.30213" lon="4.63908">
        <ele>536</ele>
        <time>2019-02-20T07:47:39.000Z</time>
      </trkpt>
      <trkpt lat="45.30214" lon="4.63907">
        <ele>536</ele>
        <time>2019-02-20T07:47:40.000Z</time>
      </trkpt>
      <trkpt lat="45.30215" lon="4.63907">
        <ele>535.79998779297</ele>
        <time>2019-02-20T07:47:41.000Z</time>
      </trkpt>
      <trkpt lat="45.30217" lon="4.63906">
        <ele>535.79998779297</ele>
        <time>2019-02-20T07:47:42.000Z</time>
      </trkpt>
      <trkpt lat="45.30218" lon="4.63905">
        <ele>535.79998779297</ele>
        <time>2019-02-20T07:47:43.000Z</time>
      </trkpt>
      <trkpt lat="45.30219" lon="4.63904">
        <ele>535.79998779297</ele>
        <time>2019-02-20T07:47:44.000Z</time>
      </trkpt>
      <trkpt lat="45.30221" lon="4.63903">
        <ele>535.79998779297</ele>
        <time>2019-02-20T07:47:45.000Z</time>
      </trkpt>
      <trkpt lat="45.30222" lon="4.63903">
        <ele>535.79998779297</ele>
        <time>2019-02-20T07:47:46.000Z</time>
      </trkpt>
      <trkpt lat="45.30223" lon="4.63902">
        <ele>535.79998779297</ele>
        <time>2019-02-20T07:47:47.000Z</time>
      </trkpt>
      <trkpt lat="45.30225" lon="4.63901">
        <ele>535.79998779297</ele>
        <time>2019-02-20T07:47:48.000Z</time>
      </trkpt>
      <trkpt lat="45.30226" lon="4.63901">
        <ele>535.79998779297</ele>
        <time>2019-02-20T07:47:49.000Z</time>
      </trkpt>
      <trkpt lat="45.30228" lon="4.639">
        <ele>535.79998779297</ele>
        <time>2019-02-20T07:47:50.000Z</time>
      </trkpt>
      <trkpt lat="45.30229" lon="4.63899">
        <ele>535.79998779297</ele>
        <time>2019-02-20T07:47:51.000Z</time>
      </trkpt>
      <trkpt lat="45.30231" lon="4.63898">
        <ele>535.79998779297</ele>
        <time>2019-02-20T07:47:52.000Z</time>
      </trkpt>
      <trkpt lat="45.30233" lon="4.63898">
        <ele>536</ele>
        <time>2019-02-20T07:47:53.000Z</time>
      </trkpt>
      <trkpt lat="45.30234" lon="4.63897">
        <ele>535.79998779297</ele>
        <time>2019-02-20T07:47:54.000Z</time>
      </trkpt>
      <trkpt lat="45.30236" lon="4.63896">
        <ele>536</ele>
        <time>2019-02-20T07:47:55.000Z</time>
      </trkpt>
      <trkpt lat="45.30237" lon="4.63896">
        <ele>536</ele>
        <time>2019-02-20T07:47:56.000Z</time>
      </trkpt>
      <trkpt lat="45.30238" lon="4.63895">
        <ele>536</ele>
        <time>2019-02-20T07:47:57.000Z</time>
      </trkpt>
      <trkpt lat="45.3024" lon="4.63894">
        <ele>536</ele>
        <time>2019-02-20T07:47:58.000Z</time>
      </trkpt>
      <trkpt lat="45.30242" lon="4.63893">
        <ele>536</ele>
        <time>2019-02-20T07:47:59.000Z</time>
      </trkpt>
      <trkpt lat="45.30243" lon="4.63893">
        <ele>536.20001220703</ele>
        <time>2019-02-20T07:48:00.000Z</time>
      </trkpt>
      <trkpt lat="45.30245" lon="4.63892">
        <ele>536.40002441406</ele>
        <time>2019-02-20T07:48:01.000Z</time>
      </trkpt>
      <trkpt lat="45.30246" lon="4.63891">
        <ele>536.40002441406</ele>
        <time>2019-02-20T07:48:02.000Z</time>
      </trkpt>
      <trkpt lat="45.30248" lon="4.63891">
        <ele>536.40002441406</ele>
        <time>2019-02-20T07:48:03.000Z</time>
      </trkpt>
      <trkpt lat="45.30249" lon="4.6389">
        <ele>536.40002441406</ele>
        <time>2019-02-20T07:48:04.000Z</time>
      </trkpt>
      <trkpt lat="45.30251" lon="4.63889">
        <ele>536.40002441406</ele>
        <time>2019-02-20T07:48:05.000Z</time>
      </trkpt>
      <trkpt lat="45.30252" lon="4.63888">
        <ele>536.40002441406</ele>
        <time>2019-02-20T07:48:06.000Z</time>
      </trkpt>
      <trkpt lat="45.30253" lon="4.63886">
        <ele>536.40002441406</ele>
        <time>2019-02-20T07:48:07.000Z</time>
      </trkpt>
      <trkpt lat="45.30254" lon="4.63885">
        <ele>536.59997558594</ele>
        <time>2019-02-20T07:48:08.000Z</time>
      </trkpt>
      <trkpt lat="45.30255" lon="4.63883">
        <ele>536.40002441406</ele>
        <time>2019-02-20T07:48:09.000Z</time>
      </trkpt>
      <trkpt lat="45.30256" lon="4.63881">
        <ele>536.40002441406</ele>
        <time>2019-02-20T07:48:10.000Z</time>
      </trkpt>
      <trkpt lat="45.30257" lon="4.6388">
        <ele>536.59997558594</ele>
        <time>2019-02-20T07:48:11.000Z</time>
      </trkpt>
      <trkpt lat="45.30258" lon="4.63878">
        <ele>536.59997558594</ele>
        <time>2019-02-20T07:48:12.000Z</time>
      </trkpt>
      <trkpt lat="45.30259" lon="4.63877">
        <ele>536.59997558594</ele>
        <time>2019-02-20T07:48:13.000Z</time>
      </trkpt>
      <trkpt lat="45.3026" lon="4.63875">
        <ele>536.59997558594</ele>
        <time>2019-02-20T07:48:14.000Z</time>
      </trkpt>
      <trkpt lat="45.30261" lon="4.63873">
        <ele>536.59997558594</ele>
        <time>2019-02-20T07:48:15.000Z</time>
      </trkpt>
      <trkpt lat="45.30262" lon="4.63872">
        <ele>536.59997558594</ele>
        <time>2019-02-20T07:48:16.000Z</time>
      </trkpt>
      <trkpt lat="45.30263" lon="4.6387">
        <ele>536.59997558594</ele>
        <time>2019-02-20T07:48:17.000Z</time>
      </trkpt>
      <trkpt lat="45.30264" lon="4.63869">
        <ele>536.59997558594</ele>
        <time>2019-02-20T07:48:18.000Z</time>
      </trkpt>
      <trkpt lat="45.30265" lon="4.63867">
        <ele>536.79998779297</ele>
        <time>2019-02-20T07:48:19.000Z</time>
      </trkpt>
      <trkpt lat="45.30266" lon="4.63866">
        <ele>536.79998779297</ele>
        <time>2019-02-20T07:48:20.000Z</time>
      </trkpt>
      <trkpt lat="45.30267" lon="4.63864">
        <ele>537</ele>
        <time>2019-02-20T07:48:21.000Z</time>
      </trkpt>
      <trkpt lat="45.30268" lon="4.63863">
        <ele>536.79998779297</ele>
        <time>2019-02-20T07:48:22.000Z</time>
      </trkpt>
      <trkpt lat="45.30269" lon="4.63861">
        <ele>537</ele>
        <time>2019-02-20T07:48:23.000Z</time>
      </trkpt>
      <trkpt lat="45.3027" lon="4.63859">
        <ele>537.20001220703</ele>
        <time>2019-02-20T07:48:24.000Z</time>
      </trkpt>
      <trkpt lat="45.3027" lon="4.63858">
        <ele>537</ele>
        <time>2019-02-20T07:48:25.000Z</time>
      </trkpt>
      <trkpt lat="45.30271" lon="4.63856">
        <ele>537.40002441406</ele>
        <time>2019-02-20T07:48:26.000Z</time>
      </trkpt>
      <trkpt lat="45.30272" lon="4.63855">
        <ele>537.59997558594</ele>
        <time>2019-02-20T07:48:27.000Z</time>
      </trkpt>
      <trkpt lat="45.30273" lon="4.63853">
        <ele>537.59997558594</ele>
        <time>2019-02-20T07:48:28.000Z</time>
      </trkpt>
      <trkpt lat="45.30274" lon="4.63852">
        <ele>537.79998779297</ele>
        <time>2019-02-20T07:48:29.000Z</time>
      </trkpt>
      <trkpt lat="45.30275" lon="4.6385">
        <ele>538</ele>
        <time>2019-02-20T07:48:30.000Z</time>
      </trkpt>
      <trkpt lat="45.30276" lon="4.63848">
        <ele>538.20001220703</ele>
        <time>2019-02-20T07:48:31.000Z</time>
      </trkpt>
      <trkpt lat="45.30277" lon="4.63847">
        <ele>538.40002441406</ele>
        <time>2019-02-20T07:48:32.000Z</time>
      </trkpt>
      <trkpt lat="45.30279" lon="4.63846">
        <ele>539</ele>
        <time>2019-02-20T07:48:33.000Z</time>
      </trkpt>
      <trkpt lat="45.3028" lon="4.63845">
        <ele>539</ele>
        <time>2019-02-20T07:48:34.000Z</time>
      </trkpt>
      <trkpt lat="45.30282" lon="4.63844">
        <ele>539.20001220703</ele>
        <time>2019-02-20T07:48:35.000Z</time>
      </trkpt>
      <trkpt lat="45.30283" lon="4.63843">
        <ele>539.40002441406</ele>
        <time>2019-02-20T07:48:36.000Z</time>
      </trkpt>
      <trkpt lat="45.30284" lon="4.63841">
        <ele>539.79998779297</ele>
        <time>2019-02-20T07:48:37.000Z</time>
      </trkpt>
      <trkpt lat="45.30286" lon="4.6384">
        <ele>539.79998779297</ele>
        <time>2019-02-20T07:48:38.000Z</time>
      </trkpt>
      <trkpt lat="45.30288" lon="4.63839">
        <ele>540.20001220703</ele>
        <time>2019-02-20T07:48:39.000Z</time>
      </trkpt>
      <trkpt lat="45.30289" lon="4.63838">
        <ele>540.40002441406</ele>
        <time>2019-02-20T07:48:40.000Z</time>
      </trkpt>
      <trkpt lat="45.30291" lon="4.63837">
        <ele>540.40002441406</ele>
        <time>2019-02-20T07:48:41.000Z</time>
      </trkpt>
      <trkpt lat="45.30292" lon="4.63836">
        <ele>540.79998779297</ele>
        <time>2019-02-20T07:48:42.000Z</time>
      </trkpt>
      <trkpt lat="45.30294" lon="4.63836">
        <ele>540.79998779297</ele>
        <time>2019-02-20T07:48:43.000Z</time>
      </trkpt>
      <trkpt lat="45.30295" lon="4.63835">
        <ele>540.79998779297</ele>
        <time>2019-02-20T07:48:44.000Z</time>
      </trkpt>
      <trkpt lat="45.30297" lon="4.63834">
        <ele>540.79998779297</ele>
        <time>2019-02-20T07:48:45.000Z</time>
      </trkpt>
      <trkpt lat="45.30298" lon="4.63833">
        <ele>541</ele>
        <time>2019-02-20T07:48:46.000Z</time>
      </trkpt>
      <trkpt lat="45.303" lon="4.63832">
        <ele>541.20001220703</ele>
        <time>2019-02-20T07:48:47.000Z</time>
      </trkpt>
      <trkpt lat="45.30301" lon="4.63832">
        <ele>541.59997558594</ele>
        <time>2019-02-20T07:48:48.000Z</time>
      </trkpt>
      <trkpt lat="45.30303" lon="4.63831">
        <ele>542</ele>
        <time>2019-02-20T07:48:49.000Z</time>
      </trkpt>
      <trkpt lat="45.30305" lon="4.6383">
        <ele>542</ele>
        <time>2019-02-20T07:48:50.000Z</time>
      </trkpt>
      <trkpt lat="45.30306" lon="4.63829">
        <ele>542</ele>
        <time>2019-02-20T07:48:51.000Z</time>
      </trkpt>
      <trkpt lat="45.30308" lon="4.63828">
        <ele>542.20001220703</ele>
        <time>2019-02-20T07:48:52.000Z</time>
      </trkpt>
      <trkpt lat="45.30309" lon="4.63828">
        <ele>542</ele>
        <time>2019-02-20T07:48:53.000Z</time>
      </trkpt>
      <trkpt lat="45.30311" lon="4.63827">
        <ele>542.20001220703</ele>
        <time>2019-02-20T07:48:54.000Z</time>
      </trkpt>
      <trkpt lat="45.30313" lon="4.63826">
        <ele>542.40002441406</ele>
        <time>2019-02-20T07:48:55.000Z</time>
      </trkpt>
      <trkpt lat="45.30314" lon="4.63825">
        <ele>542.59997558594</ele>
        <time>2019-02-20T07:48:56.000Z</time>
      </trkpt>
      <trkpt lat="45.30316" lon="4.63824">
        <ele>542.59997558594</ele>
        <time>2019-02-20T07:48:57.000Z</time>
      </trkpt>
      <trkpt lat="45.30318" lon="4.63824">
        <ele>542.79998779297</ele>
        <time>2019-02-20T07:48:58.000Z</time>
      </trkpt>
      <trkpt lat="45.30319" lon="4.63822">
        <ele>542.79998779297</ele>
        <time>2019-02-20T07:48:59.000Z</time>
      </trkpt>
      <trkpt lat="45.30321" lon="4.63822">
        <ele>542.79998779297</ele>
        <time>2019-02-20T07:49:00.000Z</time>
      </trkpt>
      <trkpt lat="45.30323" lon="4.63821">
        <ele>543</ele>
        <time>2019-02-20T07:49:01.000Z</time>
      </trkpt>
      <trkpt lat="45.30324" lon="4.6382">
        <ele>543.20001220703</ele>
        <time>2019-02-20T07:49:02.000Z</time>
      </trkpt>
      <trkpt lat="45.30326" lon="4.63819">
        <ele>543.40002441406</ele>
        <time>2019-02-20T07:49:03.000Z</time>
      </trkpt>
      <trkpt lat="45.30327" lon="4.63818">
        <ele>543.40002441406</ele>
        <time>2019-02-20T07:49:04.000Z</time>
      </trkpt>
      <trkpt lat="45.30329" lon="4.63817">
        <ele>543.40002441406</ele>
        <time>2019-02-20T07:49:05.000Z</time>
      </trkpt>
      <trkpt lat="45.3033" lon="4.63816">
        <ele>543.40002441406</ele>
        <time>2019-02-20T07:49:06.000Z</time>
      </trkpt>
      <trkpt lat="45.30332" lon="4.63815">
        <ele>543.59997558594</ele>
        <time>2019-02-20T07:49:07.000Z</time>
      </trkpt>
      <trkpt lat="45.30334" lon="4.63814">
        <ele>543.59997558594</ele>
        <time>2019-02-20T07:49:08.000Z</time>
      </trkpt>
      <trkpt lat="45.30335" lon="4.63813">
        <ele>543.59997558594</ele>
        <time>2019-02-20T07:49:09.000Z</time>
      </trkpt>
      <trkpt lat="45.30337" lon="4.63812">
        <ele>543.59997558594</ele>
        <time>2019-02-20T07:49:10.000Z</time>
      </trkpt>
      <trkpt lat="45.30338" lon="4.63812">
        <ele>543.59997558594</ele>
        <time>2019-02-20T07:49:11.000Z</time>
      </trkpt>
      <trkpt lat="45.3034" lon="4.63811">
        <ele>543.79998779297</ele>
        <time>2019-02-20T07:49:12.000Z</time>
      </trkpt>
      <trkpt lat="45.30342" lon="4.6381">
        <ele>543.59997558594</ele>
        <time>2019-02-20T07:49:13.000Z</time>
      </trkpt>
      <trkpt lat="45.30344" lon="4.63809">
        <ele>543.79998779297</ele>
        <time>2019-02-20T07:49:14.000Z</time>
      </trkpt>
      <trkpt lat="45.30345" lon="4.63808">
        <ele>543.79998779297</ele>
        <time>2019-02-20T07:49:15.000Z</time>
      </trkpt>
      <trkpt lat="45.30347" lon="4.63807">
        <ele>543.79998779297</ele>
        <time>2019-02-20T07:49:16.000Z</time>
      </trkpt>
      <trkpt lat="45.30349" lon="4.63806">
        <ele>543.79998779297</ele>
        <time>2019-02-20T07:49:17.000Z</time>
      </trkpt>
      <trkpt lat="45.3035" lon="4.63805">
        <ele>544</ele>
        <time>2019-02-20T07:49:18.000Z</time>
      </trkpt>
      <trkpt lat="45.30352" lon="4.63805">
        <ele>544</ele>
        <time>2019-02-20T07:49:19.000Z</time>
      </trkpt>
      <trkpt lat="45.30353" lon="4.63804">
        <ele>544</ele>
        <time>2019-02-20T07:49:20.000Z</time>
      </trkpt>
      <trkpt lat="45.30355" lon="4.63803">
        <ele>544</ele>
        <time>2019-02-20T07:49:21.000Z</time>
      </trkpt>
      <trkpt lat="45.30356" lon="4.63802">
        <ele>544</ele>
        <time>2019-02-20T07:49:22.000Z</time>
      </trkpt>
      <trkpt lat="45.30357" lon="4.63802">
        <ele>544</ele>
        <time>2019-02-20T07:49:23.000Z</time>
      </trkpt>
      <trkpt lat="45.30359" lon="4.63801">
        <ele>544.20001220703</ele>
        <time>2019-02-20T07:49:24.000Z</time>
      </trkpt>
      <trkpt lat="45.3036" lon="4.638">
        <ele>544.20001220703</ele>
        <time>2019-02-20T07:49:25.000Z</time>
      </trkpt>
      <trkpt lat="45.30361" lon="4.638">
        <ele>544.40002441406</ele>
        <time>2019-02-20T07:49:26.000Z</time>
      </trkpt>
      <trkpt lat="45.30362" lon="4.63798">
        <ele>544.40002441406</ele>
        <time>2019-02-20T07:49:27.000Z</time>
      </trkpt>
      <trkpt lat="45.30363" lon="4.63797">
        <ele>544.40002441406</ele>
        <time>2019-02-20T07:49:28.000Z</time>
      </trkpt>
      <trkpt lat="45.30365" lon="4.63795">
        <ele>544.40002441406</ele>
        <time>2019-02-20T07:49:29.000Z</time>
      </trkpt>
      <trkpt lat="45.30366" lon="4.63794">
        <ele>544.40002441406</ele>
        <time>2019-02-20T07:49:30.000Z</time>
      </trkpt>
      <trkpt lat="45.30367" lon="4.63792">
        <ele>544.40002441406</ele>
        <time>2019-02-20T07:49:31.000Z</time>
      </trkpt>
      <trkpt lat="45.30368" lon="4.63791">
        <ele>544.40002441406</ele>
        <time>2019-02-20T07:49:32.000Z</time>
      </trkpt>
      <trkpt lat="45.3037" lon="4.63789">
        <ele>544.40002441406</ele>
        <time>2019-02-20T07:49:33.000Z</time>
      </trkpt>
      <trkpt lat="45.30371" lon="4.63787">
        <ele>544.40002441406</ele>
        <time>2019-02-20T07:49:34.000Z</time>
      </trkpt>
      <trkpt lat="45.30372" lon="4.63786">
        <ele>544.40002441406</ele>
        <time>2019-02-20T07:49:35.000Z</time>
      </trkpt>
      <trkpt lat="45.30373" lon="4.63785">
        <ele>544.40002441406</ele>
        <time>2019-02-20T07:49:36.000Z</time>
      </trkpt>
      <trkpt lat="45.30375" lon="4.63783">
        <ele>544.40002441406</ele>
        <time>2019-02-20T07:49:37.000Z</time>
      </trkpt>
      <trkpt lat="45.30376" lon="4.63782">
        <ele>544.40002441406</ele>
        <time>2019-02-20T07:49:38.000Z</time>
      </trkpt>
      <trkpt lat="45.30378" lon="4.63781">
        <ele>544.40002441406</ele>
        <time>2019-02-20T07:49:39.000Z</time>
      </trkpt>
      <trkpt lat="45.30379" lon="4.63779">
        <ele>544.40002441406</ele>
        <time>2019-02-20T07:49:40.000Z</time>
      </trkpt>
      <trkpt lat="45.30381" lon="4.63778">
        <ele>544.59997558594</ele>
        <time>2019-02-20T07:49:41.000Z</time>
      </trkpt>
      <trkpt lat="45.30382" lon="4.63777">
        <ele>544.79998779297</ele>
        <time>2019-02-20T07:49:42.000Z</time>
      </trkpt>
      <trkpt lat="45.30384" lon="4.63776">
        <ele>545.20001220703</ele>
        <time>2019-02-20T07:49:43.000Z</time>
      </trkpt>
      <trkpt lat="45.30385" lon="4.63775">
        <ele>545.40002441406</ele>
        <time>2019-02-20T07:49:44.000Z</time>
      </trkpt>
      <trkpt lat="45.30387" lon="4.63773">
        <ele>545.40002441406</ele>
        <time>2019-02-20T07:49:45.000Z</time>
      </trkpt>
      <trkpt lat="45.30388" lon="4.63772">
        <ele>545.40002441406</ele>
        <time>2019-02-20T07:49:46.000Z</time>
      </trkpt>
      <trkpt lat="45.30389" lon="4.63771">
        <ele>545.40002441406</ele>
        <time>2019-02-20T07:49:47.000Z</time>
      </trkpt>
      <trkpt lat="45.30391" lon="4.63769">
        <ele>545.79998779297</ele>
        <time>2019-02-20T07:49:48.000Z</time>
      </trkpt>
      <trkpt lat="45.30392" lon="4.63768">
        <ele>545.59997558594</ele>
        <time>2019-02-20T07:49:49.000Z</time>
      </trkpt>
      <trkpt lat="45.30393" lon="4.63767">
        <ele>545.59997558594</ele>
        <time>2019-02-20T07:49:50.000Z</time>
      </trkpt>
      <trkpt lat="45.30395" lon="4.63766">
        <ele>545.79998779297</ele>
        <time>2019-02-20T07:49:51.000Z</time>
      </trkpt>
      <trkpt lat="45.30396" lon="4.63764">
        <ele>546</ele>
        <time>2019-02-20T07:49:52.000Z</time>
      </trkpt>
      <trkpt lat="45.30397" lon="4.63763">
        <ele>546.20001220703</ele>
        <time>2019-02-20T07:49:53.000Z</time>
      </trkpt>
      <trkpt lat="45.30399" lon="4.63761">
        <ele>546.20001220703</ele>
        <time>2019-02-20T07:49:54.000Z</time>
      </trkpt>
      <trkpt lat="45.304" lon="4.6376">
        <ele>546.40002441406</ele>
        <time>2019-02-20T07:49:55.000Z</time>
      </trkpt>
      <trkpt lat="45.30401" lon="4.63759">
        <ele>546.40002441406</ele>
        <time>2019-02-20T07:49:56.000Z</time>
      </trkpt>
      <trkpt lat="45.30403" lon="4.63758">
        <ele>546.79998779297</ele>
        <time>2019-02-20T07:49:57.000Z</time>
      </trkpt>
      <trkpt lat="45.30404" lon="4.63756">
        <ele>547.20001220703</ele>
        <time>2019-02-20T07:49:58.000Z</time>
      </trkpt>
      <trkpt lat="45.30405" lon="4.63755">
        <ele>547.20001220703</ele>
        <time>2019-02-20T07:49:59.000Z</time>
      </trkpt>
      <trkpt lat="45.30407" lon="4.63753">
        <ele>547.40002441406</ele>
        <time>2019-02-20T07:50:00.000Z</time>
      </trkpt>
      <trkpt lat="45.30408" lon="4.63752">
        <ele>547.59997558594</ele>
        <time>2019-02-20T07:50:01.000Z</time>
      </trkpt>
      <trkpt lat="45.30409" lon="4.63751">
        <ele>547.59997558594</ele>
        <time>2019-02-20T07:50:02.000Z</time>
      </trkpt>
      <trkpt lat="45.30411" lon="4.6375">
        <ele>547.59997558594</ele>
        <time>2019-02-20T07:50:03.000Z</time>
      </trkpt>
      <trkpt lat="45.30412" lon="4.63749">
        <ele>547.59997558594</ele>
        <time>2019-02-20T07:50:04.000Z</time>
      </trkpt>
      <trkpt lat="45.30413" lon="4.63747">
        <ele>547.59997558594</ele>
        <time>2019-02-20T07:50:05.000Z</time>
      </trkpt>
      <trkpt lat="45.30414" lon="4.63746">
        <ele>547.59997558594</ele>
        <time>2019-02-20T07:50:06.000Z</time>
      </trkpt>
      <trkpt lat="45.30416" lon="4.63745">
        <ele>547.79998779297</ele>
        <time>2019-02-20T07:50:07.000Z</time>
      </trkpt>
      <trkpt lat="45.30417" lon="4.63744">
        <ele>547.79998779297</ele>
        <time>2019-02-20T07:50:08.000Z</time>
      </trkpt>
      <trkpt lat="45.30418" lon="4.63743">
        <ele>548</ele>
        <time>2019-02-20T07:50:09.000Z</time>
      </trkpt>
      <trkpt lat="45.30419" lon="4.63742">
        <ele>548.20001220703</ele>
        <time>2019-02-20T07:50:10.000Z</time>
      </trkpt>
      <trkpt lat="45.3042" lon="4.63741">
        <ele>548.20001220703</ele>
        <time>2019-02-20T07:50:11.000Z</time>
      </trkpt>
      <trkpt lat="45.30421" lon="4.6374">
        <ele>548.40002441406</ele>
        <time>2019-02-20T07:50:12.000Z</time>
      </trkpt>
      <trkpt lat="45.30422" lon="4.63739">
        <ele>548.59997558594</ele>
        <time>2019-02-20T07:50:13.000Z</time>
      </trkpt>
      <trkpt lat="45.30423" lon="4.63737">
        <ele>548.79998779297</ele>
        <time>2019-02-20T07:50:14.000Z</time>
      </trkpt>
      <trkpt lat="45.30424" lon="4.63736">
        <ele>548.79998779297</ele>
        <time>2019-02-20T07:50:15.000Z</time>
      </trkpt>
      <trkpt lat="45.30425" lon="4.63735">
        <ele>548.79998779297</ele>
        <time>2019-02-20T07:50:16.000Z</time>
      </trkpt>
      <trkpt lat="45.30426" lon="4.63733">
        <ele>549</ele>
        <time>2019-02-20T07:50:17.000Z</time>
      </trkpt>
      <trkpt lat="45.30427" lon="4.63732">
        <ele>549.20001220703</ele>
        <time>2019-02-20T07:50:18.000Z</time>
      </trkpt>
      <trkpt lat="45.30429" lon="4.6373">
        <ele>549.40002441406</ele>
        <time>2019-02-20T07:50:19.000Z</time>
      </trkpt>
      <trkpt lat="45.3043" lon="4.63729">
        <ele>549.20001220703</ele>
        <time>2019-02-20T07:50:20.000Z</time>
      </trkpt>
      <trkpt lat="45.30431" lon="4.63728">
        <ele>549.40002441406</ele>
        <time>2019-02-20T07:50:21.000Z</time>
      </trkpt>
      <trkpt lat="45.30433" lon="4.63726">
        <ele>549.40002441406</ele>
        <time>2019-02-20T07:50:22.000Z</time>
      </trkpt>
      <trkpt lat="45.30434" lon="4.63725">
        <ele>549.40002441406</ele>
        <time>2019-02-20T07:50:23.000Z</time>
      </trkpt>
      <trkpt lat="45.30436" lon="4.63724">
        <ele>549.59997558594</ele>
        <time>2019-02-20T07:50:24.000Z</time>
      </trkpt>
      <trkpt lat="45.30437" lon="4.63723">
        <ele>549.59997558594</ele>
        <time>2019-02-20T07:50:25.000Z</time>
      </trkpt>
      <trkpt lat="45.30438" lon="4.63721">
        <ele>549.79998779297</ele>
        <time>2019-02-20T07:50:26.000Z</time>
      </trkpt>
      <trkpt lat="45.3044" lon="4.6372">
        <ele>550</ele>
        <time>2019-02-20T07:50:27.000Z</time>
      </trkpt>
      <trkpt lat="45.30441" lon="4.63719">
        <ele>550</ele>
        <time>2019-02-20T07:50:28.000Z</time>
      </trkpt>
      <trkpt lat="45.30442" lon="4.63718">
        <ele>550</ele>
        <time>2019-02-20T07:50:29.000Z</time>
      </trkpt>
      <trkpt lat="45.30443" lon="4.63716">
        <ele>550.20001220703</ele>
        <time>2019-02-20T07:50:30.000Z</time>
      </trkpt>
      <trkpt lat="45.30445" lon="4.63715">
        <ele>550.20001220703</ele>
        <time>2019-02-20T07:50:31.000Z</time>
      </trkpt>
      <trkpt lat="45.30446" lon="4.63714">
        <ele>550.40002441406</ele>
        <time>2019-02-20T07:50:32.000Z</time>
      </trkpt>
      <trkpt lat="45.30447" lon="4.63712">
        <ele>550.59997558594</ele>
        <time>2019-02-20T07:50:33.000Z</time>
      </trkpt>
      <trkpt lat="45.30448" lon="4.63711">
        <ele>550.79998779297</ele>
        <time>2019-02-20T07:50:34.000Z</time>
      </trkpt>
      <trkpt lat="45.30449" lon="4.6371">
        <ele>550.79998779297</ele>
        <time>2019-02-20T07:50:35.000Z</time>
      </trkpt>
      <trkpt lat="45.3045" lon="4.63709">
        <ele>550.79998779297</ele>
        <time>2019-02-20T07:50:36.000Z</time>
      </trkpt>
      <trkpt lat="45.30451" lon="4.63708">
        <ele>551</ele>
        <time>2019-02-20T07:50:37.000Z</time>
      </trkpt>
      <trkpt lat="45.30453" lon="4.63707">
        <ele>551</ele>
        <time>2019-02-20T07:50:38.000Z</time>
      </trkpt>
      <trkpt lat="45.30454" lon="4.63705">
        <ele>551</ele>
        <time>2019-02-20T07:50:39.000Z</time>
      </trkpt>
      <trkpt lat="45.30455" lon="4.63704">
        <ele>551.20001220703</ele>
        <time>2019-02-20T07:50:40.000Z</time>
      </trkpt>
      <trkpt lat="45.30456" lon="4.63703">
        <ele>551</ele>
        <time>2019-02-20T07:50:41.000Z</time>
      </trkpt>
      <trkpt lat="45.30458" lon="4.63702">
        <ele>551.20001220703</ele>
        <time>2019-02-20T07:50:42.000Z</time>
      </trkpt>
      <trkpt lat="45.30459" lon="4.637">
        <ele>551.40002441406</ele>
        <time>2019-02-20T07:50:43.000Z</time>
      </trkpt>
      <trkpt lat="45.3046" lon="4.63698">
        <ele>551.40002441406</ele>
        <time>2019-02-20T07:50:44.000Z</time>
      </trkpt>
      <trkpt lat="45.30461" lon="4.63697">
        <ele>551.40002441406</ele>
        <time>2019-02-20T07:50:45.000Z</time>
      </trkpt>
      <trkpt lat="45.30461" lon="4.63695">
        <ele>551.40002441406</ele>
        <time>2019-02-20T07:50:46.000Z</time>
      </trkpt>
      <trkpt lat="45.30462" lon="4.63693">
        <ele>551.40002441406</ele>
        <time>2019-02-20T07:50:47.000Z</time>
      </trkpt>
      <trkpt lat="45.30463" lon="4.63692">
        <ele>551.59997558594</ele>
        <time>2019-02-20T07:50:48.000Z</time>
      </trkpt>
      <trkpt lat="45.30464" lon="4.6369">
        <ele>551.59997558594</ele>
        <time>2019-02-20T07:50:49.000Z</time>
      </trkpt>
      <trkpt lat="45.30465" lon="4.63689">
        <ele>551.79998779297</ele>
        <time>2019-02-20T07:50:50.000Z</time>
      </trkpt>
      <trkpt lat="45.30465" lon="4.63688">
        <ele>552</ele>
        <time>2019-02-20T07:50:51.000Z</time>
      </trkpt>
      <trkpt lat="45.30466" lon="4.63686">
        <ele>552</ele>
        <time>2019-02-20T07:50:52.000Z</time>
      </trkpt>
      <trkpt lat="45.30467" lon="4.63685">
        <ele>552.20001220703</ele>
        <time>2019-02-20T07:50:53.000Z</time>
      </trkpt>
      <trkpt lat="45.30468" lon="4.63684">
        <ele>552.20001220703</ele>
        <time>2019-02-20T07:50:54.000Z</time>
      </trkpt>
      <trkpt lat="45.30469" lon="4.63683">
        <ele>552.40002441406</ele>
        <time>2019-02-20T07:50:55.000Z</time>
      </trkpt>
      <trkpt lat="45.3047" lon="4.63681">
        <ele>552.40002441406</ele>
        <time>2019-02-20T07:50:56.000Z</time>
      </trkpt>
      <trkpt lat="45.30471" lon="4.6368">
        <ele>552.59997558594</ele>
        <time>2019-02-20T07:50:57.000Z</time>
      </trkpt>
      <trkpt lat="45.30472" lon="4.63678">
        <ele>552.59997558594</ele>
        <time>2019-02-20T07:50:58.000Z</time>
      </trkpt>
      <trkpt lat="45.30473" lon="4.63677">
        <ele>552.59997558594</ele>
        <time>2019-02-20T07:50:59.000Z</time>
      </trkpt>
      <trkpt lat="45.30473" lon="4.63675">
        <ele>552.59997558594</ele>
        <time>2019-02-20T07:51:00.000Z</time>
      </trkpt>
      <trkpt lat="45.30474" lon="4.63674">
        <ele>552.79998779297</ele>
        <time>2019-02-20T07:51:01.000Z</time>
      </trkpt>
      <trkpt lat="45.30475" lon="4.63673">
        <ele>553</ele>
        <time>2019-02-20T07:51:02.000Z</time>
      </trkpt>
      <trkpt lat="45.30477" lon="4.63672">
        <ele>553.20001220703</ele>
        <time>2019-02-20T07:51:03.000Z</time>
      </trkpt>
      <trkpt lat="45.30478" lon="4.63671">
        <ele>553.20001220703</ele>
        <time>2019-02-20T07:51:04.000Z</time>
      </trkpt>
      <trkpt lat="45.3048" lon="4.63671">
        <ele>553.20001220703</ele>
        <time>2019-02-20T07:51:05.000Z</time>
      </trkpt>
      <trkpt lat="45.30481" lon="4.6367">
        <ele>553</ele>
        <time>2019-02-20T07:51:06.000Z</time>
      </trkpt>
      <trkpt lat="45.30482" lon="4.63669">
        <ele>553.20001220703</ele>
        <time>2019-02-20T07:51:07.000Z</time>
      </trkpt>
      <trkpt lat="45.30483" lon="4.63668">
        <ele>553.40002441406</ele>
        <time>2019-02-20T07:51:08.000Z</time>
      </trkpt>
      <trkpt lat="45.30485" lon="4.63667">
        <ele>553.59997558594</ele>
        <time>2019-02-20T07:51:09.000Z</time>
      </trkpt>
      <trkpt lat="45.30487" lon="4.63667">
        <ele>553.79998779297</ele>
        <time>2019-02-20T07:51:10.000Z</time>
      </trkpt>
      <trkpt lat="45.30488" lon="4.63666">
        <ele>553.79998779297</ele>
        <time>2019-02-20T07:51:11.000Z</time>
      </trkpt>
      <trkpt lat="45.3049" lon="4.63665">
        <ele>554</ele>
        <time>2019-02-20T07:51:12.000Z</time>
      </trkpt>
      <trkpt lat="45.30491" lon="4.63664">
        <ele>554.20001220703</ele>
        <time>2019-02-20T07:51:13.000Z</time>
      </trkpt>
      <trkpt lat="45.30493" lon="4.63663">
        <ele>554.40002441406</ele>
        <time>2019-02-20T07:51:14.000Z</time>
      </trkpt>
      <trkpt lat="45.30494" lon="4.63663">
        <ele>554.79998779297</ele>
        <time>2019-02-20T07:51:15.000Z</time>
      </trkpt>
      <trkpt lat="45.30496" lon="4.63662">
        <ele>554.79998779297</ele>
        <time>2019-02-20T07:51:16.000Z</time>
      </trkpt>
      <trkpt lat="45.30497" lon="4.6366">
        <ele>555</ele>
        <time>2019-02-20T07:51:17.000Z</time>
      </trkpt>
      <trkpt lat="45.30498" lon="4.63659">
        <ele>555.20001220703</ele>
        <time>2019-02-20T07:51:18.000Z</time>
      </trkpt>
      <trkpt lat="45.305" lon="4.63658">
        <ele>555.40002441406</ele>
        <time>2019-02-20T07:51:19.000Z</time>
      </trkpt>
      <trkpt lat="45.30501" lon="4.63657">
        <ele>555.59997558594</ele>
        <time>2019-02-20T07:51:20.000Z</time>
      </trkpt>
      <trkpt lat="45.30503" lon="4.63656">
        <ele>556</ele>
        <time>2019-02-20T07:51:21.000Z</time>
      </trkpt>
      <trkpt lat="45.30504" lon="4.63655">
        <ele>555.79998779297</ele>
        <time>2019-02-20T07:51:22.000Z</time>
      </trkpt>
      <trkpt lat="45.30505" lon="4.63654">
        <ele>556</ele>
        <time>2019-02-20T07:51:23.000Z</time>
      </trkpt>
      <trkpt lat="45.30507" lon="4.63654">
        <ele>556.20001220703</ele>
        <time>2019-02-20T07:51:24.000Z</time>
      </trkpt>
      <trkpt lat="45.30508" lon="4.63653">
        <ele>556.20001220703</ele>
        <time>2019-02-20T07:51:25.000Z</time>
      </trkpt>
      <trkpt lat="45.30509" lon="4.63652">
        <ele>556.20001220703</ele>
        <time>2019-02-20T07:51:26.000Z</time>
      </trkpt>
      <trkpt lat="45.30511" lon="4.63651">
        <ele>556.59997558594</ele>
        <time>2019-02-20T07:51:27.000Z</time>
      </trkpt>
      <trkpt lat="45.30512" lon="4.6365">
        <ele>556.79998779297</ele>
        <time>2019-02-20T07:51:28.000Z</time>
      </trkpt>
      <trkpt lat="45.30513" lon="4.63649">
        <ele>556.79998779297</ele>
        <time>2019-02-20T07:51:29.000Z</time>
      </trkpt>
      <trkpt lat="45.30514" lon="4.63649">
        <ele>557</ele>
        <time>2019-02-20T07:51:30.000Z</time>
      </trkpt>
      <trkpt lat="45.30516" lon="4.63648">
        <ele>556.79998779297</ele>
        <time>2019-02-20T07:51:31.000Z</time>
      </trkpt>
      <trkpt lat="45.30517" lon="4.63647">
        <ele>557</ele>
        <time>2019-02-20T07:51:32.000Z</time>
      </trkpt>
      <trkpt lat="45.30518" lon="4.63646">
        <ele>557.20001220703</ele>
        <time>2019-02-20T07:51:33.000Z</time>
      </trkpt>
      <trkpt lat="45.30519" lon="4.63645">
        <ele>557.20001220703</ele>
        <time>2019-02-20T07:51:34.000Z</time>
      </trkpt>
      <trkpt lat="45.3052" lon="4.63645">
        <ele>557.40002441406</ele>
        <time>2019-02-20T07:51:35.000Z</time>
      </trkpt>
      <trkpt lat="45.30521" lon="4.63644">
        <ele>557.59997558594</ele>
        <time>2019-02-20T07:51:36.000Z</time>
      </trkpt>
      <trkpt lat="45.30523" lon="4.63644">
        <ele>557.59997558594</ele>
        <time>2019-02-20T07:51:37.000Z</time>
      </trkpt>
      <trkpt lat="45.30524" lon="4.63643">
        <ele>558</ele>
        <time>2019-02-20T07:51:38.000Z</time>
      </trkpt>
      <trkpt lat="45.30525" lon="4.63643">
        <ele>558.20001220703</ele>
        <time>2019-02-20T07:51:39.000Z</time>
      </trkpt>
      <trkpt lat="45.30526" lon="4.63643">
        <ele>558.40002441406</ele>
        <time>2019-02-20T07:51:40.000Z</time>
      </trkpt>
      <trkpt lat="45.30527" lon="4.63642">
        <ele>558.59997558594</ele>
        <time>2019-02-20T07:51:41.000Z</time>
      </trkpt>
      <trkpt lat="45.30528" lon="4.63641">
        <ele>559</ele>
        <time>2019-02-20T07:51:42.000Z</time>
      </trkpt>
      <trkpt lat="45.3053" lon="4.63641">
        <ele>559</ele>
        <time>2019-02-20T07:51:43.000Z</time>
      </trkpt>
      <trkpt lat="45.30531" lon="4.63639">
        <ele>559.59997558594</ele>
        <time>2019-02-20T07:51:44.000Z</time>
      </trkpt>
      <trkpt lat="45.30532" lon="4.63639">
        <ele>559.59997558594</ele>
        <time>2019-02-20T07:51:45.000Z</time>
      </trkpt>
      <trkpt lat="45.30534" lon="4.63638">
        <ele>559.59997558594</ele>
        <time>2019-02-20T07:51:46.000Z</time>
      </trkpt>
      <trkpt lat="45.30535" lon="4.63638">
        <ele>559.79998779297</ele>
        <time>2019-02-20T07:51:47.000Z</time>
      </trkpt>
      <trkpt lat="45.30536" lon="4.63637">
        <ele>560</ele>
        <time>2019-02-20T07:51:48.000Z</time>
      </trkpt>
      <trkpt lat="45.30538" lon="4.63636">
        <ele>560.20001220703</ele>
        <time>2019-02-20T07:51:49.000Z</time>
      </trkpt>
      <trkpt lat="45.30539" lon="4.63636">
        <ele>560.40002441406</ele>
        <time>2019-02-20T07:51:50.000Z</time>
      </trkpt>
      <trkpt lat="45.3054" lon="4.63635">
        <ele>560.59997558594</ele>
        <time>2019-02-20T07:51:51.000Z</time>
      </trkpt>
      <trkpt lat="45.30541" lon="4.63634">
        <ele>560.79998779297</ele>
        <time>2019-02-20T07:51:52.000Z</time>
      </trkpt>
      <trkpt lat="45.30542" lon="4.63633">
        <ele>560.79998779297</ele>
        <time>2019-02-20T07:51:53.000Z</time>
      </trkpt>
      <trkpt lat="45.30543" lon="4.63633">
        <ele>561.20001220703</ele>
        <time>2019-02-20T07:51:54.000Z</time>
      </trkpt>
      <trkpt lat="45.30545" lon="4.63633">
        <ele>561.20001220703</ele>
        <time>2019-02-20T07:51:55.000Z</time>
      </trkpt>
      <trkpt lat="45.30546" lon="4.63632">
        <ele>561.40002441406</ele>
        <time>2019-02-20T07:51:56.000Z</time>
      </trkpt>
      <trkpt lat="45.30548" lon="4.63631">
        <ele>561.59997558594</ele>
        <time>2019-02-20T07:51:57.000Z</time>
      </trkpt>
      <trkpt lat="45.30549" lon="4.63631">
        <ele>561.79998779297</ele>
        <time>2019-02-20T07:51:58.000Z</time>
      </trkpt>
      <trkpt lat="45.3055" lon="4.6363">
        <ele>562</ele>
        <time>2019-02-20T07:51:59.000Z</time>
      </trkpt>
      <trkpt lat="45.30552" lon="4.63629">
        <ele>562.20001220703</ele>
        <time>2019-02-20T07:52:00.000Z</time>
      </trkpt>
      <trkpt lat="45.30553" lon="4.63628">
        <ele>562.40002441406</ele>
        <time>2019-02-20T07:52:01.000Z</time>
      </trkpt>
      <trkpt lat="45.30554" lon="4.63627">
        <ele>562.40002441406</ele>
        <time>2019-02-20T07:52:02.000Z</time>
      </trkpt>
      <trkpt lat="45.30555" lon="4.63626">
        <ele>562.40002441406</ele>
        <time>2019-02-20T07:52:03.000Z</time>
      </trkpt>
      <trkpt lat="45.30557" lon="4.63625">
        <ele>562.59997558594</ele>
        <time>2019-02-20T07:52:04.000Z</time>
      </trkpt>
      <trkpt lat="45.30558" lon="4.63624">
        <ele>562.79998779297</ele>
        <time>2019-02-20T07:52:05.000Z</time>
      </trkpt>
      <trkpt lat="45.30559" lon="4.63624">
        <ele>563</ele>
        <time>2019-02-20T07:52:06.000Z</time>
      </trkpt>
      <trkpt lat="45.30561" lon="4.63623">
        <ele>563</ele>
        <time>2019-02-20T07:52:07.000Z</time>
      </trkpt>
      <trkpt lat="45.30562" lon="4.63622">
        <ele>563.20001220703</ele>
        <time>2019-02-20T07:52:08.000Z</time>
      </trkpt>
      <trkpt lat="45.30563" lon="4.63621">
        <ele>563.40002441406</ele>
        <time>2019-02-20T07:52:09.000Z</time>
      </trkpt>
      <trkpt lat="45.30564" lon="4.6362">
        <ele>563.40002441406</ele>
        <time>2019-02-20T07:52:10.000Z</time>
      </trkpt>
      <trkpt lat="45.30566" lon="4.6362">
        <ele>563.59997558594</ele>
        <time>2019-02-20T07:52:11.000Z</time>
      </trkpt>
      <trkpt lat="45.30567" lon="4.63619">
        <ele>564</ele>
        <time>2019-02-20T07:52:12.000Z</time>
      </trkpt>
      <trkpt lat="45.30569" lon="4.63619">
        <ele>564</ele>
        <time>2019-02-20T07:52:13.000Z</time>
      </trkpt>
      <trkpt lat="45.3057" lon="4.63618">
        <ele>564.20001220703</ele>
        <time>2019-02-20T07:52:14.000Z</time>
      </trkpt>
      <trkpt lat="45.30571" lon="4.63617">
        <ele>564.20001220703</ele>
        <time>2019-02-20T07:52:15.000Z</time>
      </trkpt>
      <trkpt lat="45.30573" lon="4.63616">
        <ele>564.20001220703</ele>
        <time>2019-02-20T07:52:16.000Z</time>
      </trkpt>
      <trkpt lat="45.30574" lon="4.63615">
        <ele>564.20001220703</ele>
        <time>2019-02-20T07:52:17.000Z</time>
      </trkpt>
      <trkpt lat="45.30576" lon="4.63614">
        <ele>564.40002441406</ele>
        <time>2019-02-20T07:52:18.000Z</time>
      </trkpt>
      <trkpt lat="45.30577" lon="4.63613">
        <ele>564.59997558594</ele>
        <time>2019-02-20T07:52:19.000Z</time>
      </trkpt>
      <trkpt lat="45.30578" lon="4.63612">
        <ele>564.59997558594</ele>
        <time>2019-02-20T07:52:20.000Z</time>
      </trkpt>
      <trkpt lat="45.3058" lon="4.63611">
        <ele>564.79998779297</ele>
        <time>2019-02-20T07:52:21.000Z</time>
      </trkpt>
      <trkpt lat="45.30581" lon="4.6361">
        <ele>564.79998779297</ele>
        <time>2019-02-20T07:52:22.000Z</time>
      </trkpt>
      <trkpt lat="45.30582" lon="4.6361">
        <ele>565</ele>
        <time>2019-02-20T07:52:23.000Z</time>
      </trkpt>
      <trkpt lat="45.30584" lon="4.63609">
        <ele>565</ele>
        <time>2019-02-20T07:52:24.000Z</time>
      </trkpt>
      <trkpt lat="45.30585" lon="4.63608">
        <ele>564.79998779297</ele>
        <time>2019-02-20T07:52:25.000Z</time>
      </trkpt>
      <trkpt lat="45.30586" lon="4.63607">
        <ele>565</ele>
        <time>2019-02-20T07:52:26.000Z</time>
      </trkpt>
      <trkpt lat="45.30588" lon="4.63607">
        <ele>565.20001220703</ele>
        <time>2019-02-20T07:52:27.000Z</time>
      </trkpt>
      <trkpt lat="45.30589" lon="4.63606">
        <ele>565</ele>
        <time>2019-02-20T07:52:28.000Z</time>
      </trkpt>
      <trkpt lat="45.30591" lon="4.63605">
        <ele>565.20001220703</ele>
        <time>2019-02-20T07:52:29.000Z</time>
      </trkpt>
      <trkpt lat="45.30592" lon="4.63603">
        <ele>565.20001220703</ele>
        <time>2019-02-20T07:52:30.000Z</time>
      </trkpt>
      <trkpt lat="45.30594" lon="4.63603">
        <ele>565.20001220703</ele>
        <time>2019-02-20T07:52:31.000Z</time>
      </trkpt>
      <trkpt lat="45.30595" lon="4.63602">
        <ele>565.20001220703</ele>
        <time>2019-02-20T07:52:32.000Z</time>
      </trkpt>
      <trkpt lat="45.30596" lon="4.63601">
        <ele>565.40002441406</ele>
        <time>2019-02-20T07:52:33.000Z</time>
      </trkpt>
      <trkpt lat="45.30598" lon="4.636">
        <ele>565.20001220703</ele>
        <time>2019-02-20T07:52:34.000Z</time>
      </trkpt>
      <trkpt lat="45.30599" lon="4.636">
        <ele>565.59997558594</ele>
        <time>2019-02-20T07:52:35.000Z</time>
      </trkpt>
      <trkpt lat="45.30601" lon="4.63599">
        <ele>565.59997558594</ele>
        <time>2019-02-20T07:52:36.000Z</time>
      </trkpt>
      <trkpt lat="45.30602" lon="4.63598">
        <ele>565.79998779297</ele>
        <time>2019-02-20T07:52:37.000Z</time>
      </trkpt>
      <trkpt lat="45.30603" lon="4.63597">
        <ele>565.79998779297</ele>
        <time>2019-02-20T07:52:38.000Z</time>
      </trkpt>
      <trkpt lat="45.30605" lon="4.63596">
        <ele>565.79998779297</ele>
        <time>2019-02-20T07:52:39.000Z</time>
      </trkpt>
      <trkpt lat="45.30606" lon="4.63596">
        <ele>565.79998779297</ele>
        <time>2019-02-20T07:52:40.000Z</time>
      </trkpt>
      <trkpt lat="45.30607" lon="4.63595">
        <ele>566</ele>
        <time>2019-02-20T07:52:41.000Z</time>
      </trkpt>
      <trkpt lat="45.30608" lon="4.63594">
        <ele>565.79998779297</ele>
        <time>2019-02-20T07:52:42.000Z</time>
      </trkpt>
      <trkpt lat="45.30609" lon="4.63593">
        <ele>566</ele>
        <time>2019-02-20T07:52:43.000Z</time>
      </trkpt>
      <trkpt lat="45.30611" lon="4.63592">
        <ele>566.20001220703</ele>
        <time>2019-02-20T07:52:44.000Z</time>
      </trkpt>
      <trkpt lat="45.30612" lon="4.63592">
        <ele>566.20001220703</ele>
        <time>2019-02-20T07:52:45.000Z</time>
      </trkpt>
      <trkpt lat="45.30613" lon="4.63591">
        <ele>566.40002441406</ele>
        <time>2019-02-20T07:52:46.000Z</time>
      </trkpt>
      <trkpt lat="45.30614" lon="4.6359">
        <ele>566.79998779297</ele>
        <time>2019-02-20T07:52:47.000Z</time>
      </trkpt>
      <trkpt lat="45.30616" lon="4.63589">
        <ele>566.79998779297</ele>
        <time>2019-02-20T07:52:48.000Z</time>
      </trkpt>
      <trkpt lat="45.30617" lon="4.63588">
        <ele>566.79998779297</ele>
        <time>2019-02-20T07:52:49.000Z</time>
      </trkpt>
      <trkpt lat="45.30619" lon="4.63587">
        <ele>567</ele>
        <time>2019-02-20T07:52:50.000Z</time>
      </trkpt>
      <trkpt lat="45.3062" lon="4.63586">
        <ele>567</ele>
        <time>2019-02-20T07:52:51.000Z</time>
      </trkpt>
      <trkpt lat="45.30621" lon="4.63585">
        <ele>567.20001220703</ele>
        <time>2019-02-20T07:52:52.000Z</time>
      </trkpt>
      <trkpt lat="45.30623" lon="4.63585">
        <ele>567.20001220703</ele>
        <time>2019-02-20T07:52:53.000Z</time>
      </trkpt>
      <trkpt lat="45.30624" lon="4.63584">
        <ele>567.20001220703</ele>
        <time>2019-02-20T07:52:54.000Z</time>
      </trkpt>
      <trkpt lat="45.30625" lon="4.63584">
        <ele>567.40002441406</ele>
        <time>2019-02-20T07:52:55.000Z</time>
      </trkpt>
      <trkpt lat="45.30627" lon="4.63583">
        <ele>567.79998779297</ele>
        <time>2019-02-20T07:52:56.000Z</time>
      </trkpt>
      <trkpt lat="45.30628" lon="4.63583">
        <ele>567.79998779297</ele>
        <time>2019-02-20T07:52:57.000Z</time>
      </trkpt>
      <trkpt lat="45.30629" lon="4.63582">
        <ele>568</ele>
        <time>2019-02-20T07:52:58.000Z</time>
      </trkpt>
      <trkpt lat="45.3063" lon="4.63581">
        <ele>568.20001220703</ele>
        <time>2019-02-20T07:52:59.000Z</time>
      </trkpt>
      <trkpt lat="45.30631" lon="4.63581">
        <ele>568.20001220703</ele>
        <time>2019-02-20T07:53:00.000Z</time>
      </trkpt>
      <trkpt lat="45.30632" lon="4.6358">
        <ele>568.20001220703</ele>
        <time>2019-02-20T07:53:01.000Z</time>
      </trkpt>
      <trkpt lat="45.30634" lon="4.6358">
        <ele>568.20001220703</ele>
        <time>2019-02-20T07:53:02.000Z</time>
      </trkpt>
      <trkpt lat="45.30635" lon="4.63579">
        <ele>568.20001220703</ele>
        <time>2019-02-20T07:53:03.000Z</time>
      </trkpt>
      <trkpt lat="45.30636" lon="4.63579">
        <ele>568.40002441406</ele>
        <time>2019-02-20T07:53:04.000Z</time>
      </trkpt>
      <trkpt lat="45.30637" lon="4.63578">
        <ele>568.59997558594</ele>
        <time>2019-02-20T07:53:05.000Z</time>
      </trkpt>
      <trkpt lat="45.30639" lon="4.63577">
        <ele>568.59997558594</ele>
        <time>2019-02-20T07:53:06.000Z</time>
      </trkpt>
      <trkpt lat="45.3064" lon="4.63577">
        <ele>568.59997558594</ele>
        <time>2019-02-20T07:53:07.000Z</time>
      </trkpt>
      <trkpt lat="45.30642" lon="4.63576">
        <ele>568.79998779297</ele>
        <time>2019-02-20T07:53:08.000Z</time>
      </trkpt>
      <trkpt lat="45.30643" lon="4.63575">
        <ele>568.79998779297</ele>
        <time>2019-02-20T07:53:09.000Z</time>
      </trkpt>
      <trkpt lat="45.30645" lon="4.63575">
        <ele>569</ele>
        <time>2019-02-20T07:53:10.000Z</time>
      </trkpt>
      <trkpt lat="45.30646" lon="4.63574">
        <ele>568.79998779297</ele>
        <time>2019-02-20T07:53:11.000Z</time>
      </trkpt>
      <trkpt lat="45.30648" lon="4.63573">
        <ele>569</ele>
        <time>2019-02-20T07:53:12.000Z</time>
      </trkpt>
      <trkpt lat="45.30649" lon="4.63572">
        <ele>569</ele>
        <time>2019-02-20T07:53:13.000Z</time>
      </trkpt>
      <trkpt lat="45.3065" lon="4.6357">
        <ele>569.20001220703</ele>
        <time>2019-02-20T07:53:14.000Z</time>
      </trkpt>
      <trkpt lat="45.30652" lon="4.6357">
        <ele>569.20001220703</ele>
        <time>2019-02-20T07:53:15.000Z</time>
      </trkpt>
      <trkpt lat="45.30653" lon="4.63569">
        <ele>569.20001220703</ele>
        <time>2019-02-20T07:53:16.000Z</time>
      </trkpt>
      <trkpt lat="45.30654" lon="4.63567">
        <ele>569.40002441406</ele>
        <time>2019-02-20T07:53:17.000Z</time>
      </trkpt>
      <trkpt lat="45.30655" lon="4.63566">
        <ele>569.40002441406</ele>
        <time>2019-02-20T07:53:18.000Z</time>
      </trkpt>
      <trkpt lat="45.30656" lon="4.63565">
        <ele>569.59997558594</ele>
        <time>2019-02-20T07:53:19.000Z</time>
      </trkpt>
      <trkpt lat="45.30657" lon="4.63564">
        <ele>569.59997558594</ele>
        <time>2019-02-20T07:53:20.000Z</time>
      </trkpt>
      <trkpt lat="45.30658" lon="4.63563">
        <ele>569.59997558594</ele>
        <time>2019-02-20T07:53:21.000Z</time>
      </trkpt>
      <trkpt lat="45.30659" lon="4.63562">
        <ele>569.79998779297</ele>
        <time>2019-02-20T07:53:22.000Z</time>
      </trkpt>
      <trkpt lat="45.3066" lon="4.6356">
        <ele>569.79998779297</ele>
        <time>2019-02-20T07:53:23.000Z</time>
      </trkpt>
      <trkpt lat="45.30661" lon="4.63559">
        <ele>570</ele>
        <time>2019-02-20T07:53:24.000Z</time>
      </trkpt>
      <trkpt lat="45.30662" lon="4.63558">
        <ele>570</ele>
        <time>2019-02-20T07:53:25.000Z</time>
      </trkpt>
      <trkpt lat="45.30663" lon="4.63557">
        <ele>570.20001220703</ele>
        <time>2019-02-20T07:53:26.000Z</time>
      </trkpt>
      <trkpt lat="45.30664" lon="4.63555">
        <ele>570.40002441406</ele>
        <time>2019-02-20T07:53:27.000Z</time>
      </trkpt>
      <trkpt lat="45.30665" lon="4.63554">
        <ele>570.59997558594</ele>
        <time>2019-02-20T07:53:28.000Z</time>
      </trkpt>
      <trkpt lat="45.30666" lon="4.63553">
        <ele>570.40002441406</ele>
        <time>2019-02-20T07:53:29.000Z</time>
      </trkpt>
      <trkpt lat="45.30667" lon="4.63551">
        <ele>570.59997558594</ele>
        <time>2019-02-20T07:53:30.000Z</time>
      </trkpt>
      <trkpt lat="45.30668" lon="4.6355">
        <ele>570.59997558594</ele>
        <time>2019-02-20T07:53:31.000Z</time>
      </trkpt>
      <trkpt lat="45.30668" lon="4.63549">
        <ele>570.79998779297</ele>
        <time>2019-02-20T07:53:32.000Z</time>
      </trkpt>
      <trkpt lat="45.30669" lon="4.63547">
        <ele>571</ele>
        <time>2019-02-20T07:53:33.000Z</time>
      </trkpt>
      <trkpt lat="45.3067" lon="4.63545">
        <ele>571</ele>
        <time>2019-02-20T07:53:34.000Z</time>
      </trkpt>
      <trkpt lat="45.3067" lon="4.63544">
        <ele>571.20001220703</ele>
        <time>2019-02-20T07:53:35.000Z</time>
      </trkpt>
      <trkpt lat="45.30671" lon="4.63542">
        <ele>571.40002441406</ele>
        <time>2019-02-20T07:53:36.000Z</time>
      </trkpt>
      <trkpt lat="45.30671" lon="4.6354">
        <ele>571.59997558594</ele>
        <time>2019-02-20T07:53:37.000Z</time>
      </trkpt>
      <trkpt lat="45.30672" lon="4.63538">
        <ele>571.79998779297</ele>
        <time>2019-02-20T07:53:38.000Z</time>
      </trkpt>
      <trkpt lat="45.30673" lon="4.63537">
        <ele>572</ele>
        <time>2019-02-20T07:53:39.000Z</time>
      </trkpt>
      <trkpt lat="45.30673" lon="4.63535">
        <ele>572.20001220703</ele>
        <time>2019-02-20T07:53:40.000Z</time>
      </trkpt>
      <trkpt lat="45.30673" lon="4.63533">
        <ele>572.59997558594</ele>
        <time>2019-02-20T07:53:41.000Z</time>
      </trkpt>
      <trkpt lat="45.30673" lon="4.63531">
        <ele>572.59997558594</ele>
        <time>2019-02-20T07:53:42.000Z</time>
      </trkpt>
      <trkpt lat="45.30673" lon="4.63529">
        <ele>573</ele>
        <time>2019-02-20T07:53:43.000Z</time>
      </trkpt>
      <trkpt lat="45.30673" lon="4.63527">
        <ele>573</ele>
        <time>2019-02-20T07:53:44.000Z</time>
      </trkpt>
      <trkpt lat="45.30673" lon="4.63525">
        <ele>573.20001220703</ele>
        <time>2019-02-20T07:53:45.000Z</time>
      </trkpt>
      <trkpt lat="45.30674" lon="4.63523">
        <ele>573.20001220703</ele>
        <time>2019-02-20T07:53:46.000Z</time>
      </trkpt>
      <trkpt lat="45.30674" lon="4.63521">
        <ele>573.59997558594</ele>
        <time>2019-02-20T07:53:47.000Z</time>
      </trkpt>
      <trkpt lat="45.30674" lon="4.6352">
        <ele>573.79998779297</ele>
        <time>2019-02-20T07:53:48.000Z</time>
      </trkpt>
      <trkpt lat="45.30674" lon="4.63518">
        <ele>574</ele>
        <time>2019-02-20T07:53:49.000Z</time>
      </trkpt>
      <trkpt lat="45.30674" lon="4.63516">
        <ele>574.20001220703</ele>
        <time>2019-02-20T07:53:50.000Z</time>
      </trkpt>
      <trkpt lat="45.30674" lon="4.63515">
        <ele>574.20001220703</ele>
        <time>2019-02-20T07:53:51.000Z</time>
      </trkpt>
      <trkpt lat="45.30675" lon="4.63513">
        <ele>574.40002441406</ele>
        <time>2019-02-20T07:53:52.000Z</time>
      </trkpt>
      <trkpt lat="45.30675" lon="4.63511">
        <ele>574.40002441406</ele>
        <time>2019-02-20T07:53:53.000Z</time>
      </trkpt>
      <trkpt lat="45.30675" lon="4.6351">
        <ele>574.59997558594</ele>
        <time>2019-02-20T07:53:54.000Z</time>
      </trkpt>
      <trkpt lat="45.30675" lon="4.63509">
        <ele>574.79998779297</ele>
        <time>2019-02-20T07:53:55.000Z</time>
      </trkpt>
      <trkpt lat="45.30675" lon="4.63507">
        <ele>574.79998779297</ele>
        <time>2019-02-20T07:53:56.000Z</time>
      </trkpt>
      <trkpt lat="45.30675" lon="4.63505">
        <ele>575</ele>
        <time>2019-02-20T07:53:57.000Z</time>
      </trkpt>
      <trkpt lat="45.30675" lon="4.63504">
        <ele>575.20001220703</ele>
        <time>2019-02-20T07:53:58.000Z</time>
      </trkpt>
      <trkpt lat="45.30674" lon="4.63502">
        <ele>575.40002441406</ele>
        <time>2019-02-20T07:53:59.000Z</time>
      </trkpt>
      <trkpt lat="45.30675" lon="4.63501">
        <ele>575.59997558594</ele>
        <time>2019-02-20T07:54:00.000Z</time>
      </trkpt>
      <trkpt lat="45.30674" lon="4.63499">
        <ele>575.79998779297</ele>
        <time>2019-02-20T07:54:01.000Z</time>
      </trkpt>
      <trkpt lat="45.30674" lon="4.63498">
        <ele>576</ele>
        <time>2019-02-20T07:54:02.000Z</time>
      </trkpt>
      <trkpt lat="45.30674" lon="4.63496">
        <ele>576.20001220703</ele>
        <time>2019-02-20T07:54:03.000Z</time>
      </trkpt>
      <trkpt lat="45.30674" lon="4.63495">
        <ele>576.40002441406</ele>
        <time>2019-02-20T07:54:04.000Z</time>
      </trkpt>
      <trkpt lat="45.30674" lon="4.63493">
        <ele>576.59997558594</ele>
        <time>2019-02-20T07:54:05.000Z</time>
      </trkpt>
      <trkpt lat="45.30674" lon="4.63492">
        <ele>576.59997558594</ele>
        <time>2019-02-20T07:54:06.000Z</time>
      </trkpt>
      <trkpt lat="45.30674" lon="4.6349">
        <ele>576.79998779297</ele>
        <time>2019-02-20T07:54:07.000Z</time>
      </trkpt>
      <trkpt lat="45.30673" lon="4.63489">
        <ele>577</ele>
        <time>2019-02-20T07:54:08.000Z</time>
      </trkpt>
      <trkpt lat="45.30673" lon="4.63488">
        <ele>577.40002441406</ele>
        <time>2019-02-20T07:54:09.000Z</time>
      </trkpt>
      <trkpt lat="45.30673" lon="4.63486">
        <ele>577.59997558594</ele>
        <time>2019-02-20T07:54:10.000Z</time>
      </trkpt>
      <trkpt lat="45.30672" lon="4.63485">
        <ele>577.79998779297</ele>
        <time>2019-02-20T07:54:11.000Z</time>
      </trkpt>
      <trkpt lat="45.30671" lon="4.63484">
        <ele>577.79998779297</ele>
        <time>2019-02-20T07:54:12.000Z</time>
      </trkpt>
      <trkpt lat="45.30671" lon="4.63482">
        <ele>578</ele>
        <time>2019-02-20T07:54:13.000Z</time>
      </trkpt>
      <trkpt lat="45.30671" lon="4.6348">
        <ele>578.20001220703</ele>
        <time>2019-02-20T07:54:14.000Z</time>
      </trkpt>
      <trkpt lat="45.30671" lon="4.63478">
        <ele>578.20001220703</ele>
        <time>2019-02-20T07:54:15.000Z</time>
      </trkpt>
      <trkpt lat="45.30671" lon="4.63476">
        <ele>578.40002441406</ele>
        <time>2019-02-20T07:54:16.000Z</time>
      </trkpt>
      <trkpt lat="45.30671" lon="4.63474">
        <ele>578.79998779297</ele>
        <time>2019-02-20T07:54:17.000Z</time>
      </trkpt>
      <trkpt lat="45.30671" lon="4.63472">
        <ele>579.20001220703</ele>
        <time>2019-02-20T07:54:18.000Z</time>
      </trkpt>
      <trkpt lat="45.30671" lon="4.6347">
        <ele>579.40002441406</ele>
        <time>2019-02-20T07:54:19.000Z</time>
      </trkpt>
      <trkpt lat="45.30671" lon="4.63468">
        <ele>579.59997558594</ele>
        <time>2019-02-20T07:54:20.000Z</time>
      </trkpt>
      <trkpt lat="45.30671" lon="4.63466">
        <ele>579.79998779297</ele>
        <time>2019-02-20T07:54:21.000Z</time>
      </trkpt>
      <trkpt lat="45.30671" lon="4.63464">
        <ele>580</ele>
        <time>2019-02-20T07:54:22.000Z</time>
      </trkpt>
      <trkpt lat="45.30671" lon="4.63462">
        <ele>580.20001220703</ele>
        <time>2019-02-20T07:54:23.000Z</time>
      </trkpt>
      <trkpt lat="45.30671" lon="4.6346">
        <ele>580.20001220703</ele>
        <time>2019-02-20T07:54:24.000Z</time>
      </trkpt>
      <trkpt lat="45.30672" lon="4.63458">
        <ele>580.59997558594</ele>
        <time>2019-02-20T07:54:25.000Z</time>
      </trkpt>
      <trkpt lat="45.30673" lon="4.63456">
        <ele>581</ele>
        <time>2019-02-20T07:54:26.000Z</time>
      </trkpt>
      <trkpt lat="45.30673" lon="4.63454">
        <ele>581.20001220703</ele>
        <time>2019-02-20T07:54:27.000Z</time>
      </trkpt>
      <trkpt lat="45.30674" lon="4.63452">
        <ele>581.40002441406</ele>
        <time>2019-02-20T07:54:28.000Z</time>
      </trkpt>
      <trkpt lat="45.30674" lon="4.63451">
        <ele>581.59997558594</ele>
        <time>2019-02-20T07:54:29.000Z</time>
      </trkpt>
      <trkpt lat="45.30675" lon="4.63449">
        <ele>582</ele>
        <time>2019-02-20T07:54:30.000Z</time>
      </trkpt>
      <trkpt lat="45.30675" lon="4.63447">
        <ele>582</ele>
        <time>2019-02-20T07:54:31.000Z</time>
      </trkpt>
      <trkpt lat="45.30676" lon="4.63445">
        <ele>582</ele>
        <time>2019-02-20T07:54:32.000Z</time>
      </trkpt>
      <trkpt lat="45.30676" lon="4.63443">
        <ele>582.20001220703</ele>
        <time>2019-02-20T07:54:33.000Z</time>
      </trkpt>
      <trkpt lat="45.30677" lon="4.63441">
        <ele>582.20001220703</ele>
        <time>2019-02-20T07:54:34.000Z</time>
      </trkpt>
      <trkpt lat="45.30678" lon="4.63439">
        <ele>582.20001220703</ele>
        <time>2019-02-20T07:54:35.000Z</time>
      </trkpt>
      <trkpt lat="45.30678" lon="4.63437">
        <ele>582.40002441406</ele>
        <time>2019-02-20T07:54:36.000Z</time>
      </trkpt>
      <trkpt lat="45.30679" lon="4.63436">
        <ele>582.59997558594</ele>
        <time>2019-02-20T07:54:37.000Z</time>
      </trkpt>
      <trkpt lat="45.30679" lon="4.63434">
        <ele>582.79998779297</ele>
        <time>2019-02-20T07:54:38.000Z</time>
      </trkpt>
      <trkpt lat="45.3068" lon="4.63432">
        <ele>583</ele>
        <time>2019-02-20T07:54:39.000Z</time>
      </trkpt>
      <trkpt lat="45.30681" lon="4.6343">
        <ele>583.20001220703</ele>
        <time>2019-02-20T07:54:40.000Z</time>
      </trkpt>
      <trkpt lat="45.30681" lon="4.63429">
        <ele>583.40002441406</ele>
        <time>2019-02-20T07:54:41.000Z</time>
      </trkpt>
      <trkpt lat="45.30682" lon="4.63427">
        <ele>583.59997558594</ele>
        <time>2019-02-20T07:54:42.000Z</time>
      </trkpt>
      <trkpt lat="45.30682" lon="4.63425">
        <ele>583.59997558594</ele>
        <time>2019-02-20T07:54:43.000Z</time>
      </trkpt>
      <trkpt lat="45.30683" lon="4.63423">
        <ele>583.79998779297</ele>
        <time>2019-02-20T07:54:44.000Z</time>
      </trkpt>
      <trkpt lat="45.30683" lon="4.63422">
        <ele>584.20001220703</ele>
        <time>2019-02-20T07:54:45.000Z</time>
      </trkpt>
      <trkpt lat="45.30684" lon="4.6342">
        <ele>584.20001220703</ele>
        <time>2019-02-20T07:54:46.000Z</time>
      </trkpt>
      <trkpt lat="45.30684" lon="4.63418">
        <ele>584.40002441406</ele>
        <time>2019-02-20T07:54:47.000Z</time>
      </trkpt>
      <trkpt lat="45.30685" lon="4.63416">
        <ele>584.40002441406</ele>
        <time>2019-02-20T07:54:48.000Z</time>
      </trkpt>
      <trkpt lat="45.30685" lon="4.63415">
        <ele>584.59997558594</ele>
        <time>2019-02-20T07:54:49.000Z</time>
      </trkpt>
      <trkpt lat="45.30686" lon="4.63414">
        <ele>584.79998779297</ele>
        <time>2019-02-20T07:54:50.000Z</time>
      </trkpt>
      <trkpt lat="45.30687" lon="4.63412">
        <ele>584.79998779297</ele>
        <time>2019-02-20T07:54:51.000Z</time>
      </trkpt>
      <trkpt lat="45.30687" lon="4.63411">
        <ele>585</ele>
        <time>2019-02-20T07:54:52.000Z</time>
      </trkpt>
      <trkpt lat="45.30688" lon="4.6341">
        <ele>585</ele>
        <time>2019-02-20T07:54:53.000Z</time>
      </trkpt>
      <trkpt lat="45.30688" lon="4.63408">
        <ele>585.20001220703</ele>
        <time>2019-02-20T07:54:54.000Z</time>
      </trkpt>
      <trkpt lat="45.30689" lon="4.63406">
        <ele>585.40002441406</ele>
        <time>2019-02-20T07:54:55.000Z</time>
      </trkpt>
      <trkpt lat="45.30689" lon="4.63405">
        <ele>585.79998779297</ele>
        <time>2019-02-20T07:54:56.000Z</time>
      </trkpt>
      <trkpt lat="45.3069" lon="4.63403">
        <ele>585.59997558594</ele>
        <time>2019-02-20T07:54:57.000Z</time>
      </trkpt>
      <trkpt lat="45.3069" lon="4.63402">
        <ele>586</ele>
        <time>2019-02-20T07:54:58.000Z</time>
      </trkpt>
      <trkpt lat="45.3069" lon="4.634">
        <ele>586.20001220703</ele>
        <time>2019-02-20T07:54:59.000Z</time>
      </trkpt>
      <trkpt lat="45.30691" lon="4.63398">
        <ele>586.20001220703</ele>
        <time>2019-02-20T07:55:00.000Z</time>
      </trkpt>
      <trkpt lat="45.30691" lon="4.63397">
        <ele>586.40002441406</ele>
        <time>2019-02-20T07:55:01.000Z</time>
      </trkpt>
      <trkpt lat="45.30692" lon="4.63395">
        <ele>586.20001220703</ele>
        <time>2019-02-20T07:55:02.000Z</time>
      </trkpt>
      <trkpt lat="45.30692" lon="4.63394">
        <ele>586.40002441406</ele>
        <time>2019-02-20T07:55:03.000Z</time>
      </trkpt>
      <trkpt lat="45.30692" lon="4.63392">
        <ele>586.40002441406</ele>
        <time>2019-02-20T07:55:04.000Z</time>
      </trkpt>
      <trkpt lat="45.30693" lon="4.63391">
        <ele>586.40002441406</ele>
        <time>2019-02-20T07:55:05.000Z</time>
      </trkpt>
      <trkpt lat="45.30693" lon="4.63389">
        <ele>586.59997558594</ele>
        <time>2019-02-20T07:55:06.000Z</time>
      </trkpt>
      <trkpt lat="45.30694" lon="4.63388">
        <ele>586.79998779297</ele>
        <time>2019-02-20T07:55:07.000Z</time>
      </trkpt>
      <trkpt lat="45.30695" lon="4.63386">
        <ele>587</ele>
        <time>2019-02-20T07:55:08.000Z</time>
      </trkpt>
      <trkpt lat="45.30695" lon="4.63385">
        <ele>587.20001220703</ele>
        <time>2019-02-20T07:55:09.000Z</time>
      </trkpt>
      <trkpt lat="45.30696" lon="4.63383">
        <ele>587.40002441406</ele>
        <time>2019-02-20T07:55:10.000Z</time>
      </trkpt>
      <trkpt lat="45.30697" lon="4.63382">
        <ele>587.79998779297</ele>
        <time>2019-02-20T07:55:11.000Z</time>
      </trkpt>
      <trkpt lat="45.30698" lon="4.6338">
        <ele>588</ele>
        <time>2019-02-20T07:55:12.000Z</time>
      </trkpt>
      <trkpt lat="45.30698" lon="4.63379">
        <ele>588</ele>
        <time>2019-02-20T07:55:13.000Z</time>
      </trkpt>
      <trkpt lat="45.30699" lon="4.63378">
        <ele>588.20001220703</ele>
        <time>2019-02-20T07:55:14.000Z</time>
      </trkpt>
      <trkpt lat="45.307" lon="4.63376">
        <ele>588.20001220703</ele>
        <time>2019-02-20T07:55:15.000Z</time>
      </trkpt>
      <trkpt lat="45.30701" lon="4.63375">
        <ele>588.40002441406</ele>
        <time>2019-02-20T07:55:16.000Z</time>
      </trkpt>
      <trkpt lat="45.30702" lon="4.63374">
        <ele>588.59997558594</ele>
        <time>2019-02-20T07:55:17.000Z</time>
      </trkpt>
      <trkpt lat="45.30703" lon="4.63372">
        <ele>588.79998779297</ele>
        <time>2019-02-20T07:55:18.000Z</time>
      </trkpt>
      <trkpt lat="45.30704" lon="4.63371">
        <ele>589</ele>
        <time>2019-02-20T07:55:19.000Z</time>
      </trkpt>
      <trkpt lat="45.30704" lon="4.6337">
        <ele>589</ele>
        <time>2019-02-20T07:55:20.000Z</time>
      </trkpt>
      <trkpt lat="45.30705" lon="4.63368">
        <ele>589.20001220703</ele>
        <time>2019-02-20T07:55:21.000Z</time>
      </trkpt>
      <trkpt lat="45.30706" lon="4.63367">
        <ele>589.40002441406</ele>
        <time>2019-02-20T07:55:22.000Z</time>
      </trkpt>
      <trkpt lat="45.30706" lon="4.63366">
        <ele>589.59997558594</ele>
        <time>2019-02-20T07:55:23.000Z</time>
      </trkpt>
      <trkpt lat="45.30707" lon="4.63365">
        <ele>589.59997558594</ele>
        <time>2019-02-20T07:55:24.000Z</time>
      </trkpt>
      <trkpt lat="45.30708" lon="4.63364">
        <ele>589.79998779297</ele>
        <time>2019-02-20T07:55:25.000Z</time>
      </trkpt>
      <trkpt lat="45.30709" lon="4.63362">
        <ele>589.79998779297</ele>
        <time>2019-02-20T07:55:26.000Z</time>
      </trkpt>
      <trkpt lat="45.3071" lon="4.63361">
        <ele>590.20001220703</ele>
        <time>2019-02-20T07:55:27.000Z</time>
      </trkpt>
      <trkpt lat="45.30711" lon="4.63359">
        <ele>590.20001220703</ele>
        <time>2019-02-20T07:55:28.000Z</time>
      </trkpt>
      <trkpt lat="45.30712" lon="4.63358">
        <ele>590.40002441406</ele>
        <time>2019-02-20T07:55:29.000Z</time>
      </trkpt>
      <trkpt lat="45.30713" lon="4.63356">
        <ele>590.59997558594</ele>
        <time>2019-02-20T07:55:30.000Z</time>
      </trkpt>
      <trkpt lat="45.30714" lon="4.63356">
        <ele>590.79998779297</ele>
        <time>2019-02-20T07:55:31.000Z</time>
      </trkpt>
      <trkpt lat="45.30715" lon="4.63355">
        <ele>591</ele>
        <time>2019-02-20T07:55:32.000Z</time>
      </trkpt>
      <trkpt lat="45.30716" lon="4.63354">
        <ele>591.20001220703</ele>
        <time>2019-02-20T07:55:33.000Z</time>
      </trkpt>
      <trkpt lat="45.30717" lon="4.63354">
        <ele>591.40002441406</ele>
        <time>2019-02-20T07:55:34.000Z</time>
      </trkpt>
      <trkpt lat="45.30718" lon="4.63353">
        <ele>591.59997558594</ele>
        <time>2019-02-20T07:55:35.000Z</time>
      </trkpt>
      <trkpt lat="45.30719" lon="4.63351">
        <ele>591.59997558594</ele>
        <time>2019-02-20T07:55:36.000Z</time>
      </trkpt>
      <trkpt lat="45.30721" lon="4.6335">
        <ele>591.79998779297</ele>
        <time>2019-02-20T07:55:37.000Z</time>
      </trkpt>
      <trkpt lat="45.30722" lon="4.63349">
        <ele>591.79998779297</ele>
        <time>2019-02-20T07:55:38.000Z</time>
      </trkpt>
      <trkpt lat="45.30724" lon="4.63347">
        <ele>592</ele>
        <time>2019-02-20T07:55:39.000Z</time>
      </trkpt>
      <trkpt lat="45.30726" lon="4.63346">
        <ele>591.79998779297</ele>
        <time>2019-02-20T07:55:40.000Z</time>
      </trkpt>
      <trkpt lat="45.30728" lon="4.63344">
        <ele>592</ele>
        <time>2019-02-20T07:55:41.000Z</time>
      </trkpt>
      <trkpt lat="45.3073" lon="4.63343">
        <ele>591.79998779297</ele>
        <time>2019-02-20T07:55:42.000Z</time>
      </trkpt>
      <trkpt lat="45.30732" lon="4.6334">
        <ele>591.79998779297</ele>
        <time>2019-02-20T07:55:43.000Z</time>
      </trkpt>
      <trkpt lat="45.30736" lon="4.63338">
        <ele>591.79998779297</ele>
        <time>2019-02-20T07:55:44.000Z</time>
      </trkpt>
      <trkpt lat="45.30739" lon="4.63335">
        <ele>592</ele>
        <time>2019-02-20T07:55:45.000Z</time>
      </trkpt>
      <trkpt lat="45.30743" lon="4.63331">
        <ele>592</ele>
        <time>2019-02-20T07:55:46.000Z</time>
      </trkpt>
      <trkpt lat="45.30746" lon="4.63328">
        <ele>592</ele>
        <time>2019-02-20T07:55:47.000Z</time>
      </trkpt>
      <trkpt lat="45.30749" lon="4.63324">
        <ele>592</ele>
        <time>2019-02-20T07:55:48.000Z</time>
      </trkpt>
      <trkpt lat="45.30753" lon="4.6332">
        <ele>591.79998779297</ele>
        <time>2019-02-20T07:55:49.000Z</time>
      </trkpt>
      <trkpt lat="45.30757" lon="4.63317">
        <ele>591.59997558594</ele>
        <time>2019-02-20T07:55:50.000Z</time>
      </trkpt>
      <trkpt lat="45.3076" lon="4.63313">
        <ele>591.20001220703</ele>
        <time>2019-02-20T07:55:51.000Z</time>
      </trkpt>
      <trkpt lat="45.30763" lon="4.63311">
        <ele>591.20001220703</ele>
        <time>2019-02-20T07:55:52.000Z</time>
      </trkpt>
      <trkpt lat="45.30766" lon="4.63308">
        <ele>591.20001220703</ele>
        <time>2019-02-20T07:55:53.000Z</time>
      </trkpt>
      <trkpt lat="45.30769" lon="4.63305">
        <ele>591</ele>
        <time>2019-02-20T07:55:54.000Z</time>
      </trkpt>
      <trkpt lat="45.30772" lon="4.63303">
        <ele>590.79998779297</ele>
        <time>2019-02-20T07:55:55.000Z</time>
      </trkpt>
      <trkpt lat="45.30775" lon="4.63301">
        <ele>591</ele>
        <time>2019-02-20T07:55:56.000Z</time>
      </trkpt>
      <trkpt lat="45.30777" lon="4.63298">
        <ele>591</ele>
        <time>2019-02-20T07:55:57.000Z</time>
      </trkpt>
      <trkpt lat="45.30779" lon="4.63296">
        <ele>591</ele>
        <time>2019-02-20T07:55:58.000Z</time>
      </trkpt>
      <trkpt lat="45.30781" lon="4.63293">
        <ele>591</ele>
        <time>2019-02-20T07:55:59.000Z</time>
      </trkpt>
      <trkpt lat="45.30783" lon="4.6329">
        <ele>591</ele>
        <time>2019-02-20T07:56:00.000Z</time>
      </trkpt>
      <trkpt lat="45.30786" lon="4.63288">
        <ele>591</ele>
        <time>2019-02-20T07:56:01.000Z</time>
      </trkpt>
      <trkpt lat="45.30789" lon="4.63284">
        <ele>591.20001220703</ele>
        <time>2019-02-20T07:56:02.000Z</time>
      </trkpt>
      <trkpt lat="45.30791" lon="4.63281">
        <ele>591.20001220703</ele>
        <time>2019-02-20T07:56:03.000Z</time>
      </trkpt>
      <trkpt lat="45.30793" lon="4.63279">
        <ele>591.20001220703</ele>
        <time>2019-02-20T07:56:04.000Z</time>
      </trkpt>
      <trkpt lat="45.30796" lon="4.63275">
        <ele>591.40002441406</ele>
        <time>2019-02-20T07:56:05.000Z</time>
      </trkpt>
      <trkpt lat="45.30799" lon="4.63272">
        <ele>591.59997558594</ele>
        <time>2019-02-20T07:56:06.000Z</time>
      </trkpt>
      <trkpt lat="45.30801" lon="4.63269">
        <ele>591.40002441406</ele>
        <time>2019-02-20T07:56:07.000Z</time>
      </trkpt>
      <trkpt lat="45.30804" lon="4.63266">
        <ele>591.40002441406</ele>
        <time>2019-02-20T07:56:08.000Z</time>
      </trkpt>
      <trkpt lat="45.30807" lon="4.63263">
        <ele>591.40002441406</ele>
        <time>2019-02-20T07:56:09.000Z</time>
      </trkpt>
      <trkpt lat="45.30809" lon="4.6326">
        <ele>591.59997558594</ele>
        <time>2019-02-20T07:56:10.000Z</time>
      </trkpt>
      <trkpt lat="45.30811" lon="4.63257">
        <ele>591.59997558594</ele>
        <time>2019-02-20T07:56:11.000Z</time>
      </trkpt>
      <trkpt lat="45.30814" lon="4.63254">
        <ele>591.59997558594</ele>
        <time>2019-02-20T07:56:12.000Z</time>
      </trkpt>
      <trkpt lat="45.30817" lon="4.6325">
        <ele>591.59997558594</ele>
        <time>2019-02-20T07:56:13.000Z</time>
      </trkpt>
      <trkpt lat="45.3082" lon="4.63247">
        <ele>591.59997558594</ele>
        <time>2019-02-20T07:56:14.000Z</time>
      </trkpt>
      <trkpt lat="45.30822" lon="4.63243">
        <ele>591.59997558594</ele>
        <time>2019-02-20T07:56:15.000Z</time>
      </trkpt>
      <trkpt lat="45.30825" lon="4.6324">
        <ele>591.59997558594</ele>
        <time>2019-02-20T07:56:16.000Z</time>
      </trkpt>
      <trkpt lat="45.30827" lon="4.63236">
        <ele>591.40002441406</ele>
        <time>2019-02-20T07:56:17.000Z</time>
      </trkpt>
      <trkpt lat="45.30829" lon="4.63232">
        <ele>591.40002441406</ele>
        <time>2019-02-20T07:56:18.000Z</time>
      </trkpt>
      <trkpt lat="45.30831" lon="4.63228">
        <ele>591.40002441406</ele>
        <time>2019-02-20T07:56:19.000Z</time>
      </trkpt>
      <trkpt lat="45.30833" lon="4.63223">
        <ele>591.40002441406</ele>
        <time>2019-02-20T07:56:20.000Z</time>
      </trkpt>
      <trkpt lat="45.30834" lon="4.63218">
        <ele>591.40002441406</ele>
        <time>2019-02-20T07:56:21.000Z</time>
      </trkpt>
      <trkpt lat="45.30835" lon="4.63213">
        <ele>591.40002441406</ele>
        <time>2019-02-20T07:56:22.000Z</time>
      </trkpt>
      <trkpt lat="45.30837" lon="4.63208">
        <ele>591.20001220703</ele>
        <time>2019-02-20T07:56:23.000Z</time>
      </trkpt>
      <trkpt lat="45.30838" lon="4.63202">
        <ele>591</ele>
        <time>2019-02-20T07:56:24.000Z</time>
      </trkpt>
      <trkpt lat="45.3084" lon="4.63198">
        <ele>591</ele>
        <time>2019-02-20T07:56:25.000Z</time>
      </trkpt>
      <trkpt lat="45.30842" lon="4.63193">
        <ele>590.79998779297</ele>
        <time>2019-02-20T07:56:26.000Z</time>
      </trkpt>
      <trkpt lat="45.30845" lon="4.6319">
        <ele>590.79998779297</ele>
        <time>2019-02-20T07:56:27.000Z</time>
      </trkpt>
      <trkpt lat="45.30848" lon="4.63187">
        <ele>590.59997558594</ele>
        <time>2019-02-20T07:56:28.000Z</time>
      </trkpt>
      <trkpt lat="45.3085" lon="4.63185">
        <ele>590.59997558594</ele>
        <time>2019-02-20T07:56:29.000Z</time>
      </trkpt>
      <trkpt lat="45.30851" lon="4.63182">
        <ele>590.40002441406</ele>
        <time>2019-02-20T07:56:30.000Z</time>
      </trkpt>
      <trkpt lat="45.30853" lon="4.6318">
        <ele>590.40002441406</ele>
        <time>2019-02-20T07:56:31.000Z</time>
      </trkpt>
      <trkpt lat="45.30854" lon="4.63178">
        <ele>590.20001220703</ele>
        <time>2019-02-20T07:56:32.000Z</time>
      </trkpt>
      <trkpt lat="45.30856" lon="4.63174">
        <ele>590.40002441406</ele>
        <time>2019-02-20T07:56:33.000Z</time>
      </trkpt>
      <trkpt lat="45.30857" lon="4.63172">
        <ele>590.20001220703</ele>
        <time>2019-02-20T07:56:34.000Z</time>
      </trkpt>
      <trkpt lat="45.30858" lon="4.6317">
        <ele>590.20001220703</ele>
        <time>2019-02-20T07:56:35.000Z</time>
      </trkpt>
      <trkpt lat="45.30859" lon="4.63167">
        <ele>590.20001220703</ele>
        <time>2019-02-20T07:56:36.000Z</time>
      </trkpt>
      <trkpt lat="45.3086" lon="4.63165">
        <ele>590.20001220703</ele>
        <time>2019-02-20T07:56:37.000Z</time>
      </trkpt>
      <trkpt lat="45.30862" lon="4.63164">
        <ele>590.20001220703</ele>
        <time>2019-02-20T07:56:38.000Z</time>
      </trkpt>
      <trkpt lat="45.30863" lon="4.63161">
        <ele>590.20001220703</ele>
        <time>2019-02-20T07:56:39.000Z</time>
      </trkpt>
      <trkpt lat="45.30864" lon="4.6316">
        <ele>590.20001220703</ele>
        <time>2019-02-20T07:56:40.000Z</time>
      </trkpt>
      <trkpt lat="45.30865" lon="4.63158">
        <ele>590.40002441406</ele>
        <time>2019-02-20T07:56:41.000Z</time>
      </trkpt>
      <trkpt lat="45.30867" lon="4.63156">
        <ele>590.59997558594</ele>
        <time>2019-02-20T07:56:42.000Z</time>
      </trkpt>
      <trkpt lat="45.30868" lon="4.63153">
        <ele>590.79998779297</ele>
        <time>2019-02-20T07:56:43.000Z</time>
      </trkpt>
      <trkpt lat="45.30869" lon="4.6315">
        <ele>590.79998779297</ele>
        <time>2019-02-20T07:56:44.000Z</time>
      </trkpt>
      <trkpt lat="45.3087" lon="4.63147">
        <ele>591.20001220703</ele>
        <time>2019-02-20T07:56:45.000Z</time>
      </trkpt>
      <trkpt lat="45.30871" lon="4.63145">
        <ele>591.59997558594</ele>
        <time>2019-02-20T07:56:46.000Z</time>
      </trkpt>
      <trkpt lat="45.30872" lon="4.63142">
        <ele>591.79998779297</ele>
        <time>2019-02-20T07:56:47.000Z</time>
      </trkpt>
      <trkpt lat="45.30874" lon="4.63139">
        <ele>591.79998779297</ele>
        <time>2019-02-20T07:56:48.000Z</time>
      </trkpt>
      <trkpt lat="45.30875" lon="4.63137">
        <ele>592.20001220703</ele>
        <time>2019-02-20T07:56:49.000Z</time>
      </trkpt>
      <trkpt lat="45.30876" lon="4.63134">
        <ele>592.59997558594</ele>
        <time>2019-02-20T07:56:50.000Z</time>
      </trkpt>
      <trkpt lat="45.30878" lon="4.63132">
        <ele>592.79998779297</ele>
        <time>2019-02-20T07:56:51.000Z</time>
      </trkpt>
      <trkpt lat="45.30879" lon="4.63129">
        <ele>593</ele>
        <time>2019-02-20T07:56:52.000Z</time>
      </trkpt>
      <trkpt lat="45.30881" lon="4.63126">
        <ele>593</ele>
        <time>2019-02-20T07:56:53.000Z</time>
      </trkpt>
      <trkpt lat="45.30882" lon="4.63124">
        <ele>593.40002441406</ele>
        <time>2019-02-20T07:56:54.000Z</time>
      </trkpt>
      <trkpt lat="45.30882" lon="4.63121">
        <ele>593.20001220703</ele>
        <time>2019-02-20T07:56:55.000Z</time>
      </trkpt>
      <trkpt lat="45.30883" lon="4.63118">
        <ele>593.40002441406</ele>
        <time>2019-02-20T07:56:56.000Z</time>
      </trkpt>
      <trkpt lat="45.30884" lon="4.63116">
        <ele>593.59997558594</ele>
        <time>2019-02-20T07:56:57.000Z</time>
      </trkpt>
      <trkpt lat="45.30885" lon="4.63113">
        <ele>593.79998779297</ele>
        <time>2019-02-20T07:56:58.000Z</time>
      </trkpt>
      <trkpt lat="45.30887" lon="4.6311">
        <ele>594</ele>
        <time>2019-02-20T07:56:59.000Z</time>
      </trkpt>
      <trkpt lat="45.30887" lon="4.63108">
        <ele>594.20001220703</ele>
        <time>2019-02-20T07:57:00.000Z</time>
      </trkpt>
      <trkpt lat="45.30888" lon="4.63105">
        <ele>594.59997558594</ele>
        <time>2019-02-20T07:57:01.000Z</time>
      </trkpt>
      <trkpt lat="45.30889" lon="4.63103">
        <ele>594.59997558594</ele>
        <time>2019-02-20T07:57:02.000Z</time>
      </trkpt>
      <trkpt lat="45.30891" lon="4.631">
        <ele>594.79998779297</ele>
        <time>2019-02-20T07:57:03.000Z</time>
      </trkpt>
      <trkpt lat="45.30892" lon="4.63097">
        <ele>594.79998779297</ele>
        <time>2019-02-20T07:57:04.000Z</time>
      </trkpt>
      <trkpt lat="45.30893" lon="4.63095">
        <ele>595.20001220703</ele>
        <time>2019-02-20T07:57:05.000Z</time>
      </trkpt>
      <trkpt lat="45.30894" lon="4.63092">
        <ele>595.59997558594</ele>
        <time>2019-02-20T07:57:06.000Z</time>
      </trkpt>
      <trkpt lat="45.30895" lon="4.63089">
        <ele>595.59997558594</ele>
        <time>2019-02-20T07:57:07.000Z</time>
      </trkpt>
      <trkpt lat="45.30896" lon="4.63086">
        <ele>595.79998779297</ele>
        <time>2019-02-20T07:57:08.000Z</time>
      </trkpt>
      <trkpt lat="45.30898" lon="4.63083">
        <ele>596</ele>
        <time>2019-02-20T07:57:09.000Z</time>
      </trkpt>
      <trkpt lat="45.30899" lon="4.6308">
        <ele>596.20001220703</ele>
        <time>2019-02-20T07:57:10.000Z</time>
      </trkpt>
      <trkpt lat="45.309" lon="4.63077">
        <ele>596.20001220703</ele>
        <time>2019-02-20T07:57:11.000Z</time>
      </trkpt>
      <trkpt lat="45.30902" lon="4.63074">
        <ele>596.40002441406</ele>
        <time>2019-02-20T07:57:12.000Z</time>
      </trkpt>
      <trkpt lat="45.30903" lon="4.63071">
        <ele>596.59997558594</ele>
        <time>2019-02-20T07:57:13.000Z</time>
      </trkpt>
      <trkpt lat="45.30904" lon="4.63068">
        <ele>596.59997558594</ele>
        <time>2019-02-20T07:57:14.000Z</time>
      </trkpt>
      <trkpt lat="45.30905" lon="4.63066">
        <ele>596.59997558594</ele>
        <time>2019-02-20T07:57:15.000Z</time>
      </trkpt>
      <trkpt lat="45.30906" lon="4.63064">
        <ele>596.59997558594</ele>
        <time>2019-02-20T07:57:16.000Z</time>
      </trkpt>
      <trkpt lat="45.30907" lon="4.63061">
        <ele>596.79998779297</ele>
        <time>2019-02-20T07:57:17.000Z</time>
      </trkpt>
      <trkpt lat="45.30908" lon="4.63058">
        <ele>597</ele>
        <time>2019-02-20T07:57:18.000Z</time>
      </trkpt>
      <trkpt lat="45.30909" lon="4.63056">
        <ele>597</ele>
        <time>2019-02-20T07:57:19.000Z</time>
      </trkpt>
      <trkpt lat="45.3091" lon="4.63053">
        <ele>597</ele>
        <time>2019-02-20T07:57:20.000Z</time>
      </trkpt>
      <trkpt lat="45.30911" lon="4.6305">
        <ele>597.20001220703</ele>
        <time>2019-02-20T07:57:21.000Z</time>
      </trkpt>
      <trkpt lat="45.30913" lon="4.63047">
        <ele>597.20001220703</ele>
        <time>2019-02-20T07:57:22.000Z</time>
      </trkpt>
      <trkpt lat="45.30914" lon="4.63044">
        <ele>597.20001220703</ele>
        <time>2019-02-20T07:57:23.000Z</time>
      </trkpt>
      <trkpt lat="45.30916" lon="4.63041">
        <ele>597.59997558594</ele>
        <time>2019-02-20T07:57:24.000Z</time>
      </trkpt>
      <trkpt lat="45.30918" lon="4.63038">
        <ele>597.59997558594</ele>
        <time>2019-02-20T07:57:25.000Z</time>
      </trkpt>
      <trkpt lat="45.3092" lon="4.63035">
        <ele>597.59997558594</ele>
        <time>2019-02-20T07:57:26.000Z</time>
      </trkpt>
      <trkpt lat="45.30922" lon="4.63031">
        <ele>597.79998779297</ele>
        <time>2019-02-20T07:57:27.000Z</time>
      </trkpt>
      <trkpt lat="45.30924" lon="4.63028">
        <ele>597.79998779297</ele>
        <time>2019-02-20T07:57:28.000Z</time>
      </trkpt>
      <trkpt lat="45.30925" lon="4.63025">
        <ele>597.59997558594</ele>
        <time>2019-02-20T07:57:29.000Z</time>
      </trkpt>
      <trkpt lat="45.30927" lon="4.63022">
        <ele>597.59997558594</ele>
        <time>2019-02-20T07:57:30.000Z</time>
      </trkpt>
      <trkpt lat="45.30928" lon="4.63019">
        <ele>597.79998779297</ele>
        <time>2019-02-20T07:57:31.000Z</time>
      </trkpt>
      <trkpt lat="45.30929" lon="4.63017">
        <ele>597.79998779297</ele>
        <time>2019-02-20T07:57:32.000Z</time>
      </trkpt>
      <trkpt lat="45.30931" lon="4.63014">
        <ele>597.79998779297</ele>
        <time>2019-02-20T07:57:33.000Z</time>
      </trkpt>
      <trkpt lat="45.30934" lon="4.63012">
        <ele>597.79998779297</ele>
        <time>2019-02-20T07:57:34.000Z</time>
      </trkpt>
      <trkpt lat="45.30936" lon="4.6301">
        <ele>597.79998779297</ele>
        <time>2019-02-20T07:57:35.000Z</time>
      </trkpt>
      <trkpt lat="45.30938" lon="4.63008">
        <ele>598</ele>
        <time>2019-02-20T07:57:36.000Z</time>
      </trkpt>
      <trkpt lat="45.30939" lon="4.63007">
        <ele>598</ele>
        <time>2019-02-20T07:57:37.000Z</time>
      </trkpt>
      <trkpt lat="45.30941" lon="4.63007">
        <ele>598</ele>
        <time>2019-02-20T07:57:38.000Z</time>
      </trkpt>
      <trkpt lat="45.30943" lon="4.63006">
        <ele>598</ele>
        <time>2019-02-20T07:57:39.000Z</time>
      </trkpt>
      <trkpt lat="45.30944" lon="4.63006">
        <ele>598.40002441406</ele>
        <time>2019-02-20T07:57:40.000Z</time>
      </trkpt>
      <trkpt lat="45.30946" lon="4.63006">
        <ele>598.59997558594</ele>
        <time>2019-02-20T07:57:41.000Z</time>
      </trkpt>
      <trkpt lat="45.30948" lon="4.63005">
        <ele>598.59997558594</ele>
        <time>2019-02-20T07:57:42.000Z</time>
      </trkpt>
      <trkpt lat="45.30949" lon="4.63005">
        <ele>598.79998779297</ele>
        <time>2019-02-20T07:57:43.000Z</time>
      </trkpt>
      <trkpt lat="45.30951" lon="4.63004">
        <ele>599</ele>
        <time>2019-02-20T07:57:44.000Z</time>
      </trkpt>
      <trkpt lat="45.30953" lon="4.63003">
        <ele>599</ele>
        <time>2019-02-20T07:57:45.000Z</time>
      </trkpt>
      <trkpt lat="45.30955" lon="4.63003">
        <ele>599.20001220703</ele>
        <time>2019-02-20T07:57:46.000Z</time>
      </trkpt>
      <trkpt lat="45.30957" lon="4.63002">
        <ele>599.20001220703</ele>
        <time>2019-02-20T07:57:47.000Z</time>
      </trkpt>
      <trkpt lat="45.30959" lon="4.63002">
        <ele>599.40002441406</ele>
        <time>2019-02-20T07:57:48.000Z</time>
      </trkpt>
      <trkpt lat="45.30961" lon="4.63002">
        <ele>599.59997558594</ele>
        <time>2019-02-20T07:57:49.000Z</time>
      </trkpt>
      <trkpt lat="45.30964" lon="4.63002">
        <ele>599.79998779297</ele>
        <time>2019-02-20T07:57:50.000Z</time>
      </trkpt>
      <trkpt lat="45.30966" lon="4.63003">
        <ele>599.79998779297</ele>
        <time>2019-02-20T07:57:51.000Z</time>
      </trkpt>
      <trkpt lat="45.30967" lon="4.63004">
        <ele>599.79998779297</ele>
        <time>2019-02-20T07:57:52.000Z</time>
      </trkpt>
      <trkpt lat="45.30969" lon="4.63005">
        <ele>600</ele>
        <time>2019-02-20T07:57:53.000Z</time>
      </trkpt>
      <trkpt lat="45.30971" lon="4.63006">
        <ele>600.20001220703</ele>
        <time>2019-02-20T07:57:54.000Z</time>
      </trkpt>
      <trkpt lat="45.30972" lon="4.63007">
        <ele>600.20001220703</ele>
        <time>2019-02-20T07:57:55.000Z</time>
      </trkpt>
      <trkpt lat="45.30974" lon="4.63008">
        <ele>600.20001220703</ele>
        <time>2019-02-20T07:57:56.000Z</time>
      </trkpt>
      <trkpt lat="45.30975" lon="4.6301">
        <ele>600.20001220703</ele>
        <time>2019-02-20T07:57:57.000Z</time>
      </trkpt>
      <trkpt lat="45.30977" lon="4.63011">
        <ele>600.20001220703</ele>
        <time>2019-02-20T07:57:58.000Z</time>
      </trkpt>
      <trkpt lat="45.30978" lon="4.63013">
        <ele>600.20001220703</ele>
        <time>2019-02-20T07:57:59.000Z</time>
      </trkpt>
      <trkpt lat="45.30979" lon="4.63015">
        <ele>600.20001220703</ele>
        <time>2019-02-20T07:58:00.000Z</time>
      </trkpt>
      <trkpt lat="45.3098" lon="4.63016">
        <ele>600.40002441406</ele>
        <time>2019-02-20T07:58:01.000Z</time>
      </trkpt>
      <trkpt lat="45.30981" lon="4.63018">
        <ele>600.40002441406</ele>
        <time>2019-02-20T07:58:02.000Z</time>
      </trkpt>
      <trkpt lat="45.30982" lon="4.6302">
        <ele>600.40002441406</ele>
        <time>2019-02-20T07:58:03.000Z</time>
      </trkpt>
      <trkpt lat="45.30983" lon="4.63021">
        <ele>600.40002441406</ele>
        <time>2019-02-20T07:58:04.000Z</time>
      </trkpt>
      <trkpt lat="45.30983" lon="4.63023">
        <ele>600.59997558594</ele>
        <time>2019-02-20T07:58:05.000Z</time>
      </trkpt>
      <trkpt lat="45.30984" lon="4.63025">
        <ele>600.79998779297</ele>
        <time>2019-02-20T07:58:06.000Z</time>
      </trkpt>
      <trkpt lat="45.30984" lon="4.63027">
        <ele>600.79998779297</ele>
        <time>2019-02-20T07:58:07.000Z</time>
      </trkpt>
      <trkpt lat="45.30985" lon="4.63029">
        <ele>601</ele>
        <time>2019-02-20T07:58:08.000Z</time>
      </trkpt>
      <trkpt lat="45.30987" lon="4.63031">
        <ele>601</ele>
        <time>2019-02-20T07:58:09.000Z</time>
      </trkpt>
      <trkpt lat="45.30988" lon="4.63033">
        <ele>601</ele>
        <time>2019-02-20T07:58:10.000Z</time>
      </trkpt>
      <trkpt lat="45.30989" lon="4.63036">
        <ele>601.20001220703</ele>
        <time>2019-02-20T07:58:11.000Z</time>
      </trkpt>
      <trkpt lat="45.3099" lon="4.63038">
        <ele>601.40002441406</ele>
        <time>2019-02-20T07:58:12.000Z</time>
      </trkpt>
      <trkpt lat="45.30991" lon="4.63041">
        <ele>601.40002441406</ele>
        <time>2019-02-20T07:58:13.000Z</time>
      </trkpt>
      <trkpt lat="45.30992" lon="4.63043">
        <ele>601.40002441406</ele>
        <time>2019-02-20T07:58:14.000Z</time>
      </trkpt>
      <trkpt lat="45.30994" lon="4.63045">
        <ele>601.59997558594</ele>
        <time>2019-02-20T07:58:15.000Z</time>
      </trkpt>
      <trkpt lat="45.30995" lon="4.63048">
        <ele>601.40002441406</ele>
        <time>2019-02-20T07:58:16.000Z</time>
      </trkpt>
      <trkpt lat="45.30997" lon="4.6305">
        <ele>601.40002441406</ele>
        <time>2019-02-20T07:58:17.000Z</time>
      </trkpt>
      <trkpt lat="45.30998" lon="4.63052">
        <ele>601.59997558594</ele>
        <time>2019-02-20T07:58:18.000Z</time>
      </trkpt>
      <trkpt lat="45.31" lon="4.63054">
        <ele>601.59997558594</ele>
        <time>2019-02-20T07:58:19.000Z</time>
      </trkpt>
      <trkpt lat="45.31001" lon="4.63057">
        <ele>601.59997558594</ele>
        <time>2019-02-20T07:58:20.000Z</time>
      </trkpt>
      <trkpt lat="45.31003" lon="4.63059">
        <ele>601.59997558594</ele>
        <time>2019-02-20T07:58:21.000Z</time>
      </trkpt>
      <trkpt lat="45.31007" lon="4.63063">
        <ele>601.59997558594</ele>
        <time>2019-02-20T07:58:22.000Z</time>
      </trkpt>
      <trkpt lat="45.3101" lon="4.63066">
        <ele>601.59997558594</ele>
        <time>2019-02-20T07:58:23.000Z</time>
      </trkpt>
      <trkpt lat="45.31014" lon="4.63069">
        <ele>601.40002441406</ele>
        <time>2019-02-20T07:58:24.000Z</time>
      </trkpt>
      <trkpt lat="45.31019" lon="4.63073">
        <ele>601.40002441406</ele>
        <time>2019-02-20T07:58:25.000Z</time>
      </trkpt>
      <trkpt lat="45.31025" lon="4.63076">
        <ele>601</ele>
        <time>2019-02-20T07:58:26.000Z</time>
      </trkpt>
      <trkpt lat="45.31031" lon="4.6308">
        <ele>600.79998779297</ele>
        <time>2019-02-20T07:58:27.000Z</time>
      </trkpt>
      <trkpt lat="45.31037" lon="4.63082">
        <ele>600.20001220703</ele>
        <time>2019-02-20T07:58:28.000Z</time>
      </trkpt>
      <trkpt lat="45.31044" lon="4.63084">
        <ele>599.79998779297</ele>
        <time>2019-02-20T07:58:29.000Z</time>
      </trkpt>
      <trkpt lat="45.31051" lon="4.63086">
        <ele>599</ele>
        <time>2019-02-20T07:58:30.000Z</time>
      </trkpt>
      <trkpt lat="45.31059" lon="4.63087">
        <ele>598.40002441406</ele>
        <time>2019-02-20T07:58:31.000Z</time>
      </trkpt>
      <trkpt lat="45.31066" lon="4.63088">
        <ele>598.20001220703</ele>
        <time>2019-02-20T07:58:32.000Z</time>
      </trkpt>
      <trkpt lat="45.31074" lon="4.6309">
        <ele>597.79998779297</ele>
        <time>2019-02-20T07:58:33.000Z</time>
      </trkpt>
      <trkpt lat="45.31083" lon="4.6309">
        <ele>597.40002441406</ele>
        <time>2019-02-20T07:58:34.000Z</time>
      </trkpt>
      <trkpt lat="45.3109" lon="4.63091">
        <ele>597</ele>
        <time>2019-02-20T07:58:35.000Z</time>
      </trkpt>
      <trkpt lat="45.31097" lon="4.63092">
        <ele>596.20001220703</ele>
        <time>2019-02-20T07:58:36.000Z</time>
      </trkpt>
      <trkpt lat="45.31104" lon="4.63092">
        <ele>595.59997558594</ele>
        <time>2019-02-20T07:58:37.000Z</time>
      </trkpt>
      <trkpt lat="45.31109" lon="4.63091">
        <ele>594.79998779297</ele>
        <time>2019-02-20T07:58:38.000Z</time>
      </trkpt>
      <trkpt lat="45.31114" lon="4.63089">
        <ele>594.40002441406</ele>
        <time>2019-02-20T07:58:39.000Z</time>
      </trkpt>
      <trkpt lat="45.31119" lon="4.63088">
        <ele>593.40002441406</ele>
        <time>2019-02-20T07:58:40.000Z</time>
      </trkpt>
      <trkpt lat="45.31123" lon="4.63086">
        <ele>592</ele>
        <time>2019-02-20T07:58:41.000Z</time>
      </trkpt>
      <trkpt lat="45.31127" lon="4.63085">
        <ele>591.40002441406</ele>
        <time>2019-02-20T07:58:42.000Z</time>
      </trkpt>
      <trkpt lat="45.3113" lon="4.63084">
        <ele>591</ele>
        <time>2019-02-20T07:58:43.000Z</time>
      </trkpt>
      <trkpt lat="45.31133" lon="4.63082">
        <ele>591</ele>
        <time>2019-02-20T07:58:44.000Z</time>
      </trkpt>
      <trkpt lat="45.31136" lon="4.63081">
        <ele>590.79998779297</ele>
        <time>2019-02-20T07:58:45.000Z</time>
      </trkpt>
      <trkpt lat="45.31139" lon="4.63079">
        <ele>590.59997558594</ele>
        <time>2019-02-20T07:58:46.000Z</time>
      </trkpt>
      <trkpt lat="45.31141" lon="4.63078">
        <ele>590.79998779297</ele>
        <time>2019-02-20T07:58:47.000Z</time>
      </trkpt>
      <trkpt lat="45.31143" lon="4.63077">
        <ele>590.79998779297</ele>
        <time>2019-02-20T07:58:48.000Z</time>
      </trkpt>
      <trkpt lat="45.31143" lon="4.63076">
        <ele>590.59997558594</ele>
        <time>2019-02-20T07:58:49.000Z</time>
      </trkpt>
      <trkpt lat="45.31144" lon="4.63076">
        <ele>590.79998779297</ele>
        <time>2019-02-20T07:58:50.000Z</time>
      </trkpt>
      <trkpt lat="45.3115" lon="4.63075">
        <ele>591.59997558594</ele>
        <time>2019-02-20T07:59:13.000Z</time>
      </trkpt>
      <trkpt lat="45.31151" lon="4.63074">
        <ele>591.59997558594</ele>
        <time>2019-02-20T07:59:14.000Z</time>
      </trkpt>
      <trkpt lat="45.31153" lon="4.63072">
        <ele>591.40002441406</ele>
        <time>2019-02-20T07:59:15.000Z</time>
      </trkpt>
      <trkpt lat="45.31155" lon="4.63071">
        <ele>591.59997558594</ele>
        <time>2019-02-20T07:59:16.000Z</time>
      </trkpt>
      <trkpt lat="45.31157" lon="4.63069">
        <ele>591.59997558594</ele>
        <time>2019-02-20T07:59:17.000Z</time>
      </trkpt>
      <trkpt lat="45.31159" lon="4.63067">
        <ele>591.59997558594</ele>
        <time>2019-02-20T07:59:18.000Z</time>
      </trkpt>
      <trkpt lat="45.31162" lon="4.63066">
        <ele>591.59997558594</ele>
        <time>2019-02-20T07:59:19.000Z</time>
      </trkpt>
      <trkpt lat="45.31164" lon="4.63064">
        <ele>591.59997558594</ele>
        <time>2019-02-20T07:59:20.000Z</time>
      </trkpt>
      <trkpt lat="45.31167" lon="4.63063">
        <ele>591.59997558594</ele>
        <time>2019-02-20T07:59:21.000Z</time>
      </trkpt>
      <trkpt lat="45.3117" lon="4.63061">
        <ele>591.59997558594</ele>
        <time>2019-02-20T07:59:22.000Z</time>
      </trkpt>
      <trkpt lat="45.31172" lon="4.63059">
        <ele>591.59997558594</ele>
        <time>2019-02-20T07:59:23.000Z</time>
      </trkpt>
      <trkpt lat="45.31175" lon="4.63058">
        <ele>591.59997558594</ele>
        <time>2019-02-20T07:59:24.000Z</time>
      </trkpt>
      <trkpt lat="45.31178" lon="4.63057">
        <ele>591.79998779297</ele>
        <time>2019-02-20T07:59:25.000Z</time>
      </trkpt>
      <trkpt lat="45.3118" lon="4.63055">
        <ele>591.79998779297</ele>
        <time>2019-02-20T07:59:26.000Z</time>
      </trkpt>
      <trkpt lat="45.31183" lon="4.63053">
        <ele>591.79998779297</ele>
        <time>2019-02-20T07:59:27.000Z</time>
      </trkpt>
      <trkpt lat="45.31186" lon="4.63051">
        <ele>591.59997558594</ele>
        <time>2019-02-20T07:59:28.000Z</time>
      </trkpt>
      <trkpt lat="45.31188" lon="4.63049">
        <ele>591.79998779297</ele>
        <time>2019-02-20T07:59:29.000Z</time>
      </trkpt>
      <trkpt lat="45.31191" lon="4.63046">
        <ele>591.79998779297</ele>
        <time>2019-02-20T07:59:30.000Z</time>
      </trkpt>
      <trkpt lat="45.31193" lon="4.63043">
        <ele>591.79998779297</ele>
        <time>2019-02-20T07:59:31.000Z</time>
      </trkpt>
      <trkpt lat="45.31196" lon="4.6304">
        <ele>591.79998779297</ele>
        <time>2019-02-20T07:59:32.000Z</time>
      </trkpt>
      <trkpt lat="45.31198" lon="4.63037">
        <ele>591.79998779297</ele>
        <time>2019-02-20T07:59:33.000Z</time>
      </trkpt>
      <trkpt lat="45.31201" lon="4.63033">
        <ele>592</ele>
        <time>2019-02-20T07:59:34.000Z</time>
      </trkpt>
      <trkpt lat="45.31204" lon="4.6303">
        <ele>591.79998779297</ele>
        <time>2019-02-20T07:59:35.000Z</time>
      </trkpt>
      <trkpt lat="45.31206" lon="4.63028">
        <ele>592</ele>
        <time>2019-02-20T07:59:36.000Z</time>
      </trkpt>
      <trkpt lat="45.31209" lon="4.63025">
        <ele>592</ele>
        <time>2019-02-20T07:59:37.000Z</time>
      </trkpt>
      <trkpt lat="45.31211" lon="4.63021">
        <ele>592</ele>
        <time>2019-02-20T07:59:38.000Z</time>
      </trkpt>
      <trkpt lat="45.31213" lon="4.63018">
        <ele>592</ele>
        <time>2019-02-20T07:59:39.000Z</time>
      </trkpt>
      <trkpt lat="45.31216" lon="4.63015">
        <ele>592.20001220703</ele>
        <time>2019-02-20T07:59:40.000Z</time>
      </trkpt>
      <trkpt lat="45.31218" lon="4.63011">
        <ele>592.20001220703</ele>
        <time>2019-02-20T07:59:41.000Z</time>
      </trkpt>
      <trkpt lat="45.31221" lon="4.63007">
        <ele>592.20001220703</ele>
        <time>2019-02-20T07:59:42.000Z</time>
      </trkpt>
      <trkpt lat="45.31224" lon="4.63004">
        <ele>592.20001220703</ele>
        <time>2019-02-20T07:59:43.000Z</time>
      </trkpt>
      <trkpt lat="45.31227" lon="4.63">
        <ele>592.20001220703</ele>
        <time>2019-02-20T07:59:44.000Z</time>
      </trkpt>
      <trkpt lat="45.3123" lon="4.62996">
        <ele>592.20001220703</ele>
        <time>2019-02-20T07:59:45.000Z</time>
      </trkpt>
      <trkpt lat="45.31232" lon="4.62993">
        <ele>592.20001220703</ele>
        <time>2019-02-20T07:59:46.000Z</time>
      </trkpt>
      <trkpt lat="45.31235" lon="4.6299">
        <ele>592.20001220703</ele>
        <time>2019-02-20T07:59:47.000Z</time>
      </trkpt>
      <trkpt lat="45.31237" lon="4.62988">
        <ele>592.20001220703</ele>
        <time>2019-02-20T07:59:48.000Z</time>
      </trkpt>
      <trkpt lat="45.31239" lon="4.62987">
        <ele>592.20001220703</ele>
        <time>2019-02-20T07:59:49.000Z</time>
      </trkpt>
      <trkpt lat="45.3124" lon="4.62986">
        <ele>592.20001220703</ele>
        <time>2019-02-20T07:59:50.000Z</time>
      </trkpt>
      <trkpt lat="45.31241" lon="4.62986">
        <ele>592</ele>
        <time>2019-02-20T07:59:51.000Z</time>
      </trkpt>
      <trkpt lat="45.31244" lon="4.62986">
        <ele>592</ele>
        <time>2019-02-20T07:59:52.000Z</time>
      </trkpt>
      <trkpt lat="45.31246" lon="4.62987">
        <ele>591.59997558594</ele>
        <time>2019-02-20T07:59:53.000Z</time>
      </trkpt>
      <trkpt lat="45.31247" lon="4.62989">
        <ele>591.59997558594</ele>
        <time>2019-02-20T07:59:54.000Z</time>
      </trkpt>
      <trkpt lat="45.31249" lon="4.62991">
        <ele>591.20001220703</ele>
        <time>2019-02-20T07:59:55.000Z</time>
      </trkpt>
      <trkpt lat="45.3125" lon="4.62995">
        <ele>591</ele>
        <time>2019-02-20T07:59:56.000Z</time>
      </trkpt>
      <trkpt lat="45.31251" lon="4.62999">
        <ele>591</ele>
        <time>2019-02-20T07:59:57.000Z</time>
      </trkpt>
      <trkpt lat="45.31252" lon="4.63002">
        <ele>590.59997558594</ele>
        <time>2019-02-20T07:59:58.000Z</time>
      </trkpt>
      <trkpt lat="45.31254" lon="4.63007">
        <ele>590.40002441406</ele>
        <time>2019-02-20T07:59:59.000Z</time>
      </trkpt>
      <trkpt lat="45.31256" lon="4.63012">
        <ele>590.20001220703</ele>
        <time>2019-02-20T08:00:00.000Z</time>
      </trkpt>
      <trkpt lat="45.31259" lon="4.63018">
        <ele>590.20001220703</ele>
        <time>2019-02-20T08:00:01.000Z</time>
      </trkpt>
      <trkpt lat="45.31261" lon="4.63022">
        <ele>590</ele>
        <time>2019-02-20T08:00:02.000Z</time>
      </trkpt>
      <trkpt lat="45.31264" lon="4.63027">
        <ele>589.79998779297</ele>
        <time>2019-02-20T08:00:03.000Z</time>
      </trkpt>
      <trkpt lat="45.31266" lon="4.63033">
        <ele>589.79998779297</ele>
        <time>2019-02-20T08:00:04.000Z</time>
      </trkpt>
      <trkpt lat="45.31267" lon="4.63039">
        <ele>589.79998779297</ele>
        <time>2019-02-20T08:00:05.000Z</time>
      </trkpt>
      <trkpt lat="45.31269" lon="4.63047">
        <ele>589.59997558594</ele>
        <time>2019-02-20T08:00:06.000Z</time>
      </trkpt>
      <trkpt lat="45.31271" lon="4.63054">
        <ele>589.20001220703</ele>
        <time>2019-02-20T08:00:07.000Z</time>
      </trkpt>
      <trkpt lat="45.31274" lon="4.63061">
        <ele>589.20001220703</ele>
        <time>2019-02-20T08:00:08.000Z</time>
      </trkpt>
      <trkpt lat="45.31276" lon="4.63068">
        <ele>588.79998779297</ele>
        <time>2019-02-20T08:00:09.000Z</time>
      </trkpt>
      <trkpt lat="45.31279" lon="4.63074">
        <ele>588.59997558594</ele>
        <time>2019-02-20T08:00:10.000Z</time>
      </trkpt>
      <trkpt lat="45.31282" lon="4.63079">
        <ele>588.20001220703</ele>
        <time>2019-02-20T08:00:11.000Z</time>
      </trkpt>
      <trkpt lat="45.31284" lon="4.63084">
        <ele>587.79998779297</ele>
        <time>2019-02-20T08:00:12.000Z</time>
      </trkpt>
      <trkpt lat="45.31287" lon="4.63087">
        <ele>587.40002441406</ele>
        <time>2019-02-20T08:00:13.000Z</time>
      </trkpt>
      <trkpt lat="45.31289" lon="4.6309">
        <ele>587.40002441406</ele>
        <time>2019-02-20T08:00:14.000Z</time>
      </trkpt>
      <trkpt lat="45.31292" lon="4.63092">
        <ele>587.40002441406</ele>
        <time>2019-02-20T08:00:15.000Z</time>
      </trkpt>
      <trkpt lat="45.31295" lon="4.63093">
        <ele>587.40002441406</ele>
        <time>2019-02-20T08:00:16.000Z</time>
      </trkpt>
      <trkpt lat="45.31298" lon="4.63094">
        <ele>587.40002441406</ele>
        <time>2019-02-20T08:00:17.000Z</time>
      </trkpt>
      <trkpt lat="45.31301" lon="4.63095">
        <ele>587.20001220703</ele>
        <time>2019-02-20T08:00:18.000Z</time>
      </trkpt>
      <trkpt lat="45.31304" lon="4.63095">
        <ele>587.20001220703</ele>
        <time>2019-02-20T08:00:19.000Z</time>
      </trkpt>
      <trkpt lat="45.31307" lon="4.63095">
        <ele>587.20001220703</ele>
        <time>2019-02-20T08:00:20.000Z</time>
      </trkpt>
      <trkpt lat="45.31309" lon="4.63095">
        <ele>587.20001220703</ele>
        <time>2019-02-20T08:00:21.000Z</time>
      </trkpt>
      <trkpt lat="45.31312" lon="4.63095">
        <ele>587.20001220703</ele>
        <time>2019-02-20T08:00:22.000Z</time>
      </trkpt>
      <trkpt lat="45.31315" lon="4.63095">
        <ele>587.40002441406</ele>
        <time>2019-02-20T08:00:23.000Z</time>
      </trkpt>
      <trkpt lat="45.31317" lon="4.63095">
        <ele>587.20001220703</ele>
        <time>2019-02-20T08:00:24.000Z</time>
      </trkpt>
      <trkpt lat="45.3132" lon="4.63095">
        <ele>587.40002441406</ele>
        <time>2019-02-20T08:00:25.000Z</time>
      </trkpt>
      <trkpt lat="45.31322" lon="4.63095">
        <ele>587.40002441406</ele>
        <time>2019-02-20T08:00:26.000Z</time>
      </trkpt>
      <trkpt lat="45.31325" lon="4.63094">
        <ele>587.59997558594</ele>
        <time>2019-02-20T08:00:27.000Z</time>
      </trkpt>
      <trkpt lat="45.31327" lon="4.63094">
        <ele>587.79998779297</ele>
        <time>2019-02-20T08:00:28.000Z</time>
      </trkpt>
      <trkpt lat="45.31329" lon="4.63094">
        <ele>587.79998779297</ele>
        <time>2019-02-20T08:00:29.000Z</time>
      </trkpt>
      <trkpt lat="45.31332" lon="4.63094">
        <ele>588</ele>
        <time>2019-02-20T08:00:30.000Z</time>
      </trkpt>
      <trkpt lat="45.31334" lon="4.63093">
        <ele>587.79998779297</ele>
        <time>2019-02-20T08:00:31.000Z</time>
      </trkpt>
      <trkpt lat="45.31337" lon="4.63093">
        <ele>588.20001220703</ele>
        <time>2019-02-20T08:00:32.000Z</time>
      </trkpt>
      <trkpt lat="45.31339" lon="4.63092">
        <ele>588</ele>
        <time>2019-02-20T08:00:33.000Z</time>
      </trkpt>
      <trkpt lat="45.31342" lon="4.63092">
        <ele>588.20001220703</ele>
        <time>2019-02-20T08:00:34.000Z</time>
      </trkpt>
      <trkpt lat="45.31345" lon="4.63091">
        <ele>588.40002441406</ele>
        <time>2019-02-20T08:00:35.000Z</time>
      </trkpt>
      <trkpt lat="45.31347" lon="4.63091">
        <ele>588.40002441406</ele>
        <time>2019-02-20T08:00:36.000Z</time>
      </trkpt>
      <trkpt lat="45.3135" lon="4.6309">
        <ele>588.40002441406</ele>
        <time>2019-02-20T08:00:37.000Z</time>
      </trkpt>
      <trkpt lat="45.31352" lon="4.63089">
        <ele>588.59997558594</ele>
        <time>2019-02-20T08:00:38.000Z</time>
      </trkpt>
      <trkpt lat="45.31355" lon="4.63089">
        <ele>588.59997558594</ele>
        <time>2019-02-20T08:00:39.000Z</time>
      </trkpt>
      <trkpt lat="45.31357" lon="4.63088">
        <ele>588.40002441406</ele>
        <time>2019-02-20T08:00:40.000Z</time>
      </trkpt>
      <trkpt lat="45.31359" lon="4.63087">
        <ele>588.59997558594</ele>
        <time>2019-02-20T08:00:41.000Z</time>
      </trkpt>
      <trkpt lat="45.31362" lon="4.63086">
        <ele>588.79998779297</ele>
        <time>2019-02-20T08:00:42.000Z</time>
      </trkpt>
      <trkpt lat="45.31364" lon="4.63085">
        <ele>588.59997558594</ele>
        <time>2019-02-20T08:00:43.000Z</time>
      </trkpt>
      <trkpt lat="45.31367" lon="4.63084">
        <ele>588.79998779297</ele>
        <time>2019-02-20T08:00:44.000Z</time>
      </trkpt>
      <trkpt lat="45.31369" lon="4.63083">
        <ele>588.59997558594</ele>
        <time>2019-02-20T08:00:45.000Z</time>
      </trkpt>
      <trkpt lat="45.31372" lon="4.63081">
        <ele>588.59997558594</ele>
        <time>2019-02-20T08:00:46.000Z</time>
      </trkpt>
      <trkpt lat="45.31374" lon="4.6308">
        <ele>588.79998779297</ele>
        <time>2019-02-20T08:00:47.000Z</time>
      </trkpt>
      <trkpt lat="45.31376" lon="4.63079">
        <ele>589</ele>
        <time>2019-02-20T08:00:48.000Z</time>
      </trkpt>
      <trkpt lat="45.31378" lon="4.63078">
        <ele>589</ele>
        <time>2019-02-20T08:00:49.000Z</time>
      </trkpt>
      <trkpt lat="45.3138" lon="4.63076">
        <ele>589</ele>
        <time>2019-02-20T08:00:50.000Z</time>
      </trkpt>
      <trkpt lat="45.31382" lon="4.63076">
        <ele>589.20001220703</ele>
        <time>2019-02-20T08:00:51.000Z</time>
      </trkpt>
      <trkpt lat="45.31384" lon="4.63075">
        <ele>589.20001220703</ele>
        <time>2019-02-20T08:00:52.000Z</time>
      </trkpt>
      <trkpt lat="45.31386" lon="4.63074">
        <ele>589.40002441406</ele>
        <time>2019-02-20T08:00:53.000Z</time>
      </trkpt>
      <trkpt lat="45.31388" lon="4.63073">
        <ele>589.40002441406</ele>
        <time>2019-02-20T08:00:54.000Z</time>
      </trkpt>
      <trkpt lat="45.3139" lon="4.63072">
        <ele>589.20001220703</ele>
        <time>2019-02-20T08:00:55.000Z</time>
      </trkpt>
      <trkpt lat="45.31392" lon="4.63071">
        <ele>589.20001220703</ele>
        <time>2019-02-20T08:00:56.000Z</time>
      </trkpt>
      <trkpt lat="45.31394" lon="4.63071">
        <ele>589.40002441406</ele>
        <time>2019-02-20T08:00:57.000Z</time>
      </trkpt>
      <trkpt lat="45.31396" lon="4.6307">
        <ele>589.40002441406</ele>
        <time>2019-02-20T08:00:58.000Z</time>
      </trkpt>
      <trkpt lat="45.31398" lon="4.6307">
        <ele>589.59997558594</ele>
        <time>2019-02-20T08:00:59.000Z</time>
      </trkpt>
      <trkpt lat="45.314" lon="4.6307">
        <ele>589.40002441406</ele>
        <time>2019-02-20T08:01:00.000Z</time>
      </trkpt>
      <trkpt lat="45.31402" lon="4.6307">
        <ele>589.59997558594</ele>
        <time>2019-02-20T08:01:01.000Z</time>
      </trkpt>
      <trkpt lat="45.31404" lon="4.6307">
        <ele>589.40002441406</ele>
        <time>2019-02-20T08:01:02.000Z</time>
      </trkpt>
      <trkpt lat="45.31406" lon="4.6307">
        <ele>589.40002441406</ele>
        <time>2019-02-20T08:01:03.000Z</time>
      </trkpt>
      <trkpt lat="45.31408" lon="4.63071">
        <ele>589.40002441406</ele>
        <time>2019-02-20T08:01:04.000Z</time>
      </trkpt>
      <trkpt lat="45.31411" lon="4.63071">
        <ele>589.59997558594</ele>
        <time>2019-02-20T08:01:05.000Z</time>
      </trkpt>
      <trkpt lat="45.31413" lon="4.63072">
        <ele>589.59997558594</ele>
        <time>2019-02-20T08:01:06.000Z</time>
      </trkpt>
      <trkpt lat="45.31415" lon="4.63073">
        <ele>589.40002441406</ele>
        <time>2019-02-20T08:01:07.000Z</time>
      </trkpt>
      <trkpt lat="45.31418" lon="4.63073">
        <ele>589.59997558594</ele>
        <time>2019-02-20T08:01:08.000Z</time>
      </trkpt>
      <trkpt lat="45.3142" lon="4.63074">
        <ele>589.40002441406</ele>
        <time>2019-02-20T08:01:09.000Z</time>
      </trkpt>
      <trkpt lat="45.31422" lon="4.63075">
        <ele>589.40002441406</ele>
        <time>2019-02-20T08:01:10.000Z</time>
      </trkpt>
      <trkpt lat="45.31424" lon="4.63075">
        <ele>589.40002441406</ele>
        <time>2019-02-20T08:01:11.000Z</time>
      </trkpt>
      <trkpt lat="45.31426" lon="4.63075">
        <ele>589.40002441406</ele>
        <time>2019-02-20T08:01:12.000Z</time>
      </trkpt>
      <trkpt lat="45.31429" lon="4.63075">
        <ele>589.40002441406</ele>
        <time>2019-02-20T08:01:13.000Z</time>
      </trkpt>
      <trkpt lat="45.31431" lon="4.63075">
        <ele>589.40002441406</ele>
        <time>2019-02-20T08:01:14.000Z</time>
      </trkpt>
      <trkpt lat="45.31433" lon="4.63075">
        <ele>589.20001220703</ele>
        <time>2019-02-20T08:01:15.000Z</time>
      </trkpt>
      <trkpt lat="45.31436" lon="4.63075">
        <ele>589.40002441406</ele>
        <time>2019-02-20T08:01:16.000Z</time>
      </trkpt>
      <trkpt lat="45.31438" lon="4.63074">
        <ele>589.20001220703</ele>
        <time>2019-02-20T08:01:17.000Z</time>
      </trkpt>
      <trkpt lat="45.3144" lon="4.63074">
        <ele>589.40002441406</ele>
        <time>2019-02-20T08:01:18.000Z</time>
      </trkpt>
      <trkpt lat="45.31442" lon="4.63073">
        <ele>589.20001220703</ele>
        <time>2019-02-20T08:01:19.000Z</time>
      </trkpt>
      <trkpt lat="45.31444" lon="4.63072">
        <ele>589.20001220703</ele>
        <time>2019-02-20T08:01:20.000Z</time>
      </trkpt>
      <trkpt lat="45.31446" lon="4.63071">
        <ele>589.20001220703</ele>
        <time>2019-02-20T08:01:21.000Z</time>
      </trkpt>
      <trkpt lat="45.31448" lon="4.6307">
        <ele>589.40002441406</ele>
        <time>2019-02-20T08:01:22.000Z</time>
      </trkpt>
      <trkpt lat="45.3145" lon="4.63069">
        <ele>589.40002441406</ele>
        <time>2019-02-20T08:01:23.000Z</time>
      </trkpt>
      <trkpt lat="45.31451" lon="4.63068">
        <ele>589.20001220703</ele>
        <time>2019-02-20T08:01:24.000Z</time>
      </trkpt>
      <trkpt lat="45.31453" lon="4.63067">
        <ele>589.59997558594</ele>
        <time>2019-02-20T08:01:25.000Z</time>
      </trkpt>
      <trkpt lat="45.31455" lon="4.63067">
        <ele>589.40002441406</ele>
        <time>2019-02-20T08:01:26.000Z</time>
      </trkpt>
      <trkpt lat="45.31457" lon="4.63066">
        <ele>589.59997558594</ele>
        <time>2019-02-20T08:01:27.000Z</time>
      </trkpt>
      <trkpt lat="45.31459" lon="4.63066">
        <ele>589.40002441406</ele>
        <time>2019-02-20T08:01:28.000Z</time>
      </trkpt>
      <trkpt lat="45.31461" lon="4.63065">
        <ele>589.40002441406</ele>
        <time>2019-02-20T08:01:29.000Z</time>
      </trkpt>
      <trkpt lat="45.31463" lon="4.63065">
        <ele>589.59997558594</ele>
        <time>2019-02-20T08:01:30.000Z</time>
      </trkpt>
      <trkpt lat="45.31465" lon="4.63065">
        <ele>589.79998779297</ele>
        <time>2019-02-20T08:01:31.000Z</time>
      </trkpt>
      <trkpt lat="45.31466" lon="4.63065">
        <ele>589.79998779297</ele>
        <time>2019-02-20T08:01:32.000Z</time>
      </trkpt>
      <trkpt lat="45.31468" lon="4.63065">
        <ele>590</ele>
        <time>2019-02-20T08:01:33.000Z</time>
      </trkpt>
      <trkpt lat="45.3147" lon="4.63065">
        <ele>590</ele>
        <time>2019-02-20T08:01:34.000Z</time>
      </trkpt>
      <trkpt lat="45.31471" lon="4.63066">
        <ele>590.20001220703</ele>
        <time>2019-02-20T08:01:35.000Z</time>
      </trkpt>
      <trkpt lat="45.31472" lon="4.63066">
        <ele>590.20001220703</ele>
        <time>2019-02-20T08:01:36.000Z</time>
      </trkpt>
      <trkpt lat="45.31473" lon="4.63067">
        <ele>590.20001220703</ele>
        <time>2019-02-20T08:01:37.000Z</time>
      </trkpt>
      <trkpt lat="45.31475" lon="4.63067">
        <ele>590.40002441406</ele>
        <time>2019-02-20T08:01:38.000Z</time>
      </trkpt>
      <trkpt lat="45.31477" lon="4.63068">
        <ele>590.40002441406</ele>
        <time>2019-02-20T08:01:39.000Z</time>
      </trkpt>
      <trkpt lat="45.31479" lon="4.63069">
        <ele>590.40002441406</ele>
        <time>2019-02-20T08:01:40.000Z</time>
      </trkpt>
      <trkpt lat="45.31481" lon="4.63069">
        <ele>590.40002441406</ele>
        <time>2019-02-20T08:01:41.000Z</time>
      </trkpt>
      <trkpt lat="45.31483" lon="4.6307">
        <ele>590.20001220703</ele>
        <time>2019-02-20T08:01:42.000Z</time>
      </trkpt>
      <trkpt lat="45.31484" lon="4.6307">
        <ele>590.40002441406</ele>
        <time>2019-02-20T08:01:43.000Z</time>
      </trkpt>
      <trkpt lat="45.31485" lon="4.63071">
        <ele>590.40002441406</ele>
        <time>2019-02-20T08:01:44.000Z</time>
      </trkpt>
      <trkpt lat="45.31486" lon="4.63071">
        <ele>590.40002441406</ele>
        <time>2019-02-20T08:01:45.000Z</time>
      </trkpt>
      <trkpt lat="45.31487" lon="4.63071">
        <ele>590.20001220703</ele>
        <time>2019-02-20T08:01:46.000Z</time>
      </trkpt>
      <trkpt lat="45.31488" lon="4.63072">
        <ele>590.40002441406</ele>
        <time>2019-02-20T08:01:47.000Z</time>
      </trkpt>
      <trkpt lat="45.31488" lon="4.63072">
        <ele>590.20001220703</ele>
        <time>2019-02-20T08:01:48.000Z</time>
      </trkpt>
      <trkpt lat="45.3149" lon="4.63072">
        <ele>590</ele>
        <time>2019-02-20T08:01:49.000Z</time>
      </trkpt>
      <trkpt lat="45.31491" lon="4.63071">
        <ele>589.79998779297</ele>
        <time>2019-02-20T08:01:50.000Z</time>
      </trkpt>
      <trkpt lat="45.31492" lon="4.63071">
        <ele>589.79998779297</ele>
        <time>2019-02-20T08:01:51.000Z</time>
      </trkpt>
      <trkpt lat="45.31493" lon="4.6307">
        <ele>589.79998779297</ele>
        <time>2019-02-20T08:01:52.000Z</time>
      </trkpt>
      <trkpt lat="45.31493" lon="4.63068">
        <ele>589.79998779297</ele>
        <time>2019-02-20T08:01:53.000Z</time>
      </trkpt>
      <trkpt lat="45.31492" lon="4.63066">
        <ele>589.59997558594</ele>
        <time>2019-02-20T08:01:54.000Z</time>
      </trkpt>
      <trkpt lat="45.31492" lon="4.63064">
        <ele>589.59997558594</ele>
        <time>2019-02-20T08:01:55.000Z</time>
      </trkpt>
      <trkpt lat="45.31491" lon="4.63062">
        <ele>589.79998779297</ele>
        <time>2019-02-20T08:01:56.000Z</time>
      </trkpt>
      <trkpt lat="45.31491" lon="4.63061">
        <ele>589.79998779297</ele>
        <time>2019-02-20T08:01:57.000Z</time>
      </trkpt>
      <trkpt lat="45.31491" lon="4.63059">
        <ele>589.59997558594</ele>
        <time>2019-02-20T08:01:58.000Z</time>
      </trkpt>
      <trkpt lat="45.3149" lon="4.63058">
        <ele>589.59997558594</ele>
        <time>2019-02-20T08:01:59.000Z</time>
      </trkpt>
      <trkpt lat="45.31489" lon="4.63056">
        <ele>589.59997558594</ele>
        <time>2019-02-20T08:02:00.000Z</time>
      </trkpt>
      <trkpt lat="45.31489" lon="4.63054">
        <ele>589.79998779297</ele>
        <time>2019-02-20T08:02:01.000Z</time>
      </trkpt>
      <trkpt lat="45.31488" lon="4.63052">
        <ele>589.79998779297</ele>
        <time>2019-02-20T08:02:02.000Z</time>
      </trkpt>
      <trkpt lat="45.31487" lon="4.63051">
        <ele>589.79998779297</ele>
        <time>2019-02-20T08:02:03.000Z</time>
      </trkpt>
      <trkpt lat="45.31487" lon="4.6305">
        <ele>590</ele>
        <time>2019-02-20T08:02:04.000Z</time>
      </trkpt>
      <trkpt lat="45.31486" lon="4.63048">
        <ele>590.20001220703</ele>
        <time>2019-02-20T08:02:05.000Z</time>
      </trkpt>
      <trkpt lat="45.31485" lon="4.63046">
        <ele>590.40002441406</ele>
        <time>2019-02-20T08:02:06.000Z</time>
      </trkpt>
      <trkpt lat="45.31484" lon="4.63045">
        <ele>590.59997558594</ele>
        <time>2019-02-20T08:02:07.000Z</time>
      </trkpt>
      <trkpt lat="45.31483" lon="4.63043">
        <ele>590.79998779297</ele>
        <time>2019-02-20T08:02:08.000Z</time>
      </trkpt>
      <trkpt lat="45.31482" lon="4.63042">
        <ele>591</ele>
        <time>2019-02-20T08:02:09.000Z</time>
      </trkpt>
      <trkpt lat="45.31482" lon="4.6304">
        <ele>591.40002441406</ele>
        <time>2019-02-20T08:02:10.000Z</time>
      </trkpt>
      <trkpt lat="45.31481" lon="4.63038">
        <ele>591.40002441406</ele>
        <time>2019-02-20T08:02:11.000Z</time>
      </trkpt>
      <trkpt lat="45.3148" lon="4.63037">
        <ele>591.59997558594</ele>
        <time>2019-02-20T08:02:12.000Z</time>
      </trkpt>
      <trkpt lat="45.3148" lon="4.63036">
        <ele>591.59997558594</ele>
        <time>2019-02-20T08:02:13.000Z</time>
      </trkpt>
      <trkpt lat="45.31479" lon="4.63034">
        <ele>592</ele>
        <time>2019-02-20T08:02:14.000Z</time>
      </trkpt>
      <trkpt lat="45.31478" lon="4.63033">
        <ele>592.40002441406</ele>
        <time>2019-02-20T08:02:15.000Z</time>
      </trkpt>
      <trkpt lat="45.31478" lon="4.63031">
        <ele>592.59997558594</ele>
        <time>2019-02-20T08:02:16.000Z</time>
      </trkpt>
      <trkpt lat="45.31477" lon="4.63029">
        <ele>592.79998779297</ele>
        <time>2019-02-20T08:02:17.000Z</time>
      </trkpt>
      <trkpt lat="45.31477" lon="4.63028">
        <ele>593.40002441406</ele>
        <time>2019-02-20T08:02:18.000Z</time>
      </trkpt>
      <trkpt lat="45.31476" lon="4.63026">
        <ele>593.59997558594</ele>
        <time>2019-02-20T08:02:19.000Z</time>
      </trkpt>
      <trkpt lat="45.31475" lon="4.63024">
        <ele>593.79998779297</ele>
        <time>2019-02-20T08:02:20.000Z</time>
      </trkpt>
      <trkpt lat="45.31474" lon="4.63022">
        <ele>594</ele>
        <time>2019-02-20T08:02:21.000Z</time>
      </trkpt>
      <trkpt lat="45.31474" lon="4.63021">
        <ele>594.40002441406</ele>
        <time>2019-02-20T08:02:22.000Z</time>
      </trkpt>
      <trkpt lat="45.31473" lon="4.6302">
        <ele>594.40002441406</ele>
        <time>2019-02-20T08:02:23.000Z</time>
      </trkpt>
      <trkpt lat="45.31472" lon="4.63018">
        <ele>594.79998779297</ele>
        <time>2019-02-20T08:02:24.000Z</time>
      </trkpt>
      <trkpt lat="45.31471" lon="4.63016">
        <ele>595</ele>
        <time>2019-02-20T08:02:25.000Z</time>
      </trkpt>
      <trkpt lat="45.31471" lon="4.63015">
        <ele>595.40002441406</ele>
        <time>2019-02-20T08:02:26.000Z</time>
      </trkpt>
      <trkpt lat="45.3147" lon="4.63014">
        <ele>595.79998779297</ele>
        <time>2019-02-20T08:02:27.000Z</time>
      </trkpt>
      <trkpt lat="45.31469" lon="4.63012">
        <ele>595.79998779297</ele>
        <time>2019-02-20T08:02:28.000Z</time>
      </trkpt>
      <trkpt lat="45.31469" lon="4.63011">
        <ele>596.20001220703</ele>
        <time>2019-02-20T08:02:29.000Z</time>
      </trkpt>
      <trkpt lat="45.31468" lon="4.63009">
        <ele>596.20001220703</ele>
        <time>2019-02-20T08:02:30.000Z</time>
      </trkpt>
      <trkpt lat="45.31467" lon="4.63008">
        <ele>596.59997558594</ele>
        <time>2019-02-20T08:02:31.000Z</time>
      </trkpt>
      <trkpt lat="45.31467" lon="4.63006">
        <ele>596.79998779297</ele>
        <time>2019-02-20T08:02:32.000Z</time>
      </trkpt>
      <trkpt lat="45.31466" lon="4.63005">
        <ele>597</ele>
        <time>2019-02-20T08:02:33.000Z</time>
      </trkpt>
      <trkpt lat="45.31465" lon="4.63003">
        <ele>597.20001220703</ele>
        <time>2019-02-20T08:02:34.000Z</time>
      </trkpt>
      <trkpt lat="45.31464" lon="4.63002">
        <ele>597.40002441406</ele>
        <time>2019-02-20T08:02:35.000Z</time>
      </trkpt>
      <trkpt lat="45.31463" lon="4.63001">
        <ele>597.59997558594</ele>
        <time>2019-02-20T08:02:36.000Z</time>
      </trkpt>
      <trkpt lat="45.31463" lon="4.63">
        <ele>598</ele>
        <time>2019-02-20T08:02:37.000Z</time>
      </trkpt>
      <trkpt lat="45.31462" lon="4.62998">
        <ele>598.20001220703</ele>
        <time>2019-02-20T08:02:38.000Z</time>
      </trkpt>
      <trkpt lat="45.31461" lon="4.62997">
        <ele>598.40002441406</ele>
        <time>2019-02-20T08:02:39.000Z</time>
      </trkpt>
      <trkpt lat="45.3146" lon="4.62995">
        <ele>598.59997558594</ele>
        <time>2019-02-20T08:02:40.000Z</time>
      </trkpt>
      <trkpt lat="45.31459" lon="4.62994">
        <ele>598.79998779297</ele>
        <time>2019-02-20T08:02:41.000Z</time>
      </trkpt>
      <trkpt lat="45.31458" lon="4.62992">
        <ele>599.20001220703</ele>
        <time>2019-02-20T08:02:42.000Z</time>
      </trkpt>
      <trkpt lat="45.31457" lon="4.62991">
        <ele>599.40002441406</ele>
        <time>2019-02-20T08:02:43.000Z</time>
      </trkpt>
      <trkpt lat="45.31456" lon="4.6299">
        <ele>599.40002441406</ele>
        <time>2019-02-20T08:02:44.000Z</time>
      </trkpt>
      <trkpt lat="45.31455" lon="4.62988">
        <ele>599.79998779297</ele>
        <time>2019-02-20T08:02:45.000Z</time>
      </trkpt>
      <trkpt lat="45.31454" lon="4.62987">
        <ele>599.79998779297</ele>
        <time>2019-02-20T08:02:46.000Z</time>
      </trkpt>
      <trkpt lat="45.31453" lon="4.62985">
        <ele>600.20001220703</ele>
        <time>2019-02-20T08:02:47.000Z</time>
      </trkpt>
      <trkpt lat="45.31452" lon="4.62984">
        <ele>600.59997558594</ele>
        <time>2019-02-20T08:02:48.000Z</time>
      </trkpt>
      <trkpt lat="45.31452" lon="4.62982">
        <ele>601</ele>
        <time>2019-02-20T08:02:49.000Z</time>
      </trkpt>
      <trkpt lat="45.31451" lon="4.62981">
        <ele>601.20001220703</ele>
        <time>2019-02-20T08:02:50.000Z</time>
      </trkpt>
      <trkpt lat="45.3145" lon="4.6298">
        <ele>601.40002441406</ele>
        <time>2019-02-20T08:02:51.000Z</time>
      </trkpt>
      <trkpt lat="45.3145" lon="4.62979">
        <ele>602</ele>
        <time>2019-02-20T08:02:52.000Z</time>
      </trkpt>
      <trkpt lat="45.31449" lon="4.62978">
        <ele>602.40002441406</ele>
        <time>2019-02-20T08:02:53.000Z</time>
      </trkpt>
      <trkpt lat="45.31448" lon="4.62977">
        <ele>602.40002441406</ele>
        <time>2019-02-20T08:02:54.000Z</time>
      </trkpt>
      <trkpt lat="45.31447" lon="4.62975">
        <ele>602.79998779297</ele>
        <time>2019-02-20T08:02:55.000Z</time>
      </trkpt>
      <trkpt lat="45.31446" lon="4.62974">
        <ele>602.79998779297</ele>
        <time>2019-02-20T08:02:56.000Z</time>
      </trkpt>
      <trkpt lat="45.31445" lon="4.62973">
        <ele>603</ele>
        <time>2019-02-20T08:02:57.000Z</time>
      </trkpt>
      <trkpt lat="45.31445" lon="4.62972">
        <ele>603.20001220703</ele>
        <time>2019-02-20T08:02:58.000Z</time>
      </trkpt>
      <trkpt lat="45.31444" lon="4.62971">
        <ele>603.20001220703</ele>
        <time>2019-02-20T08:02:59.000Z</time>
      </trkpt>
      <trkpt lat="45.31443" lon="4.62971">
        <ele>603.59997558594</ele>
        <time>2019-02-20T08:03:00.000Z</time>
      </trkpt>
      <trkpt lat="45.31442" lon="4.6297">
        <ele>603.59997558594</ele>
        <time>2019-02-20T08:03:01.000Z</time>
      </trkpt>
      <trkpt lat="45.3144" lon="4.6297">
        <ele>603.79998779297</ele>
        <time>2019-02-20T08:03:02.000Z</time>
      </trkpt>
      <trkpt lat="45.31439" lon="4.6297">
        <ele>604</ele>
        <time>2019-02-20T08:03:03.000Z</time>
      </trkpt>
      <trkpt lat="45.31438" lon="4.62969">
        <ele>604</ele>
        <time>2019-02-20T08:03:04.000Z</time>
      </trkpt>
      <trkpt lat="45.31437" lon="4.62969">
        <ele>604.40002441406</ele>
        <time>2019-02-20T08:03:05.000Z</time>
      </trkpt>
      <trkpt lat="45.31436" lon="4.62969">
        <ele>604.40002441406</ele>
        <time>2019-02-20T08:03:06.000Z</time>
      </trkpt>
      <trkpt lat="45.31434" lon="4.62969">
        <ele>604.79998779297</ele>
        <time>2019-02-20T08:03:07.000Z</time>
      </trkpt>
      <trkpt lat="45.31433" lon="4.62969">
        <ele>604.79998779297</ele>
        <time>2019-02-20T08:03:08.000Z</time>
      </trkpt>
      <trkpt lat="45.31432" lon="4.62969">
        <ele>604.79998779297</ele>
        <time>2019-02-20T08:03:09.000Z</time>
      </trkpt>
      <trkpt lat="45.31431" lon="4.62968">
        <ele>605</ele>
        <time>2019-02-20T08:03:10.000Z</time>
      </trkpt>
      <trkpt lat="45.3143" lon="4.62968">
        <ele>604.79998779297</ele>
        <time>2019-02-20T08:03:11.000Z</time>
      </trkpt>
      <trkpt lat="45.31429" lon="4.62968">
        <ele>605</ele>
        <time>2019-02-20T08:03:12.000Z</time>
      </trkpt>
      <trkpt lat="45.31428" lon="4.62968">
        <ele>605</ele>
        <time>2019-02-20T08:03:13.000Z</time>
      </trkpt>
      <trkpt lat="45.31426" lon="4.62967">
        <ele>605</ele>
        <time>2019-02-20T08:03:14.000Z</time>
      </trkpt>
      <trkpt lat="45.31425" lon="4.62967">
        <ele>605.20001220703</ele>
        <time>2019-02-20T08:03:15.000Z</time>
      </trkpt>
      <trkpt lat="45.31423" lon="4.62967">
        <ele>605.20001220703</ele>
        <time>2019-02-20T08:03:16.000Z</time>
      </trkpt>
      <trkpt lat="45.31422" lon="4.62966">
        <ele>605.40002441406</ele>
        <time>2019-02-20T08:03:17.000Z</time>
      </trkpt>
      <trkpt lat="45.31421" lon="4.62966">
        <ele>605.59997558594</ele>
        <time>2019-02-20T08:03:18.000Z</time>
      </trkpt>
      <trkpt lat="45.3142" lon="4.62966">
        <ele>605.59997558594</ele>
        <time>2019-02-20T08:03:19.000Z</time>
      </trkpt>
      <trkpt lat="45.31418" lon="4.62965">
        <ele>605.79998779297</ele>
        <time>2019-02-20T08:03:20.000Z</time>
      </trkpt>
      <trkpt lat="45.31417" lon="4.62964">
        <ele>605.79998779297</ele>
        <time>2019-02-20T08:03:21.000Z</time>
      </trkpt>
      <trkpt lat="45.31416" lon="4.62964">
        <ele>605.79998779297</ele>
        <time>2019-02-20T08:03:22.000Z</time>
      </trkpt>
      <trkpt lat="45.31415" lon="4.62963">
        <ele>606</ele>
        <time>2019-02-20T08:03:23.000Z</time>
      </trkpt>
      <trkpt lat="45.31413" lon="4.62963">
        <ele>606.20001220703</ele>
        <time>2019-02-20T08:03:24.000Z</time>
      </trkpt>
      <trkpt lat="45.31412" lon="4.62962">
        <ele>606.20001220703</ele>
        <time>2019-02-20T08:03:25.000Z</time>
      </trkpt>
      <trkpt lat="45.31411" lon="4.62962">
        <ele>606.40002441406</ele>
        <time>2019-02-20T08:03:26.000Z</time>
      </trkpt>
      <trkpt lat="45.3141" lon="4.62961">
        <ele>606.59997558594</ele>
        <time>2019-02-20T08:03:27.000Z</time>
      </trkpt>
      <trkpt lat="45.31408" lon="4.62961">
        <ele>606.59997558594</ele>
        <time>2019-02-20T08:03:28.000Z</time>
      </trkpt>
      <trkpt lat="45.31407" lon="4.6296">
        <ele>606.79998779297</ele>
        <time>2019-02-20T08:03:29.000Z</time>
      </trkpt>
      <trkpt lat="45.31406" lon="4.6296">
        <ele>607</ele>
        <time>2019-02-20T08:03:30.000Z</time>
      </trkpt>
      <trkpt lat="45.31405" lon="4.62959">
        <ele>607.20001220703</ele>
        <time>2019-02-20T08:03:31.000Z</time>
      </trkpt>
      <trkpt lat="45.31403" lon="4.62959">
        <ele>607.20001220703</ele>
        <time>2019-02-20T08:03:32.000Z</time>
      </trkpt>
      <trkpt lat="45.31402" lon="4.62959">
        <ele>607.40002441406</ele>
        <time>2019-02-20T08:03:33.000Z</time>
      </trkpt>
      <trkpt lat="45.31401" lon="4.62958">
        <ele>607.40002441406</ele>
        <time>2019-02-20T08:03:34.000Z</time>
      </trkpt>
      <trkpt lat="45.314" lon="4.62958">
        <ele>607.79998779297</ele>
        <time>2019-02-20T08:03:35.000Z</time>
      </trkpt>
      <trkpt lat="45.31399" lon="4.62957">
        <ele>607.79998779297</ele>
        <time>2019-02-20T08:03:36.000Z</time>
      </trkpt>
      <trkpt lat="45.31397" lon="4.62957">
        <ele>608</ele>
        <time>2019-02-20T08:03:37.000Z</time>
      </trkpt>
      <trkpt lat="45.31396" lon="4.62957">
        <ele>608.20001220703</ele>
        <time>2019-02-20T08:03:38.000Z</time>
      </trkpt>
      <trkpt lat="45.31395" lon="4.62956">
        <ele>608.20001220703</ele>
        <time>2019-02-20T08:03:39.000Z</time>
      </trkpt>
      <trkpt lat="45.31393" lon="4.62955">
        <ele>608.40002441406</ele>
        <time>2019-02-20T08:03:40.000Z</time>
      </trkpt>
      <trkpt lat="45.31392" lon="4.62955">
        <ele>608.59997558594</ele>
        <time>2019-02-20T08:03:41.000Z</time>
      </trkpt>
      <trkpt lat="45.31391" lon="4.62955">
        <ele>608.40002441406</ele>
        <time>2019-02-20T08:03:42.000Z</time>
      </trkpt>
      <trkpt lat="45.31389" lon="4.62955">
        <ele>608.59997558594</ele>
        <time>2019-02-20T08:03:43.000Z</time>
      </trkpt>
      <trkpt lat="45.31388" lon="4.62955">
        <ele>608.79998779297</ele>
        <time>2019-02-20T08:03:44.000Z</time>
      </trkpt>
      <trkpt lat="45.31387" lon="4.62954">
        <ele>609</ele>
        <time>2019-02-20T08:03:45.000Z</time>
      </trkpt>
      <trkpt lat="45.31386" lon="4.62954">
        <ele>609</ele>
        <time>2019-02-20T08:03:46.000Z</time>
      </trkpt>
      <trkpt lat="45.31385" lon="4.62954">
        <ele>609.20001220703</ele>
        <time>2019-02-20T08:03:47.000Z</time>
      </trkpt>
      <trkpt lat="45.31384" lon="4.62954">
        <ele>609.20001220703</ele>
        <time>2019-02-20T08:03:48.000Z</time>
      </trkpt>
      <trkpt lat="45.31383" lon="4.62953">
        <ele>609.20001220703</ele>
        <time>2019-02-20T08:03:49.000Z</time>
      </trkpt>
      <trkpt lat="45.31381" lon="4.62953">
        <ele>609.40002441406</ele>
        <time>2019-02-20T08:03:50.000Z</time>
      </trkpt>
      <trkpt lat="45.3138" lon="4.62953">
        <ele>609.40002441406</ele>
        <time>2019-02-20T08:03:51.000Z</time>
      </trkpt>
      <trkpt lat="45.31379" lon="4.62953">
        <ele>609.59997558594</ele>
        <time>2019-02-20T08:03:52.000Z</time>
      </trkpt>
      <trkpt lat="45.31378" lon="4.62952">
        <ele>609.79998779297</ele>
        <time>2019-02-20T08:03:53.000Z</time>
      </trkpt>
      <trkpt lat="45.31377" lon="4.62952">
        <ele>609.79998779297</ele>
        <time>2019-02-20T08:03:54.000Z</time>
      </trkpt>
      <trkpt lat="45.31376" lon="4.62952">
        <ele>610</ele>
        <time>2019-02-20T08:03:55.000Z</time>
      </trkpt>
      <trkpt lat="45.31375" lon="4.62952">
        <ele>610</ele>
        <time>2019-02-20T08:03:56.000Z</time>
      </trkpt>
      <trkpt lat="45.31373" lon="4.62951">
        <ele>610.20001220703</ele>
        <time>2019-02-20T08:03:57.000Z</time>
      </trkpt>
      <trkpt lat="45.31372" lon="4.6295">
        <ele>610.40002441406</ele>
        <time>2019-02-20T08:03:58.000Z</time>
      </trkpt>
      <trkpt lat="45.31371" lon="4.6295">
        <ele>610.59997558594</ele>
        <time>2019-02-20T08:03:59.000Z</time>
      </trkpt>
      <trkpt lat="45.31369" lon="4.6295">
        <ele>610.59997558594</ele>
        <time>2019-02-20T08:04:00.000Z</time>
      </trkpt>
      <trkpt lat="45.31368" lon="4.62949">
        <ele>610.79998779297</ele>
        <time>2019-02-20T08:04:01.000Z</time>
      </trkpt>
      <trkpt lat="45.31367" lon="4.6295">
        <ele>611</ele>
        <time>2019-02-20T08:04:02.000Z</time>
      </trkpt>
      <trkpt lat="45.31366" lon="4.62949">
        <ele>611.20001220703</ele>
        <time>2019-02-20T08:04:03.000Z</time>
      </trkpt>
      <trkpt lat="45.31364" lon="4.62949">
        <ele>611.40002441406</ele>
        <time>2019-02-20T08:04:04.000Z</time>
      </trkpt>
      <trkpt lat="45.31363" lon="4.62949">
        <ele>611.40002441406</ele>
        <time>2019-02-20T08:04:05.000Z</time>
      </trkpt>
      <trkpt lat="45.31362" lon="4.62949">
        <ele>611.59997558594</ele>
        <time>2019-02-20T08:04:06.000Z</time>
      </trkpt>
      <trkpt lat="45.31361" lon="4.62949">
        <ele>611.79998779297</ele>
        <time>2019-02-20T08:04:07.000Z</time>
      </trkpt>
      <trkpt lat="45.3136" lon="4.62948">
        <ele>611.79998779297</ele>
        <time>2019-02-20T08:04:08.000Z</time>
      </trkpt>
      <trkpt lat="45.31358" lon="4.62948">
        <ele>612</ele>
        <time>2019-02-20T08:04:09.000Z</time>
      </trkpt>
      <trkpt lat="45.31357" lon="4.62948">
        <ele>612</ele>
        <time>2019-02-20T08:04:10.000Z</time>
      </trkpt>
      <trkpt lat="45.31356" lon="4.62947">
        <ele>612</ele>
        <time>2019-02-20T08:04:11.000Z</time>
      </trkpt>
      <trkpt lat="45.31355" lon="4.62947">
        <ele>612.20001220703</ele>
        <time>2019-02-20T08:04:12.000Z</time>
      </trkpt>
      <trkpt lat="45.31353" lon="4.62947">
        <ele>612.20001220703</ele>
        <time>2019-02-20T08:04:13.000Z</time>
      </trkpt>
      <trkpt lat="45.31352" lon="4.62946">
        <ele>612.40002441406</ele>
        <time>2019-02-20T08:04:14.000Z</time>
      </trkpt>
      <trkpt lat="45.31351" lon="4.62946">
        <ele>612.59997558594</ele>
        <time>2019-02-20T08:04:15.000Z</time>
      </trkpt>
      <trkpt lat="45.31349" lon="4.62945">
        <ele>612.79998779297</ele>
        <time>2019-02-20T08:04:16.000Z</time>
      </trkpt>
      <trkpt lat="45.31348" lon="4.62945">
        <ele>613</ele>
        <time>2019-02-20T08:04:17.000Z</time>
      </trkpt>
      <trkpt lat="45.31347" lon="4.62944">
        <ele>613.20001220703</ele>
        <time>2019-02-20T08:04:18.000Z</time>
      </trkpt>
      <trkpt lat="45.31346" lon="4.62944">
        <ele>613.40002441406</ele>
        <time>2019-02-20T08:04:19.000Z</time>
      </trkpt>
      <trkpt lat="45.31344" lon="4.62944">
        <ele>613.40002441406</ele>
        <time>2019-02-20T08:04:20.000Z</time>
      </trkpt>
      <trkpt lat="45.31343" lon="4.62943">
        <ele>613.59997558594</ele>
        <time>2019-02-20T08:04:21.000Z</time>
      </trkpt>
      <trkpt lat="45.31342" lon="4.62942">
        <ele>613.79998779297</ele>
        <time>2019-02-20T08:04:22.000Z</time>
      </trkpt>
      <trkpt lat="45.3134" lon="4.62942">
        <ele>614</ele>
        <time>2019-02-20T08:04:23.000Z</time>
      </trkpt>
      <trkpt lat="45.31339" lon="4.62941">
        <ele>614.20001220703</ele>
        <time>2019-02-20T08:04:24.000Z</time>
      </trkpt>
      <trkpt lat="45.31338" lon="4.62939">
        <ele>614.20001220703</ele>
        <time>2019-02-20T08:04:25.000Z</time>
      </trkpt>
      <trkpt lat="45.31336" lon="4.62938">
        <ele>614.40002441406</ele>
        <time>2019-02-20T08:04:26.000Z</time>
      </trkpt>
      <trkpt lat="45.31335" lon="4.62938">
        <ele>614.40002441406</ele>
        <time>2019-02-20T08:04:27.000Z</time>
      </trkpt>
      <trkpt lat="45.31334" lon="4.62937">
        <ele>614.79998779297</ele>
        <time>2019-02-20T08:04:28.000Z</time>
      </trkpt>
      <trkpt lat="45.31332" lon="4.62937">
        <ele>614.79998779297</ele>
        <time>2019-02-20T08:04:29.000Z</time>
      </trkpt>
      <trkpt lat="45.31331" lon="4.62936">
        <ele>615</ele>
        <time>2019-02-20T08:04:30.000Z</time>
      </trkpt>
      <trkpt lat="45.31329" lon="4.62936">
        <ele>615.20001220703</ele>
        <time>2019-02-20T08:04:31.000Z</time>
      </trkpt>
      <trkpt lat="45.31328" lon="4.62935">
        <ele>615.20001220703</ele>
        <time>2019-02-20T08:04:32.000Z</time>
      </trkpt>
      <trkpt lat="45.31327" lon="4.62934">
        <ele>615.20001220703</ele>
        <time>2019-02-20T08:04:33.000Z</time>
      </trkpt>
      <trkpt lat="45.31326" lon="4.62933">
        <ele>615.59997558594</ele>
        <time>2019-02-20T08:04:34.000Z</time>
      </trkpt>
      <trkpt lat="45.31324" lon="4.62932">
        <ele>615.79998779297</ele>
        <time>2019-02-20T08:04:35.000Z</time>
      </trkpt>
      <trkpt lat="45.31323" lon="4.6293">
        <ele>616</ele>
        <time>2019-02-20T08:04:36.000Z</time>
      </trkpt>
      <trkpt lat="45.31322" lon="4.62929">
        <ele>616.20001220703</ele>
        <time>2019-02-20T08:04:37.000Z</time>
      </trkpt>
      <trkpt lat="45.31321" lon="4.62928">
        <ele>616.20001220703</ele>
        <time>2019-02-20T08:04:38.000Z</time>
      </trkpt>
      <trkpt lat="45.3132" lon="4.62927">
        <ele>616.40002441406</ele>
        <time>2019-02-20T08:04:39.000Z</time>
      </trkpt>
      <trkpt lat="45.31318" lon="4.62926">
        <ele>616.40002441406</ele>
        <time>2019-02-20T08:04:40.000Z</time>
      </trkpt>
      <trkpt lat="45.31317" lon="4.62924">
        <ele>616.59997558594</ele>
        <time>2019-02-20T08:04:41.000Z</time>
      </trkpt>
      <trkpt lat="45.31316" lon="4.62923">
        <ele>616.79998779297</ele>
        <time>2019-02-20T08:04:42.000Z</time>
      </trkpt>
      <trkpt lat="45.31315" lon="4.62921">
        <ele>616.79998779297</ele>
        <time>2019-02-20T08:04:43.000Z</time>
      </trkpt>
      <trkpt lat="45.31315" lon="4.62919">
        <ele>616.79998779297</ele>
        <time>2019-02-20T08:04:44.000Z</time>
      </trkpt>
      <trkpt lat="45.31314" lon="4.62917">
        <ele>617</ele>
        <time>2019-02-20T08:04:45.000Z</time>
      </trkpt>
      <trkpt lat="45.31313" lon="4.62916">
        <ele>617</ele>
        <time>2019-02-20T08:04:46.000Z</time>
      </trkpt>
      <trkpt lat="45.31312" lon="4.62914">
        <ele>617.20001220703</ele>
        <time>2019-02-20T08:04:47.000Z</time>
      </trkpt>
      <trkpt lat="45.31311" lon="4.62913">
        <ele>617.40002441406</ele>
        <time>2019-02-20T08:04:48.000Z</time>
      </trkpt>
      <trkpt lat="45.3131" lon="4.62911">
        <ele>617.40002441406</ele>
        <time>2019-02-20T08:04:49.000Z</time>
      </trkpt>
      <trkpt lat="45.3131" lon="4.6291">
        <ele>617.40002441406</ele>
        <time>2019-02-20T08:04:50.000Z</time>
      </trkpt>
      <trkpt lat="45.31308" lon="4.62908">
        <ele>617.59997558594</ele>
        <time>2019-02-20T08:04:51.000Z</time>
      </trkpt>
      <trkpt lat="45.31307" lon="4.62907">
        <ele>617.79998779297</ele>
        <time>2019-02-20T08:04:52.000Z</time>
      </trkpt>
      <trkpt lat="45.31307" lon="4.62905">
        <ele>618</ele>
        <time>2019-02-20T08:04:53.000Z</time>
      </trkpt>
      <trkpt lat="45.31306" lon="4.62903">
        <ele>618</ele>
        <time>2019-02-20T08:04:54.000Z</time>
      </trkpt>
      <trkpt lat="45.31305" lon="4.62902">
        <ele>617.79998779297</ele>
        <time>2019-02-20T08:04:55.000Z</time>
      </trkpt>
      <trkpt lat="45.31304" lon="4.62901">
        <ele>618.20001220703</ele>
        <time>2019-02-20T08:04:56.000Z</time>
      </trkpt>
      <trkpt lat="45.31303" lon="4.62899">
        <ele>618.20001220703</ele>
        <time>2019-02-20T08:04:57.000Z</time>
      </trkpt>
      <trkpt lat="45.31302" lon="4.62898">
        <ele>618.40002441406</ele>
        <time>2019-02-20T08:04:58.000Z</time>
      </trkpt>
      <trkpt lat="45.31301" lon="4.62896">
        <ele>618.59997558594</ele>
        <time>2019-02-20T08:04:59.000Z</time>
      </trkpt>
      <trkpt lat="45.313" lon="4.62894">
        <ele>618.40002441406</ele>
        <time>2019-02-20T08:05:00.000Z</time>
      </trkpt>
      <trkpt lat="45.31299" lon="4.62892">
        <ele>618.59997558594</ele>
        <time>2019-02-20T08:05:01.000Z</time>
      </trkpt>
      <trkpt lat="45.31298" lon="4.6289">
        <ele>618.59997558594</ele>
        <time>2019-02-20T08:05:02.000Z</time>
      </trkpt>
      <trkpt lat="45.31298" lon="4.62889">
        <ele>618.79998779297</ele>
        <time>2019-02-20T08:05:03.000Z</time>
      </trkpt>
      <trkpt lat="45.31297" lon="4.62887">
        <ele>619</ele>
        <time>2019-02-20T08:05:04.000Z</time>
      </trkpt>
      <trkpt lat="45.31296" lon="4.62885">
        <ele>619.20001220703</ele>
        <time>2019-02-20T08:05:05.000Z</time>
      </trkpt>
      <trkpt lat="45.31295" lon="4.62883">
        <ele>619.40002441406</ele>
        <time>2019-02-20T08:05:06.000Z</time>
      </trkpt>
      <trkpt lat="45.31294" lon="4.62881">
        <ele>619.40002441406</ele>
        <time>2019-02-20T08:05:07.000Z</time>
      </trkpt>
      <trkpt lat="45.31294" lon="4.62879">
        <ele>619.59997558594</ele>
        <time>2019-02-20T08:05:08.000Z</time>
      </trkpt>
      <trkpt lat="45.31293" lon="4.62878">
        <ele>619.59997558594</ele>
        <time>2019-02-20T08:05:09.000Z</time>
      </trkpt>
      <trkpt lat="45.31292" lon="4.62876">
        <ele>619.79998779297</ele>
        <time>2019-02-20T08:05:10.000Z</time>
      </trkpt>
      <trkpt lat="45.31292" lon="4.62874">
        <ele>620</ele>
        <time>2019-02-20T08:05:11.000Z</time>
      </trkpt>
      <trkpt lat="45.31291" lon="4.62872">
        <ele>620</ele>
        <time>2019-02-20T08:05:12.000Z</time>
      </trkpt>
      <trkpt lat="45.3129" lon="4.62871">
        <ele>620.20001220703</ele>
        <time>2019-02-20T08:05:13.000Z</time>
      </trkpt>
      <trkpt lat="45.31289" lon="4.62869">
        <ele>620.40002441406</ele>
        <time>2019-02-20T08:05:14.000Z</time>
      </trkpt>
      <trkpt lat="45.31289" lon="4.62867">
        <ele>620.40002441406</ele>
        <time>2019-02-20T08:05:15.000Z</time>
      </trkpt>
      <trkpt lat="45.31288" lon="4.62865">
        <ele>620.59997558594</ele>
        <time>2019-02-20T08:05:16.000Z</time>
      </trkpt>
      <trkpt lat="45.31287" lon="4.62863">
        <ele>620.79998779297</ele>
        <time>2019-02-20T08:05:17.000Z</time>
      </trkpt>
      <trkpt lat="45.31287" lon="4.62861">
        <ele>620.79998779297</ele>
        <time>2019-02-20T08:05:18.000Z</time>
      </trkpt>
      <trkpt lat="45.31286" lon="4.62859">
        <ele>621</ele>
        <time>2019-02-20T08:05:19.000Z</time>
      </trkpt>
      <trkpt lat="45.31285" lon="4.62858">
        <ele>621.20001220703</ele>
        <time>2019-02-20T08:05:20.000Z</time>
      </trkpt>
      <trkpt lat="45.31285" lon="4.62856">
        <ele>621.20001220703</ele>
        <time>2019-02-20T08:05:21.000Z</time>
      </trkpt>
      <trkpt lat="45.31284" lon="4.62854">
        <ele>621.40002441406</ele>
        <time>2019-02-20T08:05:22.000Z</time>
      </trkpt>
      <trkpt lat="45.31283" lon="4.62853">
        <ele>621.59997558594</ele>
        <time>2019-02-20T08:05:23.000Z</time>
      </trkpt>
      <trkpt lat="45.31283" lon="4.62851">
        <ele>621.59997558594</ele>
        <time>2019-02-20T08:05:24.000Z</time>
      </trkpt>
      <trkpt lat="45.31282" lon="4.6285">
        <ele>621.79998779297</ele>
        <time>2019-02-20T08:05:25.000Z</time>
      </trkpt>
      <trkpt lat="45.31281" lon="4.62849">
        <ele>622</ele>
        <time>2019-02-20T08:05:26.000Z</time>
      </trkpt>
      <trkpt lat="45.3128" lon="4.62847">
        <ele>622.40002441406</ele>
        <time>2019-02-20T08:05:27.000Z</time>
      </trkpt>
      <trkpt lat="45.31279" lon="4.62846">
        <ele>622.59997558594</ele>
        <time>2019-02-20T08:05:28.000Z</time>
      </trkpt>
      <trkpt lat="45.31278" lon="4.62844">
        <ele>623</ele>
        <time>2019-02-20T08:05:29.000Z</time>
      </trkpt>
      <trkpt lat="45.31278" lon="4.62842">
        <ele>623.20001220703</ele>
        <time>2019-02-20T08:05:30.000Z</time>
      </trkpt>
      <trkpt lat="45.31277" lon="4.62841">
        <ele>623.40002441406</ele>
        <time>2019-02-20T08:05:31.000Z</time>
      </trkpt>
      <trkpt lat="45.31276" lon="4.62839">
        <ele>623.59997558594</ele>
        <time>2019-02-20T08:05:32.000Z</time>
      </trkpt>
      <trkpt lat="45.31275" lon="4.62837">
        <ele>623.79998779297</ele>
        <time>2019-02-20T08:05:33.000Z</time>
      </trkpt>
      <trkpt lat="45.31275" lon="4.62836">
        <ele>624</ele>
        <time>2019-02-20T08:05:34.000Z</time>
      </trkpt>
      <trkpt lat="45.31274" lon="4.62834">
        <ele>624.20001220703</ele>
        <time>2019-02-20T08:05:35.000Z</time>
      </trkpt>
      <trkpt lat="45.31273" lon="4.62833">
        <ele>624.40002441406</ele>
        <time>2019-02-20T08:05:36.000Z</time>
      </trkpt>
      <trkpt lat="45.31272" lon="4.62831">
        <ele>624.59997558594</ele>
        <time>2019-02-20T08:05:37.000Z</time>
      </trkpt>
      <trkpt lat="45.31271" lon="4.6283">
        <ele>624.79998779297</ele>
        <time>2019-02-20T08:05:38.000Z</time>
      </trkpt>
      <trkpt lat="45.31271" lon="4.62828">
        <ele>625</ele>
        <time>2019-02-20T08:05:39.000Z</time>
      </trkpt>
      <trkpt lat="45.31269" lon="4.62827">
        <ele>625.20001220703</ele>
        <time>2019-02-20T08:05:40.000Z</time>
      </trkpt>
      <trkpt lat="45.31268" lon="4.62826">
        <ele>625.20001220703</ele>
        <time>2019-02-20T08:05:41.000Z</time>
      </trkpt>
      <trkpt lat="45.31267" lon="4.62825">
        <ele>625.40002441406</ele>
        <time>2019-02-20T08:05:42.000Z</time>
      </trkpt>
      <trkpt lat="45.31266" lon="4.62824">
        <ele>625.59997558594</ele>
        <time>2019-02-20T08:05:43.000Z</time>
      </trkpt>
      <trkpt lat="45.31264" lon="4.62823">
        <ele>626</ele>
        <time>2019-02-20T08:05:44.000Z</time>
      </trkpt>
      <trkpt lat="45.31263" lon="4.62821">
        <ele>626</ele>
        <time>2019-02-20T08:05:45.000Z</time>
      </trkpt>
      <trkpt lat="45.31262" lon="4.62819">
        <ele>626</ele>
        <time>2019-02-20T08:05:46.000Z</time>
      </trkpt>
      <trkpt lat="45.31261" lon="4.62818">
        <ele>626.40002441406</ele>
        <time>2019-02-20T08:05:47.000Z</time>
      </trkpt>
      <trkpt lat="45.3126" lon="4.62816">
        <ele>626.59997558594</ele>
        <time>2019-02-20T08:05:48.000Z</time>
      </trkpt>
      <trkpt lat="45.31259" lon="4.62815">
        <ele>626.79998779297</ele>
        <time>2019-02-20T08:05:49.000Z</time>
      </trkpt>
      <trkpt lat="45.31259" lon="4.62813">
        <ele>626.79998779297</ele>
        <time>2019-02-20T08:05:50.000Z</time>
      </trkpt>
      <trkpt lat="45.31258" lon="4.62812">
        <ele>627</ele>
        <time>2019-02-20T08:05:51.000Z</time>
      </trkpt>
      <trkpt lat="45.31256" lon="4.62811">
        <ele>627.20001220703</ele>
        <time>2019-02-20T08:05:52.000Z</time>
      </trkpt>
      <trkpt lat="45.31255" lon="4.62809">
        <ele>627.20001220703</ele>
        <time>2019-02-20T08:05:53.000Z</time>
      </trkpt>
      <trkpt lat="45.31254" lon="4.62808">
        <ele>627.40002441406</ele>
        <time>2019-02-20T08:05:54.000Z</time>
      </trkpt>
      <trkpt lat="45.31253" lon="4.62806">
        <ele>627.40002441406</ele>
        <time>2019-02-20T08:05:55.000Z</time>
      </trkpt>
      <trkpt lat="45.31252" lon="4.62805">
        <ele>627.59997558594</ele>
        <time>2019-02-20T08:05:56.000Z</time>
      </trkpt>
      <trkpt lat="45.3125" lon="4.62804">
        <ele>628</ele>
        <time>2019-02-20T08:05:57.000Z</time>
      </trkpt>
      <trkpt lat="45.31249" lon="4.62803">
        <ele>628</ele>
        <time>2019-02-20T08:05:58.000Z</time>
      </trkpt>
      <trkpt lat="45.31248" lon="4.62802">
        <ele>628.20001220703</ele>
        <time>2019-02-20T08:05:59.000Z</time>
      </trkpt>
      <trkpt lat="45.31247" lon="4.628">
        <ele>628.40002441406</ele>
        <time>2019-02-20T08:06:00.000Z</time>
      </trkpt>
      <trkpt lat="45.31246" lon="4.62799">
        <ele>628.40002441406</ele>
        <time>2019-02-20T08:06:01.000Z</time>
      </trkpt>
      <trkpt lat="45.31245" lon="4.62798">
        <ele>628.59997558594</ele>
        <time>2019-02-20T08:06:02.000Z</time>
      </trkpt>
      <trkpt lat="45.31244" lon="4.62796">
        <ele>628.79998779297</ele>
        <time>2019-02-20T08:06:03.000Z</time>
      </trkpt>
      <trkpt lat="45.31243" lon="4.62795">
        <ele>629</ele>
        <time>2019-02-20T08:06:04.000Z</time>
      </trkpt>
      <trkpt lat="45.31242" lon="4.62794">
        <ele>629.20001220703</ele>
        <time>2019-02-20T08:06:05.000Z</time>
      </trkpt>
      <trkpt lat="45.31241" lon="4.62793">
        <ele>629.20001220703</ele>
        <time>2019-02-20T08:06:06.000Z</time>
      </trkpt>
      <trkpt lat="45.3124" lon="4.62792">
        <ele>629.40002441406</ele>
        <time>2019-02-20T08:06:07.000Z</time>
      </trkpt>
      <trkpt lat="45.31238" lon="4.62791">
        <ele>629.59997558594</ele>
        <time>2019-02-20T08:06:08.000Z</time>
      </trkpt>
      <trkpt lat="45.31237" lon="4.6279">
        <ele>629.79998779297</ele>
        <time>2019-02-20T08:06:09.000Z</time>
      </trkpt>
      <trkpt lat="45.31236" lon="4.62789">
        <ele>629.79998779297</ele>
        <time>2019-02-20T08:06:10.000Z</time>
      </trkpt>
      <trkpt lat="45.31235" lon="4.62788">
        <ele>630</ele>
        <time>2019-02-20T08:06:11.000Z</time>
      </trkpt>
      <trkpt lat="45.31234" lon="4.62788">
        <ele>630.20001220703</ele>
        <time>2019-02-20T08:06:12.000Z</time>
      </trkpt>
      <trkpt lat="45.31233" lon="4.62787">
        <ele>630.20001220703</ele>
        <time>2019-02-20T08:06:13.000Z</time>
      </trkpt>
      <trkpt lat="45.31232" lon="4.62787">
        <ele>630.20001220703</ele>
        <time>2019-02-20T08:06:14.000Z</time>
      </trkpt>
      <trkpt lat="45.3123" lon="4.62787">
        <ele>630.20001220703</ele>
        <time>2019-02-20T08:06:15.000Z</time>
      </trkpt>
      <trkpt lat="45.31229" lon="4.62786">
        <ele>630.40002441406</ele>
        <time>2019-02-20T08:06:16.000Z</time>
      </trkpt>
      <trkpt lat="45.31227" lon="4.62786">
        <ele>630.40002441406</ele>
        <time>2019-02-20T08:06:17.000Z</time>
      </trkpt>
      <trkpt lat="45.31226" lon="4.62784">
        <ele>630.40002441406</ele>
        <time>2019-02-20T08:06:18.000Z</time>
      </trkpt>
      <trkpt lat="45.31224" lon="4.62784">
        <ele>630.79998779297</ele>
        <time>2019-02-20T08:06:19.000Z</time>
      </trkpt>
      <trkpt lat="45.31222" lon="4.62783">
        <ele>630.59997558594</ele>
        <time>2019-02-20T08:06:20.000Z</time>
      </trkpt>
      <trkpt lat="45.31221" lon="4.62784">
        <ele>630.79998779297</ele>
        <time>2019-02-20T08:06:21.000Z</time>
      </trkpt>
      <trkpt lat="45.31219" lon="4.62784">
        <ele>630.79998779297</ele>
        <time>2019-02-20T08:06:22.000Z</time>
      </trkpt>
      <trkpt lat="45.31218" lon="4.62784">
        <ele>630.79998779297</ele>
        <time>2019-02-20T08:06:23.000Z</time>
      </trkpt>
      <trkpt lat="45.31218" lon="4.62785">
        <ele>630.79998779297</ele>
        <time>2019-02-20T08:06:24.000Z</time>
      </trkpt>
      <trkpt lat="45.31217" lon="4.62787">
        <ele>630.79998779297</ele>
        <time>2019-02-20T08:06:25.000Z</time>
      </trkpt>
      <trkpt lat="45.31217" lon="4.62788">
        <ele>630.79998779297</ele>
        <time>2019-02-20T08:06:26.000Z</time>
      </trkpt>
      <trkpt lat="45.31216" lon="4.6279">
        <ele>631</ele>
        <time>2019-02-20T08:06:27.000Z</time>
      </trkpt>
      <trkpt lat="45.31216" lon="4.62792">
        <ele>631</ele>
        <time>2019-02-20T08:06:28.000Z</time>
      </trkpt>
      <trkpt lat="45.31216" lon="4.62793">
        <ele>631</ele>
        <time>2019-02-20T08:06:29.000Z</time>
      </trkpt>
      <trkpt lat="45.31216" lon="4.62795">
        <ele>631</ele>
        <time>2019-02-20T08:06:30.000Z</time>
      </trkpt>
      <trkpt lat="45.31215" lon="4.62797">
        <ele>631</ele>
        <time>2019-02-20T08:06:31.000Z</time>
      </trkpt>
      <trkpt lat="45.31215" lon="4.62799">
        <ele>630.79998779297</ele>
        <time>2019-02-20T08:06:32.000Z</time>
      </trkpt>
      <trkpt lat="45.31215" lon="4.62801">
        <ele>631</ele>
        <time>2019-02-20T08:06:33.000Z</time>
      </trkpt>
      <trkpt lat="45.31215" lon="4.62803">
        <ele>631</ele>
        <time>2019-02-20T08:06:34.000Z</time>
      </trkpt>
      <trkpt lat="45.31215" lon="4.62804">
        <ele>631</ele>
        <time>2019-02-20T08:06:35.000Z</time>
      </trkpt>
      <trkpt lat="45.31214" lon="4.62806">
        <ele>631</ele>
        <time>2019-02-20T08:06:36.000Z</time>
      </trkpt>
      <trkpt lat="45.31213" lon="4.62808">
        <ele>631.20001220703</ele>
        <time>2019-02-20T08:06:37.000Z</time>
      </trkpt>
      <trkpt lat="45.31213" lon="4.62809">
        <ele>631</ele>
        <time>2019-02-20T08:06:38.000Z</time>
      </trkpt>
      <trkpt lat="45.31212" lon="4.6281">
        <ele>631.40002441406</ele>
        <time>2019-02-20T08:06:39.000Z</time>
      </trkpt>
      <trkpt lat="45.31211" lon="4.62812">
        <ele>631.20001220703</ele>
        <time>2019-02-20T08:06:40.000Z</time>
      </trkpt>
      <trkpt lat="45.3121" lon="4.62813">
        <ele>631.40002441406</ele>
        <time>2019-02-20T08:06:41.000Z</time>
      </trkpt>
      <trkpt lat="45.31209" lon="4.62815">
        <ele>631.59997558594</ele>
        <time>2019-02-20T08:06:42.000Z</time>
      </trkpt>
      <trkpt lat="45.31208" lon="4.62817">
        <ele>631.79998779297</ele>
        <time>2019-02-20T08:06:43.000Z</time>
      </trkpt>
      <trkpt lat="45.31207" lon="4.62818">
        <ele>631.79998779297</ele>
        <time>2019-02-20T08:06:44.000Z</time>
      </trkpt>
      <trkpt lat="45.31206" lon="4.6282">
        <ele>631.79998779297</ele>
        <time>2019-02-20T08:06:45.000Z</time>
      </trkpt>
      <trkpt lat="45.31205" lon="4.62822">
        <ele>631.79998779297</ele>
        <time>2019-02-20T08:06:46.000Z</time>
      </trkpt>
      <trkpt lat="45.31204" lon="4.62824">
        <ele>632.20001220703</ele>
        <time>2019-02-20T08:06:47.000Z</time>
      </trkpt>
      <trkpt lat="45.31203" lon="4.62826">
        <ele>632.20001220703</ele>
        <time>2019-02-20T08:06:48.000Z</time>
      </trkpt>
      <trkpt lat="45.31202" lon="4.62828">
        <ele>632.20001220703</ele>
        <time>2019-02-20T08:06:49.000Z</time>
      </trkpt>
      <trkpt lat="45.31201" lon="4.62829">
        <ele>632.40002441406</ele>
        <time>2019-02-20T08:06:50.000Z</time>
      </trkpt>
      <trkpt lat="45.31199" lon="4.6283">
        <ele>632.40002441406</ele>
        <time>2019-02-20T08:06:51.000Z</time>
      </trkpt>
      <trkpt lat="45.31198" lon="4.62832">
        <ele>632.40002441406</ele>
        <time>2019-02-20T08:06:52.000Z</time>
      </trkpt>
      <trkpt lat="45.31196" lon="4.62833">
        <ele>632.40002441406</ele>
        <time>2019-02-20T08:06:53.000Z</time>
      </trkpt>
      <trkpt lat="45.31195" lon="4.62834">
        <ele>632.40002441406</ele>
        <time>2019-02-20T08:06:54.000Z</time>
      </trkpt>
      <trkpt lat="45.31193" lon="4.62835">
        <ele>632.59997558594</ele>
        <time>2019-02-20T08:06:55.000Z</time>
      </trkpt>
      <trkpt lat="45.31192" lon="4.62837">
        <ele>632.40002441406</ele>
        <time>2019-02-20T08:06:56.000Z</time>
      </trkpt>
      <trkpt lat="45.3119" lon="4.62838">
        <ele>632.59997558594</ele>
        <time>2019-02-20T08:06:57.000Z</time>
      </trkpt>
      <trkpt lat="45.31189" lon="4.62839">
        <ele>632.40002441406</ele>
        <time>2019-02-20T08:06:58.000Z</time>
      </trkpt>
      <trkpt lat="45.31188" lon="4.6284">
        <ele>632.59997558594</ele>
        <time>2019-02-20T08:06:59.000Z</time>
      </trkpt>
      <trkpt lat="45.31186" lon="4.62842">
        <ele>632.59997558594</ele>
        <time>2019-02-20T08:07:00.000Z</time>
      </trkpt>
      <trkpt lat="45.31185" lon="4.62843">
        <ele>632.40002441406</ele>
        <time>2019-02-20T08:07:01.000Z</time>
      </trkpt>
      <trkpt lat="45.31183" lon="4.62845">
        <ele>632.59997558594</ele>
        <time>2019-02-20T08:07:02.000Z</time>
      </trkpt>
      <trkpt lat="45.31182" lon="4.62847">
        <ele>632.40002441406</ele>
        <time>2019-02-20T08:07:03.000Z</time>
      </trkpt>
      <trkpt lat="45.3118" lon="4.62848">
        <ele>632.40002441406</ele>
        <time>2019-02-20T08:07:04.000Z</time>
      </trkpt>
      <trkpt lat="45.31179" lon="4.6285">
        <ele>632.59997558594</ele>
        <time>2019-02-20T08:07:05.000Z</time>
      </trkpt>
      <trkpt lat="45.31177" lon="4.62851">
        <ele>632.79998779297</ele>
        <time>2019-02-20T08:07:06.000Z</time>
      </trkpt>
      <trkpt lat="45.31175" lon="4.62853">
        <ele>632.79998779297</ele>
        <time>2019-02-20T08:07:07.000Z</time>
      </trkpt>
      <trkpt lat="45.31173" lon="4.62854">
        <ele>632.79998779297</ele>
        <time>2019-02-20T08:07:08.000Z</time>
      </trkpt>
      <trkpt lat="45.31172" lon="4.62856">
        <ele>632.79998779297</ele>
        <time>2019-02-20T08:07:09.000Z</time>
      </trkpt>
      <trkpt lat="45.3117" lon="4.62857">
        <ele>633</ele>
        <time>2019-02-20T08:07:10.000Z</time>
      </trkpt>
      <trkpt lat="45.31169" lon="4.62859">
        <ele>633.20001220703</ele>
        <time>2019-02-20T08:07:11.000Z</time>
      </trkpt>
      <trkpt lat="45.31167" lon="4.6286">
        <ele>633.20001220703</ele>
        <time>2019-02-20T08:07:12.000Z</time>
      </trkpt>
      <trkpt lat="45.31165" lon="4.62861">
        <ele>633.20001220703</ele>
        <time>2019-02-20T08:07:13.000Z</time>
      </trkpt>
      <trkpt lat="45.31164" lon="4.62863">
        <ele>633.40002441406</ele>
        <time>2019-02-20T08:07:14.000Z</time>
      </trkpt>
      <trkpt lat="45.31162" lon="4.62864">
        <ele>633.40002441406</ele>
        <time>2019-02-20T08:07:15.000Z</time>
      </trkpt>
      <trkpt lat="45.31161" lon="4.62865">
        <ele>633.79998779297</ele>
        <time>2019-02-20T08:07:16.000Z</time>
      </trkpt>
      <trkpt lat="45.31159" lon="4.62866">
        <ele>634</ele>
        <time>2019-02-20T08:07:17.000Z</time>
      </trkpt>
      <trkpt lat="45.31157" lon="4.62867">
        <ele>634</ele>
        <time>2019-02-20T08:07:18.000Z</time>
      </trkpt>
      <trkpt lat="45.31155" lon="4.62868">
        <ele>634.40002441406</ele>
        <time>2019-02-20T08:07:19.000Z</time>
      </trkpt>
      <trkpt lat="45.31154" lon="4.62869">
        <ele>634.40002441406</ele>
        <time>2019-02-20T08:07:20.000Z</time>
      </trkpt>
      <trkpt lat="45.31152" lon="4.6287">
        <ele>634.59997558594</ele>
        <time>2019-02-20T08:07:21.000Z</time>
      </trkpt>
      <trkpt lat="45.31151" lon="4.62871">
        <ele>634.59997558594</ele>
        <time>2019-02-20T08:07:22.000Z</time>
      </trkpt>
      <trkpt lat="45.31149" lon="4.62873">
        <ele>634.59997558594</ele>
        <time>2019-02-20T08:07:23.000Z</time>
      </trkpt>
      <trkpt lat="45.31147" lon="4.62874">
        <ele>634.59997558594</ele>
        <time>2019-02-20T08:07:24.000Z</time>
      </trkpt>
      <trkpt lat="45.31146" lon="4.62875">
        <ele>635</ele>
        <time>2019-02-20T08:07:25.000Z</time>
      </trkpt>
      <trkpt lat="45.31144" lon="4.62876">
        <ele>635.20001220703</ele>
        <time>2019-02-20T08:07:26.000Z</time>
      </trkpt>
      <trkpt lat="45.31142" lon="4.62877">
        <ele>635.40002441406</ele>
        <time>2019-02-20T08:07:27.000Z</time>
      </trkpt>
      <trkpt lat="45.31141" lon="4.62879">
        <ele>635.40002441406</ele>
        <time>2019-02-20T08:07:28.000Z</time>
      </trkpt>
      <trkpt lat="45.31139" lon="4.6288">
        <ele>635.59997558594</ele>
        <time>2019-02-20T08:07:29.000Z</time>
      </trkpt>
      <trkpt lat="45.31137" lon="4.62881">
        <ele>635.59997558594</ele>
        <time>2019-02-20T08:07:30.000Z</time>
      </trkpt>
      <trkpt lat="45.31135" lon="4.62881">
        <ele>635.59997558594</ele>
        <time>2019-02-20T08:07:31.000Z</time>
      </trkpt>
      <trkpt lat="45.31133" lon="4.62882">
        <ele>635.79998779297</ele>
        <time>2019-02-20T08:07:32.000Z</time>
      </trkpt>
      <trkpt lat="45.31131" lon="4.62883">
        <ele>635.79998779297</ele>
        <time>2019-02-20T08:07:33.000Z</time>
      </trkpt>
      <trkpt lat="45.3113" lon="4.62884">
        <ele>636</ele>
        <time>2019-02-20T08:07:34.000Z</time>
      </trkpt>
      <trkpt lat="45.31128" lon="4.62885">
        <ele>635.79998779297</ele>
        <time>2019-02-20T08:07:35.000Z</time>
      </trkpt>
      <trkpt lat="45.31126" lon="4.62885">
        <ele>636</ele>
        <time>2019-02-20T08:07:36.000Z</time>
      </trkpt>
      <trkpt lat="45.31124" lon="4.62885">
        <ele>636</ele>
        <time>2019-02-20T08:07:37.000Z</time>
      </trkpt>
      <trkpt lat="45.31122" lon="4.62886">
        <ele>636</ele>
        <time>2019-02-20T08:07:38.000Z</time>
      </trkpt>
      <trkpt lat="45.3112" lon="4.62886">
        <ele>636.20001220703</ele>
        <time>2019-02-20T08:07:39.000Z</time>
      </trkpt>
      <trkpt lat="45.31118" lon="4.62887">
        <ele>636.40002441406</ele>
        <time>2019-02-20T08:07:40.000Z</time>
      </trkpt>
      <trkpt lat="45.31116" lon="4.62887">
        <ele>636.59997558594</ele>
        <time>2019-02-20T08:07:41.000Z</time>
      </trkpt>
      <trkpt lat="45.31114" lon="4.62888">
        <ele>636.79998779297</ele>
        <time>2019-02-20T08:07:42.000Z</time>
      </trkpt>
      <trkpt lat="45.31112" lon="4.62888">
        <ele>636.79998779297</ele>
        <time>2019-02-20T08:07:43.000Z</time>
      </trkpt>
      <trkpt lat="45.3111" lon="4.62888">
        <ele>636.79998779297</ele>
        <time>2019-02-20T08:07:44.000Z</time>
      </trkpt>
      <trkpt lat="45.31108" lon="4.62889">
        <ele>637</ele>
        <time>2019-02-20T08:07:45.000Z</time>
      </trkpt>
      <trkpt lat="45.31106" lon="4.62889">
        <ele>637.20001220703</ele>
        <time>2019-02-20T08:07:46.000Z</time>
      </trkpt>
      <trkpt lat="45.31104" lon="4.62889">
        <ele>637.20001220703</ele>
        <time>2019-02-20T08:07:47.000Z</time>
      </trkpt>
      <trkpt lat="45.31102" lon="4.62888">
        <ele>637.40002441406</ele>
        <time>2019-02-20T08:07:48.000Z</time>
      </trkpt>
      <trkpt lat="45.31101" lon="4.62888">
        <ele>637.59997558594</ele>
        <time>2019-02-20T08:07:49.000Z</time>
      </trkpt>
      <trkpt lat="45.31099" lon="4.62888">
        <ele>637.59997558594</ele>
        <time>2019-02-20T08:07:50.000Z</time>
      </trkpt>
      <trkpt lat="45.31097" lon="4.62888">
        <ele>637.59997558594</ele>
        <time>2019-02-20T08:07:51.000Z</time>
      </trkpt>
      <trkpt lat="45.31096" lon="4.62888">
        <ele>638</ele>
        <time>2019-02-20T08:07:52.000Z</time>
      </trkpt>
      <trkpt lat="45.31094" lon="4.62887">
        <ele>638.20001220703</ele>
        <time>2019-02-20T08:07:53.000Z</time>
      </trkpt>
      <trkpt lat="45.31092" lon="4.62887">
        <ele>638.20001220703</ele>
        <time>2019-02-20T08:07:54.000Z</time>
      </trkpt>
      <trkpt lat="45.3109" lon="4.62887">
        <ele>638.59997558594</ele>
        <time>2019-02-20T08:07:55.000Z</time>
      </trkpt>
      <trkpt lat="45.31089" lon="4.62887">
        <ele>638.79998779297</ele>
        <time>2019-02-20T08:07:56.000Z</time>
      </trkpt>
      <trkpt lat="45.31087" lon="4.62887">
        <ele>639</ele>
        <time>2019-02-20T08:07:57.000Z</time>
      </trkpt>
      <trkpt lat="45.31086" lon="4.62887">
        <ele>639.20001220703</ele>
        <time>2019-02-20T08:07:58.000Z</time>
      </trkpt>
      <trkpt lat="45.31084" lon="4.62886">
        <ele>639.40002441406</ele>
        <time>2019-02-20T08:07:59.000Z</time>
      </trkpt>
      <trkpt lat="45.31082" lon="4.62886">
        <ele>639.59997558594</ele>
        <time>2019-02-20T08:08:00.000Z</time>
      </trkpt>
      <trkpt lat="45.31081" lon="4.62885">
        <ele>639.59997558594</ele>
        <time>2019-02-20T08:08:01.000Z</time>
      </trkpt>
      <trkpt lat="45.31079" lon="4.62884">
        <ele>640</ele>
        <time>2019-02-20T08:08:02.000Z</time>
      </trkpt>
      <trkpt lat="45.31077" lon="4.62884">
        <ele>640</ele>
        <time>2019-02-20T08:08:03.000Z</time>
      </trkpt>
      <trkpt lat="45.31075" lon="4.62884">
        <ele>640.40002441406</ele>
        <time>2019-02-20T08:08:04.000Z</time>
      </trkpt>
      <trkpt lat="45.31074" lon="4.62883">
        <ele>640.40002441406</ele>
        <time>2019-02-20T08:08:05.000Z</time>
      </trkpt>
      <trkpt lat="45.31072" lon="4.62883">
        <ele>640.79998779297</ele>
        <time>2019-02-20T08:08:06.000Z</time>
      </trkpt>
      <trkpt lat="45.3107" lon="4.62883">
        <ele>641</ele>
        <time>2019-02-20T08:08:07.000Z</time>
      </trkpt>
      <trkpt lat="45.31068" lon="4.62882">
        <ele>641</ele>
        <time>2019-02-20T08:08:08.000Z</time>
      </trkpt>
      <trkpt lat="45.31067" lon="4.62882">
        <ele>641.20001220703</ele>
        <time>2019-02-20T08:08:09.000Z</time>
      </trkpt>
      <trkpt lat="45.31065" lon="4.62881">
        <ele>641.40002441406</ele>
        <time>2019-02-20T08:08:10.000Z</time>
      </trkpt>
      <trkpt lat="45.31063" lon="4.62881">
        <ele>641.20001220703</ele>
        <time>2019-02-20T08:08:11.000Z</time>
      </trkpt>
      <trkpt lat="45.31061" lon="4.6288">
        <ele>641.59997558594</ele>
        <time>2019-02-20T08:08:12.000Z</time>
      </trkpt>
      <trkpt lat="45.3106" lon="4.62879">
        <ele>641.59997558594</ele>
        <time>2019-02-20T08:08:13.000Z</time>
      </trkpt>
      <trkpt lat="45.31058" lon="4.62879">
        <ele>641.59997558594</ele>
        <time>2019-02-20T08:08:14.000Z</time>
      </trkpt>
      <trkpt lat="45.31056" lon="4.62878">
        <ele>641.59997558594</ele>
        <time>2019-02-20T08:08:15.000Z</time>
      </trkpt>
      <trkpt lat="45.31055" lon="4.62877">
        <ele>641.79998779297</ele>
        <time>2019-02-20T08:08:16.000Z</time>
      </trkpt>
      <trkpt lat="45.31054" lon="4.62877">
        <ele>641.79998779297</ele>
        <time>2019-02-20T08:08:17.000Z</time>
      </trkpt>
      <trkpt lat="45.31052" lon="4.62876">
        <ele>642</ele>
        <time>2019-02-20T08:08:18.000Z</time>
      </trkpt>
      <trkpt lat="45.31051" lon="4.62875">
        <ele>642</ele>
        <time>2019-02-20T08:08:19.000Z</time>
      </trkpt>
      <trkpt lat="45.31049" lon="4.62874">
        <ele>642.20001220703</ele>
        <time>2019-02-20T08:08:20.000Z</time>
      </trkpt>
      <trkpt lat="45.31047" lon="4.62874">
        <ele>642.40002441406</ele>
        <time>2019-02-20T08:08:21.000Z</time>
      </trkpt>
      <trkpt lat="45.31046" lon="4.62873">
        <ele>642.20001220703</ele>
        <time>2019-02-20T08:08:22.000Z</time>
      </trkpt>
      <trkpt lat="45.31044" lon="4.62872">
        <ele>642.59997558594</ele>
        <time>2019-02-20T08:08:23.000Z</time>
      </trkpt>
      <trkpt lat="45.31043" lon="4.62871">
        <ele>642.59997558594</ele>
        <time>2019-02-20T08:08:24.000Z</time>
      </trkpt>
      <trkpt lat="45.31041" lon="4.6287">
        <ele>642.59997558594</ele>
        <time>2019-02-20T08:08:25.000Z</time>
      </trkpt>
      <trkpt lat="45.31039" lon="4.62869">
        <ele>642.59997558594</ele>
        <time>2019-02-20T08:08:26.000Z</time>
      </trkpt>
      <trkpt lat="45.31039" lon="4.62868">
        <ele>642.59997558594</ele>
        <time>2019-02-20T08:08:27.000Z</time>
      </trkpt>
      <trkpt lat="45.31038" lon="4.62868">
        <ele>642.40002441406</ele>
        <time>2019-02-20T08:08:28.000Z</time>
      </trkpt>
      <trkpt lat="45.31038" lon="4.62868">
        <ele>642.59997558594</ele>
        <time>2019-02-20T08:08:29.000Z</time>
      </trkpt>
      <trkpt lat="45.31032" lon="4.62864">
        <ele>642.79998779297</ele>
        <time>2019-02-20T08:08:42.000Z</time>
      </trkpt>
      <trkpt lat="45.3103" lon="4.62863">
        <ele>642.59997558594</ele>
        <time>2019-02-20T08:08:43.000Z</time>
      </trkpt>
      <trkpt lat="45.31028" lon="4.62863">
        <ele>642.59997558594</ele>
        <time>2019-02-20T08:08:44.000Z</time>
      </trkpt>
      <trkpt lat="45.31027" lon="4.62862">
        <ele>642.59997558594</ele>
        <time>2019-02-20T08:08:45.000Z</time>
      </trkpt>
      <trkpt lat="45.31025" lon="4.62862">
        <ele>642.59997558594</ele>
        <time>2019-02-20T08:08:46.000Z</time>
      </trkpt>
      <trkpt lat="45.31023" lon="4.62861">
        <ele>642.59997558594</ele>
        <time>2019-02-20T08:08:47.000Z</time>
      </trkpt>
      <trkpt lat="45.31022" lon="4.6286">
        <ele>642.59997558594</ele>
        <time>2019-02-20T08:08:48.000Z</time>
      </trkpt>
      <trkpt lat="45.3102" lon="4.62859">
        <ele>642.59997558594</ele>
        <time>2019-02-20T08:08:49.000Z</time>
      </trkpt>
      <trkpt lat="45.31018" lon="4.62858">
        <ele>642.40002441406</ele>
        <time>2019-02-20T08:08:50.000Z</time>
      </trkpt>
      <trkpt lat="45.31017" lon="4.62858">
        <ele>642.40002441406</ele>
        <time>2019-02-20T08:08:51.000Z</time>
      </trkpt>
      <trkpt lat="45.31015" lon="4.62857">
        <ele>642.20001220703</ele>
        <time>2019-02-20T08:08:52.000Z</time>
      </trkpt>
      <trkpt lat="45.31013" lon="4.62856">
        <ele>642.40002441406</ele>
        <time>2019-02-20T08:08:53.000Z</time>
      </trkpt>
      <trkpt lat="45.31011" lon="4.62855">
        <ele>642.40002441406</ele>
        <time>2019-02-20T08:08:54.000Z</time>
      </trkpt>
      <trkpt lat="45.31008" lon="4.62855">
        <ele>642.40002441406</ele>
        <time>2019-02-20T08:08:55.000Z</time>
      </trkpt>
      <trkpt lat="45.31006" lon="4.62854">
        <ele>642.20001220703</ele>
        <time>2019-02-20T08:08:56.000Z</time>
      </trkpt>
      <trkpt lat="45.31004" lon="4.62853">
        <ele>642.20001220703</ele>
        <time>2019-02-20T08:08:57.000Z</time>
      </trkpt>
      <trkpt lat="45.31001" lon="4.62853">
        <ele>642</ele>
        <time>2019-02-20T08:08:58.000Z</time>
      </trkpt>
      <trkpt lat="45.31" lon="4.62852">
        <ele>642</ele>
        <time>2019-02-20T08:08:59.000Z</time>
      </trkpt>
      <trkpt lat="45.30998" lon="4.62851">
        <ele>642</ele>
        <time>2019-02-20T08:09:00.000Z</time>
      </trkpt>
      <trkpt lat="45.30997" lon="4.6285">
        <ele>641.79998779297</ele>
        <time>2019-02-20T08:09:01.000Z</time>
      </trkpt>
      <trkpt lat="45.30994" lon="4.6285">
        <ele>641.79998779297</ele>
        <time>2019-02-20T08:09:02.000Z</time>
      </trkpt>
      <trkpt lat="45.30992" lon="4.6285">
        <ele>641.40002441406</ele>
        <time>2019-02-20T08:09:03.000Z</time>
      </trkpt>
      <trkpt lat="45.30989" lon="4.62849">
        <ele>641.40002441406</ele>
        <time>2019-02-20T08:09:04.000Z</time>
      </trkpt>
      <trkpt lat="45.30987" lon="4.62848">
        <ele>641.40002441406</ele>
        <time>2019-02-20T08:09:05.000Z</time>
      </trkpt>
      <trkpt lat="45.30985" lon="4.62847">
        <ele>641.40002441406</ele>
        <time>2019-02-20T08:09:06.000Z</time>
      </trkpt>
      <trkpt lat="45.30982" lon="4.62846">
        <ele>641.40002441406</ele>
        <time>2019-02-20T08:09:07.000Z</time>
      </trkpt>
      <trkpt lat="45.3098" lon="4.62846">
        <ele>641.40002441406</ele>
        <time>2019-02-20T08:09:08.000Z</time>
      </trkpt>
      <trkpt lat="45.30978" lon="4.62845">
        <ele>641.40002441406</ele>
        <time>2019-02-20T08:09:09.000Z</time>
      </trkpt>
      <trkpt lat="45.30975" lon="4.62844">
        <ele>641.59997558594</ele>
        <time>2019-02-20T08:09:10.000Z</time>
      </trkpt>
      <trkpt lat="45.30973" lon="4.62844">
        <ele>641.40002441406</ele>
        <time>2019-02-20T08:09:11.000Z</time>
      </trkpt>
      <trkpt lat="45.30971" lon="4.62842">
        <ele>641.40002441406</ele>
        <time>2019-02-20T08:09:12.000Z</time>
      </trkpt>
      <trkpt lat="45.30969" lon="4.62841">
        <ele>641.40002441406</ele>
        <time>2019-02-20T08:09:13.000Z</time>
      </trkpt>
      <trkpt lat="45.30968" lon="4.6284">
        <ele>641.79998779297</ele>
        <time>2019-02-20T08:09:14.000Z</time>
      </trkpt>
      <trkpt lat="45.30966" lon="4.62839">
        <ele>641.79998779297</ele>
        <time>2019-02-20T08:09:15.000Z</time>
      </trkpt>
      <trkpt lat="45.30965" lon="4.62838">
        <ele>641.79998779297</ele>
        <time>2019-02-20T08:09:16.000Z</time>
      </trkpt>
      <trkpt lat="45.30964" lon="4.62838">
        <ele>642</ele>
        <time>2019-02-20T08:09:17.000Z</time>
      </trkpt>
      <trkpt lat="45.30962" lon="4.62837">
        <ele>642</ele>
        <time>2019-02-20T08:09:18.000Z</time>
      </trkpt>
      <trkpt lat="45.30961" lon="4.62837">
        <ele>642.40002441406</ele>
        <time>2019-02-20T08:09:19.000Z</time>
      </trkpt>
      <trkpt lat="45.30959" lon="4.62836">
        <ele>642.40002441406</ele>
        <time>2019-02-20T08:09:20.000Z</time>
      </trkpt>
      <trkpt lat="45.30958" lon="4.62835">
        <ele>642.79998779297</ele>
        <time>2019-02-20T08:09:21.000Z</time>
      </trkpt>
      <trkpt lat="45.30957" lon="4.62835">
        <ele>643</ele>
        <time>2019-02-20T08:09:22.000Z</time>
      </trkpt>
      <trkpt lat="45.30956" lon="4.62834">
        <ele>643.20001220703</ele>
        <time>2019-02-20T08:09:23.000Z</time>
      </trkpt>
      <trkpt lat="45.30954" lon="4.62833">
        <ele>643.40002441406</ele>
        <time>2019-02-20T08:09:24.000Z</time>
      </trkpt>
      <trkpt lat="45.30953" lon="4.62832">
        <ele>643.79998779297</ele>
        <time>2019-02-20T08:09:25.000Z</time>
      </trkpt>
      <trkpt lat="45.30951" lon="4.62831">
        <ele>643.59997558594</ele>
        <time>2019-02-20T08:09:26.000Z</time>
      </trkpt>
      <trkpt lat="45.3095" lon="4.6283">
        <ele>643.79998779297</ele>
        <time>2019-02-20T08:09:27.000Z</time>
      </trkpt>
      <trkpt lat="45.30948" lon="4.62829">
        <ele>644</ele>
        <time>2019-02-20T08:09:28.000Z</time>
      </trkpt>
      <trkpt lat="45.30946" lon="4.62828">
        <ele>644.40002441406</ele>
        <time>2019-02-20T08:09:29.000Z</time>
      </trkpt>
      <trkpt lat="45.30945" lon="4.62827">
        <ele>644.40002441406</ele>
        <time>2019-02-20T08:09:30.000Z</time>
      </trkpt>
      <trkpt lat="45.30943" lon="4.62826">
        <ele>644.79998779297</ele>
        <time>2019-02-20T08:09:31.000Z</time>
      </trkpt>
      <trkpt lat="45.30942" lon="4.62824">
        <ele>645</ele>
        <time>2019-02-20T08:09:32.000Z</time>
      </trkpt>
      <trkpt lat="45.3094" lon="4.62823">
        <ele>645.20001220703</ele>
        <time>2019-02-20T08:09:33.000Z</time>
      </trkpt>
      <trkpt lat="45.30938" lon="4.62823">
        <ele>645.20001220703</ele>
        <time>2019-02-20T08:09:34.000Z</time>
      </trkpt>
      <trkpt lat="45.30937" lon="4.62822">
        <ele>645.40002441406</ele>
        <time>2019-02-20T08:09:35.000Z</time>
      </trkpt>
      <trkpt lat="45.30935" lon="4.62821">
        <ele>645.79998779297</ele>
        <time>2019-02-20T08:09:36.000Z</time>
      </trkpt>
      <trkpt lat="45.30933" lon="4.6282">
        <ele>645.79998779297</ele>
        <time>2019-02-20T08:09:37.000Z</time>
      </trkpt>
      <trkpt lat="45.30932" lon="4.62819">
        <ele>646.20001220703</ele>
        <time>2019-02-20T08:09:38.000Z</time>
      </trkpt>
      <trkpt lat="45.3093" lon="4.62818">
        <ele>646.20001220703</ele>
        <time>2019-02-20T08:09:39.000Z</time>
      </trkpt>
      <trkpt lat="45.30928" lon="4.62817">
        <ele>646.40002441406</ele>
        <time>2019-02-20T08:09:40.000Z</time>
      </trkpt>
      <trkpt lat="45.30927" lon="4.62816">
        <ele>646.79998779297</ele>
        <time>2019-02-20T08:09:41.000Z</time>
      </trkpt>
      <trkpt lat="45.30925" lon="4.62815">
        <ele>647.20001220703</ele>
        <time>2019-02-20T08:09:42.000Z</time>
      </trkpt>
      <trkpt lat="45.30923" lon="4.62814">
        <ele>647.40002441406</ele>
        <time>2019-02-20T08:09:43.000Z</time>
      </trkpt>
      <trkpt lat="45.30922" lon="4.62813">
        <ele>647.79998779297</ele>
        <time>2019-02-20T08:09:44.000Z</time>
      </trkpt>
      <trkpt lat="45.3092" lon="4.62812">
        <ele>648</ele>
        <time>2019-02-20T08:09:45.000Z</time>
      </trkpt>
      <trkpt lat="45.30919" lon="4.62811">
        <ele>648.40002441406</ele>
        <time>2019-02-20T08:09:46.000Z</time>
      </trkpt>
      <trkpt lat="45.30917" lon="4.6281">
        <ele>648.40002441406</ele>
        <time>2019-02-20T08:09:47.000Z</time>
      </trkpt>
      <trkpt lat="45.30916" lon="4.62809">
        <ele>648.59997558594</ele>
        <time>2019-02-20T08:09:48.000Z</time>
      </trkpt>
      <trkpt lat="45.30915" lon="4.62808">
        <ele>648.59997558594</ele>
        <time>2019-02-20T08:09:49.000Z</time>
      </trkpt>
      <trkpt lat="45.30913" lon="4.62807">
        <ele>648.79998779297</ele>
        <time>2019-02-20T08:09:50.000Z</time>
      </trkpt>
      <trkpt lat="45.30912" lon="4.62807">
        <ele>649.20001220703</ele>
        <time>2019-02-20T08:09:51.000Z</time>
      </trkpt>
      <trkpt lat="45.30911" lon="4.62805">
        <ele>649.20001220703</ele>
        <time>2019-02-20T08:09:52.000Z</time>
      </trkpt>
      <trkpt lat="45.30909" lon="4.62804">
        <ele>649.20001220703</ele>
        <time>2019-02-20T08:09:53.000Z</time>
      </trkpt>
      <trkpt lat="45.30908" lon="4.62803">
        <ele>649.40002441406</ele>
        <time>2019-02-20T08:09:54.000Z</time>
      </trkpt>
      <trkpt lat="45.30906" lon="4.62802">
        <ele>649.59997558594</ele>
        <time>2019-02-20T08:09:55.000Z</time>
      </trkpt>
      <trkpt lat="45.30905" lon="4.62802">
        <ele>649.59997558594</ele>
        <time>2019-02-20T08:09:56.000Z</time>
      </trkpt>
      <trkpt lat="45.30904" lon="4.62801">
        <ele>650</ele>
        <time>2019-02-20T08:09:57.000Z</time>
      </trkpt>
      <trkpt lat="45.30903" lon="4.628">
        <ele>650</ele>
        <time>2019-02-20T08:09:58.000Z</time>
      </trkpt>
      <trkpt lat="45.30901" lon="4.628">
        <ele>650</ele>
        <time>2019-02-20T08:09:59.000Z</time>
      </trkpt>
      <trkpt lat="45.309" lon="4.62799">
        <ele>650.20001220703</ele>
        <time>2019-02-20T08:10:00.000Z</time>
      </trkpt>
      <trkpt lat="45.30898" lon="4.62798">
        <ele>650.40002441406</ele>
        <time>2019-02-20T08:10:01.000Z</time>
      </trkpt>
      <trkpt lat="45.30897" lon="4.62797">
        <ele>650.40002441406</ele>
        <time>2019-02-20T08:10:02.000Z</time>
      </trkpt>
      <trkpt lat="45.30895" lon="4.62797">
        <ele>650.59997558594</ele>
        <time>2019-02-20T08:10:03.000Z</time>
      </trkpt>
      <trkpt lat="45.30893" lon="4.62796">
        <ele>650.59997558594</ele>
        <time>2019-02-20T08:10:04.000Z</time>
      </trkpt>
      <trkpt lat="45.30892" lon="4.62796">
        <ele>650.79998779297</ele>
        <time>2019-02-20T08:10:05.000Z</time>
      </trkpt>
      <trkpt lat="45.3089" lon="4.62795">
        <ele>651</ele>
        <time>2019-02-20T08:10:06.000Z</time>
      </trkpt>
      <trkpt lat="45.30889" lon="4.62794">
        <ele>651</ele>
        <time>2019-02-20T08:10:07.000Z</time>
      </trkpt>
      <trkpt lat="45.30888" lon="4.62794">
        <ele>651</ele>
        <time>2019-02-20T08:10:08.000Z</time>
      </trkpt>
      <trkpt lat="45.30887" lon="4.62793">
        <ele>651.20001220703</ele>
        <time>2019-02-20T08:10:09.000Z</time>
      </trkpt>
      <trkpt lat="45.30886" lon="4.62793">
        <ele>651.20001220703</ele>
        <time>2019-02-20T08:10:10.000Z</time>
      </trkpt>
      <trkpt lat="45.30885" lon="4.62792">
        <ele>651.20001220703</ele>
        <time>2019-02-20T08:10:11.000Z</time>
      </trkpt>
      <trkpt lat="45.30884" lon="4.62792">
        <ele>651.59997558594</ele>
        <time>2019-02-20T08:10:12.000Z</time>
      </trkpt>
      <trkpt lat="45.30882" lon="4.62791">
        <ele>651.79998779297</ele>
        <time>2019-02-20T08:10:13.000Z</time>
      </trkpt>
      <trkpt lat="45.30881" lon="4.6279">
        <ele>651.79998779297</ele>
        <time>2019-02-20T08:10:14.000Z</time>
      </trkpt>
      <trkpt lat="45.3088" lon="4.62789">
        <ele>651.59997558594</ele>
        <time>2019-02-20T08:10:15.000Z</time>
      </trkpt>
      <trkpt lat="45.3088" lon="4.62788">
        <ele>651.79998779297</ele>
        <time>2019-02-20T08:10:16.000Z</time>
      </trkpt>
      <trkpt lat="45.30879" lon="4.62787">
        <ele>651.79998779297</ele>
        <time>2019-02-20T08:10:17.000Z</time>
      </trkpt>
      <trkpt lat="45.30879" lon="4.62786">
        <ele>651.79998779297</ele>
        <time>2019-02-20T08:10:18.000Z</time>
      </trkpt>
      <trkpt lat="45.30878" lon="4.62784">
        <ele>652</ele>
        <time>2019-02-20T08:10:19.000Z</time>
      </trkpt>
      <trkpt lat="45.30878" lon="4.62784">
        <ele>652</ele>
        <time>2019-02-20T08:10:20.000Z</time>
      </trkpt>
      <trkpt lat="45.30878" lon="4.62783">
        <ele>651.79998779297</ele>
        <time>2019-02-20T08:10:21.000Z</time>
      </trkpt>
      <trkpt lat="45.30875" lon="4.62773">
        <ele>652.20001220703</ele>
        <time>2019-02-20T08:18:09.000Z</time>
      </trkpt>
      <trkpt lat="45.30876" lon="4.62771">
        <ele>652.20001220703</ele>
        <time>2019-02-20T08:18:10.000Z</time>
      </trkpt>
      <trkpt lat="45.30876" lon="4.62769">
        <ele>652.20001220703</ele>
        <time>2019-02-20T08:18:11.000Z</time>
      </trkpt>
      <trkpt lat="45.30876" lon="4.62768">
        <ele>652.20001220703</ele>
        <time>2019-02-20T08:18:12.000Z</time>
      </trkpt>
      <trkpt lat="45.30877" lon="4.62766">
        <ele>652.20001220703</ele>
        <time>2019-02-20T08:18:13.000Z</time>
      </trkpt>
      <trkpt lat="45.30877" lon="4.62764">
        <ele>652.20001220703</ele>
        <time>2019-02-20T08:18:14.000Z</time>
      </trkpt>
      <trkpt lat="45.30877" lon="4.62763">
        <ele>652.40002441406</ele>
        <time>2019-02-20T08:18:15.000Z</time>
      </trkpt>
      <trkpt lat="45.30878" lon="4.62761">
        <ele>652.20001220703</ele>
        <time>2019-02-20T08:18:16.000Z</time>
      </trkpt>
      <trkpt lat="45.30878" lon="4.6276">
        <ele>652.20001220703</ele>
        <time>2019-02-20T08:18:17.000Z</time>
      </trkpt>
      <trkpt lat="45.30879" lon="4.62758">
        <ele>652.20001220703</ele>
        <time>2019-02-20T08:18:18.000Z</time>
      </trkpt>
      <trkpt lat="45.30879" lon="4.62756">
        <ele>652.40002441406</ele>
        <time>2019-02-20T08:18:19.000Z</time>
      </trkpt>
      <trkpt lat="45.3088" lon="4.62753">
        <ele>652.40002441406</ele>
        <time>2019-02-20T08:18:20.000Z</time>
      </trkpt>
      <trkpt lat="45.30881" lon="4.62751">
        <ele>652.40002441406</ele>
        <time>2019-02-20T08:18:21.000Z</time>
      </trkpt>
      <trkpt lat="45.30882" lon="4.62748">
        <ele>652.59997558594</ele>
        <time>2019-02-20T08:18:22.000Z</time>
      </trkpt>
      <trkpt lat="45.30882" lon="4.62746">
        <ele>652.59997558594</ele>
        <time>2019-02-20T08:18:23.000Z</time>
      </trkpt>
      <trkpt lat="45.30883" lon="4.62743">
        <ele>652.79998779297</ele>
        <time>2019-02-20T08:18:24.000Z</time>
      </trkpt>
      <trkpt lat="45.30884" lon="4.62741">
        <ele>653</ele>
        <time>2019-02-20T08:18:25.000Z</time>
      </trkpt>
      <trkpt lat="45.30884" lon="4.62738">
        <ele>653</ele>
        <time>2019-02-20T08:18:26.000Z</time>
      </trkpt>
      <trkpt lat="45.30885" lon="4.62736">
        <ele>653</ele>
        <time>2019-02-20T08:18:27.000Z</time>
      </trkpt>
      <trkpt lat="45.30886" lon="4.62733">
        <ele>653.20001220703</ele>
        <time>2019-02-20T08:18:28.000Z</time>
      </trkpt>
      <trkpt lat="45.30887" lon="4.62731">
        <ele>653.20001220703</ele>
        <time>2019-02-20T08:18:29.000Z</time>
      </trkpt>
      <trkpt lat="45.30887" lon="4.62728">
        <ele>653.20001220703</ele>
        <time>2019-02-20T08:18:30.000Z</time>
      </trkpt>
      <trkpt lat="45.30888" lon="4.62725">
        <ele>653.20001220703</ele>
        <time>2019-02-20T08:18:31.000Z</time>
      </trkpt>
      <trkpt lat="45.30889" lon="4.62722">
        <ele>653.40002441406</ele>
        <time>2019-02-20T08:18:32.000Z</time>
      </trkpt>
      <trkpt lat="45.30891" lon="4.62718">
        <ele>653.20001220703</ele>
        <time>2019-02-20T08:18:33.000Z</time>
      </trkpt>
      <trkpt lat="45.30892" lon="4.62714">
        <ele>653.20001220703</ele>
        <time>2019-02-20T08:18:34.000Z</time>
      </trkpt>
      <trkpt lat="45.30893" lon="4.6271">
        <ele>653.20001220703</ele>
        <time>2019-02-20T08:18:35.000Z</time>
      </trkpt>
      <trkpt lat="45.30894" lon="4.62706">
        <ele>653.20001220703</ele>
        <time>2019-02-20T08:18:36.000Z</time>
      </trkpt>
      <trkpt lat="45.30895" lon="4.62701">
        <ele>653.20001220703</ele>
        <time>2019-02-20T08:18:37.000Z</time>
      </trkpt>
      <trkpt lat="45.30896" lon="4.62695">
        <ele>653.20001220703</ele>
        <time>2019-02-20T08:18:38.000Z</time>
      </trkpt>
      <trkpt lat="45.30898" lon="4.62689">
        <ele>653</ele>
        <time>2019-02-20T08:18:39.000Z</time>
      </trkpt>
      <trkpt lat="45.30899" lon="4.62683">
        <ele>653</ele>
        <time>2019-02-20T08:18:40.000Z</time>
      </trkpt>
      <trkpt lat="45.30901" lon="4.62677">
        <ele>652.79998779297</ele>
        <time>2019-02-20T08:18:41.000Z</time>
      </trkpt>
      <trkpt lat="45.30902" lon="4.6267">
        <ele>652.79998779297</ele>
        <time>2019-02-20T08:18:42.000Z</time>
      </trkpt>
      <trkpt lat="45.30904" lon="4.62663">
        <ele>652.40002441406</ele>
        <time>2019-02-20T08:18:43.000Z</time>
      </trkpt>
      <trkpt lat="45.30906" lon="4.62656">
        <ele>652.20001220703</ele>
        <time>2019-02-20T08:18:44.000Z</time>
      </trkpt>
      <trkpt lat="45.30908" lon="4.62649">
        <ele>651.79998779297</ele>
        <time>2019-02-20T08:18:45.000Z</time>
      </trkpt>
      <trkpt lat="45.30909" lon="4.62642">
        <ele>651.40002441406</ele>
        <time>2019-02-20T08:18:46.000Z</time>
      </trkpt>
      <trkpt lat="45.30911" lon="4.62635">
        <ele>650.79998779297</ele>
        <time>2019-02-20T08:18:47.000Z</time>
      </trkpt>
      <trkpt lat="45.30913" lon="4.62628">
        <ele>650.20001220703</ele>
        <time>2019-02-20T08:18:48.000Z</time>
      </trkpt>
      <trkpt lat="45.30916" lon="4.62621">
        <ele>649.59997558594</ele>
        <time>2019-02-20T08:18:49.000Z</time>
      </trkpt>
      <trkpt lat="45.30919" lon="4.62615">
        <ele>649.20001220703</ele>
        <time>2019-02-20T08:18:50.000Z</time>
      </trkpt>
      <trkpt lat="45.30921" lon="4.6261">
        <ele>648.20001220703</ele>
        <time>2019-02-20T08:18:51.000Z</time>
      </trkpt>
      <trkpt lat="45.30923" lon="4.62605">
        <ele>647.79998779297</ele>
        <time>2019-02-20T08:18:52.000Z</time>
      </trkpt>
      <trkpt lat="45.30926" lon="4.626">
        <ele>647.40002441406</ele>
        <time>2019-02-20T08:18:53.000Z</time>
      </trkpt>
      <trkpt lat="45.30928" lon="4.62596">
        <ele>647.20001220703</ele>
        <time>2019-02-20T08:18:54.000Z</time>
      </trkpt>
      <trkpt lat="45.3093" lon="4.62592">
        <ele>646.79998779297</ele>
        <time>2019-02-20T08:18:55.000Z</time>
      </trkpt>
      <trkpt lat="45.30933" lon="4.62588">
        <ele>646.40002441406</ele>
        <time>2019-02-20T08:18:56.000Z</time>
      </trkpt>
      <trkpt lat="45.30935" lon="4.62584">
        <ele>646</ele>
        <time>2019-02-20T08:18:57.000Z</time>
      </trkpt>
      <trkpt lat="45.30938" lon="4.6258">
        <ele>645.59997558594</ele>
        <time>2019-02-20T08:18:58.000Z</time>
      </trkpt>
      <trkpt lat="45.3094" lon="4.62576">
        <ele>645.59997558594</ele>
        <time>2019-02-20T08:18:59.000Z</time>
      </trkpt>
      <trkpt lat="45.30942" lon="4.62572">
        <ele>645.59997558594</ele>
        <time>2019-02-20T08:19:00.000Z</time>
      </trkpt>
      <trkpt lat="45.30943" lon="4.62568">
        <ele>645.40002441406</ele>
        <time>2019-02-20T08:19:01.000Z</time>
      </trkpt>
      <trkpt lat="45.30942" lon="4.62564">
        <ele>645.40002441406</ele>
        <time>2019-02-20T08:19:02.000Z</time>
      </trkpt>
      <trkpt lat="45.30941" lon="4.6256">
        <ele>645.40002441406</ele>
        <time>2019-02-20T08:19:03.000Z</time>
      </trkpt>
      <trkpt lat="45.30939" lon="4.62557">
        <ele>645.20001220703</ele>
        <time>2019-02-20T08:19:04.000Z</time>
      </trkpt>
      <trkpt lat="45.30937" lon="4.62553">
        <ele>645.20001220703</ele>
        <time>2019-02-20T08:19:05.000Z</time>
      </trkpt>
      <trkpt lat="45.30935" lon="4.6255">
        <ele>645.20001220703</ele>
        <time>2019-02-20T08:19:06.000Z</time>
      </trkpt>
      <trkpt lat="45.30932" lon="4.62546">
        <ele>645.20001220703</ele>
        <time>2019-02-20T08:19:07.000Z</time>
      </trkpt>
      <trkpt lat="45.3093" lon="4.62543">
        <ele>645.40002441406</ele>
        <time>2019-02-20T08:19:08.000Z</time>
      </trkpt>
      <trkpt lat="45.30928" lon="4.6254">
        <ele>645.20001220703</ele>
        <time>2019-02-20T08:19:09.000Z</time>
      </trkpt>
      <trkpt lat="45.30926" lon="4.62537">
        <ele>645.20001220703</ele>
        <time>2019-02-20T08:19:10.000Z</time>
      </trkpt>
      <trkpt lat="45.30923" lon="4.62534">
        <ele>645.40002441406</ele>
        <time>2019-02-20T08:19:11.000Z</time>
      </trkpt>
      <trkpt lat="45.30921" lon="4.62531">
        <ele>645.59997558594</ele>
        <time>2019-02-20T08:19:12.000Z</time>
      </trkpt>
      <trkpt lat="45.30919" lon="4.62529">
        <ele>645.40002441406</ele>
        <time>2019-02-20T08:19:13.000Z</time>
      </trkpt>
      <trkpt lat="45.30917" lon="4.62526">
        <ele>645.40002441406</ele>
        <time>2019-02-20T08:19:14.000Z</time>
      </trkpt>
      <trkpt lat="45.30915" lon="4.62523">
        <ele>645.59997558594</ele>
        <time>2019-02-20T08:19:15.000Z</time>
      </trkpt>
      <trkpt lat="45.30913" lon="4.62521">
        <ele>645.79998779297</ele>
        <time>2019-02-20T08:19:16.000Z</time>
      </trkpt>
      <trkpt lat="45.30911" lon="4.62518">
        <ele>646.20001220703</ele>
        <time>2019-02-20T08:19:17.000Z</time>
      </trkpt>
      <trkpt lat="45.30909" lon="4.62515">
        <ele>646.20001220703</ele>
        <time>2019-02-20T08:19:18.000Z</time>
      </trkpt>
      <trkpt lat="45.30907" lon="4.62513">
        <ele>646.40002441406</ele>
        <time>2019-02-20T08:19:19.000Z</time>
      </trkpt>
      <trkpt lat="45.30905" lon="4.6251">
        <ele>646.20001220703</ele>
        <time>2019-02-20T08:19:20.000Z</time>
      </trkpt>
      <trkpt lat="45.30904" lon="4.62506">
        <ele>646.40002441406</ele>
        <time>2019-02-20T08:19:21.000Z</time>
      </trkpt>
      <trkpt lat="45.30903" lon="4.62503">
        <ele>646.40002441406</ele>
        <time>2019-02-20T08:19:22.000Z</time>
      </trkpt>
      <trkpt lat="45.30901" lon="4.62499">
        <ele>646.59997558594</ele>
        <time>2019-02-20T08:19:23.000Z</time>
      </trkpt>
      <trkpt lat="45.30901" lon="4.62495">
        <ele>646.59997558594</ele>
        <time>2019-02-20T08:19:24.000Z</time>
      </trkpt>
      <trkpt lat="45.309" lon="4.6249">
        <ele>646.79998779297</ele>
        <time>2019-02-20T08:19:25.000Z</time>
      </trkpt>
      <trkpt lat="45.309" lon="4.62486">
        <ele>646.59997558594</ele>
        <time>2019-02-20T08:19:26.000Z</time>
      </trkpt>
      <trkpt lat="45.30899" lon="4.62481">
        <ele>647</ele>
        <time>2019-02-20T08:19:27.000Z</time>
      </trkpt>
      <trkpt lat="45.30898" lon="4.62477">
        <ele>647.20001220703</ele>
        <time>2019-02-20T08:19:28.000Z</time>
      </trkpt>
      <trkpt lat="45.30897" lon="4.62473">
        <ele>647.20001220703</ele>
        <time>2019-02-20T08:19:29.000Z</time>
      </trkpt>
      <trkpt lat="45.30896" lon="4.62469">
        <ele>647.40002441406</ele>
        <time>2019-02-20T08:19:30.000Z</time>
      </trkpt>
      <trkpt lat="45.30896" lon="4.62465">
        <ele>647.40002441406</ele>
        <time>2019-02-20T08:19:31.000Z</time>
      </trkpt>
      <trkpt lat="45.30896" lon="4.62461">
        <ele>647.20001220703</ele>
        <time>2019-02-20T08:19:32.000Z</time>
      </trkpt>
      <trkpt lat="45.30896" lon="4.62457">
        <ele>647.40002441406</ele>
        <time>2019-02-20T08:19:33.000Z</time>
      </trkpt>
      <trkpt lat="45.30896" lon="4.62453">
        <ele>647.59997558594</ele>
        <time>2019-02-20T08:19:34.000Z</time>
      </trkpt>
      <trkpt lat="45.30896" lon="4.62449">
        <ele>647.79998779297</ele>
        <time>2019-02-20T08:19:35.000Z</time>
      </trkpt>
      <trkpt lat="45.30897" lon="4.62445">
        <ele>647.79998779297</ele>
        <time>2019-02-20T08:19:36.000Z</time>
      </trkpt>
      <trkpt lat="45.30898" lon="4.6244">
        <ele>647.59997558594</ele>
        <time>2019-02-20T08:19:37.000Z</time>
      </trkpt>
      <trkpt lat="45.30899" lon="4.62437">
        <ele>647.79998779297</ele>
        <time>2019-02-20T08:19:38.000Z</time>
      </trkpt>
      <trkpt lat="45.30899" lon="4.62434">
        <ele>647.59997558594</ele>
        <time>2019-02-20T08:19:39.000Z</time>
      </trkpt>
      <trkpt lat="45.309" lon="4.62431">
        <ele>647.59997558594</ele>
        <time>2019-02-20T08:19:40.000Z</time>
      </trkpt>
      <trkpt lat="45.309" lon="4.62428">
        <ele>647.59997558594</ele>
        <time>2019-02-20T08:19:41.000Z</time>
      </trkpt>
      <trkpt lat="45.30901" lon="4.62424">
        <ele>647.79998779297</ele>
        <time>2019-02-20T08:19:42.000Z</time>
      </trkpt>
      <trkpt lat="45.30902" lon="4.6242">
        <ele>647.79998779297</ele>
        <time>2019-02-20T08:19:43.000Z</time>
      </trkpt>
      <trkpt lat="45.30903" lon="4.62416">
        <ele>648</ele>
        <time>2019-02-20T08:19:44.000Z</time>
      </trkpt>
      <trkpt lat="45.30903" lon="4.62413">
        <ele>648</ele>
        <time>2019-02-20T08:19:45.000Z</time>
      </trkpt>
      <trkpt lat="45.30903" lon="4.6241">
        <ele>648</ele>
        <time>2019-02-20T08:19:46.000Z</time>
      </trkpt>
      <trkpt lat="45.30902" lon="4.62406">
        <ele>648.20001220703</ele>
        <time>2019-02-20T08:19:47.000Z</time>
      </trkpt>
      <trkpt lat="45.30902" lon="4.62403">
        <ele>648.40002441406</ele>
        <time>2019-02-20T08:19:48.000Z</time>
      </trkpt>
      <trkpt lat="45.30901" lon="4.624">
        <ele>648.59997558594</ele>
        <time>2019-02-20T08:19:49.000Z</time>
      </trkpt>
      <trkpt lat="45.309" lon="4.62397">
        <ele>648.79998779297</ele>
        <time>2019-02-20T08:19:50.000Z</time>
      </trkpt>
      <trkpt lat="45.309" lon="4.62394">
        <ele>648.79998779297</ele>
        <time>2019-02-20T08:19:51.000Z</time>
      </trkpt>
      <trkpt lat="45.30899" lon="4.62392">
        <ele>649</ele>
        <time>2019-02-20T08:19:52.000Z</time>
      </trkpt>
      <trkpt lat="45.30898" lon="4.6239">
        <ele>649.20001220703</ele>
        <time>2019-02-20T08:19:53.000Z</time>
      </trkpt>
      <trkpt lat="45.30896" lon="4.62388">
        <ele>649.20001220703</ele>
        <time>2019-02-20T08:19:54.000Z</time>
      </trkpt>
      <trkpt lat="45.30895" lon="4.62386">
        <ele>649.20001220703</ele>
        <time>2019-02-20T08:19:55.000Z</time>
      </trkpt>
      <trkpt lat="45.30894" lon="4.62384">
        <ele>649.59997558594</ele>
        <time>2019-02-20T08:19:56.000Z</time>
      </trkpt>
      <trkpt lat="45.30893" lon="4.62382">
        <ele>649.59997558594</ele>
        <time>2019-02-20T08:19:57.000Z</time>
      </trkpt>
      <trkpt lat="45.30892" lon="4.6238">
        <ele>650</ele>
        <time>2019-02-20T08:19:58.000Z</time>
      </trkpt>
      <trkpt lat="45.3089" lon="4.62378">
        <ele>650.40002441406</ele>
        <time>2019-02-20T08:19:59.000Z</time>
      </trkpt>
      <trkpt lat="45.30889" lon="4.62376">
        <ele>650.59997558594</ele>
        <time>2019-02-20T08:20:00.000Z</time>
      </trkpt>
      <trkpt lat="45.30887" lon="4.62374">
        <ele>650.79998779297</ele>
        <time>2019-02-20T08:20:01.000Z</time>
      </trkpt>
      <trkpt lat="45.30886" lon="4.62372">
        <ele>651.20001220703</ele>
        <time>2019-02-20T08:20:02.000Z</time>
      </trkpt>
      <trkpt lat="45.30884" lon="4.6237">
        <ele>651.40002441406</ele>
        <time>2019-02-20T08:20:03.000Z</time>
      </trkpt>
      <trkpt lat="45.30882" lon="4.62369">
        <ele>651.79998779297</ele>
        <time>2019-02-20T08:20:04.000Z</time>
      </trkpt>
      <trkpt lat="45.30881" lon="4.62367">
        <ele>652.20001220703</ele>
        <time>2019-02-20T08:20:05.000Z</time>
      </trkpt>
      <trkpt lat="45.3088" lon="4.62366">
        <ele>652.20001220703</ele>
        <time>2019-02-20T08:20:06.000Z</time>
      </trkpt>
      <trkpt lat="45.30879" lon="4.62365">
        <ele>652.59997558594</ele>
        <time>2019-02-20T08:20:07.000Z</time>
      </trkpt>
      <trkpt lat="45.30878" lon="4.62363">
        <ele>652.59997558594</ele>
        <time>2019-02-20T08:20:08.000Z</time>
      </trkpt>
      <trkpt lat="45.30877" lon="4.6236">
        <ele>653</ele>
        <time>2019-02-20T08:20:09.000Z</time>
      </trkpt>
      <trkpt lat="45.30876" lon="4.62358">
        <ele>653.40002441406</ele>
        <time>2019-02-20T08:20:10.000Z</time>
      </trkpt>
      <trkpt lat="45.30875" lon="4.62355">
        <ele>653.59997558594</ele>
        <time>2019-02-20T08:20:11.000Z</time>
      </trkpt>
      <trkpt lat="45.30874" lon="4.62352">
        <ele>653.79998779297</ele>
        <time>2019-02-20T08:20:12.000Z</time>
      </trkpt>
      <trkpt lat="45.30873" lon="4.62349">
        <ele>654</ele>
        <time>2019-02-20T08:20:13.000Z</time>
      </trkpt>
      <trkpt lat="45.30872" lon="4.62347">
        <ele>654.20001220703</ele>
        <time>2019-02-20T08:20:14.000Z</time>
      </trkpt>
      <trkpt lat="45.30871" lon="4.62344">
        <ele>654.40002441406</ele>
        <time>2019-02-20T08:20:15.000Z</time>
      </trkpt>
      <trkpt lat="45.3087" lon="4.62341">
        <ele>654.59997558594</ele>
        <time>2019-02-20T08:20:16.000Z</time>
      </trkpt>
      <trkpt lat="45.30869" lon="4.62338">
        <ele>654.79998779297</ele>
        <time>2019-02-20T08:20:17.000Z</time>
      </trkpt>
      <trkpt lat="45.30868" lon="4.62336">
        <ele>654.79998779297</ele>
        <time>2019-02-20T08:20:18.000Z</time>
      </trkpt>
      <trkpt lat="45.30867" lon="4.62333">
        <ele>654.79998779297</ele>
        <time>2019-02-20T08:20:19.000Z</time>
      </trkpt>
      <trkpt lat="45.30866" lon="4.6233">
        <ele>655</ele>
        <time>2019-02-20T08:20:20.000Z</time>
      </trkpt>
      <trkpt lat="45.30866" lon="4.62327">
        <ele>655</ele>
        <time>2019-02-20T08:20:21.000Z</time>
      </trkpt>
      <trkpt lat="45.30865" lon="4.62323">
        <ele>655.20001220703</ele>
        <time>2019-02-20T08:20:22.000Z</time>
      </trkpt>
      <trkpt lat="45.30864" lon="4.62319">
        <ele>655.20001220703</ele>
        <time>2019-02-20T08:20:23.000Z</time>
      </trkpt>
      <trkpt lat="45.30863" lon="4.62316">
        <ele>655.40002441406</ele>
        <time>2019-02-20T08:20:24.000Z</time>
      </trkpt>
      <trkpt lat="45.30862" lon="4.62312">
        <ele>655.59997558594</ele>
        <time>2019-02-20T08:20:25.000Z</time>
      </trkpt>
      <trkpt lat="45.30861" lon="4.62308">
        <ele>655.79998779297</ele>
        <time>2019-02-20T08:20:26.000Z</time>
      </trkpt>
      <trkpt lat="45.3086" lon="4.62306">
        <ele>655.79998779297</ele>
        <time>2019-02-20T08:20:27.000Z</time>
      </trkpt>
      <trkpt lat="45.30859" lon="4.62303">
        <ele>656</ele>
        <time>2019-02-20T08:20:28.000Z</time>
      </trkpt>
      <trkpt lat="45.30857" lon="4.623">
        <ele>656.20001220703</ele>
        <time>2019-02-20T08:20:29.000Z</time>
      </trkpt>
      <trkpt lat="45.30855" lon="4.62297">
        <ele>656.20001220703</ele>
        <time>2019-02-20T08:20:30.000Z</time>
      </trkpt>
      <trkpt lat="45.30853" lon="4.62295">
        <ele>656.20001220703</ele>
        <time>2019-02-20T08:20:31.000Z</time>
      </trkpt>
      <trkpt lat="45.30851" lon="4.62293">
        <ele>656.20001220703</ele>
        <time>2019-02-20T08:20:32.000Z</time>
      </trkpt>
      <trkpt lat="45.30848" lon="4.62291">
        <ele>656.20001220703</ele>
        <time>2019-02-20T08:20:33.000Z</time>
      </trkpt>
      <trkpt lat="45.30846" lon="4.62289">
        <ele>656.40002441406</ele>
        <time>2019-02-20T08:20:34.000Z</time>
      </trkpt>
      <trkpt lat="45.30844" lon="4.62288">
        <ele>656.40002441406</ele>
        <time>2019-02-20T08:20:35.000Z</time>
      </trkpt>
      <trkpt lat="45.30842" lon="4.62287">
        <ele>656.40002441406</ele>
        <time>2019-02-20T08:20:36.000Z</time>
      </trkpt>
      <trkpt lat="45.30839" lon="4.62285">
        <ele>656.40002441406</ele>
        <time>2019-02-20T08:20:37.000Z</time>
      </trkpt>
      <trkpt lat="45.30836" lon="4.62284">
        <ele>656.59997558594</ele>
        <time>2019-02-20T08:20:38.000Z</time>
      </trkpt>
      <trkpt lat="45.30834" lon="4.62283">
        <ele>656.59997558594</ele>
        <time>2019-02-20T08:20:39.000Z</time>
      </trkpt>
      <trkpt lat="45.30832" lon="4.62282">
        <ele>656.59997558594</ele>
        <time>2019-02-20T08:20:40.000Z</time>
      </trkpt>
      <trkpt lat="45.3083" lon="4.62281">
        <ele>656.59997558594</ele>
        <time>2019-02-20T08:20:41.000Z</time>
      </trkpt>
      <trkpt lat="45.30827" lon="4.6228">
        <ele>656.59997558594</ele>
        <time>2019-02-20T08:20:42.000Z</time>
      </trkpt>
      <trkpt lat="45.30825" lon="4.62278">
        <ele>656.59997558594</ele>
        <time>2019-02-20T08:20:43.000Z</time>
      </trkpt>
      <trkpt lat="45.30823" lon="4.62277">
        <ele>656.59997558594</ele>
        <time>2019-02-20T08:20:44.000Z</time>
      </trkpt>
      <trkpt lat="45.30821" lon="4.62276">
        <ele>656.79998779297</ele>
        <time>2019-02-20T08:20:45.000Z</time>
      </trkpt>
      <trkpt lat="45.30819" lon="4.62274">
        <ele>656.79998779297</ele>
        <time>2019-02-20T08:20:46.000Z</time>
      </trkpt>
      <trkpt lat="45.30817" lon="4.62272">
        <ele>656.79998779297</ele>
        <time>2019-02-20T08:20:47.000Z</time>
      </trkpt>
      <trkpt lat="45.30815" lon="4.6227">
        <ele>657</ele>
        <time>2019-02-20T08:20:48.000Z</time>
      </trkpt>
      <trkpt lat="45.30813" lon="4.62268">
        <ele>657.20001220703</ele>
        <time>2019-02-20T08:20:49.000Z</time>
      </trkpt>
      <trkpt lat="45.30811" lon="4.62267">
        <ele>657.20001220703</ele>
        <time>2019-02-20T08:20:50.000Z</time>
      </trkpt>
      <trkpt lat="45.30809" lon="4.62265">
        <ele>657.20001220703</ele>
        <time>2019-02-20T08:20:51.000Z</time>
      </trkpt>
      <trkpt lat="45.30807" lon="4.62264">
        <ele>657.40002441406</ele>
        <time>2019-02-20T08:20:52.000Z</time>
      </trkpt>
      <trkpt lat="45.30805" lon="4.62262">
        <ele>657.59997558594</ele>
        <time>2019-02-20T08:20:53.000Z</time>
      </trkpt>
      <trkpt lat="45.30803" lon="4.6226">
        <ele>657.59997558594</ele>
        <time>2019-02-20T08:20:54.000Z</time>
      </trkpt>
      <trkpt lat="45.30801" lon="4.62258">
        <ele>657.40002441406</ele>
        <time>2019-02-20T08:20:55.000Z</time>
      </trkpt>
      <trkpt lat="45.30799" lon="4.62257">
        <ele>657.79998779297</ele>
        <time>2019-02-20T08:20:56.000Z</time>
      </trkpt>
      <trkpt lat="45.30797" lon="4.62255">
        <ele>658</ele>
        <time>2019-02-20T08:20:57.000Z</time>
      </trkpt>
      <trkpt lat="45.30795" lon="4.62253">
        <ele>658.20001220703</ele>
        <time>2019-02-20T08:20:58.000Z</time>
      </trkpt>
      <trkpt lat="45.30793" lon="4.62251">
        <ele>658</ele>
        <time>2019-02-20T08:20:59.000Z</time>
      </trkpt>
      <trkpt lat="45.30791" lon="4.62248">
        <ele>658.20001220703</ele>
        <time>2019-02-20T08:21:00.000Z</time>
      </trkpt>
      <trkpt lat="45.3079" lon="4.62246">
        <ele>658.20001220703</ele>
        <time>2019-02-20T08:21:01.000Z</time>
      </trkpt>
      <trkpt lat="45.30788" lon="4.62243">
        <ele>658.40002441406</ele>
        <time>2019-02-20T08:21:02.000Z</time>
      </trkpt>
      <trkpt lat="45.30787" lon="4.6224">
        <ele>658.40002441406</ele>
        <time>2019-02-20T08:21:03.000Z</time>
      </trkpt>
      <trkpt lat="45.30786" lon="4.62237">
        <ele>658.59997558594</ele>
        <time>2019-02-20T08:21:04.000Z</time>
      </trkpt>
      <trkpt lat="45.30784" lon="4.62234">
        <ele>658.40002441406</ele>
        <time>2019-02-20T08:21:05.000Z</time>
      </trkpt>
      <trkpt lat="45.30783" lon="4.62231">
        <ele>658.40002441406</ele>
        <time>2019-02-20T08:21:06.000Z</time>
      </trkpt>
      <trkpt lat="45.30782" lon="4.62229">
        <ele>658.59997558594</ele>
        <time>2019-02-20T08:21:07.000Z</time>
      </trkpt>
      <trkpt lat="45.30781" lon="4.62226">
        <ele>658.59997558594</ele>
        <time>2019-02-20T08:21:08.000Z</time>
      </trkpt>
      <trkpt lat="45.3078" lon="4.62224">
        <ele>658.79998779297</ele>
        <time>2019-02-20T08:21:09.000Z</time>
      </trkpt>
      <trkpt lat="45.30779" lon="4.62221">
        <ele>658.79998779297</ele>
        <time>2019-02-20T08:21:10.000Z</time>
      </trkpt>
      <trkpt lat="45.30778" lon="4.62219">
        <ele>658.79998779297</ele>
        <time>2019-02-20T08:21:11.000Z</time>
      </trkpt>
      <trkpt lat="45.30777" lon="4.62216">
        <ele>659</ele>
        <time>2019-02-20T08:21:12.000Z</time>
      </trkpt>
      <trkpt lat="45.30776" lon="4.62214">
        <ele>659.20001220703</ele>
        <time>2019-02-20T08:21:13.000Z</time>
      </trkpt>
      <trkpt lat="45.30775" lon="4.62211">
        <ele>659.40002441406</ele>
        <time>2019-02-20T08:21:14.000Z</time>
      </trkpt>
      <trkpt lat="45.30774" lon="4.62208">
        <ele>659.59997558594</ele>
        <time>2019-02-20T08:21:15.000Z</time>
      </trkpt>
      <trkpt lat="45.30773" lon="4.62205">
        <ele>660</ele>
        <time>2019-02-20T08:21:16.000Z</time>
      </trkpt>
      <trkpt lat="45.30773" lon="4.62203">
        <ele>660.20001220703</ele>
        <time>2019-02-20T08:21:17.000Z</time>
      </trkpt>
      <trkpt lat="45.30772" lon="4.622">
        <ele>660.20001220703</ele>
        <time>2019-02-20T08:21:18.000Z</time>
      </trkpt>
      <trkpt lat="45.30771" lon="4.62198">
        <ele>660.40002441406</ele>
        <time>2019-02-20T08:21:19.000Z</time>
      </trkpt>
      <trkpt lat="45.3077" lon="4.62195">
        <ele>660.59997558594</ele>
        <time>2019-02-20T08:21:20.000Z</time>
      </trkpt>
      <trkpt lat="45.3077" lon="4.62193">
        <ele>660.79998779297</ele>
        <time>2019-02-20T08:21:21.000Z</time>
      </trkpt>
      <trkpt lat="45.30769" lon="4.6219">
        <ele>660.79998779297</ele>
        <time>2019-02-20T08:21:22.000Z</time>
      </trkpt>
      <trkpt lat="45.30769" lon="4.62188">
        <ele>661.20001220703</ele>
        <time>2019-02-20T08:21:23.000Z</time>
      </trkpt>
      <trkpt lat="45.30769" lon="4.62185">
        <ele>661.40002441406</ele>
        <time>2019-02-20T08:21:24.000Z</time>
      </trkpt>
      <trkpt lat="45.30769" lon="4.62182">
        <ele>661.40002441406</ele>
        <time>2019-02-20T08:21:25.000Z</time>
      </trkpt>
      <trkpt lat="45.30769" lon="4.62179">
        <ele>661.59997558594</ele>
        <time>2019-02-20T08:21:26.000Z</time>
      </trkpt>
      <trkpt lat="45.30769" lon="4.62176">
        <ele>661.59997558594</ele>
        <time>2019-02-20T08:21:27.000Z</time>
      </trkpt>
      <trkpt lat="45.30768" lon="4.62174">
        <ele>662</ele>
        <time>2019-02-20T08:21:28.000Z</time>
      </trkpt>
      <trkpt lat="45.30768" lon="4.62171">
        <ele>662.20001220703</ele>
        <time>2019-02-20T08:21:29.000Z</time>
      </trkpt>
      <trkpt lat="45.30768" lon="4.62169">
        <ele>662.20001220703</ele>
        <time>2019-02-20T08:21:30.000Z</time>
      </trkpt>
      <trkpt lat="45.30768" lon="4.62166">
        <ele>662.40002441406</ele>
        <time>2019-02-20T08:21:31.000Z</time>
      </trkpt>
      <trkpt lat="45.30768" lon="4.62164">
        <ele>662.59997558594</ele>
        <time>2019-02-20T08:21:32.000Z</time>
      </trkpt>
      <trkpt lat="45.30767" lon="4.62162">
        <ele>663.20001220703</ele>
        <time>2019-02-20T08:21:33.000Z</time>
      </trkpt>
      <trkpt lat="45.30766" lon="4.6216">
        <ele>663.59997558594</ele>
        <time>2019-02-20T08:21:34.000Z</time>
      </trkpt>
      <trkpt lat="45.30765" lon="4.62157">
        <ele>663.79998779297</ele>
        <time>2019-02-20T08:21:35.000Z</time>
      </trkpt>
      <trkpt lat="45.30765" lon="4.62155">
        <ele>664</ele>
        <time>2019-02-20T08:21:36.000Z</time>
      </trkpt>
      <trkpt lat="45.30764" lon="4.62152">
        <ele>664</ele>
        <time>2019-02-20T08:21:37.000Z</time>
      </trkpt>
      <trkpt lat="45.30764" lon="4.62149">
        <ele>664.40002441406</ele>
        <time>2019-02-20T08:21:38.000Z</time>
      </trkpt>
      <trkpt lat="45.30763" lon="4.62147">
        <ele>664.59997558594</ele>
        <time>2019-02-20T08:21:39.000Z</time>
      </trkpt>
      <trkpt lat="45.30762" lon="4.62145">
        <ele>664.59997558594</ele>
        <time>2019-02-20T08:21:40.000Z</time>
      </trkpt>
      <trkpt lat="45.30762" lon="4.62143">
        <ele>664.79998779297</ele>
        <time>2019-02-20T08:21:41.000Z</time>
      </trkpt>
      <trkpt lat="45.30761" lon="4.62141">
        <ele>664.79998779297</ele>
        <time>2019-02-20T08:21:42.000Z</time>
      </trkpt>
      <trkpt lat="45.30761" lon="4.62139">
        <ele>665</ele>
        <time>2019-02-20T08:21:43.000Z</time>
      </trkpt>
      <trkpt lat="45.30761" lon="4.62137">
        <ele>664.79998779297</ele>
        <time>2019-02-20T08:21:44.000Z</time>
      </trkpt>
      <trkpt lat="45.30761" lon="4.62135">
        <ele>665</ele>
        <time>2019-02-20T08:21:45.000Z</time>
      </trkpt>
      <trkpt lat="45.30761" lon="4.62133">
        <ele>664.79998779297</ele>
        <time>2019-02-20T08:21:46.000Z</time>
      </trkpt>
      <trkpt lat="45.30762" lon="4.6213">
        <ele>665</ele>
        <time>2019-02-20T08:21:47.000Z</time>
      </trkpt>
      <trkpt lat="45.30763" lon="4.62128">
        <ele>664.79998779297</ele>
        <time>2019-02-20T08:21:48.000Z</time>
      </trkpt>
      <trkpt lat="45.30764" lon="4.62126">
        <ele>665</ele>
        <time>2019-02-20T08:21:49.000Z</time>
      </trkpt>
      <trkpt lat="45.30765" lon="4.62125">
        <ele>665</ele>
        <time>2019-02-20T08:21:50.000Z</time>
      </trkpt>
      <trkpt lat="45.30767" lon="4.62124">
        <ele>665</ele>
        <time>2019-02-20T08:21:51.000Z</time>
      </trkpt>
      <trkpt lat="45.30769" lon="4.62124">
        <ele>665.20001220703</ele>
        <time>2019-02-20T08:21:52.000Z</time>
      </trkpt>
      <trkpt lat="45.30771" lon="4.62124">
        <ele>665.20001220703</ele>
        <time>2019-02-20T08:21:53.000Z</time>
      </trkpt>
      <trkpt lat="45.30773" lon="4.62123">
        <ele>665.20001220703</ele>
        <time>2019-02-20T08:21:54.000Z</time>
      </trkpt>
      <trkpt lat="45.30775" lon="4.62123">
        <ele>665.40002441406</ele>
        <time>2019-02-20T08:21:55.000Z</time>
      </trkpt>
      <trkpt lat="45.30777" lon="4.62122">
        <ele>665.59997558594</ele>
        <time>2019-02-20T08:21:56.000Z</time>
      </trkpt>
      <trkpt lat="45.30779" lon="4.62121">
        <ele>665.59997558594</ele>
        <time>2019-02-20T08:21:57.000Z</time>
      </trkpt>
      <trkpt lat="45.30781" lon="4.6212">
        <ele>665.59997558594</ele>
        <time>2019-02-20T08:21:58.000Z</time>
      </trkpt>
      <trkpt lat="45.30783" lon="4.6212">
        <ele>665.40002441406</ele>
        <time>2019-02-20T08:21:59.000Z</time>
      </trkpt>
      <trkpt lat="45.30784" lon="4.6212">
        <ele>665.59997558594</ele>
        <time>2019-02-20T08:22:00.000Z</time>
      </trkpt>
      <trkpt lat="45.30786" lon="4.62119">
        <ele>666</ele>
        <time>2019-02-20T08:22:01.000Z</time>
      </trkpt>
      <trkpt lat="45.30788" lon="4.62119">
        <ele>666.20001220703</ele>
        <time>2019-02-20T08:22:02.000Z</time>
      </trkpt>
      <trkpt lat="45.3079" lon="4.62118">
        <ele>666.40002441406</ele>
        <time>2019-02-20T08:22:03.000Z</time>
      </trkpt>
      <trkpt lat="45.30791" lon="4.62117">
        <ele>666.79998779297</ele>
        <time>2019-02-20T08:22:04.000Z</time>
      </trkpt>
      <trkpt lat="45.30793" lon="4.62117">
        <ele>667.40002441406</ele>
        <time>2019-02-20T08:22:05.000Z</time>
      </trkpt>
      <trkpt lat="45.30794" lon="4.62116">
        <ele>667.79998779297</ele>
        <time>2019-02-20T08:22:06.000Z</time>
      </trkpt>
      <trkpt lat="45.30796" lon="4.62115">
        <ele>668</ele>
        <time>2019-02-20T08:22:07.000Z</time>
      </trkpt>
      <trkpt lat="45.30797" lon="4.62114">
        <ele>668.20001220703</ele>
        <time>2019-02-20T08:22:08.000Z</time>
      </trkpt>
      <trkpt lat="45.30799" lon="4.62113">
        <ele>668.40002441406</ele>
        <time>2019-02-20T08:22:09.000Z</time>
      </trkpt>
      <trkpt lat="45.308" lon="4.62113">
        <ele>668.59997558594</ele>
        <time>2019-02-20T08:22:10.000Z</time>
      </trkpt>
      <trkpt lat="45.30801" lon="4.62112">
        <ele>669</ele>
        <time>2019-02-20T08:22:11.000Z</time>
      </trkpt>
      <trkpt lat="45.30802" lon="4.62111">
        <ele>669.40002441406</ele>
        <time>2019-02-20T08:22:12.000Z</time>
      </trkpt>
      <trkpt lat="45.30803" lon="4.6211">
        <ele>669.59997558594</ele>
        <time>2019-02-20T08:22:13.000Z</time>
      </trkpt>
      <trkpt lat="45.30805" lon="4.62109">
        <ele>669.79998779297</ele>
        <time>2019-02-20T08:22:14.000Z</time>
      </trkpt>
      <trkpt lat="45.30806" lon="4.62109">
        <ele>670</ele>
        <time>2019-02-20T08:22:15.000Z</time>
      </trkpt>
      <trkpt lat="45.30807" lon="4.62108">
        <ele>670.20001220703</ele>
        <time>2019-02-20T08:22:16.000Z</time>
      </trkpt>
      <trkpt lat="45.30808" lon="4.62108">
        <ele>670.40002441406</ele>
        <time>2019-02-20T08:22:17.000Z</time>
      </trkpt>
      <trkpt lat="45.30809" lon="4.62107">
        <ele>670.79998779297</ele>
        <time>2019-02-20T08:22:18.000Z</time>
      </trkpt>
      <trkpt lat="45.3081" lon="4.62106">
        <ele>670.59997558594</ele>
        <time>2019-02-20T08:22:19.000Z</time>
      </trkpt>
      <trkpt lat="45.30811" lon="4.62105">
        <ele>671</ele>
        <time>2019-02-20T08:22:20.000Z</time>
      </trkpt>
      <trkpt lat="45.30811" lon="4.62105">
        <ele>670.79998779297</ele>
        <time>2019-02-20T08:22:21.000Z</time>
      </trkpt>
      <trkpt lat="45.30811" lon="4.62105">
        <ele>671.20001220703</ele>
        <time>2019-02-20T08:22:22.000Z</time>
      </trkpt>
      <trkpt lat="45.30806" lon="4.62089">
        <ele>671.59997558594</ele>
        <time>2019-02-20T08:23:47.000Z</time>
      </trkpt>
      <trkpt lat="45.30804" lon="4.62087">
        <ele>671.40002441406</ele>
        <time>2019-02-20T08:23:48.000Z</time>
      </trkpt>
      <trkpt lat="45.30802" lon="4.62085">
        <ele>671.20001220703</ele>
        <time>2019-02-20T08:23:49.000Z</time>
      </trkpt>
      <trkpt lat="45.30799" lon="4.62082">
        <ele>671.20001220703</ele>
        <time>2019-02-20T08:23:50.000Z</time>
      </trkpt>
      <trkpt lat="45.30796" lon="4.62079">
        <ele>671.20001220703</ele>
        <time>2019-02-20T08:23:51.000Z</time>
      </trkpt>
      <trkpt lat="45.30792" lon="4.62075">
        <ele>671</ele>
        <time>2019-02-20T08:23:52.000Z</time>
      </trkpt>
      <trkpt lat="45.30788" lon="4.62071">
        <ele>671</ele>
        <time>2019-02-20T08:23:53.000Z</time>
      </trkpt>
      <trkpt lat="45.30783" lon="4.62066">
        <ele>671</ele>
        <time>2019-02-20T08:23:54.000Z</time>
      </trkpt>
      <trkpt lat="45.30778" lon="4.6206">
        <ele>670.79998779297</ele>
        <time>2019-02-20T08:23:55.000Z</time>
      </trkpt>
      <trkpt lat="45.30772" lon="4.62054">
        <ele>670.79998779297</ele>
        <time>2019-02-20T08:23:56.000Z</time>
      </trkpt>
      <trkpt lat="45.30767" lon="4.62048">
        <ele>670.20001220703</ele>
        <time>2019-02-20T08:23:57.000Z</time>
      </trkpt>
      <trkpt lat="45.30762" lon="4.62041">
        <ele>670</ele>
        <time>2019-02-20T08:23:58.000Z</time>
      </trkpt>
      <trkpt lat="45.30757" lon="4.62035">
        <ele>669.40002441406</ele>
        <time>2019-02-20T08:23:59.000Z</time>
      </trkpt>
      <trkpt lat="45.30752" lon="4.62029">
        <ele>668.79998779297</ele>
        <time>2019-02-20T08:24:00.000Z</time>
      </trkpt>
      <trkpt lat="45.30748" lon="4.62022">
        <ele>668</ele>
        <time>2019-02-20T08:24:01.000Z</time>
      </trkpt>
      <trkpt lat="45.30745" lon="4.62015">
        <ele>667.40002441406</ele>
        <time>2019-02-20T08:24:02.000Z</time>
      </trkpt>
      <trkpt lat="45.30742" lon="4.62008">
        <ele>666.59997558594</ele>
        <time>2019-02-20T08:24:03.000Z</time>
      </trkpt>
      <trkpt lat="45.30739" lon="4.62001">
        <ele>665.40002441406</ele>
        <time>2019-02-20T08:24:04.000Z</time>
      </trkpt>
      <trkpt lat="45.30736" lon="4.61995">
        <ele>664.20001220703</ele>
        <time>2019-02-20T08:24:05.000Z</time>
      </trkpt>
      <trkpt lat="45.30733" lon="4.61989">
        <ele>663.40002441406</ele>
        <time>2019-02-20T08:24:06.000Z</time>
      </trkpt>
      <trkpt lat="45.3073" lon="4.61984">
        <ele>662.79998779297</ele>
        <time>2019-02-20T08:24:07.000Z</time>
      </trkpt>
      <trkpt lat="45.30727" lon="4.6198">
        <ele>662</ele>
        <time>2019-02-20T08:24:08.000Z</time>
      </trkpt>
      <trkpt lat="45.30725" lon="4.61976">
        <ele>661.20001220703</ele>
        <time>2019-02-20T08:24:09.000Z</time>
      </trkpt>
      <trkpt lat="45.30723" lon="4.61973">
        <ele>660.20001220703</ele>
        <time>2019-02-20T08:24:10.000Z</time>
      </trkpt>
      <trkpt lat="45.30721" lon="4.61971">
        <ele>659.40002441406</ele>
        <time>2019-02-20T08:24:11.000Z</time>
      </trkpt>
      <trkpt lat="45.30721" lon="4.6197">
        <ele>658.40002441406</ele>
        <time>2019-02-20T08:24:12.000Z</time>
      </trkpt>
      <trkpt lat="45.30721" lon="4.6197">
        <ele>657.40002441406</ele>
        <time>2019-02-20T08:24:13.000Z</time>
      </trkpt>
      <trkpt lat="45.3072" lon="4.61965">
        <ele>651.59997558594</ele>
        <time>2019-02-20T08:24:20.000Z</time>
      </trkpt>
      <trkpt lat="45.3072" lon="4.61963">
        <ele>651.40002441406</ele>
        <time>2019-02-20T08:24:21.000Z</time>
      </trkpt>
      <trkpt lat="45.30721" lon="4.6196">
        <ele>651.40002441406</ele>
        <time>2019-02-20T08:24:22.000Z</time>
      </trkpt>
      <trkpt lat="45.30722" lon="4.61957">
        <ele>651.20001220703</ele>
        <time>2019-02-20T08:24:23.000Z</time>
      </trkpt>
      <trkpt lat="45.30724" lon="4.61953">
        <ele>651.20001220703</ele>
        <time>2019-02-20T08:24:24.000Z</time>
      </trkpt>
      <trkpt lat="45.30726" lon="4.6195">
        <ele>651</ele>
        <time>2019-02-20T08:24:25.000Z</time>
      </trkpt>
      <trkpt lat="45.30729" lon="4.61947">
        <ele>651</ele>
        <time>2019-02-20T08:24:26.000Z</time>
      </trkpt>
      <trkpt lat="45.30734" lon="4.61943">
        <ele>650.79998779297</ele>
        <time>2019-02-20T08:24:27.000Z</time>
      </trkpt>
      <trkpt lat="45.30739" lon="4.6194">
        <ele>650.59997558594</ele>
        <time>2019-02-20T08:24:28.000Z</time>
      </trkpt>
      <trkpt lat="45.30744" lon="4.61936">
        <ele>650.20001220703</ele>
        <time>2019-02-20T08:24:29.000Z</time>
      </trkpt>
      <trkpt lat="45.30746" lon="4.61931">
        <ele>649.59997558594</ele>
        <time>2019-02-20T08:24:30.000Z</time>
      </trkpt>
      <trkpt lat="45.30747" lon="4.61926">
        <ele>649.40002441406</ele>
        <time>2019-02-20T08:24:31.000Z</time>
      </trkpt>
      <trkpt lat="45.30747" lon="4.61922">
        <ele>649.20001220703</ele>
        <time>2019-02-20T08:24:32.000Z</time>
      </trkpt>
      <trkpt lat="45.30746" lon="4.61917">
        <ele>648.59997558594</ele>
        <time>2019-02-20T08:24:33.000Z</time>
      </trkpt>
      <trkpt lat="45.30744" lon="4.61913">
        <ele>648.20001220703</ele>
        <time>2019-02-20T08:24:34.000Z</time>
      </trkpt>
      <trkpt lat="45.30743" lon="4.61907">
        <ele>647.20001220703</ele>
        <time>2019-02-20T08:24:35.000Z</time>
      </trkpt>
      <trkpt lat="45.30742" lon="4.619">
        <ele>646.40002441406</ele>
        <time>2019-02-20T08:24:36.000Z</time>
      </trkpt>
      <trkpt lat="45.30741" lon="4.61894">
        <ele>645.20001220703</ele>
        <time>2019-02-20T08:24:37.000Z</time>
      </trkpt>
      <trkpt lat="45.30741" lon="4.61887">
        <ele>644.59997558594</ele>
        <time>2019-02-20T08:24:38.000Z</time>
      </trkpt>
      <trkpt lat="45.30742" lon="4.61882">
        <ele>644.59997558594</ele>
        <time>2019-02-20T08:24:39.000Z</time>
      </trkpt>
      <trkpt lat="45.30742" lon="4.61876">
        <ele>644.20001220703</ele>
        <time>2019-02-20T08:24:40.000Z</time>
      </trkpt>
      <trkpt lat="45.30743" lon="4.6187">
        <ele>644.20001220703</ele>
        <time>2019-02-20T08:24:41.000Z</time>
      </trkpt>
      <trkpt lat="45.30743" lon="4.61864">
        <ele>643.79998779297</ele>
        <time>2019-02-20T08:24:42.000Z</time>
      </trkpt>
      <trkpt lat="45.30743" lon="4.61858">
        <ele>643.40002441406</ele>
        <time>2019-02-20T08:24:43.000Z</time>
      </trkpt>
      <trkpt lat="45.30742" lon="4.61851">
        <ele>643</ele>
        <time>2019-02-20T08:24:44.000Z</time>
      </trkpt>
      <trkpt lat="45.30742" lon="4.61843">
        <ele>642.59997558594</ele>
        <time>2019-02-20T08:24:45.000Z</time>
      </trkpt>
      <trkpt lat="45.30742" lon="4.61835">
        <ele>642.40002441406</ele>
        <time>2019-02-20T08:24:46.000Z</time>
      </trkpt>
      <trkpt lat="45.30741" lon="4.61826">
        <ele>642</ele>
        <time>2019-02-20T08:24:47.000Z</time>
      </trkpt>
      <trkpt lat="45.30741" lon="4.61816">
        <ele>641.59997558594</ele>
        <time>2019-02-20T08:24:48.000Z</time>
      </trkpt>
      <trkpt lat="45.3074" lon="4.61807">
        <ele>641</ele>
        <time>2019-02-20T08:24:49.000Z</time>
      </trkpt>
      <trkpt lat="45.30739" lon="4.61799">
        <ele>640.59997558594</ele>
        <time>2019-02-20T08:24:50.000Z</time>
      </trkpt>
      <trkpt lat="45.30737" lon="4.61791">
        <ele>639.20001220703</ele>
        <time>2019-02-20T08:24:51.000Z</time>
      </trkpt>
      <trkpt lat="45.30736" lon="4.61783">
        <ele>638.40002441406</ele>
        <time>2019-02-20T08:24:52.000Z</time>
      </trkpt>
      <trkpt lat="45.30734" lon="4.61775">
        <ele>637.40002441406</ele>
        <time>2019-02-20T08:24:53.000Z</time>
      </trkpt>
      <trkpt lat="45.30733" lon="4.61769">
        <ele>637</ele>
        <time>2019-02-20T08:24:54.000Z</time>
      </trkpt>
      <trkpt lat="45.30732" lon="4.61763">
        <ele>636.40002441406</ele>
        <time>2019-02-20T08:24:55.000Z</time>
      </trkpt>
      <trkpt lat="45.30732" lon="4.61756">
        <ele>635.59997558594</ele>
        <time>2019-02-20T08:24:56.000Z</time>
      </trkpt>
      <trkpt lat="45.30732" lon="4.6175">
        <ele>634.79998779297</ele>
        <time>2019-02-20T08:24:57.000Z</time>
      </trkpt>
      <trkpt lat="45.30732" lon="4.61745">
        <ele>634.20001220703</ele>
        <time>2019-02-20T08:24:58.000Z</time>
      </trkpt>
      <trkpt lat="45.30731" lon="4.61739">
        <ele>633.59997558594</ele>
        <time>2019-02-20T08:24:59.000Z</time>
      </trkpt>
      <trkpt lat="45.30731" lon="4.61733">
        <ele>633</ele>
        <time>2019-02-20T08:25:00.000Z</time>
      </trkpt>
      <trkpt lat="45.30731" lon="4.61726">
        <ele>632</ele>
        <time>2019-02-20T08:25:01.000Z</time>
      </trkpt>
      <trkpt lat="45.3073" lon="4.61719">
        <ele>631.20001220703</ele>
        <time>2019-02-20T08:25:02.000Z</time>
      </trkpt>
      <trkpt lat="45.30729" lon="4.61713">
        <ele>630.59997558594</ele>
        <time>2019-02-20T08:25:03.000Z</time>
      </trkpt>
      <trkpt lat="45.30729" lon="4.61705">
        <ele>630.20001220703</ele>
        <time>2019-02-20T08:25:04.000Z</time>
      </trkpt>
      <trkpt lat="45.30728" lon="4.61698">
        <ele>629.79998779297</ele>
        <time>2019-02-20T08:25:05.000Z</time>
      </trkpt>
      <trkpt lat="45.30727" lon="4.61692">
        <ele>629.59997558594</ele>
        <time>2019-02-20T08:25:06.000Z</time>
      </trkpt>
      <trkpt lat="45.30726" lon="4.61686">
        <ele>629.20001220703</ele>
        <time>2019-02-20T08:25:07.000Z</time>
      </trkpt>
      <trkpt lat="45.30725" lon="4.6168">
        <ele>629</ele>
        <time>2019-02-20T08:25:08.000Z</time>
      </trkpt>
      <trkpt lat="45.30724" lon="4.61675">
        <ele>628.40002441406</ele>
        <time>2019-02-20T08:25:09.000Z</time>
      </trkpt>
      <trkpt lat="45.30722" lon="4.6167">
        <ele>627.40002441406</ele>
        <time>2019-02-20T08:25:10.000Z</time>
      </trkpt>
      <trkpt lat="45.30722" lon="4.61665">
        <ele>626.59997558594</ele>
        <time>2019-02-20T08:25:11.000Z</time>
      </trkpt>
      <trkpt lat="45.30721" lon="4.61661">
        <ele>625.79998779297</ele>
        <time>2019-02-20T08:25:12.000Z</time>
      </trkpt>
      <trkpt lat="45.3072" lon="4.61656">
        <ele>625.59997558594</ele>
        <time>2019-02-20T08:25:13.000Z</time>
      </trkpt>
      <trkpt lat="45.30719" lon="4.61652">
        <ele>625</ele>
        <time>2019-02-20T08:25:14.000Z</time>
      </trkpt>
      <trkpt lat="45.30718" lon="4.61648">
        <ele>624.20001220703</ele>
        <time>2019-02-20T08:25:15.000Z</time>
      </trkpt>
      <trkpt lat="45.30717" lon="4.61644">
        <ele>623.79998779297</ele>
        <time>2019-02-20T08:25:16.000Z</time>
      </trkpt>
      <trkpt lat="45.30716" lon="4.61639">
        <ele>623.20001220703</ele>
        <time>2019-02-20T08:25:17.000Z</time>
      </trkpt>
      <trkpt lat="45.30714" lon="4.61633">
        <ele>623</ele>
        <time>2019-02-20T08:25:18.000Z</time>
      </trkpt>
      <trkpt lat="45.30713" lon="4.61628">
        <ele>622.20001220703</ele>
        <time>2019-02-20T08:25:19.000Z</time>
      </trkpt>
      <trkpt lat="45.30711" lon="4.61623">
        <ele>621.40002441406</ele>
        <time>2019-02-20T08:25:20.000Z</time>
      </trkpt>
      <trkpt lat="45.30708" lon="4.61617">
        <ele>620.79998779297</ele>
        <time>2019-02-20T08:25:21.000Z</time>
      </trkpt>
      <trkpt lat="45.30707" lon="4.61611">
        <ele>620.20001220703</ele>
        <time>2019-02-20T08:25:22.000Z</time>
      </trkpt>
      <trkpt lat="45.30705" lon="4.61605">
        <ele>619.79998779297</ele>
        <time>2019-02-20T08:25:23.000Z</time>
      </trkpt>
      <trkpt lat="45.30703" lon="4.61599">
        <ele>619.59997558594</ele>
        <time>2019-02-20T08:25:24.000Z</time>
      </trkpt>
      <trkpt lat="45.30701" lon="4.61594">
        <ele>618.79998779297</ele>
        <time>2019-02-20T08:25:25.000Z</time>
      </trkpt>
      <trkpt lat="45.307" lon="4.61588">
        <ele>618</ele>
        <time>2019-02-20T08:25:26.000Z</time>
      </trkpt>
      <trkpt lat="45.30698" lon="4.61583">
        <ele>617.40002441406</ele>
        <time>2019-02-20T08:25:27.000Z</time>
      </trkpt>
      <trkpt lat="45.30696" lon="4.61578">
        <ele>616.79998779297</ele>
        <time>2019-02-20T08:25:28.000Z</time>
      </trkpt>
      <trkpt lat="45.30694" lon="4.61572">
        <ele>616</ele>
        <time>2019-02-20T08:25:29.000Z</time>
      </trkpt>
      <trkpt lat="45.30692" lon="4.61566">
        <ele>615</ele>
        <time>2019-02-20T08:25:30.000Z</time>
      </trkpt>
      <trkpt lat="45.3069" lon="4.61561">
        <ele>614.20001220703</ele>
        <time>2019-02-20T08:25:31.000Z</time>
      </trkpt>
      <trkpt lat="45.30688" lon="4.61555">
        <ele>613.59997558594</ele>
        <time>2019-02-20T08:25:32.000Z</time>
      </trkpt>
      <trkpt lat="45.30686" lon="4.61548">
        <ele>612.59997558594</ele>
        <time>2019-02-20T08:25:33.000Z</time>
      </trkpt>
      <trkpt lat="45.30685" lon="4.6154">
        <ele>611.79998779297</ele>
        <time>2019-02-20T08:25:34.000Z</time>
      </trkpt>
      <trkpt lat="45.30683" lon="4.61534">
        <ele>611.20001220703</ele>
        <time>2019-02-20T08:25:35.000Z</time>
      </trkpt>
      <trkpt lat="45.30681" lon="4.61529">
        <ele>610.59997558594</ele>
        <time>2019-02-20T08:25:36.000Z</time>
      </trkpt>
      <trkpt lat="45.30679" lon="4.61525">
        <ele>609.79998779297</ele>
        <time>2019-02-20T08:25:37.000Z</time>
      </trkpt>
      <trkpt lat="45.30676" lon="4.6152">
        <ele>608.59997558594</ele>
        <time>2019-02-20T08:25:38.000Z</time>
      </trkpt>
      <trkpt lat="45.30674" lon="4.61515">
        <ele>607.59997558594</ele>
        <time>2019-02-20T08:25:39.000Z</time>
      </trkpt>
      <trkpt lat="45.30672" lon="4.61511">
        <ele>606.59997558594</ele>
        <time>2019-02-20T08:25:40.000Z</time>
      </trkpt>
      <trkpt lat="45.3067" lon="4.61506">
        <ele>605.79998779297</ele>
        <time>2019-02-20T08:25:41.000Z</time>
      </trkpt>
      <trkpt lat="45.30667" lon="4.61501">
        <ele>604.59997558594</ele>
        <time>2019-02-20T08:25:42.000Z</time>
      </trkpt>
      <trkpt lat="45.30664" lon="4.61496">
        <ele>603.79998779297</ele>
        <time>2019-02-20T08:25:43.000Z</time>
      </trkpt>
      <trkpt lat="45.30662" lon="4.61491">
        <ele>603.20001220703</ele>
        <time>2019-02-20T08:25:44.000Z</time>
      </trkpt>
      <trkpt lat="45.30659" lon="4.61486">
        <ele>603.20001220703</ele>
        <time>2019-02-20T08:25:45.000Z</time>
      </trkpt>
      <trkpt lat="45.30656" lon="4.61482">
        <ele>603</ele>
        <time>2019-02-20T08:25:46.000Z</time>
      </trkpt>
      <trkpt lat="45.30654" lon="4.61477">
        <ele>603</ele>
        <time>2019-02-20T08:25:47.000Z</time>
      </trkpt>
      <trkpt lat="45.30652" lon="4.61473">
        <ele>602.79998779297</ele>
        <time>2019-02-20T08:25:48.000Z</time>
      </trkpt>
      <trkpt lat="45.30649" lon="4.61469">
        <ele>603</ele>
        <time>2019-02-20T08:25:49.000Z</time>
      </trkpt>
      <trkpt lat="45.30647" lon="4.61465">
        <ele>602.79998779297</ele>
        <time>2019-02-20T08:25:50.000Z</time>
      </trkpt>
      <trkpt lat="45.30645" lon="4.6146">
        <ele>602.79998779297</ele>
        <time>2019-02-20T08:25:51.000Z</time>
      </trkpt>
      <trkpt lat="45.30643" lon="4.61456">
        <ele>603</ele>
        <time>2019-02-20T08:25:52.000Z</time>
      </trkpt>
      <trkpt lat="45.3064" lon="4.61452">
        <ele>603</ele>
        <time>2019-02-20T08:25:53.000Z</time>
      </trkpt>
      <trkpt lat="45.30638" lon="4.61448">
        <ele>603</ele>
        <time>2019-02-20T08:25:54.000Z</time>
      </trkpt>
      <trkpt lat="45.30636" lon="4.61444">
        <ele>603.20001220703</ele>
        <time>2019-02-20T08:25:55.000Z</time>
      </trkpt>
      <trkpt lat="45.30635" lon="4.61441">
        <ele>603.20001220703</ele>
        <time>2019-02-20T08:25:56.000Z</time>
      </trkpt>
      <trkpt lat="45.30633" lon="4.61437">
        <ele>603.20001220703</ele>
        <time>2019-02-20T08:25:57.000Z</time>
      </trkpt>
      <trkpt lat="45.30632" lon="4.61434">
        <ele>603.20001220703</ele>
        <time>2019-02-20T08:25:58.000Z</time>
      </trkpt>
      <trkpt lat="45.30632" lon="4.61431">
        <ele>603.20001220703</ele>
        <time>2019-02-20T08:25:59.000Z</time>
      </trkpt>
      <trkpt lat="45.30632" lon="4.61428">
        <ele>603.20001220703</ele>
        <time>2019-02-20T08:26:00.000Z</time>
      </trkpt>
      <trkpt lat="45.30633" lon="4.61426">
        <ele>603.40002441406</ele>
        <time>2019-02-20T08:26:01.000Z</time>
      </trkpt>
      <trkpt lat="45.30633" lon="4.61424">
        <ele>603.40002441406</ele>
        <time>2019-02-20T08:26:02.000Z</time>
      </trkpt>
      <trkpt lat="45.30633" lon="4.61422">
        <ele>603.40002441406</ele>
        <time>2019-02-20T08:26:03.000Z</time>
      </trkpt>
      <trkpt lat="45.30633" lon="4.6142">
        <ele>603.40002441406</ele>
        <time>2019-02-20T08:26:04.000Z</time>
      </trkpt>
      <trkpt lat="45.30633" lon="4.61419">
        <ele>603.59997558594</ele>
        <time>2019-02-20T08:26:05.000Z</time>
      </trkpt>
      <trkpt lat="45.30633" lon="4.61417">
        <ele>603.59997558594</ele>
        <time>2019-02-20T08:26:06.000Z</time>
      </trkpt>
      <trkpt lat="45.30634" lon="4.61416">
        <ele>603.79998779297</ele>
        <time>2019-02-20T08:26:07.000Z</time>
      </trkpt>
      <trkpt lat="45.30635" lon="4.61415">
        <ele>604</ele>
        <time>2019-02-20T08:26:08.000Z</time>
      </trkpt>
      <trkpt lat="45.30636" lon="4.61415">
        <ele>604.20001220703</ele>
        <time>2019-02-20T08:26:09.000Z</time>
      </trkpt>
      <trkpt lat="45.30638" lon="4.61414">
        <ele>604.40002441406</ele>
        <time>2019-02-20T08:26:10.000Z</time>
      </trkpt>
      <trkpt lat="45.30639" lon="4.61413">
        <ele>604.40002441406</ele>
        <time>2019-02-20T08:26:11.000Z</time>
      </trkpt>
      <trkpt lat="45.3064" lon="4.61412">
        <ele>604.79998779297</ele>
        <time>2019-02-20T08:26:12.000Z</time>
      </trkpt>
      <trkpt lat="45.30642" lon="4.61411">
        <ele>604.79998779297</ele>
        <time>2019-02-20T08:26:13.000Z</time>
      </trkpt>
      <trkpt lat="45.30643" lon="4.6141">
        <ele>605</ele>
        <time>2019-02-20T08:26:14.000Z</time>
      </trkpt>
      <trkpt lat="45.30645" lon="4.6141">
        <ele>605.20001220703</ele>
        <time>2019-02-20T08:26:15.000Z</time>
      </trkpt>
      <trkpt lat="45.30646" lon="4.61409">
        <ele>605.20001220703</ele>
        <time>2019-02-20T08:26:16.000Z</time>
      </trkpt>
      <trkpt lat="45.30647" lon="4.61408">
        <ele>605.59997558594</ele>
        <time>2019-02-20T08:26:17.000Z</time>
      </trkpt>
      <trkpt lat="45.30649" lon="4.61408">
        <ele>605.79998779297</ele>
        <time>2019-02-20T08:26:18.000Z</time>
      </trkpt>
      <trkpt lat="45.3065" lon="4.61407">
        <ele>606</ele>
        <time>2019-02-20T08:26:19.000Z</time>
      </trkpt>
      <trkpt lat="45.30651" lon="4.61407">
        <ele>606.20001220703</ele>
        <time>2019-02-20T08:26:20.000Z</time>
      </trkpt>
      <trkpt lat="45.30653" lon="4.61406">
        <ele>606.40002441406</ele>
        <time>2019-02-20T08:26:21.000Z</time>
      </trkpt>
      <trkpt lat="45.30654" lon="4.61406">
        <ele>606.59997558594</ele>
        <time>2019-02-20T08:26:22.000Z</time>
      </trkpt>
      <trkpt lat="45.30655" lon="4.61405">
        <ele>606.59997558594</ele>
        <time>2019-02-20T08:26:23.000Z</time>
      </trkpt>
      <trkpt lat="45.30657" lon="4.61405">
        <ele>607</ele>
        <time>2019-02-20T08:26:24.000Z</time>
      </trkpt>
      <trkpt lat="45.30658" lon="4.61405">
        <ele>607</ele>
        <time>2019-02-20T08:26:25.000Z</time>
      </trkpt>
      <trkpt lat="45.3066" lon="4.61404">
        <ele>607.20001220703</ele>
        <time>2019-02-20T08:26:26.000Z</time>
      </trkpt>
      <trkpt lat="45.30661" lon="4.61403">
        <ele>607.40002441406</ele>
        <time>2019-02-20T08:26:27.000Z</time>
      </trkpt>
      <trkpt lat="45.30663" lon="4.61403">
        <ele>607.59997558594</ele>
        <time>2019-02-20T08:26:28.000Z</time>
      </trkpt>
      <trkpt lat="45.30664" lon="4.61402">
        <ele>607.79998779297</ele>
        <time>2019-02-20T08:26:29.000Z</time>
      </trkpt>
      <trkpt lat="45.30665" lon="4.61402">
        <ele>608</ele>
        <time>2019-02-20T08:26:30.000Z</time>
      </trkpt>
      <trkpt lat="45.30667" lon="4.61402">
        <ele>608</ele>
        <time>2019-02-20T08:26:31.000Z</time>
      </trkpt>
      <trkpt lat="45.30668" lon="4.61402">
        <ele>608.40002441406</ele>
        <time>2019-02-20T08:26:32.000Z</time>
      </trkpt>
      <trkpt lat="45.3067" lon="4.61401">
        <ele>608.40002441406</ele>
        <time>2019-02-20T08:26:33.000Z</time>
      </trkpt>
      <trkpt lat="45.30671" lon="4.61401">
        <ele>608.79998779297</ele>
        <time>2019-02-20T08:26:34.000Z</time>
      </trkpt>
      <trkpt lat="45.30673" lon="4.61401">
        <ele>608.79998779297</ele>
        <time>2019-02-20T08:26:35.000Z</time>
      </trkpt>
      <trkpt lat="45.30674" lon="4.61401">
        <ele>609</ele>
        <time>2019-02-20T08:26:36.000Z</time>
      </trkpt>
      <trkpt lat="45.30676" lon="4.61401">
        <ele>609.20001220703</ele>
        <time>2019-02-20T08:26:37.000Z</time>
      </trkpt>
      <trkpt lat="45.30677" lon="4.614">
        <ele>609.40002441406</ele>
        <time>2019-02-20T08:26:38.000Z</time>
      </trkpt>
      <trkpt lat="45.30679" lon="4.614">
        <ele>609.59997558594</ele>
        <time>2019-02-20T08:26:39.000Z</time>
      </trkpt>
      <trkpt lat="45.3068" lon="4.61399">
        <ele>610</ele>
        <time>2019-02-20T08:26:40.000Z</time>
      </trkpt>
      <trkpt lat="45.30681" lon="4.61399">
        <ele>610</ele>
        <time>2019-02-20T08:26:41.000Z</time>
      </trkpt>
      <trkpt lat="45.30682" lon="4.61398">
        <ele>610.20001220703</ele>
        <time>2019-02-20T08:26:42.000Z</time>
      </trkpt>
      <trkpt lat="45.30684" lon="4.61397">
        <ele>610.40002441406</ele>
        <time>2019-02-20T08:26:43.000Z</time>
      </trkpt>
      <trkpt lat="45.30685" lon="4.61397">
        <ele>610.59997558594</ele>
        <time>2019-02-20T08:26:44.000Z</time>
      </trkpt>
      <trkpt lat="45.30686" lon="4.61396">
        <ele>610.59997558594</ele>
        <time>2019-02-20T08:26:45.000Z</time>
      </trkpt>
      <trkpt lat="45.30688" lon="4.61396">
        <ele>610.79998779297</ele>
        <time>2019-02-20T08:26:46.000Z</time>
      </trkpt>
      <trkpt lat="45.30689" lon="4.61395">
        <ele>611.20001220703</ele>
        <time>2019-02-20T08:26:47.000Z</time>
      </trkpt>
      <trkpt lat="45.3069" lon="4.61395">
        <ele>611.79998779297</ele>
        <time>2019-02-20T08:26:48.000Z</time>
      </trkpt>
      <trkpt lat="45.30692" lon="4.61394">
        <ele>612</ele>
        <time>2019-02-20T08:26:49.000Z</time>
      </trkpt>
      <trkpt lat="45.30693" lon="4.61394">
        <ele>612.20001220703</ele>
        <time>2019-02-20T08:26:50.000Z</time>
      </trkpt>
      <trkpt lat="45.30695" lon="4.61393">
        <ele>612.40002441406</ele>
        <time>2019-02-20T08:26:51.000Z</time>
      </trkpt>
      <trkpt lat="45.30696" lon="4.61392">
        <ele>612.59997558594</ele>
        <time>2019-02-20T08:26:52.000Z</time>
      </trkpt>
      <trkpt lat="45.30697" lon="4.61392">
        <ele>612.79998779297</ele>
        <time>2019-02-20T08:26:53.000Z</time>
      </trkpt>
      <trkpt lat="45.30699" lon="4.61392">
        <ele>612.79998779297</ele>
        <time>2019-02-20T08:26:54.000Z</time>
      </trkpt>
      <trkpt lat="45.307" lon="4.61391">
        <ele>613</ele>
        <time>2019-02-20T08:26:55.000Z</time>
      </trkpt>
      <trkpt lat="45.30701" lon="4.6139">
        <ele>613.20001220703</ele>
        <time>2019-02-20T08:26:56.000Z</time>
      </trkpt>
      <trkpt lat="45.30703" lon="4.61389">
        <ele>613.40002441406</ele>
        <time>2019-02-20T08:26:57.000Z</time>
      </trkpt>
      <trkpt lat="45.30704" lon="4.61388">
        <ele>613.79998779297</ele>
        <time>2019-02-20T08:26:58.000Z</time>
      </trkpt>
      <trkpt lat="45.30705" lon="4.61387">
        <ele>614</ele>
        <time>2019-02-20T08:26:59.000Z</time>
      </trkpt>
      <trkpt lat="45.30707" lon="4.61386">
        <ele>614.20001220703</ele>
        <time>2019-02-20T08:27:00.000Z</time>
      </trkpt>
      <trkpt lat="45.30708" lon="4.61385">
        <ele>614.40002441406</ele>
        <time>2019-02-20T08:27:01.000Z</time>
      </trkpt>
      <trkpt lat="45.3071" lon="4.61384">
        <ele>614.79998779297</ele>
        <time>2019-02-20T08:27:02.000Z</time>
      </trkpt>
      <trkpt lat="45.30711" lon="4.61383">
        <ele>614.79998779297</ele>
        <time>2019-02-20T08:27:03.000Z</time>
      </trkpt>
      <trkpt lat="45.30713" lon="4.61382">
        <ele>615</ele>
        <time>2019-02-20T08:27:04.000Z</time>
      </trkpt>
      <trkpt lat="45.30714" lon="4.61381">
        <ele>615.20001220703</ele>
        <time>2019-02-20T08:27:05.000Z</time>
      </trkpt>
      <trkpt lat="45.30716" lon="4.61379">
        <ele>615.40002441406</ele>
        <time>2019-02-20T08:27:06.000Z</time>
      </trkpt>
      <trkpt lat="45.30717" lon="4.61378">
        <ele>615.59997558594</ele>
        <time>2019-02-20T08:27:07.000Z</time>
      </trkpt>
      <trkpt lat="45.30718" lon="4.61377">
        <ele>616</ele>
        <time>2019-02-20T08:27:08.000Z</time>
      </trkpt>
      <trkpt lat="45.30719" lon="4.61376">
        <ele>616.40002441406</ele>
        <time>2019-02-20T08:27:09.000Z</time>
      </trkpt>
      <trkpt lat="45.3072" lon="4.61375">
        <ele>616.40002441406</ele>
        <time>2019-02-20T08:27:10.000Z</time>
      </trkpt>
      <trkpt lat="45.3072" lon="4.61374">
        <ele>616.79998779297</ele>
        <time>2019-02-20T08:27:11.000Z</time>
      </trkpt>
      <trkpt lat="45.30721" lon="4.61372">
        <ele>617</ele>
        <time>2019-02-20T08:27:12.000Z</time>
      </trkpt>
      <trkpt lat="45.30722" lon="4.61371">
        <ele>617.40002441406</ele>
        <time>2019-02-20T08:27:13.000Z</time>
      </trkpt>
      <trkpt lat="45.30723" lon="4.61369">
        <ele>617.79998779297</ele>
        <time>2019-02-20T08:27:14.000Z</time>
      </trkpt>
      <trkpt lat="45.30724" lon="4.61368">
        <ele>618</ele>
        <time>2019-02-20T08:27:15.000Z</time>
      </trkpt>
      <trkpt lat="45.30725" lon="4.61367">
        <ele>618.40002441406</ele>
        <time>2019-02-20T08:27:16.000Z</time>
      </trkpt>
      <trkpt lat="45.30726" lon="4.61365">
        <ele>618.59997558594</ele>
        <time>2019-02-20T08:27:17.000Z</time>
      </trkpt>
      <trkpt lat="45.30727" lon="4.61364">
        <ele>619</ele>
        <time>2019-02-20T08:27:18.000Z</time>
      </trkpt>
      <trkpt lat="45.30727" lon="4.61363">
        <ele>619.40002441406</ele>
        <time>2019-02-20T08:27:19.000Z</time>
      </trkpt>
      <trkpt lat="45.30728" lon="4.61362">
        <ele>619.79998779297</ele>
        <time>2019-02-20T08:27:20.000Z</time>
      </trkpt>
      <trkpt lat="45.30729" lon="4.6136">
        <ele>620.20001220703</ele>
        <time>2019-02-20T08:27:21.000Z</time>
      </trkpt>
      <trkpt lat="45.3073" lon="4.61359">
        <ele>620.59997558594</ele>
        <time>2019-02-20T08:27:22.000Z</time>
      </trkpt>
      <trkpt lat="45.30731" lon="4.61358">
        <ele>621</ele>
        <time>2019-02-20T08:27:23.000Z</time>
      </trkpt>
      <trkpt lat="45.30731" lon="4.61356">
        <ele>621.20001220703</ele>
        <time>2019-02-20T08:27:24.000Z</time>
      </trkpt>
      <trkpt lat="45.30732" lon="4.61355">
        <ele>621.59997558594</ele>
        <time>2019-02-20T08:27:25.000Z</time>
      </trkpt>
      <trkpt lat="45.30733" lon="4.61354">
        <ele>621.59997558594</ele>
        <time>2019-02-20T08:27:26.000Z</time>
      </trkpt>
      <trkpt lat="45.30734" lon="4.61353">
        <ele>621.79998779297</ele>
        <time>2019-02-20T08:27:27.000Z</time>
      </trkpt>
      <trkpt lat="45.30736" lon="4.61352">
        <ele>622.20001220703</ele>
        <time>2019-02-20T08:27:28.000Z</time>
      </trkpt>
      <trkpt lat="45.30737" lon="4.61351">
        <ele>622.40002441406</ele>
        <time>2019-02-20T08:27:29.000Z</time>
      </trkpt>
      <trkpt lat="45.30738" lon="4.61351">
        <ele>622.79998779297</ele>
        <time>2019-02-20T08:27:30.000Z</time>
      </trkpt>
      <trkpt lat="45.30739" lon="4.61349">
        <ele>623</ele>
        <time>2019-02-20T08:27:31.000Z</time>
      </trkpt>
      <trkpt lat="45.3074" lon="4.61348">
        <ele>623.20001220703</ele>
        <time>2019-02-20T08:27:32.000Z</time>
      </trkpt>
      <trkpt lat="45.30742" lon="4.61348">
        <ele>623.40002441406</ele>
        <time>2019-02-20T08:27:33.000Z</time>
      </trkpt>
      <trkpt lat="45.30743" lon="4.61347">
        <ele>623.59997558594</ele>
        <time>2019-02-20T08:27:34.000Z</time>
      </trkpt>
      <trkpt lat="45.30744" lon="4.61346">
        <ele>623.79998779297</ele>
        <time>2019-02-20T08:27:35.000Z</time>
      </trkpt>
      <trkpt lat="45.30745" lon="4.61345">
        <ele>624</ele>
        <time>2019-02-20T08:27:36.000Z</time>
      </trkpt>
      <trkpt lat="45.30746" lon="4.61344">
        <ele>624.20001220703</ele>
        <time>2019-02-20T08:27:37.000Z</time>
      </trkpt>
      <trkpt lat="45.30747" lon="4.61342">
        <ele>624.40002441406</ele>
        <time>2019-02-20T08:27:38.000Z</time>
      </trkpt>
      <trkpt lat="45.30749" lon="4.61341">
        <ele>624.59997558594</ele>
        <time>2019-02-20T08:27:39.000Z</time>
      </trkpt>
      <trkpt lat="45.3075" lon="4.6134">
        <ele>624.59997558594</ele>
        <time>2019-02-20T08:27:40.000Z</time>
      </trkpt>
      <trkpt lat="45.30751" lon="4.61339">
        <ele>624.79998779297</ele>
        <time>2019-02-20T08:27:41.000Z</time>
      </trkpt>
      <trkpt lat="45.30752" lon="4.61338">
        <ele>625.20001220703</ele>
        <time>2019-02-20T08:27:42.000Z</time>
      </trkpt>
      <trkpt lat="45.30754" lon="4.61337">
        <ele>625.40002441406</ele>
        <time>2019-02-20T08:27:43.000Z</time>
      </trkpt>
      <trkpt lat="45.30755" lon="4.61336">
        <ele>625.59997558594</ele>
        <time>2019-02-20T08:27:44.000Z</time>
      </trkpt>
      <trkpt lat="45.30756" lon="4.61335">
        <ele>626</ele>
        <time>2019-02-20T08:27:45.000Z</time>
      </trkpt>
      <trkpt lat="45.30757" lon="4.61334">
        <ele>626.20001220703</ele>
        <time>2019-02-20T08:27:46.000Z</time>
      </trkpt>
      <trkpt lat="45.30759" lon="4.61333">
        <ele>626.59997558594</ele>
        <time>2019-02-20T08:27:47.000Z</time>
      </trkpt>
      <trkpt lat="45.3076" lon="4.61332">
        <ele>626.59997558594</ele>
        <time>2019-02-20T08:27:48.000Z</time>
      </trkpt>
      <trkpt lat="45.30761" lon="4.61331">
        <ele>627</ele>
        <time>2019-02-20T08:27:49.000Z</time>
      </trkpt>
      <trkpt lat="45.30762" lon="4.6133">
        <ele>627.20001220703</ele>
        <time>2019-02-20T08:27:50.000Z</time>
      </trkpt>
      <trkpt lat="45.30763" lon="4.61329">
        <ele>627.40002441406</ele>
        <time>2019-02-20T08:27:51.000Z</time>
      </trkpt>
      <trkpt lat="45.30764" lon="4.61328">
        <ele>627.40002441406</ele>
        <time>2019-02-20T08:27:52.000Z</time>
      </trkpt>
      <trkpt lat="45.30765" lon="4.61327">
        <ele>627.59997558594</ele>
        <time>2019-02-20T08:27:53.000Z</time>
      </trkpt>
      <trkpt lat="45.30766" lon="4.61325">
        <ele>628</ele>
        <time>2019-02-20T08:27:54.000Z</time>
      </trkpt>
      <trkpt lat="45.30768" lon="4.61325">
        <ele>628.20001220703</ele>
        <time>2019-02-20T08:27:55.000Z</time>
      </trkpt>
      <trkpt lat="45.30769" lon="4.61325">
        <ele>628.40002441406</ele>
        <time>2019-02-20T08:27:56.000Z</time>
      </trkpt>
      <trkpt lat="45.30771" lon="4.61324">
        <ele>628.59997558594</ele>
        <time>2019-02-20T08:27:57.000Z</time>
      </trkpt>
      <trkpt lat="45.30772" lon="4.61323">
        <ele>629</ele>
        <time>2019-02-20T08:27:58.000Z</time>
      </trkpt>
      <trkpt lat="45.30773" lon="4.61323">
        <ele>629</ele>
        <time>2019-02-20T08:27:59.000Z</time>
      </trkpt>
      <trkpt lat="45.30775" lon="4.61322">
        <ele>629.20001220703</ele>
        <time>2019-02-20T08:28:00.000Z</time>
      </trkpt>
      <trkpt lat="45.30776" lon="4.61321">
        <ele>629.40002441406</ele>
        <time>2019-02-20T08:28:01.000Z</time>
      </trkpt>
      <trkpt lat="45.30777" lon="4.6132">
        <ele>629.79998779297</ele>
        <time>2019-02-20T08:28:02.000Z</time>
      </trkpt>
      <trkpt lat="45.30778" lon="4.61319">
        <ele>630</ele>
        <time>2019-02-20T08:28:03.000Z</time>
      </trkpt>
      <trkpt lat="45.30779" lon="4.61318">
        <ele>630</ele>
        <time>2019-02-20T08:28:04.000Z</time>
      </trkpt>
      <trkpt lat="45.30781" lon="4.61317">
        <ele>630.40002441406</ele>
        <time>2019-02-20T08:28:05.000Z</time>
      </trkpt>
      <trkpt lat="45.30782" lon="4.61316">
        <ele>630.59997558594</ele>
        <time>2019-02-20T08:28:06.000Z</time>
      </trkpt>
      <trkpt lat="45.30783" lon="4.61316">
        <ele>630.59997558594</ele>
        <time>2019-02-20T08:28:07.000Z</time>
      </trkpt>
      <trkpt lat="45.30784" lon="4.61315">
        <ele>630.79998779297</ele>
        <time>2019-02-20T08:28:08.000Z</time>
      </trkpt>
      <trkpt lat="45.30786" lon="4.61314">
        <ele>631.20001220703</ele>
        <time>2019-02-20T08:28:09.000Z</time>
      </trkpt>
      <trkpt lat="45.30787" lon="4.61313">
        <ele>631.20001220703</ele>
        <time>2019-02-20T08:28:10.000Z</time>
      </trkpt>
      <trkpt lat="45.30788" lon="4.61313">
        <ele>631.59997558594</ele>
        <time>2019-02-20T08:28:11.000Z</time>
      </trkpt>
      <trkpt lat="45.30789" lon="4.61311">
        <ele>631.59997558594</ele>
        <time>2019-02-20T08:28:12.000Z</time>
      </trkpt>
      <trkpt lat="45.3079" lon="4.6131">
        <ele>631.79998779297</ele>
        <time>2019-02-20T08:28:13.000Z</time>
      </trkpt>
      <trkpt lat="45.30791" lon="4.61309">
        <ele>632</ele>
        <time>2019-02-20T08:28:14.000Z</time>
      </trkpt>
      <trkpt lat="45.30793" lon="4.61308">
        <ele>632.20001220703</ele>
        <time>2019-02-20T08:28:15.000Z</time>
      </trkpt>
      <trkpt lat="45.30794" lon="4.61307">
        <ele>632.40002441406</ele>
        <time>2019-02-20T08:28:16.000Z</time>
      </trkpt>
      <trkpt lat="45.30795" lon="4.61306">
        <ele>632.79998779297</ele>
        <time>2019-02-20T08:28:17.000Z</time>
      </trkpt>
      <trkpt lat="45.30796" lon="4.61304">
        <ele>633</ele>
        <time>2019-02-20T08:28:18.000Z</time>
      </trkpt>
      <trkpt lat="45.30798" lon="4.61303">
        <ele>633.20001220703</ele>
        <time>2019-02-20T08:28:19.000Z</time>
      </trkpt>
      <trkpt lat="45.30799" lon="4.61302">
        <ele>633.40002441406</ele>
        <time>2019-02-20T08:28:20.000Z</time>
      </trkpt>
      <trkpt lat="45.308" lon="4.61301">
        <ele>633.79998779297</ele>
        <time>2019-02-20T08:28:21.000Z</time>
      </trkpt>
      <trkpt lat="45.30802" lon="4.613">
        <ele>634</ele>
        <time>2019-02-20T08:28:22.000Z</time>
      </trkpt>
      <trkpt lat="45.30803" lon="4.61298">
        <ele>634.20001220703</ele>
        <time>2019-02-20T08:28:23.000Z</time>
      </trkpt>
      <trkpt lat="45.30804" lon="4.61297">
        <ele>634.40002441406</ele>
        <time>2019-02-20T08:28:24.000Z</time>
      </trkpt>
      <trkpt lat="45.30805" lon="4.61295">
        <ele>634.40002441406</ele>
        <time>2019-02-20T08:28:25.000Z</time>
      </trkpt>
      <trkpt lat="45.30807" lon="4.61294">
        <ele>634.79998779297</ele>
        <time>2019-02-20T08:28:26.000Z</time>
      </trkpt>
      <trkpt lat="45.30808" lon="4.61293">
        <ele>635</ele>
        <time>2019-02-20T08:28:27.000Z</time>
      </trkpt>
      <trkpt lat="45.3081" lon="4.61292">
        <ele>635.20001220703</ele>
        <time>2019-02-20T08:28:28.000Z</time>
      </trkpt>
      <trkpt lat="45.30811" lon="4.61291">
        <ele>635.20001220703</ele>
        <time>2019-02-20T08:28:29.000Z</time>
      </trkpt>
      <trkpt lat="45.30812" lon="4.6129">
        <ele>635.59997558594</ele>
        <time>2019-02-20T08:28:30.000Z</time>
      </trkpt>
      <trkpt lat="45.30813" lon="4.61289">
        <ele>635.79998779297</ele>
        <time>2019-02-20T08:28:31.000Z</time>
      </trkpt>
      <trkpt lat="45.30814" lon="4.61287">
        <ele>636</ele>
        <time>2019-02-20T08:28:32.000Z</time>
      </trkpt>
      <trkpt lat="45.30816" lon="4.61286">
        <ele>636.20001220703</ele>
        <time>2019-02-20T08:28:33.000Z</time>
      </trkpt>
      <trkpt lat="45.30817" lon="4.61285">
        <ele>636.59997558594</ele>
        <time>2019-02-20T08:28:34.000Z</time>
      </trkpt>
      <trkpt lat="45.30818" lon="4.61284">
        <ele>636.79998779297</ele>
        <time>2019-02-20T08:28:35.000Z</time>
      </trkpt>
      <trkpt lat="45.30819" lon="4.61283">
        <ele>637</ele>
        <time>2019-02-20T08:28:36.000Z</time>
      </trkpt>
      <trkpt lat="45.3082" lon="4.61282">
        <ele>637.20001220703</ele>
        <time>2019-02-20T08:28:37.000Z</time>
      </trkpt>
      <trkpt lat="45.30822" lon="4.61281">
        <ele>637.40002441406</ele>
        <time>2019-02-20T08:28:38.000Z</time>
      </trkpt>
      <trkpt lat="45.30822" lon="4.61281">
        <ele>637.59997558594</ele>
        <time>2019-02-20T08:28:39.000Z</time>
      </trkpt>
      <trkpt lat="45.30823" lon="4.6128">
        <ele>638</ele>
        <time>2019-02-20T08:28:40.000Z</time>
      </trkpt>
      <trkpt lat="45.30824" lon="4.61279">
        <ele>638</ele>
        <time>2019-02-20T08:28:41.000Z</time>
      </trkpt>
      <trkpt lat="45.30826" lon="4.61278">
        <ele>638</ele>
        <time>2019-02-20T08:28:42.000Z</time>
      </trkpt>
      <trkpt lat="45.30827" lon="4.61277">
        <ele>638.20001220703</ele>
        <time>2019-02-20T08:28:43.000Z</time>
      </trkpt>
      <trkpt lat="45.30828" lon="4.61276">
        <ele>638.40002441406</ele>
        <time>2019-02-20T08:28:44.000Z</time>
      </trkpt>
      <trkpt lat="45.30829" lon="4.61275">
        <ele>638.59997558594</ele>
        <time>2019-02-20T08:28:45.000Z</time>
      </trkpt>
      <trkpt lat="45.30831" lon="4.61274">
        <ele>638.59997558594</ele>
        <time>2019-02-20T08:28:46.000Z</time>
      </trkpt>
      <trkpt lat="45.30832" lon="4.61273">
        <ele>639</ele>
        <time>2019-02-20T08:28:47.000Z</time>
      </trkpt>
      <trkpt lat="45.30833" lon="4.61272">
        <ele>639</ele>
        <time>2019-02-20T08:28:48.000Z</time>
      </trkpt>
      <trkpt lat="45.30834" lon="4.61271">
        <ele>639.20001220703</ele>
        <time>2019-02-20T08:28:49.000Z</time>
      </trkpt>
      <trkpt lat="45.30835" lon="4.6127">
        <ele>639.40002441406</ele>
        <time>2019-02-20T08:28:50.000Z</time>
      </trkpt>
      <trkpt lat="45.30836" lon="4.61269">
        <ele>639.59997558594</ele>
        <time>2019-02-20T08:28:51.000Z</time>
      </trkpt>
      <trkpt lat="45.30837" lon="4.61267">
        <ele>639.59997558594</ele>
        <time>2019-02-20T08:28:52.000Z</time>
      </trkpt>
      <trkpt lat="45.30839" lon="4.61267">
        <ele>640</ele>
        <time>2019-02-20T08:28:53.000Z</time>
      </trkpt>
      <trkpt lat="45.3084" lon="4.61266">
        <ele>640</ele>
        <time>2019-02-20T08:28:54.000Z</time>
      </trkpt>
      <trkpt lat="45.30841" lon="4.61265">
        <ele>640.40002441406</ele>
        <time>2019-02-20T08:28:55.000Z</time>
      </trkpt>
      <trkpt lat="45.30842" lon="4.61263">
        <ele>640.40002441406</ele>
        <time>2019-02-20T08:28:56.000Z</time>
      </trkpt>
      <trkpt lat="45.30843" lon="4.61263">
        <ele>640.59997558594</ele>
        <time>2019-02-20T08:28:57.000Z</time>
      </trkpt>
      <trkpt lat="45.30844" lon="4.61262">
        <ele>640.79998779297</ele>
        <time>2019-02-20T08:28:58.000Z</time>
      </trkpt>
      <trkpt lat="45.30845" lon="4.61261">
        <ele>640.79998779297</ele>
        <time>2019-02-20T08:28:59.000Z</time>
      </trkpt>
      <trkpt lat="45.30846" lon="4.61261">
        <ele>641</ele>
        <time>2019-02-20T08:29:00.000Z</time>
      </trkpt>
      <trkpt lat="45.30847" lon="4.6126">
        <ele>641.20001220703</ele>
        <time>2019-02-20T08:29:01.000Z</time>
      </trkpt>
      <trkpt lat="45.30849" lon="4.6126">
        <ele>641.59997558594</ele>
        <time>2019-02-20T08:29:02.000Z</time>
      </trkpt>
      <trkpt lat="45.3085" lon="4.61259">
        <ele>641.40002441406</ele>
        <time>2019-02-20T08:29:03.000Z</time>
      </trkpt>
      <trkpt lat="45.30851" lon="4.61259">
        <ele>641.79998779297</ele>
        <time>2019-02-20T08:29:04.000Z</time>
      </trkpt>
      <trkpt lat="45.30852" lon="4.61258">
        <ele>642</ele>
        <time>2019-02-20T08:29:05.000Z</time>
      </trkpt>
      <trkpt lat="45.30852" lon="4.61257">
        <ele>642</ele>
        <time>2019-02-20T08:29:06.000Z</time>
      </trkpt>
      <trkpt lat="45.30853" lon="4.61257">
        <ele>642.40002441406</ele>
        <time>2019-02-20T08:29:07.000Z</time>
      </trkpt>
      <trkpt lat="45.30854" lon="4.61256">
        <ele>642.40002441406</ele>
        <time>2019-02-20T08:29:08.000Z</time>
      </trkpt>
      <trkpt lat="45.30855" lon="4.61255">
        <ele>642.79998779297</ele>
        <time>2019-02-20T08:29:09.000Z</time>
      </trkpt>
      <trkpt lat="45.30856" lon="4.61254">
        <ele>643.20001220703</ele>
        <time>2019-02-20T08:29:10.000Z</time>
      </trkpt>
      <trkpt lat="45.30857" lon="4.61253">
        <ele>643.20001220703</ele>
        <time>2019-02-20T08:29:11.000Z</time>
      </trkpt>
      <trkpt lat="45.30858" lon="4.61253">
        <ele>643.40002441406</ele>
        <time>2019-02-20T08:29:12.000Z</time>
      </trkpt>
      <trkpt lat="45.3086" lon="4.61252">
        <ele>643.59997558594</ele>
        <time>2019-02-20T08:29:13.000Z</time>
      </trkpt>
      <trkpt lat="45.30861" lon="4.61251">
        <ele>643.59997558594</ele>
        <time>2019-02-20T08:29:14.000Z</time>
      </trkpt>
      <trkpt lat="45.30862" lon="4.6125">
        <ele>643.59997558594</ele>
        <time>2019-02-20T08:29:15.000Z</time>
      </trkpt>
      <trkpt lat="45.30863" lon="4.6125">
        <ele>643.79998779297</ele>
        <time>2019-02-20T08:29:16.000Z</time>
      </trkpt>
      <trkpt lat="45.30864" lon="4.61249">
        <ele>643.79998779297</ele>
        <time>2019-02-20T08:29:17.000Z</time>
      </trkpt>
      <trkpt lat="45.30865" lon="4.61248">
        <ele>644</ele>
        <time>2019-02-20T08:29:18.000Z</time>
      </trkpt>
      <trkpt lat="45.30867" lon="4.61247">
        <ele>644</ele>
        <time>2019-02-20T08:29:19.000Z</time>
      </trkpt>
      <trkpt lat="45.30868" lon="4.61247">
        <ele>644</ele>
        <time>2019-02-20T08:29:20.000Z</time>
      </trkpt>
      <trkpt lat="45.30869" lon="4.61246">
        <ele>644</ele>
        <time>2019-02-20T08:29:21.000Z</time>
      </trkpt>
      <trkpt lat="45.3087" lon="4.61245">
        <ele>644</ele>
        <time>2019-02-20T08:29:22.000Z</time>
      </trkpt>
      <trkpt lat="45.30872" lon="4.61245">
        <ele>644.20001220703</ele>
        <time>2019-02-20T08:29:23.000Z</time>
      </trkpt>
      <trkpt lat="45.30873" lon="4.61244">
        <ele>644.40002441406</ele>
        <time>2019-02-20T08:29:24.000Z</time>
      </trkpt>
      <trkpt lat="45.30874" lon="4.61243">
        <ele>644.20001220703</ele>
        <time>2019-02-20T08:29:25.000Z</time>
      </trkpt>
      <trkpt lat="45.30875" lon="4.61243">
        <ele>644.59997558594</ele>
        <time>2019-02-20T08:29:26.000Z</time>
      </trkpt>
      <trkpt lat="45.30877" lon="4.61242">
        <ele>644.59997558594</ele>
        <time>2019-02-20T08:29:27.000Z</time>
      </trkpt>
      <trkpt lat="45.30878" lon="4.61241">
        <ele>644.59997558594</ele>
        <time>2019-02-20T08:29:28.000Z</time>
      </trkpt>
      <trkpt lat="45.30879" lon="4.61241">
        <ele>644.79998779297</ele>
        <time>2019-02-20T08:29:29.000Z</time>
      </trkpt>
      <trkpt lat="45.3088" lon="4.6124">
        <ele>645</ele>
        <time>2019-02-20T08:29:30.000Z</time>
      </trkpt>
      <trkpt lat="45.30881" lon="4.6124">
        <ele>645</ele>
        <time>2019-02-20T08:29:31.000Z</time>
      </trkpt>
      <trkpt lat="45.30883" lon="4.61239">
        <ele>645.20001220703</ele>
        <time>2019-02-20T08:29:32.000Z</time>
      </trkpt>
      <trkpt lat="45.30884" lon="4.61239">
        <ele>645.20001220703</ele>
        <time>2019-02-20T08:29:33.000Z</time>
      </trkpt>
      <trkpt lat="45.30885" lon="4.61238">
        <ele>645.20001220703</ele>
        <time>2019-02-20T08:29:34.000Z</time>
      </trkpt>
      <trkpt lat="45.30886" lon="4.61238">
        <ele>645.40002441406</ele>
        <time>2019-02-20T08:29:35.000Z</time>
      </trkpt>
      <trkpt lat="45.30887" lon="4.61237">
        <ele>645.79998779297</ele>
        <time>2019-02-20T08:29:36.000Z</time>
      </trkpt>
      <trkpt lat="45.30888" lon="4.61236">
        <ele>645.79998779297</ele>
        <time>2019-02-20T08:29:37.000Z</time>
      </trkpt>
      <trkpt lat="45.30889" lon="4.61236">
        <ele>645.79998779297</ele>
        <time>2019-02-20T08:29:38.000Z</time>
      </trkpt>
      <trkpt lat="45.3089" lon="4.61235">
        <ele>646</ele>
        <time>2019-02-20T08:29:39.000Z</time>
      </trkpt>
      <trkpt lat="45.30892" lon="4.61234">
        <ele>646.40002441406</ele>
        <time>2019-02-20T08:29:40.000Z</time>
      </trkpt>
      <trkpt lat="45.30893" lon="4.61233">
        <ele>646.40002441406</ele>
        <time>2019-02-20T08:29:41.000Z</time>
      </trkpt>
      <trkpt lat="45.30894" lon="4.61232">
        <ele>646.59997558594</ele>
        <time>2019-02-20T08:29:42.000Z</time>
      </trkpt>
      <trkpt lat="45.30895" lon="4.61232">
        <ele>646.79998779297</ele>
        <time>2019-02-20T08:29:43.000Z</time>
      </trkpt>
      <trkpt lat="45.30897" lon="4.61232">
        <ele>647.40002441406</ele>
        <time>2019-02-20T08:29:44.000Z</time>
      </trkpt>
      <trkpt lat="45.30898" lon="4.61231">
        <ele>647.79998779297</ele>
        <time>2019-02-20T08:29:45.000Z</time>
      </trkpt>
      <trkpt lat="45.30899" lon="4.6123">
        <ele>648.20001220703</ele>
        <time>2019-02-20T08:29:46.000Z</time>
      </trkpt>
      <trkpt lat="45.309" lon="4.6123">
        <ele>648.20001220703</ele>
        <time>2019-02-20T08:29:47.000Z</time>
      </trkpt>
      <trkpt lat="45.30901" lon="4.6123">
        <ele>648.40002441406</ele>
        <time>2019-02-20T08:29:48.000Z</time>
      </trkpt>
      <trkpt lat="45.30902" lon="4.61229">
        <ele>648.59997558594</ele>
        <time>2019-02-20T08:29:49.000Z</time>
      </trkpt>
      <trkpt lat="45.30904" lon="4.61229">
        <ele>648.79998779297</ele>
        <time>2019-02-20T08:29:50.000Z</time>
      </trkpt>
      <trkpt lat="45.30905" lon="4.61229">
        <ele>649</ele>
        <time>2019-02-20T08:29:51.000Z</time>
      </trkpt>
      <trkpt lat="45.30906" lon="4.61228">
        <ele>649.40002441406</ele>
        <time>2019-02-20T08:29:52.000Z</time>
      </trkpt>
      <trkpt lat="45.30907" lon="4.61228">
        <ele>649.59997558594</ele>
        <time>2019-02-20T08:29:53.000Z</time>
      </trkpt>
      <trkpt lat="45.30909" lon="4.61227">
        <ele>649.79998779297</ele>
        <time>2019-02-20T08:29:54.000Z</time>
      </trkpt>
      <trkpt lat="45.3091" lon="4.61226">
        <ele>650</ele>
        <time>2019-02-20T08:29:55.000Z</time>
      </trkpt>
      <trkpt lat="45.30911" lon="4.61225">
        <ele>650</ele>
        <time>2019-02-20T08:29:56.000Z</time>
      </trkpt>
      <trkpt lat="45.30912" lon="4.61224">
        <ele>650.20001220703</ele>
        <time>2019-02-20T08:29:57.000Z</time>
      </trkpt>
      <trkpt lat="45.30913" lon="4.61224">
        <ele>650.40002441406</ele>
        <time>2019-02-20T08:29:58.000Z</time>
      </trkpt>
      <trkpt lat="45.30914" lon="4.61224">
        <ele>650.59997558594</ele>
        <time>2019-02-20T08:29:59.000Z</time>
      </trkpt>
      <trkpt lat="45.30916" lon="4.61224">
        <ele>650.79998779297</ele>
        <time>2019-02-20T08:30:00.000Z</time>
      </trkpt>
      <trkpt lat="45.30917" lon="4.61223">
        <ele>650.79998779297</ele>
        <time>2019-02-20T08:30:01.000Z</time>
      </trkpt>
      <trkpt lat="45.30918" lon="4.61222">
        <ele>651.20001220703</ele>
        <time>2019-02-20T08:30:02.000Z</time>
      </trkpt>
      <trkpt lat="45.30919" lon="4.61222">
        <ele>651.20001220703</ele>
        <time>2019-02-20T08:30:03.000Z</time>
      </trkpt>
      <trkpt lat="45.3092" lon="4.61221">
        <ele>651.59997558594</ele>
        <time>2019-02-20T08:30:04.000Z</time>
      </trkpt>
      <trkpt lat="45.30922" lon="4.61221">
        <ele>651.59997558594</ele>
        <time>2019-02-20T08:30:05.000Z</time>
      </trkpt>
      <trkpt lat="45.30923" lon="4.6122">
        <ele>651.79998779297</ele>
        <time>2019-02-20T08:30:06.000Z</time>
      </trkpt>
      <trkpt lat="45.30924" lon="4.6122">
        <ele>652</ele>
        <time>2019-02-20T08:30:07.000Z</time>
      </trkpt>
      <trkpt lat="45.30925" lon="4.61219">
        <ele>652.20001220703</ele>
        <time>2019-02-20T08:30:08.000Z</time>
      </trkpt>
      <trkpt lat="45.30926" lon="4.61219">
        <ele>652.40002441406</ele>
        <time>2019-02-20T08:30:09.000Z</time>
      </trkpt>
      <trkpt lat="45.30927" lon="4.61218">
        <ele>652.40002441406</ele>
        <time>2019-02-20T08:30:10.000Z</time>
      </trkpt>
      <trkpt lat="45.30928" lon="4.61217">
        <ele>652.59997558594</ele>
        <time>2019-02-20T08:30:11.000Z</time>
      </trkpt>
      <trkpt lat="45.3093" lon="4.61217">
        <ele>652.59997558594</ele>
        <time>2019-02-20T08:30:12.000Z</time>
      </trkpt>
      <trkpt lat="45.30931" lon="4.61217">
        <ele>653</ele>
        <time>2019-02-20T08:30:13.000Z</time>
      </trkpt>
      <trkpt lat="45.30932" lon="4.61216">
        <ele>653.20001220703</ele>
        <time>2019-02-20T08:30:14.000Z</time>
      </trkpt>
      <trkpt lat="45.30933" lon="4.61216">
        <ele>653.40002441406</ele>
        <time>2019-02-20T08:30:15.000Z</time>
      </trkpt>
      <trkpt lat="45.30934" lon="4.61216">
        <ele>653.59997558594</ele>
        <time>2019-02-20T08:30:16.000Z</time>
      </trkpt>
      <trkpt lat="45.30935" lon="4.61215">
        <ele>653.79998779297</ele>
        <time>2019-02-20T08:30:17.000Z</time>
      </trkpt>
      <trkpt lat="45.30936" lon="4.61214">
        <ele>654</ele>
        <time>2019-02-20T08:30:18.000Z</time>
      </trkpt>
      <trkpt lat="45.30937" lon="4.61213">
        <ele>654.40002441406</ele>
        <time>2019-02-20T08:30:19.000Z</time>
      </trkpt>
      <trkpt lat="45.30939" lon="4.61213">
        <ele>654.79998779297</ele>
        <time>2019-02-20T08:30:20.000Z</time>
      </trkpt>
      <trkpt lat="45.3094" lon="4.61212">
        <ele>655</ele>
        <time>2019-02-20T08:30:21.000Z</time>
      </trkpt>
      <trkpt lat="45.30941" lon="4.61211">
        <ele>655</ele>
        <time>2019-02-20T08:30:22.000Z</time>
      </trkpt>
      <trkpt lat="45.30943" lon="4.6121">
        <ele>655.20001220703</ele>
        <time>2019-02-20T08:30:23.000Z</time>
      </trkpt>
      <trkpt lat="45.30944" lon="4.6121">
        <ele>655.20001220703</ele>
        <time>2019-02-20T08:30:24.000Z</time>
      </trkpt>
      <trkpt lat="45.30945" lon="4.61209">
        <ele>655.59997558594</ele>
        <time>2019-02-20T08:30:25.000Z</time>
      </trkpt>
      <trkpt lat="45.30946" lon="4.61209">
        <ele>655.59997558594</ele>
        <time>2019-02-20T08:30:26.000Z</time>
      </trkpt>
      <trkpt lat="45.30947" lon="4.61209">
        <ele>656</ele>
        <time>2019-02-20T08:30:27.000Z</time>
      </trkpt>
      <trkpt lat="45.30948" lon="4.61208">
        <ele>656</ele>
        <time>2019-02-20T08:30:28.000Z</time>
      </trkpt>
      <trkpt lat="45.30949" lon="4.61208">
        <ele>656</ele>
        <time>2019-02-20T08:30:29.000Z</time>
      </trkpt>
      <trkpt lat="45.3095" lon="4.61207">
        <ele>656.40002441406</ele>
        <time>2019-02-20T08:30:30.000Z</time>
      </trkpt>
      <trkpt lat="45.30951" lon="4.61207">
        <ele>656.40002441406</ele>
        <time>2019-02-20T08:30:31.000Z</time>
      </trkpt>
      <trkpt lat="45.30952" lon="4.61207">
        <ele>656.79998779297</ele>
        <time>2019-02-20T08:30:32.000Z</time>
      </trkpt>
      <trkpt lat="45.30953" lon="4.61206">
        <ele>657</ele>
        <time>2019-02-20T08:30:33.000Z</time>
      </trkpt>
      <trkpt lat="45.30954" lon="4.61206">
        <ele>657.40002441406</ele>
        <time>2019-02-20T08:30:34.000Z</time>
      </trkpt>
      <trkpt lat="45.30955" lon="4.61205">
        <ele>657.59997558594</ele>
        <time>2019-02-20T08:30:35.000Z</time>
      </trkpt>
      <trkpt lat="45.30956" lon="4.61205">
        <ele>657.59997558594</ele>
        <time>2019-02-20T08:30:36.000Z</time>
      </trkpt>
      <trkpt lat="45.30956" lon="4.61204">
        <ele>657.79998779297</ele>
        <time>2019-02-20T08:30:37.000Z</time>
      </trkpt>
      <trkpt lat="45.30957" lon="4.61204">
        <ele>658</ele>
        <time>2019-02-20T08:30:38.000Z</time>
      </trkpt>
      <trkpt lat="45.30958" lon="4.61203">
        <ele>658</ele>
        <time>2019-02-20T08:30:39.000Z</time>
      </trkpt>
      <trkpt lat="45.30959" lon="4.61202">
        <ele>658.40002441406</ele>
        <time>2019-02-20T08:30:40.000Z</time>
      </trkpt>
      <trkpt lat="45.3096" lon="4.61202">
        <ele>658.59997558594</ele>
        <time>2019-02-20T08:30:41.000Z</time>
      </trkpt>
      <trkpt lat="45.30961" lon="4.61203">
        <ele>659</ele>
        <time>2019-02-20T08:30:42.000Z</time>
      </trkpt>
      <trkpt lat="45.30962" lon="4.61203">
        <ele>659.20001220703</ele>
        <time>2019-02-20T08:30:43.000Z</time>
      </trkpt>
      <trkpt lat="45.30963" lon="4.61202">
        <ele>659.59997558594</ele>
        <time>2019-02-20T08:30:44.000Z</time>
      </trkpt>
      <trkpt lat="45.30964" lon="4.61202">
        <ele>659.79998779297</ele>
        <time>2019-02-20T08:30:45.000Z</time>
      </trkpt>
      <trkpt lat="45.30965" lon="4.61202">
        <ele>660</ele>
        <time>2019-02-20T08:30:46.000Z</time>
      </trkpt>
      <trkpt lat="45.30966" lon="4.61201">
        <ele>660.20001220703</ele>
        <time>2019-02-20T08:30:47.000Z</time>
      </trkpt>
      <trkpt lat="45.30967" lon="4.61199">
        <ele>660.40002441406</ele>
        <time>2019-02-20T08:30:48.000Z</time>
      </trkpt>
      <trkpt lat="45.30968" lon="4.61199">
        <ele>660.79998779297</ele>
        <time>2019-02-20T08:30:49.000Z</time>
      </trkpt>
      <trkpt lat="45.30969" lon="4.61198">
        <ele>661</ele>
        <time>2019-02-20T08:30:50.000Z</time>
      </trkpt>
      <trkpt lat="45.3097" lon="4.61198">
        <ele>661</ele>
        <time>2019-02-20T08:30:51.000Z</time>
      </trkpt>
      <trkpt lat="45.30972" lon="4.61197">
        <ele>661.40002441406</ele>
        <time>2019-02-20T08:30:52.000Z</time>
      </trkpt>
      <trkpt lat="45.30973" lon="4.61197">
        <ele>661.59997558594</ele>
        <time>2019-02-20T08:30:53.000Z</time>
      </trkpt>
      <trkpt lat="45.30974" lon="4.61197">
        <ele>662</ele>
        <time>2019-02-20T08:30:54.000Z</time>
      </trkpt>
      <trkpt lat="45.30975" lon="4.61196">
        <ele>662.20001220703</ele>
        <time>2019-02-20T08:30:55.000Z</time>
      </trkpt>
      <trkpt lat="45.30976" lon="4.61196">
        <ele>662.59997558594</ele>
        <time>2019-02-20T08:30:56.000Z</time>
      </trkpt>
      <trkpt lat="45.30978" lon="4.61195">
        <ele>662.79998779297</ele>
        <time>2019-02-20T08:30:57.000Z</time>
      </trkpt>
      <trkpt lat="45.30979" lon="4.61195">
        <ele>663.20001220703</ele>
        <time>2019-02-20T08:30:58.000Z</time>
      </trkpt>
      <trkpt lat="45.3098" lon="4.61194">
        <ele>663.40002441406</ele>
        <time>2019-02-20T08:30:59.000Z</time>
      </trkpt>
      <trkpt lat="45.30981" lon="4.61194">
        <ele>663.59997558594</ele>
        <time>2019-02-20T08:31:00.000Z</time>
      </trkpt>
      <trkpt lat="45.30982" lon="4.61193">
        <ele>664</ele>
        <time>2019-02-20T08:31:01.000Z</time>
      </trkpt>
      <trkpt lat="45.30983" lon="4.61193">
        <ele>664.20001220703</ele>
        <time>2019-02-20T08:31:02.000Z</time>
      </trkpt>
      <trkpt lat="45.30984" lon="4.61192">
        <ele>664.40002441406</ele>
        <time>2019-02-20T08:31:03.000Z</time>
      </trkpt>
      <trkpt lat="45.30985" lon="4.61192">
        <ele>664.79998779297</ele>
        <time>2019-02-20T08:31:04.000Z</time>
      </trkpt>
      <trkpt lat="45.30986" lon="4.61192">
        <ele>665</ele>
        <time>2019-02-20T08:31:05.000Z</time>
      </trkpt>
      <trkpt lat="45.30987" lon="4.61192">
        <ele>665.20001220703</ele>
        <time>2019-02-20T08:31:06.000Z</time>
      </trkpt>
      <trkpt lat="45.30989" lon="4.61192">
        <ele>665.40002441406</ele>
        <time>2019-02-20T08:31:07.000Z</time>
      </trkpt>
      <trkpt lat="45.3099" lon="4.61191">
        <ele>665.59997558594</ele>
        <time>2019-02-20T08:31:08.000Z</time>
      </trkpt>
      <trkpt lat="45.3099" lon="4.61191">
        <ele>665.79998779297</ele>
        <time>2019-02-20T08:31:09.000Z</time>
      </trkpt>
      <trkpt lat="45.30992" lon="4.6119">
        <ele>665.79998779297</ele>
        <time>2019-02-20T08:31:10.000Z</time>
      </trkpt>
      <trkpt lat="45.30993" lon="4.6119">
        <ele>666.40002441406</ele>
        <time>2019-02-20T08:31:11.000Z</time>
      </trkpt>
      <trkpt lat="45.30994" lon="4.61189">
        <ele>666.59997558594</ele>
        <time>2019-02-20T08:31:12.000Z</time>
      </trkpt>
      <trkpt lat="45.30996" lon="4.61189">
        <ele>667.20001220703</ele>
        <time>2019-02-20T08:31:13.000Z</time>
      </trkpt>
      <trkpt lat="45.30997" lon="4.61188">
        <ele>667.59997558594</ele>
        <time>2019-02-20T08:31:14.000Z</time>
      </trkpt>
      <trkpt lat="45.30998" lon="4.61187">
        <ele>668</ele>
        <time>2019-02-20T08:31:15.000Z</time>
      </trkpt>
      <trkpt lat="45.30999" lon="4.61187">
        <ele>668.40002441406</ele>
        <time>2019-02-20T08:31:16.000Z</time>
      </trkpt>
      <trkpt lat="45.31" lon="4.61186">
        <ele>668.79998779297</ele>
        <time>2019-02-20T08:31:17.000Z</time>
      </trkpt>
      <trkpt lat="45.31001" lon="4.61186">
        <ele>669</ele>
        <time>2019-02-20T08:31:18.000Z</time>
      </trkpt>
      <trkpt lat="45.31002" lon="4.61185">
        <ele>669.40002441406</ele>
        <time>2019-02-20T08:31:19.000Z</time>
      </trkpt>
      <trkpt lat="45.31004" lon="4.61185">
        <ele>669.79998779297</ele>
        <time>2019-02-20T08:31:20.000Z</time>
      </trkpt>
      <trkpt lat="45.31005" lon="4.61184">
        <ele>669.79998779297</ele>
        <time>2019-02-20T08:31:21.000Z</time>
      </trkpt>
      <trkpt lat="45.31006" lon="4.61183">
        <ele>670.40002441406</ele>
        <time>2019-02-20T08:31:22.000Z</time>
      </trkpt>
      <trkpt lat="45.31006" lon="4.61183">
        <ele>670.59997558594</ele>
        <time>2019-02-20T08:31:23.000Z</time>
      </trkpt>
      <trkpt lat="45.31008" lon="4.61183">
        <ele>671.20001220703</ele>
        <time>2019-02-20T08:31:24.000Z</time>
      </trkpt>
      <trkpt lat="45.3101" lon="4.61182">
        <ele>671.59997558594</ele>
        <time>2019-02-20T08:31:25.000Z</time>
      </trkpt>
      <trkpt lat="45.31011" lon="4.61182">
        <ele>671.59997558594</ele>
        <time>2019-02-20T08:31:26.000Z</time>
      </trkpt>
      <trkpt lat="45.31012" lon="4.61181">
        <ele>672</ele>
        <time>2019-02-20T08:31:27.000Z</time>
      </trkpt>
      <trkpt lat="45.31014" lon="4.61181">
        <ele>672.20001220703</ele>
        <time>2019-02-20T08:31:28.000Z</time>
      </trkpt>
      <trkpt lat="45.31015" lon="4.6118">
        <ele>672.40002441406</ele>
        <time>2019-02-20T08:31:29.000Z</time>
      </trkpt>
      <trkpt lat="45.31017" lon="4.61179">
        <ele>673</ele>
        <time>2019-02-20T08:31:30.000Z</time>
      </trkpt>
      <trkpt lat="45.31018" lon="4.61179">
        <ele>673.40002441406</ele>
        <time>2019-02-20T08:31:31.000Z</time>
      </trkpt>
      <trkpt lat="45.3102" lon="4.61178">
        <ele>673.79998779297</ele>
        <time>2019-02-20T08:31:32.000Z</time>
      </trkpt>
      <trkpt lat="45.31021" lon="4.61178">
        <ele>674.20001220703</ele>
        <time>2019-02-20T08:31:33.000Z</time>
      </trkpt>
      <trkpt lat="45.31022" lon="4.61178">
        <ele>674.59997558594</ele>
        <time>2019-02-20T08:31:34.000Z</time>
      </trkpt>
      <trkpt lat="45.31022" lon="4.61178">
        <ele>675.20001220703</ele>
        <time>2019-02-20T08:31:35.000Z</time>
      </trkpt>
      <trkpt lat="45.3103" lon="4.61175">
        <ele>678.79998779297</ele>
        <time>2019-02-20T08:32:03.000Z</time>
      </trkpt>
      <trkpt lat="45.31032" lon="4.61176">
        <ele>679</ele>
        <time>2019-02-20T08:32:04.000Z</time>
      </trkpt>
      <trkpt lat="45.31033" lon="4.61176">
        <ele>678.79998779297</ele>
        <time>2019-02-20T08:32:05.000Z</time>
      </trkpt>
      <trkpt lat="45.31034" lon="4.61177">
        <ele>679</ele>
        <time>2019-02-20T08:32:06.000Z</time>
      </trkpt>
      <trkpt lat="45.31034" lon="4.61178">
        <ele>679</ele>
        <time>2019-02-20T08:32:07.000Z</time>
      </trkpt>
      <trkpt lat="45.31035" lon="4.61179">
        <ele>679</ele>
        <time>2019-02-20T08:32:08.000Z</time>
      </trkpt>
      <trkpt lat="45.31037" lon="4.61179">
        <ele>679</ele>
        <time>2019-02-20T08:32:09.000Z</time>
      </trkpt>
      <trkpt lat="45.31038" lon="4.61179">
        <ele>679.79998779297</ele>
        <time>2019-02-20T08:32:10.000Z</time>
      </trkpt>
      <trkpt lat="45.31038" lon="4.61179">
        <ele>680.40002441406</ele>
        <time>2019-02-20T08:32:11.000Z</time>
      </trkpt>
      <trkpt lat="45.3105" lon="4.6117">
        <ele>683.40002441406</ele>
        <time>2019-02-20T08:32:45.000Z</time>
      </trkpt>
      <trkpt lat="45.31051" lon="4.61169">
        <ele>683.20001220703</ele>
        <time>2019-02-20T08:32:46.000Z</time>
      </trkpt>
      <trkpt lat="45.31052" lon="4.61169">
        <ele>683.20001220703</ele>
        <time>2019-02-20T08:32:47.000Z</time>
      </trkpt>
      <trkpt lat="45.31053" lon="4.61168">
        <ele>683.40002441406</ele>
        <time>2019-02-20T08:32:48.000Z</time>
      </trkpt>
      <trkpt lat="45.31054" lon="4.61167">
        <ele>683.59997558594</ele>
        <time>2019-02-20T08:32:49.000Z</time>
      </trkpt>
      <trkpt lat="45.31055" lon="4.61166">
        <ele>683.79998779297</ele>
        <time>2019-02-20T08:32:50.000Z</time>
      </trkpt>
      <trkpt lat="45.31056" lon="4.61165">
        <ele>684</ele>
        <time>2019-02-20T08:32:51.000Z</time>
      </trkpt>
      <trkpt lat="45.31057" lon="4.61165">
        <ele>684</ele>
        <time>2019-02-20T08:32:52.000Z</time>
      </trkpt>
      <trkpt lat="45.31058" lon="4.61164">
        <ele>684.20001220703</ele>
        <time>2019-02-20T08:32:53.000Z</time>
      </trkpt>
      <trkpt lat="45.31059" lon="4.61163">
        <ele>684.20001220703</ele>
        <time>2019-02-20T08:32:54.000Z</time>
      </trkpt>
      <trkpt lat="45.31061" lon="4.61162">
        <ele>684.40002441406</ele>
        <time>2019-02-20T08:32:55.000Z</time>
      </trkpt>
      <trkpt lat="45.31062" lon="4.61161">
        <ele>684.20001220703</ele>
        <time>2019-02-20T08:32:56.000Z</time>
      </trkpt>
      <trkpt lat="45.31063" lon="4.61161">
        <ele>684.59997558594</ele>
        <time>2019-02-20T08:32:57.000Z</time>
      </trkpt>
      <trkpt lat="45.31064" lon="4.6116">
        <ele>684.59997558594</ele>
        <time>2019-02-20T08:32:58.000Z</time>
      </trkpt>
      <trkpt lat="45.31065" lon="4.61159">
        <ele>685</ele>
        <time>2019-02-20T08:32:59.000Z</time>
      </trkpt>
      <trkpt lat="45.31066" lon="4.61158">
        <ele>685</ele>
        <time>2019-02-20T08:33:00.000Z</time>
      </trkpt>
      <trkpt lat="45.31068" lon="4.61157">
        <ele>685</ele>
        <time>2019-02-20T08:33:01.000Z</time>
      </trkpt>
      <trkpt lat="45.31069" lon="4.61156">
        <ele>685.20001220703</ele>
        <time>2019-02-20T08:33:02.000Z</time>
      </trkpt>
      <trkpt lat="45.3107" lon="4.61155">
        <ele>685.40002441406</ele>
        <time>2019-02-20T08:33:03.000Z</time>
      </trkpt>
      <trkpt lat="45.31071" lon="4.61155">
        <ele>685.59997558594</ele>
        <time>2019-02-20T08:33:04.000Z</time>
      </trkpt>
      <trkpt lat="45.31073" lon="4.61154">
        <ele>685.79998779297</ele>
        <time>2019-02-20T08:33:05.000Z</time>
      </trkpt>
      <trkpt lat="45.31074" lon="4.61154">
        <ele>686</ele>
        <time>2019-02-20T08:33:06.000Z</time>
      </trkpt>
      <trkpt lat="45.31075" lon="4.61153">
        <ele>686</ele>
        <time>2019-02-20T08:33:07.000Z</time>
      </trkpt>
      <trkpt lat="45.31076" lon="4.61152">
        <ele>686.20001220703</ele>
        <time>2019-02-20T08:33:08.000Z</time>
      </trkpt>
      <trkpt lat="45.31077" lon="4.61152">
        <ele>686.59997558594</ele>
        <time>2019-02-20T08:33:09.000Z</time>
      </trkpt>
      <trkpt lat="45.31078" lon="4.61151">
        <ele>686.79998779297</ele>
        <time>2019-02-20T08:33:10.000Z</time>
      </trkpt>
      <trkpt lat="45.31079" lon="4.61151">
        <ele>687</ele>
        <time>2019-02-20T08:33:11.000Z</time>
      </trkpt>
      <trkpt lat="45.3108" lon="4.6115">
        <ele>687</ele>
        <time>2019-02-20T08:33:12.000Z</time>
      </trkpt>
      <trkpt lat="45.31081" lon="4.6115">
        <ele>687.20001220703</ele>
        <time>2019-02-20T08:33:13.000Z</time>
      </trkpt>
      <trkpt lat="45.31082" lon="4.61149">
        <ele>687.20001220703</ele>
        <time>2019-02-20T08:33:14.000Z</time>
      </trkpt>
      <trkpt lat="45.31083" lon="4.61149">
        <ele>687.20001220703</ele>
        <time>2019-02-20T08:33:15.000Z</time>
      </trkpt>
      <trkpt lat="45.31084" lon="4.61149">
        <ele>687.40002441406</ele>
        <time>2019-02-20T08:33:16.000Z</time>
      </trkpt>
      <trkpt lat="45.31085" lon="4.61148">
        <ele>687.59997558594</ele>
        <time>2019-02-20T08:33:17.000Z</time>
      </trkpt>
      <trkpt lat="45.31086" lon="4.61148">
        <ele>687.59997558594</ele>
        <time>2019-02-20T08:33:18.000Z</time>
      </trkpt>
      <trkpt lat="45.31087" lon="4.61149">
        <ele>687.79998779297</ele>
        <time>2019-02-20T08:33:19.000Z</time>
      </trkpt>
      <trkpt lat="45.31088" lon="4.61149">
        <ele>688</ele>
        <time>2019-02-20T08:33:20.000Z</time>
      </trkpt>
      <trkpt lat="45.31089" lon="4.61148">
        <ele>688</ele>
        <time>2019-02-20T08:33:21.000Z</time>
      </trkpt>
      <trkpt lat="45.3109" lon="4.61147">
        <ele>688</ele>
        <time>2019-02-20T08:33:22.000Z</time>
      </trkpt>
      <trkpt lat="45.31091" lon="4.61145">
        <ele>688.20001220703</ele>
        <time>2019-02-20T08:33:23.000Z</time>
      </trkpt>
      <trkpt lat="45.31091" lon="4.61144">
        <ele>688.20001220703</ele>
        <time>2019-02-20T08:33:24.000Z</time>
      </trkpt>
      <trkpt lat="45.31092" lon="4.61143">
        <ele>688.40002441406</ele>
        <time>2019-02-20T08:33:25.000Z</time>
      </trkpt>
      <trkpt lat="45.31092" lon="4.61143">
        <ele>688.40002441406</ele>
        <time>2019-02-20T08:33:26.000Z</time>
      </trkpt>
      <trkpt lat="45.31092" lon="4.61143">
        <ele>688.40002441406</ele>
        <time>2019-02-20T08:33:27.000Z</time>
      </trkpt>
      <trkpt lat="45.31092" lon="4.61143">
        <ele>688.40002441406</ele>
        <time>2019-02-20T08:33:28.000Z</time>
      </trkpt>
      <trkpt lat="45.31096" lon="4.61143">
        <ele>689.40002441406</ele>
        <time>2019-02-20T08:41:31.000Z</time>
      </trkpt>
      <trkpt lat="45.31097" lon="4.61142">
        <ele>689.40002441406</ele>
        <time>2019-02-20T08:41:32.000Z</time>
      </trkpt>
      <trkpt lat="45.31098" lon="4.6114">
        <ele>689.20001220703</ele>
        <time>2019-02-20T08:41:33.000Z</time>
      </trkpt>
      <trkpt lat="45.31098" lon="4.61139">
        <ele>689.40002441406</ele>
        <time>2019-02-20T08:41:34.000Z</time>
      </trkpt>
      <trkpt lat="45.31099" lon="4.61138">
        <ele>689.20001220703</ele>
        <time>2019-02-20T08:41:35.000Z</time>
      </trkpt>
      <trkpt lat="45.31099" lon="4.61138">
        <ele>689.20001220703</ele>
        <time>2019-02-20T08:41:36.000Z</time>
      </trkpt>
      <trkpt lat="45.311" lon="4.61137">
        <ele>689.20001220703</ele>
        <time>2019-02-20T08:41:37.000Z</time>
      </trkpt>
      <trkpt lat="45.311" lon="4.61137">
        <ele>689.20001220703</ele>
        <time>2019-02-20T08:41:38.000Z</time>
      </trkpt>
      <trkpt lat="45.311" lon="4.61137">
        <ele>689.20001220703</ele>
        <time>2019-02-20T08:41:39.000Z</time>
      </trkpt>
      <trkpt lat="45.311" lon="4.61137">
        <ele>689.20001220703</ele>
        <time>2019-02-20T08:41:40.000Z</time>
      </trkpt>
      <trkpt lat="45.31099" lon="4.61125">
        <ele>689.40002441406</ele>
        <time>2019-02-20T08:42:04.000Z</time>
      </trkpt>
      <trkpt lat="45.31099" lon="4.61122">
        <ele>689.40002441406</ele>
        <time>2019-02-20T08:42:05.000Z</time>
      </trkpt>
      <trkpt lat="45.31098" lon="4.61119">
        <ele>689.40002441406</ele>
        <time>2019-02-20T08:42:06.000Z</time>
      </trkpt>
      <trkpt lat="45.31097" lon="4.61115">
        <ele>689.40002441406</ele>
        <time>2019-02-20T08:42:07.000Z</time>
      </trkpt>
      <trkpt lat="45.31096" lon="4.6111">
        <ele>689.59997558594</ele>
        <time>2019-02-20T08:42:08.000Z</time>
      </trkpt>
      <trkpt lat="45.31094" lon="4.61105">
        <ele>689.59997558594</ele>
        <time>2019-02-20T08:42:09.000Z</time>
      </trkpt>
      <trkpt lat="45.31093" lon="4.61099">
        <ele>689.79998779297</ele>
        <time>2019-02-20T08:42:10.000Z</time>
      </trkpt>
      <trkpt lat="45.3109" lon="4.61094">
        <ele>689.79998779297</ele>
        <time>2019-02-20T08:42:11.000Z</time>
      </trkpt>
      <trkpt lat="45.31089" lon="4.61089">
        <ele>690</ele>
        <time>2019-02-20T08:42:12.000Z</time>
      </trkpt>
      <trkpt lat="45.31087" lon="4.61085">
        <ele>690</ele>
        <time>2019-02-20T08:42:13.000Z</time>
      </trkpt>
      <trkpt lat="45.31086" lon="4.61081">
        <ele>690.40002441406</ele>
        <time>2019-02-20T08:42:14.000Z</time>
      </trkpt>
      <trkpt lat="45.31085" lon="4.61078">
        <ele>690.20001220703</ele>
        <time>2019-02-20T08:42:15.000Z</time>
      </trkpt>
      <trkpt lat="45.31084" lon="4.61076">
        <ele>690.40002441406</ele>
        <time>2019-02-20T08:42:16.000Z</time>
      </trkpt>
      <trkpt lat="45.31084" lon="4.61073">
        <ele>690.59997558594</ele>
        <time>2019-02-20T08:42:17.000Z</time>
      </trkpt>
      <trkpt lat="45.31083" lon="4.61071">
        <ele>691</ele>
        <time>2019-02-20T08:42:18.000Z</time>
      </trkpt>
      <trkpt lat="45.31082" lon="4.61069">
        <ele>692</ele>
        <time>2019-02-20T08:42:19.000Z</time>
      </trkpt>
      <trkpt lat="45.31082" lon="4.61068">
        <ele>692.20001220703</ele>
        <time>2019-02-20T08:42:20.000Z</time>
      </trkpt>
      <trkpt lat="45.31081" lon="4.61066">
        <ele>693</ele>
        <time>2019-02-20T08:42:21.000Z</time>
      </trkpt>
      <trkpt lat="45.3108" lon="4.61065">
        <ele>694</ele>
        <time>2019-02-20T08:42:22.000Z</time>
      </trkpt>
      <trkpt lat="45.31079" lon="4.61063">
        <ele>694.79998779297</ele>
        <time>2019-02-20T08:42:23.000Z</time>
      </trkpt>
      <trkpt lat="45.31078" lon="4.61062">
        <ele>695.59997558594</ele>
        <time>2019-02-20T08:42:24.000Z</time>
      </trkpt>
      <trkpt lat="45.31078" lon="4.61061">
        <ele>697.79998779297</ele>
        <time>2019-02-20T08:42:25.000Z</time>
      </trkpt>
      <trkpt lat="45.31077" lon="4.6106">
        <ele>698.40002441406</ele>
        <time>2019-02-20T08:42:26.000Z</time>
      </trkpt>
      <trkpt lat="45.31076" lon="4.61058">
        <ele>698.79998779297</ele>
        <time>2019-02-20T08:42:27.000Z</time>
      </trkpt>
      <trkpt lat="45.31076" lon="4.61057">
        <ele>699.40002441406</ele>
        <time>2019-02-20T08:42:28.000Z</time>
      </trkpt>
      <trkpt lat="45.31075" lon="4.61055">
        <ele>699.79998779297</ele>
        <time>2019-02-20T08:42:29.000Z</time>
      </trkpt>
      <trkpt lat="45.31075" lon="4.61054">
        <ele>700.40002441406</ele>
        <time>2019-02-20T08:42:30.000Z</time>
      </trkpt>
      <trkpt lat="45.31074" lon="4.61052">
        <ele>700.59997558594</ele>
        <time>2019-02-20T08:42:31.000Z</time>
      </trkpt>
      <trkpt lat="45.31074" lon="4.61051">
        <ele>701</ele>
        <time>2019-02-20T08:42:32.000Z</time>
      </trkpt>
      <trkpt lat="45.31073" lon="4.61049">
        <ele>701.40002441406</ele>
        <time>2019-02-20T08:42:33.000Z</time>
      </trkpt>
      <trkpt lat="45.31073" lon="4.61048">
        <ele>701.59997558594</ele>
        <time>2019-02-20T08:42:34.000Z</time>
      </trkpt>
      <trkpt lat="45.31072" lon="4.61046">
        <ele>701.79998779297</ele>
        <time>2019-02-20T08:42:35.000Z</time>
      </trkpt>
      <trkpt lat="45.31072" lon="4.61045">
        <ele>702</ele>
        <time>2019-02-20T08:42:36.000Z</time>
      </trkpt>
      <trkpt lat="45.31071" lon="4.61043">
        <ele>702.40002441406</ele>
        <time>2019-02-20T08:42:37.000Z</time>
      </trkpt>
      <trkpt lat="45.31071" lon="4.61042">
        <ele>702.40002441406</ele>
        <time>2019-02-20T08:42:38.000Z</time>
      </trkpt>
      <trkpt lat="45.3107" lon="4.6104">
        <ele>702.59997558594</ele>
        <time>2019-02-20T08:42:39.000Z</time>
      </trkpt>
      <trkpt lat="45.3107" lon="4.61038">
        <ele>702.79998779297</ele>
        <time>2019-02-20T08:42:40.000Z</time>
      </trkpt>
      <trkpt lat="45.31069" lon="4.61036">
        <ele>703</ele>
        <time>2019-02-20T08:42:41.000Z</time>
      </trkpt>
      <trkpt lat="45.31069" lon="4.61033">
        <ele>703.20001220703</ele>
        <time>2019-02-20T08:42:42.000Z</time>
      </trkpt>
      <trkpt lat="45.31069" lon="4.61031">
        <ele>703.59997558594</ele>
        <time>2019-02-20T08:42:43.000Z</time>
      </trkpt>
      <trkpt lat="45.31069" lon="4.61029">
        <ele>704</ele>
        <time>2019-02-20T08:42:44.000Z</time>
      </trkpt>
      <trkpt lat="45.31069" lon="4.61026">
        <ele>704</ele>
        <time>2019-02-20T08:42:45.000Z</time>
      </trkpt>
      <trkpt lat="45.31069" lon="4.61023">
        <ele>704.20001220703</ele>
        <time>2019-02-20T08:42:46.000Z</time>
      </trkpt>
      <trkpt lat="45.31069" lon="4.6102">
        <ele>704.40002441406</ele>
        <time>2019-02-20T08:42:47.000Z</time>
      </trkpt>
      <trkpt lat="45.31069" lon="4.61015">
        <ele>704.59997558594</ele>
        <time>2019-02-20T08:42:48.000Z</time>
      </trkpt>
      <trkpt lat="45.31069" lon="4.6101">
        <ele>704.59997558594</ele>
        <time>2019-02-20T08:42:49.000Z</time>
      </trkpt>
      <trkpt lat="45.3107" lon="4.61005">
        <ele>704.79998779297</ele>
        <time>2019-02-20T08:42:50.000Z</time>
      </trkpt>
      <trkpt lat="45.31069" lon="4.60999">
        <ele>704.79998779297</ele>
        <time>2019-02-20T08:42:51.000Z</time>
      </trkpt>
      <trkpt lat="45.31069" lon="4.60993">
        <ele>704.79998779297</ele>
        <time>2019-02-20T08:42:52.000Z</time>
      </trkpt>
      <trkpt lat="45.31068" lon="4.60987">
        <ele>704.79998779297</ele>
        <time>2019-02-20T08:42:53.000Z</time>
      </trkpt>
      <trkpt lat="45.31066" lon="4.60981">
        <ele>704.79998779297</ele>
        <time>2019-02-20T08:42:54.000Z</time>
      </trkpt>
      <trkpt lat="45.31064" lon="4.60976">
        <ele>704.79998779297</ele>
        <time>2019-02-20T08:42:55.000Z</time>
      </trkpt>
      <trkpt lat="45.31062" lon="4.60971">
        <ele>704.59997558594</ele>
        <time>2019-02-20T08:42:56.000Z</time>
      </trkpt>
      <trkpt lat="45.3106" lon="4.60966">
        <ele>704.40002441406</ele>
        <time>2019-02-20T08:42:57.000Z</time>
      </trkpt>
      <trkpt lat="45.31058" lon="4.60963">
        <ele>704</ele>
        <time>2019-02-20T08:42:58.000Z</time>
      </trkpt>
      <trkpt lat="45.31056" lon="4.6096">
        <ele>703.59997558594</ele>
        <time>2019-02-20T08:42:59.000Z</time>
      </trkpt>
      <trkpt lat="45.31055" lon="4.60957">
        <ele>703.40002441406</ele>
        <time>2019-02-20T08:43:00.000Z</time>
      </trkpt>
      <trkpt lat="45.31054" lon="4.60955">
        <ele>703.40002441406</ele>
        <time>2019-02-20T08:43:01.000Z</time>
      </trkpt>
      <trkpt lat="45.31053" lon="4.60953">
        <ele>703.20001220703</ele>
        <time>2019-02-20T08:43:02.000Z</time>
      </trkpt>
      <trkpt lat="45.31053" lon="4.6095">
        <ele>703.20001220703</ele>
        <time>2019-02-20T08:43:03.000Z</time>
      </trkpt>
      <trkpt lat="45.31052" lon="4.60948">
        <ele>703.20001220703</ele>
        <time>2019-02-20T08:43:04.000Z</time>
      </trkpt>
      <trkpt lat="45.31051" lon="4.60946">
        <ele>703.40002441406</ele>
        <time>2019-02-20T08:43:05.000Z</time>
      </trkpt>
      <trkpt lat="45.3105" lon="4.60944">
        <ele>703.20001220703</ele>
        <time>2019-02-20T08:43:06.000Z</time>
      </trkpt>
      <trkpt lat="45.3105" lon="4.60942">
        <ele>703.20001220703</ele>
        <time>2019-02-20T08:43:07.000Z</time>
      </trkpt>
      <trkpt lat="45.31049" lon="4.6094">
        <ele>703.20001220703</ele>
        <time>2019-02-20T08:43:08.000Z</time>
      </trkpt>
      <trkpt lat="45.31049" lon="4.60938">
        <ele>703.40002441406</ele>
        <time>2019-02-20T08:43:09.000Z</time>
      </trkpt>
      <trkpt lat="45.31048" lon="4.60936">
        <ele>703.40002441406</ele>
        <time>2019-02-20T08:43:10.000Z</time>
      </trkpt>
      <trkpt lat="45.31047" lon="4.60934">
        <ele>703.59997558594</ele>
        <time>2019-02-20T08:43:11.000Z</time>
      </trkpt>
      <trkpt lat="45.31046" lon="4.60932">
        <ele>703.59997558594</ele>
        <time>2019-02-20T08:43:12.000Z</time>
      </trkpt>
      <trkpt lat="45.31046" lon="4.6093">
        <ele>703.79998779297</ele>
        <time>2019-02-20T08:43:13.000Z</time>
      </trkpt>
      <trkpt lat="45.31045" lon="4.60928">
        <ele>704</ele>
        <time>2019-02-20T08:43:14.000Z</time>
      </trkpt>
      <trkpt lat="45.31045" lon="4.60926">
        <ele>704.20001220703</ele>
        <time>2019-02-20T08:43:15.000Z</time>
      </trkpt>
      <trkpt lat="45.31044" lon="4.60924">
        <ele>704.40002441406</ele>
        <time>2019-02-20T08:43:16.000Z</time>
      </trkpt>
      <trkpt lat="45.31043" lon="4.60922">
        <ele>704.59997558594</ele>
        <time>2019-02-20T08:43:17.000Z</time>
      </trkpt>
      <trkpt lat="45.31043" lon="4.6092">
        <ele>704.79998779297</ele>
        <time>2019-02-20T08:43:18.000Z</time>
      </trkpt>
      <trkpt lat="45.31042" lon="4.60918">
        <ele>705</ele>
        <time>2019-02-20T08:43:19.000Z</time>
      </trkpt>
      <trkpt lat="45.31041" lon="4.60916">
        <ele>705.40002441406</ele>
        <time>2019-02-20T08:43:20.000Z</time>
      </trkpt>
      <trkpt lat="45.31041" lon="4.60914">
        <ele>705.40002441406</ele>
        <time>2019-02-20T08:43:21.000Z</time>
      </trkpt>
      <trkpt lat="45.3104" lon="4.60912">
        <ele>706</ele>
        <time>2019-02-20T08:43:22.000Z</time>
      </trkpt>
      <trkpt lat="45.31039" lon="4.60911">
        <ele>706</ele>
        <time>2019-02-20T08:43:23.000Z</time>
      </trkpt>
      <trkpt lat="45.31039" lon="4.60909">
        <ele>706.40002441406</ele>
        <time>2019-02-20T08:43:24.000Z</time>
      </trkpt>
      <trkpt lat="45.31038" lon="4.60906">
        <ele>706.59997558594</ele>
        <time>2019-02-20T08:43:25.000Z</time>
      </trkpt>
      <trkpt lat="45.31038" lon="4.60904">
        <ele>706.79998779297</ele>
        <time>2019-02-20T08:43:26.000Z</time>
      </trkpt>
      <trkpt lat="45.31037" lon="4.60903">
        <ele>707</ele>
        <time>2019-02-20T08:43:27.000Z</time>
      </trkpt>
      <trkpt lat="45.31036" lon="4.60901">
        <ele>707.20001220703</ele>
        <time>2019-02-20T08:43:28.000Z</time>
      </trkpt>
      <trkpt lat="45.31036" lon="4.60899">
        <ele>707.40002441406</ele>
        <time>2019-02-20T08:43:29.000Z</time>
      </trkpt>
      <trkpt lat="45.31035" lon="4.60897">
        <ele>707.79998779297</ele>
        <time>2019-02-20T08:43:30.000Z</time>
      </trkpt>
      <trkpt lat="45.31034" lon="4.60896">
        <ele>708</ele>
        <time>2019-02-20T08:43:31.000Z</time>
      </trkpt>
      <trkpt lat="45.31034" lon="4.60895">
        <ele>708</ele>
        <time>2019-02-20T08:43:32.000Z</time>
      </trkpt>
      <trkpt lat="45.31033" lon="4.60893">
        <ele>708.20001220703</ele>
        <time>2019-02-20T08:43:33.000Z</time>
      </trkpt>
      <trkpt lat="45.31032" lon="4.60892">
        <ele>708.40002441406</ele>
        <time>2019-02-20T08:43:34.000Z</time>
      </trkpt>
      <trkpt lat="45.31032" lon="4.6089">
        <ele>708.59997558594</ele>
        <time>2019-02-20T08:43:35.000Z</time>
      </trkpt>
      <trkpt lat="45.31031" lon="4.60889">
        <ele>708.79998779297</ele>
        <time>2019-02-20T08:43:36.000Z</time>
      </trkpt>
      <trkpt lat="45.31031" lon="4.60888">
        <ele>709.20001220703</ele>
        <time>2019-02-20T08:43:37.000Z</time>
      </trkpt>
      <trkpt lat="45.3103" lon="4.60887">
        <ele>709.40002441406</ele>
        <time>2019-02-20T08:43:38.000Z</time>
      </trkpt>
      <trkpt lat="45.31029" lon="4.60886">
        <ele>709.40002441406</ele>
        <time>2019-02-20T08:43:39.000Z</time>
      </trkpt>
      <trkpt lat="45.31029" lon="4.60884">
        <ele>709.59997558594</ele>
        <time>2019-02-20T08:43:40.000Z</time>
      </trkpt>
      <trkpt lat="45.31028" lon="4.60883">
        <ele>709.79998779297</ele>
        <time>2019-02-20T08:43:41.000Z</time>
      </trkpt>
      <trkpt lat="45.31028" lon="4.60882">
        <ele>710.20001220703</ele>
        <time>2019-02-20T08:43:42.000Z</time>
      </trkpt>
      <trkpt lat="45.31028" lon="4.60881">
        <ele>710.40002441406</ele>
        <time>2019-02-20T08:43:43.000Z</time>
      </trkpt>
      <trkpt lat="45.31028" lon="4.60879">
        <ele>710.59997558594</ele>
        <time>2019-02-20T08:43:44.000Z</time>
      </trkpt>
      <trkpt lat="45.31028" lon="4.60878">
        <ele>710.79998779297</ele>
        <time>2019-02-20T08:43:45.000Z</time>
      </trkpt>
      <trkpt lat="45.31028" lon="4.60876">
        <ele>711</ele>
        <time>2019-02-20T08:43:46.000Z</time>
      </trkpt>
      <trkpt lat="45.31027" lon="4.60875">
        <ele>711</ele>
        <time>2019-02-20T08:43:47.000Z</time>
      </trkpt>
      <trkpt lat="45.31028" lon="4.60873">
        <ele>711.20001220703</ele>
        <time>2019-02-20T08:43:48.000Z</time>
      </trkpt>
      <trkpt lat="45.31027" lon="4.60872">
        <ele>711.59997558594</ele>
        <time>2019-02-20T08:43:49.000Z</time>
      </trkpt>
      <trkpt lat="45.31027" lon="4.6087">
        <ele>711.79998779297</ele>
        <time>2019-02-20T08:43:50.000Z</time>
      </trkpt>
      <trkpt lat="45.31027" lon="4.60869">
        <ele>712</ele>
        <time>2019-02-20T08:43:51.000Z</time>
      </trkpt>
      <trkpt lat="45.31026" lon="4.60868">
        <ele>712.59997558594</ele>
        <time>2019-02-20T08:43:52.000Z</time>
      </trkpt>
      <trkpt lat="45.31026" lon="4.60867">
        <ele>713</ele>
        <time>2019-02-20T08:43:53.000Z</time>
      </trkpt>
      <trkpt lat="45.31025" lon="4.60865">
        <ele>713.20001220703</ele>
        <time>2019-02-20T08:43:54.000Z</time>
      </trkpt>
      <trkpt lat="45.31025" lon="4.60864">
        <ele>713.40002441406</ele>
        <time>2019-02-20T08:43:55.000Z</time>
      </trkpt>
      <trkpt lat="45.31024" lon="4.60863">
        <ele>713.79998779297</ele>
        <time>2019-02-20T08:43:56.000Z</time>
      </trkpt>
      <trkpt lat="45.31024" lon="4.60861">
        <ele>714.20001220703</ele>
        <time>2019-02-20T08:43:57.000Z</time>
      </trkpt>
      <trkpt lat="45.31024" lon="4.60859">
        <ele>714.59997558594</ele>
        <time>2019-02-20T08:43:58.000Z</time>
      </trkpt>
      <trkpt lat="45.31023" lon="4.60858">
        <ele>715.20001220703</ele>
        <time>2019-02-20T08:43:59.000Z</time>
      </trkpt>
      <trkpt lat="45.31023" lon="4.60856">
        <ele>715.59997558594</ele>
        <time>2019-02-20T08:44:00.000Z</time>
      </trkpt>
      <trkpt lat="45.31022" lon="4.60855">
        <ele>715.79998779297</ele>
        <time>2019-02-20T08:44:01.000Z</time>
      </trkpt>
      <trkpt lat="45.31022" lon="4.60853">
        <ele>716</ele>
        <time>2019-02-20T08:44:02.000Z</time>
      </trkpt>
      <trkpt lat="45.31021" lon="4.60852">
        <ele>716.20001220703</ele>
        <time>2019-02-20T08:44:03.000Z</time>
      </trkpt>
      <trkpt lat="45.3102" lon="4.60849">
        <ele>716.59997558594</ele>
        <time>2019-02-20T08:44:04.000Z</time>
      </trkpt>
      <trkpt lat="45.31019" lon="4.60847">
        <ele>717.20001220703</ele>
        <time>2019-02-20T08:44:05.000Z</time>
      </trkpt>
      <trkpt lat="45.31019" lon="4.60845">
        <ele>717.40002441406</ele>
        <time>2019-02-20T08:44:06.000Z</time>
      </trkpt>
      <trkpt lat="45.31018" lon="4.60844">
        <ele>717.59997558594</ele>
        <time>2019-02-20T08:44:07.000Z</time>
      </trkpt>
      <trkpt lat="45.31017" lon="4.60843">
        <ele>718</ele>
        <time>2019-02-20T08:44:08.000Z</time>
      </trkpt>
      <trkpt lat="45.31017" lon="4.60842">
        <ele>718.20001220703</ele>
        <time>2019-02-20T08:44:09.000Z</time>
      </trkpt>
      <trkpt lat="45.31016" lon="4.6084">
        <ele>718.40002441406</ele>
        <time>2019-02-20T08:44:10.000Z</time>
      </trkpt>
      <trkpt lat="45.31016" lon="4.60839">
        <ele>718.79998779297</ele>
        <time>2019-02-20T08:44:11.000Z</time>
      </trkpt>
      <trkpt lat="45.31015" lon="4.60837">
        <ele>719.20001220703</ele>
        <time>2019-02-20T08:44:12.000Z</time>
      </trkpt>
      <trkpt lat="45.31015" lon="4.60836">
        <ele>719.40002441406</ele>
        <time>2019-02-20T08:44:13.000Z</time>
      </trkpt>
      <trkpt lat="45.31014" lon="4.60834">
        <ele>720</ele>
        <time>2019-02-20T08:44:14.000Z</time>
      </trkpt>
      <trkpt lat="45.31014" lon="4.60833">
        <ele>720.40002441406</ele>
        <time>2019-02-20T08:44:15.000Z</time>
      </trkpt>
      <trkpt lat="45.31013" lon="4.60832">
        <ele>720.59997558594</ele>
        <time>2019-02-20T08:44:16.000Z</time>
      </trkpt>
      <trkpt lat="45.31013" lon="4.60831">
        <ele>721</ele>
        <time>2019-02-20T08:44:17.000Z</time>
      </trkpt>
      <trkpt lat="45.31013" lon="4.60829">
        <ele>721.20001220703</ele>
        <time>2019-02-20T08:44:18.000Z</time>
      </trkpt>
      <trkpt lat="45.31012" lon="4.60828">
        <ele>722</ele>
        <time>2019-02-20T08:44:19.000Z</time>
      </trkpt>
      <trkpt lat="45.31012" lon="4.60826">
        <ele>722.20001220703</ele>
        <time>2019-02-20T08:44:20.000Z</time>
      </trkpt>
      <trkpt lat="45.31012" lon="4.60825">
        <ele>722.59997558594</ele>
        <time>2019-02-20T08:44:21.000Z</time>
      </trkpt>
      <trkpt lat="45.31012" lon="4.60823">
        <ele>722.79998779297</ele>
        <time>2019-02-20T08:44:22.000Z</time>
      </trkpt>
      <trkpt lat="45.31012" lon="4.60821">
        <ele>723</ele>
        <time>2019-02-20T08:44:23.000Z</time>
      </trkpt>
      <trkpt lat="45.31011" lon="4.60819">
        <ele>723.40002441406</ele>
        <time>2019-02-20T08:44:24.000Z</time>
      </trkpt>
      <trkpt lat="45.31011" lon="4.60818">
        <ele>723.59997558594</ele>
        <time>2019-02-20T08:44:25.000Z</time>
      </trkpt>
      <trkpt lat="45.31011" lon="4.60815">
        <ele>723.79998779297</ele>
        <time>2019-02-20T08:44:26.000Z</time>
      </trkpt>
      <trkpt lat="45.31011" lon="4.60814">
        <ele>724</ele>
        <time>2019-02-20T08:44:27.000Z</time>
      </trkpt>
      <trkpt lat="45.3101" lon="4.60812">
        <ele>724.20001220703</ele>
        <time>2019-02-20T08:44:28.000Z</time>
      </trkpt>
      <trkpt lat="45.3101" lon="4.6081">
        <ele>724.40002441406</ele>
        <time>2019-02-20T08:44:29.000Z</time>
      </trkpt>
      <trkpt lat="45.31009" lon="4.60808">
        <ele>724.59997558594</ele>
        <time>2019-02-20T08:44:30.000Z</time>
      </trkpt>
      <trkpt lat="45.31009" lon="4.60806">
        <ele>724.79998779297</ele>
        <time>2019-02-20T08:44:31.000Z</time>
      </trkpt>
      <trkpt lat="45.31008" lon="4.60804">
        <ele>725</ele>
        <time>2019-02-20T08:44:32.000Z</time>
      </trkpt>
      <trkpt lat="45.31008" lon="4.60802">
        <ele>725.20001220703</ele>
        <time>2019-02-20T08:44:33.000Z</time>
      </trkpt>
      <trkpt lat="45.31007" lon="4.60799">
        <ele>725.40002441406</ele>
        <time>2019-02-20T08:44:34.000Z</time>
      </trkpt>
      <trkpt lat="45.31007" lon="4.60797">
        <ele>725.59997558594</ele>
        <time>2019-02-20T08:44:35.000Z</time>
      </trkpt>
      <trkpt lat="45.31006" lon="4.60795">
        <ele>725.79998779297</ele>
        <time>2019-02-20T08:44:36.000Z</time>
      </trkpt>
      <trkpt lat="45.31006" lon="4.60793">
        <ele>725.79998779297</ele>
        <time>2019-02-20T08:44:37.000Z</time>
      </trkpt>
      <trkpt lat="45.31005" lon="4.60792">
        <ele>726</ele>
        <time>2019-02-20T08:44:38.000Z</time>
      </trkpt>
      <trkpt lat="45.31005" lon="4.6079">
        <ele>726.20001220703</ele>
        <time>2019-02-20T08:44:39.000Z</time>
      </trkpt>
      <trkpt lat="45.31004" lon="4.60789">
        <ele>726.40002441406</ele>
        <time>2019-02-20T08:44:40.000Z</time>
      </trkpt>
      <trkpt lat="45.31004" lon="4.60788">
        <ele>726.59997558594</ele>
        <time>2019-02-20T08:44:41.000Z</time>
      </trkpt>
      <trkpt lat="45.31003" lon="4.60786">
        <ele>726.79998779297</ele>
        <time>2019-02-20T08:44:42.000Z</time>
      </trkpt>
      <trkpt lat="45.31003" lon="4.60785">
        <ele>727</ele>
        <time>2019-02-20T08:44:43.000Z</time>
      </trkpt>
      <trkpt lat="45.31002" lon="4.60784">
        <ele>727.20001220703</ele>
        <time>2019-02-20T08:44:44.000Z</time>
      </trkpt>
      <trkpt lat="45.31001" lon="4.60782">
        <ele>727.40002441406</ele>
        <time>2019-02-20T08:44:45.000Z</time>
      </trkpt>
      <trkpt lat="45.31001" lon="4.60781">
        <ele>727.40002441406</ele>
        <time>2019-02-20T08:44:46.000Z</time>
      </trkpt>
      <trkpt lat="45.31001" lon="4.6078">
        <ele>727.59997558594</ele>
        <time>2019-02-20T08:44:47.000Z</time>
      </trkpt>
      <trkpt lat="45.31" lon="4.60779">
        <ele>727.59997558594</ele>
        <time>2019-02-20T08:44:48.000Z</time>
      </trkpt>
      <trkpt lat="45.30999" lon="4.60777">
        <ele>728.20001220703</ele>
        <time>2019-02-20T08:44:49.000Z</time>
      </trkpt>
      <trkpt lat="45.30999" lon="4.60776">
        <ele>728.20001220703</ele>
        <time>2019-02-20T08:44:50.000Z</time>
      </trkpt>
      <trkpt lat="45.30999" lon="4.60775">
        <ele>728.20001220703</ele>
        <time>2019-02-20T08:44:51.000Z</time>
      </trkpt>
      <trkpt lat="45.30998" lon="4.60774">
        <ele>728.40002441406</ele>
        <time>2019-02-20T08:44:52.000Z</time>
      </trkpt>
      <trkpt lat="45.30998" lon="4.60773">
        <ele>728.59997558594</ele>
        <time>2019-02-20T08:44:53.000Z</time>
      </trkpt>
      <trkpt lat="45.30998" lon="4.60772">
        <ele>728.79998779297</ele>
        <time>2019-02-20T08:44:54.000Z</time>
      </trkpt>
      <trkpt lat="45.30997" lon="4.60771">
        <ele>728.79998779297</ele>
        <time>2019-02-20T08:44:55.000Z</time>
      </trkpt>
      <trkpt lat="45.30998" lon="4.6077">
        <ele>729</ele>
        <time>2019-02-20T08:44:56.000Z</time>
      </trkpt>
      <trkpt lat="45.30998" lon="4.60769">
        <ele>729.20001220703</ele>
        <time>2019-02-20T08:44:57.000Z</time>
      </trkpt>
      <trkpt lat="45.30998" lon="4.60767">
        <ele>729.20001220703</ele>
        <time>2019-02-20T08:44:58.000Z</time>
      </trkpt>
      <trkpt lat="45.30998" lon="4.60767">
        <ele>729.20001220703</ele>
        <time>2019-02-20T08:44:59.000Z</time>
      </trkpt>
      <trkpt lat="45.30998" lon="4.60766">
        <ele>729.40002441406</ele>
        <time>2019-02-20T08:45:00.000Z</time>
      </trkpt>
      <trkpt lat="45.30998" lon="4.60766">
        <ele>729.40002441406</ele>
        <time>2019-02-20T08:45:01.000Z</time>
      </trkpt>
      <trkpt lat="45.30986" lon="4.6076">
        <ele>730</ele>
        <time>2019-02-20T08:46:03.000Z</time>
      </trkpt>
      <trkpt lat="45.30985" lon="4.60759">
        <ele>730</ele>
        <time>2019-02-20T08:46:04.000Z</time>
      </trkpt>
      <trkpt lat="45.30983" lon="4.60757">
        <ele>730.20001220703</ele>
        <time>2019-02-20T08:46:05.000Z</time>
      </trkpt>
      <trkpt lat="45.30982" lon="4.60756">
        <ele>730.40002441406</ele>
        <time>2019-02-20T08:46:06.000Z</time>
      </trkpt>
      <trkpt lat="45.30981" lon="4.60753">
        <ele>730.79998779297</ele>
        <time>2019-02-20T08:46:07.000Z</time>
      </trkpt>
      <trkpt lat="45.30981" lon="4.6075">
        <ele>731</ele>
        <time>2019-02-20T08:46:08.000Z</time>
      </trkpt>
      <trkpt lat="45.30982" lon="4.60747">
        <ele>731.20001220703</ele>
        <time>2019-02-20T08:46:09.000Z</time>
      </trkpt>
      <trkpt lat="45.30984" lon="4.60744">
        <ele>731.59997558594</ele>
        <time>2019-02-20T08:46:10.000Z</time>
      </trkpt>
      <trkpt lat="45.30986" lon="4.60741">
        <ele>731.79998779297</ele>
        <time>2019-02-20T08:46:11.000Z</time>
      </trkpt>
      <trkpt lat="45.30988" lon="4.60737">
        <ele>732</ele>
        <time>2019-02-20T08:46:12.000Z</time>
      </trkpt>
      <trkpt lat="45.30988" lon="4.60735">
        <ele>732</ele>
        <time>2019-02-20T08:46:13.000Z</time>
      </trkpt>
      <trkpt lat="45.30987" lon="4.60732">
        <ele>732</ele>
        <time>2019-02-20T08:46:14.000Z</time>
      </trkpt>
      <trkpt lat="45.30985" lon="4.60729">
        <ele>732</ele>
        <time>2019-02-20T08:46:15.000Z</time>
      </trkpt>
      <trkpt lat="45.30983" lon="4.60726">
        <ele>732</ele>
        <time>2019-02-20T08:46:16.000Z</time>
      </trkpt>
      <trkpt lat="45.30981" lon="4.60723">
        <ele>732.20001220703</ele>
        <time>2019-02-20T08:46:17.000Z</time>
      </trkpt>
      <trkpt lat="45.30979" lon="4.60718">
        <ele>732</ele>
        <time>2019-02-20T08:46:18.000Z</time>
      </trkpt>
      <trkpt lat="45.30978" lon="4.60712">
        <ele>732</ele>
        <time>2019-02-20T08:46:19.000Z</time>
      </trkpt>
      <trkpt lat="45.30977" lon="4.60707">
        <ele>732</ele>
        <time>2019-02-20T08:46:20.000Z</time>
      </trkpt>
      <trkpt lat="45.30977" lon="4.60701">
        <ele>731.79998779297</ele>
        <time>2019-02-20T08:46:21.000Z</time>
      </trkpt>
      <trkpt lat="45.30978" lon="4.60695">
        <ele>731.40002441406</ele>
        <time>2019-02-20T08:46:22.000Z</time>
      </trkpt>
      <trkpt lat="45.30979" lon="4.60689">
        <ele>731.20001220703</ele>
        <time>2019-02-20T08:46:23.000Z</time>
      </trkpt>
      <trkpt lat="45.3098" lon="4.60681">
        <ele>731</ele>
        <time>2019-02-20T08:46:24.000Z</time>
      </trkpt>
      <trkpt lat="45.30981" lon="4.60673">
        <ele>730.40002441406</ele>
        <time>2019-02-20T08:46:25.000Z</time>
      </trkpt>
      <trkpt lat="45.30982" lon="4.60665">
        <ele>730.20001220703</ele>
        <time>2019-02-20T08:46:26.000Z</time>
      </trkpt>
      <trkpt lat="45.30983" lon="4.60657">
        <ele>730</ele>
        <time>2019-02-20T08:46:27.000Z</time>
      </trkpt>
      <trkpt lat="45.30984" lon="4.60649">
        <ele>729.79998779297</ele>
        <time>2019-02-20T08:46:28.000Z</time>
      </trkpt>
      <trkpt lat="45.30985" lon="4.6064">
        <ele>729.59997558594</ele>
        <time>2019-02-20T08:46:29.000Z</time>
      </trkpt>
      <trkpt lat="45.30986" lon="4.60632">
        <ele>729.20001220703</ele>
        <time>2019-02-20T08:46:30.000Z</time>
      </trkpt>
      <trkpt lat="45.30987" lon="4.60623">
        <ele>729</ele>
        <time>2019-02-20T08:46:31.000Z</time>
      </trkpt>
      <trkpt lat="45.30988" lon="4.60614">
        <ele>728.79998779297</ele>
        <time>2019-02-20T08:46:32.000Z</time>
      </trkpt>
      <trkpt lat="45.30988" lon="4.60606">
        <ele>728.59997558594</ele>
        <time>2019-02-20T08:46:33.000Z</time>
      </trkpt>
      <trkpt lat="45.30989" lon="4.60597">
        <ele>728.40002441406</ele>
        <time>2019-02-20T08:46:34.000Z</time>
      </trkpt>
      <trkpt lat="45.30989" lon="4.60588">
        <ele>728</ele>
        <time>2019-02-20T08:46:35.000Z</time>
      </trkpt>
      <trkpt lat="45.30988" lon="4.6058">
        <ele>727.59997558594</ele>
        <time>2019-02-20T08:46:36.000Z</time>
      </trkpt>
      <trkpt lat="45.30987" lon="4.60572">
        <ele>727.20001220703</ele>
        <time>2019-02-20T08:46:37.000Z</time>
      </trkpt>
      <trkpt lat="45.30986" lon="4.60566">
        <ele>726.59997558594</ele>
        <time>2019-02-20T08:46:38.000Z</time>
      </trkpt>
      <trkpt lat="45.30985" lon="4.6056">
        <ele>726.40002441406</ele>
        <time>2019-02-20T08:46:39.000Z</time>
      </trkpt>
      <trkpt lat="45.30984" lon="4.60554">
        <ele>726.40002441406</ele>
        <time>2019-02-20T08:46:40.000Z</time>
      </trkpt>
      <trkpt lat="45.30982" lon="4.60547">
        <ele>726.20001220703</ele>
        <time>2019-02-20T08:46:41.000Z</time>
      </trkpt>
      <trkpt lat="45.3098" lon="4.6054">
        <ele>725.59997558594</ele>
        <time>2019-02-20T08:46:42.000Z</time>
      </trkpt>
      <trkpt lat="45.30977" lon="4.60533">
        <ele>725.20001220703</ele>
        <time>2019-02-20T08:46:43.000Z</time>
      </trkpt>
      <trkpt lat="45.30974" lon="4.60526">
        <ele>725.20001220703</ele>
        <time>2019-02-20T08:46:44.000Z</time>
      </trkpt>
      <trkpt lat="45.3097" lon="4.60518">
        <ele>725</ele>
        <time>2019-02-20T08:46:45.000Z</time>
      </trkpt>
      <trkpt lat="45.30968" lon="4.60511">
        <ele>724.40002441406</ele>
        <time>2019-02-20T08:46:46.000Z</time>
      </trkpt>
      <trkpt lat="45.30965" lon="4.60502">
        <ele>724.20001220703</ele>
        <time>2019-02-20T08:46:47.000Z</time>
      </trkpt>
      <trkpt lat="45.30964" lon="4.60492">
        <ele>724</ele>
        <time>2019-02-20T08:46:48.000Z</time>
      </trkpt>
      <trkpt lat="45.30961" lon="4.60483">
        <ele>723.40002441406</ele>
        <time>2019-02-20T08:46:49.000Z</time>
      </trkpt>
      <trkpt lat="45.30959" lon="4.60473">
        <ele>723</ele>
        <time>2019-02-20T08:46:50.000Z</time>
      </trkpt>
      <trkpt lat="45.30956" lon="4.60463">
        <ele>721.40002441406</ele>
        <time>2019-02-20T08:46:51.000Z</time>
      </trkpt>
      <trkpt lat="45.30953" lon="4.60454">
        <ele>720.59997558594</ele>
        <time>2019-02-20T08:46:52.000Z</time>
      </trkpt>
      <trkpt lat="45.30951" lon="4.60444">
        <ele>720</ele>
        <time>2019-02-20T08:46:53.000Z</time>
      </trkpt>
      <trkpt lat="45.30948" lon="4.60435">
        <ele>719.79998779297</ele>
        <time>2019-02-20T08:46:54.000Z</time>
      </trkpt>
      <trkpt lat="45.30945" lon="4.60425">
        <ele>719.20001220703</ele>
        <time>2019-02-20T08:46:55.000Z</time>
      </trkpt>
      <trkpt lat="45.30942" lon="4.60416">
        <ele>718.79998779297</ele>
        <time>2019-02-20T08:46:56.000Z</time>
      </trkpt>
      <trkpt lat="45.30938" lon="4.60407">
        <ele>717.79998779297</ele>
        <time>2019-02-20T08:46:57.000Z</time>
      </trkpt>
      <trkpt lat="45.30934" lon="4.60398">
        <ele>717.20001220703</ele>
        <time>2019-02-20T08:46:58.000Z</time>
      </trkpt>
      <trkpt lat="45.30931" lon="4.60389">
        <ele>716.79998779297</ele>
        <time>2019-02-20T08:46:59.000Z</time>
      </trkpt>
      <trkpt lat="45.30927" lon="4.6038">
        <ele>716.40002441406</ele>
        <time>2019-02-20T08:47:00.000Z</time>
      </trkpt>
      <trkpt lat="45.30924" lon="4.6037">
        <ele>716</ele>
        <time>2019-02-20T08:47:01.000Z</time>
      </trkpt>
      <trkpt lat="45.30922" lon="4.60361">
        <ele>715.79998779297</ele>
        <time>2019-02-20T08:47:02.000Z</time>
      </trkpt>
      <trkpt lat="45.3092" lon="4.60353">
        <ele>715.79998779297</ele>
        <time>2019-02-20T08:47:03.000Z</time>
      </trkpt>
      <trkpt lat="45.30917" lon="4.60344">
        <ele>715</ele>
        <time>2019-02-20T08:47:04.000Z</time>
      </trkpt>
      <trkpt lat="45.30916" lon="4.60336">
        <ele>714.59997558594</ele>
        <time>2019-02-20T08:47:05.000Z</time>
      </trkpt>
      <trkpt lat="45.30914" lon="4.60329">
        <ele>714.40002441406</ele>
        <time>2019-02-20T08:47:06.000Z</time>
      </trkpt>
      <trkpt lat="45.30912" lon="4.60321">
        <ele>714.20001220703</ele>
        <time>2019-02-20T08:47:07.000Z</time>
      </trkpt>
      <trkpt lat="45.3091" lon="4.60313">
        <ele>714.20001220703</ele>
        <time>2019-02-20T08:47:08.000Z</time>
      </trkpt>
      <trkpt lat="45.30909" lon="4.60305">
        <ele>713.79998779297</ele>
        <time>2019-02-20T08:47:09.000Z</time>
      </trkpt>
      <trkpt lat="45.30907" lon="4.60298">
        <ele>713.59997558594</ele>
        <time>2019-02-20T08:47:10.000Z</time>
      </trkpt>
      <trkpt lat="45.30906" lon="4.60291">
        <ele>713.59997558594</ele>
        <time>2019-02-20T08:47:11.000Z</time>
      </trkpt>
      <trkpt lat="45.30904" lon="4.60285">
        <ele>713.40002441406</ele>
        <time>2019-02-20T08:47:12.000Z</time>
      </trkpt>
      <trkpt lat="45.30903" lon="4.6028">
        <ele>713.20001220703</ele>
        <time>2019-02-20T08:47:13.000Z</time>
      </trkpt>
      <trkpt lat="45.30902" lon="4.60274">
        <ele>713</ele>
        <time>2019-02-20T08:47:14.000Z</time>
      </trkpt>
      <trkpt lat="45.30902" lon="4.60269">
        <ele>713</ele>
        <time>2019-02-20T08:47:15.000Z</time>
      </trkpt>
      <trkpt lat="45.30902" lon="4.60263">
        <ele>713</ele>
        <time>2019-02-20T08:47:16.000Z</time>
      </trkpt>
      <trkpt lat="45.30902" lon="4.60256">
        <ele>713</ele>
        <time>2019-02-20T08:47:17.000Z</time>
      </trkpt>
      <trkpt lat="45.30902" lon="4.6025">
        <ele>712.79998779297</ele>
        <time>2019-02-20T08:47:18.000Z</time>
      </trkpt>
      <trkpt lat="45.30904" lon="4.60243">
        <ele>712.79998779297</ele>
        <time>2019-02-20T08:47:19.000Z</time>
      </trkpt>
      <trkpt lat="45.30905" lon="4.60236">
        <ele>712.59997558594</ele>
        <time>2019-02-20T08:47:20.000Z</time>
      </trkpt>
      <trkpt lat="45.30906" lon="4.6023">
        <ele>712.40002441406</ele>
        <time>2019-02-20T08:47:21.000Z</time>
      </trkpt>
      <trkpt lat="45.30908" lon="4.60223">
        <ele>712.20001220703</ele>
        <time>2019-02-20T08:47:22.000Z</time>
      </trkpt>
      <trkpt lat="45.30909" lon="4.60218">
        <ele>712.20001220703</ele>
        <time>2019-02-20T08:47:23.000Z</time>
      </trkpt>
      <trkpt lat="45.3091" lon="4.60212">
        <ele>712.20001220703</ele>
        <time>2019-02-20T08:47:24.000Z</time>
      </trkpt>
      <trkpt lat="45.30911" lon="4.60207">
        <ele>712</ele>
        <time>2019-02-20T08:47:25.000Z</time>
      </trkpt>
      <trkpt lat="45.30912" lon="4.60202">
        <ele>711.79998779297</ele>
        <time>2019-02-20T08:47:26.000Z</time>
      </trkpt>
      <trkpt lat="45.30913" lon="4.60197">
        <ele>711.79998779297</ele>
        <time>2019-02-20T08:47:27.000Z</time>
      </trkpt>
      <trkpt lat="45.30913" lon="4.60192">
        <ele>711.40002441406</ele>
        <time>2019-02-20T08:47:28.000Z</time>
      </trkpt>
      <trkpt lat="45.30914" lon="4.60186">
        <ele>711.40002441406</ele>
        <time>2019-02-20T08:47:29.000Z</time>
      </trkpt>
      <trkpt lat="45.30914" lon="4.60181">
        <ele>711.20001220703</ele>
        <time>2019-02-20T08:47:30.000Z</time>
      </trkpt>
      <trkpt lat="45.30914" lon="4.60175">
        <ele>711</ele>
        <time>2019-02-20T08:47:31.000Z</time>
      </trkpt>
      <trkpt lat="45.30914" lon="4.6017">
        <ele>711</ele>
        <time>2019-02-20T08:47:32.000Z</time>
      </trkpt>
      <trkpt lat="45.30914" lon="4.60165">
        <ele>710.79998779297</ele>
        <time>2019-02-20T08:47:33.000Z</time>
      </trkpt>
      <trkpt lat="45.30914" lon="4.6016">
        <ele>711</ele>
        <time>2019-02-20T08:47:34.000Z</time>
      </trkpt>
      <trkpt lat="45.30914" lon="4.60156">
        <ele>710.79998779297</ele>
        <time>2019-02-20T08:47:35.000Z</time>
      </trkpt>
      <trkpt lat="45.30914" lon="4.60152">
        <ele>710.79998779297</ele>
        <time>2019-02-20T08:47:36.000Z</time>
      </trkpt>
      <trkpt lat="45.30914" lon="4.60148">
        <ele>710.59997558594</ele>
        <time>2019-02-20T08:47:37.000Z</time>
      </trkpt>
      <trkpt lat="45.30914" lon="4.60144">
        <ele>710.79998779297</ele>
        <time>2019-02-20T08:47:38.000Z</time>
      </trkpt>
      <trkpt lat="45.30914" lon="4.60141">
        <ele>710.59997558594</ele>
        <time>2019-02-20T08:47:39.000Z</time>
      </trkpt>
      <trkpt lat="45.30914" lon="4.60137">
        <ele>710.79998779297</ele>
        <time>2019-02-20T08:47:40.000Z</time>
      </trkpt>
      <trkpt lat="45.30915" lon="4.60133">
        <ele>710.59997558594</ele>
        <time>2019-02-20T08:47:41.000Z</time>
      </trkpt>
      <trkpt lat="45.30915" lon="4.60128">
        <ele>710.59997558594</ele>
        <time>2019-02-20T08:47:42.000Z</time>
      </trkpt>
      <trkpt lat="45.30915" lon="4.60123">
        <ele>710.40002441406</ele>
        <time>2019-02-20T08:47:43.000Z</time>
      </trkpt>
      <trkpt lat="45.30916" lon="4.60118">
        <ele>710.20001220703</ele>
        <time>2019-02-20T08:47:44.000Z</time>
      </trkpt>
      <trkpt lat="45.30916" lon="4.60112">
        <ele>710.20001220703</ele>
        <time>2019-02-20T08:47:45.000Z</time>
      </trkpt>
      <trkpt lat="45.30916" lon="4.60107">
        <ele>710</ele>
        <time>2019-02-20T08:47:46.000Z</time>
      </trkpt>
      <trkpt lat="45.30917" lon="4.60102">
        <ele>709.79998779297</ele>
        <time>2019-02-20T08:47:47.000Z</time>
      </trkpt>
      <trkpt lat="45.30917" lon="4.60097">
        <ele>709.59997558594</ele>
        <time>2019-02-20T08:47:48.000Z</time>
      </trkpt>
      <trkpt lat="45.30918" lon="4.60092">
        <ele>709.40002441406</ele>
        <time>2019-02-20T08:47:49.000Z</time>
      </trkpt>
      <trkpt lat="45.30918" lon="4.60086">
        <ele>709</ele>
        <time>2019-02-20T08:47:50.000Z</time>
      </trkpt>
      <trkpt lat="45.30919" lon="4.6008">
        <ele>708.40002441406</ele>
        <time>2019-02-20T08:47:51.000Z</time>
      </trkpt>
      <trkpt lat="45.3092" lon="4.60075">
        <ele>707.79998779297</ele>
        <time>2019-02-20T08:47:52.000Z</time>
      </trkpt>
      <trkpt lat="45.30921" lon="4.60069">
        <ele>707.59997558594</ele>
        <time>2019-02-20T08:47:53.000Z</time>
      </trkpt>
      <trkpt lat="45.30923" lon="4.60063">
        <ele>706.79998779297</ele>
        <time>2019-02-20T08:47:54.000Z</time>
      </trkpt>
      <trkpt lat="45.30924" lon="4.60058">
        <ele>706</ele>
        <time>2019-02-20T08:47:55.000Z</time>
      </trkpt>
      <trkpt lat="45.30926" lon="4.60053">
        <ele>705.40002441406</ele>
        <time>2019-02-20T08:47:56.000Z</time>
      </trkpt>
      <trkpt lat="45.30927" lon="4.60048">
        <ele>705.20001220703</ele>
        <time>2019-02-20T08:47:57.000Z</time>
      </trkpt>
      <trkpt lat="45.30927" lon="4.60044">
        <ele>704.59997558594</ele>
        <time>2019-02-20T08:47:58.000Z</time>
      </trkpt>
      <trkpt lat="45.30927" lon="4.6004">
        <ele>704.40002441406</ele>
        <time>2019-02-20T08:47:59.000Z</time>
      </trkpt>
      <trkpt lat="45.30927" lon="4.60037">
        <ele>703.79998779297</ele>
        <time>2019-02-20T08:48:00.000Z</time>
      </trkpt>
      <trkpt lat="45.30927" lon="4.60035">
        <ele>703.20001220703</ele>
        <time>2019-02-20T08:48:01.000Z</time>
      </trkpt>
      <trkpt lat="45.30927" lon="4.60032">
        <ele>701.79998779297</ele>
        <time>2019-02-20T08:48:02.000Z</time>
      </trkpt>
      <trkpt lat="45.30927" lon="4.6003">
        <ele>701.40002441406</ele>
        <time>2019-02-20T08:48:03.000Z</time>
      </trkpt>
      <trkpt lat="45.30927" lon="4.60027">
        <ele>700.79998779297</ele>
        <time>2019-02-20T08:48:04.000Z</time>
      </trkpt>
      <trkpt lat="45.30927" lon="4.60024">
        <ele>700</ele>
        <time>2019-02-20T08:48:05.000Z</time>
      </trkpt>
      <trkpt lat="45.30927" lon="4.6002">
        <ele>699.40002441406</ele>
        <time>2019-02-20T08:48:06.000Z</time>
      </trkpt>
      <trkpt lat="45.30929" lon="4.60016">
        <ele>699</ele>
        <time>2019-02-20T08:48:07.000Z</time>
      </trkpt>
      <trkpt lat="45.30931" lon="4.6001">
        <ele>698.79998779297</ele>
        <time>2019-02-20T08:48:08.000Z</time>
      </trkpt>
      <trkpt lat="45.30933" lon="4.60003">
        <ele>698.40002441406</ele>
        <time>2019-02-20T08:48:09.000Z</time>
      </trkpt>
      <trkpt lat="45.30936" lon="4.59996">
        <ele>698</ele>
        <time>2019-02-20T08:48:10.000Z</time>
      </trkpt>
      <trkpt lat="45.30939" lon="4.5999">
        <ele>697.79998779297</ele>
        <time>2019-02-20T08:48:11.000Z</time>
      </trkpt>
      <trkpt lat="45.30942" lon="4.59984">
        <ele>697.40002441406</ele>
        <time>2019-02-20T08:48:12.000Z</time>
      </trkpt>
      <trkpt lat="45.30946" lon="4.59979">
        <ele>697.20001220703</ele>
        <time>2019-02-20T08:48:13.000Z</time>
      </trkpt>
      <trkpt lat="45.30949" lon="4.59975">
        <ele>697</ele>
        <time>2019-02-20T08:48:14.000Z</time>
      </trkpt>
      <trkpt lat="45.30953" lon="4.59971">
        <ele>696.20001220703</ele>
        <time>2019-02-20T08:48:15.000Z</time>
      </trkpt>
      <trkpt lat="45.30957" lon="4.59968">
        <ele>695.79998779297</ele>
        <time>2019-02-20T08:48:16.000Z</time>
      </trkpt>
      <trkpt lat="45.30961" lon="4.59964">
        <ele>695.20001220703</ele>
        <time>2019-02-20T08:48:17.000Z</time>
      </trkpt>
      <trkpt lat="45.30965" lon="4.59961">
        <ele>694</ele>
        <time>2019-02-20T08:48:18.000Z</time>
      </trkpt>
      <trkpt lat="45.3097" lon="4.59956">
        <ele>693.20001220703</ele>
        <time>2019-02-20T08:48:19.000Z</time>
      </trkpt>
      <trkpt lat="45.30974" lon="4.59952">
        <ele>692.59997558594</ele>
        <time>2019-02-20T08:48:20.000Z</time>
      </trkpt>
      <trkpt lat="45.30979" lon="4.59946">
        <ele>691.79998779297</ele>
        <time>2019-02-20T08:48:21.000Z</time>
      </trkpt>
      <trkpt lat="45.30984" lon="4.5994">
        <ele>691.20001220703</ele>
        <time>2019-02-20T08:48:22.000Z</time>
      </trkpt>
      <trkpt lat="45.30989" lon="4.59932">
        <ele>690</ele>
        <time>2019-02-20T08:48:23.000Z</time>
      </trkpt>
      <trkpt lat="45.30993" lon="4.59924">
        <ele>689.20001220703</ele>
        <time>2019-02-20T08:48:24.000Z</time>
      </trkpt>
      <trkpt lat="45.30997" lon="4.59915">
        <ele>688.20001220703</ele>
        <time>2019-02-20T08:48:25.000Z</time>
      </trkpt>
      <trkpt lat="45.31001" lon="4.59907">
        <ele>687.20001220703</ele>
        <time>2019-02-20T08:48:26.000Z</time>
      </trkpt>
      <trkpt lat="45.31004" lon="4.599">
        <ele>687</ele>
        <time>2019-02-20T08:48:27.000Z</time>
      </trkpt>
      <trkpt lat="45.31007" lon="4.59895">
        <ele>686.20001220703</ele>
        <time>2019-02-20T08:48:28.000Z</time>
      </trkpt>
      <trkpt lat="45.31009" lon="4.59889">
        <ele>685.79998779297</ele>
        <time>2019-02-20T08:48:29.000Z</time>
      </trkpt>
      <trkpt lat="45.31011" lon="4.59884">
        <ele>684.79998779297</ele>
        <time>2019-02-20T08:48:30.000Z</time>
      </trkpt>
      <trkpt lat="45.31013" lon="4.59879">
        <ele>683.79998779297</ele>
        <time>2019-02-20T08:48:31.000Z</time>
      </trkpt>
      <trkpt lat="45.31015" lon="4.59874">
        <ele>682.79998779297</ele>
        <time>2019-02-20T08:48:32.000Z</time>
      </trkpt>
      <trkpt lat="45.31016" lon="4.5987">
        <ele>682.40002441406</ele>
        <time>2019-02-20T08:48:33.000Z</time>
      </trkpt>
      <trkpt lat="45.31017" lon="4.59865">
        <ele>682</ele>
        <time>2019-02-20T08:48:34.000Z</time>
      </trkpt>
      <trkpt lat="45.31017" lon="4.59861">
        <ele>681.59997558594</ele>
        <time>2019-02-20T08:48:35.000Z</time>
      </trkpt>
      <trkpt lat="45.31017" lon="4.59858">
        <ele>681.59997558594</ele>
        <time>2019-02-20T08:48:36.000Z</time>
      </trkpt>
      <trkpt lat="45.31016" lon="4.59854">
        <ele>681.40002441406</ele>
        <time>2019-02-20T08:48:37.000Z</time>
      </trkpt>
      <trkpt lat="45.31015" lon="4.59851">
        <ele>681</ele>
        <time>2019-02-20T08:48:38.000Z</time>
      </trkpt>
      <trkpt lat="45.31015" lon="4.59847">
        <ele>681</ele>
        <time>2019-02-20T08:48:39.000Z</time>
      </trkpt>
      <trkpt lat="45.31016" lon="4.59844">
        <ele>681</ele>
        <time>2019-02-20T08:48:40.000Z</time>
      </trkpt>
      <trkpt lat="45.31018" lon="4.59841">
        <ele>680.79998779297</ele>
        <time>2019-02-20T08:48:41.000Z</time>
      </trkpt>
      <trkpt lat="45.3102" lon="4.59838">
        <ele>680.40002441406</ele>
        <time>2019-02-20T08:48:42.000Z</time>
      </trkpt>
      <trkpt lat="45.31022" lon="4.59836">
        <ele>680.20001220703</ele>
        <time>2019-02-20T08:48:43.000Z</time>
      </trkpt>
      <trkpt lat="45.31025" lon="4.59834">
        <ele>679.79998779297</ele>
        <time>2019-02-20T08:48:44.000Z</time>
      </trkpt>
      <trkpt lat="45.31027" lon="4.59831">
        <ele>679.59997558594</ele>
        <time>2019-02-20T08:48:45.000Z</time>
      </trkpt>
      <trkpt lat="45.3103" lon="4.59827">
        <ele>679.40002441406</ele>
        <time>2019-02-20T08:48:46.000Z</time>
      </trkpt>
      <trkpt lat="45.31031" lon="4.59824">
        <ele>679</ele>
        <time>2019-02-20T08:48:47.000Z</time>
      </trkpt>
      <trkpt lat="45.31033" lon="4.59821">
        <ele>678.79998779297</ele>
        <time>2019-02-20T08:48:48.000Z</time>
      </trkpt>
      <trkpt lat="45.31033" lon="4.5982">
        <ele>678.40002441406</ele>
        <time>2019-02-20T08:48:49.000Z</time>
      </trkpt>
      <trkpt lat="45.31034" lon="4.59818">
        <ele>678.40002441406</ele>
        <time>2019-02-20T08:48:50.000Z</time>
      </trkpt>
      <trkpt lat="45.31034" lon="4.59816">
        <ele>678.20001220703</ele>
        <time>2019-02-20T08:48:51.000Z</time>
      </trkpt>
      <trkpt lat="45.31034" lon="4.59814">
        <ele>678.20001220703</ele>
        <time>2019-02-20T08:48:52.000Z</time>
      </trkpt>
      <trkpt lat="45.31035" lon="4.59812">
        <ele>678.20001220703</ele>
        <time>2019-02-20T08:48:53.000Z</time>
      </trkpt>
      <trkpt lat="45.31036" lon="4.5981">
        <ele>678.20001220703</ele>
        <time>2019-02-20T08:48:54.000Z</time>
      </trkpt>
      <trkpt lat="45.31037" lon="4.59809">
        <ele>678.20001220703</ele>
        <time>2019-02-20T08:48:55.000Z</time>
      </trkpt>
      <trkpt lat="45.31038" lon="4.59807">
        <ele>678.20001220703</ele>
        <time>2019-02-20T08:48:56.000Z</time>
      </trkpt>
      <trkpt lat="45.31039" lon="4.59806">
        <ele>678.20001220703</ele>
        <time>2019-02-20T08:48:57.000Z</time>
      </trkpt>
      <trkpt lat="45.31041" lon="4.59805">
        <ele>678.20001220703</ele>
        <time>2019-02-20T08:48:58.000Z</time>
      </trkpt>
      <trkpt lat="45.31042" lon="4.59804">
        <ele>678.20001220703</ele>
        <time>2019-02-20T08:48:59.000Z</time>
      </trkpt>
      <trkpt lat="45.31043" lon="4.59802">
        <ele>678.20001220703</ele>
        <time>2019-02-20T08:49:00.000Z</time>
      </trkpt>
      <trkpt lat="45.31044" lon="4.59801">
        <ele>678.40002441406</ele>
        <time>2019-02-20T08:49:01.000Z</time>
      </trkpt>
      <trkpt lat="45.31045" lon="4.59799">
        <ele>678.59997558594</ele>
        <time>2019-02-20T08:49:02.000Z</time>
      </trkpt>
      <trkpt lat="45.31046" lon="4.59797">
        <ele>678.59997558594</ele>
        <time>2019-02-20T08:49:03.000Z</time>
      </trkpt>
      <trkpt lat="45.31047" lon="4.59796">
        <ele>678.79998779297</ele>
        <time>2019-02-20T08:49:04.000Z</time>
      </trkpt>
      <trkpt lat="45.31048" lon="4.59794">
        <ele>679.20001220703</ele>
        <time>2019-02-20T08:49:05.000Z</time>
      </trkpt>
      <trkpt lat="45.31049" lon="4.59792">
        <ele>679.40002441406</ele>
        <time>2019-02-20T08:49:06.000Z</time>
      </trkpt>
      <trkpt lat="45.31051" lon="4.5979">
        <ele>679.59997558594</ele>
        <time>2019-02-20T08:49:07.000Z</time>
      </trkpt>
      <trkpt lat="45.31052" lon="4.59789">
        <ele>679.79998779297</ele>
        <time>2019-02-20T08:49:08.000Z</time>
      </trkpt>
      <trkpt lat="45.31053" lon="4.59787">
        <ele>679.79998779297</ele>
        <time>2019-02-20T08:49:09.000Z</time>
      </trkpt>
      <trkpt lat="45.31054" lon="4.59785">
        <ele>680</ele>
        <time>2019-02-20T08:49:10.000Z</time>
      </trkpt>
      <trkpt lat="45.31055" lon="4.59784">
        <ele>680.59997558594</ele>
        <time>2019-02-20T08:49:11.000Z</time>
      </trkpt>
      <trkpt lat="45.31057" lon="4.59782">
        <ele>680.79998779297</ele>
        <time>2019-02-20T08:49:12.000Z</time>
      </trkpt>
      <trkpt lat="45.31058" lon="4.59781">
        <ele>681.20001220703</ele>
        <time>2019-02-20T08:49:13.000Z</time>
      </trkpt>
      <trkpt lat="45.31059" lon="4.59779">
        <ele>681.40002441406</ele>
        <time>2019-02-20T08:49:14.000Z</time>
      </trkpt>
      <trkpt lat="45.3106" lon="4.59777">
        <ele>681.59997558594</ele>
        <time>2019-02-20T08:49:15.000Z</time>
      </trkpt>
      <trkpt lat="45.31061" lon="4.59776">
        <ele>681.79998779297</ele>
        <time>2019-02-20T08:49:16.000Z</time>
      </trkpt>
      <trkpt lat="45.31062" lon="4.59774">
        <ele>681.79998779297</ele>
        <time>2019-02-20T08:49:17.000Z</time>
      </trkpt>
      <trkpt lat="45.31063" lon="4.59772">
        <ele>681.79998779297</ele>
        <time>2019-02-20T08:49:18.000Z</time>
      </trkpt>
      <trkpt lat="45.31065" lon="4.5977">
        <ele>682</ele>
        <time>2019-02-20T08:49:19.000Z</time>
      </trkpt>
      <trkpt lat="45.31066" lon="4.59768">
        <ele>682.40002441406</ele>
        <time>2019-02-20T08:49:20.000Z</time>
      </trkpt>
      <trkpt lat="45.31067" lon="4.59766">
        <ele>682.40002441406</ele>
        <time>2019-02-20T08:49:21.000Z</time>
      </trkpt>
      <trkpt lat="45.31068" lon="4.59764">
        <ele>682.40002441406</ele>
        <time>2019-02-20T08:49:22.000Z</time>
      </trkpt>
      <trkpt lat="45.31069" lon="4.59763">
        <ele>682.59997558594</ele>
        <time>2019-02-20T08:49:23.000Z</time>
      </trkpt>
      <trkpt lat="45.31071" lon="4.59761">
        <ele>682.59997558594</ele>
        <time>2019-02-20T08:49:24.000Z</time>
      </trkpt>
      <trkpt lat="45.31072" lon="4.59759">
        <ele>682.59997558594</ele>
        <time>2019-02-20T08:49:25.000Z</time>
      </trkpt>
      <trkpt lat="45.31073" lon="4.59757">
        <ele>682.59997558594</ele>
        <time>2019-02-20T08:49:26.000Z</time>
      </trkpt>
      <trkpt lat="45.31074" lon="4.59755">
        <ele>682.59997558594</ele>
        <time>2019-02-20T08:49:27.000Z</time>
      </trkpt>
      <trkpt lat="45.31075" lon="4.59753">
        <ele>682.79998779297</ele>
        <time>2019-02-20T08:49:28.000Z</time>
      </trkpt>
      <trkpt lat="45.31076" lon="4.59751">
        <ele>682.79998779297</ele>
        <time>2019-02-20T08:49:29.000Z</time>
      </trkpt>
      <trkpt lat="45.31077" lon="4.59749">
        <ele>683</ele>
        <time>2019-02-20T08:49:30.000Z</time>
      </trkpt>
      <trkpt lat="45.31079" lon="4.59747">
        <ele>683</ele>
        <time>2019-02-20T08:49:31.000Z</time>
      </trkpt>
      <trkpt lat="45.3108" lon="4.59745">
        <ele>683</ele>
        <time>2019-02-20T08:49:32.000Z</time>
      </trkpt>
      <trkpt lat="45.31081" lon="4.59743">
        <ele>683.20001220703</ele>
        <time>2019-02-20T08:49:33.000Z</time>
      </trkpt>
      <trkpt lat="45.31082" lon="4.5974">
        <ele>683.40002441406</ele>
        <time>2019-02-20T08:49:34.000Z</time>
      </trkpt>
      <trkpt lat="45.31084" lon="4.59738">
        <ele>683.40002441406</ele>
        <time>2019-02-20T08:49:35.000Z</time>
      </trkpt>
      <trkpt lat="45.31085" lon="4.59735">
        <ele>683.40002441406</ele>
        <time>2019-02-20T08:49:36.000Z</time>
      </trkpt>
      <trkpt lat="45.31087" lon="4.59733">
        <ele>683.59997558594</ele>
        <time>2019-02-20T08:49:37.000Z</time>
      </trkpt>
      <trkpt lat="45.31088" lon="4.5973">
        <ele>683.59997558594</ele>
        <time>2019-02-20T08:49:38.000Z</time>
      </trkpt>
      <trkpt lat="45.3109" lon="4.59728">
        <ele>683.79998779297</ele>
        <time>2019-02-20T08:49:39.000Z</time>
      </trkpt>
      <trkpt lat="45.31091" lon="4.59725">
        <ele>683.79998779297</ele>
        <time>2019-02-20T08:49:40.000Z</time>
      </trkpt>
      <trkpt lat="45.31092" lon="4.59723">
        <ele>684</ele>
        <time>2019-02-20T08:49:41.000Z</time>
      </trkpt>
      <trkpt lat="45.31094" lon="4.5972">
        <ele>683.79998779297</ele>
        <time>2019-02-20T08:49:42.000Z</time>
      </trkpt>
      <trkpt lat="45.31095" lon="4.59718">
        <ele>684</ele>
        <time>2019-02-20T08:49:43.000Z</time>
      </trkpt>
      <trkpt lat="45.31096" lon="4.59715">
        <ele>684</ele>
        <time>2019-02-20T08:49:44.000Z</time>
      </trkpt>
      <trkpt lat="45.31097" lon="4.59713">
        <ele>684</ele>
        <time>2019-02-20T08:49:45.000Z</time>
      </trkpt>
      <trkpt lat="45.31098" lon="4.59711">
        <ele>684</ele>
        <time>2019-02-20T08:49:46.000Z</time>
      </trkpt>
      <trkpt lat="45.31099" lon="4.59709">
        <ele>684.20001220703</ele>
        <time>2019-02-20T08:49:47.000Z</time>
      </trkpt>
      <trkpt lat="45.311" lon="4.59706">
        <ele>684.20001220703</ele>
        <time>2019-02-20T08:49:48.000Z</time>
      </trkpt>
      <trkpt lat="45.31102" lon="4.59704">
        <ele>684.20001220703</ele>
        <time>2019-02-20T08:49:49.000Z</time>
      </trkpt>
      <trkpt lat="45.31103" lon="4.59702">
        <ele>684.40002441406</ele>
        <time>2019-02-20T08:49:50.000Z</time>
      </trkpt>
      <trkpt lat="45.31104" lon="4.597">
        <ele>684.40002441406</ele>
        <time>2019-02-20T08:49:51.000Z</time>
      </trkpt>
      <trkpt lat="45.31105" lon="4.59697">
        <ele>684.59997558594</ele>
        <time>2019-02-20T08:49:52.000Z</time>
      </trkpt>
      <trkpt lat="45.31106" lon="4.59695">
        <ele>684.59997558594</ele>
        <time>2019-02-20T08:49:53.000Z</time>
      </trkpt>
      <trkpt lat="45.31107" lon="4.59693">
        <ele>684.79998779297</ele>
        <time>2019-02-20T08:49:54.000Z</time>
      </trkpt>
      <trkpt lat="45.31108" lon="4.59691">
        <ele>685</ele>
        <time>2019-02-20T08:49:55.000Z</time>
      </trkpt>
      <trkpt lat="45.31109" lon="4.59689">
        <ele>684.79998779297</ele>
        <time>2019-02-20T08:49:56.000Z</time>
      </trkpt>
      <trkpt lat="45.31109" lon="4.59687">
        <ele>685</ele>
        <time>2019-02-20T08:49:57.000Z</time>
      </trkpt>
      <trkpt lat="45.3111" lon="4.59684">
        <ele>685</ele>
        <time>2019-02-20T08:49:58.000Z</time>
      </trkpt>
      <trkpt lat="45.31111" lon="4.59682">
        <ele>685.20001220703</ele>
        <time>2019-02-20T08:49:59.000Z</time>
      </trkpt>
      <trkpt lat="45.31112" lon="4.5968">
        <ele>685.20001220703</ele>
        <time>2019-02-20T08:50:00.000Z</time>
      </trkpt>
      <trkpt lat="45.31113" lon="4.59678">
        <ele>685.20001220703</ele>
        <time>2019-02-20T08:50:01.000Z</time>
      </trkpt>
      <trkpt lat="45.31114" lon="4.59676">
        <ele>685.20001220703</ele>
        <time>2019-02-20T08:50:02.000Z</time>
      </trkpt>
      <trkpt lat="45.31115" lon="4.59674">
        <ele>685.20001220703</ele>
        <time>2019-02-20T08:50:03.000Z</time>
      </trkpt>
      <trkpt lat="45.31115" lon="4.59672">
        <ele>685.20001220703</ele>
        <time>2019-02-20T08:50:04.000Z</time>
      </trkpt>
      <trkpt lat="45.31117" lon="4.59669">
        <ele>685.20001220703</ele>
        <time>2019-02-20T08:50:05.000Z</time>
      </trkpt>
      <trkpt lat="45.31118" lon="4.59667">
        <ele>685.40002441406</ele>
        <time>2019-02-20T08:50:06.000Z</time>
      </trkpt>
      <trkpt lat="45.31118" lon="4.59665">
        <ele>685.40002441406</ele>
        <time>2019-02-20T08:50:07.000Z</time>
      </trkpt>
      <trkpt lat="45.31119" lon="4.59662">
        <ele>685.59997558594</ele>
        <time>2019-02-20T08:50:08.000Z</time>
      </trkpt>
      <trkpt lat="45.31121" lon="4.5966">
        <ele>685.79998779297</ele>
        <time>2019-02-20T08:50:09.000Z</time>
      </trkpt>
      <trkpt lat="45.31121" lon="4.59658">
        <ele>686</ele>
        <time>2019-02-20T08:50:10.000Z</time>
      </trkpt>
      <trkpt lat="45.31122" lon="4.59656">
        <ele>686</ele>
        <time>2019-02-20T08:50:11.000Z</time>
      </trkpt>
      <trkpt lat="45.31123" lon="4.59653">
        <ele>686.20001220703</ele>
        <time>2019-02-20T08:50:12.000Z</time>
      </trkpt>
      <trkpt lat="45.31123" lon="4.59651">
        <ele>686.40002441406</ele>
        <time>2019-02-20T08:50:13.000Z</time>
      </trkpt>
      <trkpt lat="45.31124" lon="4.59649">
        <ele>686.40002441406</ele>
        <time>2019-02-20T08:50:14.000Z</time>
      </trkpt>
      <trkpt lat="45.31125" lon="4.59646">
        <ele>686.40002441406</ele>
        <time>2019-02-20T08:50:15.000Z</time>
      </trkpt>
      <trkpt lat="45.31125" lon="4.59644">
        <ele>686.40002441406</ele>
        <time>2019-02-20T08:50:16.000Z</time>
      </trkpt>
      <trkpt lat="45.31126" lon="4.59642">
        <ele>686.40002441406</ele>
        <time>2019-02-20T08:50:17.000Z</time>
      </trkpt>
      <trkpt lat="45.31127" lon="4.59639">
        <ele>686.59997558594</ele>
        <time>2019-02-20T08:50:18.000Z</time>
      </trkpt>
      <trkpt lat="45.31127" lon="4.59637">
        <ele>686.79998779297</ele>
        <time>2019-02-20T08:50:19.000Z</time>
      </trkpt>
      <trkpt lat="45.31128" lon="4.59635">
        <ele>686.79998779297</ele>
        <time>2019-02-20T08:50:20.000Z</time>
      </trkpt>
      <trkpt lat="45.31128" lon="4.59633">
        <ele>687</ele>
        <time>2019-02-20T08:50:21.000Z</time>
      </trkpt>
      <trkpt lat="45.31129" lon="4.59631">
        <ele>687</ele>
        <time>2019-02-20T08:50:22.000Z</time>
      </trkpt>
      <trkpt lat="45.3113" lon="4.59629">
        <ele>687.20001220703</ele>
        <time>2019-02-20T08:50:23.000Z</time>
      </trkpt>
      <trkpt lat="45.3113" lon="4.59627">
        <ele>687.20001220703</ele>
        <time>2019-02-20T08:50:24.000Z</time>
      </trkpt>
      <trkpt lat="45.31131" lon="4.59625">
        <ele>687.40002441406</ele>
        <time>2019-02-20T08:50:25.000Z</time>
      </trkpt>
      <trkpt lat="45.31131" lon="4.59623">
        <ele>687.59997558594</ele>
        <time>2019-02-20T08:50:26.000Z</time>
      </trkpt>
      <trkpt lat="45.31132" lon="4.59621">
        <ele>688</ele>
        <time>2019-02-20T08:50:27.000Z</time>
      </trkpt>
      <trkpt lat="45.31132" lon="4.59619">
        <ele>688</ele>
        <time>2019-02-20T08:50:28.000Z</time>
      </trkpt>
      <trkpt lat="45.31133" lon="4.59616">
        <ele>688.20001220703</ele>
        <time>2019-02-20T08:50:29.000Z</time>
      </trkpt>
      <trkpt lat="45.31133" lon="4.59614">
        <ele>688.40002441406</ele>
        <time>2019-02-20T08:50:30.000Z</time>
      </trkpt>
      <trkpt lat="45.31134" lon="4.59612">
        <ele>688.59997558594</ele>
        <time>2019-02-20T08:50:31.000Z</time>
      </trkpt>
      <trkpt lat="45.31134" lon="4.5961">
        <ele>688.59997558594</ele>
        <time>2019-02-20T08:50:32.000Z</time>
      </trkpt>
      <trkpt lat="45.31135" lon="4.59608">
        <ele>689</ele>
        <time>2019-02-20T08:50:33.000Z</time>
      </trkpt>
      <trkpt lat="45.31136" lon="4.59606">
        <ele>689</ele>
        <time>2019-02-20T08:50:34.000Z</time>
      </trkpt>
      <trkpt lat="45.31136" lon="4.59604">
        <ele>689</ele>
        <time>2019-02-20T08:50:35.000Z</time>
      </trkpt>
      <trkpt lat="45.31137" lon="4.59602">
        <ele>689.20001220703</ele>
        <time>2019-02-20T08:50:36.000Z</time>
      </trkpt>
      <trkpt lat="45.31137" lon="4.596">
        <ele>689.40002441406</ele>
        <time>2019-02-20T08:50:37.000Z</time>
      </trkpt>
      <trkpt lat="45.31137" lon="4.59598">
        <ele>689.59997558594</ele>
        <time>2019-02-20T08:50:38.000Z</time>
      </trkpt>
      <trkpt lat="45.31138" lon="4.59596">
        <ele>689.79998779297</ele>
        <time>2019-02-20T08:50:39.000Z</time>
      </trkpt>
      <trkpt lat="45.31138" lon="4.59594">
        <ele>689.79998779297</ele>
        <time>2019-02-20T08:50:40.000Z</time>
      </trkpt>
      <trkpt lat="45.31139" lon="4.59592">
        <ele>690</ele>
        <time>2019-02-20T08:50:41.000Z</time>
      </trkpt>
      <trkpt lat="45.3114" lon="4.5959">
        <ele>690.20001220703</ele>
        <time>2019-02-20T08:50:42.000Z</time>
      </trkpt>
      <trkpt lat="45.3114" lon="4.59588">
        <ele>690.40002441406</ele>
        <time>2019-02-20T08:50:43.000Z</time>
      </trkpt>
      <trkpt lat="45.31141" lon="4.59586">
        <ele>690.59997558594</ele>
        <time>2019-02-20T08:50:44.000Z</time>
      </trkpt>
      <trkpt lat="45.31141" lon="4.59584">
        <ele>690.79998779297</ele>
        <time>2019-02-20T08:50:45.000Z</time>
      </trkpt>
      <trkpt lat="45.31142" lon="4.59582">
        <ele>691</ele>
        <time>2019-02-20T08:50:46.000Z</time>
      </trkpt>
      <trkpt lat="45.31142" lon="4.59581">
        <ele>691</ele>
        <time>2019-02-20T08:50:47.000Z</time>
      </trkpt>
      <trkpt lat="45.31143" lon="4.59579">
        <ele>691.20001220703</ele>
        <time>2019-02-20T08:50:48.000Z</time>
      </trkpt>
      <trkpt lat="45.31144" lon="4.59577">
        <ele>691.59997558594</ele>
        <time>2019-02-20T08:50:49.000Z</time>
      </trkpt>
      <trkpt lat="45.31144" lon="4.59575">
        <ele>691.40002441406</ele>
        <time>2019-02-20T08:50:50.000Z</time>
      </trkpt>
      <trkpt lat="45.31145" lon="4.59573">
        <ele>691.79998779297</ele>
        <time>2019-02-20T08:50:51.000Z</time>
      </trkpt>
      <trkpt lat="45.31145" lon="4.59571">
        <ele>692</ele>
        <time>2019-02-20T08:50:52.000Z</time>
      </trkpt>
      <trkpt lat="45.31146" lon="4.59569">
        <ele>692.20001220703</ele>
        <time>2019-02-20T08:50:53.000Z</time>
      </trkpt>
      <trkpt lat="45.31147" lon="4.59567">
        <ele>692.20001220703</ele>
        <time>2019-02-20T08:50:54.000Z</time>
      </trkpt>
      <trkpt lat="45.31147" lon="4.59566">
        <ele>692.40002441406</ele>
        <time>2019-02-20T08:50:55.000Z</time>
      </trkpt>
      <trkpt lat="45.31148" lon="4.59564">
        <ele>692.40002441406</ele>
        <time>2019-02-20T08:50:56.000Z</time>
      </trkpt>
      <trkpt lat="45.31149" lon="4.59562">
        <ele>692.79998779297</ele>
        <time>2019-02-20T08:50:57.000Z</time>
      </trkpt>
      <trkpt lat="45.31149" lon="4.5956">
        <ele>692.79998779297</ele>
        <time>2019-02-20T08:50:58.000Z</time>
      </trkpt>
      <trkpt lat="45.3115" lon="4.59558">
        <ele>693</ele>
        <time>2019-02-20T08:50:59.000Z</time>
      </trkpt>
      <trkpt lat="45.31151" lon="4.59556">
        <ele>693.20001220703</ele>
        <time>2019-02-20T08:51:00.000Z</time>
      </trkpt>
      <trkpt lat="45.31151" lon="4.59554">
        <ele>693.40002441406</ele>
        <time>2019-02-20T08:51:01.000Z</time>
      </trkpt>
      <trkpt lat="45.31152" lon="4.59552">
        <ele>693.40002441406</ele>
        <time>2019-02-20T08:51:02.000Z</time>
      </trkpt>
      <trkpt lat="45.31153" lon="4.5955">
        <ele>693.59997558594</ele>
        <time>2019-02-20T08:51:03.000Z</time>
      </trkpt>
      <trkpt lat="45.31153" lon="4.59548">
        <ele>693.79998779297</ele>
        <time>2019-02-20T08:51:04.000Z</time>
      </trkpt>
      <trkpt lat="45.31154" lon="4.59546">
        <ele>694</ele>
        <time>2019-02-20T08:51:05.000Z</time>
      </trkpt>
      <trkpt lat="45.31155" lon="4.59544">
        <ele>694</ele>
        <time>2019-02-20T08:51:06.000Z</time>
      </trkpt>
      <trkpt lat="45.31155" lon="4.59543">
        <ele>694.40002441406</ele>
        <time>2019-02-20T08:51:07.000Z</time>
      </trkpt>
      <trkpt lat="45.31156" lon="4.59541">
        <ele>694.40002441406</ele>
        <time>2019-02-20T08:51:08.000Z</time>
      </trkpt>
      <trkpt lat="45.31157" lon="4.59539">
        <ele>694.79998779297</ele>
        <time>2019-02-20T08:51:09.000Z</time>
      </trkpt>
      <trkpt lat="45.31157" lon="4.59537">
        <ele>694.79998779297</ele>
        <time>2019-02-20T08:51:10.000Z</time>
      </trkpt>
      <trkpt lat="45.31158" lon="4.59535">
        <ele>695</ele>
        <time>2019-02-20T08:51:11.000Z</time>
      </trkpt>
      <trkpt lat="45.31158" lon="4.59533">
        <ele>695</ele>
        <time>2019-02-20T08:51:12.000Z</time>
      </trkpt>
      <trkpt lat="45.31159" lon="4.59531">
        <ele>695.20001220703</ele>
        <time>2019-02-20T08:51:13.000Z</time>
      </trkpt>
      <trkpt lat="45.3116" lon="4.59529">
        <ele>695.20001220703</ele>
        <time>2019-02-20T08:51:14.000Z</time>
      </trkpt>
      <trkpt lat="45.3116" lon="4.59527">
        <ele>695.40002441406</ele>
        <time>2019-02-20T08:51:15.000Z</time>
      </trkpt>
      <trkpt lat="45.31161" lon="4.59525">
        <ele>695.79998779297</ele>
        <time>2019-02-20T08:51:16.000Z</time>
      </trkpt>
      <trkpt lat="45.31161" lon="4.59524">
        <ele>695.79998779297</ele>
        <time>2019-02-20T08:51:17.000Z</time>
      </trkpt>
      <trkpt lat="45.31162" lon="4.59522">
        <ele>695.79998779297</ele>
        <time>2019-02-20T08:51:18.000Z</time>
      </trkpt>
      <trkpt lat="45.31163" lon="4.5952">
        <ele>696</ele>
        <time>2019-02-20T08:51:19.000Z</time>
      </trkpt>
      <trkpt lat="45.31163" lon="4.59518">
        <ele>696</ele>
        <time>2019-02-20T08:51:20.000Z</time>
      </trkpt>
      <trkpt lat="45.31164" lon="4.59516">
        <ele>696</ele>
        <time>2019-02-20T08:51:21.000Z</time>
      </trkpt>
      <trkpt lat="45.31164" lon="4.59515">
        <ele>696</ele>
        <time>2019-02-20T08:51:22.000Z</time>
      </trkpt>
      <trkpt lat="45.31165" lon="4.59513">
        <ele>696.20001220703</ele>
        <time>2019-02-20T08:51:23.000Z</time>
      </trkpt>
      <trkpt lat="45.31165" lon="4.59511">
        <ele>696.40002441406</ele>
        <time>2019-02-20T08:51:24.000Z</time>
      </trkpt>
      <trkpt lat="45.31166" lon="4.59509">
        <ele>696.59997558594</ele>
        <time>2019-02-20T08:51:25.000Z</time>
      </trkpt>
      <trkpt lat="45.31167" lon="4.59507">
        <ele>696.59997558594</ele>
        <time>2019-02-20T08:51:26.000Z</time>
      </trkpt>
      <trkpt lat="45.31167" lon="4.59506">
        <ele>696.79998779297</ele>
        <time>2019-02-20T08:51:27.000Z</time>
      </trkpt>
      <trkpt lat="45.31168" lon="4.59504">
        <ele>697</ele>
        <time>2019-02-20T08:51:28.000Z</time>
      </trkpt>
      <trkpt lat="45.31169" lon="4.59502">
        <ele>697</ele>
        <time>2019-02-20T08:51:29.000Z</time>
      </trkpt>
      <trkpt lat="45.31169" lon="4.595">
        <ele>697.20001220703</ele>
        <time>2019-02-20T08:51:30.000Z</time>
      </trkpt>
      <trkpt lat="45.3117" lon="4.59499">
        <ele>697.20001220703</ele>
        <time>2019-02-20T08:51:31.000Z</time>
      </trkpt>
      <trkpt lat="45.3117" lon="4.59497">
        <ele>697.20001220703</ele>
        <time>2019-02-20T08:51:32.000Z</time>
      </trkpt>
      <trkpt lat="45.31171" lon="4.59495">
        <ele>697.40002441406</ele>
        <time>2019-02-20T08:51:33.000Z</time>
      </trkpt>
      <trkpt lat="45.31171" lon="4.59494">
        <ele>697.40002441406</ele>
        <time>2019-02-20T08:51:34.000Z</time>
      </trkpt>
      <trkpt lat="45.31172" lon="4.59492">
        <ele>697.40002441406</ele>
        <time>2019-02-20T08:51:35.000Z</time>
      </trkpt>
      <trkpt lat="45.31172" lon="4.5949">
        <ele>697.79998779297</ele>
        <time>2019-02-20T08:51:36.000Z</time>
      </trkpt>
      <trkpt lat="45.31173" lon="4.59489">
        <ele>697.79998779297</ele>
        <time>2019-02-20T08:51:37.000Z</time>
      </trkpt>
      <trkpt lat="45.31173" lon="4.59487">
        <ele>698</ele>
        <time>2019-02-20T08:51:38.000Z</time>
      </trkpt>
      <trkpt lat="45.31174" lon="4.59485">
        <ele>698</ele>
        <time>2019-02-20T08:51:39.000Z</time>
      </trkpt>
      <trkpt lat="45.31175" lon="4.59483">
        <ele>698.40002441406</ele>
        <time>2019-02-20T08:51:40.000Z</time>
      </trkpt>
      <trkpt lat="45.31175" lon="4.59482">
        <ele>698.40002441406</ele>
        <time>2019-02-20T08:51:41.000Z</time>
      </trkpt>
      <trkpt lat="45.31176" lon="4.5948">
        <ele>698.40002441406</ele>
        <time>2019-02-20T08:51:42.000Z</time>
      </trkpt>
      <trkpt lat="45.31176" lon="4.59479">
        <ele>698.59997558594</ele>
        <time>2019-02-20T08:51:43.000Z</time>
      </trkpt>
      <trkpt lat="45.31177" lon="4.59477">
        <ele>698.59997558594</ele>
        <time>2019-02-20T08:51:44.000Z</time>
      </trkpt>
      <trkpt lat="45.31178" lon="4.59475">
        <ele>698.79998779297</ele>
        <time>2019-02-20T08:51:45.000Z</time>
      </trkpt>
      <trkpt lat="45.31178" lon="4.59473">
        <ele>699</ele>
        <time>2019-02-20T08:51:46.000Z</time>
      </trkpt>
      <trkpt lat="45.31178" lon="4.59471">
        <ele>699</ele>
        <time>2019-02-20T08:51:47.000Z</time>
      </trkpt>
      <trkpt lat="45.31179" lon="4.5947">
        <ele>699.20001220703</ele>
        <time>2019-02-20T08:51:48.000Z</time>
      </trkpt>
      <trkpt lat="45.31179" lon="4.59468">
        <ele>699.40002441406</ele>
        <time>2019-02-20T08:51:49.000Z</time>
      </trkpt>
      <trkpt lat="45.3118" lon="4.59466">
        <ele>699.59997558594</ele>
        <time>2019-02-20T08:51:50.000Z</time>
      </trkpt>
      <trkpt lat="45.3118" lon="4.59465">
        <ele>699.79998779297</ele>
        <time>2019-02-20T08:51:51.000Z</time>
      </trkpt>
      <trkpt lat="45.31181" lon="4.59463">
        <ele>700</ele>
        <time>2019-02-20T08:51:52.000Z</time>
      </trkpt>
      <trkpt lat="45.31181" lon="4.59461">
        <ele>700.20001220703</ele>
        <time>2019-02-20T08:51:53.000Z</time>
      </trkpt>
      <trkpt lat="45.31182" lon="4.59459">
        <ele>700.40002441406</ele>
        <time>2019-02-20T08:51:54.000Z</time>
      </trkpt>
      <trkpt lat="45.31182" lon="4.59458">
        <ele>700.40002441406</ele>
        <time>2019-02-20T08:51:55.000Z</time>
      </trkpt>
      <trkpt lat="45.31183" lon="4.59456">
        <ele>700.59997558594</ele>
        <time>2019-02-20T08:51:56.000Z</time>
      </trkpt>
      <trkpt lat="45.31183" lon="4.59454">
        <ele>700.59997558594</ele>
        <time>2019-02-20T08:51:57.000Z</time>
      </trkpt>
      <trkpt lat="45.31184" lon="4.59453">
        <ele>700.79998779297</ele>
        <time>2019-02-20T08:51:58.000Z</time>
      </trkpt>
      <trkpt lat="45.31184" lon="4.59451">
        <ele>701</ele>
        <time>2019-02-20T08:51:59.000Z</time>
      </trkpt>
      <trkpt lat="45.31185" lon="4.59449">
        <ele>701.20001220703</ele>
        <time>2019-02-20T08:52:00.000Z</time>
      </trkpt>
      <trkpt lat="45.31185" lon="4.59447">
        <ele>701.20001220703</ele>
        <time>2019-02-20T08:52:01.000Z</time>
      </trkpt>
      <trkpt lat="45.31186" lon="4.59445">
        <ele>701.20001220703</ele>
        <time>2019-02-20T08:52:02.000Z</time>
      </trkpt>
      <trkpt lat="45.31187" lon="4.59444">
        <ele>701.40002441406</ele>
        <time>2019-02-20T08:52:03.000Z</time>
      </trkpt>
      <trkpt lat="45.31187" lon="4.59442">
        <ele>701.79998779297</ele>
        <time>2019-02-20T08:52:04.000Z</time>
      </trkpt>
      <trkpt lat="45.31188" lon="4.59441">
        <ele>701.79998779297</ele>
        <time>2019-02-20T08:52:05.000Z</time>
      </trkpt>
      <trkpt lat="45.31188" lon="4.59439">
        <ele>702</ele>
        <time>2019-02-20T08:52:06.000Z</time>
      </trkpt>
      <trkpt lat="45.31188" lon="4.59437">
        <ele>702</ele>
        <time>2019-02-20T08:52:07.000Z</time>
      </trkpt>
      <trkpt lat="45.31189" lon="4.59436">
        <ele>702.20001220703</ele>
        <time>2019-02-20T08:52:08.000Z</time>
      </trkpt>
      <trkpt lat="45.3119" lon="4.59434">
        <ele>702.20001220703</ele>
        <time>2019-02-20T08:52:09.000Z</time>
      </trkpt>
      <trkpt lat="45.3119" lon="4.59432">
        <ele>702.20001220703</ele>
        <time>2019-02-20T08:52:10.000Z</time>
      </trkpt>
      <trkpt lat="45.31191" lon="4.5943">
        <ele>702.20001220703</ele>
        <time>2019-02-20T08:52:11.000Z</time>
      </trkpt>
      <trkpt lat="45.31192" lon="4.59428">
        <ele>702.40002441406</ele>
        <time>2019-02-20T08:52:12.000Z</time>
      </trkpt>
      <trkpt lat="45.31192" lon="4.59427">
        <ele>702.59997558594</ele>
        <time>2019-02-20T08:52:13.000Z</time>
      </trkpt>
      <trkpt lat="45.31193" lon="4.59425">
        <ele>702.79998779297</ele>
        <time>2019-02-20T08:52:14.000Z</time>
      </trkpt>
      <trkpt lat="45.31193" lon="4.59423">
        <ele>703.20001220703</ele>
        <time>2019-02-20T08:52:15.000Z</time>
      </trkpt>
      <trkpt lat="45.31194" lon="4.59422">
        <ele>703</ele>
        <time>2019-02-20T08:52:16.000Z</time>
      </trkpt>
      <trkpt lat="45.31194" lon="4.5942">
        <ele>703.20001220703</ele>
        <time>2019-02-20T08:52:17.000Z</time>
      </trkpt>
      <trkpt lat="45.31194" lon="4.59418">
        <ele>703.40002441406</ele>
        <time>2019-02-20T08:52:18.000Z</time>
      </trkpt>
      <trkpt lat="45.31195" lon="4.59417">
        <ele>703.79998779297</ele>
        <time>2019-02-20T08:52:19.000Z</time>
      </trkpt>
      <trkpt lat="45.31195" lon="4.59415">
        <ele>703.79998779297</ele>
        <time>2019-02-20T08:52:20.000Z</time>
      </trkpt>
      <trkpt lat="45.31195" lon="4.59413">
        <ele>703.79998779297</ele>
        <time>2019-02-20T08:52:21.000Z</time>
      </trkpt>
      <trkpt lat="45.31196" lon="4.59412">
        <ele>704</ele>
        <time>2019-02-20T08:52:22.000Z</time>
      </trkpt>
      <trkpt lat="45.31197" lon="4.5941">
        <ele>704.20001220703</ele>
        <time>2019-02-20T08:52:23.000Z</time>
      </trkpt>
      <trkpt lat="45.31197" lon="4.59408">
        <ele>704.20001220703</ele>
        <time>2019-02-20T08:52:24.000Z</time>
      </trkpt>
      <trkpt lat="45.31198" lon="4.59406">
        <ele>704.40002441406</ele>
        <time>2019-02-20T08:52:25.000Z</time>
      </trkpt>
      <trkpt lat="45.31198" lon="4.59404">
        <ele>704.40002441406</ele>
        <time>2019-02-20T08:52:26.000Z</time>
      </trkpt>
      <trkpt lat="45.31199" lon="4.59403">
        <ele>704.59997558594</ele>
        <time>2019-02-20T08:52:27.000Z</time>
      </trkpt>
      <trkpt lat="45.31199" lon="4.59401">
        <ele>704.79998779297</ele>
        <time>2019-02-20T08:52:28.000Z</time>
      </trkpt>
      <trkpt lat="45.312" lon="4.59399">
        <ele>705</ele>
        <time>2019-02-20T08:52:29.000Z</time>
      </trkpt>
      <trkpt lat="45.312" lon="4.59398">
        <ele>705.20001220703</ele>
        <time>2019-02-20T08:52:30.000Z</time>
      </trkpt>
      <trkpt lat="45.31201" lon="4.59396">
        <ele>705.59997558594</ele>
        <time>2019-02-20T08:52:31.000Z</time>
      </trkpt>
      <trkpt lat="45.31201" lon="4.59395">
        <ele>705.79998779297</ele>
        <time>2019-02-20T08:52:32.000Z</time>
      </trkpt>
      <trkpt lat="45.31202" lon="4.59393">
        <ele>705.59997558594</ele>
        <time>2019-02-20T08:52:33.000Z</time>
      </trkpt>
      <trkpt lat="45.31203" lon="4.59391">
        <ele>705.79998779297</ele>
        <time>2019-02-20T08:52:34.000Z</time>
      </trkpt>
      <trkpt lat="45.31203" lon="4.59389">
        <ele>706</ele>
        <time>2019-02-20T08:52:35.000Z</time>
      </trkpt>
      <trkpt lat="45.31204" lon="4.59387">
        <ele>706.40002441406</ele>
        <time>2019-02-20T08:52:36.000Z</time>
      </trkpt>
      <trkpt lat="45.31205" lon="4.59386">
        <ele>706.40002441406</ele>
        <time>2019-02-20T08:52:37.000Z</time>
      </trkpt>
      <trkpt lat="45.31205" lon="4.59384">
        <ele>706.59997558594</ele>
        <time>2019-02-20T08:52:38.000Z</time>
      </trkpt>
      <trkpt lat="45.31206" lon="4.59382">
        <ele>706.79998779297</ele>
        <time>2019-02-20T08:52:39.000Z</time>
      </trkpt>
      <trkpt lat="45.31206" lon="4.5938">
        <ele>707</ele>
        <time>2019-02-20T08:52:40.000Z</time>
      </trkpt>
      <trkpt lat="45.31207" lon="4.59379">
        <ele>707</ele>
        <time>2019-02-20T08:52:41.000Z</time>
      </trkpt>
      <trkpt lat="45.31207" lon="4.59377">
        <ele>707.20001220703</ele>
        <time>2019-02-20T08:52:42.000Z</time>
      </trkpt>
      <trkpt lat="45.31208" lon="4.59375">
        <ele>707.20001220703</ele>
        <time>2019-02-20T08:52:43.000Z</time>
      </trkpt>
      <trkpt lat="45.31209" lon="4.59373">
        <ele>707.40002441406</ele>
        <time>2019-02-20T08:52:44.000Z</time>
      </trkpt>
      <trkpt lat="45.31209" lon="4.59371">
        <ele>707.59997558594</ele>
        <time>2019-02-20T08:52:45.000Z</time>
      </trkpt>
      <trkpt lat="45.3121" lon="4.59369">
        <ele>707.79998779297</ele>
        <time>2019-02-20T08:52:46.000Z</time>
      </trkpt>
      <trkpt lat="45.31211" lon="4.59368">
        <ele>707.79998779297</ele>
        <time>2019-02-20T08:52:47.000Z</time>
      </trkpt>
      <trkpt lat="45.31211" lon="4.59366">
        <ele>708</ele>
        <time>2019-02-20T08:52:48.000Z</time>
      </trkpt>
      <trkpt lat="45.31212" lon="4.59364">
        <ele>708.20001220703</ele>
        <time>2019-02-20T08:52:49.000Z</time>
      </trkpt>
      <trkpt lat="45.31213" lon="4.59362">
        <ele>708.40002441406</ele>
        <time>2019-02-20T08:52:50.000Z</time>
      </trkpt>
      <trkpt lat="45.31213" lon="4.5936">
        <ele>708.59997558594</ele>
        <time>2019-02-20T08:52:51.000Z</time>
      </trkpt>
      <trkpt lat="45.31214" lon="4.59358">
        <ele>708.59997558594</ele>
        <time>2019-02-20T08:52:52.000Z</time>
      </trkpt>
      <trkpt lat="45.31214" lon="4.59357">
        <ele>708.59997558594</ele>
        <time>2019-02-20T08:52:53.000Z</time>
      </trkpt>
      <trkpt lat="45.31215" lon="4.59355">
        <ele>708.79998779297</ele>
        <time>2019-02-20T08:52:54.000Z</time>
      </trkpt>
      <trkpt lat="45.31215" lon="4.59353">
        <ele>708.79998779297</ele>
        <time>2019-02-20T08:52:55.000Z</time>
      </trkpt>
      <trkpt lat="45.31216" lon="4.59352">
        <ele>708.79998779297</ele>
        <time>2019-02-20T08:52:56.000Z</time>
      </trkpt>
      <trkpt lat="45.31216" lon="4.5935">
        <ele>709</ele>
        <time>2019-02-20T08:52:57.000Z</time>
      </trkpt>
      <trkpt lat="45.31217" lon="4.59348">
        <ele>709</ele>
        <time>2019-02-20T08:52:58.000Z</time>
      </trkpt>
      <trkpt lat="45.31218" lon="4.59346">
        <ele>709</ele>
        <time>2019-02-20T08:52:59.000Z</time>
      </trkpt>
      <trkpt lat="45.31218" lon="4.59344">
        <ele>709</ele>
        <time>2019-02-20T08:53:00.000Z</time>
      </trkpt>
      <trkpt lat="45.31219" lon="4.59343">
        <ele>709.20001220703</ele>
        <time>2019-02-20T08:53:01.000Z</time>
      </trkpt>
      <trkpt lat="45.31219" lon="4.5934">
        <ele>709.40002441406</ele>
        <time>2019-02-20T08:53:02.000Z</time>
      </trkpt>
      <trkpt lat="45.3122" lon="4.59338">
        <ele>709.40002441406</ele>
        <time>2019-02-20T08:53:03.000Z</time>
      </trkpt>
      <trkpt lat="45.3122" lon="4.59336">
        <ele>709.79998779297</ele>
        <time>2019-02-20T08:53:04.000Z</time>
      </trkpt>
      <trkpt lat="45.31221" lon="4.59334">
        <ele>709.79998779297</ele>
        <time>2019-02-20T08:53:05.000Z</time>
      </trkpt>
      <trkpt lat="45.31221" lon="4.59332">
        <ele>710</ele>
        <time>2019-02-20T08:53:06.000Z</time>
      </trkpt>
      <trkpt lat="45.31222" lon="4.5933">
        <ele>710</ele>
        <time>2019-02-20T08:53:07.000Z</time>
      </trkpt>
      <trkpt lat="45.31222" lon="4.59328">
        <ele>710</ele>
        <time>2019-02-20T08:53:08.000Z</time>
      </trkpt>
      <trkpt lat="45.31223" lon="4.59325">
        <ele>710</ele>
        <time>2019-02-20T08:53:09.000Z</time>
      </trkpt>
      <trkpt lat="45.31223" lon="4.59323">
        <ele>710</ele>
        <time>2019-02-20T08:53:10.000Z</time>
      </trkpt>
      <trkpt lat="45.31224" lon="4.59321">
        <ele>710.20001220703</ele>
        <time>2019-02-20T08:53:11.000Z</time>
      </trkpt>
      <trkpt lat="45.31224" lon="4.59319">
        <ele>710.20001220703</ele>
        <time>2019-02-20T08:53:12.000Z</time>
      </trkpt>
      <trkpt lat="45.31225" lon="4.59317">
        <ele>710.20001220703</ele>
        <time>2019-02-20T08:53:13.000Z</time>
      </trkpt>
      <trkpt lat="45.31226" lon="4.59315">
        <ele>710.40002441406</ele>
        <time>2019-02-20T08:53:14.000Z</time>
      </trkpt>
      <trkpt lat="45.31226" lon="4.59312">
        <ele>710.59997558594</ele>
        <time>2019-02-20T08:53:15.000Z</time>
      </trkpt>
      <trkpt lat="45.31227" lon="4.5931">
        <ele>710.59997558594</ele>
        <time>2019-02-20T08:53:16.000Z</time>
      </trkpt>
      <trkpt lat="45.31227" lon="4.59308">
        <ele>710.59997558594</ele>
        <time>2019-02-20T08:53:17.000Z</time>
      </trkpt>
      <trkpt lat="45.31227" lon="4.59306">
        <ele>710.59997558594</ele>
        <time>2019-02-20T08:53:18.000Z</time>
      </trkpt>
      <trkpt lat="45.31228" lon="4.59304">
        <ele>710.79998779297</ele>
        <time>2019-02-20T08:53:19.000Z</time>
      </trkpt>
      <trkpt lat="45.31228" lon="4.59301">
        <ele>710.79998779297</ele>
        <time>2019-02-20T08:53:20.000Z</time>
      </trkpt>
      <trkpt lat="45.31229" lon="4.59299">
        <ele>711.20001220703</ele>
        <time>2019-02-20T08:53:21.000Z</time>
      </trkpt>
      <trkpt lat="45.31229" lon="4.59297">
        <ele>711.20001220703</ele>
        <time>2019-02-20T08:53:22.000Z</time>
      </trkpt>
      <trkpt lat="45.3123" lon="4.59295">
        <ele>711.20001220703</ele>
        <time>2019-02-20T08:53:23.000Z</time>
      </trkpt>
      <trkpt lat="45.3123" lon="4.59293">
        <ele>711.20001220703</ele>
        <time>2019-02-20T08:53:24.000Z</time>
      </trkpt>
      <trkpt lat="45.3123" lon="4.59291">
        <ele>711.40002441406</ele>
        <time>2019-02-20T08:53:25.000Z</time>
      </trkpt>
      <trkpt lat="45.31231" lon="4.59289">
        <ele>711.40002441406</ele>
        <time>2019-02-20T08:53:26.000Z</time>
      </trkpt>
      <trkpt lat="45.31231" lon="4.59287">
        <ele>711.40002441406</ele>
        <time>2019-02-20T08:53:27.000Z</time>
      </trkpt>
      <trkpt lat="45.31232" lon="4.59284">
        <ele>711.40002441406</ele>
        <time>2019-02-20T08:53:28.000Z</time>
      </trkpt>
      <trkpt lat="45.31232" lon="4.59282">
        <ele>711.59997558594</ele>
        <time>2019-02-20T08:53:29.000Z</time>
      </trkpt>
      <trkpt lat="45.31232" lon="4.5928">
        <ele>711.40002441406</ele>
        <time>2019-02-20T08:53:30.000Z</time>
      </trkpt>
      <trkpt lat="45.31233" lon="4.59278">
        <ele>711.40002441406</ele>
        <time>2019-02-20T08:53:31.000Z</time>
      </trkpt>
      <trkpt lat="45.31233" lon="4.59276">
        <ele>711.59997558594</ele>
        <time>2019-02-20T08:53:32.000Z</time>
      </trkpt>
      <trkpt lat="45.31234" lon="4.59273">
        <ele>711.79998779297</ele>
        <time>2019-02-20T08:53:33.000Z</time>
      </trkpt>
      <trkpt lat="45.31234" lon="4.59271">
        <ele>711.59997558594</ele>
        <time>2019-02-20T08:53:34.000Z</time>
      </trkpt>
      <trkpt lat="45.31235" lon="4.59269">
        <ele>712</ele>
        <time>2019-02-20T08:53:35.000Z</time>
      </trkpt>
      <trkpt lat="45.31235" lon="4.59267">
        <ele>712</ele>
        <time>2019-02-20T08:53:36.000Z</time>
      </trkpt>
      <trkpt lat="45.31235" lon="4.59265">
        <ele>712</ele>
        <time>2019-02-20T08:53:37.000Z</time>
      </trkpt>
      <trkpt lat="45.31236" lon="4.59262">
        <ele>712.20001220703</ele>
        <time>2019-02-20T08:53:38.000Z</time>
      </trkpt>
      <trkpt lat="45.31236" lon="4.5926">
        <ele>712.20001220703</ele>
        <time>2019-02-20T08:53:39.000Z</time>
      </trkpt>
      <trkpt lat="45.31237" lon="4.59257">
        <ele>712.40002441406</ele>
        <time>2019-02-20T08:53:40.000Z</time>
      </trkpt>
      <trkpt lat="45.31237" lon="4.59255">
        <ele>712.20001220703</ele>
        <time>2019-02-20T08:53:41.000Z</time>
      </trkpt>
      <trkpt lat="45.31238" lon="4.59252">
        <ele>712.40002441406</ele>
        <time>2019-02-20T08:53:42.000Z</time>
      </trkpt>
      <trkpt lat="45.31239" lon="4.5925">
        <ele>712.59997558594</ele>
        <time>2019-02-20T08:53:43.000Z</time>
      </trkpt>
      <trkpt lat="45.31239" lon="4.59247">
        <ele>712.59997558594</ele>
        <time>2019-02-20T08:53:44.000Z</time>
      </trkpt>
      <trkpt lat="45.3124" lon="4.59245">
        <ele>712.59997558594</ele>
        <time>2019-02-20T08:53:45.000Z</time>
      </trkpt>
      <trkpt lat="45.3124" lon="4.59243">
        <ele>712.79998779297</ele>
        <time>2019-02-20T08:53:46.000Z</time>
      </trkpt>
      <trkpt lat="45.3124" lon="4.5924">
        <ele>712.79998779297</ele>
        <time>2019-02-20T08:53:47.000Z</time>
      </trkpt>
      <trkpt lat="45.31241" lon="4.59238">
        <ele>712.79998779297</ele>
        <time>2019-02-20T08:53:48.000Z</time>
      </trkpt>
      <trkpt lat="45.31242" lon="4.59236">
        <ele>712.79998779297</ele>
        <time>2019-02-20T08:53:49.000Z</time>
      </trkpt>
      <trkpt lat="45.31242" lon="4.59233">
        <ele>713</ele>
        <time>2019-02-20T08:53:50.000Z</time>
      </trkpt>
      <trkpt lat="45.31243" lon="4.59231">
        <ele>713</ele>
        <time>2019-02-20T08:53:51.000Z</time>
      </trkpt>
      <trkpt lat="45.31243" lon="4.59228">
        <ele>713</ele>
        <time>2019-02-20T08:53:52.000Z</time>
      </trkpt>
      <trkpt lat="45.31244" lon="4.59226">
        <ele>713.20001220703</ele>
        <time>2019-02-20T08:53:53.000Z</time>
      </trkpt>
      <trkpt lat="45.31245" lon="4.59223">
        <ele>713.40002441406</ele>
        <time>2019-02-20T08:53:54.000Z</time>
      </trkpt>
      <trkpt lat="45.31245" lon="4.59221">
        <ele>713.40002441406</ele>
        <time>2019-02-20T08:53:55.000Z</time>
      </trkpt>
      <trkpt lat="45.31246" lon="4.59219">
        <ele>713.40002441406</ele>
        <time>2019-02-20T08:53:56.000Z</time>
      </trkpt>
      <trkpt lat="45.31246" lon="4.59216">
        <ele>713.20001220703</ele>
        <time>2019-02-20T08:53:57.000Z</time>
      </trkpt>
      <trkpt lat="45.31247" lon="4.59214">
        <ele>713.40002441406</ele>
        <time>2019-02-20T08:53:58.000Z</time>
      </trkpt>
      <trkpt lat="45.31248" lon="4.59211">
        <ele>713.59997558594</ele>
        <time>2019-02-20T08:53:59.000Z</time>
      </trkpt>
      <trkpt lat="45.31248" lon="4.59209">
        <ele>713.59997558594</ele>
        <time>2019-02-20T08:54:00.000Z</time>
      </trkpt>
      <trkpt lat="45.31249" lon="4.59207">
        <ele>713.59997558594</ele>
        <time>2019-02-20T08:54:01.000Z</time>
      </trkpt>
      <trkpt lat="45.31249" lon="4.59205">
        <ele>713.79998779297</ele>
        <time>2019-02-20T08:54:02.000Z</time>
      </trkpt>
      <trkpt lat="45.3125" lon="4.59202">
        <ele>713.79998779297</ele>
        <time>2019-02-20T08:54:03.000Z</time>
      </trkpt>
      <trkpt lat="45.3125" lon="4.592">
        <ele>713.79998779297</ele>
        <time>2019-02-20T08:54:04.000Z</time>
      </trkpt>
      <trkpt lat="45.3125" lon="4.59198">
        <ele>713.79998779297</ele>
        <time>2019-02-20T08:54:05.000Z</time>
      </trkpt>
      <trkpt lat="45.31251" lon="4.59196">
        <ele>714</ele>
        <time>2019-02-20T08:54:06.000Z</time>
      </trkpt>
      <trkpt lat="45.31251" lon="4.59193">
        <ele>714</ele>
        <time>2019-02-20T08:54:07.000Z</time>
      </trkpt>
      <trkpt lat="45.31252" lon="4.59191">
        <ele>714</ele>
        <time>2019-02-20T08:54:08.000Z</time>
      </trkpt>
      <trkpt lat="45.31252" lon="4.59189">
        <ele>714.20001220703</ele>
        <time>2019-02-20T08:54:09.000Z</time>
      </trkpt>
      <trkpt lat="45.31252" lon="4.59187">
        <ele>714.40002441406</ele>
        <time>2019-02-20T08:54:10.000Z</time>
      </trkpt>
      <trkpt lat="45.31253" lon="4.59185">
        <ele>714.40002441406</ele>
        <time>2019-02-20T08:54:11.000Z</time>
      </trkpt>
      <trkpt lat="45.31253" lon="4.59183">
        <ele>714.40002441406</ele>
        <time>2019-02-20T08:54:12.000Z</time>
      </trkpt>
      <trkpt lat="45.31254" lon="4.59181">
        <ele>714.59997558594</ele>
        <time>2019-02-20T08:54:13.000Z</time>
      </trkpt>
      <trkpt lat="45.31254" lon="4.59179">
        <ele>714.59997558594</ele>
        <time>2019-02-20T08:54:14.000Z</time>
      </trkpt>
      <trkpt lat="45.31255" lon="4.59177">
        <ele>714.59997558594</ele>
        <time>2019-02-20T08:54:15.000Z</time>
      </trkpt>
      <trkpt lat="45.31256" lon="4.59176">
        <ele>714.79998779297</ele>
        <time>2019-02-20T08:54:16.000Z</time>
      </trkpt>
      <trkpt lat="45.31257" lon="4.59174">
        <ele>714.79998779297</ele>
        <time>2019-02-20T08:54:17.000Z</time>
      </trkpt>
      <trkpt lat="45.31257" lon="4.59172">
        <ele>715</ele>
        <time>2019-02-20T08:54:18.000Z</time>
      </trkpt>
      <trkpt lat="45.31258" lon="4.5917">
        <ele>715.40002441406</ele>
        <time>2019-02-20T08:54:19.000Z</time>
      </trkpt>
      <trkpt lat="45.31259" lon="4.59168">
        <ele>715.40002441406</ele>
        <time>2019-02-20T08:54:20.000Z</time>
      </trkpt>
      <trkpt lat="45.31259" lon="4.59166">
        <ele>715.40002441406</ele>
        <time>2019-02-20T08:54:21.000Z</time>
      </trkpt>
      <trkpt lat="45.3126" lon="4.59164">
        <ele>715.59997558594</ele>
        <time>2019-02-20T08:54:22.000Z</time>
      </trkpt>
      <trkpt lat="45.3126" lon="4.59162">
        <ele>715.79998779297</ele>
        <time>2019-02-20T08:54:23.000Z</time>
      </trkpt>
      <trkpt lat="45.31261" lon="4.5916">
        <ele>716</ele>
        <time>2019-02-20T08:54:24.000Z</time>
      </trkpt>
      <trkpt lat="45.31262" lon="4.59159">
        <ele>716</ele>
        <time>2019-02-20T08:54:25.000Z</time>
      </trkpt>
      <trkpt lat="45.31263" lon="4.59157">
        <ele>716</ele>
        <time>2019-02-20T08:54:26.000Z</time>
      </trkpt>
      <trkpt lat="45.31264" lon="4.59156">
        <ele>716.20001220703</ele>
        <time>2019-02-20T08:54:27.000Z</time>
      </trkpt>
      <trkpt lat="45.31265" lon="4.59154">
        <ele>716.40002441406</ele>
        <time>2019-02-20T08:54:28.000Z</time>
      </trkpt>
      <trkpt lat="45.31265" lon="4.59153">
        <ele>716.59997558594</ele>
        <time>2019-02-20T08:54:29.000Z</time>
      </trkpt>
      <trkpt lat="45.31266" lon="4.59151">
        <ele>716.79998779297</ele>
        <time>2019-02-20T08:54:30.000Z</time>
      </trkpt>
      <trkpt lat="45.31267" lon="4.5915">
        <ele>716.79998779297</ele>
        <time>2019-02-20T08:54:31.000Z</time>
      </trkpt>
      <trkpt lat="45.31267" lon="4.59149">
        <ele>717</ele>
        <time>2019-02-20T08:54:32.000Z</time>
      </trkpt>
      <trkpt lat="45.31267" lon="4.59147">
        <ele>717</ele>
        <time>2019-02-20T08:54:33.000Z</time>
      </trkpt>
      <trkpt lat="45.31268" lon="4.59145">
        <ele>717</ele>
        <time>2019-02-20T08:54:34.000Z</time>
      </trkpt>
      <trkpt lat="45.31268" lon="4.59143">
        <ele>717.40002441406</ele>
        <time>2019-02-20T08:54:35.000Z</time>
      </trkpt>
      <trkpt lat="45.31269" lon="4.59141">
        <ele>717.40002441406</ele>
        <time>2019-02-20T08:54:36.000Z</time>
      </trkpt>
      <trkpt lat="45.31269" lon="4.5914">
        <ele>717.40002441406</ele>
        <time>2019-02-20T08:54:37.000Z</time>
      </trkpt>
      <trkpt lat="45.31269" lon="4.59139">
        <ele>717.40002441406</ele>
        <time>2019-02-20T08:54:38.000Z</time>
      </trkpt>
      <trkpt lat="45.3127" lon="4.59137">
        <ele>717.59997558594</ele>
        <time>2019-02-20T08:54:39.000Z</time>
      </trkpt>
      <trkpt lat="45.3127" lon="4.59136">
        <ele>717.59997558594</ele>
        <time>2019-02-20T08:54:40.000Z</time>
      </trkpt>
      <trkpt lat="45.31271" lon="4.59134">
        <ele>717.79998779297</ele>
        <time>2019-02-20T08:54:41.000Z</time>
      </trkpt>
      <trkpt lat="45.31271" lon="4.59133">
        <ele>718</ele>
        <time>2019-02-20T08:54:42.000Z</time>
      </trkpt>
      <trkpt lat="45.31272" lon="4.59131">
        <ele>718</ele>
        <time>2019-02-20T08:54:43.000Z</time>
      </trkpt>
      <trkpt lat="45.31272" lon="4.5913">
        <ele>718.20001220703</ele>
        <time>2019-02-20T08:54:44.000Z</time>
      </trkpt>
      <trkpt lat="45.31273" lon="4.59129">
        <ele>718.79998779297</ele>
        <time>2019-02-20T08:54:45.000Z</time>
      </trkpt>
      <trkpt lat="45.31273" lon="4.59128">
        <ele>719</ele>
        <time>2019-02-20T08:54:46.000Z</time>
      </trkpt>
      <trkpt lat="45.31274" lon="4.59127">
        <ele>719.20001220703</ele>
        <time>2019-02-20T08:54:47.000Z</time>
      </trkpt>
      <trkpt lat="45.31275" lon="4.59126">
        <ele>719.40002441406</ele>
        <time>2019-02-20T08:54:48.000Z</time>
      </trkpt>
      <trkpt lat="45.31275" lon="4.59124">
        <ele>719.59997558594</ele>
        <time>2019-02-20T08:54:49.000Z</time>
      </trkpt>
      <trkpt lat="45.31276" lon="4.59123">
        <ele>719.79998779297</ele>
        <time>2019-02-20T08:54:50.000Z</time>
      </trkpt>
      <trkpt lat="45.31276" lon="4.5912">
        <ele>720.20001220703</ele>
        <time>2019-02-20T08:54:51.000Z</time>
      </trkpt>
      <trkpt lat="45.31277" lon="4.59119">
        <ele>720.40002441406</ele>
        <time>2019-02-20T08:54:52.000Z</time>
      </trkpt>
      <trkpt lat="45.31277" lon="4.59117">
        <ele>720.59997558594</ele>
        <time>2019-02-20T08:54:53.000Z</time>
      </trkpt>
      <trkpt lat="45.31277" lon="4.59116">
        <ele>720.79998779297</ele>
        <time>2019-02-20T08:54:54.000Z</time>
      </trkpt>
      <trkpt lat="45.31278" lon="4.59115">
        <ele>720.79998779297</ele>
        <time>2019-02-20T08:54:55.000Z</time>
      </trkpt>
      <trkpt lat="45.31278" lon="4.59114">
        <ele>720.79998779297</ele>
        <time>2019-02-20T08:54:56.000Z</time>
      </trkpt>
      <trkpt lat="45.31278" lon="4.59113">
        <ele>721</ele>
        <time>2019-02-20T08:54:57.000Z</time>
      </trkpt>
      <trkpt lat="45.31278" lon="4.59111">
        <ele>721.20001220703</ele>
        <time>2019-02-20T08:54:58.000Z</time>
      </trkpt>
      <trkpt lat="45.31279" lon="4.5911">
        <ele>721.20001220703</ele>
        <time>2019-02-20T08:54:59.000Z</time>
      </trkpt>
      <trkpt lat="45.31279" lon="4.59108">
        <ele>721.20001220703</ele>
        <time>2019-02-20T08:55:00.000Z</time>
      </trkpt>
      <trkpt lat="45.3128" lon="4.59107">
        <ele>721.40002441406</ele>
        <time>2019-02-20T08:55:01.000Z</time>
      </trkpt>
      <trkpt lat="45.3128" lon="4.59106">
        <ele>721.59997558594</ele>
        <time>2019-02-20T08:55:02.000Z</time>
      </trkpt>
      <trkpt lat="45.31281" lon="4.59104">
        <ele>721.59997558594</ele>
        <time>2019-02-20T08:55:03.000Z</time>
      </trkpt>
      <trkpt lat="45.31281" lon="4.59102">
        <ele>721.79998779297</ele>
        <time>2019-02-20T08:55:04.000Z</time>
      </trkpt>
      <trkpt lat="45.31282" lon="4.591">
        <ele>722</ele>
        <time>2019-02-20T08:55:05.000Z</time>
      </trkpt>
      <trkpt lat="45.31282" lon="4.59099">
        <ele>722.20001220703</ele>
        <time>2019-02-20T08:55:06.000Z</time>
      </trkpt>
      <trkpt lat="45.31283" lon="4.59098">
        <ele>722.40002441406</ele>
        <time>2019-02-20T08:55:07.000Z</time>
      </trkpt>
      <trkpt lat="45.31283" lon="4.59097">
        <ele>722.59997558594</ele>
        <time>2019-02-20T08:55:08.000Z</time>
      </trkpt>
      <trkpt lat="45.31283" lon="4.59096">
        <ele>722.79998779297</ele>
        <time>2019-02-20T08:55:09.000Z</time>
      </trkpt>
      <trkpt lat="45.31284" lon="4.59094">
        <ele>723</ele>
        <time>2019-02-20T08:55:10.000Z</time>
      </trkpt>
      <trkpt lat="45.31284" lon="4.59093">
        <ele>723.20001220703</ele>
        <time>2019-02-20T08:55:11.000Z</time>
      </trkpt>
      <trkpt lat="45.31285" lon="4.59091">
        <ele>723.40002441406</ele>
        <time>2019-02-20T08:55:12.000Z</time>
      </trkpt>
      <trkpt lat="45.31285" lon="4.59089">
        <ele>723.40002441406</ele>
        <time>2019-02-20T08:55:13.000Z</time>
      </trkpt>
      <trkpt lat="45.31286" lon="4.59088">
        <ele>723.59997558594</ele>
        <time>2019-02-20T08:55:14.000Z</time>
      </trkpt>
      <trkpt lat="45.31286" lon="4.59086">
        <ele>723.79998779297</ele>
        <time>2019-02-20T08:55:15.000Z</time>
      </trkpt>
      <trkpt lat="45.31287" lon="4.59085">
        <ele>723.79998779297</ele>
        <time>2019-02-20T08:55:16.000Z</time>
      </trkpt>
      <trkpt lat="45.31287" lon="4.59084">
        <ele>724</ele>
        <time>2019-02-20T08:55:17.000Z</time>
      </trkpt>
      <trkpt lat="45.31288" lon="4.59082">
        <ele>724</ele>
        <time>2019-02-20T08:55:18.000Z</time>
      </trkpt>
      <trkpt lat="45.31288" lon="4.59081">
        <ele>724.20001220703</ele>
        <time>2019-02-20T08:55:19.000Z</time>
      </trkpt>
      <trkpt lat="45.31289" lon="4.5908">
        <ele>724.40002441406</ele>
        <time>2019-02-20T08:55:20.000Z</time>
      </trkpt>
      <trkpt lat="45.31289" lon="4.59078">
        <ele>724.59997558594</ele>
        <time>2019-02-20T08:55:21.000Z</time>
      </trkpt>
      <trkpt lat="45.31289" lon="4.59076">
        <ele>724.79998779297</ele>
        <time>2019-02-20T08:55:22.000Z</time>
      </trkpt>
      <trkpt lat="45.3129" lon="4.59075">
        <ele>725</ele>
        <time>2019-02-20T08:55:23.000Z</time>
      </trkpt>
      <trkpt lat="45.3129" lon="4.59073">
        <ele>725.20001220703</ele>
        <time>2019-02-20T08:55:24.000Z</time>
      </trkpt>
      <trkpt lat="45.31291" lon="4.59071">
        <ele>725.20001220703</ele>
        <time>2019-02-20T08:55:25.000Z</time>
      </trkpt>
      <trkpt lat="45.31291" lon="4.59069">
        <ele>725.40002441406</ele>
        <time>2019-02-20T08:55:26.000Z</time>
      </trkpt>
      <trkpt lat="45.31291" lon="4.59068">
        <ele>725.59997558594</ele>
        <time>2019-02-20T08:55:27.000Z</time>
      </trkpt>
      <trkpt lat="45.31292" lon="4.59066">
        <ele>725.79998779297</ele>
        <time>2019-02-20T08:55:28.000Z</time>
      </trkpt>
      <trkpt lat="45.31292" lon="4.59065">
        <ele>726</ele>
        <time>2019-02-20T08:55:29.000Z</time>
      </trkpt>
      <trkpt lat="45.31293" lon="4.59063">
        <ele>726.20001220703</ele>
        <time>2019-02-20T08:55:30.000Z</time>
      </trkpt>
      <trkpt lat="45.31293" lon="4.59062">
        <ele>726.20001220703</ele>
        <time>2019-02-20T08:55:31.000Z</time>
      </trkpt>
      <trkpt lat="45.31294" lon="4.5906">
        <ele>726.40002441406</ele>
        <time>2019-02-20T08:55:32.000Z</time>
      </trkpt>
      <trkpt lat="45.31295" lon="4.59059">
        <ele>726.59997558594</ele>
        <time>2019-02-20T08:55:33.000Z</time>
      </trkpt>
      <trkpt lat="45.31295" lon="4.59058">
        <ele>727</ele>
        <time>2019-02-20T08:55:34.000Z</time>
      </trkpt>
      <trkpt lat="45.31295" lon="4.59057">
        <ele>727</ele>
        <time>2019-02-20T08:55:35.000Z</time>
      </trkpt>
      <trkpt lat="45.31296" lon="4.59055">
        <ele>727.40002441406</ele>
        <time>2019-02-20T08:55:36.000Z</time>
      </trkpt>
      <trkpt lat="45.31296" lon="4.59054">
        <ele>727.59997558594</ele>
        <time>2019-02-20T08:55:37.000Z</time>
      </trkpt>
      <trkpt lat="45.31296" lon="4.59053">
        <ele>727.79998779297</ele>
        <time>2019-02-20T08:55:38.000Z</time>
      </trkpt>
      <trkpt lat="45.31297" lon="4.59052">
        <ele>728.20001220703</ele>
        <time>2019-02-20T08:55:39.000Z</time>
      </trkpt>
      <trkpt lat="45.31297" lon="4.59051">
        <ele>728.20001220703</ele>
        <time>2019-02-20T08:55:40.000Z</time>
      </trkpt>
      <trkpt lat="45.31298" lon="4.59049">
        <ele>728.40002441406</ele>
        <time>2019-02-20T08:55:41.000Z</time>
      </trkpt>
      <trkpt lat="45.31298" lon="4.59047">
        <ele>728.79998779297</ele>
        <time>2019-02-20T08:55:42.000Z</time>
      </trkpt>
      <trkpt lat="45.31298" lon="4.59046">
        <ele>729</ele>
        <time>2019-02-20T08:55:43.000Z</time>
      </trkpt>
      <trkpt lat="45.31299" lon="4.59044">
        <ele>729.20001220703</ele>
        <time>2019-02-20T08:55:44.000Z</time>
      </trkpt>
      <trkpt lat="45.313" lon="4.59043">
        <ele>729.40002441406</ele>
        <time>2019-02-20T08:55:45.000Z</time>
      </trkpt>
      <trkpt lat="45.313" lon="4.59041">
        <ele>729.59997558594</ele>
        <time>2019-02-20T08:55:46.000Z</time>
      </trkpt>
      <trkpt lat="45.31301" lon="4.5904">
        <ele>729.79998779297</ele>
        <time>2019-02-20T08:55:47.000Z</time>
      </trkpt>
      <trkpt lat="45.31302" lon="4.59038">
        <ele>729.79998779297</ele>
        <time>2019-02-20T08:55:48.000Z</time>
      </trkpt>
      <trkpt lat="45.31302" lon="4.59037">
        <ele>730</ele>
        <time>2019-02-20T08:55:49.000Z</time>
      </trkpt>
      <trkpt lat="45.31303" lon="4.59036">
        <ele>730.40002441406</ele>
        <time>2019-02-20T08:55:50.000Z</time>
      </trkpt>
      <trkpt lat="45.31304" lon="4.59035">
        <ele>730.40002441406</ele>
        <time>2019-02-20T08:55:51.000Z</time>
      </trkpt>
      <trkpt lat="45.31305" lon="4.59033">
        <ele>730.59997558594</ele>
        <time>2019-02-20T08:55:52.000Z</time>
      </trkpt>
      <trkpt lat="45.31306" lon="4.59032">
        <ele>730.59997558594</ele>
        <time>2019-02-20T08:55:53.000Z</time>
      </trkpt>
      <trkpt lat="45.31306" lon="4.59031">
        <ele>730.59997558594</ele>
        <time>2019-02-20T08:55:54.000Z</time>
      </trkpt>
      <trkpt lat="45.31307" lon="4.5903">
        <ele>731</ele>
        <time>2019-02-20T08:55:55.000Z</time>
      </trkpt>
      <trkpt lat="45.31308" lon="4.59029">
        <ele>731</ele>
        <time>2019-02-20T08:55:56.000Z</time>
      </trkpt>
      <trkpt lat="45.31309" lon="4.59028">
        <ele>731.20001220703</ele>
        <time>2019-02-20T08:55:57.000Z</time>
      </trkpt>
      <trkpt lat="45.3131" lon="4.59027">
        <ele>731.40002441406</ele>
        <time>2019-02-20T08:55:58.000Z</time>
      </trkpt>
      <trkpt lat="45.31311" lon="4.59026">
        <ele>731.59997558594</ele>
        <time>2019-02-20T08:55:59.000Z</time>
      </trkpt>
      <trkpt lat="45.31312" lon="4.59025">
        <ele>731.79998779297</ele>
        <time>2019-02-20T08:56:00.000Z</time>
      </trkpt>
      <trkpt lat="45.31313" lon="4.59024">
        <ele>732.20001220703</ele>
        <time>2019-02-20T08:56:01.000Z</time>
      </trkpt>
      <trkpt lat="45.31314" lon="4.59023">
        <ele>732.20001220703</ele>
        <time>2019-02-20T08:56:02.000Z</time>
      </trkpt>
      <trkpt lat="45.31314" lon="4.59022">
        <ele>732.59997558594</ele>
        <time>2019-02-20T08:56:03.000Z</time>
      </trkpt>
      <trkpt lat="45.31315" lon="4.59021">
        <ele>732.59997558594</ele>
        <time>2019-02-20T08:56:04.000Z</time>
      </trkpt>
      <trkpt lat="45.31316" lon="4.5902">
        <ele>732.59997558594</ele>
        <time>2019-02-20T08:56:05.000Z</time>
      </trkpt>
      <trkpt lat="45.31317" lon="4.5902">
        <ele>733</ele>
        <time>2019-02-20T08:56:06.000Z</time>
      </trkpt>
      <trkpt lat="45.31318" lon="4.59019">
        <ele>733.20001220703</ele>
        <time>2019-02-20T08:56:07.000Z</time>
      </trkpt>
      <trkpt lat="45.31319" lon="4.59019">
        <ele>733.20001220703</ele>
        <time>2019-02-20T08:56:08.000Z</time>
      </trkpt>
      <trkpt lat="45.3132" lon="4.59018">
        <ele>733.40002441406</ele>
        <time>2019-02-20T08:56:09.000Z</time>
      </trkpt>
      <trkpt lat="45.31321" lon="4.59017">
        <ele>733.40002441406</ele>
        <time>2019-02-20T08:56:10.000Z</time>
      </trkpt>
      <trkpt lat="45.31321" lon="4.59016">
        <ele>733.59997558594</ele>
        <time>2019-02-20T08:56:11.000Z</time>
      </trkpt>
      <trkpt lat="45.31322" lon="4.59015">
        <ele>734</ele>
        <time>2019-02-20T08:56:12.000Z</time>
      </trkpt>
      <trkpt lat="45.31323" lon="4.59015">
        <ele>734.20001220703</ele>
        <time>2019-02-20T08:56:13.000Z</time>
      </trkpt>
      <trkpt lat="45.31324" lon="4.59014">
        <ele>734.20001220703</ele>
        <time>2019-02-20T08:56:14.000Z</time>
      </trkpt>
      <trkpt lat="45.31324" lon="4.59013">
        <ele>734.20001220703</ele>
        <time>2019-02-20T08:56:15.000Z</time>
      </trkpt>
      <trkpt lat="45.31325" lon="4.59012">
        <ele>734.20001220703</ele>
        <time>2019-02-20T08:56:16.000Z</time>
      </trkpt>
      <trkpt lat="45.31326" lon="4.59011">
        <ele>734.40002441406</ele>
        <time>2019-02-20T08:56:17.000Z</time>
      </trkpt>
      <trkpt lat="45.31327" lon="4.5901">
        <ele>734.59997558594</ele>
        <time>2019-02-20T08:56:18.000Z</time>
      </trkpt>
      <trkpt lat="45.31329" lon="4.5901">
        <ele>734.59997558594</ele>
        <time>2019-02-20T08:56:19.000Z</time>
      </trkpt>
      <trkpt lat="45.31329" lon="4.59009">
        <ele>734.79998779297</ele>
        <time>2019-02-20T08:56:20.000Z</time>
      </trkpt>
      <trkpt lat="45.3133" lon="4.59008">
        <ele>734.79998779297</ele>
        <time>2019-02-20T08:56:21.000Z</time>
      </trkpt>
      <trkpt lat="45.31331" lon="4.59007">
        <ele>735.20001220703</ele>
        <time>2019-02-20T08:56:22.000Z</time>
      </trkpt>
      <trkpt lat="45.31332" lon="4.59006">
        <ele>735.40002441406</ele>
        <time>2019-02-20T08:56:23.000Z</time>
      </trkpt>
      <trkpt lat="45.31333" lon="4.59005">
        <ele>735.40002441406</ele>
        <time>2019-02-20T08:56:24.000Z</time>
      </trkpt>
      <trkpt lat="45.31334" lon="4.59004">
        <ele>735.40002441406</ele>
        <time>2019-02-20T08:56:25.000Z</time>
      </trkpt>
      <trkpt lat="45.31335" lon="4.59003">
        <ele>735.59997558594</ele>
        <time>2019-02-20T08:56:26.000Z</time>
      </trkpt>
      <trkpt lat="45.31336" lon="4.59002">
        <ele>735.79998779297</ele>
        <time>2019-02-20T08:56:27.000Z</time>
      </trkpt>
      <trkpt lat="45.31337" lon="4.59">
        <ele>735.79998779297</ele>
        <time>2019-02-20T08:56:28.000Z</time>
      </trkpt>
      <trkpt lat="45.31338" lon="4.58999">
        <ele>736.20001220703</ele>
        <time>2019-02-20T08:56:29.000Z</time>
      </trkpt>
      <trkpt lat="45.31339" lon="4.58998">
        <ele>736.40002441406</ele>
        <time>2019-02-20T08:56:30.000Z</time>
      </trkpt>
      <trkpt lat="45.3134" lon="4.58997">
        <ele>736.59997558594</ele>
        <time>2019-02-20T08:56:31.000Z</time>
      </trkpt>
      <trkpt lat="45.31341" lon="4.58996">
        <ele>736.59997558594</ele>
        <time>2019-02-20T08:56:32.000Z</time>
      </trkpt>
      <trkpt lat="45.31341" lon="4.58995">
        <ele>736.79998779297</ele>
        <time>2019-02-20T08:56:33.000Z</time>
      </trkpt>
      <trkpt lat="45.31342" lon="4.58994">
        <ele>736.79998779297</ele>
        <time>2019-02-20T08:56:34.000Z</time>
      </trkpt>
      <trkpt lat="45.31343" lon="4.58993">
        <ele>737</ele>
        <time>2019-02-20T08:56:35.000Z</time>
      </trkpt>
      <trkpt lat="45.31343" lon="4.58992">
        <ele>737</ele>
        <time>2019-02-20T08:56:36.000Z</time>
      </trkpt>
      <trkpt lat="45.31344" lon="4.58991">
        <ele>737.20001220703</ele>
        <time>2019-02-20T08:56:37.000Z</time>
      </trkpt>
      <trkpt lat="45.31345" lon="4.5899">
        <ele>737.20001220703</ele>
        <time>2019-02-20T08:56:38.000Z</time>
      </trkpt>
      <trkpt lat="45.31346" lon="4.58988">
        <ele>737.40002441406</ele>
        <time>2019-02-20T08:56:39.000Z</time>
      </trkpt>
      <trkpt lat="45.31347" lon="4.58987">
        <ele>737.59997558594</ele>
        <time>2019-02-20T08:56:40.000Z</time>
      </trkpt>
      <trkpt lat="45.31347" lon="4.58986">
        <ele>738</ele>
        <time>2019-02-20T08:56:41.000Z</time>
      </trkpt>
      <trkpt lat="45.31348" lon="4.58984">
        <ele>738.20001220703</ele>
        <time>2019-02-20T08:56:42.000Z</time>
      </trkpt>
      <trkpt lat="45.31348" lon="4.58983">
        <ele>738.40002441406</ele>
        <time>2019-02-20T08:56:43.000Z</time>
      </trkpt>
      <trkpt lat="45.31349" lon="4.58982">
        <ele>738.40002441406</ele>
        <time>2019-02-20T08:56:44.000Z</time>
      </trkpt>
      <trkpt lat="45.3135" lon="4.5898">
        <ele>738.79998779297</ele>
        <time>2019-02-20T08:56:45.000Z</time>
      </trkpt>
      <trkpt lat="45.31351" lon="4.58979">
        <ele>738.79998779297</ele>
        <time>2019-02-20T08:56:46.000Z</time>
      </trkpt>
      <trkpt lat="45.31352" lon="4.58977">
        <ele>739.20001220703</ele>
        <time>2019-02-20T08:56:47.000Z</time>
      </trkpt>
      <trkpt lat="45.31352" lon="4.58976">
        <ele>739.20001220703</ele>
        <time>2019-02-20T08:56:48.000Z</time>
      </trkpt>
      <trkpt lat="45.31352" lon="4.58975">
        <ele>739.59997558594</ele>
        <time>2019-02-20T08:56:49.000Z</time>
      </trkpt>
      <trkpt lat="45.31353" lon="4.58973">
        <ele>740</ele>
        <time>2019-02-20T08:56:50.000Z</time>
      </trkpt>
      <trkpt lat="45.31354" lon="4.58972">
        <ele>740</ele>
        <time>2019-02-20T08:56:51.000Z</time>
      </trkpt>
      <trkpt lat="45.31354" lon="4.5897">
        <ele>740</ele>
        <time>2019-02-20T08:56:52.000Z</time>
      </trkpt>
      <trkpt lat="45.31355" lon="4.58969">
        <ele>740.40002441406</ele>
        <time>2019-02-20T08:56:53.000Z</time>
      </trkpt>
      <trkpt lat="45.31356" lon="4.58967">
        <ele>740.59997558594</ele>
        <time>2019-02-20T08:56:54.000Z</time>
      </trkpt>
      <trkpt lat="45.31356" lon="4.58965">
        <ele>740.79998779297</ele>
        <time>2019-02-20T08:56:55.000Z</time>
      </trkpt>
      <trkpt lat="45.31357" lon="4.58964">
        <ele>741</ele>
        <time>2019-02-20T08:56:56.000Z</time>
      </trkpt>
      <trkpt lat="45.31358" lon="4.58963">
        <ele>741.20001220703</ele>
        <time>2019-02-20T08:56:57.000Z</time>
      </trkpt>
      <trkpt lat="45.31358" lon="4.58962">
        <ele>741.40002441406</ele>
        <time>2019-02-20T08:56:58.000Z</time>
      </trkpt>
      <trkpt lat="45.31359" lon="4.58961">
        <ele>741.59997558594</ele>
        <time>2019-02-20T08:56:59.000Z</time>
      </trkpt>
      <trkpt lat="45.31359" lon="4.5896">
        <ele>741.59997558594</ele>
        <time>2019-02-20T08:57:00.000Z</time>
      </trkpt>
      <trkpt lat="45.3136" lon="4.5896">
        <ele>742</ele>
        <time>2019-02-20T08:57:01.000Z</time>
      </trkpt>
      <trkpt lat="45.3136" lon="4.58959">
        <ele>742</ele>
        <time>2019-02-20T08:57:02.000Z</time>
      </trkpt>
      <trkpt lat="45.3136" lon="4.58959">
        <ele>742.20001220703</ele>
        <time>2019-02-20T08:57:03.000Z</time>
      </trkpt>
      <trkpt lat="45.31377" lon="4.58918">
        <ele>746.59997558594</ele>
        <time>2019-02-20T08:59:35.000Z</time>
      </trkpt>
      <trkpt lat="45.31378" lon="4.58917">
        <ele>747</ele>
        <time>2019-02-20T08:59:36.000Z</time>
      </trkpt>
      <trkpt lat="45.31378" lon="4.58915">
        <ele>747.20001220703</ele>
        <time>2019-02-20T08:59:37.000Z</time>
      </trkpt>
      <trkpt lat="45.31379" lon="4.58914">
        <ele>747.40002441406</ele>
        <time>2019-02-20T08:59:38.000Z</time>
      </trkpt>
      <trkpt lat="45.3138" lon="4.58913">
        <ele>747.59997558594</ele>
        <time>2019-02-20T08:59:39.000Z</time>
      </trkpt>
      <trkpt lat="45.31381" lon="4.58912">
        <ele>747.79998779297</ele>
        <time>2019-02-20T08:59:40.000Z</time>
      </trkpt>
      <trkpt lat="45.31382" lon="4.5891">
        <ele>748</ele>
        <time>2019-02-20T08:59:41.000Z</time>
      </trkpt>
      <trkpt lat="45.31383" lon="4.58908">
        <ele>748</ele>
        <time>2019-02-20T08:59:42.000Z</time>
      </trkpt>
      <trkpt lat="45.31383" lon="4.58907">
        <ele>748.20001220703</ele>
        <time>2019-02-20T08:59:43.000Z</time>
      </trkpt>
      <trkpt lat="45.31384" lon="4.58905">
        <ele>748.20001220703</ele>
        <time>2019-02-20T08:59:44.000Z</time>
      </trkpt>
      <trkpt lat="45.31384" lon="4.58903">
        <ele>748.59997558594</ele>
        <time>2019-02-20T08:59:45.000Z</time>
      </trkpt>
      <trkpt lat="45.31385" lon="4.58902">
        <ele>748.59997558594</ele>
        <time>2019-02-20T08:59:46.000Z</time>
      </trkpt>
      <trkpt lat="45.31386" lon="4.589">
        <ele>748.79998779297</ele>
        <time>2019-02-20T08:59:47.000Z</time>
      </trkpt>
      <trkpt lat="45.31387" lon="4.58899">
        <ele>749</ele>
        <time>2019-02-20T08:59:48.000Z</time>
      </trkpt>
      <trkpt lat="45.31388" lon="4.58897">
        <ele>749.20001220703</ele>
        <time>2019-02-20T08:59:49.000Z</time>
      </trkpt>
      <trkpt lat="45.31389" lon="4.58896">
        <ele>749.20001220703</ele>
        <time>2019-02-20T08:59:50.000Z</time>
      </trkpt>
      <trkpt lat="45.31389" lon="4.58894">
        <ele>749.40002441406</ele>
        <time>2019-02-20T08:59:51.000Z</time>
      </trkpt>
      <trkpt lat="45.3139" lon="4.58893">
        <ele>749.20001220703</ele>
        <time>2019-02-20T08:59:52.000Z</time>
      </trkpt>
      <trkpt lat="45.31391" lon="4.58892">
        <ele>749.59997558594</ele>
        <time>2019-02-20T08:59:53.000Z</time>
      </trkpt>
      <trkpt lat="45.31392" lon="4.5889">
        <ele>749.79998779297</ele>
        <time>2019-02-20T08:59:54.000Z</time>
      </trkpt>
      <trkpt lat="45.31393" lon="4.58889">
        <ele>750</ele>
        <time>2019-02-20T08:59:55.000Z</time>
      </trkpt>
      <trkpt lat="45.31394" lon="4.58887">
        <ele>750</ele>
        <time>2019-02-20T08:59:56.000Z</time>
      </trkpt>
      <trkpt lat="45.31395" lon="4.58885">
        <ele>750.40002441406</ele>
        <time>2019-02-20T08:59:57.000Z</time>
      </trkpt>
      <trkpt lat="45.31396" lon="4.58883">
        <ele>750.59997558594</ele>
        <time>2019-02-20T08:59:58.000Z</time>
      </trkpt>
      <trkpt lat="45.31397" lon="4.58881">
        <ele>750.59997558594</ele>
        <time>2019-02-20T08:59:59.000Z</time>
      </trkpt>
      <trkpt lat="45.31397" lon="4.58879">
        <ele>750.79998779297</ele>
        <time>2019-02-20T09:00:00.000Z</time>
      </trkpt>
      <trkpt lat="45.31398" lon="4.58878">
        <ele>751</ele>
        <time>2019-02-20T09:00:01.000Z</time>
      </trkpt>
      <trkpt lat="45.31398" lon="4.58876">
        <ele>751</ele>
        <time>2019-02-20T09:00:02.000Z</time>
      </trkpt>
      <trkpt lat="45.31399" lon="4.58874">
        <ele>751.20001220703</ele>
        <time>2019-02-20T09:00:03.000Z</time>
      </trkpt>
      <trkpt lat="45.31401" lon="4.58873">
        <ele>751.59997558594</ele>
        <time>2019-02-20T09:00:04.000Z</time>
      </trkpt>
      <trkpt lat="45.31402" lon="4.58871">
        <ele>751.79998779297</ele>
        <time>2019-02-20T09:00:05.000Z</time>
      </trkpt>
      <trkpt lat="45.31403" lon="4.5887">
        <ele>752</ele>
        <time>2019-02-20T09:00:06.000Z</time>
      </trkpt>
      <trkpt lat="45.31404" lon="4.58868">
        <ele>752.20001220703</ele>
        <time>2019-02-20T09:00:07.000Z</time>
      </trkpt>
      <trkpt lat="45.31405" lon="4.58867">
        <ele>752</ele>
        <time>2019-02-20T09:00:08.000Z</time>
      </trkpt>
      <trkpt lat="45.31407" lon="4.58865">
        <ele>752.40002441406</ele>
        <time>2019-02-20T09:00:09.000Z</time>
      </trkpt>
      <trkpt lat="45.31407" lon="4.58863">
        <ele>752.59997558594</ele>
        <time>2019-02-20T09:00:10.000Z</time>
      </trkpt>
      <trkpt lat="45.31409" lon="4.58862">
        <ele>752.79998779297</ele>
        <time>2019-02-20T09:00:11.000Z</time>
      </trkpt>
      <trkpt lat="45.3141" lon="4.5886">
        <ele>753</ele>
        <time>2019-02-20T09:00:12.000Z</time>
      </trkpt>
      <trkpt lat="45.3141" lon="4.58857">
        <ele>753.20001220703</ele>
        <time>2019-02-20T09:00:13.000Z</time>
      </trkpt>
      <trkpt lat="45.31411" lon="4.58854">
        <ele>753.59997558594</ele>
        <time>2019-02-20T09:00:14.000Z</time>
      </trkpt>
      <trkpt lat="45.31412" lon="4.58851">
        <ele>754</ele>
        <time>2019-02-20T09:00:15.000Z</time>
      </trkpt>
      <trkpt lat="45.31413" lon="4.58848">
        <ele>754.40002441406</ele>
        <time>2019-02-20T09:00:16.000Z</time>
      </trkpt>
      <trkpt lat="45.31413" lon="4.58846">
        <ele>754.59997558594</ele>
        <time>2019-02-20T09:00:17.000Z</time>
      </trkpt>
      <trkpt lat="45.31414" lon="4.58844">
        <ele>755</ele>
        <time>2019-02-20T09:00:18.000Z</time>
      </trkpt>
      <trkpt lat="45.31414" lon="4.58841">
        <ele>755.40002441406</ele>
        <time>2019-02-20T09:00:19.000Z</time>
      </trkpt>
      <trkpt lat="45.31415" lon="4.58839">
        <ele>755.59997558594</ele>
        <time>2019-02-20T09:00:20.000Z</time>
      </trkpt>
      <trkpt lat="45.31415" lon="4.58837">
        <ele>756</ele>
        <time>2019-02-20T09:00:21.000Z</time>
      </trkpt>
      <trkpt lat="45.31416" lon="4.58835">
        <ele>756.40002441406</ele>
        <time>2019-02-20T09:00:22.000Z</time>
      </trkpt>
      <trkpt lat="45.31416" lon="4.58833">
        <ele>757</ele>
        <time>2019-02-20T09:00:23.000Z</time>
      </trkpt>
      <trkpt lat="45.31416" lon="4.58831">
        <ele>757.59997558594</ele>
        <time>2019-02-20T09:00:24.000Z</time>
      </trkpt>
      <trkpt lat="45.31415" lon="4.58829">
        <ele>758.20001220703</ele>
        <time>2019-02-20T09:00:25.000Z</time>
      </trkpt>
      <trkpt lat="45.31415" lon="4.58827">
        <ele>758.79998779297</ele>
        <time>2019-02-20T09:00:26.000Z</time>
      </trkpt>
      <trkpt lat="45.31415" lon="4.58825">
        <ele>758.79998779297</ele>
        <time>2019-02-20T09:00:27.000Z</time>
      </trkpt>
      <trkpt lat="45.31415" lon="4.58823">
        <ele>759.59997558594</ele>
        <time>2019-02-20T09:00:28.000Z</time>
      </trkpt>
      <trkpt lat="45.31415" lon="4.58822">
        <ele>759.79998779297</ele>
        <time>2019-02-20T09:00:29.000Z</time>
      </trkpt>
      <trkpt lat="45.31415" lon="4.5882">
        <ele>760.20001220703</ele>
        <time>2019-02-20T09:00:30.000Z</time>
      </trkpt>
      <trkpt lat="45.31415" lon="4.58819">
        <ele>760.40002441406</ele>
        <time>2019-02-20T09:00:31.000Z</time>
      </trkpt>
      <trkpt lat="45.31414" lon="4.58818">
        <ele>760.79998779297</ele>
        <time>2019-02-20T09:00:32.000Z</time>
      </trkpt>
      <trkpt lat="45.31413" lon="4.58815">
        <ele>761</ele>
        <time>2019-02-20T09:00:33.000Z</time>
      </trkpt>
      <trkpt lat="45.31412" lon="4.58814">
        <ele>761.40002441406</ele>
        <time>2019-02-20T09:00:34.000Z</time>
      </trkpt>
      <trkpt lat="45.31411" lon="4.58812">
        <ele>761.79998779297</ele>
        <time>2019-02-20T09:00:35.000Z</time>
      </trkpt>
      <trkpt lat="45.3141" lon="4.5881">
        <ele>762</ele>
        <time>2019-02-20T09:00:36.000Z</time>
      </trkpt>
      <trkpt lat="45.3141" lon="4.58808">
        <ele>762.40002441406</ele>
        <time>2019-02-20T09:00:37.000Z</time>
      </trkpt>
      <trkpt lat="45.31409" lon="4.58806">
        <ele>762.40002441406</ele>
        <time>2019-02-20T09:00:38.000Z</time>
      </trkpt>
      <trkpt lat="45.31409" lon="4.58804">
        <ele>762.59997558594</ele>
        <time>2019-02-20T09:00:39.000Z</time>
      </trkpt>
      <trkpt lat="45.31409" lon="4.58802">
        <ele>762.59997558594</ele>
        <time>2019-02-20T09:00:40.000Z</time>
      </trkpt>
      <trkpt lat="45.31408" lon="4.588">
        <ele>762.59997558594</ele>
        <time>2019-02-20T09:00:41.000Z</time>
      </trkpt>
      <trkpt lat="45.31408" lon="4.58798">
        <ele>762.79998779297</ele>
        <time>2019-02-20T09:00:42.000Z</time>
      </trkpt>
      <trkpt lat="45.31408" lon="4.58796">
        <ele>762.79998779297</ele>
        <time>2019-02-20T09:00:43.000Z</time>
      </trkpt>
      <trkpt lat="45.31409" lon="4.58794">
        <ele>762.79998779297</ele>
        <time>2019-02-20T09:00:44.000Z</time>
      </trkpt>
      <trkpt lat="45.31409" lon="4.58792">
        <ele>763</ele>
        <time>2019-02-20T09:00:45.000Z</time>
      </trkpt>
      <trkpt lat="45.31409" lon="4.5879">
        <ele>763</ele>
        <time>2019-02-20T09:00:46.000Z</time>
      </trkpt>
      <trkpt lat="45.3141" lon="4.58788">
        <ele>763.20001220703</ele>
        <time>2019-02-20T09:00:47.000Z</time>
      </trkpt>
      <trkpt lat="45.3141" lon="4.58786">
        <ele>763.40002441406</ele>
        <time>2019-02-20T09:00:48.000Z</time>
      </trkpt>
      <trkpt lat="45.3141" lon="4.58784">
        <ele>763.59997558594</ele>
        <time>2019-02-20T09:00:49.000Z</time>
      </trkpt>
      <trkpt lat="45.3141" lon="4.58782">
        <ele>763.59997558594</ele>
        <time>2019-02-20T09:00:50.000Z</time>
      </trkpt>
      <trkpt lat="45.31411" lon="4.58781">
        <ele>763.59997558594</ele>
        <time>2019-02-20T09:00:51.000Z</time>
      </trkpt>
      <trkpt lat="45.31412" lon="4.58779">
        <ele>763.79998779297</ele>
        <time>2019-02-20T09:00:52.000Z</time>
      </trkpt>
      <trkpt lat="45.31413" lon="4.58778">
        <ele>764</ele>
        <time>2019-02-20T09:00:53.000Z</time>
      </trkpt>
      <trkpt lat="45.31414" lon="4.58777">
        <ele>764.20001220703</ele>
        <time>2019-02-20T09:00:54.000Z</time>
      </trkpt>
      <trkpt lat="45.31415" lon="4.58776">
        <ele>764.40002441406</ele>
        <time>2019-02-20T09:00:55.000Z</time>
      </trkpt>
      <trkpt lat="45.31416" lon="4.58775">
        <ele>764.59997558594</ele>
        <time>2019-02-20T09:00:56.000Z</time>
      </trkpt>
      <trkpt lat="45.31416" lon="4.58773">
        <ele>764.59997558594</ele>
        <time>2019-02-20T09:00:57.000Z</time>
      </trkpt>
      <trkpt lat="45.31417" lon="4.58772">
        <ele>764.79998779297</ele>
        <time>2019-02-20T09:00:58.000Z</time>
      </trkpt>
      <trkpt lat="45.31418" lon="4.58771">
        <ele>764.79998779297</ele>
        <time>2019-02-20T09:00:59.000Z</time>
      </trkpt>
      <trkpt lat="45.31419" lon="4.58769">
        <ele>764.79998779297</ele>
        <time>2019-02-20T09:01:00.000Z</time>
      </trkpt>
      <trkpt lat="45.31419" lon="4.58767">
        <ele>765</ele>
        <time>2019-02-20T09:01:01.000Z</time>
      </trkpt>
      <trkpt lat="45.3142" lon="4.58766">
        <ele>765</ele>
        <time>2019-02-20T09:01:02.000Z</time>
      </trkpt>
      <trkpt lat="45.31421" lon="4.58764">
        <ele>765.20001220703</ele>
        <time>2019-02-20T09:01:03.000Z</time>
      </trkpt>
      <trkpt lat="45.31422" lon="4.58763">
        <ele>765.20001220703</ele>
        <time>2019-02-20T09:01:04.000Z</time>
      </trkpt>
      <trkpt lat="45.31423" lon="4.58762">
        <ele>765.20001220703</ele>
        <time>2019-02-20T09:01:05.000Z</time>
      </trkpt>
      <trkpt lat="45.31424" lon="4.58761">
        <ele>765.59997558594</ele>
        <time>2019-02-20T09:01:06.000Z</time>
      </trkpt>
      <trkpt lat="45.31425" lon="4.58759">
        <ele>765.59997558594</ele>
        <time>2019-02-20T09:01:07.000Z</time>
      </trkpt>
      <trkpt lat="45.31426" lon="4.58757">
        <ele>765.59997558594</ele>
        <time>2019-02-20T09:01:08.000Z</time>
      </trkpt>
      <trkpt lat="45.31426" lon="4.58756">
        <ele>765.59997558594</ele>
        <time>2019-02-20T09:01:09.000Z</time>
      </trkpt>
      <trkpt lat="45.31427" lon="4.58755">
        <ele>765.79998779297</ele>
        <time>2019-02-20T09:01:10.000Z</time>
      </trkpt>
      <trkpt lat="45.31428" lon="4.58753">
        <ele>766</ele>
        <time>2019-02-20T09:01:11.000Z</time>
      </trkpt>
      <trkpt lat="45.31429" lon="4.58752">
        <ele>766</ele>
        <time>2019-02-20T09:01:12.000Z</time>
      </trkpt>
      <trkpt lat="45.31429" lon="4.5875">
        <ele>766.20001220703</ele>
        <time>2019-02-20T09:01:13.000Z</time>
      </trkpt>
      <trkpt lat="45.3143" lon="4.58749">
        <ele>766.20001220703</ele>
        <time>2019-02-20T09:01:14.000Z</time>
      </trkpt>
      <trkpt lat="45.31431" lon="4.58747">
        <ele>766.20001220703</ele>
        <time>2019-02-20T09:01:15.000Z</time>
      </trkpt>
      <trkpt lat="45.31432" lon="4.58746">
        <ele>766.79998779297</ele>
        <time>2019-02-20T09:01:16.000Z</time>
      </trkpt>
      <trkpt lat="45.31433" lon="4.58744">
        <ele>767.20001220703</ele>
        <time>2019-02-20T09:01:17.000Z</time>
      </trkpt>
      <trkpt lat="45.31435" lon="4.58743">
        <ele>767.40002441406</ele>
        <time>2019-02-20T09:01:18.000Z</time>
      </trkpt>
      <trkpt lat="45.31435" lon="4.58742">
        <ele>767.40002441406</ele>
        <time>2019-02-20T09:01:19.000Z</time>
      </trkpt>
      <trkpt lat="45.31436" lon="4.58741">
        <ele>767.59997558594</ele>
        <time>2019-02-20T09:01:20.000Z</time>
      </trkpt>
      <trkpt lat="45.31438" lon="4.58741">
        <ele>767.79998779297</ele>
        <time>2019-02-20T09:01:21.000Z</time>
      </trkpt>
      <trkpt lat="45.31439" lon="4.58741">
        <ele>768</ele>
        <time>2019-02-20T09:01:22.000Z</time>
      </trkpt>
      <trkpt lat="45.3144" lon="4.58741">
        <ele>768.20001220703</ele>
        <time>2019-02-20T09:01:23.000Z</time>
      </trkpt>
      <trkpt lat="45.31442" lon="4.58741">
        <ele>768.20001220703</ele>
        <time>2019-02-20T09:01:24.000Z</time>
      </trkpt>
      <trkpt lat="45.31443" lon="4.58741">
        <ele>768.40002441406</ele>
        <time>2019-02-20T09:01:25.000Z</time>
      </trkpt>
      <trkpt lat="45.31444" lon="4.58742">
        <ele>768.59997558594</ele>
        <time>2019-02-20T09:01:26.000Z</time>
      </trkpt>
      <trkpt lat="45.31445" lon="4.58742">
        <ele>768.79998779297</ele>
        <time>2019-02-20T09:01:27.000Z</time>
      </trkpt>
      <trkpt lat="45.31447" lon="4.58742">
        <ele>769</ele>
        <time>2019-02-20T09:01:28.000Z</time>
      </trkpt>
      <trkpt lat="45.31448" lon="4.58742">
        <ele>769.40002441406</ele>
        <time>2019-02-20T09:01:29.000Z</time>
      </trkpt>
      <trkpt lat="45.31449" lon="4.58742">
        <ele>769.79998779297</ele>
        <time>2019-02-20T09:01:30.000Z</time>
      </trkpt>
      <trkpt lat="45.3145" lon="4.58742">
        <ele>769.79998779297</ele>
        <time>2019-02-20T09:01:31.000Z</time>
      </trkpt>
      <trkpt lat="45.31452" lon="4.58743">
        <ele>770</ele>
        <time>2019-02-20T09:01:32.000Z</time>
      </trkpt>
      <trkpt lat="45.31453" lon="4.58744">
        <ele>770.20001220703</ele>
        <time>2019-02-20T09:01:33.000Z</time>
      </trkpt>
      <trkpt lat="45.31453" lon="4.58745">
        <ele>770.40002441406</ele>
        <time>2019-02-20T09:01:34.000Z</time>
      </trkpt>
      <trkpt lat="45.31454" lon="4.58746">
        <ele>770.79998779297</ele>
        <time>2019-02-20T09:01:35.000Z</time>
      </trkpt>
      <trkpt lat="45.31455" lon="4.58747">
        <ele>771</ele>
        <time>2019-02-20T09:01:36.000Z</time>
      </trkpt>
      <trkpt lat="45.31456" lon="4.58748">
        <ele>771.40002441406</ele>
        <time>2019-02-20T09:01:37.000Z</time>
      </trkpt>
      <trkpt lat="45.31457" lon="4.58749">
        <ele>771.40002441406</ele>
        <time>2019-02-20T09:01:38.000Z</time>
      </trkpt>
      <trkpt lat="45.31458" lon="4.5875">
        <ele>771.79998779297</ele>
        <time>2019-02-20T09:01:39.000Z</time>
      </trkpt>
      <trkpt lat="45.31459" lon="4.5875">
        <ele>772.20001220703</ele>
        <time>2019-02-20T09:01:40.000Z</time>
      </trkpt>
      <trkpt lat="45.3146" lon="4.58751">
        <ele>772.20001220703</ele>
        <time>2019-02-20T09:01:41.000Z</time>
      </trkpt>
      <trkpt lat="45.31461" lon="4.5875">
        <ele>772.40002441406</ele>
        <time>2019-02-20T09:01:42.000Z</time>
      </trkpt>
      <trkpt lat="45.31462" lon="4.58751">
        <ele>772.40002441406</ele>
        <time>2019-02-20T09:01:43.000Z</time>
      </trkpt>
      <trkpt lat="45.31463" lon="4.58751">
        <ele>772.40002441406</ele>
        <time>2019-02-20T09:01:44.000Z</time>
      </trkpt>
      <trkpt lat="45.31464" lon="4.58752">
        <ele>772.59997558594</ele>
        <time>2019-02-20T09:01:45.000Z</time>
      </trkpt>
      <trkpt lat="45.31464" lon="4.58752">
        <ele>773</ele>
        <time>2019-02-20T09:01:46.000Z</time>
      </trkpt>
      <trkpt lat="45.31465" lon="4.58752">
        <ele>773.20001220703</ele>
        <time>2019-02-20T09:01:47.000Z</time>
      </trkpt>
      <trkpt lat="45.31467" lon="4.58752">
        <ele>773.40002441406</ele>
        <time>2019-02-20T09:01:48.000Z</time>
      </trkpt>
      <trkpt lat="45.31468" lon="4.58752">
        <ele>773.79998779297</ele>
        <time>2019-02-20T09:01:49.000Z</time>
      </trkpt>
      <trkpt lat="45.31468" lon="4.58752">
        <ele>774.20001220703</ele>
        <time>2019-02-20T09:01:50.000Z</time>
      </trkpt>
      <trkpt lat="45.31469" lon="4.58752">
        <ele>774.40002441406</ele>
        <time>2019-02-20T09:01:51.000Z</time>
      </trkpt>
      <trkpt lat="45.3147" lon="4.58752">
        <ele>774.40002441406</ele>
        <time>2019-02-20T09:01:52.000Z</time>
      </trkpt>
      <trkpt lat="45.31472" lon="4.58751">
        <ele>774.59997558594</ele>
        <time>2019-02-20T09:01:53.000Z</time>
      </trkpt>
      <trkpt lat="45.31473" lon="4.58751">
        <ele>774.79998779297</ele>
        <time>2019-02-20T09:01:54.000Z</time>
      </trkpt>
      <trkpt lat="45.31474" lon="4.58751">
        <ele>775.20001220703</ele>
        <time>2019-02-20T09:01:55.000Z</time>
      </trkpt>
      <trkpt lat="45.31475" lon="4.58751">
        <ele>775.20001220703</ele>
        <time>2019-02-20T09:01:56.000Z</time>
      </trkpt>
      <trkpt lat="45.31476" lon="4.5875">
        <ele>775.59997558594</ele>
        <time>2019-02-20T09:01:57.000Z</time>
      </trkpt>
      <trkpt lat="45.31477" lon="4.5875">
        <ele>775.79998779297</ele>
        <time>2019-02-20T09:01:58.000Z</time>
      </trkpt>
      <trkpt lat="45.31478" lon="4.5875">
        <ele>776</ele>
        <time>2019-02-20T09:01:59.000Z</time>
      </trkpt>
      <trkpt lat="45.31478" lon="4.5875">
        <ele>776.20001220703</ele>
        <time>2019-02-20T09:02:00.000Z</time>
      </trkpt>
      <trkpt lat="45.31479" lon="4.58749">
        <ele>776.40002441406</ele>
        <time>2019-02-20T09:02:01.000Z</time>
      </trkpt>
      <trkpt lat="45.31479" lon="4.58749">
        <ele>776.59997558594</ele>
        <time>2019-02-20T09:02:02.000Z</time>
      </trkpt>
      <trkpt lat="45.3148" lon="4.58748">
        <ele>776.79998779297</ele>
        <time>2019-02-20T09:02:03.000Z</time>
      </trkpt>
      <trkpt lat="45.3148" lon="4.58747">
        <ele>776.79998779297</ele>
        <time>2019-02-20T09:02:04.000Z</time>
      </trkpt>
      <trkpt lat="45.3148" lon="4.58746">
        <ele>777</ele>
        <time>2019-02-20T09:02:05.000Z</time>
      </trkpt>
      <trkpt lat="45.3148" lon="4.58745">
        <ele>777.20001220703</ele>
        <time>2019-02-20T09:02:06.000Z</time>
      </trkpt>
      <trkpt lat="45.3148" lon="4.58743">
        <ele>777.20001220703</ele>
        <time>2019-02-20T09:02:07.000Z</time>
      </trkpt>
      <trkpt lat="45.31481" lon="4.58741">
        <ele>777.20001220703</ele>
        <time>2019-02-20T09:02:08.000Z</time>
      </trkpt>
      <trkpt lat="45.31482" lon="4.5874">
        <ele>777.40002441406</ele>
        <time>2019-02-20T09:02:09.000Z</time>
      </trkpt>
      <trkpt lat="45.31483" lon="4.58739">
        <ele>777.59997558594</ele>
        <time>2019-02-20T09:02:10.000Z</time>
      </trkpt>
      <trkpt lat="45.31484" lon="4.58738">
        <ele>777.79998779297</ele>
        <time>2019-02-20T09:02:11.000Z</time>
      </trkpt>
      <trkpt lat="45.31484" lon="4.58736">
        <ele>777.79998779297</ele>
        <time>2019-02-20T09:02:12.000Z</time>
      </trkpt>
      <trkpt lat="45.31484" lon="4.58734">
        <ele>778</ele>
        <time>2019-02-20T09:02:13.000Z</time>
      </trkpt>
      <trkpt lat="45.31485" lon="4.58733">
        <ele>778.20001220703</ele>
        <time>2019-02-20T09:02:14.000Z</time>
      </trkpt>
      <trkpt lat="45.31485" lon="4.58731">
        <ele>778.20001220703</ele>
        <time>2019-02-20T09:02:15.000Z</time>
      </trkpt>
      <trkpt lat="45.31485" lon="4.58729">
        <ele>778.59997558594</ele>
        <time>2019-02-20T09:02:16.000Z</time>
      </trkpt>
      <trkpt lat="45.31485" lon="4.58727">
        <ele>778.59997558594</ele>
        <time>2019-02-20T09:02:17.000Z</time>
      </trkpt>
      <trkpt lat="45.31485" lon="4.58726">
        <ele>778.79998779297</ele>
        <time>2019-02-20T09:02:18.000Z</time>
      </trkpt>
      <trkpt lat="45.31485" lon="4.58724">
        <ele>779</ele>
        <time>2019-02-20T09:02:19.000Z</time>
      </trkpt>
      <trkpt lat="45.31485" lon="4.58722">
        <ele>779.20001220703</ele>
        <time>2019-02-20T09:02:20.000Z</time>
      </trkpt>
      <trkpt lat="45.31485" lon="4.5872">
        <ele>779.40002441406</ele>
        <time>2019-02-20T09:02:21.000Z</time>
      </trkpt>
      <trkpt lat="45.31485" lon="4.58719">
        <ele>779.40002441406</ele>
        <time>2019-02-20T09:02:22.000Z</time>
      </trkpt>
      <trkpt lat="45.31485" lon="4.58717">
        <ele>779.59997558594</ele>
        <time>2019-02-20T09:02:23.000Z</time>
      </trkpt>
      <trkpt lat="45.31485" lon="4.58716">
        <ele>779.59997558594</ele>
        <time>2019-02-20T09:02:24.000Z</time>
      </trkpt>
      <trkpt lat="45.31486" lon="4.58715">
        <ele>780</ele>
        <time>2019-02-20T09:02:25.000Z</time>
      </trkpt>
      <trkpt lat="45.31486" lon="4.58714">
        <ele>780</ele>
        <time>2019-02-20T09:02:26.000Z</time>
      </trkpt>
      <trkpt lat="45.31486" lon="4.58712">
        <ele>780.40002441406</ele>
        <time>2019-02-20T09:02:27.000Z</time>
      </trkpt>
      <trkpt lat="45.31486" lon="4.5871">
        <ele>780.79998779297</ele>
        <time>2019-02-20T09:02:28.000Z</time>
      </trkpt>
      <trkpt lat="45.31487" lon="4.58708">
        <ele>781</ele>
        <time>2019-02-20T09:02:29.000Z</time>
      </trkpt>
      <trkpt lat="45.31487" lon="4.58706">
        <ele>781.40002441406</ele>
        <time>2019-02-20T09:02:30.000Z</time>
      </trkpt>
      <trkpt lat="45.31488" lon="4.58705">
        <ele>781.59997558594</ele>
        <time>2019-02-20T09:02:31.000Z</time>
      </trkpt>
      <trkpt lat="45.31488" lon="4.58703">
        <ele>781.79998779297</ele>
        <time>2019-02-20T09:02:32.000Z</time>
      </trkpt>
      <trkpt lat="45.31488" lon="4.58701">
        <ele>782</ele>
        <time>2019-02-20T09:02:33.000Z</time>
      </trkpt>
      <trkpt lat="45.31489" lon="4.587">
        <ele>782</ele>
        <time>2019-02-20T09:02:34.000Z</time>
      </trkpt>
      <trkpt lat="45.3149" lon="4.58699">
        <ele>782.20001220703</ele>
        <time>2019-02-20T09:02:35.000Z</time>
      </trkpt>
      <trkpt lat="45.3149" lon="4.58697">
        <ele>782.59997558594</ele>
        <time>2019-02-20T09:02:36.000Z</time>
      </trkpt>
      <trkpt lat="45.31491" lon="4.58696">
        <ele>782.79998779297</ele>
        <time>2019-02-20T09:02:37.000Z</time>
      </trkpt>
      <trkpt lat="45.31492" lon="4.58695">
        <ele>783.40002441406</ele>
        <time>2019-02-20T09:02:38.000Z</time>
      </trkpt>
      <trkpt lat="45.31493" lon="4.58694">
        <ele>783.59997558594</ele>
        <time>2019-02-20T09:02:39.000Z</time>
      </trkpt>
      <trkpt lat="45.31495" lon="4.58693">
        <ele>783.59997558594</ele>
        <time>2019-02-20T09:02:40.000Z</time>
      </trkpt>
      <trkpt lat="45.31496" lon="4.58693">
        <ele>783.79998779297</ele>
        <time>2019-02-20T09:02:41.000Z</time>
      </trkpt>
      <trkpt lat="45.31497" lon="4.58692">
        <ele>784.20001220703</ele>
        <time>2019-02-20T09:02:42.000Z</time>
      </trkpt>
      <trkpt lat="45.31497" lon="4.58692">
        <ele>784.20001220703</ele>
        <time>2019-02-20T09:02:43.000Z</time>
      </trkpt>
      <trkpt lat="45.31498" lon="4.58691">
        <ele>784.40002441406</ele>
        <time>2019-02-20T09:02:44.000Z</time>
      </trkpt>
      <trkpt lat="45.31499" lon="4.5869">
        <ele>784.40002441406</ele>
        <time>2019-02-20T09:02:45.000Z</time>
      </trkpt>
      <trkpt lat="45.31499" lon="4.58689">
        <ele>784.40002441406</ele>
        <time>2019-02-20T09:02:46.000Z</time>
      </trkpt>
      <trkpt lat="45.31501" lon="4.58688">
        <ele>784.79998779297</ele>
        <time>2019-02-20T09:02:47.000Z</time>
      </trkpt>
      <trkpt lat="45.31502" lon="4.58687">
        <ele>784.79998779297</ele>
        <time>2019-02-20T09:02:48.000Z</time>
      </trkpt>
      <trkpt lat="45.31503" lon="4.58687">
        <ele>785</ele>
        <time>2019-02-20T09:02:49.000Z</time>
      </trkpt>
      <trkpt lat="45.31504" lon="4.58685">
        <ele>785</ele>
        <time>2019-02-20T09:02:50.000Z</time>
      </trkpt>
      <trkpt lat="45.31505" lon="4.58684">
        <ele>785.20001220703</ele>
        <time>2019-02-20T09:02:51.000Z</time>
      </trkpt>
      <trkpt lat="45.31505" lon="4.58683">
        <ele>785.40002441406</ele>
        <time>2019-02-20T09:02:52.000Z</time>
      </trkpt>
      <trkpt lat="45.31506" lon="4.58682">
        <ele>785.59997558594</ele>
        <time>2019-02-20T09:02:53.000Z</time>
      </trkpt>
      <trkpt lat="45.31507" lon="4.58682">
        <ele>785.79998779297</ele>
        <time>2019-02-20T09:02:54.000Z</time>
      </trkpt>
      <trkpt lat="45.31508" lon="4.5868">
        <ele>785.79998779297</ele>
        <time>2019-02-20T09:02:55.000Z</time>
      </trkpt>
      <trkpt lat="45.31509" lon="4.58679">
        <ele>786</ele>
        <time>2019-02-20T09:02:56.000Z</time>
      </trkpt>
      <trkpt lat="45.3151" lon="4.58678">
        <ele>786.40002441406</ele>
        <time>2019-02-20T09:02:57.000Z</time>
      </trkpt>
      <trkpt lat="45.31511" lon="4.58677">
        <ele>786.40002441406</ele>
        <time>2019-02-20T09:02:58.000Z</time>
      </trkpt>
      <trkpt lat="45.31511" lon="4.58677">
        <ele>786.59997558594</ele>
        <time>2019-02-20T09:02:59.000Z</time>
      </trkpt>
      <trkpt lat="45.31513" lon="4.58677">
        <ele>786.79998779297</ele>
        <time>2019-02-20T09:03:00.000Z</time>
      </trkpt>
      <trkpt lat="45.31514" lon="4.58676">
        <ele>787</ele>
        <time>2019-02-20T09:03:01.000Z</time>
      </trkpt>
      <trkpt lat="45.31514" lon="4.58676">
        <ele>787.20001220703</ele>
        <time>2019-02-20T09:03:02.000Z</time>
      </trkpt>
      <trkpt lat="45.31515" lon="4.58674">
        <ele>787.20001220703</ele>
        <time>2019-02-20T09:03:03.000Z</time>
      </trkpt>
      <trkpt lat="45.31516" lon="4.58673">
        <ele>787.40002441406</ele>
        <time>2019-02-20T09:03:04.000Z</time>
      </trkpt>
      <trkpt lat="45.31516" lon="4.58673">
        <ele>787.40002441406</ele>
        <time>2019-02-20T09:03:05.000Z</time>
      </trkpt>
      <trkpt lat="45.31517" lon="4.58672">
        <ele>787.59997558594</ele>
        <time>2019-02-20T09:03:06.000Z</time>
      </trkpt>
      <trkpt lat="45.31518" lon="4.58671">
        <ele>787.59997558594</ele>
        <time>2019-02-20T09:03:07.000Z</time>
      </trkpt>
      <trkpt lat="45.31519" lon="4.5867">
        <ele>787.79998779297</ele>
        <time>2019-02-20T09:03:08.000Z</time>
      </trkpt>
      <trkpt lat="45.3152" lon="4.58669">
        <ele>788</ele>
        <time>2019-02-20T09:03:09.000Z</time>
      </trkpt>
      <trkpt lat="45.31521" lon="4.58668">
        <ele>788.20001220703</ele>
        <time>2019-02-20T09:03:10.000Z</time>
      </trkpt>
      <trkpt lat="45.31522" lon="4.58667">
        <ele>788.40002441406</ele>
        <time>2019-02-20T09:03:11.000Z</time>
      </trkpt>
      <trkpt lat="45.31523" lon="4.58667">
        <ele>788.40002441406</ele>
        <time>2019-02-20T09:03:12.000Z</time>
      </trkpt>
      <trkpt lat="45.31524" lon="4.58666">
        <ele>788.59997558594</ele>
        <time>2019-02-20T09:03:13.000Z</time>
      </trkpt>
      <trkpt lat="45.31525" lon="4.58665">
        <ele>788.59997558594</ele>
        <time>2019-02-20T09:03:14.000Z</time>
      </trkpt>
      <trkpt lat="45.31526" lon="4.58664">
        <ele>788.59997558594</ele>
        <time>2019-02-20T09:03:15.000Z</time>
      </trkpt>
      <trkpt lat="45.31527" lon="4.58663">
        <ele>788.79998779297</ele>
        <time>2019-02-20T09:03:16.000Z</time>
      </trkpt>
      <trkpt lat="45.31528" lon="4.58662">
        <ele>788.59997558594</ele>
        <time>2019-02-20T09:03:17.000Z</time>
      </trkpt>
      <trkpt lat="45.31529" lon="4.58661">
        <ele>788.79998779297</ele>
        <time>2019-02-20T09:03:18.000Z</time>
      </trkpt>
      <trkpt lat="45.3153" lon="4.5866">
        <ele>789</ele>
        <time>2019-02-20T09:03:19.000Z</time>
      </trkpt>
      <trkpt lat="45.31532" lon="4.58659">
        <ele>789</ele>
        <time>2019-02-20T09:03:20.000Z</time>
      </trkpt>
      <trkpt lat="45.31533" lon="4.58659">
        <ele>789.20001220703</ele>
        <time>2019-02-20T09:03:21.000Z</time>
      </trkpt>
      <trkpt lat="45.31534" lon="4.58658">
        <ele>789.40002441406</ele>
        <time>2019-02-20T09:03:22.000Z</time>
      </trkpt>
      <trkpt lat="45.31535" lon="4.58657">
        <ele>789.40002441406</ele>
        <time>2019-02-20T09:03:23.000Z</time>
      </trkpt>
      <trkpt lat="45.31537" lon="4.58656">
        <ele>789.20001220703</ele>
        <time>2019-02-20T09:03:24.000Z</time>
      </trkpt>
      <trkpt lat="45.31538" lon="4.58655">
        <ele>789.40002441406</ele>
        <time>2019-02-20T09:03:25.000Z</time>
      </trkpt>
      <trkpt lat="45.31539" lon="4.58655">
        <ele>789.40002441406</ele>
        <time>2019-02-20T09:03:26.000Z</time>
      </trkpt>
      <trkpt lat="45.3154" lon="4.58654">
        <ele>789.59997558594</ele>
        <time>2019-02-20T09:03:27.000Z</time>
      </trkpt>
      <trkpt lat="45.31541" lon="4.58652">
        <ele>789.59997558594</ele>
        <time>2019-02-20T09:03:28.000Z</time>
      </trkpt>
      <trkpt lat="45.31542" lon="4.58651">
        <ele>789.79998779297</ele>
        <time>2019-02-20T09:03:29.000Z</time>
      </trkpt>
      <trkpt lat="45.31544" lon="4.58649">
        <ele>790</ele>
        <time>2019-02-20T09:03:30.000Z</time>
      </trkpt>
      <trkpt lat="45.31545" lon="4.58648">
        <ele>790</ele>
        <time>2019-02-20T09:03:31.000Z</time>
      </trkpt>
      <trkpt lat="45.31546" lon="4.58647">
        <ele>790.40002441406</ele>
        <time>2019-02-20T09:03:32.000Z</time>
      </trkpt>
      <trkpt lat="45.31547" lon="4.58646">
        <ele>790.20001220703</ele>
        <time>2019-02-20T09:03:33.000Z</time>
      </trkpt>
      <trkpt lat="45.31548" lon="4.58646">
        <ele>790.40002441406</ele>
        <time>2019-02-20T09:03:34.000Z</time>
      </trkpt>
      <trkpt lat="45.31549" lon="4.58645">
        <ele>790.40002441406</ele>
        <time>2019-02-20T09:03:35.000Z</time>
      </trkpt>
      <trkpt lat="45.3155" lon="4.58644">
        <ele>790.40002441406</ele>
        <time>2019-02-20T09:03:36.000Z</time>
      </trkpt>
      <trkpt lat="45.31551" lon="4.58643">
        <ele>790.59997558594</ele>
        <time>2019-02-20T09:03:37.000Z</time>
      </trkpt>
      <trkpt lat="45.31553" lon="4.58642">
        <ele>790.40002441406</ele>
        <time>2019-02-20T09:03:38.000Z</time>
      </trkpt>
      <trkpt lat="45.31554" lon="4.58641">
        <ele>790.59997558594</ele>
        <time>2019-02-20T09:03:39.000Z</time>
      </trkpt>
      <trkpt lat="45.31555" lon="4.58641">
        <ele>790.59997558594</ele>
        <time>2019-02-20T09:03:40.000Z</time>
      </trkpt>
      <trkpt lat="45.31556" lon="4.58639">
        <ele>790.79998779297</ele>
        <time>2019-02-20T09:03:41.000Z</time>
      </trkpt>
      <trkpt lat="45.31558" lon="4.58638">
        <ele>791</ele>
        <time>2019-02-20T09:03:42.000Z</time>
      </trkpt>
      <trkpt lat="45.31559" lon="4.58637">
        <ele>791</ele>
        <time>2019-02-20T09:03:43.000Z</time>
      </trkpt>
      <trkpt lat="45.31561" lon="4.58636">
        <ele>791</ele>
        <time>2019-02-20T09:03:44.000Z</time>
      </trkpt>
      <trkpt lat="45.31562" lon="4.58636">
        <ele>791</ele>
        <time>2019-02-20T09:03:45.000Z</time>
      </trkpt>
      <trkpt lat="45.31563" lon="4.58635">
        <ele>791.59997558594</ele>
        <time>2019-02-20T09:03:46.000Z</time>
      </trkpt>
      <trkpt lat="45.31564" lon="4.58633">
        <ele>791.59997558594</ele>
        <time>2019-02-20T09:03:47.000Z</time>
      </trkpt>
      <trkpt lat="45.31565" lon="4.58632">
        <ele>791.79998779297</ele>
        <time>2019-02-20T09:03:48.000Z</time>
      </trkpt>
      <trkpt lat="45.31566" lon="4.58631">
        <ele>791.79998779297</ele>
        <time>2019-02-20T09:03:49.000Z</time>
      </trkpt>
      <trkpt lat="45.31568" lon="4.5863">
        <ele>792.20001220703</ele>
        <time>2019-02-20T09:03:50.000Z</time>
      </trkpt>
      <trkpt lat="45.31569" lon="4.58629">
        <ele>792.20001220703</ele>
        <time>2019-02-20T09:03:51.000Z</time>
      </trkpt>
      <trkpt lat="45.31571" lon="4.58628">
        <ele>792.40002441406</ele>
        <time>2019-02-20T09:03:52.000Z</time>
      </trkpt>
      <trkpt lat="45.31572" lon="4.58628">
        <ele>792.40002441406</ele>
        <time>2019-02-20T09:03:53.000Z</time>
      </trkpt>
      <trkpt lat="45.31573" lon="4.58627">
        <ele>792.59997558594</ele>
        <time>2019-02-20T09:03:54.000Z</time>
      </trkpt>
      <trkpt lat="45.31575" lon="4.58626">
        <ele>792.79998779297</ele>
        <time>2019-02-20T09:03:55.000Z</time>
      </trkpt>
      <trkpt lat="45.31576" lon="4.58626">
        <ele>792.79998779297</ele>
        <time>2019-02-20T09:03:56.000Z</time>
      </trkpt>
      <trkpt lat="45.31577" lon="4.58625">
        <ele>792.79998779297</ele>
        <time>2019-02-20T09:03:57.000Z</time>
      </trkpt>
      <trkpt lat="45.31579" lon="4.58624">
        <ele>792.79998779297</ele>
        <time>2019-02-20T09:03:58.000Z</time>
      </trkpt>
      <trkpt lat="45.31581" lon="4.58623">
        <ele>792.79998779297</ele>
        <time>2019-02-20T09:03:59.000Z</time>
      </trkpt>
      <trkpt lat="45.31582" lon="4.58622">
        <ele>793.20001220703</ele>
        <time>2019-02-20T09:04:00.000Z</time>
      </trkpt>
      <trkpt lat="45.31584" lon="4.58621">
        <ele>793.40002441406</ele>
        <time>2019-02-20T09:04:01.000Z</time>
      </trkpt>
      <trkpt lat="45.31585" lon="4.5862">
        <ele>793.59997558594</ele>
        <time>2019-02-20T09:04:02.000Z</time>
      </trkpt>
      <trkpt lat="45.31586" lon="4.5862">
        <ele>793.79998779297</ele>
        <time>2019-02-20T09:04:03.000Z</time>
      </trkpt>
      <trkpt lat="45.31587" lon="4.58619">
        <ele>793.79998779297</ele>
        <time>2019-02-20T09:04:04.000Z</time>
      </trkpt>
      <trkpt lat="45.31589" lon="4.58618">
        <ele>794</ele>
        <time>2019-02-20T09:04:05.000Z</time>
      </trkpt>
      <trkpt lat="45.3159" lon="4.58617">
        <ele>794</ele>
        <time>2019-02-20T09:04:06.000Z</time>
      </trkpt>
      <trkpt lat="45.31591" lon="4.58616">
        <ele>794.20001220703</ele>
        <time>2019-02-20T09:04:07.000Z</time>
      </trkpt>
      <trkpt lat="45.31592" lon="4.58615">
        <ele>794.20001220703</ele>
        <time>2019-02-20T09:04:08.000Z</time>
      </trkpt>
      <trkpt lat="45.31593" lon="4.58614">
        <ele>794.40002441406</ele>
        <time>2019-02-20T09:04:09.000Z</time>
      </trkpt>
      <trkpt lat="45.31595" lon="4.58614">
        <ele>794.40002441406</ele>
        <time>2019-02-20T09:04:10.000Z</time>
      </trkpt>
      <trkpt lat="45.31596" lon="4.58613">
        <ele>794.59997558594</ele>
        <time>2019-02-20T09:04:11.000Z</time>
      </trkpt>
      <trkpt lat="45.31597" lon="4.58612">
        <ele>794.59997558594</ele>
        <time>2019-02-20T09:04:12.000Z</time>
      </trkpt>
      <trkpt lat="45.31598" lon="4.58612">
        <ele>794.79998779297</ele>
        <time>2019-02-20T09:04:13.000Z</time>
      </trkpt>
      <trkpt lat="45.316" lon="4.58612">
        <ele>794.79998779297</ele>
        <time>2019-02-20T09:04:14.000Z</time>
      </trkpt>
      <trkpt lat="45.31601" lon="4.58611">
        <ele>795</ele>
        <time>2019-02-20T09:04:15.000Z</time>
      </trkpt>
      <trkpt lat="45.31602" lon="4.5861">
        <ele>795.40002441406</ele>
        <time>2019-02-20T09:04:16.000Z</time>
      </trkpt>
      <trkpt lat="45.31603" lon="4.58609">
        <ele>795.40002441406</ele>
        <time>2019-02-20T09:04:17.000Z</time>
      </trkpt>
      <trkpt lat="45.31605" lon="4.58609">
        <ele>795.59997558594</ele>
        <time>2019-02-20T09:04:18.000Z</time>
      </trkpt>
      <trkpt lat="45.31606" lon="4.58608">
        <ele>795.79998779297</ele>
        <time>2019-02-20T09:04:19.000Z</time>
      </trkpt>
      <trkpt lat="45.31607" lon="4.58608">
        <ele>796.20001220703</ele>
        <time>2019-02-20T09:04:20.000Z</time>
      </trkpt>
      <trkpt lat="45.31609" lon="4.58607">
        <ele>796.59997558594</ele>
        <time>2019-02-20T09:04:21.000Z</time>
      </trkpt>
      <trkpt lat="45.3161" lon="4.58606">
        <ele>796.59997558594</ele>
        <time>2019-02-20T09:04:22.000Z</time>
      </trkpt>
      <trkpt lat="45.31612" lon="4.58606">
        <ele>796.79998779297</ele>
        <time>2019-02-20T09:04:23.000Z</time>
      </trkpt>
      <trkpt lat="45.31614" lon="4.58605">
        <ele>796.79998779297</ele>
        <time>2019-02-20T09:04:24.000Z</time>
      </trkpt>
      <trkpt lat="45.31615" lon="4.58605">
        <ele>796.79998779297</ele>
        <time>2019-02-20T09:04:25.000Z</time>
      </trkpt>
      <trkpt lat="45.31617" lon="4.58606">
        <ele>797</ele>
        <time>2019-02-20T09:04:26.000Z</time>
      </trkpt>
      <trkpt lat="45.31619" lon="4.58606">
        <ele>797</ele>
        <time>2019-02-20T09:04:27.000Z</time>
      </trkpt>
      <trkpt lat="45.31621" lon="4.58606">
        <ele>797.40002441406</ele>
        <time>2019-02-20T09:04:28.000Z</time>
      </trkpt>
      <trkpt lat="45.31622" lon="4.58607">
        <ele>797.40002441406</ele>
        <time>2019-02-20T09:04:29.000Z</time>
      </trkpt>
      <trkpt lat="45.31624" lon="4.58607">
        <ele>797.59997558594</ele>
        <time>2019-02-20T09:04:30.000Z</time>
      </trkpt>
      <trkpt lat="45.31626" lon="4.58608">
        <ele>797.59997558594</ele>
        <time>2019-02-20T09:04:31.000Z</time>
      </trkpt>
      <trkpt lat="45.31627" lon="4.58608">
        <ele>797.79998779297</ele>
        <time>2019-02-20T09:04:32.000Z</time>
      </trkpt>
      <trkpt lat="45.31628" lon="4.58609">
        <ele>798.20001220703</ele>
        <time>2019-02-20T09:04:33.000Z</time>
      </trkpt>
      <trkpt lat="45.3163" lon="4.5861">
        <ele>798.20001220703</ele>
        <time>2019-02-20T09:04:34.000Z</time>
      </trkpt>
      <trkpt lat="45.31631" lon="4.5861">
        <ele>798.40002441406</ele>
        <time>2019-02-20T09:04:35.000Z</time>
      </trkpt>
      <trkpt lat="45.31633" lon="4.58611">
        <ele>798.59997558594</ele>
        <time>2019-02-20T09:04:36.000Z</time>
      </trkpt>
      <trkpt lat="45.31634" lon="4.58612">
        <ele>798.59997558594</ele>
        <time>2019-02-20T09:04:37.000Z</time>
      </trkpt>
      <trkpt lat="45.31636" lon="4.58613">
        <ele>798.59997558594</ele>
        <time>2019-02-20T09:04:38.000Z</time>
      </trkpt>
      <trkpt lat="45.31638" lon="4.58614">
        <ele>798.79998779297</ele>
        <time>2019-02-20T09:04:39.000Z</time>
      </trkpt>
      <trkpt lat="45.3164" lon="4.58615">
        <ele>798.79998779297</ele>
        <time>2019-02-20T09:04:40.000Z</time>
      </trkpt>
      <trkpt lat="45.31641" lon="4.58616">
        <ele>799.20001220703</ele>
        <time>2019-02-20T09:04:41.000Z</time>
      </trkpt>
      <trkpt lat="45.31643" lon="4.58617">
        <ele>799.20001220703</ele>
        <time>2019-02-20T09:04:42.000Z</time>
      </trkpt>
      <trkpt lat="45.31644" lon="4.58618">
        <ele>799.40002441406</ele>
        <time>2019-02-20T09:04:43.000Z</time>
      </trkpt>
      <trkpt lat="45.31646" lon="4.58618">
        <ele>799.40002441406</ele>
        <time>2019-02-20T09:04:44.000Z</time>
      </trkpt>
      <trkpt lat="45.31648" lon="4.58618">
        <ele>799.40002441406</ele>
        <time>2019-02-20T09:04:45.000Z</time>
      </trkpt>
      <trkpt lat="45.3165" lon="4.58618">
        <ele>799.59997558594</ele>
        <time>2019-02-20T09:04:46.000Z</time>
      </trkpt>
      <trkpt lat="45.31651" lon="4.58619">
        <ele>799.79998779297</ele>
        <time>2019-02-20T09:04:47.000Z</time>
      </trkpt>
      <trkpt lat="45.31652" lon="4.58619">
        <ele>799.79998779297</ele>
        <time>2019-02-20T09:04:48.000Z</time>
      </trkpt>
      <trkpt lat="45.31653" lon="4.58619">
        <ele>800</ele>
        <time>2019-02-20T09:04:49.000Z</time>
      </trkpt>
      <trkpt lat="45.31654" lon="4.58619">
        <ele>800</ele>
        <time>2019-02-20T09:04:50.000Z</time>
      </trkpt>
      <trkpt lat="45.31656" lon="4.58619">
        <ele>800.20001220703</ele>
        <time>2019-02-20T09:04:51.000Z</time>
      </trkpt>
      <trkpt lat="45.31657" lon="4.58619">
        <ele>800.20001220703</ele>
        <time>2019-02-20T09:04:52.000Z</time>
      </trkpt>
      <trkpt lat="45.31659" lon="4.58619">
        <ele>800.40002441406</ele>
        <time>2019-02-20T09:04:53.000Z</time>
      </trkpt>
      <trkpt lat="45.3166" lon="4.58618">
        <ele>800.59997558594</ele>
        <time>2019-02-20T09:04:54.000Z</time>
      </trkpt>
      <trkpt lat="45.31661" lon="4.58618">
        <ele>800.59997558594</ele>
        <time>2019-02-20T09:04:55.000Z</time>
      </trkpt>
      <trkpt lat="45.31663" lon="4.58617">
        <ele>800.79998779297</ele>
        <time>2019-02-20T09:04:56.000Z</time>
      </trkpt>
      <trkpt lat="45.31664" lon="4.58617">
        <ele>800.79998779297</ele>
        <time>2019-02-20T09:04:57.000Z</time>
      </trkpt>
      <trkpt lat="45.31665" lon="4.58617">
        <ele>800.79998779297</ele>
        <time>2019-02-20T09:04:58.000Z</time>
      </trkpt>
      <trkpt lat="45.31667" lon="4.58616">
        <ele>800.59997558594</ele>
        <time>2019-02-20T09:04:59.000Z</time>
      </trkpt>
      <trkpt lat="45.31668" lon="4.58616">
        <ele>800.79998779297</ele>
        <time>2019-02-20T09:05:00.000Z</time>
      </trkpt>
      <trkpt lat="45.3167" lon="4.58616">
        <ele>800.79998779297</ele>
        <time>2019-02-20T09:05:01.000Z</time>
      </trkpt>
      <trkpt lat="45.31671" lon="4.58615">
        <ele>801</ele>
        <time>2019-02-20T09:05:02.000Z</time>
      </trkpt>
      <trkpt lat="45.31672" lon="4.58615">
        <ele>801</ele>
        <time>2019-02-20T09:05:03.000Z</time>
      </trkpt>
      <trkpt lat="45.31673" lon="4.58614">
        <ele>801.20001220703</ele>
        <time>2019-02-20T09:05:04.000Z</time>
      </trkpt>
      <trkpt lat="45.31675" lon="4.58613">
        <ele>801</ele>
        <time>2019-02-20T09:05:05.000Z</time>
      </trkpt>
      <trkpt lat="45.31676" lon="4.58612">
        <ele>801.20001220703</ele>
        <time>2019-02-20T09:05:06.000Z</time>
      </trkpt>
      <trkpt lat="45.31677" lon="4.58612">
        <ele>801.20001220703</ele>
        <time>2019-02-20T09:05:07.000Z</time>
      </trkpt>
      <trkpt lat="45.31679" lon="4.58611">
        <ele>801.20001220703</ele>
        <time>2019-02-20T09:05:08.000Z</time>
      </trkpt>
      <trkpt lat="45.31681" lon="4.58611">
        <ele>801.20001220703</ele>
        <time>2019-02-20T09:05:09.000Z</time>
      </trkpt>
      <trkpt lat="45.31682" lon="4.5861">
        <ele>801.59997558594</ele>
        <time>2019-02-20T09:05:10.000Z</time>
      </trkpt>
      <trkpt lat="45.31684" lon="4.5861">
        <ele>801.59997558594</ele>
        <time>2019-02-20T09:05:11.000Z</time>
      </trkpt>
      <trkpt lat="45.31685" lon="4.58609">
        <ele>801.40002441406</ele>
        <time>2019-02-20T09:05:12.000Z</time>
      </trkpt>
      <trkpt lat="45.31687" lon="4.58609">
        <ele>801.59997558594</ele>
        <time>2019-02-20T09:05:13.000Z</time>
      </trkpt>
      <trkpt lat="45.31689" lon="4.58609">
        <ele>801.79998779297</ele>
        <time>2019-02-20T09:05:14.000Z</time>
      </trkpt>
      <trkpt lat="45.31691" lon="4.58608">
        <ele>801.79998779297</ele>
        <time>2019-02-20T09:05:15.000Z</time>
      </trkpt>
      <trkpt lat="45.31693" lon="4.58607">
        <ele>801.79998779297</ele>
        <time>2019-02-20T09:05:16.000Z</time>
      </trkpt>
      <trkpt lat="45.31695" lon="4.58606">
        <ele>801.79998779297</ele>
        <time>2019-02-20T09:05:17.000Z</time>
      </trkpt>
      <trkpt lat="45.31696" lon="4.58605">
        <ele>802</ele>
        <time>2019-02-20T09:05:18.000Z</time>
      </trkpt>
      <trkpt lat="45.31697" lon="4.58604">
        <ele>802</ele>
        <time>2019-02-20T09:05:19.000Z</time>
      </trkpt>
      <trkpt lat="45.31699" lon="4.58603">
        <ele>802.20001220703</ele>
        <time>2019-02-20T09:05:20.000Z</time>
      </trkpt>
      <trkpt lat="45.317" lon="4.58602">
        <ele>802</ele>
        <time>2019-02-20T09:05:21.000Z</time>
      </trkpt>
      <trkpt lat="45.31701" lon="4.586">
        <ele>802</ele>
        <time>2019-02-20T09:05:22.000Z</time>
      </trkpt>
      <trkpt lat="45.31702" lon="4.58598">
        <ele>802.20001220703</ele>
        <time>2019-02-20T09:05:23.000Z</time>
      </trkpt>
      <trkpt lat="45.31703" lon="4.58597">
        <ele>802.20001220703</ele>
        <time>2019-02-20T09:05:24.000Z</time>
      </trkpt>
      <trkpt lat="45.31704" lon="4.58596">
        <ele>802.20001220703</ele>
        <time>2019-02-20T09:05:25.000Z</time>
      </trkpt>
      <trkpt lat="45.31704" lon="4.58594">
        <ele>802.40002441406</ele>
        <time>2019-02-20T09:05:26.000Z</time>
      </trkpt>
      <trkpt lat="45.31705" lon="4.58593">
        <ele>802.40002441406</ele>
        <time>2019-02-20T09:05:27.000Z</time>
      </trkpt>
      <trkpt lat="45.31706" lon="4.58592">
        <ele>802.59997558594</ele>
        <time>2019-02-20T09:05:28.000Z</time>
      </trkpt>
      <trkpt lat="45.31707" lon="4.58591">
        <ele>802.79998779297</ele>
        <time>2019-02-20T09:05:29.000Z</time>
      </trkpt>
      <trkpt lat="45.31707" lon="4.5859">
        <ele>803</ele>
        <time>2019-02-20T09:05:30.000Z</time>
      </trkpt>
      <trkpt lat="45.31709" lon="4.58588">
        <ele>803.20001220703</ele>
        <time>2019-02-20T09:05:31.000Z</time>
      </trkpt>
      <trkpt lat="45.3171" lon="4.58587">
        <ele>803.40002441406</ele>
        <time>2019-02-20T09:05:32.000Z</time>
      </trkpt>
      <trkpt lat="45.31711" lon="4.58585">
        <ele>803.79998779297</ele>
        <time>2019-02-20T09:05:33.000Z</time>
      </trkpt>
      <trkpt lat="45.31712" lon="4.58584">
        <ele>803.79998779297</ele>
        <time>2019-02-20T09:05:34.000Z</time>
      </trkpt>
      <trkpt lat="45.31712" lon="4.58583">
        <ele>804</ele>
        <time>2019-02-20T09:05:35.000Z</time>
      </trkpt>
      <trkpt lat="45.31713" lon="4.58582">
        <ele>804.20001220703</ele>
        <time>2019-02-20T09:05:36.000Z</time>
      </trkpt>
      <trkpt lat="45.31713" lon="4.5858">
        <ele>804.40002441406</ele>
        <time>2019-02-20T09:05:37.000Z</time>
      </trkpt>
      <trkpt lat="45.31714" lon="4.5858">
        <ele>804.59997558594</ele>
        <time>2019-02-20T09:05:38.000Z</time>
      </trkpt>
      <trkpt lat="45.31714" lon="4.58578">
        <ele>804.79998779297</ele>
        <time>2019-02-20T09:05:39.000Z</time>
      </trkpt>
      <trkpt lat="45.31715" lon="4.58577">
        <ele>804.79998779297</ele>
        <time>2019-02-20T09:05:40.000Z</time>
      </trkpt>
      <trkpt lat="45.31716" lon="4.58576">
        <ele>805</ele>
        <time>2019-02-20T09:05:41.000Z</time>
      </trkpt>
      <trkpt lat="45.31717" lon="4.58575">
        <ele>804.79998779297</ele>
        <time>2019-02-20T09:05:42.000Z</time>
      </trkpt>
      <trkpt lat="45.31718" lon="4.58573">
        <ele>805</ele>
        <time>2019-02-20T09:05:43.000Z</time>
      </trkpt>
      <trkpt lat="45.31719" lon="4.58572">
        <ele>805.20001220703</ele>
        <time>2019-02-20T09:05:44.000Z</time>
      </trkpt>
      <trkpt lat="45.31721" lon="4.58571">
        <ele>805.40002441406</ele>
        <time>2019-02-20T09:05:45.000Z</time>
      </trkpt>
      <trkpt lat="45.31722" lon="4.5857">
        <ele>805.40002441406</ele>
        <time>2019-02-20T09:05:46.000Z</time>
      </trkpt>
      <trkpt lat="45.31723" lon="4.58568">
        <ele>805.59997558594</ele>
        <time>2019-02-20T09:05:47.000Z</time>
      </trkpt>
      <trkpt lat="45.31724" lon="4.58567">
        <ele>805.79998779297</ele>
        <time>2019-02-20T09:05:48.000Z</time>
      </trkpt>
      <trkpt lat="45.31726" lon="4.58565">
        <ele>806</ele>
        <time>2019-02-20T09:05:49.000Z</time>
      </trkpt>
      <trkpt lat="45.31727" lon="4.58564">
        <ele>806</ele>
        <time>2019-02-20T09:05:50.000Z</time>
      </trkpt>
      <trkpt lat="45.31728" lon="4.58562">
        <ele>806.20001220703</ele>
        <time>2019-02-20T09:05:51.000Z</time>
      </trkpt>
      <trkpt lat="45.31729" lon="4.5856">
        <ele>806.40002441406</ele>
        <time>2019-02-20T09:05:52.000Z</time>
      </trkpt>
      <trkpt lat="45.3173" lon="4.58558">
        <ele>806.79998779297</ele>
        <time>2019-02-20T09:05:53.000Z</time>
      </trkpt>
      <trkpt lat="45.31732" lon="4.58557">
        <ele>807</ele>
        <time>2019-02-20T09:05:54.000Z</time>
      </trkpt>
      <trkpt lat="45.31733" lon="4.58556">
        <ele>807.20001220703</ele>
        <time>2019-02-20T09:05:55.000Z</time>
      </trkpt>
      <trkpt lat="45.31735" lon="4.58554">
        <ele>807.20001220703</ele>
        <time>2019-02-20T09:05:56.000Z</time>
      </trkpt>
      <trkpt lat="45.31736" lon="4.58553">
        <ele>807.40002441406</ele>
        <time>2019-02-20T09:05:57.000Z</time>
      </trkpt>
      <trkpt lat="45.31737" lon="4.58552">
        <ele>807.79998779297</ele>
        <time>2019-02-20T09:05:58.000Z</time>
      </trkpt>
      <trkpt lat="45.31738" lon="4.58551">
        <ele>808</ele>
        <time>2019-02-20T09:05:59.000Z</time>
      </trkpt>
      <trkpt lat="45.31739" lon="4.5855">
        <ele>808.40002441406</ele>
        <time>2019-02-20T09:06:00.000Z</time>
      </trkpt>
      <trkpt lat="45.3174" lon="4.58549">
        <ele>808.59997558594</ele>
        <time>2019-02-20T09:06:01.000Z</time>
      </trkpt>
      <trkpt lat="45.31741" lon="4.58547">
        <ele>808.59997558594</ele>
        <time>2019-02-20T09:06:02.000Z</time>
      </trkpt>
      <trkpt lat="45.31742" lon="4.58545">
        <ele>809</ele>
        <time>2019-02-20T09:06:03.000Z</time>
      </trkpt>
      <trkpt lat="45.31743" lon="4.58544">
        <ele>809.59997558594</ele>
        <time>2019-02-20T09:06:04.000Z</time>
      </trkpt>
      <trkpt lat="45.31744" lon="4.58542">
        <ele>809.59997558594</ele>
        <time>2019-02-20T09:06:05.000Z</time>
      </trkpt>
      <trkpt lat="45.31745" lon="4.58541">
        <ele>809.79998779297</ele>
        <time>2019-02-20T09:06:06.000Z</time>
      </trkpt>
      <trkpt lat="45.31746" lon="4.58539">
        <ele>810</ele>
        <time>2019-02-20T09:06:07.000Z</time>
      </trkpt>
      <trkpt lat="45.31747" lon="4.58538">
        <ele>810.20001220703</ele>
        <time>2019-02-20T09:06:08.000Z</time>
      </trkpt>
      <trkpt lat="45.31748" lon="4.58536">
        <ele>810.40002441406</ele>
        <time>2019-02-20T09:06:09.000Z</time>
      </trkpt>
      <trkpt lat="45.31749" lon="4.58535">
        <ele>810.40002441406</ele>
        <time>2019-02-20T09:06:10.000Z</time>
      </trkpt>
      <trkpt lat="45.3175" lon="4.58533">
        <ele>810.40002441406</ele>
        <time>2019-02-20T09:06:11.000Z</time>
      </trkpt>
      <trkpt lat="45.31751" lon="4.58532">
        <ele>810.79998779297</ele>
        <time>2019-02-20T09:06:12.000Z</time>
      </trkpt>
      <trkpt lat="45.31753" lon="4.5853">
        <ele>810.79998779297</ele>
        <time>2019-02-20T09:06:13.000Z</time>
      </trkpt>
      <trkpt lat="45.31754" lon="4.58528">
        <ele>810.79998779297</ele>
        <time>2019-02-20T09:06:14.000Z</time>
      </trkpt>
      <trkpt lat="45.31756" lon="4.58527">
        <ele>810.79998779297</ele>
        <time>2019-02-20T09:06:15.000Z</time>
      </trkpt>
      <trkpt lat="45.31757" lon="4.58525">
        <ele>811</ele>
        <time>2019-02-20T09:06:16.000Z</time>
      </trkpt>
      <trkpt lat="45.31758" lon="4.58523">
        <ele>811</ele>
        <time>2019-02-20T09:06:17.000Z</time>
      </trkpt>
      <trkpt lat="45.3176" lon="4.58521">
        <ele>810.79998779297</ele>
        <time>2019-02-20T09:06:18.000Z</time>
      </trkpt>
      <trkpt lat="45.31761" lon="4.58519">
        <ele>811</ele>
        <time>2019-02-20T09:06:19.000Z</time>
      </trkpt>
      <trkpt lat="45.31763" lon="4.58518">
        <ele>811</ele>
        <time>2019-02-20T09:06:20.000Z</time>
      </trkpt>
      <trkpt lat="45.31765" lon="4.58515">
        <ele>811</ele>
        <time>2019-02-20T09:06:22.000Z</time>
      </trkpt>
      <trkpt lat="45.31766" lon="4.58514">
        <ele>811</ele>
        <time>2019-02-20T09:06:23.000Z</time>
      </trkpt>
      <trkpt lat="45.31767" lon="4.58512">
        <ele>811</ele>
        <time>2019-02-20T09:06:24.000Z</time>
      </trkpt>
      <trkpt lat="45.31768" lon="4.58511">
        <ele>811</ele>
        <time>2019-02-20T09:06:25.000Z</time>
      </trkpt>
      <trkpt lat="45.31769" lon="4.58509">
        <ele>811.20001220703</ele>
        <time>2019-02-20T09:06:26.000Z</time>
      </trkpt>
      <trkpt lat="45.3177" lon="4.58507">
        <ele>811.20001220703</ele>
        <time>2019-02-20T09:06:27.000Z</time>
      </trkpt>
      <trkpt lat="45.31771" lon="4.58506">
        <ele>811.20001220703</ele>
        <time>2019-02-20T09:06:28.000Z</time>
      </trkpt>
      <trkpt lat="45.31772" lon="4.58505">
        <ele>811.40002441406</ele>
        <time>2019-02-20T09:06:29.000Z</time>
      </trkpt>
      <trkpt lat="45.31774" lon="4.58503">
        <ele>811.40002441406</ele>
        <time>2019-02-20T09:06:30.000Z</time>
      </trkpt>
      <trkpt lat="45.31775" lon="4.58502">
        <ele>811.59997558594</ele>
        <time>2019-02-20T09:06:31.000Z</time>
      </trkpt>
      <trkpt lat="45.31776" lon="4.585">
        <ele>811.59997558594</ele>
        <time>2019-02-20T09:06:32.000Z</time>
      </trkpt>
      <trkpt lat="45.31778" lon="4.58499">
        <ele>811.59997558594</ele>
        <time>2019-02-20T09:06:33.000Z</time>
      </trkpt>
      <trkpt lat="45.31779" lon="4.58497">
        <ele>811.59997558594</ele>
        <time>2019-02-20T09:06:34.000Z</time>
      </trkpt>
      <trkpt lat="45.3178" lon="4.58496">
        <ele>811.79998779297</ele>
        <time>2019-02-20T09:06:35.000Z</time>
      </trkpt>
      <trkpt lat="45.31781" lon="4.58495">
        <ele>811.79998779297</ele>
        <time>2019-02-20T09:06:36.000Z</time>
      </trkpt>
      <trkpt lat="45.31783" lon="4.58494">
        <ele>812</ele>
        <time>2019-02-20T09:06:37.000Z</time>
      </trkpt>
      <trkpt lat="45.31783" lon="4.58494">
        <ele>812</ele>
        <time>2019-02-20T09:06:38.000Z</time>
      </trkpt>
      <trkpt lat="45.31785" lon="4.58492">
        <ele>812.20001220703</ele>
        <time>2019-02-20T09:06:39.000Z</time>
      </trkpt>
      <trkpt lat="45.31786" lon="4.58492">
        <ele>812.40002441406</ele>
        <time>2019-02-20T09:06:40.000Z</time>
      </trkpt>
      <trkpt lat="45.31787" lon="4.58491">
        <ele>812.40002441406</ele>
        <time>2019-02-20T09:06:41.000Z</time>
      </trkpt>
      <trkpt lat="45.31788" lon="4.5849">
        <ele>812.40002441406</ele>
        <time>2019-02-20T09:06:42.000Z</time>
      </trkpt>
      <trkpt lat="45.3179" lon="4.5849">
        <ele>812.59997558594</ele>
        <time>2019-02-20T09:06:43.000Z</time>
      </trkpt>
      <trkpt lat="45.31791" lon="4.5849">
        <ele>812.59997558594</ele>
        <time>2019-02-20T09:06:44.000Z</time>
      </trkpt>
      <trkpt lat="45.31792" lon="4.5849">
        <ele>812.59997558594</ele>
        <time>2019-02-20T09:06:45.000Z</time>
      </trkpt>
      <trkpt lat="45.31794" lon="4.5849">
        <ele>813</ele>
        <time>2019-02-20T09:06:46.000Z</time>
      </trkpt>
      <trkpt lat="45.31795" lon="4.5849">
        <ele>813</ele>
        <time>2019-02-20T09:06:47.000Z</time>
      </trkpt>
      <trkpt lat="45.31796" lon="4.5849">
        <ele>813.20001220703</ele>
        <time>2019-02-20T09:06:48.000Z</time>
      </trkpt>
      <trkpt lat="45.31798" lon="4.5849">
        <ele>813.20001220703</ele>
        <time>2019-02-20T09:06:49.000Z</time>
      </trkpt>
      <trkpt lat="45.31799" lon="4.5849">
        <ele>813.20001220703</ele>
        <time>2019-02-20T09:06:50.000Z</time>
      </trkpt>
      <trkpt lat="45.318" lon="4.5849">
        <ele>813.40002441406</ele>
        <time>2019-02-20T09:06:51.000Z</time>
      </trkpt>
      <trkpt lat="45.31801" lon="4.5849">
        <ele>813.40002441406</ele>
        <time>2019-02-20T09:06:52.000Z</time>
      </trkpt>
      <trkpt lat="45.31802" lon="4.5849">
        <ele>813.59997558594</ele>
        <time>2019-02-20T09:06:53.000Z</time>
      </trkpt>
      <trkpt lat="45.31804" lon="4.5849">
        <ele>813.79998779297</ele>
        <time>2019-02-20T09:06:54.000Z</time>
      </trkpt>
      <trkpt lat="45.31805" lon="4.5849">
        <ele>813.79998779297</ele>
        <time>2019-02-20T09:06:55.000Z</time>
      </trkpt>
      <trkpt lat="45.31806" lon="4.5849">
        <ele>813.79998779297</ele>
        <time>2019-02-20T09:06:56.000Z</time>
      </trkpt>
      <trkpt lat="45.31806" lon="4.58489">
        <ele>813.79998779297</ele>
        <time>2019-02-20T09:06:57.000Z</time>
      </trkpt>
      <trkpt lat="45.31807" lon="4.58488">
        <ele>813.79998779297</ele>
        <time>2019-02-20T09:06:58.000Z</time>
      </trkpt>
      <trkpt lat="45.31808" lon="4.58487">
        <ele>814</ele>
        <time>2019-02-20T09:06:59.000Z</time>
      </trkpt>
      <trkpt lat="45.31809" lon="4.58487">
        <ele>814.20001220703</ele>
        <time>2019-02-20T09:07:00.000Z</time>
      </trkpt>
      <trkpt lat="45.3181" lon="4.58486">
        <ele>814.40002441406</ele>
        <time>2019-02-20T09:07:01.000Z</time>
      </trkpt>
      <trkpt lat="45.3181" lon="4.58485">
        <ele>814.40002441406</ele>
        <time>2019-02-20T09:07:02.000Z</time>
      </trkpt>
      <trkpt lat="45.31811" lon="4.58484">
        <ele>814.79998779297</ele>
        <time>2019-02-20T09:07:03.000Z</time>
      </trkpt>
      <trkpt lat="45.31812" lon="4.58483">
        <ele>814.79998779297</ele>
        <time>2019-02-20T09:07:04.000Z</time>
      </trkpt>
      <trkpt lat="45.31813" lon="4.58483">
        <ele>815</ele>
        <time>2019-02-20T09:07:05.000Z</time>
      </trkpt>
      <trkpt lat="45.31813" lon="4.58482">
        <ele>815.20001220703</ele>
        <time>2019-02-20T09:07:06.000Z</time>
      </trkpt>
      <trkpt lat="45.31814" lon="4.58482">
        <ele>815.40002441406</ele>
        <time>2019-02-20T09:07:07.000Z</time>
      </trkpt>
      <trkpt lat="45.31814" lon="4.585">
        <ele>816</ele>
        <time>2019-02-20T09:11:59.000Z</time>
      </trkpt>
      <trkpt lat="45.31815" lon="4.58502">
        <ele>816</ele>
        <time>2019-02-20T09:12:00.000Z</time>
      </trkpt>
      <trkpt lat="45.31816" lon="4.58503">
        <ele>816.20001220703</ele>
        <time>2019-02-20T09:12:01.000Z</time>
      </trkpt>
      <trkpt lat="45.31817" lon="4.58505">
        <ele>816.20001220703</ele>
        <time>2019-02-20T09:12:02.000Z</time>
      </trkpt>
      <trkpt lat="45.31818" lon="4.58506">
        <ele>816.20001220703</ele>
        <time>2019-02-20T09:12:03.000Z</time>
      </trkpt>
      <trkpt lat="45.31819" lon="4.58508">
        <ele>816</ele>
        <time>2019-02-20T09:12:04.000Z</time>
      </trkpt>
      <trkpt lat="45.31819" lon="4.58509">
        <ele>816</ele>
        <time>2019-02-20T09:12:05.000Z</time>
      </trkpt>
      <trkpt lat="45.3182" lon="4.58511">
        <ele>816.20001220703</ele>
        <time>2019-02-20T09:12:06.000Z</time>
      </trkpt>
      <trkpt lat="45.31822" lon="4.58512">
        <ele>816.20001220703</ele>
        <time>2019-02-20T09:12:07.000Z</time>
      </trkpt>
      <trkpt lat="45.31823" lon="4.58514">
        <ele>816.20001220703</ele>
        <time>2019-02-20T09:12:08.000Z</time>
      </trkpt>
      <trkpt lat="45.31824" lon="4.58515">
        <ele>816.20001220703</ele>
        <time>2019-02-20T09:12:09.000Z</time>
      </trkpt>
      <trkpt lat="45.31825" lon="4.58517">
        <ele>816.20001220703</ele>
        <time>2019-02-20T09:12:10.000Z</time>
      </trkpt>
      <trkpt lat="45.31826" lon="4.58518">
        <ele>816.20001220703</ele>
        <time>2019-02-20T09:12:11.000Z</time>
      </trkpt>
      <trkpt lat="45.31827" lon="4.58519">
        <ele>816.40002441406</ele>
        <time>2019-02-20T09:12:12.000Z</time>
      </trkpt>
      <trkpt lat="45.31829" lon="4.58521">
        <ele>816.59997558594</ele>
        <time>2019-02-20T09:12:13.000Z</time>
      </trkpt>
      <trkpt lat="45.3183" lon="4.58522">
        <ele>816.59997558594</ele>
        <time>2019-02-20T09:12:14.000Z</time>
      </trkpt>
      <trkpt lat="45.31832" lon="4.58522">
        <ele>816.59997558594</ele>
        <time>2019-02-20T09:12:15.000Z</time>
      </trkpt>
      <trkpt lat="45.31833" lon="4.58523">
        <ele>816.59997558594</ele>
        <time>2019-02-20T09:12:16.000Z</time>
      </trkpt>
      <trkpt lat="45.31835" lon="4.58524">
        <ele>816.59997558594</ele>
        <time>2019-02-20T09:12:17.000Z</time>
      </trkpt>
      <trkpt lat="45.31837" lon="4.58524">
        <ele>816.79998779297</ele>
        <time>2019-02-20T09:12:18.000Z</time>
      </trkpt>
      <trkpt lat="45.31838" lon="4.58525">
        <ele>816.79998779297</ele>
        <time>2019-02-20T09:12:19.000Z</time>
      </trkpt>
      <trkpt lat="45.31839" lon="4.58526">
        <ele>817</ele>
        <time>2019-02-20T09:12:20.000Z</time>
      </trkpt>
      <trkpt lat="45.3184" lon="4.58527">
        <ele>817</ele>
        <time>2019-02-20T09:12:21.000Z</time>
      </trkpt>
      <trkpt lat="45.31842" lon="4.58528">
        <ele>817.20001220703</ele>
        <time>2019-02-20T09:12:22.000Z</time>
      </trkpt>
      <trkpt lat="45.31843" lon="4.58529">
        <ele>817.40002441406</ele>
        <time>2019-02-20T09:12:23.000Z</time>
      </trkpt>
      <trkpt lat="45.31845" lon="4.5853">
        <ele>817.40002441406</ele>
        <time>2019-02-20T09:12:24.000Z</time>
      </trkpt>
      <trkpt lat="45.31847" lon="4.58531">
        <ele>817.40002441406</ele>
        <time>2019-02-20T09:12:25.000Z</time>
      </trkpt>
      <trkpt lat="45.31849" lon="4.58532">
        <ele>817.40002441406</ele>
        <time>2019-02-20T09:12:26.000Z</time>
      </trkpt>
      <trkpt lat="45.31852" lon="4.58533">
        <ele>817.59997558594</ele>
        <time>2019-02-20T09:12:27.000Z</time>
      </trkpt>
      <trkpt lat="45.31854" lon="4.58534">
        <ele>817.79998779297</ele>
        <time>2019-02-20T09:12:28.000Z</time>
      </trkpt>
      <trkpt lat="45.31857" lon="4.58535">
        <ele>818.20001220703</ele>
        <time>2019-02-20T09:12:29.000Z</time>
      </trkpt>
      <trkpt lat="45.3186" lon="4.58536">
        <ele>818.20001220703</ele>
        <time>2019-02-20T09:12:30.000Z</time>
      </trkpt>
      <trkpt lat="45.31863" lon="4.58537">
        <ele>818.20001220703</ele>
        <time>2019-02-20T09:12:31.000Z</time>
      </trkpt>
      <trkpt lat="45.31866" lon="4.58538">
        <ele>818.20001220703</ele>
        <time>2019-02-20T09:12:32.000Z</time>
      </trkpt>
      <trkpt lat="45.31869" lon="4.58538">
        <ele>818.40002441406</ele>
        <time>2019-02-20T09:12:33.000Z</time>
      </trkpt>
      <trkpt lat="45.31872" lon="4.58538">
        <ele>818.20001220703</ele>
        <time>2019-02-20T09:12:34.000Z</time>
      </trkpt>
      <trkpt lat="45.31876" lon="4.58539">
        <ele>818.40002441406</ele>
        <time>2019-02-20T09:12:35.000Z</time>
      </trkpt>
      <trkpt lat="45.31879" lon="4.5854">
        <ele>818.20001220703</ele>
        <time>2019-02-20T09:12:36.000Z</time>
      </trkpt>
      <trkpt lat="45.31882" lon="4.58543">
        <ele>818.40002441406</ele>
        <time>2019-02-20T09:12:37.000Z</time>
      </trkpt>
      <trkpt lat="45.31885" lon="4.58547">
        <ele>818.20001220703</ele>
        <time>2019-02-20T09:12:38.000Z</time>
      </trkpt>
      <trkpt lat="45.31888" lon="4.5855">
        <ele>818.20001220703</ele>
        <time>2019-02-20T09:12:39.000Z</time>
      </trkpt>
      <trkpt lat="45.31891" lon="4.58553">
        <ele>818</ele>
        <time>2019-02-20T09:12:40.000Z</time>
      </trkpt>
      <trkpt lat="45.31894" lon="4.58556">
        <ele>818</ele>
        <time>2019-02-20T09:12:41.000Z</time>
      </trkpt>
      <trkpt lat="45.31896" lon="4.58558">
        <ele>817.79998779297</ele>
        <time>2019-02-20T09:12:42.000Z</time>
      </trkpt>
      <trkpt lat="45.31899" lon="4.58561">
        <ele>817.59997558594</ele>
        <time>2019-02-20T09:12:43.000Z</time>
      </trkpt>
      <trkpt lat="45.31901" lon="4.58564">
        <ele>817.20001220703</ele>
        <time>2019-02-20T09:12:44.000Z</time>
      </trkpt>
      <trkpt lat="45.31904" lon="4.58567">
        <ele>817.20001220703</ele>
        <time>2019-02-20T09:12:45.000Z</time>
      </trkpt>
      <trkpt lat="45.31907" lon="4.5857">
        <ele>817</ele>
        <time>2019-02-20T09:12:46.000Z</time>
      </trkpt>
      <trkpt lat="45.3191" lon="4.58573">
        <ele>816.79998779297</ele>
        <time>2019-02-20T09:12:47.000Z</time>
      </trkpt>
      <trkpt lat="45.31914" lon="4.58576">
        <ele>816.79998779297</ele>
        <time>2019-02-20T09:12:48.000Z</time>
      </trkpt>
      <trkpt lat="45.31917" lon="4.58579">
        <ele>816.59997558594</ele>
        <time>2019-02-20T09:12:49.000Z</time>
      </trkpt>
      <trkpt lat="45.31921" lon="4.58581">
        <ele>816.20001220703</ele>
        <time>2019-02-20T09:12:50.000Z</time>
      </trkpt>
      <trkpt lat="45.31924" lon="4.58584">
        <ele>816</ele>
        <time>2019-02-20T09:12:51.000Z</time>
      </trkpt>
      <trkpt lat="45.31928" lon="4.58587">
        <ele>815.79998779297</ele>
        <time>2019-02-20T09:12:52.000Z</time>
      </trkpt>
      <trkpt lat="45.31931" lon="4.58589">
        <ele>815.79998779297</ele>
        <time>2019-02-20T09:12:53.000Z</time>
      </trkpt>
      <trkpt lat="45.31934" lon="4.5859">
        <ele>815.40002441406</ele>
        <time>2019-02-20T09:12:54.000Z</time>
      </trkpt>
      <trkpt lat="45.31937" lon="4.58592">
        <ele>815.40002441406</ele>
        <time>2019-02-20T09:12:55.000Z</time>
      </trkpt>
      <trkpt lat="45.3194" lon="4.58592">
        <ele>815</ele>
        <time>2019-02-20T09:12:56.000Z</time>
      </trkpt>
      <trkpt lat="45.31943" lon="4.58593">
        <ele>814.59997558594</ele>
        <time>2019-02-20T09:12:57.000Z</time>
      </trkpt>
      <trkpt lat="45.31946" lon="4.58593">
        <ele>814.40002441406</ele>
        <time>2019-02-20T09:12:58.000Z</time>
      </trkpt>
      <trkpt lat="45.31948" lon="4.58593">
        <ele>814.20001220703</ele>
        <time>2019-02-20T09:12:59.000Z</time>
      </trkpt>
      <trkpt lat="45.31951" lon="4.58593">
        <ele>814</ele>
        <time>2019-02-20T09:13:00.000Z</time>
      </trkpt>
      <trkpt lat="45.31955" lon="4.58593">
        <ele>814</ele>
        <time>2019-02-20T09:13:01.000Z</time>
      </trkpt>
      <trkpt lat="45.31959" lon="4.58594">
        <ele>813.79998779297</ele>
        <time>2019-02-20T09:13:02.000Z</time>
      </trkpt>
      <trkpt lat="45.31963" lon="4.58596">
        <ele>813.79998779297</ele>
        <time>2019-02-20T09:13:03.000Z</time>
      </trkpt>
      <trkpt lat="45.31967" lon="4.58599">
        <ele>813.59997558594</ele>
        <time>2019-02-20T09:13:04.000Z</time>
      </trkpt>
      <trkpt lat="45.31971" lon="4.58601">
        <ele>813.59997558594</ele>
        <time>2019-02-20T09:13:05.000Z</time>
      </trkpt>
      <trkpt lat="45.31974" lon="4.58604">
        <ele>813.59997558594</ele>
        <time>2019-02-20T09:13:06.000Z</time>
      </trkpt>
      <trkpt lat="45.31977" lon="4.58607">
        <ele>813.40002441406</ele>
        <time>2019-02-20T09:13:07.000Z</time>
      </trkpt>
      <trkpt lat="45.3198" lon="4.5861">
        <ele>813.20001220703</ele>
        <time>2019-02-20T09:13:08.000Z</time>
      </trkpt>
      <trkpt lat="45.31983" lon="4.58614">
        <ele>813</ele>
        <time>2019-02-20T09:13:09.000Z</time>
      </trkpt>
      <trkpt lat="45.31987" lon="4.58619">
        <ele>812.59997558594</ele>
        <time>2019-02-20T09:13:10.000Z</time>
      </trkpt>
      <trkpt lat="45.3199" lon="4.58622">
        <ele>812.59997558594</ele>
        <time>2019-02-20T09:13:11.000Z</time>
      </trkpt>
      <trkpt lat="45.31993" lon="4.58625">
        <ele>812.40002441406</ele>
        <time>2019-02-20T09:13:12.000Z</time>
      </trkpt>
      <trkpt lat="45.31995" lon="4.58628">
        <ele>812</ele>
        <time>2019-02-20T09:13:13.000Z</time>
      </trkpt>
      <trkpt lat="45.31997" lon="4.58631">
        <ele>812</ele>
        <time>2019-02-20T09:13:14.000Z</time>
      </trkpt>
      <trkpt lat="45.32" lon="4.58635">
        <ele>811.79998779297</ele>
        <time>2019-02-20T09:13:15.000Z</time>
      </trkpt>
      <trkpt lat="45.32002" lon="4.58637">
        <ele>811.79998779297</ele>
        <time>2019-02-20T09:13:16.000Z</time>
      </trkpt>
      <trkpt lat="45.32004" lon="4.5864">
        <ele>811.59997558594</ele>
        <time>2019-02-20T09:13:17.000Z</time>
      </trkpt>
      <trkpt lat="45.32007" lon="4.58642">
        <ele>811.40002441406</ele>
        <time>2019-02-20T09:13:18.000Z</time>
      </trkpt>
      <trkpt lat="45.32009" lon="4.58644">
        <ele>811.59997558594</ele>
        <time>2019-02-20T09:13:19.000Z</time>
      </trkpt>
      <trkpt lat="45.32012" lon="4.58647">
        <ele>811.40002441406</ele>
        <time>2019-02-20T09:13:20.000Z</time>
      </trkpt>
      <trkpt lat="45.32015" lon="4.58651">
        <ele>811.40002441406</ele>
        <time>2019-02-20T09:13:21.000Z</time>
      </trkpt>
      <trkpt lat="45.32017" lon="4.58655">
        <ele>811.20001220703</ele>
        <time>2019-02-20T09:13:22.000Z</time>
      </trkpt>
      <trkpt lat="45.3202" lon="4.58658">
        <ele>811</ele>
        <time>2019-02-20T09:13:23.000Z</time>
      </trkpt>
      <trkpt lat="45.32023" lon="4.58662">
        <ele>811</ele>
        <time>2019-02-20T09:13:24.000Z</time>
      </trkpt>
      <trkpt lat="45.32027" lon="4.58665">
        <ele>810.79998779297</ele>
        <time>2019-02-20T09:13:25.000Z</time>
      </trkpt>
      <trkpt lat="45.32029" lon="4.58669">
        <ele>810.79998779297</ele>
        <time>2019-02-20T09:13:26.000Z</time>
      </trkpt>
      <trkpt lat="45.32032" lon="4.58674">
        <ele>810.79998779297</ele>
        <time>2019-02-20T09:13:27.000Z</time>
      </trkpt>
      <trkpt lat="45.32035" lon="4.58678">
        <ele>810.79998779297</ele>
        <time>2019-02-20T09:13:28.000Z</time>
      </trkpt>
      <trkpt lat="45.32038" lon="4.58683">
        <ele>810.59997558594</ele>
        <time>2019-02-20T09:13:29.000Z</time>
      </trkpt>
      <trkpt lat="45.32042" lon="4.58688">
        <ele>810.20001220703</ele>
        <time>2019-02-20T09:13:30.000Z</time>
      </trkpt>
      <trkpt lat="45.32045" lon="4.58694">
        <ele>810</ele>
        <time>2019-02-20T09:13:31.000Z</time>
      </trkpt>
      <trkpt lat="45.32048" lon="4.58699">
        <ele>809.79998779297</ele>
        <time>2019-02-20T09:13:32.000Z</time>
      </trkpt>
      <trkpt lat="45.32051" lon="4.58704">
        <ele>809.40002441406</ele>
        <time>2019-02-20T09:13:33.000Z</time>
      </trkpt>
      <trkpt lat="45.32054" lon="4.58708">
        <ele>809.20001220703</ele>
        <time>2019-02-20T09:13:34.000Z</time>
      </trkpt>
      <trkpt lat="45.32058" lon="4.58712">
        <ele>808.59997558594</ele>
        <time>2019-02-20T09:13:35.000Z</time>
      </trkpt>
      <trkpt lat="45.32062" lon="4.58716">
        <ele>807.40002441406</ele>
        <time>2019-02-20T09:13:36.000Z</time>
      </trkpt>
      <trkpt lat="45.32067" lon="4.5872">
        <ele>806.79998779297</ele>
        <time>2019-02-20T09:13:37.000Z</time>
      </trkpt>
      <trkpt lat="45.32071" lon="4.58724">
        <ele>806.20001220703</ele>
        <time>2019-02-20T09:13:38.000Z</time>
      </trkpt>
      <trkpt lat="45.32074" lon="4.58728">
        <ele>806</ele>
        <time>2019-02-20T09:13:39.000Z</time>
      </trkpt>
      <trkpt lat="45.32076" lon="4.58731">
        <ele>805.79998779297</ele>
        <time>2019-02-20T09:13:40.000Z</time>
      </trkpt>
      <trkpt lat="45.32079" lon="4.58734">
        <ele>805.59997558594</ele>
        <time>2019-02-20T09:13:41.000Z</time>
      </trkpt>
      <trkpt lat="45.32081" lon="4.58738">
        <ele>805.40002441406</ele>
        <time>2019-02-20T09:13:42.000Z</time>
      </trkpt>
      <trkpt lat="45.32084" lon="4.58741">
        <ele>805.20001220703</ele>
        <time>2019-02-20T09:13:43.000Z</time>
      </trkpt>
      <trkpt lat="45.32086" lon="4.58744">
        <ele>804.59997558594</ele>
        <time>2019-02-20T09:13:44.000Z</time>
      </trkpt>
      <trkpt lat="45.32089" lon="4.58746">
        <ele>804.40002441406</ele>
        <time>2019-02-20T09:13:45.000Z</time>
      </trkpt>
      <trkpt lat="45.32092" lon="4.5875">
        <ele>804</ele>
        <time>2019-02-20T09:13:46.000Z</time>
      </trkpt>
      <trkpt lat="45.32095" lon="4.58753">
        <ele>804</ele>
        <time>2019-02-20T09:13:47.000Z</time>
      </trkpt>
      <trkpt lat="45.32098" lon="4.58755">
        <ele>803.40002441406</ele>
        <time>2019-02-20T09:13:48.000Z</time>
      </trkpt>
      <trkpt lat="45.321" lon="4.58757">
        <ele>803</ele>
        <time>2019-02-20T09:13:49.000Z</time>
      </trkpt>
      <trkpt lat="45.32103" lon="4.58759">
        <ele>802.40002441406</ele>
        <time>2019-02-20T09:13:50.000Z</time>
      </trkpt>
      <trkpt lat="45.32104" lon="4.58761">
        <ele>802.20001220703</ele>
        <time>2019-02-20T09:13:51.000Z</time>
      </trkpt>
      <trkpt lat="45.32107" lon="4.58763">
        <ele>802</ele>
        <time>2019-02-20T09:13:52.000Z</time>
      </trkpt>
      <trkpt lat="45.32109" lon="4.58765">
        <ele>801.40002441406</ele>
        <time>2019-02-20T09:13:53.000Z</time>
      </trkpt>
      <trkpt lat="45.32111" lon="4.58766">
        <ele>800.79998779297</ele>
        <time>2019-02-20T09:13:54.000Z</time>
      </trkpt>
      <trkpt lat="45.32114" lon="4.58768">
        <ele>800.20001220703</ele>
        <time>2019-02-20T09:13:55.000Z</time>
      </trkpt>
      <trkpt lat="45.32116" lon="4.5877">
        <ele>799.79998779297</ele>
        <time>2019-02-20T09:13:56.000Z</time>
      </trkpt>
      <trkpt lat="45.32118" lon="4.58772">
        <ele>799.59997558594</ele>
        <time>2019-02-20T09:13:57.000Z</time>
      </trkpt>
      <trkpt lat="45.32121" lon="4.58774">
        <ele>799.40002441406</ele>
        <time>2019-02-20T09:13:58.000Z</time>
      </trkpt>
      <trkpt lat="45.32124" lon="4.58776">
        <ele>799.20001220703</ele>
        <time>2019-02-20T09:13:59.000Z</time>
      </trkpt>
      <trkpt lat="45.32127" lon="4.58779">
        <ele>798.79998779297</ele>
        <time>2019-02-20T09:14:00.000Z</time>
      </trkpt>
      <trkpt lat="45.32129" lon="4.58782">
        <ele>798.40002441406</ele>
        <time>2019-02-20T09:14:01.000Z</time>
      </trkpt>
      <trkpt lat="45.32133" lon="4.58785">
        <ele>798</ele>
        <time>2019-02-20T09:14:02.000Z</time>
      </trkpt>
      <trkpt lat="45.32136" lon="4.58788">
        <ele>797</ele>
        <time>2019-02-20T09:14:03.000Z</time>
      </trkpt>
      <trkpt lat="45.32139" lon="4.58792">
        <ele>796.40002441406</ele>
        <time>2019-02-20T09:14:04.000Z</time>
      </trkpt>
      <trkpt lat="45.32142" lon="4.58795">
        <ele>796</ele>
        <time>2019-02-20T09:14:05.000Z</time>
      </trkpt>
      <trkpt lat="45.32145" lon="4.58798">
        <ele>795.79998779297</ele>
        <time>2019-02-20T09:14:06.000Z</time>
      </trkpt>
      <trkpt lat="45.32148" lon="4.58801">
        <ele>795</ele>
        <time>2019-02-20T09:14:07.000Z</time>
      </trkpt>
      <trkpt lat="45.3215" lon="4.58804">
        <ele>794</ele>
        <time>2019-02-20T09:14:08.000Z</time>
      </trkpt>
      <trkpt lat="45.32153" lon="4.58807">
        <ele>792.59997558594</ele>
        <time>2019-02-20T09:14:09.000Z</time>
      </trkpt>
      <trkpt lat="45.32157" lon="4.58812">
        <ele>791.59997558594</ele>
        <time>2019-02-20T09:14:10.000Z</time>
      </trkpt>
      <trkpt lat="45.32161" lon="4.58817">
        <ele>790.59997558594</ele>
        <time>2019-02-20T09:14:11.000Z</time>
      </trkpt>
      <trkpt lat="45.32164" lon="4.58821">
        <ele>790</ele>
        <time>2019-02-20T09:14:12.000Z</time>
      </trkpt>
      <trkpt lat="45.32166" lon="4.58824">
        <ele>789.59997558594</ele>
        <time>2019-02-20T09:14:13.000Z</time>
      </trkpt>
      <trkpt lat="45.32168" lon="4.58826">
        <ele>789.40002441406</ele>
        <time>2019-02-20T09:14:14.000Z</time>
      </trkpt>
      <trkpt lat="45.3217" lon="4.58828">
        <ele>789</ele>
        <time>2019-02-20T09:14:15.000Z</time>
      </trkpt>
      <trkpt lat="45.32172" lon="4.5883">
        <ele>788.40002441406</ele>
        <time>2019-02-20T09:14:16.000Z</time>
      </trkpt>
      <trkpt lat="45.32173" lon="4.58832">
        <ele>787</ele>
        <time>2019-02-20T09:14:17.000Z</time>
      </trkpt>
      <trkpt lat="45.32174" lon="4.58833">
        <ele>786.20001220703</ele>
        <time>2019-02-20T09:14:18.000Z</time>
      </trkpt>
      <trkpt lat="45.32176" lon="4.58835">
        <ele>785.79998779297</ele>
        <time>2019-02-20T09:14:19.000Z</time>
      </trkpt>
      <trkpt lat="45.32177" lon="4.58836">
        <ele>785.40002441406</ele>
        <time>2019-02-20T09:14:20.000Z</time>
      </trkpt>
      <trkpt lat="45.32178" lon="4.58837">
        <ele>785.20001220703</ele>
        <time>2019-02-20T09:14:21.000Z</time>
      </trkpt>
      <trkpt lat="45.32179" lon="4.58839">
        <ele>784.79998779297</ele>
        <time>2019-02-20T09:14:22.000Z</time>
      </trkpt>
      <trkpt lat="45.3218" lon="4.58841">
        <ele>784.59997558594</ele>
        <time>2019-02-20T09:14:23.000Z</time>
      </trkpt>
      <trkpt lat="45.32181" lon="4.58843">
        <ele>784.40002441406</ele>
        <time>2019-02-20T09:14:24.000Z</time>
      </trkpt>
      <trkpt lat="45.32182" lon="4.58845">
        <ele>784.20001220703</ele>
        <time>2019-02-20T09:14:25.000Z</time>
      </trkpt>
      <trkpt lat="45.32183" lon="4.58848">
        <ele>784.40002441406</ele>
        <time>2019-02-20T09:14:26.000Z</time>
      </trkpt>
      <trkpt lat="45.32183" lon="4.5885">
        <ele>784.40002441406</ele>
        <time>2019-02-20T09:14:27.000Z</time>
      </trkpt>
      <trkpt lat="45.32183" lon="4.58853">
        <ele>784.20001220703</ele>
        <time>2019-02-20T09:14:28.000Z</time>
      </trkpt>
      <trkpt lat="45.32183" lon="4.58856">
        <ele>784.20001220703</ele>
        <time>2019-02-20T09:14:29.000Z</time>
      </trkpt>
      <trkpt lat="45.32183" lon="4.58859">
        <ele>784</ele>
        <time>2019-02-20T09:14:30.000Z</time>
      </trkpt>
      <trkpt lat="45.32182" lon="4.58863">
        <ele>783.79998779297</ele>
        <time>2019-02-20T09:14:31.000Z</time>
      </trkpt>
      <trkpt lat="45.32181" lon="4.58867">
        <ele>783.40002441406</ele>
        <time>2019-02-20T09:14:32.000Z</time>
      </trkpt>
      <trkpt lat="45.32181" lon="4.58871">
        <ele>783.20001220703</ele>
        <time>2019-02-20T09:14:33.000Z</time>
      </trkpt>
      <trkpt lat="45.3218" lon="4.58875">
        <ele>782.79998779297</ele>
        <time>2019-02-20T09:14:34.000Z</time>
      </trkpt>
      <trkpt lat="45.32179" lon="4.5888">
        <ele>782.59997558594</ele>
        <time>2019-02-20T09:14:35.000Z</time>
      </trkpt>
      <trkpt lat="45.32178" lon="4.58884">
        <ele>782.20001220703</ele>
        <time>2019-02-20T09:14:36.000Z</time>
      </trkpt>
      <trkpt lat="45.32177" lon="4.58888">
        <ele>781.79998779297</ele>
        <time>2019-02-20T09:14:37.000Z</time>
      </trkpt>
      <trkpt lat="45.32176" lon="4.58891">
        <ele>781.59997558594</ele>
        <time>2019-02-20T09:14:38.000Z</time>
      </trkpt>
      <trkpt lat="45.32177" lon="4.58895">
        <ele>781.20001220703</ele>
        <time>2019-02-20T09:14:39.000Z</time>
      </trkpt>
      <trkpt lat="45.32177" lon="4.58898">
        <ele>781.20001220703</ele>
        <time>2019-02-20T09:14:40.000Z</time>
      </trkpt>
      <trkpt lat="45.32177" lon="4.589">
        <ele>781</ele>
        <time>2019-02-20T09:14:41.000Z</time>
      </trkpt>
      <trkpt lat="45.32177" lon="4.58903">
        <ele>781</ele>
        <time>2019-02-20T09:14:42.000Z</time>
      </trkpt>
      <trkpt lat="45.32177" lon="4.58905">
        <ele>780.79998779297</ele>
        <time>2019-02-20T09:14:43.000Z</time>
      </trkpt>
      <trkpt lat="45.32177" lon="4.58908">
        <ele>780.79998779297</ele>
        <time>2019-02-20T09:14:44.000Z</time>
      </trkpt>
      <trkpt lat="45.32178" lon="4.5891">
        <ele>780.79998779297</ele>
        <time>2019-02-20T09:14:45.000Z</time>
      </trkpt>
      <trkpt lat="45.32178" lon="4.58913">
        <ele>780.59997558594</ele>
        <time>2019-02-20T09:14:46.000Z</time>
      </trkpt>
      <trkpt lat="45.32178" lon="4.58916">
        <ele>780.79998779297</ele>
        <time>2019-02-20T09:14:47.000Z</time>
      </trkpt>
      <trkpt lat="45.32178" lon="4.58919">
        <ele>780.79998779297</ele>
        <time>2019-02-20T09:14:48.000Z</time>
      </trkpt>
      <trkpt lat="45.32178" lon="4.58922">
        <ele>780.59997558594</ele>
        <time>2019-02-20T09:14:49.000Z</time>
      </trkpt>
      <trkpt lat="45.32178" lon="4.58924">
        <ele>780.79998779297</ele>
        <time>2019-02-20T09:14:50.000Z</time>
      </trkpt>
      <trkpt lat="45.32178" lon="4.58927">
        <ele>780.59997558594</ele>
        <time>2019-02-20T09:14:51.000Z</time>
      </trkpt>
      <trkpt lat="45.32179" lon="4.5893">
        <ele>780.79998779297</ele>
        <time>2019-02-20T09:14:52.000Z</time>
      </trkpt>
      <trkpt lat="45.3218" lon="4.58933">
        <ele>780.59997558594</ele>
        <time>2019-02-20T09:14:53.000Z</time>
      </trkpt>
      <trkpt lat="45.3218" lon="4.58936">
        <ele>780.79998779297</ele>
        <time>2019-02-20T09:14:54.000Z</time>
      </trkpt>
      <trkpt lat="45.32181" lon="4.58938">
        <ele>780.79998779297</ele>
        <time>2019-02-20T09:14:55.000Z</time>
      </trkpt>
      <trkpt lat="45.32181" lon="4.58941">
        <ele>781</ele>
        <time>2019-02-20T09:14:56.000Z</time>
      </trkpt>
      <trkpt lat="45.32182" lon="4.58943">
        <ele>781</ele>
        <time>2019-02-20T09:14:57.000Z</time>
      </trkpt>
      <trkpt lat="45.32182" lon="4.58945">
        <ele>781</ele>
        <time>2019-02-20T09:14:58.000Z</time>
      </trkpt>
      <trkpt lat="45.32183" lon="4.58947">
        <ele>781.20001220703</ele>
        <time>2019-02-20T09:14:59.000Z</time>
      </trkpt>
      <trkpt lat="45.32183" lon="4.58949">
        <ele>781</ele>
        <time>2019-02-20T09:15:00.000Z</time>
      </trkpt>
      <trkpt lat="45.32183" lon="4.5895">
        <ele>781</ele>
        <time>2019-02-20T09:15:01.000Z</time>
      </trkpt>
      <trkpt lat="45.32183" lon="4.58952">
        <ele>781.20001220703</ele>
        <time>2019-02-20T09:15:02.000Z</time>
      </trkpt>
      <trkpt lat="45.32183" lon="4.58953">
        <ele>781.40002441406</ele>
        <time>2019-02-20T09:15:03.000Z</time>
      </trkpt>
      <trkpt lat="45.32183" lon="4.58955">
        <ele>781.59997558594</ele>
        <time>2019-02-20T09:15:04.000Z</time>
      </trkpt>
      <trkpt lat="45.32183" lon="4.58957">
        <ele>782</ele>
        <time>2019-02-20T09:15:05.000Z</time>
      </trkpt>
      <trkpt lat="45.32184" lon="4.58959">
        <ele>782.20001220703</ele>
        <time>2019-02-20T09:15:06.000Z</time>
      </trkpt>
      <trkpt lat="45.32183" lon="4.58961">
        <ele>782.40002441406</ele>
        <time>2019-02-20T09:15:07.000Z</time>
      </trkpt>
      <trkpt lat="45.32183" lon="4.58963">
        <ele>782.59997558594</ele>
        <time>2019-02-20T09:15:08.000Z</time>
      </trkpt>
      <trkpt lat="45.32183" lon="4.58965">
        <ele>782.79998779297</ele>
        <time>2019-02-20T09:15:09.000Z</time>
      </trkpt>
      <trkpt lat="45.32182" lon="4.58966">
        <ele>783</ele>
        <time>2019-02-20T09:15:10.000Z</time>
      </trkpt>
      <trkpt lat="45.32182" lon="4.58968">
        <ele>783.20001220703</ele>
        <time>2019-02-20T09:15:11.000Z</time>
      </trkpt>
      <trkpt lat="45.32183" lon="4.5897">
        <ele>783.40002441406</ele>
        <time>2019-02-20T09:15:12.000Z</time>
      </trkpt>
      <trkpt lat="45.32182" lon="4.58972">
        <ele>783.40002441406</ele>
        <time>2019-02-20T09:15:13.000Z</time>
      </trkpt>
      <trkpt lat="45.32181" lon="4.58974">
        <ele>783.79998779297</ele>
        <time>2019-02-20T09:15:14.000Z</time>
      </trkpt>
      <trkpt lat="45.3218" lon="4.58976">
        <ele>784</ele>
        <time>2019-02-20T09:15:15.000Z</time>
      </trkpt>
      <trkpt lat="45.3218" lon="4.58978">
        <ele>784.20001220703</ele>
        <time>2019-02-20T09:15:16.000Z</time>
      </trkpt>
      <trkpt lat="45.32179" lon="4.5898">
        <ele>784.40002441406</ele>
        <time>2019-02-20T09:15:17.000Z</time>
      </trkpt>
      <trkpt lat="45.32178" lon="4.58982">
        <ele>784.40002441406</ele>
        <time>2019-02-20T09:15:18.000Z</time>
      </trkpt>
      <trkpt lat="45.32177" lon="4.58984">
        <ele>784.59997558594</ele>
        <time>2019-02-20T09:15:19.000Z</time>
      </trkpt>
      <trkpt lat="45.32176" lon="4.58986">
        <ele>784.59997558594</ele>
        <time>2019-02-20T09:15:20.000Z</time>
      </trkpt>
      <trkpt lat="45.32175" lon="4.58988">
        <ele>785</ele>
        <time>2019-02-20T09:15:21.000Z</time>
      </trkpt>
      <trkpt lat="45.32174" lon="4.5899">
        <ele>785.20001220703</ele>
        <time>2019-02-20T09:15:22.000Z</time>
      </trkpt>
      <trkpt lat="45.32173" lon="4.58993">
        <ele>785.40002441406</ele>
        <time>2019-02-20T09:15:23.000Z</time>
      </trkpt>
      <trkpt lat="45.32172" lon="4.58995">
        <ele>785.40002441406</ele>
        <time>2019-02-20T09:15:24.000Z</time>
      </trkpt>
      <trkpt lat="45.32171" lon="4.58997">
        <ele>785.59997558594</ele>
        <time>2019-02-20T09:15:25.000Z</time>
      </trkpt>
      <trkpt lat="45.32171" lon="4.58999">
        <ele>785.79998779297</ele>
        <time>2019-02-20T09:15:26.000Z</time>
      </trkpt>
      <trkpt lat="45.3217" lon="4.59001">
        <ele>785.59997558594</ele>
        <time>2019-02-20T09:15:27.000Z</time>
      </trkpt>
      <trkpt lat="45.32169" lon="4.59003">
        <ele>785.79998779297</ele>
        <time>2019-02-20T09:15:28.000Z</time>
      </trkpt>
      <trkpt lat="45.32168" lon="4.59004">
        <ele>785.79998779297</ele>
        <time>2019-02-20T09:15:29.000Z</time>
      </trkpt>
      <trkpt lat="45.32167" lon="4.59006">
        <ele>786</ele>
        <time>2019-02-20T09:15:30.000Z</time>
      </trkpt>
      <trkpt lat="45.32166" lon="4.59008">
        <ele>785.79998779297</ele>
        <time>2019-02-20T09:15:31.000Z</time>
      </trkpt>
      <trkpt lat="45.32165" lon="4.5901">
        <ele>785.79998779297</ele>
        <time>2019-02-20T09:15:32.000Z</time>
      </trkpt>
      <trkpt lat="45.32164" lon="4.59012">
        <ele>786</ele>
        <time>2019-02-20T09:15:33.000Z</time>
      </trkpt>
      <trkpt lat="45.32163" lon="4.59015">
        <ele>785.79998779297</ele>
        <time>2019-02-20T09:15:34.000Z</time>
      </trkpt>
      <trkpt lat="45.32162" lon="4.59018">
        <ele>785.79998779297</ele>
        <time>2019-02-20T09:15:35.000Z</time>
      </trkpt>
      <trkpt lat="45.3216" lon="4.59021">
        <ele>786</ele>
        <time>2019-02-20T09:15:36.000Z</time>
      </trkpt>
      <trkpt lat="45.32159" lon="4.59023">
        <ele>786</ele>
        <time>2019-02-20T09:15:37.000Z</time>
      </trkpt>
      <trkpt lat="45.32158" lon="4.59026">
        <ele>786</ele>
        <time>2019-02-20T09:15:38.000Z</time>
      </trkpt>
      <trkpt lat="45.32158" lon="4.59028">
        <ele>786.20001220703</ele>
        <time>2019-02-20T09:15:39.000Z</time>
      </trkpt>
      <trkpt lat="45.32157" lon="4.5903">
        <ele>786</ele>
        <time>2019-02-20T09:15:40.000Z</time>
      </trkpt>
      <trkpt lat="45.32156" lon="4.59032">
        <ele>786.20001220703</ele>
        <time>2019-02-20T09:15:41.000Z</time>
      </trkpt>
      <trkpt lat="45.32155" lon="4.59034">
        <ele>786.20001220703</ele>
        <time>2019-02-20T09:15:42.000Z</time>
      </trkpt>
      <trkpt lat="45.32154" lon="4.59036">
        <ele>786.20001220703</ele>
        <time>2019-02-20T09:15:43.000Z</time>
      </trkpt>
      <trkpt lat="45.32153" lon="4.59039">
        <ele>786.20001220703</ele>
        <time>2019-02-20T09:15:44.000Z</time>
      </trkpt>
      <trkpt lat="45.32152" lon="4.59041">
        <ele>786.20001220703</ele>
        <time>2019-02-20T09:15:45.000Z</time>
      </trkpt>
      <trkpt lat="45.32151" lon="4.59043">
        <ele>786.40002441406</ele>
        <time>2019-02-20T09:15:46.000Z</time>
      </trkpt>
      <trkpt lat="45.3215" lon="4.59044">
        <ele>786.40002441406</ele>
        <time>2019-02-20T09:15:47.000Z</time>
      </trkpt>
      <trkpt lat="45.3215" lon="4.59046">
        <ele>786.40002441406</ele>
        <time>2019-02-20T09:15:48.000Z</time>
      </trkpt>
      <trkpt lat="45.32149" lon="4.59048">
        <ele>786.59997558594</ele>
        <time>2019-02-20T09:15:49.000Z</time>
      </trkpt>
      <trkpt lat="45.32148" lon="4.59049">
        <ele>786.40002441406</ele>
        <time>2019-02-20T09:15:50.000Z</time>
      </trkpt>
      <trkpt lat="45.32148" lon="4.59051">
        <ele>786.40002441406</ele>
        <time>2019-02-20T09:15:51.000Z</time>
      </trkpt>
      <trkpt lat="45.32147" lon="4.59052">
        <ele>786.40002441406</ele>
        <time>2019-02-20T09:15:52.000Z</time>
      </trkpt>
      <trkpt lat="45.32147" lon="4.59053">
        <ele>786.40002441406</ele>
        <time>2019-02-20T09:15:53.000Z</time>
      </trkpt>
      <trkpt lat="45.32147" lon="4.59053">
        <ele>786.40002441406</ele>
        <time>2019-02-20T09:15:54.000Z</time>
      </trkpt>
      <trkpt lat="45.32146" lon="4.59054">
        <ele>786.40002441406</ele>
        <time>2019-02-20T09:15:55.000Z</time>
      </trkpt>
      <trkpt lat="45.32146" lon="4.59054">
        <ele>786.40002441406</ele>
        <time>2019-02-20T09:15:56.000Z</time>
      </trkpt>
      <trkpt lat="45.32145" lon="4.59058">
        <ele>786.40002441406</ele>
        <time>2019-02-20T09:16:19.000Z</time>
      </trkpt>
      <trkpt lat="45.32144" lon="4.5906">
        <ele>786.40002441406</ele>
        <time>2019-02-20T09:16:20.000Z</time>
      </trkpt>
      <trkpt lat="45.32143" lon="4.59062">
        <ele>786.20001220703</ele>
        <time>2019-02-20T09:16:21.000Z</time>
      </trkpt>
      <trkpt lat="45.32143" lon="4.59064">
        <ele>786.40002441406</ele>
        <time>2019-02-20T09:16:22.000Z</time>
      </trkpt>
      <trkpt lat="45.32142" lon="4.59066">
        <ele>786.20001220703</ele>
        <time>2019-02-20T09:16:23.000Z</time>
      </trkpt>
      <trkpt lat="45.32142" lon="4.59068">
        <ele>786.20001220703</ele>
        <time>2019-02-20T09:16:24.000Z</time>
      </trkpt>
      <trkpt lat="45.32141" lon="4.5907">
        <ele>786.20001220703</ele>
        <time>2019-02-20T09:16:25.000Z</time>
      </trkpt>
      <trkpt lat="45.3214" lon="4.59072">
        <ele>786.20001220703</ele>
        <time>2019-02-20T09:16:26.000Z</time>
      </trkpt>
      <trkpt lat="45.3214" lon="4.59074">
        <ele>786.20001220703</ele>
        <time>2019-02-20T09:16:27.000Z</time>
      </trkpt>
      <trkpt lat="45.32139" lon="4.59076">
        <ele>786.20001220703</ele>
        <time>2019-02-20T09:16:28.000Z</time>
      </trkpt>
      <trkpt lat="45.32138" lon="4.59078">
        <ele>786.20001220703</ele>
        <time>2019-02-20T09:16:29.000Z</time>
      </trkpt>
      <trkpt lat="45.32137" lon="4.5908">
        <ele>786.40002441406</ele>
        <time>2019-02-20T09:16:30.000Z</time>
      </trkpt>
      <trkpt lat="45.32137" lon="4.59082">
        <ele>786.40002441406</ele>
        <time>2019-02-20T09:16:31.000Z</time>
      </trkpt>
      <trkpt lat="45.32136" lon="4.59083">
        <ele>786.59997558594</ele>
        <time>2019-02-20T09:16:32.000Z</time>
      </trkpt>
      <trkpt lat="45.32135" lon="4.59086">
        <ele>786.59997558594</ele>
        <time>2019-02-20T09:16:33.000Z</time>
      </trkpt>
      <trkpt lat="45.32135" lon="4.59088">
        <ele>786.79998779297</ele>
        <time>2019-02-20T09:16:34.000Z</time>
      </trkpt>
      <trkpt lat="45.32134" lon="4.5909">
        <ele>787.20001220703</ele>
        <time>2019-02-20T09:16:35.000Z</time>
      </trkpt>
      <trkpt lat="45.32133" lon="4.59091">
        <ele>787.40002441406</ele>
        <time>2019-02-20T09:16:36.000Z</time>
      </trkpt>
      <trkpt lat="45.32132" lon="4.59093">
        <ele>787.79998779297</ele>
        <time>2019-02-20T09:16:37.000Z</time>
      </trkpt>
      <trkpt lat="45.32131" lon="4.59095">
        <ele>788.20001220703</ele>
        <time>2019-02-20T09:16:38.000Z</time>
      </trkpt>
      <trkpt lat="45.3213" lon="4.59096">
        <ele>788.20001220703</ele>
        <time>2019-02-20T09:16:39.000Z</time>
      </trkpt>
      <trkpt lat="45.32129" lon="4.59098">
        <ele>788.40002441406</ele>
        <time>2019-02-20T09:16:40.000Z</time>
      </trkpt>
      <trkpt lat="45.32128" lon="4.591">
        <ele>788.59997558594</ele>
        <time>2019-02-20T09:16:41.000Z</time>
      </trkpt>
      <trkpt lat="45.32128" lon="4.59102">
        <ele>788.59997558594</ele>
        <time>2019-02-20T09:16:42.000Z</time>
      </trkpt>
      <trkpt lat="45.32127" lon="4.59105">
        <ele>789</ele>
        <time>2019-02-20T09:16:43.000Z</time>
      </trkpt>
      <trkpt lat="45.32126" lon="4.59107">
        <ele>789</ele>
        <time>2019-02-20T09:16:44.000Z</time>
      </trkpt>
      <trkpt lat="45.32125" lon="4.59109">
        <ele>789</ele>
        <time>2019-02-20T09:16:45.000Z</time>
      </trkpt>
      <trkpt lat="45.32125" lon="4.59111">
        <ele>789</ele>
        <time>2019-02-20T09:16:46.000Z</time>
      </trkpt>
      <trkpt lat="45.32124" lon="4.59113">
        <ele>789</ele>
        <time>2019-02-20T09:16:47.000Z</time>
      </trkpt>
      <trkpt lat="45.32123" lon="4.59115">
        <ele>789.20001220703</ele>
        <time>2019-02-20T09:16:48.000Z</time>
      </trkpt>
      <trkpt lat="45.32123" lon="4.59117">
        <ele>789.20001220703</ele>
        <time>2019-02-20T09:16:49.000Z</time>
      </trkpt>
      <trkpt lat="45.32122" lon="4.59119">
        <ele>789.20001220703</ele>
        <time>2019-02-20T09:16:50.000Z</time>
      </trkpt>
      <trkpt lat="45.32121" lon="4.5912">
        <ele>789.20001220703</ele>
        <time>2019-02-20T09:16:51.000Z</time>
      </trkpt>
      <trkpt lat="45.3212" lon="4.59122">
        <ele>789.40002441406</ele>
        <time>2019-02-20T09:16:52.000Z</time>
      </trkpt>
      <trkpt lat="45.3212" lon="4.59125">
        <ele>789.59997558594</ele>
        <time>2019-02-20T09:16:53.000Z</time>
      </trkpt>
      <trkpt lat="45.32119" lon="4.59127">
        <ele>789.59997558594</ele>
        <time>2019-02-20T09:16:54.000Z</time>
      </trkpt>
      <trkpt lat="45.32118" lon="4.59129">
        <ele>790</ele>
        <time>2019-02-20T09:16:55.000Z</time>
      </trkpt>
      <trkpt lat="45.32117" lon="4.59131">
        <ele>790.20001220703</ele>
        <time>2019-02-20T09:16:56.000Z</time>
      </trkpt>
      <trkpt lat="45.32116" lon="4.59133">
        <ele>790.40002441406</ele>
        <time>2019-02-20T09:16:57.000Z</time>
      </trkpt>
      <trkpt lat="45.32115" lon="4.59135">
        <ele>790.59997558594</ele>
        <time>2019-02-20T09:16:58.000Z</time>
      </trkpt>
      <trkpt lat="45.32114" lon="4.59137">
        <ele>790.79998779297</ele>
        <time>2019-02-20T09:16:59.000Z</time>
      </trkpt>
      <trkpt lat="45.32114" lon="4.59139">
        <ele>791</ele>
        <time>2019-02-20T09:17:00.000Z</time>
      </trkpt>
      <trkpt lat="45.32113" lon="4.59142">
        <ele>791.20001220703</ele>
        <time>2019-02-20T09:17:01.000Z</time>
      </trkpt>
      <trkpt lat="45.32113" lon="4.59144">
        <ele>791.20001220703</ele>
        <time>2019-02-20T09:17:02.000Z</time>
      </trkpt>
      <trkpt lat="45.32113" lon="4.59146">
        <ele>791.40002441406</ele>
        <time>2019-02-20T09:17:03.000Z</time>
      </trkpt>
      <trkpt lat="45.32113" lon="4.59148">
        <ele>791.40002441406</ele>
        <time>2019-02-20T09:17:04.000Z</time>
      </trkpt>
      <trkpt lat="45.32114" lon="4.5915">
        <ele>791.79998779297</ele>
        <time>2019-02-20T09:17:05.000Z</time>
      </trkpt>
      <trkpt lat="45.32114" lon="4.59153">
        <ele>791.59997558594</ele>
        <time>2019-02-20T09:17:06.000Z</time>
      </trkpt>
      <trkpt lat="45.32114" lon="4.59155">
        <ele>791.79998779297</ele>
        <time>2019-02-20T09:17:07.000Z</time>
      </trkpt>
      <trkpt lat="45.32114" lon="4.59157">
        <ele>792</ele>
        <time>2019-02-20T09:17:08.000Z</time>
      </trkpt>
      <trkpt lat="45.32114" lon="4.5916">
        <ele>792</ele>
        <time>2019-02-20T09:17:09.000Z</time>
      </trkpt>
      <trkpt lat="45.32114" lon="4.59162">
        <ele>792.20001220703</ele>
        <time>2019-02-20T09:17:10.000Z</time>
      </trkpt>
      <trkpt lat="45.32113" lon="4.59165">
        <ele>792.40002441406</ele>
        <time>2019-02-20T09:17:11.000Z</time>
      </trkpt>
      <trkpt lat="45.32113" lon="4.59167">
        <ele>792.59997558594</ele>
        <time>2019-02-20T09:17:12.000Z</time>
      </trkpt>
      <trkpt lat="45.32113" lon="4.59169">
        <ele>792.59997558594</ele>
        <time>2019-02-20T09:17:13.000Z</time>
      </trkpt>
      <trkpt lat="45.32112" lon="4.59171">
        <ele>793</ele>
        <time>2019-02-20T09:17:14.000Z</time>
      </trkpt>
      <trkpt lat="45.32111" lon="4.59173">
        <ele>793.20001220703</ele>
        <time>2019-02-20T09:17:15.000Z</time>
      </trkpt>
      <trkpt lat="45.3211" lon="4.59175">
        <ele>793.40002441406</ele>
        <time>2019-02-20T09:17:16.000Z</time>
      </trkpt>
      <trkpt lat="45.32108" lon="4.59176">
        <ele>793.59997558594</ele>
        <time>2019-02-20T09:17:17.000Z</time>
      </trkpt>
      <trkpt lat="45.32107" lon="4.59177">
        <ele>793.79998779297</ele>
        <time>2019-02-20T09:17:18.000Z</time>
      </trkpt>
      <trkpt lat="45.32106" lon="4.59179">
        <ele>794.20001220703</ele>
        <time>2019-02-20T09:17:19.000Z</time>
      </trkpt>
      <trkpt lat="45.32104" lon="4.5918">
        <ele>794.20001220703</ele>
        <time>2019-02-20T09:17:20.000Z</time>
      </trkpt>
      <trkpt lat="45.32102" lon="4.59181">
        <ele>794.40002441406</ele>
        <time>2019-02-20T09:17:21.000Z</time>
      </trkpt>
      <trkpt lat="45.32101" lon="4.59182">
        <ele>794.40002441406</ele>
        <time>2019-02-20T09:17:22.000Z</time>
      </trkpt>
      <trkpt lat="45.321" lon="4.59183">
        <ele>794.59997558594</ele>
        <time>2019-02-20T09:17:23.000Z</time>
      </trkpt>
      <trkpt lat="45.32098" lon="4.59184">
        <ele>794.59997558594</ele>
        <time>2019-02-20T09:17:24.000Z</time>
      </trkpt>
      <trkpt lat="45.32097" lon="4.59185">
        <ele>794.79998779297</ele>
        <time>2019-02-20T09:17:25.000Z</time>
      </trkpt>
      <trkpt lat="45.32097" lon="4.59185">
        <ele>795</ele>
        <time>2019-02-20T09:17:26.000Z</time>
      </trkpt>
      <trkpt lat="45.32096" lon="4.59186">
        <ele>795.20001220703</ele>
        <time>2019-02-20T09:17:27.000Z</time>
      </trkpt>
      <trkpt lat="45.32095" lon="4.59186">
        <ele>795.40002441406</ele>
        <time>2019-02-20T09:17:28.000Z</time>
      </trkpt>
      <trkpt lat="45.32093" lon="4.59187">
        <ele>795.59997558594</ele>
        <time>2019-02-20T09:17:29.000Z</time>
      </trkpt>
      <trkpt lat="45.32092" lon="4.59187">
        <ele>795.59997558594</ele>
        <time>2019-02-20T09:17:30.000Z</time>
      </trkpt>
      <trkpt lat="45.32091" lon="4.59188">
        <ele>795.79998779297</ele>
        <time>2019-02-20T09:17:31.000Z</time>
      </trkpt>
      <trkpt lat="45.3209" lon="4.59188">
        <ele>796.20001220703</ele>
        <time>2019-02-20T09:17:32.000Z</time>
      </trkpt>
      <trkpt lat="45.32089" lon="4.59189">
        <ele>796.40002441406</ele>
        <time>2019-02-20T09:17:33.000Z</time>
      </trkpt>
      <trkpt lat="45.32088" lon="4.5919">
        <ele>796.59997558594</ele>
        <time>2019-02-20T09:17:34.000Z</time>
      </trkpt>
      <trkpt lat="45.32086" lon="4.5919">
        <ele>796.79998779297</ele>
        <time>2019-02-20T09:17:35.000Z</time>
      </trkpt>
      <trkpt lat="45.32085" lon="4.59191">
        <ele>796.79998779297</ele>
        <time>2019-02-20T09:17:36.000Z</time>
      </trkpt>
      <trkpt lat="45.32083" lon="4.59192">
        <ele>797</ele>
        <time>2019-02-20T09:17:37.000Z</time>
      </trkpt>
      <trkpt lat="45.32082" lon="4.59192">
        <ele>797.20001220703</ele>
        <time>2019-02-20T09:17:38.000Z</time>
      </trkpt>
      <trkpt lat="45.32081" lon="4.59193">
        <ele>797.20001220703</ele>
        <time>2019-02-20T09:17:39.000Z</time>
      </trkpt>
      <trkpt lat="45.3208" lon="4.59194">
        <ele>797.40002441406</ele>
        <time>2019-02-20T09:17:40.000Z</time>
      </trkpt>
      <trkpt lat="45.32078" lon="4.59195">
        <ele>797.59997558594</ele>
        <time>2019-02-20T09:17:41.000Z</time>
      </trkpt>
      <trkpt lat="45.32077" lon="4.59196">
        <ele>797.59997558594</ele>
        <time>2019-02-20T09:17:42.000Z</time>
      </trkpt>
      <trkpt lat="45.32075" lon="4.59197">
        <ele>797.79998779297</ele>
        <time>2019-02-20T09:17:43.000Z</time>
      </trkpt>
      <trkpt lat="45.32074" lon="4.59198">
        <ele>798</ele>
        <time>2019-02-20T09:17:44.000Z</time>
      </trkpt>
      <trkpt lat="45.32072" lon="4.59199">
        <ele>797.79998779297</ele>
        <time>2019-02-20T09:17:45.000Z</time>
      </trkpt>
      <trkpt lat="45.3207" lon="4.592">
        <ele>798.20001220703</ele>
        <time>2019-02-20T09:17:46.000Z</time>
      </trkpt>
      <trkpt lat="45.32069" lon="4.59201">
        <ele>798.20001220703</ele>
        <time>2019-02-20T09:17:47.000Z</time>
      </trkpt>
      <trkpt lat="45.32067" lon="4.59202">
        <ele>798.40002441406</ele>
        <time>2019-02-20T09:17:48.000Z</time>
      </trkpt>
      <trkpt lat="45.32065" lon="4.59203">
        <ele>798.59997558594</ele>
        <time>2019-02-20T09:17:49.000Z</time>
      </trkpt>
      <trkpt lat="45.32063" lon="4.59204">
        <ele>798.79998779297</ele>
        <time>2019-02-20T09:17:50.000Z</time>
      </trkpt>
      <trkpt lat="45.32061" lon="4.59206">
        <ele>798.79998779297</ele>
        <time>2019-02-20T09:17:51.000Z</time>
      </trkpt>
      <trkpt lat="45.32059" lon="4.59207">
        <ele>799</ele>
        <time>2019-02-20T09:17:52.000Z</time>
      </trkpt>
      <trkpt lat="45.32057" lon="4.59207">
        <ele>799</ele>
        <time>2019-02-20T09:17:53.000Z</time>
      </trkpt>
      <trkpt lat="45.32055" lon="4.59208">
        <ele>799</ele>
        <time>2019-02-20T09:17:54.000Z</time>
      </trkpt>
      <trkpt lat="45.32053" lon="4.59209">
        <ele>799</ele>
        <time>2019-02-20T09:17:55.000Z</time>
      </trkpt>
      <trkpt lat="45.32051" lon="4.5921">
        <ele>799.20001220703</ele>
        <time>2019-02-20T09:17:56.000Z</time>
      </trkpt>
      <trkpt lat="45.3205" lon="4.5921">
        <ele>799</ele>
        <time>2019-02-20T09:17:57.000Z</time>
      </trkpt>
      <trkpt lat="45.32048" lon="4.59211">
        <ele>799.20001220703</ele>
        <time>2019-02-20T09:17:58.000Z</time>
      </trkpt>
      <trkpt lat="45.32047" lon="4.59211">
        <ele>799.20001220703</ele>
        <time>2019-02-20T09:17:59.000Z</time>
      </trkpt>
      <trkpt lat="45.32045" lon="4.59212">
        <ele>799.20001220703</ele>
        <time>2019-02-20T09:18:00.000Z</time>
      </trkpt>
      <trkpt lat="45.32044" lon="4.59213">
        <ele>799.20001220703</ele>
        <time>2019-02-20T09:18:01.000Z</time>
      </trkpt>
      <trkpt lat="45.32043" lon="4.59214">
        <ele>799.20001220703</ele>
        <time>2019-02-20T09:18:02.000Z</time>
      </trkpt>
      <trkpt lat="45.32041" lon="4.59214">
        <ele>799.20001220703</ele>
        <time>2019-02-20T09:18:03.000Z</time>
      </trkpt>
      <trkpt lat="45.3204" lon="4.59215">
        <ele>799.40002441406</ele>
        <time>2019-02-20T09:18:04.000Z</time>
      </trkpt>
      <trkpt lat="45.32038" lon="4.59216">
        <ele>799.40002441406</ele>
        <time>2019-02-20T09:18:05.000Z</time>
      </trkpt>
      <trkpt lat="45.32036" lon="4.59217">
        <ele>799.40002441406</ele>
        <time>2019-02-20T09:18:06.000Z</time>
      </trkpt>
      <trkpt lat="45.32035" lon="4.59217">
        <ele>799.59997558594</ele>
        <time>2019-02-20T09:18:07.000Z</time>
      </trkpt>
      <trkpt lat="45.32033" lon="4.59218">
        <ele>799.59997558594</ele>
        <time>2019-02-20T09:18:08.000Z</time>
      </trkpt>
      <trkpt lat="45.32031" lon="4.59219">
        <ele>799.59997558594</ele>
        <time>2019-02-20T09:18:09.000Z</time>
      </trkpt>
      <trkpt lat="45.3203" lon="4.59219">
        <ele>800</ele>
        <time>2019-02-20T09:18:10.000Z</time>
      </trkpt>
      <trkpt lat="45.32028" lon="4.5922">
        <ele>800</ele>
        <time>2019-02-20T09:18:11.000Z</time>
      </trkpt>
      <trkpt lat="45.32026" lon="4.59221">
        <ele>800</ele>
        <time>2019-02-20T09:18:12.000Z</time>
      </trkpt>
      <trkpt lat="45.32025" lon="4.59221">
        <ele>800</ele>
        <time>2019-02-20T09:18:13.000Z</time>
      </trkpt>
      <trkpt lat="45.32023" lon="4.59222">
        <ele>800.20001220703</ele>
        <time>2019-02-20T09:18:14.000Z</time>
      </trkpt>
      <trkpt lat="45.32021" lon="4.59223">
        <ele>800.40002441406</ele>
        <time>2019-02-20T09:18:15.000Z</time>
      </trkpt>
      <trkpt lat="45.3202" lon="4.59224">
        <ele>800.20001220703</ele>
        <time>2019-02-20T09:18:16.000Z</time>
      </trkpt>
      <trkpt lat="45.32018" lon="4.59225">
        <ele>800.59997558594</ele>
        <time>2019-02-20T09:18:17.000Z</time>
      </trkpt>
      <trkpt lat="45.32017" lon="4.59225">
        <ele>800.59997558594</ele>
        <time>2019-02-20T09:18:18.000Z</time>
      </trkpt>
      <trkpt lat="45.32015" lon="4.59226">
        <ele>800.79998779297</ele>
        <time>2019-02-20T09:18:19.000Z</time>
      </trkpt>
      <trkpt lat="45.32014" lon="4.59227">
        <ele>800.79998779297</ele>
        <time>2019-02-20T09:18:20.000Z</time>
      </trkpt>
      <trkpt lat="45.32012" lon="4.59228">
        <ele>801</ele>
        <time>2019-02-20T09:18:21.000Z</time>
      </trkpt>
      <trkpt lat="45.3201" lon="4.59229">
        <ele>801.20001220703</ele>
        <time>2019-02-20T09:18:22.000Z</time>
      </trkpt>
      <trkpt lat="45.32009" lon="4.5923">
        <ele>801.40002441406</ele>
        <time>2019-02-20T09:18:23.000Z</time>
      </trkpt>
      <trkpt lat="45.32007" lon="4.59231">
        <ele>801.59997558594</ele>
        <time>2019-02-20T09:18:24.000Z</time>
      </trkpt>
      <trkpt lat="45.32005" lon="4.59232">
        <ele>801.59997558594</ele>
        <time>2019-02-20T09:18:25.000Z</time>
      </trkpt>
      <trkpt lat="45.32004" lon="4.59233">
        <ele>801.79998779297</ele>
        <time>2019-02-20T09:18:26.000Z</time>
      </trkpt>
      <trkpt lat="45.32002" lon="4.59234">
        <ele>802</ele>
        <time>2019-02-20T09:18:27.000Z</time>
      </trkpt>
      <trkpt lat="45.32" lon="4.59235">
        <ele>802</ele>
        <time>2019-02-20T09:18:28.000Z</time>
      </trkpt>
      <trkpt lat="45.31999" lon="4.59236">
        <ele>802.20001220703</ele>
        <time>2019-02-20T09:18:29.000Z</time>
      </trkpt>
      <trkpt lat="45.31997" lon="4.59238">
        <ele>802.40002441406</ele>
        <time>2019-02-20T09:18:30.000Z</time>
      </trkpt>
      <trkpt lat="45.31996" lon="4.59239">
        <ele>802.40002441406</ele>
        <time>2019-02-20T09:18:31.000Z</time>
      </trkpt>
      <trkpt lat="45.31995" lon="4.59241">
        <ele>802.59997558594</ele>
        <time>2019-02-20T09:18:32.000Z</time>
      </trkpt>
      <trkpt lat="45.31994" lon="4.59242">
        <ele>802.79998779297</ele>
        <time>2019-02-20T09:18:33.000Z</time>
      </trkpt>
      <trkpt lat="45.31993" lon="4.59244">
        <ele>803</ele>
        <time>2019-02-20T09:18:34.000Z</time>
      </trkpt>
      <trkpt lat="45.31992" lon="4.59246">
        <ele>803.20001220703</ele>
        <time>2019-02-20T09:18:35.000Z</time>
      </trkpt>
      <trkpt lat="45.31991" lon="4.59247">
        <ele>803.20001220703</ele>
        <time>2019-02-20T09:18:36.000Z</time>
      </trkpt>
      <trkpt lat="45.3199" lon="4.59249">
        <ele>803.20001220703</ele>
        <time>2019-02-20T09:18:37.000Z</time>
      </trkpt>
      <trkpt lat="45.31989" lon="4.59251">
        <ele>803.20001220703</ele>
        <time>2019-02-20T09:18:38.000Z</time>
      </trkpt>
      <trkpt lat="45.31988" lon="4.59253">
        <ele>803.40002441406</ele>
        <time>2019-02-20T09:18:39.000Z</time>
      </trkpt>
      <trkpt lat="45.31987" lon="4.59255">
        <ele>803.59997558594</ele>
        <time>2019-02-20T09:18:40.000Z</time>
      </trkpt>
      <trkpt lat="45.31987" lon="4.59257">
        <ele>803.59997558594</ele>
        <time>2019-02-20T09:18:41.000Z</time>
      </trkpt>
      <trkpt lat="45.31986" lon="4.59258">
        <ele>803.79998779297</ele>
        <time>2019-02-20T09:18:42.000Z</time>
      </trkpt>
      <trkpt lat="45.31985" lon="4.5926">
        <ele>803.59997558594</ele>
        <time>2019-02-20T09:18:43.000Z</time>
      </trkpt>
      <trkpt lat="45.31984" lon="4.59262">
        <ele>803.79998779297</ele>
        <time>2019-02-20T09:18:44.000Z</time>
      </trkpt>
      <trkpt lat="45.31983" lon="4.59264">
        <ele>803.79998779297</ele>
        <time>2019-02-20T09:18:45.000Z</time>
      </trkpt>
      <trkpt lat="45.31982" lon="4.59266">
        <ele>803.79998779297</ele>
        <time>2019-02-20T09:18:46.000Z</time>
      </trkpt>
      <trkpt lat="45.31982" lon="4.59268">
        <ele>804</ele>
        <time>2019-02-20T09:18:47.000Z</time>
      </trkpt>
      <trkpt lat="45.31981" lon="4.5927">
        <ele>804.20001220703</ele>
        <time>2019-02-20T09:18:48.000Z</time>
      </trkpt>
      <trkpt lat="45.3198" lon="4.59272">
        <ele>804.20001220703</ele>
        <time>2019-02-20T09:18:49.000Z</time>
      </trkpt>
      <trkpt lat="45.3198" lon="4.59274">
        <ele>804.59997558594</ele>
        <time>2019-02-20T09:18:50.000Z</time>
      </trkpt>
      <trkpt lat="45.31979" lon="4.59277">
        <ele>804.59997558594</ele>
        <time>2019-02-20T09:18:51.000Z</time>
      </trkpt>
      <trkpt lat="45.31979" lon="4.59279">
        <ele>805</ele>
        <time>2019-02-20T09:18:52.000Z</time>
      </trkpt>
      <trkpt lat="45.31978" lon="4.59282">
        <ele>805.20001220703</ele>
        <time>2019-02-20T09:18:53.000Z</time>
      </trkpt>
      <trkpt lat="45.31978" lon="4.59284">
        <ele>805.40002441406</ele>
        <time>2019-02-20T09:18:54.000Z</time>
      </trkpt>
      <trkpt lat="45.31978" lon="4.59286">
        <ele>805.40002441406</ele>
        <time>2019-02-20T09:18:55.000Z</time>
      </trkpt>
      <trkpt lat="45.31978" lon="4.59288">
        <ele>805.40002441406</ele>
        <time>2019-02-20T09:18:56.000Z</time>
      </trkpt>
      <trkpt lat="45.31977" lon="4.5929">
        <ele>805.59997558594</ele>
        <time>2019-02-20T09:18:57.000Z</time>
      </trkpt>
      <trkpt lat="45.31977" lon="4.59292">
        <ele>805.59997558594</ele>
        <time>2019-02-20T09:18:58.000Z</time>
      </trkpt>
      <trkpt lat="45.31977" lon="4.59294">
        <ele>805.59997558594</ele>
        <time>2019-02-20T09:18:59.000Z</time>
      </trkpt>
      <trkpt lat="45.31977" lon="4.59296">
        <ele>806</ele>
        <time>2019-02-20T09:19:00.000Z</time>
      </trkpt>
      <trkpt lat="45.31976" lon="4.59298">
        <ele>806.20001220703</ele>
        <time>2019-02-20T09:19:01.000Z</time>
      </trkpt>
      <trkpt lat="45.31976" lon="4.593">
        <ele>806.20001220703</ele>
        <time>2019-02-20T09:19:02.000Z</time>
      </trkpt>
      <trkpt lat="45.31976" lon="4.59303">
        <ele>806.40002441406</ele>
        <time>2019-02-20T09:19:03.000Z</time>
      </trkpt>
      <trkpt lat="45.31975" lon="4.59305">
        <ele>806.59997558594</ele>
        <time>2019-02-20T09:19:04.000Z</time>
      </trkpt>
      <trkpt lat="45.31975" lon="4.59306">
        <ele>806.59997558594</ele>
        <time>2019-02-20T09:19:05.000Z</time>
      </trkpt>
      <trkpt lat="45.31975" lon="4.59308">
        <ele>806.79998779297</ele>
        <time>2019-02-20T09:19:06.000Z</time>
      </trkpt>
      <trkpt lat="45.31975" lon="4.5931">
        <ele>806.79998779297</ele>
        <time>2019-02-20T09:19:07.000Z</time>
      </trkpt>
      <trkpt lat="45.31975" lon="4.59311">
        <ele>807.20001220703</ele>
        <time>2019-02-20T09:19:08.000Z</time>
      </trkpt>
      <trkpt lat="45.31976" lon="4.59313">
        <ele>807.20001220703</ele>
        <time>2019-02-20T09:19:09.000Z</time>
      </trkpt>
      <trkpt lat="45.31975" lon="4.59314">
        <ele>807.40002441406</ele>
        <time>2019-02-20T09:19:10.000Z</time>
      </trkpt>
      <trkpt lat="45.31975" lon="4.59316">
        <ele>807.59997558594</ele>
        <time>2019-02-20T09:19:11.000Z</time>
      </trkpt>
      <trkpt lat="45.31975" lon="4.59317">
        <ele>807.59997558594</ele>
        <time>2019-02-20T09:19:12.000Z</time>
      </trkpt>
      <trkpt lat="45.31975" lon="4.59319">
        <ele>807.59997558594</ele>
        <time>2019-02-20T09:19:13.000Z</time>
      </trkpt>
      <trkpt lat="45.31975" lon="4.59321">
        <ele>808</ele>
        <time>2019-02-20T09:19:14.000Z</time>
      </trkpt>
      <trkpt lat="45.31975" lon="4.59323">
        <ele>808</ele>
        <time>2019-02-20T09:19:15.000Z</time>
      </trkpt>
      <trkpt lat="45.31975" lon="4.59324">
        <ele>808.20001220703</ele>
        <time>2019-02-20T09:19:16.000Z</time>
      </trkpt>
      <trkpt lat="45.31974" lon="4.59326">
        <ele>808.20001220703</ele>
        <time>2019-02-20T09:19:17.000Z</time>
      </trkpt>
      <trkpt lat="45.31974" lon="4.59328">
        <ele>808.20001220703</ele>
        <time>2019-02-20T09:19:18.000Z</time>
      </trkpt>
      <trkpt lat="45.31973" lon="4.5933">
        <ele>808.40002441406</ele>
        <time>2019-02-20T09:19:19.000Z</time>
      </trkpt>
      <trkpt lat="45.31973" lon="4.59332">
        <ele>808.59997558594</ele>
        <time>2019-02-20T09:19:20.000Z</time>
      </trkpt>
      <trkpt lat="45.31972" lon="4.59334">
        <ele>808.40002441406</ele>
        <time>2019-02-20T09:19:21.000Z</time>
      </trkpt>
      <trkpt lat="45.31972" lon="4.59337">
        <ele>808.40002441406</ele>
        <time>2019-02-20T09:19:22.000Z</time>
      </trkpt>
      <trkpt lat="45.31971" lon="4.59339">
        <ele>808.59997558594</ele>
        <time>2019-02-20T09:19:23.000Z</time>
      </trkpt>
      <trkpt lat="45.31971" lon="4.59342">
        <ele>808.59997558594</ele>
        <time>2019-02-20T09:19:24.000Z</time>
      </trkpt>
      <trkpt lat="45.3197" lon="4.59345">
        <ele>808.59997558594</ele>
        <time>2019-02-20T09:19:25.000Z</time>
      </trkpt>
      <trkpt lat="45.3197" lon="4.59347">
        <ele>808.79998779297</ele>
        <time>2019-02-20T09:19:26.000Z</time>
      </trkpt>
      <trkpt lat="45.31969" lon="4.5935">
        <ele>808.59997558594</ele>
        <time>2019-02-20T09:19:27.000Z</time>
      </trkpt>
      <trkpt lat="45.31968" lon="4.59353">
        <ele>808.79998779297</ele>
        <time>2019-02-20T09:19:28.000Z</time>
      </trkpt>
      <trkpt lat="45.31968" lon="4.59355">
        <ele>808.79998779297</ele>
        <time>2019-02-20T09:19:29.000Z</time>
      </trkpt>
      <trkpt lat="45.31967" lon="4.59358">
        <ele>808.59997558594</ele>
        <time>2019-02-20T09:19:30.000Z</time>
      </trkpt>
      <trkpt lat="45.31967" lon="4.59361">
        <ele>808.79998779297</ele>
        <time>2019-02-20T09:19:31.000Z</time>
      </trkpt>
      <trkpt lat="45.31966" lon="4.59363">
        <ele>808.59997558594</ele>
        <time>2019-02-20T09:19:32.000Z</time>
      </trkpt>
      <trkpt lat="45.31965" lon="4.59366">
        <ele>808.79998779297</ele>
        <time>2019-02-20T09:19:33.000Z</time>
      </trkpt>
      <trkpt lat="45.31965" lon="4.59368">
        <ele>808.79998779297</ele>
        <time>2019-02-20T09:19:34.000Z</time>
      </trkpt>
      <trkpt lat="45.31964" lon="4.59371">
        <ele>809</ele>
        <time>2019-02-20T09:19:35.000Z</time>
      </trkpt>
      <trkpt lat="45.31963" lon="4.59373">
        <ele>808.79998779297</ele>
        <time>2019-02-20T09:19:36.000Z</time>
      </trkpt>
      <trkpt lat="45.31963" lon="4.59376">
        <ele>808.79998779297</ele>
        <time>2019-02-20T09:19:37.000Z</time>
      </trkpt>
      <trkpt lat="45.31962" lon="4.59378">
        <ele>809</ele>
        <time>2019-02-20T09:19:38.000Z</time>
      </trkpt>
      <trkpt lat="45.31962" lon="4.59381">
        <ele>808.79998779297</ele>
        <time>2019-02-20T09:19:39.000Z</time>
      </trkpt>
      <trkpt lat="45.31961" lon="4.59383">
        <ele>808.79998779297</ele>
        <time>2019-02-20T09:19:40.000Z</time>
      </trkpt>
      <trkpt lat="45.31961" lon="4.59386">
        <ele>809</ele>
        <time>2019-02-20T09:19:41.000Z</time>
      </trkpt>
      <trkpt lat="45.3196" lon="4.59388">
        <ele>809</ele>
        <time>2019-02-20T09:19:42.000Z</time>
      </trkpt>
      <trkpt lat="45.3196" lon="4.59391">
        <ele>809.20001220703</ele>
        <time>2019-02-20T09:19:43.000Z</time>
      </trkpt>
      <trkpt lat="45.3196" lon="4.59393">
        <ele>809.20001220703</ele>
        <time>2019-02-20T09:19:44.000Z</time>
      </trkpt>
      <trkpt lat="45.3196" lon="4.59395">
        <ele>809.20001220703</ele>
        <time>2019-02-20T09:19:45.000Z</time>
      </trkpt>
      <trkpt lat="45.31959" lon="4.59398">
        <ele>809.20001220703</ele>
        <time>2019-02-20T09:19:46.000Z</time>
      </trkpt>
      <trkpt lat="45.31959" lon="4.594">
        <ele>809.20001220703</ele>
        <time>2019-02-20T09:19:47.000Z</time>
      </trkpt>
      <trkpt lat="45.31959" lon="4.59402">
        <ele>809.59997558594</ele>
        <time>2019-02-20T09:19:48.000Z</time>
      </trkpt>
      <trkpt lat="45.31959" lon="4.59404">
        <ele>809.79998779297</ele>
        <time>2019-02-20T09:19:49.000Z</time>
      </trkpt>
      <trkpt lat="45.31959" lon="4.59407">
        <ele>809.79998779297</ele>
        <time>2019-02-20T09:19:50.000Z</time>
      </trkpt>
      <trkpt lat="45.31959" lon="4.59409">
        <ele>810</ele>
        <time>2019-02-20T09:19:51.000Z</time>
      </trkpt>
      <trkpt lat="45.31958" lon="4.59412">
        <ele>810.20001220703</ele>
        <time>2019-02-20T09:19:52.000Z</time>
      </trkpt>
      <trkpt lat="45.31958" lon="4.59414">
        <ele>810.40002441406</ele>
        <time>2019-02-20T09:19:53.000Z</time>
      </trkpt>
      <trkpt lat="45.31958" lon="4.59416">
        <ele>810.59997558594</ele>
        <time>2019-02-20T09:19:54.000Z</time>
      </trkpt>
      <trkpt lat="45.31958" lon="4.59419">
        <ele>810.40002441406</ele>
        <time>2019-02-20T09:19:55.000Z</time>
      </trkpt>
      <trkpt lat="45.31959" lon="4.59421">
        <ele>810.59997558594</ele>
        <time>2019-02-20T09:19:56.000Z</time>
      </trkpt>
      <trkpt lat="45.31959" lon="4.59423">
        <ele>810.59997558594</ele>
        <time>2019-02-20T09:19:57.000Z</time>
      </trkpt>
      <trkpt lat="45.31959" lon="4.59425">
        <ele>810.59997558594</ele>
        <time>2019-02-20T09:19:58.000Z</time>
      </trkpt>
      <trkpt lat="45.31959" lon="4.59426">
        <ele>810.59997558594</ele>
        <time>2019-02-20T09:19:59.000Z</time>
      </trkpt>
      <trkpt lat="45.31959" lon="4.59428">
        <ele>810.59997558594</ele>
        <time>2019-02-20T09:20:00.000Z</time>
      </trkpt>
      <trkpt lat="45.31959" lon="4.59431">
        <ele>810.79998779297</ele>
        <time>2019-02-20T09:20:01.000Z</time>
      </trkpt>
      <trkpt lat="45.31959" lon="4.59433">
        <ele>810.79998779297</ele>
        <time>2019-02-20T09:20:02.000Z</time>
      </trkpt>
      <trkpt lat="45.31959" lon="4.59435">
        <ele>811.20001220703</ele>
        <time>2019-02-20T09:20:03.000Z</time>
      </trkpt>
      <trkpt lat="45.31959" lon="4.59437">
        <ele>811.40002441406</ele>
        <time>2019-02-20T09:20:04.000Z</time>
      </trkpt>
      <trkpt lat="45.3196" lon="4.59439">
        <ele>811.40002441406</ele>
        <time>2019-02-20T09:20:05.000Z</time>
      </trkpt>
      <trkpt lat="45.3196" lon="4.59441">
        <ele>811.59997558594</ele>
        <time>2019-02-20T09:20:06.000Z</time>
      </trkpt>
      <trkpt lat="45.3196" lon="4.59443">
        <ele>811.59997558594</ele>
        <time>2019-02-20T09:20:07.000Z</time>
      </trkpt>
      <trkpt lat="45.3196" lon="4.59445">
        <ele>811.79998779297</ele>
        <time>2019-02-20T09:20:08.000Z</time>
      </trkpt>
      <trkpt lat="45.3196" lon="4.59447">
        <ele>812</ele>
        <time>2019-02-20T09:20:09.000Z</time>
      </trkpt>
      <trkpt lat="45.3196" lon="4.59449">
        <ele>812</ele>
        <time>2019-02-20T09:20:10.000Z</time>
      </trkpt>
      <trkpt lat="45.3196" lon="4.59451">
        <ele>812.40002441406</ele>
        <time>2019-02-20T09:20:11.000Z</time>
      </trkpt>
      <trkpt lat="45.31961" lon="4.59453">
        <ele>812.40002441406</ele>
        <time>2019-02-20T09:20:12.000Z</time>
      </trkpt>
      <trkpt lat="45.31961" lon="4.59455">
        <ele>812.40002441406</ele>
        <time>2019-02-20T09:20:13.000Z</time>
      </trkpt>
      <trkpt lat="45.31961" lon="4.59457">
        <ele>812.59997558594</ele>
        <time>2019-02-20T09:20:14.000Z</time>
      </trkpt>
      <trkpt lat="45.31961" lon="4.59459">
        <ele>812.79998779297</ele>
        <time>2019-02-20T09:20:15.000Z</time>
      </trkpt>
      <trkpt lat="45.31962" lon="4.5946">
        <ele>812.79998779297</ele>
        <time>2019-02-20T09:20:16.000Z</time>
      </trkpt>
      <trkpt lat="45.31962" lon="4.59462">
        <ele>813</ele>
        <time>2019-02-20T09:20:17.000Z</time>
      </trkpt>
      <trkpt lat="45.31962" lon="4.59463">
        <ele>813</ele>
        <time>2019-02-20T09:20:18.000Z</time>
      </trkpt>
      <trkpt lat="45.31962" lon="4.59465">
        <ele>813.20001220703</ele>
        <time>2019-02-20T09:20:19.000Z</time>
      </trkpt>
      <trkpt lat="45.31963" lon="4.59467">
        <ele>813.20001220703</ele>
        <time>2019-02-20T09:20:20.000Z</time>
      </trkpt>
      <trkpt lat="45.31963" lon="4.59469">
        <ele>813.40002441406</ele>
        <time>2019-02-20T09:20:21.000Z</time>
      </trkpt>
      <trkpt lat="45.31963" lon="4.59471">
        <ele>813.59997558594</ele>
        <time>2019-02-20T09:20:22.000Z</time>
      </trkpt>
      <trkpt lat="45.31963" lon="4.59473">
        <ele>813.79998779297</ele>
        <time>2019-02-20T09:20:23.000Z</time>
      </trkpt>
      <trkpt lat="45.31963" lon="4.59475">
        <ele>813.79998779297</ele>
        <time>2019-02-20T09:20:24.000Z</time>
      </trkpt>
      <trkpt lat="45.31964" lon="4.59477">
        <ele>814</ele>
        <time>2019-02-20T09:20:25.000Z</time>
      </trkpt>
      <trkpt lat="45.31964" lon="4.59478">
        <ele>814.20001220703</ele>
        <time>2019-02-20T09:20:26.000Z</time>
      </trkpt>
      <trkpt lat="45.31965" lon="4.5948">
        <ele>814.20001220703</ele>
        <time>2019-02-20T09:20:27.000Z</time>
      </trkpt>
      <trkpt lat="45.31965" lon="4.59482">
        <ele>814.40002441406</ele>
        <time>2019-02-20T09:20:28.000Z</time>
      </trkpt>
      <trkpt lat="45.31966" lon="4.59484">
        <ele>814.59997558594</ele>
        <time>2019-02-20T09:20:29.000Z</time>
      </trkpt>
      <trkpt lat="45.31966" lon="4.59485">
        <ele>814.59997558594</ele>
        <time>2019-02-20T09:20:30.000Z</time>
      </trkpt>
      <trkpt lat="45.31967" lon="4.59487">
        <ele>814.79998779297</ele>
        <time>2019-02-20T09:20:31.000Z</time>
      </trkpt>
      <trkpt lat="45.31968" lon="4.59488">
        <ele>814.79998779297</ele>
        <time>2019-02-20T09:20:32.000Z</time>
      </trkpt>
      <trkpt lat="45.31969" lon="4.5949">
        <ele>815</ele>
        <time>2019-02-20T09:20:33.000Z</time>
      </trkpt>
      <trkpt lat="45.31969" lon="4.59492">
        <ele>815.20001220703</ele>
        <time>2019-02-20T09:20:34.000Z</time>
      </trkpt>
      <trkpt lat="45.31969" lon="4.59494">
        <ele>815.20001220703</ele>
        <time>2019-02-20T09:20:35.000Z</time>
      </trkpt>
      <trkpt lat="45.3197" lon="4.59495">
        <ele>815.40002441406</ele>
        <time>2019-02-20T09:20:36.000Z</time>
      </trkpt>
      <trkpt lat="45.31971" lon="4.59497">
        <ele>815.40002441406</ele>
        <time>2019-02-20T09:20:37.000Z</time>
      </trkpt>
      <trkpt lat="45.31971" lon="4.59498">
        <ele>815.59997558594</ele>
        <time>2019-02-20T09:20:38.000Z</time>
      </trkpt>
      <trkpt lat="45.31972" lon="4.595">
        <ele>815.79998779297</ele>
        <time>2019-02-20T09:20:39.000Z</time>
      </trkpt>
      <trkpt lat="45.31972" lon="4.59501">
        <ele>816</ele>
        <time>2019-02-20T09:20:40.000Z</time>
      </trkpt>
      <trkpt lat="45.31973" lon="4.59503">
        <ele>816</ele>
        <time>2019-02-20T09:20:41.000Z</time>
      </trkpt>
      <trkpt lat="45.31973" lon="4.59505">
        <ele>816</ele>
        <time>2019-02-20T09:20:42.000Z</time>
      </trkpt>
      <trkpt lat="45.31973" lon="4.59506">
        <ele>816.20001220703</ele>
        <time>2019-02-20T09:20:43.000Z</time>
      </trkpt>
      <trkpt lat="45.31974" lon="4.59508">
        <ele>816.20001220703</ele>
        <time>2019-02-20T09:20:44.000Z</time>
      </trkpt>
      <trkpt lat="45.31974" lon="4.5951">
        <ele>816.40002441406</ele>
        <time>2019-02-20T09:20:45.000Z</time>
      </trkpt>
      <trkpt lat="45.31975" lon="4.59511">
        <ele>816.40002441406</ele>
        <time>2019-02-20T09:20:46.000Z</time>
      </trkpt>
      <trkpt lat="45.31975" lon="4.59513">
        <ele>816.40002441406</ele>
        <time>2019-02-20T09:20:47.000Z</time>
      </trkpt>
      <trkpt lat="45.31976" lon="4.59514">
        <ele>816.59997558594</ele>
        <time>2019-02-20T09:20:48.000Z</time>
      </trkpt>
      <trkpt lat="45.31976" lon="4.59516">
        <ele>816.79998779297</ele>
        <time>2019-02-20T09:20:49.000Z</time>
      </trkpt>
      <trkpt lat="45.31977" lon="4.59517">
        <ele>817</ele>
        <time>2019-02-20T09:20:50.000Z</time>
      </trkpt>
      <trkpt lat="45.31978" lon="4.59519">
        <ele>817</ele>
        <time>2019-02-20T09:20:51.000Z</time>
      </trkpt>
      <trkpt lat="45.31978" lon="4.59521">
        <ele>817.40002441406</ele>
        <time>2019-02-20T09:20:52.000Z</time>
      </trkpt>
      <trkpt lat="45.31979" lon="4.59523">
        <ele>817.59997558594</ele>
        <time>2019-02-20T09:20:53.000Z</time>
      </trkpt>
      <trkpt lat="45.3198" lon="4.59525">
        <ele>817.59997558594</ele>
        <time>2019-02-20T09:20:54.000Z</time>
      </trkpt>
      <trkpt lat="45.31981" lon="4.59527">
        <ele>817.59997558594</ele>
        <time>2019-02-20T09:20:55.000Z</time>
      </trkpt>
      <trkpt lat="45.31982" lon="4.59529">
        <ele>817.79998779297</ele>
        <time>2019-02-20T09:20:56.000Z</time>
      </trkpt>
      <trkpt lat="45.31982" lon="4.59531">
        <ele>818</ele>
        <time>2019-02-20T09:20:57.000Z</time>
      </trkpt>
      <trkpt lat="45.31983" lon="4.59532">
        <ele>818</ele>
        <time>2019-02-20T09:20:58.000Z</time>
      </trkpt>
      <trkpt lat="45.31984" lon="4.59534">
        <ele>818.40002441406</ele>
        <time>2019-02-20T09:20:59.000Z</time>
      </trkpt>
      <trkpt lat="45.31985" lon="4.59536">
        <ele>818.59997558594</ele>
        <time>2019-02-20T09:21:00.000Z</time>
      </trkpt>
      <trkpt lat="45.31985" lon="4.59538">
        <ele>818.59997558594</ele>
        <time>2019-02-20T09:21:01.000Z</time>
      </trkpt>
      <trkpt lat="45.31986" lon="4.5954">
        <ele>818.59997558594</ele>
        <time>2019-02-20T09:21:02.000Z</time>
      </trkpt>
      <trkpt lat="45.31987" lon="4.59542">
        <ele>819</ele>
        <time>2019-02-20T09:21:03.000Z</time>
      </trkpt>
      <trkpt lat="45.31987" lon="4.59544">
        <ele>818.79998779297</ele>
        <time>2019-02-20T09:21:04.000Z</time>
      </trkpt>
      <trkpt lat="45.31988" lon="4.59545">
        <ele>818.79998779297</ele>
        <time>2019-02-20T09:21:05.000Z</time>
      </trkpt>
      <trkpt lat="45.31988" lon="4.59547">
        <ele>819</ele>
        <time>2019-02-20T09:21:06.000Z</time>
      </trkpt>
      <trkpt lat="45.31988" lon="4.59549">
        <ele>819.20001220703</ele>
        <time>2019-02-20T09:21:07.000Z</time>
      </trkpt>
      <trkpt lat="45.31989" lon="4.59551">
        <ele>819</ele>
        <time>2019-02-20T09:21:08.000Z</time>
      </trkpt>
      <trkpt lat="45.3199" lon="4.59553">
        <ele>819.40002441406</ele>
        <time>2019-02-20T09:21:09.000Z</time>
      </trkpt>
      <trkpt lat="45.3199" lon="4.59555">
        <ele>819.40002441406</ele>
        <time>2019-02-20T09:21:10.000Z</time>
      </trkpt>
      <trkpt lat="45.31991" lon="4.59557">
        <ele>819.40002441406</ele>
        <time>2019-02-20T09:21:11.000Z</time>
      </trkpt>
      <trkpt lat="45.31991" lon="4.59558">
        <ele>819.40002441406</ele>
        <time>2019-02-20T09:21:12.000Z</time>
      </trkpt>
      <trkpt lat="45.31992" lon="4.5956">
        <ele>819.40002441406</ele>
        <time>2019-02-20T09:21:13.000Z</time>
      </trkpt>
      <trkpt lat="45.31993" lon="4.59562">
        <ele>819.59997558594</ele>
        <time>2019-02-20T09:21:14.000Z</time>
      </trkpt>
      <trkpt lat="45.31993" lon="4.59564">
        <ele>819.59997558594</ele>
        <time>2019-02-20T09:21:15.000Z</time>
      </trkpt>
      <trkpt lat="45.31994" lon="4.59566">
        <ele>819.59997558594</ele>
        <time>2019-02-20T09:21:16.000Z</time>
      </trkpt>
      <trkpt lat="45.31994" lon="4.59569">
        <ele>819.79998779297</ele>
        <time>2019-02-20T09:21:17.000Z</time>
      </trkpt>
      <trkpt lat="45.31995" lon="4.59571">
        <ele>820</ele>
        <time>2019-02-20T09:21:18.000Z</time>
      </trkpt>
      <trkpt lat="45.31996" lon="4.59573">
        <ele>820.20001220703</ele>
        <time>2019-02-20T09:21:19.000Z</time>
      </trkpt>
      <trkpt lat="45.31996" lon="4.59575">
        <ele>820.20001220703</ele>
        <time>2019-02-20T09:21:20.000Z</time>
      </trkpt>
      <trkpt lat="45.31997" lon="4.59577">
        <ele>820.20001220703</ele>
        <time>2019-02-20T09:21:21.000Z</time>
      </trkpt>
      <trkpt lat="45.31997" lon="4.59579">
        <ele>820.20001220703</ele>
        <time>2019-02-20T09:21:22.000Z</time>
      </trkpt>
      <trkpt lat="45.31998" lon="4.59581">
        <ele>820.40002441406</ele>
        <time>2019-02-20T09:21:23.000Z</time>
      </trkpt>
      <trkpt lat="45.31998" lon="4.59583">
        <ele>820.40002441406</ele>
        <time>2019-02-20T09:21:24.000Z</time>
      </trkpt>
      <trkpt lat="45.31999" lon="4.59585">
        <ele>820.59997558594</ele>
        <time>2019-02-20T09:21:25.000Z</time>
      </trkpt>
      <trkpt lat="45.32" lon="4.59587">
        <ele>820.59997558594</ele>
        <time>2019-02-20T09:21:26.000Z</time>
      </trkpt>
      <trkpt lat="45.32" lon="4.59589">
        <ele>820.59997558594</ele>
        <time>2019-02-20T09:21:27.000Z</time>
      </trkpt>
      <trkpt lat="45.32001" lon="4.59591">
        <ele>820.59997558594</ele>
        <time>2019-02-20T09:21:28.000Z</time>
      </trkpt>
      <trkpt lat="45.32002" lon="4.59593">
        <ele>820.79998779297</ele>
        <time>2019-02-20T09:21:29.000Z</time>
      </trkpt>
      <trkpt lat="45.32002" lon="4.59594">
        <ele>820.79998779297</ele>
        <time>2019-02-20T09:21:30.000Z</time>
      </trkpt>
      <trkpt lat="45.32003" lon="4.59596">
        <ele>820.79998779297</ele>
        <time>2019-02-20T09:21:31.000Z</time>
      </trkpt>
      <trkpt lat="45.32003" lon="4.59598">
        <ele>820.79998779297</ele>
        <time>2019-02-20T09:21:32.000Z</time>
      </trkpt>
      <trkpt lat="45.32004" lon="4.596">
        <ele>821</ele>
        <time>2019-02-20T09:21:33.000Z</time>
      </trkpt>
      <trkpt lat="45.32004" lon="4.59602">
        <ele>821.20001220703</ele>
        <time>2019-02-20T09:21:34.000Z</time>
      </trkpt>
      <trkpt lat="45.32005" lon="4.59604">
        <ele>821</ele>
        <time>2019-02-20T09:21:35.000Z</time>
      </trkpt>
      <trkpt lat="45.32006" lon="4.59605">
        <ele>821.20001220703</ele>
        <time>2019-02-20T09:21:36.000Z</time>
      </trkpt>
      <trkpt lat="45.32007" lon="4.59607">
        <ele>821.20001220703</ele>
        <time>2019-02-20T09:21:37.000Z</time>
      </trkpt>
      <trkpt lat="45.32007" lon="4.59609">
        <ele>821.40002441406</ele>
        <time>2019-02-20T09:21:38.000Z</time>
      </trkpt>
      <trkpt lat="45.32008" lon="4.59611">
        <ele>821.40002441406</ele>
        <time>2019-02-20T09:21:39.000Z</time>
      </trkpt>
      <trkpt lat="45.32008" lon="4.59613">
        <ele>821.59997558594</ele>
        <time>2019-02-20T09:21:40.000Z</time>
      </trkpt>
      <trkpt lat="45.32009" lon="4.59615">
        <ele>821.59997558594</ele>
        <time>2019-02-20T09:21:41.000Z</time>
      </trkpt>
      <trkpt lat="45.3201" lon="4.59617">
        <ele>821.59997558594</ele>
        <time>2019-02-20T09:21:42.000Z</time>
      </trkpt>
      <trkpt lat="45.3201" lon="4.59619">
        <ele>821.79998779297</ele>
        <time>2019-02-20T09:21:43.000Z</time>
      </trkpt>
      <trkpt lat="45.32011" lon="4.59621">
        <ele>821.79998779297</ele>
        <time>2019-02-20T09:21:44.000Z</time>
      </trkpt>
      <trkpt lat="45.32012" lon="4.59623">
        <ele>822</ele>
        <time>2019-02-20T09:21:45.000Z</time>
      </trkpt>
      <trkpt lat="45.32013" lon="4.59625">
        <ele>822</ele>
        <time>2019-02-20T09:21:46.000Z</time>
      </trkpt>
      <trkpt lat="45.32013" lon="4.59627">
        <ele>821.79998779297</ele>
        <time>2019-02-20T09:21:47.000Z</time>
      </trkpt>
      <trkpt lat="45.32014" lon="4.59629">
        <ele>821.79998779297</ele>
        <time>2019-02-20T09:21:48.000Z</time>
      </trkpt>
      <trkpt lat="45.32014" lon="4.59631">
        <ele>822</ele>
        <time>2019-02-20T09:21:49.000Z</time>
      </trkpt>
      <trkpt lat="45.32015" lon="4.59633">
        <ele>821.79998779297</ele>
        <time>2019-02-20T09:21:50.000Z</time>
      </trkpt>
      <trkpt lat="45.32015" lon="4.59635">
        <ele>822</ele>
        <time>2019-02-20T09:21:51.000Z</time>
      </trkpt>
      <trkpt lat="45.32016" lon="4.59638">
        <ele>822</ele>
        <time>2019-02-20T09:21:52.000Z</time>
      </trkpt>
      <trkpt lat="45.32016" lon="4.5964">
        <ele>822</ele>
        <time>2019-02-20T09:21:53.000Z</time>
      </trkpt>
      <trkpt lat="45.32017" lon="4.59643">
        <ele>822</ele>
        <time>2019-02-20T09:21:54.000Z</time>
      </trkpt>
      <trkpt lat="45.32017" lon="4.59645">
        <ele>822</ele>
        <time>2019-02-20T09:21:55.000Z</time>
      </trkpt>
      <trkpt lat="45.32017" lon="4.59647">
        <ele>822.20001220703</ele>
        <time>2019-02-20T09:21:56.000Z</time>
      </trkpt>
      <trkpt lat="45.32018" lon="4.59649">
        <ele>822.40002441406</ele>
        <time>2019-02-20T09:21:57.000Z</time>
      </trkpt>
      <trkpt lat="45.32018" lon="4.59651">
        <ele>822.59997558594</ele>
        <time>2019-02-20T09:21:58.000Z</time>
      </trkpt>
      <trkpt lat="45.32019" lon="4.59653">
        <ele>822.59997558594</ele>
        <time>2019-02-20T09:21:59.000Z</time>
      </trkpt>
      <trkpt lat="45.32019" lon="4.59654">
        <ele>822.59997558594</ele>
        <time>2019-02-20T09:22:00.000Z</time>
      </trkpt>
      <trkpt lat="45.32019" lon="4.59656">
        <ele>822.59997558594</ele>
        <time>2019-02-20T09:22:01.000Z</time>
      </trkpt>
      <trkpt lat="45.3202" lon="4.59657">
        <ele>823</ele>
        <time>2019-02-20T09:22:02.000Z</time>
      </trkpt>
      <trkpt lat="45.3202" lon="4.59658">
        <ele>823</ele>
        <time>2019-02-20T09:22:03.000Z</time>
      </trkpt>
      <trkpt lat="45.32021" lon="4.59659">
        <ele>823</ele>
        <time>2019-02-20T09:22:04.000Z</time>
      </trkpt>
      <trkpt lat="45.32021" lon="4.5966">
        <ele>823</ele>
        <time>2019-02-20T09:22:05.000Z</time>
      </trkpt>
      <trkpt lat="45.32022" lon="4.59661">
        <ele>823</ele>
        <time>2019-02-20T09:22:06.000Z</time>
      </trkpt>
      <trkpt lat="45.32023" lon="4.59662">
        <ele>823.20001220703</ele>
        <time>2019-02-20T09:22:07.000Z</time>
      </trkpt>
      <trkpt lat="45.32024" lon="4.59661">
        <ele>823.59997558594</ele>
        <time>2019-02-20T09:22:08.000Z</time>
      </trkpt>
      <trkpt lat="45.32025" lon="4.59661">
        <ele>823.79998779297</ele>
        <time>2019-02-20T09:22:09.000Z</time>
      </trkpt>
      <trkpt lat="45.32026" lon="4.59661">
        <ele>823.79998779297</ele>
        <time>2019-02-20T09:22:10.000Z</time>
      </trkpt>
      <trkpt lat="45.32027" lon="4.59661">
        <ele>824</ele>
        <time>2019-02-20T09:22:11.000Z</time>
      </trkpt>
      <trkpt lat="45.32028" lon="4.5966">
        <ele>823.79998779297</ele>
        <time>2019-02-20T09:22:12.000Z</time>
      </trkpt>
      <trkpt lat="45.32028" lon="4.59659">
        <ele>824</ele>
        <time>2019-02-20T09:22:13.000Z</time>
      </trkpt>
      <trkpt lat="45.32029" lon="4.59657">
        <ele>824.20001220703</ele>
        <time>2019-02-20T09:22:14.000Z</time>
      </trkpt>
      <trkpt lat="45.32029" lon="4.59655">
        <ele>824.40002441406</ele>
        <time>2019-02-20T09:22:15.000Z</time>
      </trkpt>
      <trkpt lat="45.32029" lon="4.59653">
        <ele>824.59997558594</ele>
        <time>2019-02-20T09:22:16.000Z</time>
      </trkpt>
      <trkpt lat="45.3203" lon="4.59651">
        <ele>824.79998779297</ele>
        <time>2019-02-20T09:22:17.000Z</time>
      </trkpt>
      <trkpt lat="45.3203" lon="4.59649">
        <ele>825</ele>
        <time>2019-02-20T09:22:18.000Z</time>
      </trkpt>
      <trkpt lat="45.32031" lon="4.59647">
        <ele>825.20001220703</ele>
        <time>2019-02-20T09:22:19.000Z</time>
      </trkpt>
      <trkpt lat="45.32031" lon="4.59645">
        <ele>825.40002441406</ele>
        <time>2019-02-20T09:22:20.000Z</time>
      </trkpt>
      <trkpt lat="45.32031" lon="4.59643">
        <ele>825.40002441406</ele>
        <time>2019-02-20T09:22:21.000Z</time>
      </trkpt>
      <trkpt lat="45.32032" lon="4.59642">
        <ele>825.40002441406</ele>
        <time>2019-02-20T09:22:22.000Z</time>
      </trkpt>
      <trkpt lat="45.32032" lon="4.5964">
        <ele>825.59997558594</ele>
        <time>2019-02-20T09:22:23.000Z</time>
      </trkpt>
      <trkpt lat="45.32032" lon="4.59639">
        <ele>825.79998779297</ele>
        <time>2019-02-20T09:22:24.000Z</time>
      </trkpt>
      <trkpt lat="45.32032" lon="4.59637">
        <ele>825.79998779297</ele>
        <time>2019-02-20T09:22:25.000Z</time>
      </trkpt>
      <trkpt lat="45.32033" lon="4.59635">
        <ele>826</ele>
        <time>2019-02-20T09:22:26.000Z</time>
      </trkpt>
      <trkpt lat="45.32033" lon="4.59634">
        <ele>826.20001220703</ele>
        <time>2019-02-20T09:22:27.000Z</time>
      </trkpt>
      <trkpt lat="45.32033" lon="4.59632">
        <ele>826.40002441406</ele>
        <time>2019-02-20T09:22:28.000Z</time>
      </trkpt>
      <trkpt lat="45.32033" lon="4.59631">
        <ele>826.59997558594</ele>
        <time>2019-02-20T09:22:29.000Z</time>
      </trkpt>
      <trkpt lat="45.32033" lon="4.59629">
        <ele>827</ele>
        <time>2019-02-20T09:22:30.000Z</time>
      </trkpt>
      <trkpt lat="45.32034" lon="4.59628">
        <ele>827.20001220703</ele>
        <time>2019-02-20T09:22:31.000Z</time>
      </trkpt>
      <trkpt lat="45.32034" lon="4.59626">
        <ele>827.59997558594</ele>
        <time>2019-02-20T09:22:32.000Z</time>
      </trkpt>
      <trkpt lat="45.32034" lon="4.59625">
        <ele>827.79998779297</ele>
        <time>2019-02-20T09:22:33.000Z</time>
      </trkpt>
      <trkpt lat="45.32034" lon="4.59623">
        <ele>828.20001220703</ele>
        <time>2019-02-20T09:22:34.000Z</time>
      </trkpt>
      <trkpt lat="45.32035" lon="4.59622">
        <ele>828.20001220703</ele>
        <time>2019-02-20T09:22:35.000Z</time>
      </trkpt>
      <trkpt lat="45.32035" lon="4.59621">
        <ele>828.59997558594</ele>
        <time>2019-02-20T09:22:36.000Z</time>
      </trkpt>
      <trkpt lat="45.32036" lon="4.59619">
        <ele>828.79998779297</ele>
        <time>2019-02-20T09:22:37.000Z</time>
      </trkpt>
      <trkpt lat="45.32036" lon="4.59618">
        <ele>829.20001220703</ele>
        <time>2019-02-20T09:22:38.000Z</time>
      </trkpt>
      <trkpt lat="45.32036" lon="4.59616">
        <ele>829.20001220703</ele>
        <time>2019-02-20T09:22:39.000Z</time>
      </trkpt>
      <trkpt lat="45.32037" lon="4.59615">
        <ele>829.40002441406</ele>
        <time>2019-02-20T09:22:40.000Z</time>
      </trkpt>
      <trkpt lat="45.32037" lon="4.59613">
        <ele>829.59997558594</ele>
        <time>2019-02-20T09:22:41.000Z</time>
      </trkpt>
      <trkpt lat="45.32037" lon="4.59612">
        <ele>829.79998779297</ele>
        <time>2019-02-20T09:22:42.000Z</time>
      </trkpt>
      <trkpt lat="45.32037" lon="4.5961">
        <ele>830</ele>
        <time>2019-02-20T09:22:43.000Z</time>
      </trkpt>
      <trkpt lat="45.32037" lon="4.59608">
        <ele>830.20001220703</ele>
        <time>2019-02-20T09:22:44.000Z</time>
      </trkpt>
      <trkpt lat="45.32038" lon="4.59607">
        <ele>830.40002441406</ele>
        <time>2019-02-20T09:22:45.000Z</time>
      </trkpt>
      <trkpt lat="45.32038" lon="4.59606">
        <ele>830.59997558594</ele>
        <time>2019-02-20T09:22:46.000Z</time>
      </trkpt>
      <trkpt lat="45.32038" lon="4.59604">
        <ele>831</ele>
        <time>2019-02-20T09:22:47.000Z</time>
      </trkpt>
      <trkpt lat="45.32039" lon="4.59603">
        <ele>831.40002441406</ele>
        <time>2019-02-20T09:22:48.000Z</time>
      </trkpt>
      <trkpt lat="45.32039" lon="4.59601">
        <ele>831.40002441406</ele>
        <time>2019-02-20T09:22:49.000Z</time>
      </trkpt>
      <trkpt lat="45.32039" lon="4.59599">
        <ele>831.79998779297</ele>
        <time>2019-02-20T09:22:50.000Z</time>
      </trkpt>
      <trkpt lat="45.3204" lon="4.59598">
        <ele>832</ele>
        <time>2019-02-20T09:22:51.000Z</time>
      </trkpt>
      <trkpt lat="45.3204" lon="4.59596">
        <ele>832</ele>
        <time>2019-02-20T09:22:52.000Z</time>
      </trkpt>
      <trkpt lat="45.32041" lon="4.59594">
        <ele>832.20001220703</ele>
        <time>2019-02-20T09:22:53.000Z</time>
      </trkpt>
      <trkpt lat="45.32042" lon="4.59592">
        <ele>832.40002441406</ele>
        <time>2019-02-20T09:22:54.000Z</time>
      </trkpt>
      <trkpt lat="45.32042" lon="4.5959">
        <ele>832.59997558594</ele>
        <time>2019-02-20T09:22:55.000Z</time>
      </trkpt>
      <trkpt lat="45.32042" lon="4.59588">
        <ele>832.79998779297</ele>
        <time>2019-02-20T09:22:56.000Z</time>
      </trkpt>
      <trkpt lat="45.32042" lon="4.59587">
        <ele>833.20001220703</ele>
        <time>2019-02-20T09:22:57.000Z</time>
      </trkpt>
      <trkpt lat="45.32042" lon="4.59585">
        <ele>833</ele>
        <time>2019-02-20T09:22:58.000Z</time>
      </trkpt>
      <trkpt lat="45.32042" lon="4.59584">
        <ele>833.40002441406</ele>
        <time>2019-02-20T09:22:59.000Z</time>
      </trkpt>
      <trkpt lat="45.32043" lon="4.59582">
        <ele>833.59997558594</ele>
        <time>2019-02-20T09:23:00.000Z</time>
      </trkpt>
      <trkpt lat="45.32043" lon="4.59581">
        <ele>833.79998779297</ele>
        <time>2019-02-20T09:23:01.000Z</time>
      </trkpt>
      <trkpt lat="45.32043" lon="4.59579">
        <ele>834</ele>
        <time>2019-02-20T09:23:02.000Z</time>
      </trkpt>
      <trkpt lat="45.32044" lon="4.59578">
        <ele>834.20001220703</ele>
        <time>2019-02-20T09:23:03.000Z</time>
      </trkpt>
      <trkpt lat="45.32044" lon="4.59576">
        <ele>834.40002441406</ele>
        <time>2019-02-20T09:23:04.000Z</time>
      </trkpt>
      <trkpt lat="45.32045" lon="4.59575">
        <ele>834.40002441406</ele>
        <time>2019-02-20T09:23:05.000Z</time>
      </trkpt>
      <trkpt lat="45.32045" lon="4.59573">
        <ele>834.59997558594</ele>
        <time>2019-02-20T09:23:06.000Z</time>
      </trkpt>
      <trkpt lat="45.32046" lon="4.59572">
        <ele>835</ele>
        <time>2019-02-20T09:23:07.000Z</time>
      </trkpt>
      <trkpt lat="45.32046" lon="4.5957">
        <ele>835.40002441406</ele>
        <time>2019-02-20T09:23:08.000Z</time>
      </trkpt>
      <trkpt lat="45.32047" lon="4.59569">
        <ele>835.59997558594</ele>
        <time>2019-02-20T09:23:09.000Z</time>
      </trkpt>
      <trkpt lat="45.32047" lon="4.59567">
        <ele>835.59997558594</ele>
        <time>2019-02-20T09:23:10.000Z</time>
      </trkpt>
      <trkpt lat="45.32048" lon="4.59566">
        <ele>836.20001220703</ele>
        <time>2019-02-20T09:23:11.000Z</time>
      </trkpt>
      <trkpt lat="45.32048" lon="4.59564">
        <ele>836.40002441406</ele>
        <time>2019-02-20T09:23:12.000Z</time>
      </trkpt>
      <trkpt lat="45.32048" lon="4.59562">
        <ele>836.59997558594</ele>
        <time>2019-02-20T09:23:13.000Z</time>
      </trkpt>
      <trkpt lat="45.32049" lon="4.5956">
        <ele>836.79998779297</ele>
        <time>2019-02-20T09:23:14.000Z</time>
      </trkpt>
      <trkpt lat="45.32049" lon="4.59559">
        <ele>836.79998779297</ele>
        <time>2019-02-20T09:23:15.000Z</time>
      </trkpt>
      <trkpt lat="45.32049" lon="4.59557">
        <ele>837</ele>
        <time>2019-02-20T09:23:16.000Z</time>
      </trkpt>
      <trkpt lat="45.32049" lon="4.59555">
        <ele>837.20001220703</ele>
        <time>2019-02-20T09:23:17.000Z</time>
      </trkpt>
      <trkpt lat="45.3205" lon="4.59554">
        <ele>837.40002441406</ele>
        <time>2019-02-20T09:23:18.000Z</time>
      </trkpt>
      <trkpt lat="45.3205" lon="4.59552">
        <ele>837.59997558594</ele>
        <time>2019-02-20T09:23:19.000Z</time>
      </trkpt>
      <trkpt lat="45.32051" lon="4.5955">
        <ele>837.79998779297</ele>
        <time>2019-02-20T09:23:20.000Z</time>
      </trkpt>
      <trkpt lat="45.32051" lon="4.59549">
        <ele>838</ele>
        <time>2019-02-20T09:23:21.000Z</time>
      </trkpt>
      <trkpt lat="45.32051" lon="4.59547">
        <ele>838</ele>
        <time>2019-02-20T09:23:22.000Z</time>
      </trkpt>
      <trkpt lat="45.32052" lon="4.59545">
        <ele>838.40002441406</ele>
        <time>2019-02-20T09:23:23.000Z</time>
      </trkpt>
      <trkpt lat="45.32052" lon="4.59543">
        <ele>838.59997558594</ele>
        <time>2019-02-20T09:23:24.000Z</time>
      </trkpt>
      <trkpt lat="45.32052" lon="4.59541">
        <ele>838.59997558594</ele>
        <time>2019-02-20T09:23:25.000Z</time>
      </trkpt>
      <trkpt lat="45.32052" lon="4.5954">
        <ele>839</ele>
        <time>2019-02-20T09:23:26.000Z</time>
      </trkpt>
      <trkpt lat="45.32052" lon="4.59538">
        <ele>839</ele>
        <time>2019-02-20T09:23:27.000Z</time>
      </trkpt>
      <trkpt lat="45.32051" lon="4.59536">
        <ele>839.20001220703</ele>
        <time>2019-02-20T09:23:28.000Z</time>
      </trkpt>
      <trkpt lat="45.32051" lon="4.59534">
        <ele>839.40002441406</ele>
        <time>2019-02-20T09:23:29.000Z</time>
      </trkpt>
      <trkpt lat="45.32051" lon="4.59533">
        <ele>839.59997558594</ele>
        <time>2019-02-20T09:23:30.000Z</time>
      </trkpt>
      <trkpt lat="45.32051" lon="4.59531">
        <ele>839.79998779297</ele>
        <time>2019-02-20T09:23:31.000Z</time>
      </trkpt>
      <trkpt lat="45.32051" lon="4.5953">
        <ele>840</ele>
        <time>2019-02-20T09:23:32.000Z</time>
      </trkpt>
      <trkpt lat="45.32051" lon="4.59528">
        <ele>840.40002441406</ele>
        <time>2019-02-20T09:23:33.000Z</time>
      </trkpt>
      <trkpt lat="45.32052" lon="4.59527">
        <ele>840.59997558594</ele>
        <time>2019-02-20T09:23:34.000Z</time>
      </trkpt>
      <trkpt lat="45.32053" lon="4.59525">
        <ele>840.79998779297</ele>
        <time>2019-02-20T09:23:35.000Z</time>
      </trkpt>
      <trkpt lat="45.32053" lon="4.59523">
        <ele>840.79998779297</ele>
        <time>2019-02-20T09:23:36.000Z</time>
      </trkpt>
      <trkpt lat="45.32054" lon="4.59522">
        <ele>841.20001220703</ele>
        <time>2019-02-20T09:23:37.000Z</time>
      </trkpt>
      <trkpt lat="45.32054" lon="4.5952">
        <ele>841.40002441406</ele>
        <time>2019-02-20T09:23:38.000Z</time>
      </trkpt>
      <trkpt lat="45.32054" lon="4.59517">
        <ele>841.59997558594</ele>
        <time>2019-02-20T09:23:39.000Z</time>
      </trkpt>
      <trkpt lat="45.32054" lon="4.59515">
        <ele>842</ele>
        <time>2019-02-20T09:23:40.000Z</time>
      </trkpt>
      <trkpt lat="45.32054" lon="4.59513">
        <ele>842.20001220703</ele>
        <time>2019-02-20T09:23:41.000Z</time>
      </trkpt>
      <trkpt lat="45.32054" lon="4.59511">
        <ele>842.40002441406</ele>
        <time>2019-02-20T09:23:42.000Z</time>
      </trkpt>
      <trkpt lat="45.32054" lon="4.59509">
        <ele>843</ele>
        <time>2019-02-20T09:23:43.000Z</time>
      </trkpt>
      <trkpt lat="45.32054" lon="4.59507">
        <ele>843.40002441406</ele>
        <time>2019-02-20T09:23:44.000Z</time>
      </trkpt>
      <trkpt lat="45.32055" lon="4.59504">
        <ele>843.59997558594</ele>
        <time>2019-02-20T09:23:45.000Z</time>
      </trkpt>
      <trkpt lat="45.32055" lon="4.59502">
        <ele>843.79998779297</ele>
        <time>2019-02-20T09:23:46.000Z</time>
      </trkpt>
      <trkpt lat="45.32055" lon="4.59499">
        <ele>844</ele>
        <time>2019-02-20T09:23:47.000Z</time>
      </trkpt>
      <trkpt lat="45.32056" lon="4.59497">
        <ele>844.20001220703</ele>
        <time>2019-02-20T09:23:48.000Z</time>
      </trkpt>
      <trkpt lat="45.32057" lon="4.59495">
        <ele>844.59997558594</ele>
        <time>2019-02-20T09:23:49.000Z</time>
      </trkpt>
      <trkpt lat="45.32057" lon="4.59494">
        <ele>844.79998779297</ele>
        <time>2019-02-20T09:23:50.000Z</time>
      </trkpt>
      <trkpt lat="45.32058" lon="4.59492">
        <ele>844.79998779297</ele>
        <time>2019-02-20T09:23:51.000Z</time>
      </trkpt>
      <trkpt lat="45.32058" lon="4.5949">
        <ele>845</ele>
        <time>2019-02-20T09:23:52.000Z</time>
      </trkpt>
      <trkpt lat="45.32059" lon="4.59488">
        <ele>845.20001220703</ele>
        <time>2019-02-20T09:23:53.000Z</time>
      </trkpt>
      <trkpt lat="45.3206" lon="4.59487">
        <ele>845.20001220703</ele>
        <time>2019-02-20T09:23:54.000Z</time>
      </trkpt>
      <trkpt lat="45.3206" lon="4.59485">
        <ele>845.40002441406</ele>
        <time>2019-02-20T09:23:55.000Z</time>
      </trkpt>
      <trkpt lat="45.32061" lon="4.59483">
        <ele>845.79998779297</ele>
        <time>2019-02-20T09:23:56.000Z</time>
      </trkpt>
      <trkpt lat="45.32061" lon="4.59481">
        <ele>846.20001220703</ele>
        <time>2019-02-20T09:23:57.000Z</time>
      </trkpt>
      <trkpt lat="45.32062" lon="4.5948">
        <ele>846.20001220703</ele>
        <time>2019-02-20T09:23:58.000Z</time>
      </trkpt>
      <trkpt lat="45.32062" lon="4.59478">
        <ele>846.40002441406</ele>
        <time>2019-02-20T09:23:59.000Z</time>
      </trkpt>
      <trkpt lat="45.32063" lon="4.59476">
        <ele>846.59997558594</ele>
        <time>2019-02-20T09:24:00.000Z</time>
      </trkpt>
      <trkpt lat="45.32063" lon="4.59474">
        <ele>846.59997558594</ele>
        <time>2019-02-20T09:24:01.000Z</time>
      </trkpt>
      <trkpt lat="45.32064" lon="4.59473">
        <ele>846.59997558594</ele>
        <time>2019-02-20T09:24:02.000Z</time>
      </trkpt>
      <trkpt lat="45.32065" lon="4.59471">
        <ele>846.79998779297</ele>
        <time>2019-02-20T09:24:03.000Z</time>
      </trkpt>
      <trkpt lat="45.32065" lon="4.5947">
        <ele>847</ele>
        <time>2019-02-20T09:24:04.000Z</time>
      </trkpt>
      <trkpt lat="45.32066" lon="4.59468">
        <ele>847</ele>
        <time>2019-02-20T09:24:05.000Z</time>
      </trkpt>
      <trkpt lat="45.32067" lon="4.59467">
        <ele>847.40002441406</ele>
        <time>2019-02-20T09:24:06.000Z</time>
      </trkpt>
      <trkpt lat="45.32068" lon="4.59466">
        <ele>847.59997558594</ele>
        <time>2019-02-20T09:24:07.000Z</time>
      </trkpt>
      <trkpt lat="45.32069" lon="4.59465">
        <ele>847.79998779297</ele>
        <time>2019-02-20T09:24:08.000Z</time>
      </trkpt>
      <trkpt lat="45.32069" lon="4.59464">
        <ele>848</ele>
        <time>2019-02-20T09:24:09.000Z</time>
      </trkpt>
      <trkpt lat="45.3207" lon="4.59463">
        <ele>848.20001220703</ele>
        <time>2019-02-20T09:24:10.000Z</time>
      </trkpt>
      <trkpt lat="45.32071" lon="4.59462">
        <ele>848.40002441406</ele>
        <time>2019-02-20T09:24:11.000Z</time>
      </trkpt>
      <trkpt lat="45.32072" lon="4.59461">
        <ele>848.59997558594</ele>
        <time>2019-02-20T09:24:12.000Z</time>
      </trkpt>
      <trkpt lat="45.32073" lon="4.5946">
        <ele>848.79998779297</ele>
        <time>2019-02-20T09:24:13.000Z</time>
      </trkpt>
      <trkpt lat="45.32074" lon="4.59459">
        <ele>849</ele>
        <time>2019-02-20T09:24:14.000Z</time>
      </trkpt>
      <trkpt lat="45.32075" lon="4.59459">
        <ele>849</ele>
        <time>2019-02-20T09:24:15.000Z</time>
      </trkpt>
      <trkpt lat="45.32076" lon="4.59458">
        <ele>849.20001220703</ele>
        <time>2019-02-20T09:24:16.000Z</time>
      </trkpt>
      <trkpt lat="45.32077" lon="4.59457">
        <ele>849.40002441406</ele>
        <time>2019-02-20T09:24:17.000Z</time>
      </trkpt>
      <trkpt lat="45.32079" lon="4.59456">
        <ele>849.59997558594</ele>
        <time>2019-02-20T09:24:18.000Z</time>
      </trkpt>
      <trkpt lat="45.3208" lon="4.59455">
        <ele>849.79998779297</ele>
        <time>2019-02-20T09:24:19.000Z</time>
      </trkpt>
      <trkpt lat="45.32082" lon="4.59454">
        <ele>849.79998779297</ele>
        <time>2019-02-20T09:24:20.000Z</time>
      </trkpt>
      <trkpt lat="45.32083" lon="4.59453">
        <ele>849.79998779297</ele>
        <time>2019-02-20T09:24:21.000Z</time>
      </trkpt>
      <trkpt lat="45.32084" lon="4.59453">
        <ele>850</ele>
        <time>2019-02-20T09:24:22.000Z</time>
      </trkpt>
      <trkpt lat="45.32085" lon="4.59452">
        <ele>850.20001220703</ele>
        <time>2019-02-20T09:24:23.000Z</time>
      </trkpt>
      <trkpt lat="45.32086" lon="4.59452">
        <ele>850.40002441406</ele>
        <time>2019-02-20T09:24:24.000Z</time>
      </trkpt>
      <trkpt lat="45.32088" lon="4.59451">
        <ele>850.40002441406</ele>
        <time>2019-02-20T09:24:25.000Z</time>
      </trkpt>
      <trkpt lat="45.32089" lon="4.5945">
        <ele>850.59997558594</ele>
        <time>2019-02-20T09:24:26.000Z</time>
      </trkpt>
      <trkpt lat="45.3209" lon="4.59449">
        <ele>850.59997558594</ele>
        <time>2019-02-20T09:24:27.000Z</time>
      </trkpt>
      <trkpt lat="45.32091" lon="4.59449">
        <ele>850.79998779297</ele>
        <time>2019-02-20T09:24:28.000Z</time>
      </trkpt>
      <trkpt lat="45.32092" lon="4.59448">
        <ele>851</ele>
        <time>2019-02-20T09:24:29.000Z</time>
      </trkpt>
      <trkpt lat="45.32093" lon="4.59448">
        <ele>851.20001220703</ele>
        <time>2019-02-20T09:24:30.000Z</time>
      </trkpt>
      <trkpt lat="45.32094" lon="4.59447">
        <ele>851.40002441406</ele>
        <time>2019-02-20T09:24:31.000Z</time>
      </trkpt>
      <trkpt lat="45.32095" lon="4.59447">
        <ele>851.79998779297</ele>
        <time>2019-02-20T09:24:32.000Z</time>
      </trkpt>
      <trkpt lat="45.32096" lon="4.59447">
        <ele>851.59997558594</ele>
        <time>2019-02-20T09:24:33.000Z</time>
      </trkpt>
      <trkpt lat="45.32096" lon="4.59447">
        <ele>852</ele>
        <time>2019-02-20T09:24:34.000Z</time>
      </trkpt>
      <trkpt lat="45.32096" lon="4.59447">
        <ele>852</ele>
        <time>2019-02-20T09:24:35.000Z</time>
      </trkpt>
      <trkpt lat="45.321" lon="4.59443">
        <ele>852.79998779297</ele>
        <time>2019-02-20T09:24:40.000Z</time>
      </trkpt>
      <trkpt lat="45.32101" lon="4.59442">
        <ele>852.79998779297</ele>
        <time>2019-02-20T09:24:41.000Z</time>
      </trkpt>
      <trkpt lat="45.32102" lon="4.59441">
        <ele>853</ele>
        <time>2019-02-20T09:24:42.000Z</time>
      </trkpt>
      <trkpt lat="45.32103" lon="4.59441">
        <ele>853</ele>
        <time>2019-02-20T09:24:43.000Z</time>
      </trkpt>
      <trkpt lat="45.32105" lon="4.5944">
        <ele>853</ele>
        <time>2019-02-20T09:24:44.000Z</time>
      </trkpt>
      <trkpt lat="45.32106" lon="4.5944">
        <ele>853</ele>
        <time>2019-02-20T09:24:45.000Z</time>
      </trkpt>
      <trkpt lat="45.32107" lon="4.5944">
        <ele>853.20001220703</ele>
        <time>2019-02-20T09:24:46.000Z</time>
      </trkpt>
      <trkpt lat="45.32108" lon="4.5944">
        <ele>853.40002441406</ele>
        <time>2019-02-20T09:24:47.000Z</time>
      </trkpt>
      <trkpt lat="45.3211" lon="4.5944">
        <ele>853.20001220703</ele>
        <time>2019-02-20T09:24:48.000Z</time>
      </trkpt>
      <trkpt lat="45.32111" lon="4.5944">
        <ele>853.40002441406</ele>
        <time>2019-02-20T09:24:49.000Z</time>
      </trkpt>
      <trkpt lat="45.32112" lon="4.59441">
        <ele>853.59997558594</ele>
        <time>2019-02-20T09:24:50.000Z</time>
      </trkpt>
      <trkpt lat="45.32112" lon="4.59443">
        <ele>853.79998779297</ele>
        <time>2019-02-20T09:24:51.000Z</time>
      </trkpt>
      <trkpt lat="45.32111" lon="4.59445">
        <ele>853.79998779297</ele>
        <time>2019-02-20T09:24:52.000Z</time>
      </trkpt>
      <trkpt lat="45.3211" lon="4.59447">
        <ele>854</ele>
        <time>2019-02-20T09:24:53.000Z</time>
      </trkpt>
      <trkpt lat="45.32109" lon="4.59448">
        <ele>854</ele>
        <time>2019-02-20T09:24:54.000Z</time>
      </trkpt>
      <trkpt lat="45.32109" lon="4.59449">
        <ele>854.40002441406</ele>
        <time>2019-02-20T09:24:55.000Z</time>
      </trkpt>
      <trkpt lat="45.32108" lon="4.5945">
        <ele>854.40002441406</ele>
        <time>2019-02-20T09:24:56.000Z</time>
      </trkpt>
      <trkpt lat="45.32107" lon="4.59452">
        <ele>854.59997558594</ele>
        <time>2019-02-20T09:24:57.000Z</time>
      </trkpt>
      <trkpt lat="45.32106" lon="4.59453">
        <ele>854.79998779297</ele>
        <time>2019-02-20T09:24:58.000Z</time>
      </trkpt>
      <trkpt lat="45.32106" lon="4.59455">
        <ele>855</ele>
        <time>2019-02-20T09:24:59.000Z</time>
      </trkpt>
      <trkpt lat="45.32105" lon="4.59456">
        <ele>855</ele>
        <time>2019-02-20T09:25:00.000Z</time>
      </trkpt>
      <trkpt lat="45.32105" lon="4.59458">
        <ele>855.20001220703</ele>
        <time>2019-02-20T09:25:01.000Z</time>
      </trkpt>
      <trkpt lat="45.32104" lon="4.59459">
        <ele>855.20001220703</ele>
        <time>2019-02-20T09:25:02.000Z</time>
      </trkpt>
      <trkpt lat="45.32103" lon="4.5946">
        <ele>855.59997558594</ele>
        <time>2019-02-20T09:25:03.000Z</time>
      </trkpt>
      <trkpt lat="45.32103" lon="4.59462">
        <ele>856</ele>
        <time>2019-02-20T09:25:04.000Z</time>
      </trkpt>
      <trkpt lat="45.32103" lon="4.59464">
        <ele>856</ele>
        <time>2019-02-20T09:25:05.000Z</time>
      </trkpt>
      <trkpt lat="45.32102" lon="4.59466">
        <ele>856.20001220703</ele>
        <time>2019-02-20T09:25:06.000Z</time>
      </trkpt>
      <trkpt lat="45.32102" lon="4.59468">
        <ele>856.20001220703</ele>
        <time>2019-02-20T09:25:07.000Z</time>
      </trkpt>
      <trkpt lat="45.32102" lon="4.5947">
        <ele>856.40002441406</ele>
        <time>2019-02-20T09:25:08.000Z</time>
      </trkpt>
      <trkpt lat="45.32102" lon="4.59472">
        <ele>856.40002441406</ele>
        <time>2019-02-20T09:25:09.000Z</time>
      </trkpt>
      <trkpt lat="45.32102" lon="4.59474">
        <ele>856.59997558594</ele>
        <time>2019-02-20T09:25:10.000Z</time>
      </trkpt>
      <trkpt lat="45.32102" lon="4.59476">
        <ele>856.79998779297</ele>
        <time>2019-02-20T09:25:11.000Z</time>
      </trkpt>
      <trkpt lat="45.32102" lon="4.59478">
        <ele>857</ele>
        <time>2019-02-20T09:25:12.000Z</time>
      </trkpt>
      <trkpt lat="45.32103" lon="4.5948">
        <ele>857</ele>
        <time>2019-02-20T09:25:13.000Z</time>
      </trkpt>
      <trkpt lat="45.32103" lon="4.59482">
        <ele>857.20001220703</ele>
        <time>2019-02-20T09:25:14.000Z</time>
      </trkpt>
      <trkpt lat="45.32103" lon="4.59484">
        <ele>857.40002441406</ele>
        <time>2019-02-20T09:25:15.000Z</time>
      </trkpt>
      <trkpt lat="45.32103" lon="4.59485">
        <ele>857.59997558594</ele>
        <time>2019-02-20T09:25:16.000Z</time>
      </trkpt>
      <trkpt lat="45.32104" lon="4.59487">
        <ele>857.59997558594</ele>
        <time>2019-02-20T09:25:17.000Z</time>
      </trkpt>
      <trkpt lat="45.32104" lon="4.59488">
        <ele>857.79998779297</ele>
        <time>2019-02-20T09:25:18.000Z</time>
      </trkpt>
      <trkpt lat="45.32105" lon="4.5949">
        <ele>858</ele>
        <time>2019-02-20T09:25:19.000Z</time>
      </trkpt>
      <trkpt lat="45.32106" lon="4.59491">
        <ele>858</ele>
        <time>2019-02-20T09:25:20.000Z</time>
      </trkpt>
      <trkpt lat="45.32107" lon="4.59492">
        <ele>858.20001220703</ele>
        <time>2019-02-20T09:25:21.000Z</time>
      </trkpt>
      <trkpt lat="45.32107" lon="4.59493">
        <ele>858.40002441406</ele>
        <time>2019-02-20T09:25:22.000Z</time>
      </trkpt>
      <trkpt lat="45.32108" lon="4.59495">
        <ele>858.59997558594</ele>
        <time>2019-02-20T09:25:23.000Z</time>
      </trkpt>
      <trkpt lat="45.32109" lon="4.59496">
        <ele>859</ele>
        <time>2019-02-20T09:25:24.000Z</time>
      </trkpt>
      <trkpt lat="45.3211" lon="4.59496">
        <ele>859</ele>
        <time>2019-02-20T09:25:25.000Z</time>
      </trkpt>
      <trkpt lat="45.32111" lon="4.59497">
        <ele>859.20001220703</ele>
        <time>2019-02-20T09:25:26.000Z</time>
      </trkpt>
      <trkpt lat="45.32112" lon="4.59498">
        <ele>859.40002441406</ele>
        <time>2019-02-20T09:25:27.000Z</time>
      </trkpt>
      <trkpt lat="45.32113" lon="4.59498">
        <ele>859.20001220703</ele>
        <time>2019-02-20T09:25:28.000Z</time>
      </trkpt>
      <trkpt lat="45.32114" lon="4.59498">
        <ele>859.20001220703</ele>
        <time>2019-02-20T09:25:29.000Z</time>
      </trkpt>
      <trkpt lat="45.32115" lon="4.59498">
        <ele>859.59997558594</ele>
        <time>2019-02-20T09:25:30.000Z</time>
      </trkpt>
      <trkpt lat="45.32116" lon="4.59498">
        <ele>859.59997558594</ele>
        <time>2019-02-20T09:25:31.000Z</time>
      </trkpt>
      <trkpt lat="45.32118" lon="4.59498">
        <ele>859.79998779297</ele>
        <time>2019-02-20T09:25:32.000Z</time>
      </trkpt>
      <trkpt lat="45.32119" lon="4.59497">
        <ele>860</ele>
        <time>2019-02-20T09:25:33.000Z</time>
      </trkpt>
      <trkpt lat="45.3212" lon="4.59497">
        <ele>860.40002441406</ele>
        <time>2019-02-20T09:25:34.000Z</time>
      </trkpt>
      <trkpt lat="45.32121" lon="4.59496">
        <ele>860.40002441406</ele>
        <time>2019-02-20T09:25:35.000Z</time>
      </trkpt>
      <trkpt lat="45.32122" lon="4.59496">
        <ele>860.40002441406</ele>
        <time>2019-02-20T09:25:36.000Z</time>
      </trkpt>
      <trkpt lat="45.32124" lon="4.59495">
        <ele>860.40002441406</ele>
        <time>2019-02-20T09:25:37.000Z</time>
      </trkpt>
      <trkpt lat="45.32125" lon="4.59495">
        <ele>860.59997558594</ele>
        <time>2019-02-20T09:25:38.000Z</time>
      </trkpt>
      <trkpt lat="45.32126" lon="4.59494">
        <ele>860.59997558594</ele>
        <time>2019-02-20T09:25:39.000Z</time>
      </trkpt>
      <trkpt lat="45.32127" lon="4.59493">
        <ele>860.79998779297</ele>
        <time>2019-02-20T09:25:40.000Z</time>
      </trkpt>
      <trkpt lat="45.32129" lon="4.59493">
        <ele>861</ele>
        <time>2019-02-20T09:25:41.000Z</time>
      </trkpt>
      <trkpt lat="45.3213" lon="4.59492">
        <ele>861</ele>
        <time>2019-02-20T09:25:42.000Z</time>
      </trkpt>
      <trkpt lat="45.32131" lon="4.59492">
        <ele>861</ele>
        <time>2019-02-20T09:25:43.000Z</time>
      </trkpt>
      <trkpt lat="45.32132" lon="4.59491">
        <ele>861.20001220703</ele>
        <time>2019-02-20T09:25:44.000Z</time>
      </trkpt>
      <trkpt lat="45.32133" lon="4.5949">
        <ele>861.20001220703</ele>
        <time>2019-02-20T09:25:45.000Z</time>
      </trkpt>
      <trkpt lat="45.32134" lon="4.5949">
        <ele>861.40002441406</ele>
        <time>2019-02-20T09:25:46.000Z</time>
      </trkpt>
      <trkpt lat="45.32135" lon="4.59489">
        <ele>861.40002441406</ele>
        <time>2019-02-20T09:25:47.000Z</time>
      </trkpt>
      <trkpt lat="45.32136" lon="4.59488">
        <ele>861.59997558594</ele>
        <time>2019-02-20T09:25:48.000Z</time>
      </trkpt>
      <trkpt lat="45.32138" lon="4.59488">
        <ele>861.79998779297</ele>
        <time>2019-02-20T09:25:49.000Z</time>
      </trkpt>
      <trkpt lat="45.32139" lon="4.59487">
        <ele>862</ele>
        <time>2019-02-20T09:25:50.000Z</time>
      </trkpt>
      <trkpt lat="45.3214" lon="4.59487">
        <ele>862</ele>
        <time>2019-02-20T09:25:51.000Z</time>
      </trkpt>
      <trkpt lat="45.32142" lon="4.59486">
        <ele>862.20001220703</ele>
        <time>2019-02-20T09:25:52.000Z</time>
      </trkpt>
      <trkpt lat="45.32143" lon="4.59485">
        <ele>862.40002441406</ele>
        <time>2019-02-20T09:25:53.000Z</time>
      </trkpt>
      <trkpt lat="45.32144" lon="4.59485">
        <ele>862.40002441406</ele>
        <time>2019-02-20T09:25:54.000Z</time>
      </trkpt>
      <trkpt lat="45.32145" lon="4.59484">
        <ele>862.59997558594</ele>
        <time>2019-02-20T09:25:55.000Z</time>
      </trkpt>
      <trkpt lat="45.32146" lon="4.59483">
        <ele>862.59997558594</ele>
        <time>2019-02-20T09:25:56.000Z</time>
      </trkpt>
      <trkpt lat="45.32148" lon="4.59482">
        <ele>862.59997558594</ele>
        <time>2019-02-20T09:25:57.000Z</time>
      </trkpt>
      <trkpt lat="45.32149" lon="4.59482">
        <ele>863</ele>
        <time>2019-02-20T09:25:58.000Z</time>
      </trkpt>
      <trkpt lat="45.3215" lon="4.59481">
        <ele>863.20001220703</ele>
        <time>2019-02-20T09:25:59.000Z</time>
      </trkpt>
      <trkpt lat="45.32151" lon="4.5948">
        <ele>863.59997558594</ele>
        <time>2019-02-20T09:26:00.000Z</time>
      </trkpt>
      <trkpt lat="45.32152" lon="4.5948">
        <ele>863.59997558594</ele>
        <time>2019-02-20T09:26:01.000Z</time>
      </trkpt>
      <trkpt lat="45.32153" lon="4.5948">
        <ele>863.59997558594</ele>
        <time>2019-02-20T09:26:02.000Z</time>
      </trkpt>
      <trkpt lat="45.32154" lon="4.5948">
        <ele>863.79998779297</ele>
        <time>2019-02-20T09:26:03.000Z</time>
      </trkpt>
      <trkpt lat="45.32155" lon="4.5948">
        <ele>864.20001220703</ele>
        <time>2019-02-20T09:26:04.000Z</time>
      </trkpt>
      <trkpt lat="45.32157" lon="4.5948">
        <ele>864.20001220703</ele>
        <time>2019-02-20T09:26:05.000Z</time>
      </trkpt>
      <trkpt lat="45.32158" lon="4.59481">
        <ele>864.40002441406</ele>
        <time>2019-02-20T09:26:06.000Z</time>
      </trkpt>
      <trkpt lat="45.32159" lon="4.59482">
        <ele>864.59997558594</ele>
        <time>2019-02-20T09:26:07.000Z</time>
      </trkpt>
      <trkpt lat="45.3216" lon="4.59483">
        <ele>864.59997558594</ele>
        <time>2019-02-20T09:26:08.000Z</time>
      </trkpt>
      <trkpt lat="45.32161" lon="4.59484">
        <ele>865</ele>
        <time>2019-02-20T09:26:09.000Z</time>
      </trkpt>
      <trkpt lat="45.32163" lon="4.59484">
        <ele>865</ele>
        <time>2019-02-20T09:26:10.000Z</time>
      </trkpt>
      <trkpt lat="45.32164" lon="4.59485">
        <ele>865.20001220703</ele>
        <time>2019-02-20T09:26:11.000Z</time>
      </trkpt>
      <trkpt lat="45.32165" lon="4.59487">
        <ele>865.59997558594</ele>
        <time>2019-02-20T09:26:12.000Z</time>
      </trkpt>
      <trkpt lat="45.32167" lon="4.59488">
        <ele>865.59997558594</ele>
        <time>2019-02-20T09:26:13.000Z</time>
      </trkpt>
      <trkpt lat="45.32168" lon="4.5949">
        <ele>865.59997558594</ele>
        <time>2019-02-20T09:26:14.000Z</time>
      </trkpt>
      <trkpt lat="45.32169" lon="4.59491">
        <ele>865.79998779297</ele>
        <time>2019-02-20T09:26:15.000Z</time>
      </trkpt>
      <trkpt lat="45.3217" lon="4.59492">
        <ele>865.79998779297</ele>
        <time>2019-02-20T09:26:16.000Z</time>
      </trkpt>
      <trkpt lat="45.32172" lon="4.59493">
        <ele>866.20001220703</ele>
        <time>2019-02-20T09:26:17.000Z</time>
      </trkpt>
      <trkpt lat="45.32173" lon="4.59494">
        <ele>866.40002441406</ele>
        <time>2019-02-20T09:26:18.000Z</time>
      </trkpt>
      <trkpt lat="45.32174" lon="4.59496">
        <ele>866.59997558594</ele>
        <time>2019-02-20T09:26:19.000Z</time>
      </trkpt>
      <trkpt lat="45.32175" lon="4.59497">
        <ele>866.79998779297</ele>
        <time>2019-02-20T09:26:20.000Z</time>
      </trkpt>
      <trkpt lat="45.32176" lon="4.59498">
        <ele>866.79998779297</ele>
        <time>2019-02-20T09:26:21.000Z</time>
      </trkpt>
      <trkpt lat="45.32177" lon="4.59499">
        <ele>867.20001220703</ele>
        <time>2019-02-20T09:26:22.000Z</time>
      </trkpt>
      <trkpt lat="45.32179" lon="4.59501">
        <ele>867.40002441406</ele>
        <time>2019-02-20T09:26:23.000Z</time>
      </trkpt>
      <trkpt lat="45.3218" lon="4.59502">
        <ele>867.79998779297</ele>
        <time>2019-02-20T09:26:24.000Z</time>
      </trkpt>
      <trkpt lat="45.32182" lon="4.59503">
        <ele>868</ele>
        <time>2019-02-20T09:26:25.000Z</time>
      </trkpt>
      <trkpt lat="45.32183" lon="4.59505">
        <ele>868.40002441406</ele>
        <time>2019-02-20T09:26:26.000Z</time>
      </trkpt>
      <trkpt lat="45.32184" lon="4.59506">
        <ele>868.40002441406</ele>
        <time>2019-02-20T09:26:27.000Z</time>
      </trkpt>
      <trkpt lat="45.32186" lon="4.59508">
        <ele>868.59997558594</ele>
        <time>2019-02-20T09:26:28.000Z</time>
      </trkpt>
      <trkpt lat="45.32187" lon="4.59509">
        <ele>868.79998779297</ele>
        <time>2019-02-20T09:26:29.000Z</time>
      </trkpt>
      <trkpt lat="45.32188" lon="4.59511">
        <ele>869</ele>
        <time>2019-02-20T09:26:30.000Z</time>
      </trkpt>
      <trkpt lat="45.32189" lon="4.59512">
        <ele>869.20001220703</ele>
        <time>2019-02-20T09:26:31.000Z</time>
      </trkpt>
      <trkpt lat="45.32191" lon="4.59514">
        <ele>869.59997558594</ele>
        <time>2019-02-20T09:26:32.000Z</time>
      </trkpt>
      <trkpt lat="45.32192" lon="4.59516">
        <ele>869.59997558594</ele>
        <time>2019-02-20T09:26:33.000Z</time>
      </trkpt>
      <trkpt lat="45.32193" lon="4.59517">
        <ele>869.79998779297</ele>
        <time>2019-02-20T09:26:34.000Z</time>
      </trkpt>
      <trkpt lat="45.32194" lon="4.59519">
        <ele>869.79998779297</ele>
        <time>2019-02-20T09:26:35.000Z</time>
      </trkpt>
      <trkpt lat="45.32195" lon="4.5952">
        <ele>870</ele>
        <time>2019-02-20T09:26:36.000Z</time>
      </trkpt>
      <trkpt lat="45.32197" lon="4.59522">
        <ele>870.20001220703</ele>
        <time>2019-02-20T09:26:37.000Z</time>
      </trkpt>
      <trkpt lat="45.32198" lon="4.59523">
        <ele>870.40002441406</ele>
        <time>2019-02-20T09:26:38.000Z</time>
      </trkpt>
      <trkpt lat="45.32199" lon="4.59525">
        <ele>870.59997558594</ele>
        <time>2019-02-20T09:26:39.000Z</time>
      </trkpt>
      <trkpt lat="45.322" lon="4.59526">
        <ele>870.59997558594</ele>
        <time>2019-02-20T09:26:40.000Z</time>
      </trkpt>
      <trkpt lat="45.32201" lon="4.59528">
        <ele>870.79998779297</ele>
        <time>2019-02-20T09:26:41.000Z</time>
      </trkpt>
      <trkpt lat="45.32203" lon="4.59529">
        <ele>871</ele>
        <time>2019-02-20T09:26:42.000Z</time>
      </trkpt>
      <trkpt lat="45.32204" lon="4.59531">
        <ele>871.20001220703</ele>
        <time>2019-02-20T09:26:43.000Z</time>
      </trkpt>
      <trkpt lat="45.32205" lon="4.59532">
        <ele>871.59997558594</ele>
        <time>2019-02-20T09:26:44.000Z</time>
      </trkpt>
      <trkpt lat="45.32206" lon="4.59533">
        <ele>871.79998779297</ele>
        <time>2019-02-20T09:26:45.000Z</time>
      </trkpt>
      <trkpt lat="45.32208" lon="4.59535">
        <ele>871.79998779297</ele>
        <time>2019-02-20T09:26:46.000Z</time>
      </trkpt>
      <trkpt lat="45.32209" lon="4.59536">
        <ele>872.20001220703</ele>
        <time>2019-02-20T09:26:47.000Z</time>
      </trkpt>
      <trkpt lat="45.32211" lon="4.59537">
        <ele>872.40002441406</ele>
        <time>2019-02-20T09:26:48.000Z</time>
      </trkpt>
      <trkpt lat="45.32212" lon="4.59538">
        <ele>872.79998779297</ele>
        <time>2019-02-20T09:26:49.000Z</time>
      </trkpt>
      <trkpt lat="45.32213" lon="4.59539">
        <ele>872.79998779297</ele>
        <time>2019-02-20T09:26:50.000Z</time>
      </trkpt>
      <trkpt lat="45.32214" lon="4.5954">
        <ele>872.79998779297</ele>
        <time>2019-02-20T09:26:51.000Z</time>
      </trkpt>
      <trkpt lat="45.32215" lon="4.59541">
        <ele>873</ele>
        <time>2019-02-20T09:26:52.000Z</time>
      </trkpt>
      <trkpt lat="45.32216" lon="4.59542">
        <ele>873</ele>
        <time>2019-02-20T09:26:53.000Z</time>
      </trkpt>
      <trkpt lat="45.32217" lon="4.59542">
        <ele>873.20001220703</ele>
        <time>2019-02-20T09:26:54.000Z</time>
      </trkpt>
      <trkpt lat="45.32218" lon="4.59543">
        <ele>873.20001220703</ele>
        <time>2019-02-20T09:26:55.000Z</time>
      </trkpt>
      <trkpt lat="45.32219" lon="4.59544">
        <ele>873.40002441406</ele>
        <time>2019-02-20T09:26:56.000Z</time>
      </trkpt>
      <trkpt lat="45.3222" lon="4.59544">
        <ele>873.40002441406</ele>
        <time>2019-02-20T09:26:57.000Z</time>
      </trkpt>
      <trkpt lat="45.32221" lon="4.59545">
        <ele>873.79998779297</ele>
        <time>2019-02-20T09:26:58.000Z</time>
      </trkpt>
      <trkpt lat="45.32222" lon="4.59546">
        <ele>873.79998779297</ele>
        <time>2019-02-20T09:26:59.000Z</time>
      </trkpt>
      <trkpt lat="45.32222" lon="4.59547">
        <ele>873.79998779297</ele>
        <time>2019-02-20T09:27:00.000Z</time>
      </trkpt>
      <trkpt lat="45.32222" lon="4.59546">
        <ele>874</ele>
        <time>2019-02-20T09:27:01.000Z</time>
      </trkpt>
      <trkpt lat="45.32232" lon="4.59552">
        <ele>873.59997558594</ele>
        <time>2019-02-20T09:40:45.000Z</time>
      </trkpt>
      <trkpt lat="45.32233" lon="4.59553">
        <ele>873.59997558594</ele>
        <time>2019-02-20T09:40:46.000Z</time>
      </trkpt>
      <trkpt lat="45.32234" lon="4.59553">
        <ele>873.59997558594</ele>
        <time>2019-02-20T09:40:47.000Z</time>
      </trkpt>
      <trkpt lat="45.32235" lon="4.59554">
        <ele>873.59997558594</ele>
        <time>2019-02-20T09:40:48.000Z</time>
      </trkpt>
      <trkpt lat="45.32236" lon="4.59554">
        <ele>873.59997558594</ele>
        <time>2019-02-20T09:40:49.000Z</time>
      </trkpt>
      <trkpt lat="45.32237" lon="4.59555">
        <ele>873.59997558594</ele>
        <time>2019-02-20T09:40:50.000Z</time>
      </trkpt>
      <trkpt lat="45.32239" lon="4.59555">
        <ele>873.59997558594</ele>
        <time>2019-02-20T09:40:51.000Z</time>
      </trkpt>
      <trkpt lat="45.3224" lon="4.59556">
        <ele>873.59997558594</ele>
        <time>2019-02-20T09:40:52.000Z</time>
      </trkpt>
      <trkpt lat="45.32241" lon="4.59557">
        <ele>873.40002441406</ele>
        <time>2019-02-20T09:40:53.000Z</time>
      </trkpt>
      <trkpt lat="45.32243" lon="4.59558">
        <ele>873.59997558594</ele>
        <time>2019-02-20T09:40:54.000Z</time>
      </trkpt>
      <trkpt lat="45.32244" lon="4.59558">
        <ele>873.59997558594</ele>
        <time>2019-02-20T09:40:55.000Z</time>
      </trkpt>
      <trkpt lat="45.32245" lon="4.59559">
        <ele>873.40002441406</ele>
        <time>2019-02-20T09:40:56.000Z</time>
      </trkpt>
      <trkpt lat="45.32247" lon="4.5956">
        <ele>873.59997558594</ele>
        <time>2019-02-20T09:40:57.000Z</time>
      </trkpt>
      <trkpt lat="45.32249" lon="4.59561">
        <ele>873.59997558594</ele>
        <time>2019-02-20T09:40:58.000Z</time>
      </trkpt>
      <trkpt lat="45.3225" lon="4.59562">
        <ele>873.40002441406</ele>
        <time>2019-02-20T09:40:59.000Z</time>
      </trkpt>
      <trkpt lat="45.32252" lon="4.59563">
        <ele>873.40002441406</ele>
        <time>2019-02-20T09:41:00.000Z</time>
      </trkpt>
      <trkpt lat="45.32253" lon="4.59564">
        <ele>873.40002441406</ele>
        <time>2019-02-20T09:41:01.000Z</time>
      </trkpt>
      <trkpt lat="45.32255" lon="4.59565">
        <ele>873.40002441406</ele>
        <time>2019-02-20T09:41:02.000Z</time>
      </trkpt>
      <trkpt lat="45.32257" lon="4.59566">
        <ele>873.59997558594</ele>
        <time>2019-02-20T09:41:03.000Z</time>
      </trkpt>
      <trkpt lat="45.32259" lon="4.59567">
        <ele>873.59997558594</ele>
        <time>2019-02-20T09:41:04.000Z</time>
      </trkpt>
      <trkpt lat="45.3226" lon="4.59568">
        <ele>873.59997558594</ele>
        <time>2019-02-20T09:41:05.000Z</time>
      </trkpt>
      <trkpt lat="45.32262" lon="4.5957">
        <ele>873.40002441406</ele>
        <time>2019-02-20T09:41:06.000Z</time>
      </trkpt>
      <trkpt lat="45.32264" lon="4.59571">
        <ele>873.40002441406</ele>
        <time>2019-02-20T09:41:07.000Z</time>
      </trkpt>
      <trkpt lat="45.32265" lon="4.59573">
        <ele>873.40002441406</ele>
        <time>2019-02-20T09:41:08.000Z</time>
      </trkpt>
      <trkpt lat="45.32267" lon="4.59574">
        <ele>873.40002441406</ele>
        <time>2019-02-20T09:41:09.000Z</time>
      </trkpt>
      <trkpt lat="45.32269" lon="4.59576">
        <ele>873.59997558594</ele>
        <time>2019-02-20T09:41:10.000Z</time>
      </trkpt>
      <trkpt lat="45.32271" lon="4.59577">
        <ele>873.40002441406</ele>
        <time>2019-02-20T09:41:11.000Z</time>
      </trkpt>
      <trkpt lat="45.32272" lon="4.59579">
        <ele>873.59997558594</ele>
        <time>2019-02-20T09:41:12.000Z</time>
      </trkpt>
      <trkpt lat="45.32274" lon="4.59581">
        <ele>873.59997558594</ele>
        <time>2019-02-20T09:41:13.000Z</time>
      </trkpt>
      <trkpt lat="45.32276" lon="4.59583">
        <ele>873.59997558594</ele>
        <time>2019-02-20T09:41:14.000Z</time>
      </trkpt>
      <trkpt lat="45.32278" lon="4.59585">
        <ele>873.40002441406</ele>
        <time>2019-02-20T09:41:15.000Z</time>
      </trkpt>
      <trkpt lat="45.3228" lon="4.59587">
        <ele>873.59997558594</ele>
        <time>2019-02-20T09:41:16.000Z</time>
      </trkpt>
      <trkpt lat="45.32282" lon="4.59589">
        <ele>873.40002441406</ele>
        <time>2019-02-20T09:41:17.000Z</time>
      </trkpt>
      <trkpt lat="45.32285" lon="4.59591">
        <ele>873.40002441406</ele>
        <time>2019-02-20T09:41:18.000Z</time>
      </trkpt>
      <trkpt lat="45.32287" lon="4.59594">
        <ele>873.40002441406</ele>
        <time>2019-02-20T09:41:19.000Z</time>
      </trkpt>
      <trkpt lat="45.3229" lon="4.59596">
        <ele>873.59997558594</ele>
        <time>2019-02-20T09:41:20.000Z</time>
      </trkpt>
      <trkpt lat="45.32293" lon="4.596">
        <ele>873.59997558594</ele>
        <time>2019-02-20T09:41:21.000Z</time>
      </trkpt>
      <trkpt lat="45.32296" lon="4.59604">
        <ele>873.59997558594</ele>
        <time>2019-02-20T09:41:22.000Z</time>
      </trkpt>
      <trkpt lat="45.32299" lon="4.59607">
        <ele>873.59997558594</ele>
        <time>2019-02-20T09:41:23.000Z</time>
      </trkpt>
      <trkpt lat="45.32303" lon="4.59611">
        <ele>873.40002441406</ele>
        <time>2019-02-20T09:41:24.000Z</time>
      </trkpt>
      <trkpt lat="45.32307" lon="4.59614">
        <ele>873.59997558594</ele>
        <time>2019-02-20T09:41:25.000Z</time>
      </trkpt>
      <trkpt lat="45.32311" lon="4.59617">
        <ele>873.40002441406</ele>
        <time>2019-02-20T09:41:26.000Z</time>
      </trkpt>
      <trkpt lat="45.32315" lon="4.5962">
        <ele>873.20001220703</ele>
        <time>2019-02-20T09:41:27.000Z</time>
      </trkpt>
      <trkpt lat="45.3232" lon="4.59622">
        <ele>873</ele>
        <time>2019-02-20T09:41:28.000Z</time>
      </trkpt>
      <trkpt lat="45.32324" lon="4.59625">
        <ele>873</ele>
        <time>2019-02-20T09:41:29.000Z</time>
      </trkpt>
      <trkpt lat="45.32328" lon="4.59627">
        <ele>872.79998779297</ele>
        <time>2019-02-20T09:41:30.000Z</time>
      </trkpt>
      <trkpt lat="45.32332" lon="4.59629">
        <ele>872.40002441406</ele>
        <time>2019-02-20T09:41:31.000Z</time>
      </trkpt>
      <trkpt lat="45.32336" lon="4.59631">
        <ele>872</ele>
        <time>2019-02-20T09:41:32.000Z</time>
      </trkpt>
      <trkpt lat="45.32339" lon="4.59633">
        <ele>871.59997558594</ele>
        <time>2019-02-20T09:41:33.000Z</time>
      </trkpt>
      <trkpt lat="45.32342" lon="4.59635">
        <ele>871.20001220703</ele>
        <time>2019-02-20T09:41:34.000Z</time>
      </trkpt>
      <trkpt lat="45.32346" lon="4.59637">
        <ele>871</ele>
        <time>2019-02-20T09:41:35.000Z</time>
      </trkpt>
      <trkpt lat="45.32348" lon="4.59638">
        <ele>870.79998779297</ele>
        <time>2019-02-20T09:41:36.000Z</time>
      </trkpt>
      <trkpt lat="45.3235" lon="4.59639">
        <ele>870.79998779297</ele>
        <time>2019-02-20T09:41:37.000Z</time>
      </trkpt>
      <trkpt lat="45.32352" lon="4.5964">
        <ele>870.79998779297</ele>
        <time>2019-02-20T09:41:38.000Z</time>
      </trkpt>
      <trkpt lat="45.32354" lon="4.59641">
        <ele>870.59997558594</ele>
        <time>2019-02-20T09:41:39.000Z</time>
      </trkpt>
      <trkpt lat="45.32354" lon="4.59642">
        <ele>870.59997558594</ele>
        <time>2019-02-20T09:41:40.000Z</time>
      </trkpt>
      <trkpt lat="45.32355" lon="4.59642">
        <ele>870.79998779297</ele>
        <time>2019-02-20T09:41:41.000Z</time>
      </trkpt>
      <trkpt lat="45.32356" lon="4.59642">
        <ele>870.59997558594</ele>
        <time>2019-02-20T09:41:42.000Z</time>
      </trkpt>
      <trkpt lat="45.32357" lon="4.59643">
        <ele>870.59997558594</ele>
        <time>2019-02-20T09:41:43.000Z</time>
      </trkpt>
      <trkpt lat="45.32358" lon="4.59644">
        <ele>870.79998779297</ele>
        <time>2019-02-20T09:41:44.000Z</time>
      </trkpt>
      <trkpt lat="45.32359" lon="4.59644">
        <ele>870.79998779297</ele>
        <time>2019-02-20T09:41:45.000Z</time>
      </trkpt>
      <trkpt lat="45.3236" lon="4.59645">
        <ele>871.20001220703</ele>
        <time>2019-02-20T09:41:46.000Z</time>
      </trkpt>
      <trkpt lat="45.32361" lon="4.59645">
        <ele>871.20001220703</ele>
        <time>2019-02-20T09:41:47.000Z</time>
      </trkpt>
      <trkpt lat="45.32362" lon="4.59645">
        <ele>871.20001220703</ele>
        <time>2019-02-20T09:41:48.000Z</time>
      </trkpt>
      <trkpt lat="45.32363" lon="4.59646">
        <ele>871.20001220703</ele>
        <time>2019-02-20T09:41:49.000Z</time>
      </trkpt>
      <trkpt lat="45.32364" lon="4.59646">
        <ele>871.40002441406</ele>
        <time>2019-02-20T09:41:50.000Z</time>
      </trkpt>
      <trkpt lat="45.32365" lon="4.59647">
        <ele>871.40002441406</ele>
        <time>2019-02-20T09:41:51.000Z</time>
      </trkpt>
      <trkpt lat="45.32366" lon="4.59647">
        <ele>871.40002441406</ele>
        <time>2019-02-20T09:41:52.000Z</time>
      </trkpt>
      <trkpt lat="45.32368" lon="4.59647">
        <ele>871.40002441406</ele>
        <time>2019-02-20T09:41:53.000Z</time>
      </trkpt>
      <trkpt lat="45.32369" lon="4.59647">
        <ele>871.20001220703</ele>
        <time>2019-02-20T09:41:54.000Z</time>
      </trkpt>
      <trkpt lat="45.3237" lon="4.59648">
        <ele>871.20001220703</ele>
        <time>2019-02-20T09:41:55.000Z</time>
      </trkpt>
      <trkpt lat="45.32371" lon="4.59649">
        <ele>871.40002441406</ele>
        <time>2019-02-20T09:41:56.000Z</time>
      </trkpt>
      <trkpt lat="45.32371" lon="4.59649">
        <ele>871.40002441406</ele>
        <time>2019-02-20T09:41:57.000Z</time>
      </trkpt>
      <trkpt lat="45.32372" lon="4.59649">
        <ele>871.40002441406</ele>
        <time>2019-02-20T09:41:58.000Z</time>
      </trkpt>
      <trkpt lat="45.32372" lon="4.5965">
        <ele>871.40002441406</ele>
        <time>2019-02-20T09:41:59.000Z</time>
      </trkpt>
      <trkpt lat="45.32372" lon="4.5965">
        <ele>871.40002441406</ele>
        <time>2019-02-20T09:42:00.000Z</time>
      </trkpt>
      <trkpt lat="45.32369" lon="4.59644">
        <ele>871.40002441406</ele>
        <time>2019-02-20T09:42:33.000Z</time>
      </trkpt>
      <trkpt lat="45.32368" lon="4.59642">
        <ele>871.40002441406</ele>
        <time>2019-02-20T09:42:34.000Z</time>
      </trkpt>
      <trkpt lat="45.32365" lon="4.59641">
        <ele>871.40002441406</ele>
        <time>2019-02-20T09:42:35.000Z</time>
      </trkpt>
      <trkpt lat="45.32363" lon="4.5964">
        <ele>871.40002441406</ele>
        <time>2019-02-20T09:42:36.000Z</time>
      </trkpt>
      <trkpt lat="45.3236" lon="4.59639">
        <ele>871.40002441406</ele>
        <time>2019-02-20T09:42:37.000Z</time>
      </trkpt>
      <trkpt lat="45.32358" lon="4.59637">
        <ele>871.40002441406</ele>
        <time>2019-02-20T09:42:38.000Z</time>
      </trkpt>
      <trkpt lat="45.32355" lon="4.59636">
        <ele>871.40002441406</ele>
        <time>2019-02-20T09:42:39.000Z</time>
      </trkpt>
      <trkpt lat="45.32353" lon="4.59635">
        <ele>871.40002441406</ele>
        <time>2019-02-20T09:42:40.000Z</time>
      </trkpt>
      <trkpt lat="45.32351" lon="4.59634">
        <ele>871.40002441406</ele>
        <time>2019-02-20T09:42:41.000Z</time>
      </trkpt>
      <trkpt lat="45.32349" lon="4.59633">
        <ele>871.40002441406</ele>
        <time>2019-02-20T09:42:42.000Z</time>
      </trkpt>
      <trkpt lat="45.32347" lon="4.59632">
        <ele>871.40002441406</ele>
        <time>2019-02-20T09:42:43.000Z</time>
      </trkpt>
      <trkpt lat="45.32345" lon="4.59631">
        <ele>871.40002441406</ele>
        <time>2019-02-20T09:42:44.000Z</time>
      </trkpt>
      <trkpt lat="45.32342" lon="4.5963">
        <ele>871.40002441406</ele>
        <time>2019-02-20T09:42:45.000Z</time>
      </trkpt>
      <trkpt lat="45.3234" lon="4.59629">
        <ele>871.40002441406</ele>
        <time>2019-02-20T09:42:46.000Z</time>
      </trkpt>
      <trkpt lat="45.32338" lon="4.59627">
        <ele>871.40002441406</ele>
        <time>2019-02-20T09:42:47.000Z</time>
      </trkpt>
      <trkpt lat="45.32335" lon="4.59625">
        <ele>871.20001220703</ele>
        <time>2019-02-20T09:42:48.000Z</time>
      </trkpt>
      <trkpt lat="45.32332" lon="4.59623">
        <ele>871.20001220703</ele>
        <time>2019-02-20T09:42:49.000Z</time>
      </trkpt>
      <trkpt lat="45.3233" lon="4.59622">
        <ele>871.40002441406</ele>
        <time>2019-02-20T09:42:50.000Z</time>
      </trkpt>
      <trkpt lat="45.32327" lon="4.5962">
        <ele>871.20001220703</ele>
        <time>2019-02-20T09:42:51.000Z</time>
      </trkpt>
      <trkpt lat="45.32325" lon="4.59618">
        <ele>871.40002441406</ele>
        <time>2019-02-20T09:42:52.000Z</time>
      </trkpt>
      <trkpt lat="45.32323" lon="4.59617">
        <ele>871.40002441406</ele>
        <time>2019-02-20T09:42:53.000Z</time>
      </trkpt>
      <trkpt lat="45.32321" lon="4.59616">
        <ele>871.40002441406</ele>
        <time>2019-02-20T09:42:54.000Z</time>
      </trkpt>
      <trkpt lat="45.3232" lon="4.59617">
        <ele>871.20001220703</ele>
        <time>2019-02-20T09:42:55.000Z</time>
      </trkpt>
      <trkpt lat="45.3232" lon="4.59618">
        <ele>871.40002441406</ele>
        <time>2019-02-20T09:42:56.000Z</time>
      </trkpt>
      <trkpt lat="45.3232" lon="4.59619">
        <ele>871.40002441406</ele>
        <time>2019-02-20T09:42:57.000Z</time>
      </trkpt>
      <trkpt lat="45.3232" lon="4.5962">
        <ele>871.20001220703</ele>
        <time>2019-02-20T09:42:58.000Z</time>
      </trkpt>
      <trkpt lat="45.3232" lon="4.59621">
        <ele>871.20001220703</ele>
        <time>2019-02-20T09:42:59.000Z</time>
      </trkpt>
      <trkpt lat="45.32324" lon="4.59627">
        <ele>871.20001220703</ele>
        <time>2019-02-20T09:43:04.000Z</time>
      </trkpt>
      <trkpt lat="45.32327" lon="4.59628">
        <ele>871.20001220703</ele>
        <time>2019-02-20T09:43:05.000Z</time>
      </trkpt>
      <trkpt lat="45.32329" lon="4.59629">
        <ele>871</ele>
        <time>2019-02-20T09:43:06.000Z</time>
      </trkpt>
      <trkpt lat="45.32331" lon="4.5963">
        <ele>871</ele>
        <time>2019-02-20T09:43:07.000Z</time>
      </trkpt>
      <trkpt lat="45.32334" lon="4.59632">
        <ele>870.79998779297</ele>
        <time>2019-02-20T09:43:08.000Z</time>
      </trkpt>
      <trkpt lat="45.32336" lon="4.59634">
        <ele>870.79998779297</ele>
        <time>2019-02-20T09:43:09.000Z</time>
      </trkpt>
      <trkpt lat="45.32339" lon="4.59635">
        <ele>870.79998779297</ele>
        <time>2019-02-20T09:43:10.000Z</time>
      </trkpt>
      <trkpt lat="45.32341" lon="4.59637">
        <ele>870.79998779297</ele>
        <time>2019-02-20T09:43:11.000Z</time>
      </trkpt>
      <trkpt lat="45.32343" lon="4.5964">
        <ele>870.59997558594</ele>
        <time>2019-02-20T09:43:12.000Z</time>
      </trkpt>
      <trkpt lat="45.32345" lon="4.59642">
        <ele>870.20001220703</ele>
        <time>2019-02-20T09:43:13.000Z</time>
      </trkpt>
      <trkpt lat="45.32348" lon="4.59644">
        <ele>870</ele>
        <time>2019-02-20T09:43:14.000Z</time>
      </trkpt>
      <trkpt lat="45.32351" lon="4.59646">
        <ele>869.79998779297</ele>
        <time>2019-02-20T09:43:15.000Z</time>
      </trkpt>
      <trkpt lat="45.32353" lon="4.59648">
        <ele>869.79998779297</ele>
        <time>2019-02-20T09:43:16.000Z</time>
      </trkpt>
      <trkpt lat="45.32356" lon="4.59651">
        <ele>869.59997558594</ele>
        <time>2019-02-20T09:43:17.000Z</time>
      </trkpt>
      <trkpt lat="45.32358" lon="4.59654">
        <ele>869.59997558594</ele>
        <time>2019-02-20T09:43:18.000Z</time>
      </trkpt>
      <trkpt lat="45.32361" lon="4.59657">
        <ele>869.20001220703</ele>
        <time>2019-02-20T09:43:19.000Z</time>
      </trkpt>
      <trkpt lat="45.32364" lon="4.59661">
        <ele>869</ele>
        <time>2019-02-20T09:43:20.000Z</time>
      </trkpt>
      <trkpt lat="45.32368" lon="4.59664">
        <ele>868.79998779297</ele>
        <time>2019-02-20T09:43:21.000Z</time>
      </trkpt>
      <trkpt lat="45.32372" lon="4.59669">
        <ele>868.59997558594</ele>
        <time>2019-02-20T09:43:22.000Z</time>
      </trkpt>
      <trkpt lat="45.32376" lon="4.59674">
        <ele>868.20001220703</ele>
        <time>2019-02-20T09:43:23.000Z</time>
      </trkpt>
      <trkpt lat="45.32379" lon="4.5968">
        <ele>868</ele>
        <time>2019-02-20T09:43:24.000Z</time>
      </trkpt>
      <trkpt lat="45.32383" lon="4.59687">
        <ele>867.79998779297</ele>
        <time>2019-02-20T09:43:25.000Z</time>
      </trkpt>
      <trkpt lat="45.32386" lon="4.59695">
        <ele>867.59997558594</ele>
        <time>2019-02-20T09:43:26.000Z</time>
      </trkpt>
      <trkpt lat="45.32389" lon="4.59703">
        <ele>867.59997558594</ele>
        <time>2019-02-20T09:43:27.000Z</time>
      </trkpt>
      <trkpt lat="45.32391" lon="4.59711">
        <ele>867.59997558594</ele>
        <time>2019-02-20T09:43:28.000Z</time>
      </trkpt>
      <trkpt lat="45.32394" lon="4.59717">
        <ele>866.79998779297</ele>
        <time>2019-02-20T09:43:29.000Z</time>
      </trkpt>
      <trkpt lat="45.32396" lon="4.59724">
        <ele>866</ele>
        <time>2019-02-20T09:43:30.000Z</time>
      </trkpt>
      <trkpt lat="45.32398" lon="4.5973">
        <ele>865.20001220703</ele>
        <time>2019-02-20T09:43:31.000Z</time>
      </trkpt>
      <trkpt lat="45.324" lon="4.59736">
        <ele>864.59997558594</ele>
        <time>2019-02-20T09:43:32.000Z</time>
      </trkpt>
      <trkpt lat="45.32401" lon="4.59741">
        <ele>863.79998779297</ele>
        <time>2019-02-20T09:43:33.000Z</time>
      </trkpt>
      <trkpt lat="45.32402" lon="4.59745">
        <ele>863</ele>
        <time>2019-02-20T09:43:34.000Z</time>
      </trkpt>
      <trkpt lat="45.32404" lon="4.59748">
        <ele>862.20001220703</ele>
        <time>2019-02-20T09:43:35.000Z</time>
      </trkpt>
      <trkpt lat="45.32405" lon="4.59751">
        <ele>861.40002441406</ele>
        <time>2019-02-20T09:43:36.000Z</time>
      </trkpt>
      <trkpt lat="45.32405" lon="4.59755">
        <ele>860.79998779297</ele>
        <time>2019-02-20T09:43:37.000Z</time>
      </trkpt>
      <trkpt lat="45.32406" lon="4.59758">
        <ele>860.20001220703</ele>
        <time>2019-02-20T09:43:38.000Z</time>
      </trkpt>
      <trkpt lat="45.32407" lon="4.59761">
        <ele>859.79998779297</ele>
        <time>2019-02-20T09:43:39.000Z</time>
      </trkpt>
      <trkpt lat="45.32407" lon="4.59764">
        <ele>859.20001220703</ele>
        <time>2019-02-20T09:43:40.000Z</time>
      </trkpt>
      <trkpt lat="45.32407" lon="4.59768">
        <ele>858.79998779297</ele>
        <time>2019-02-20T09:43:41.000Z</time>
      </trkpt>
      <trkpt lat="45.32407" lon="4.59772">
        <ele>858.40002441406</ele>
        <time>2019-02-20T09:43:42.000Z</time>
      </trkpt>
      <trkpt lat="45.32408" lon="4.59775">
        <ele>857.79998779297</ele>
        <time>2019-02-20T09:43:43.000Z</time>
      </trkpt>
      <trkpt lat="45.32409" lon="4.59779">
        <ele>857.40002441406</ele>
        <time>2019-02-20T09:43:44.000Z</time>
      </trkpt>
      <trkpt lat="45.32408" lon="4.59783">
        <ele>857.20001220703</ele>
        <time>2019-02-20T09:43:45.000Z</time>
      </trkpt>
      <trkpt lat="45.32406" lon="4.59785">
        <ele>856.79998779297</ele>
        <time>2019-02-20T09:43:46.000Z</time>
      </trkpt>
      <trkpt lat="45.32404" lon="4.59786">
        <ele>856.20001220703</ele>
        <time>2019-02-20T09:43:47.000Z</time>
      </trkpt>
      <trkpt lat="45.32401" lon="4.59786">
        <ele>855.79998779297</ele>
        <time>2019-02-20T09:43:48.000Z</time>
      </trkpt>
      <trkpt lat="45.32398" lon="4.59785">
        <ele>855.79998779297</ele>
        <time>2019-02-20T09:43:49.000Z</time>
      </trkpt>
      <trkpt lat="45.32396" lon="4.59786">
        <ele>855.20001220703</ele>
        <time>2019-02-20T09:43:50.000Z</time>
      </trkpt>
      <trkpt lat="45.32395" lon="4.59786">
        <ele>854.59997558594</ele>
        <time>2019-02-20T09:43:51.000Z</time>
      </trkpt>
      <trkpt lat="45.32394" lon="4.59788">
        <ele>854</ele>
        <time>2019-02-20T09:43:52.000Z</time>
      </trkpt>
      <trkpt lat="45.32394" lon="4.5979">
        <ele>853.59997558594</ele>
        <time>2019-02-20T09:43:53.000Z</time>
      </trkpt>
      <trkpt lat="45.32394" lon="4.59792">
        <ele>853</ele>
        <time>2019-02-20T09:43:54.000Z</time>
      </trkpt>
      <trkpt lat="45.32395" lon="4.59793">
        <ele>852.79998779297</ele>
        <time>2019-02-20T09:43:55.000Z</time>
      </trkpt>
      <trkpt lat="45.32396" lon="4.59795">
        <ele>852.20001220703</ele>
        <time>2019-02-20T09:43:56.000Z</time>
      </trkpt>
      <trkpt lat="45.32396" lon="4.59796">
        <ele>852</ele>
        <time>2019-02-20T09:43:57.000Z</time>
      </trkpt>
      <trkpt lat="45.32397" lon="4.59797">
        <ele>851.40002441406</ele>
        <time>2019-02-20T09:43:58.000Z</time>
      </trkpt>
      <trkpt lat="45.32397" lon="4.59799">
        <ele>850.79998779297</ele>
        <time>2019-02-20T09:43:59.000Z</time>
      </trkpt>
      <trkpt lat="45.32398" lon="4.59801">
        <ele>850</ele>
        <time>2019-02-20T09:44:00.000Z</time>
      </trkpt>
      <trkpt lat="45.32398" lon="4.59802">
        <ele>849.59997558594</ele>
        <time>2019-02-20T09:44:01.000Z</time>
      </trkpt>
      <trkpt lat="45.32398" lon="4.59804">
        <ele>849</ele>
        <time>2019-02-20T09:44:02.000Z</time>
      </trkpt>
      <trkpt lat="45.32399" lon="4.59805">
        <ele>848.79998779297</ele>
        <time>2019-02-20T09:44:03.000Z</time>
      </trkpt>
      <trkpt lat="45.32399" lon="4.59806">
        <ele>848.79998779297</ele>
        <time>2019-02-20T09:44:04.000Z</time>
      </trkpt>
      <trkpt lat="45.32399" lon="4.59806">
        <ele>848.59997558594</ele>
        <time>2019-02-20T09:44:05.000Z</time>
      </trkpt>
      <trkpt lat="45.324" lon="4.59815">
        <ele>846.59997558594</ele>
        <time>2019-02-20T09:44:09.000Z</time>
      </trkpt>
      <trkpt lat="45.32399" lon="4.5982">
        <ele>846.20001220703</ele>
        <time>2019-02-20T09:44:10.000Z</time>
      </trkpt>
      <trkpt lat="45.32398" lon="4.59824">
        <ele>845.79998779297</ele>
        <time>2019-02-20T09:44:11.000Z</time>
      </trkpt>
      <trkpt lat="45.32397" lon="4.59828">
        <ele>845.59997558594</ele>
        <time>2019-02-20T09:44:12.000Z</time>
      </trkpt>
      <trkpt lat="45.32396" lon="4.59832">
        <ele>845.59997558594</ele>
        <time>2019-02-20T09:44:13.000Z</time>
      </trkpt>
      <trkpt lat="45.32395" lon="4.59836">
        <ele>845.40002441406</ele>
        <time>2019-02-20T09:44:14.000Z</time>
      </trkpt>
      <trkpt lat="45.32395" lon="4.5984">
        <ele>845.40002441406</ele>
        <time>2019-02-20T09:44:15.000Z</time>
      </trkpt>
      <trkpt lat="45.32395" lon="4.59844">
        <ele>845.40002441406</ele>
        <time>2019-02-20T09:44:16.000Z</time>
      </trkpt>
      <trkpt lat="45.32395" lon="4.59848">
        <ele>844.79998779297</ele>
        <time>2019-02-20T09:44:17.000Z</time>
      </trkpt>
      <trkpt lat="45.32395" lon="4.59853">
        <ele>844.40002441406</ele>
        <time>2019-02-20T09:44:18.000Z</time>
      </trkpt>
      <trkpt lat="45.32397" lon="4.59856">
        <ele>843.40002441406</ele>
        <time>2019-02-20T09:44:19.000Z</time>
      </trkpt>
      <trkpt lat="45.32397" lon="4.59859">
        <ele>843.20001220703</ele>
        <time>2019-02-20T09:44:20.000Z</time>
      </trkpt>
      <trkpt lat="45.32397" lon="4.59863">
        <ele>842.20001220703</ele>
        <time>2019-02-20T09:44:21.000Z</time>
      </trkpt>
      <trkpt lat="45.32395" lon="4.59865">
        <ele>841.20001220703</ele>
        <time>2019-02-20T09:44:22.000Z</time>
      </trkpt>
      <trkpt lat="45.32392" lon="4.59865">
        <ele>840.20001220703</ele>
        <time>2019-02-20T09:44:23.000Z</time>
      </trkpt>
      <trkpt lat="45.32389" lon="4.59865">
        <ele>839.59997558594</ele>
        <time>2019-02-20T09:44:24.000Z</time>
      </trkpt>
      <trkpt lat="45.32386" lon="4.59864">
        <ele>839.20001220703</ele>
        <time>2019-02-20T09:44:25.000Z</time>
      </trkpt>
      <trkpt lat="45.32382" lon="4.59864">
        <ele>838.40002441406</ele>
        <time>2019-02-20T09:44:26.000Z</time>
      </trkpt>
      <trkpt lat="45.32378" lon="4.59863">
        <ele>837.79998779297</ele>
        <time>2019-02-20T09:44:27.000Z</time>
      </trkpt>
      <trkpt lat="45.32374" lon="4.59863">
        <ele>837.40002441406</ele>
        <time>2019-02-20T09:44:28.000Z</time>
      </trkpt>
      <trkpt lat="45.32371" lon="4.59864">
        <ele>836.79998779297</ele>
        <time>2019-02-20T09:44:29.000Z</time>
      </trkpt>
      <trkpt lat="45.32367" lon="4.59865">
        <ele>836.40002441406</ele>
        <time>2019-02-20T09:44:30.000Z</time>
      </trkpt>
      <trkpt lat="45.32365" lon="4.59867">
        <ele>836</ele>
        <time>2019-02-20T09:44:31.000Z</time>
      </trkpt>
      <trkpt lat="45.32363" lon="4.5987">
        <ele>835.79998779297</ele>
        <time>2019-02-20T09:44:32.000Z</time>
      </trkpt>
      <trkpt lat="45.32362" lon="4.59874">
        <ele>835.79998779297</ele>
        <time>2019-02-20T09:44:33.000Z</time>
      </trkpt>
      <trkpt lat="45.3236" lon="4.59878">
        <ele>835.20001220703</ele>
        <time>2019-02-20T09:44:34.000Z</time>
      </trkpt>
      <trkpt lat="45.32358" lon="4.59882">
        <ele>834.79998779297</ele>
        <time>2019-02-20T09:44:35.000Z</time>
      </trkpt>
      <trkpt lat="45.32356" lon="4.59886">
        <ele>834.20001220703</ele>
        <time>2019-02-20T09:44:36.000Z</time>
      </trkpt>
      <trkpt lat="45.32355" lon="4.59889">
        <ele>833.79998779297</ele>
        <time>2019-02-20T09:44:37.000Z</time>
      </trkpt>
      <trkpt lat="45.32354" lon="4.59891">
        <ele>833</ele>
        <time>2019-02-20T09:44:38.000Z</time>
      </trkpt>
      <trkpt lat="45.32352" lon="4.59893">
        <ele>832.59997558594</ele>
        <time>2019-02-20T09:44:39.000Z</time>
      </trkpt>
      <trkpt lat="45.32351" lon="4.59894">
        <ele>831.59997558594</ele>
        <time>2019-02-20T09:44:40.000Z</time>
      </trkpt>
      <trkpt lat="45.32351" lon="4.59896">
        <ele>830.79998779297</ele>
        <time>2019-02-20T09:44:41.000Z</time>
      </trkpt>
      <trkpt lat="45.32351" lon="4.59896">
        <ele>830</ele>
        <time>2019-02-20T09:44:42.000Z</time>
      </trkpt>
      <trkpt lat="45.3235" lon="4.59897">
        <ele>829.20001220703</ele>
        <time>2019-02-20T09:44:43.000Z</time>
      </trkpt>
      <trkpt lat="45.3235" lon="4.59897">
        <ele>828.59997558594</ele>
        <time>2019-02-20T09:44:44.000Z</time>
      </trkpt>
      <trkpt lat="45.32339" lon="4.59895">
        <ele>825.59997558594</ele>
        <time>2019-02-20T09:45:02.000Z</time>
      </trkpt>
      <trkpt lat="45.32337" lon="4.59893">
        <ele>825.40002441406</ele>
        <time>2019-02-20T09:45:03.000Z</time>
      </trkpt>
      <trkpt lat="45.32335" lon="4.59892">
        <ele>825.40002441406</ele>
        <time>2019-02-20T09:45:04.000Z</time>
      </trkpt>
      <trkpt lat="45.32333" lon="4.5989">
        <ele>825.20001220703</ele>
        <time>2019-02-20T09:45:05.000Z</time>
      </trkpt>
      <trkpt lat="45.32329" lon="4.59888">
        <ele>825</ele>
        <time>2019-02-20T09:45:06.000Z</time>
      </trkpt>
      <trkpt lat="45.32326" lon="4.59885">
        <ele>825</ele>
        <time>2019-02-20T09:45:07.000Z</time>
      </trkpt>
      <trkpt lat="45.32323" lon="4.59883">
        <ele>825.20001220703</ele>
        <time>2019-02-20T09:45:08.000Z</time>
      </trkpt>
      <trkpt lat="45.32319" lon="4.59881">
        <ele>825</ele>
        <time>2019-02-20T09:45:09.000Z</time>
      </trkpt>
      <trkpt lat="45.32316" lon="4.59878">
        <ele>824.79998779297</ele>
        <time>2019-02-20T09:45:10.000Z</time>
      </trkpt>
      <trkpt lat="45.32312" lon="4.59876">
        <ele>824</ele>
        <time>2019-02-20T09:45:11.000Z</time>
      </trkpt>
      <trkpt lat="45.32308" lon="4.59874">
        <ele>823.40002441406</ele>
        <time>2019-02-20T09:45:12.000Z</time>
      </trkpt>
      <trkpt lat="45.32305" lon="4.59872">
        <ele>822.79998779297</ele>
        <time>2019-02-20T09:45:13.000Z</time>
      </trkpt>
      <trkpt lat="45.32301" lon="4.5987">
        <ele>822.40002441406</ele>
        <time>2019-02-20T09:45:14.000Z</time>
      </trkpt>
      <trkpt lat="45.32296" lon="4.59868">
        <ele>821.79998779297</ele>
        <time>2019-02-20T09:45:15.000Z</time>
      </trkpt>
      <trkpt lat="45.32291" lon="4.59866">
        <ele>821</ele>
        <time>2019-02-20T09:45:16.000Z</time>
      </trkpt>
      <trkpt lat="45.32287" lon="4.59864">
        <ele>820.59997558594</ele>
        <time>2019-02-20T09:45:17.000Z</time>
      </trkpt>
      <trkpt lat="45.32282" lon="4.59863">
        <ele>820.20001220703</ele>
        <time>2019-02-20T09:45:18.000Z</time>
      </trkpt>
      <trkpt lat="45.32276" lon="4.59863">
        <ele>819.40002441406</ele>
        <time>2019-02-20T09:45:19.000Z</time>
      </trkpt>
      <trkpt lat="45.32271" lon="4.59862">
        <ele>818.59997558594</ele>
        <time>2019-02-20T09:45:20.000Z</time>
      </trkpt>
      <trkpt lat="45.32265" lon="4.59861">
        <ele>817.79998779297</ele>
        <time>2019-02-20T09:45:21.000Z</time>
      </trkpt>
      <trkpt lat="45.32259" lon="4.59861">
        <ele>817.20001220703</ele>
        <time>2019-02-20T09:45:22.000Z</time>
      </trkpt>
      <trkpt lat="45.32254" lon="4.59861">
        <ele>816</ele>
        <time>2019-02-20T09:45:23.000Z</time>
      </trkpt>
      <trkpt lat="45.32248" lon="4.59861">
        <ele>814.79998779297</ele>
        <time>2019-02-20T09:45:24.000Z</time>
      </trkpt>
      <trkpt lat="45.32242" lon="4.59861">
        <ele>813.79998779297</ele>
        <time>2019-02-20T09:45:25.000Z</time>
      </trkpt>
      <trkpt lat="45.32236" lon="4.59859">
        <ele>812.79998779297</ele>
        <time>2019-02-20T09:45:26.000Z</time>
      </trkpt>
      <trkpt lat="45.32231" lon="4.59858">
        <ele>812</ele>
        <time>2019-02-20T09:45:27.000Z</time>
      </trkpt>
      <trkpt lat="45.32225" lon="4.59856">
        <ele>811</ele>
        <time>2019-02-20T09:45:28.000Z</time>
      </trkpt>
      <trkpt lat="45.32219" lon="4.59854">
        <ele>809.40002441406</ele>
        <time>2019-02-20T09:45:29.000Z</time>
      </trkpt>
      <trkpt lat="45.32213" lon="4.59852">
        <ele>808.59997558594</ele>
        <time>2019-02-20T09:45:30.000Z</time>
      </trkpt>
      <trkpt lat="45.32207" lon="4.5985">
        <ele>807.59997558594</ele>
        <time>2019-02-20T09:45:31.000Z</time>
      </trkpt>
      <trkpt lat="45.32202" lon="4.59849">
        <ele>806.40002441406</ele>
        <time>2019-02-20T09:45:32.000Z</time>
      </trkpt>
      <trkpt lat="45.32198" lon="4.59848">
        <ele>805.40002441406</ele>
        <time>2019-02-20T09:45:33.000Z</time>
      </trkpt>
      <trkpt lat="45.32193" lon="4.59847">
        <ele>804.20001220703</ele>
        <time>2019-02-20T09:45:34.000Z</time>
      </trkpt>
      <trkpt lat="45.32187" lon="4.59847">
        <ele>803.20001220703</ele>
        <time>2019-02-20T09:45:35.000Z</time>
      </trkpt>
      <trkpt lat="45.3218" lon="4.59847">
        <ele>802.40002441406</ele>
        <time>2019-02-20T09:45:36.000Z</time>
      </trkpt>
      <trkpt lat="45.32171" lon="4.59847">
        <ele>801.59997558594</ele>
        <time>2019-02-20T09:45:37.000Z</time>
      </trkpt>
      <trkpt lat="45.32162" lon="4.59849">
        <ele>801</ele>
        <time>2019-02-20T09:45:38.000Z</time>
      </trkpt>
      <trkpt lat="45.32152" lon="4.5985">
        <ele>800.20001220703</ele>
        <time>2019-02-20T09:45:39.000Z</time>
      </trkpt>
      <trkpt lat="45.32143" lon="4.59851">
        <ele>799.40002441406</ele>
        <time>2019-02-20T09:45:40.000Z</time>
      </trkpt>
      <trkpt lat="45.32134" lon="4.59852">
        <ele>798.79998779297</ele>
        <time>2019-02-20T09:45:41.000Z</time>
      </trkpt>
      <trkpt lat="45.32125" lon="4.59854">
        <ele>798.20001220703</ele>
        <time>2019-02-20T09:45:42.000Z</time>
      </trkpt>
      <trkpt lat="45.32119" lon="4.59859">
        <ele>797.59997558594</ele>
        <time>2019-02-20T09:45:43.000Z</time>
      </trkpt>
      <trkpt lat="45.32114" lon="4.59867">
        <ele>796.79998779297</ele>
        <time>2019-02-20T09:45:44.000Z</time>
      </trkpt>
      <trkpt lat="45.32112" lon="4.59876">
        <ele>795.79998779297</ele>
        <time>2019-02-20T09:45:45.000Z</time>
      </trkpt>
      <trkpt lat="45.3211" lon="4.59886">
        <ele>794.79998779297</ele>
        <time>2019-02-20T09:45:46.000Z</time>
      </trkpt>
      <trkpt lat="45.3211" lon="4.59896">
        <ele>794.20001220703</ele>
        <time>2019-02-20T09:45:47.000Z</time>
      </trkpt>
      <trkpt lat="45.3211" lon="4.59905">
        <ele>793.20001220703</ele>
        <time>2019-02-20T09:45:48.000Z</time>
      </trkpt>
      <trkpt lat="45.3211" lon="4.59911">
        <ele>792.59997558594</ele>
        <time>2019-02-20T09:45:49.000Z</time>
      </trkpt>
      <trkpt lat="45.3211" lon="4.59919">
        <ele>792.20001220703</ele>
        <time>2019-02-20T09:45:50.000Z</time>
      </trkpt>
      <trkpt lat="45.32108" lon="4.59927">
        <ele>791.79998779297</ele>
        <time>2019-02-20T09:45:51.000Z</time>
      </trkpt>
      <trkpt lat="45.32104" lon="4.59935">
        <ele>791.59997558594</ele>
        <time>2019-02-20T09:45:52.000Z</time>
      </trkpt>
      <trkpt lat="45.32101" lon="4.59944">
        <ele>791.59997558594</ele>
        <time>2019-02-20T09:45:53.000Z</time>
      </trkpt>
      <trkpt lat="45.32098" lon="4.59954">
        <ele>791.20001220703</ele>
        <time>2019-02-20T09:45:54.000Z</time>
      </trkpt>
      <trkpt lat="45.32094" lon="4.59963">
        <ele>790.79998779297</ele>
        <time>2019-02-20T09:45:55.000Z</time>
      </trkpt>
      <trkpt lat="45.32091" lon="4.5997">
        <ele>789.59997558594</ele>
        <time>2019-02-20T09:45:56.000Z</time>
      </trkpt>
      <trkpt lat="45.3209" lon="4.59977">
        <ele>789.20001220703</ele>
        <time>2019-02-20T09:45:57.000Z</time>
      </trkpt>
      <trkpt lat="45.32089" lon="4.59983">
        <ele>789</ele>
        <time>2019-02-20T09:45:58.000Z</time>
      </trkpt>
      <trkpt lat="45.32089" lon="4.59989">
        <ele>788.20001220703</ele>
        <time>2019-02-20T09:45:59.000Z</time>
      </trkpt>
      <trkpt lat="45.32091" lon="4.59994">
        <ele>787.59997558594</ele>
        <time>2019-02-20T09:46:00.000Z</time>
      </trkpt>
      <trkpt lat="45.32094" lon="4.59999">
        <ele>786.79998779297</ele>
        <time>2019-02-20T09:46:01.000Z</time>
      </trkpt>
      <trkpt lat="45.32098" lon="4.60002">
        <ele>786</ele>
        <time>2019-02-20T09:46:02.000Z</time>
      </trkpt>
      <trkpt lat="45.32103" lon="4.60005">
        <ele>785.59997558594</ele>
        <time>2019-02-20T09:46:03.000Z</time>
      </trkpt>
      <trkpt lat="45.32107" lon="4.60008">
        <ele>785</ele>
        <time>2019-02-20T09:46:04.000Z</time>
      </trkpt>
      <trkpt lat="45.32112" lon="4.60012">
        <ele>784.59997558594</ele>
        <time>2019-02-20T09:46:05.000Z</time>
      </trkpt>
      <trkpt lat="45.32116" lon="4.60016">
        <ele>784.20001220703</ele>
        <time>2019-02-20T09:46:06.000Z</time>
      </trkpt>
      <trkpt lat="45.32119" lon="4.60021">
        <ele>783.20001220703</ele>
        <time>2019-02-20T09:46:07.000Z</time>
      </trkpt>
      <trkpt lat="45.32121" lon="4.60026">
        <ele>782.40002441406</ele>
        <time>2019-02-20T09:46:08.000Z</time>
      </trkpt>
      <trkpt lat="45.32123" lon="4.60033">
        <ele>781.20001220703</ele>
        <time>2019-02-20T09:46:09.000Z</time>
      </trkpt>
      <trkpt lat="45.32125" lon="4.6004">
        <ele>780.20001220703</ele>
        <time>2019-02-20T09:46:10.000Z</time>
      </trkpt>
      <trkpt lat="45.32125" lon="4.60048">
        <ele>779</ele>
        <time>2019-02-20T09:46:11.000Z</time>
      </trkpt>
      <trkpt lat="45.32124" lon="4.60057">
        <ele>778.20001220703</ele>
        <time>2019-02-20T09:46:12.000Z</time>
      </trkpt>
      <trkpt lat="45.32123" lon="4.60067">
        <ele>777.20001220703</ele>
        <time>2019-02-20T09:46:13.000Z</time>
      </trkpt>
      <trkpt lat="45.32121" lon="4.60078">
        <ele>776.59997558594</ele>
        <time>2019-02-20T09:46:14.000Z</time>
      </trkpt>
      <trkpt lat="45.32119" lon="4.60088">
        <ele>776</ele>
        <time>2019-02-20T09:46:15.000Z</time>
      </trkpt>
      <trkpt lat="45.32117" lon="4.60099">
        <ele>775</ele>
        <time>2019-02-20T09:46:16.000Z</time>
      </trkpt>
      <trkpt lat="45.32114" lon="4.60108">
        <ele>774.20001220703</ele>
        <time>2019-02-20T09:46:17.000Z</time>
      </trkpt>
      <trkpt lat="45.32112" lon="4.60116">
        <ele>773</ele>
        <time>2019-02-20T09:46:18.000Z</time>
      </trkpt>
      <trkpt lat="45.32109" lon="4.60123">
        <ele>772</ele>
        <time>2019-02-20T09:46:19.000Z</time>
      </trkpt>
      <trkpt lat="45.32105" lon="4.60128">
        <ele>771</ele>
        <time>2019-02-20T09:46:20.000Z</time>
      </trkpt>
      <trkpt lat="45.32101" lon="4.60132">
        <ele>769.59997558594</ele>
        <time>2019-02-20T09:46:21.000Z</time>
      </trkpt>
      <trkpt lat="45.32097" lon="4.60135">
        <ele>767.59997558594</ele>
        <time>2019-02-20T09:46:22.000Z</time>
      </trkpt>
      <trkpt lat="45.32093" lon="4.60139">
        <ele>763.79998779297</ele>
        <time>2019-02-20T09:46:23.000Z</time>
      </trkpt>
      <trkpt lat="45.32089" lon="4.60143">
        <ele>762.40002441406</ele>
        <time>2019-02-20T09:46:24.000Z</time>
      </trkpt>
      <trkpt lat="45.32087" lon="4.60148">
        <ele>760.79998779297</ele>
        <time>2019-02-20T09:46:25.000Z</time>
      </trkpt>
      <trkpt lat="45.32086" lon="4.60154">
        <ele>760.20001220703</ele>
        <time>2019-02-20T09:46:26.000Z</time>
      </trkpt>
      <trkpt lat="45.32087" lon="4.6016">
        <ele>759.79998779297</ele>
        <time>2019-02-20T09:46:27.000Z</time>
      </trkpt>
      <trkpt lat="45.32088" lon="4.60167">
        <ele>759.40002441406</ele>
        <time>2019-02-20T09:46:28.000Z</time>
      </trkpt>
      <trkpt lat="45.3209" lon="4.60172">
        <ele>759.40002441406</ele>
        <time>2019-02-20T09:46:29.000Z</time>
      </trkpt>
      <trkpt lat="45.32093" lon="4.60178">
        <ele>758.79998779297</ele>
        <time>2019-02-20T09:46:30.000Z</time>
      </trkpt>
      <trkpt lat="45.32095" lon="4.60183">
        <ele>757.79998779297</ele>
        <time>2019-02-20T09:46:31.000Z</time>
      </trkpt>
      <trkpt lat="45.32098" lon="4.6019">
        <ele>756.59997558594</ele>
        <time>2019-02-20T09:46:32.000Z</time>
      </trkpt>
      <trkpt lat="45.32101" lon="4.60196">
        <ele>755.79998779297</ele>
        <time>2019-02-20T09:46:33.000Z</time>
      </trkpt>
      <trkpt lat="45.32104" lon="4.60201">
        <ele>755.40002441406</ele>
        <time>2019-02-20T09:46:34.000Z</time>
      </trkpt>
      <trkpt lat="45.32106" lon="4.60206">
        <ele>754.59997558594</ele>
        <time>2019-02-20T09:46:35.000Z</time>
      </trkpt>
      <trkpt lat="45.32109" lon="4.6021">
        <ele>754.20001220703</ele>
        <time>2019-02-20T09:46:36.000Z</time>
      </trkpt>
      <trkpt lat="45.32112" lon="4.60214">
        <ele>753.59997558594</ele>
        <time>2019-02-20T09:46:37.000Z</time>
      </trkpt>
      <trkpt lat="45.32115" lon="4.60217">
        <ele>753</ele>
        <time>2019-02-20T09:46:38.000Z</time>
      </trkpt>
      <trkpt lat="45.32118" lon="4.6022">
        <ele>752.20001220703</ele>
        <time>2019-02-20T09:46:39.000Z</time>
      </trkpt>
      <trkpt lat="45.32122" lon="4.60223">
        <ele>751.40002441406</ele>
        <time>2019-02-20T09:46:40.000Z</time>
      </trkpt>
      <trkpt lat="45.32126" lon="4.60227">
        <ele>750.20001220703</ele>
        <time>2019-02-20T09:46:41.000Z</time>
      </trkpt>
      <trkpt lat="45.32129" lon="4.6023">
        <ele>749</ele>
        <time>2019-02-20T09:46:42.000Z</time>
      </trkpt>
      <trkpt lat="45.32132" lon="4.60233">
        <ele>748.59997558594</ele>
        <time>2019-02-20T09:46:43.000Z</time>
      </trkpt>
      <trkpt lat="45.32136" lon="4.60236">
        <ele>747.79998779297</ele>
        <time>2019-02-20T09:46:44.000Z</time>
      </trkpt>
      <trkpt lat="45.32139" lon="4.60239">
        <ele>747.59997558594</ele>
        <time>2019-02-20T09:46:45.000Z</time>
      </trkpt>
      <trkpt lat="45.32143" lon="4.60243">
        <ele>746.59997558594</ele>
        <time>2019-02-20T09:46:46.000Z</time>
      </trkpt>
      <trkpt lat="45.32147" lon="4.60248">
        <ele>746</ele>
        <time>2019-02-20T09:46:47.000Z</time>
      </trkpt>
      <trkpt lat="45.32151" lon="4.60253">
        <ele>745.40002441406</ele>
        <time>2019-02-20T09:46:48.000Z</time>
      </trkpt>
      <trkpt lat="45.32154" lon="4.60259">
        <ele>744.40002441406</ele>
        <time>2019-02-20T09:46:49.000Z</time>
      </trkpt>
      <trkpt lat="45.32157" lon="4.60266">
        <ele>743.79998779297</ele>
        <time>2019-02-20T09:46:50.000Z</time>
      </trkpt>
      <trkpt lat="45.32159" lon="4.60272">
        <ele>742.40002441406</ele>
        <time>2019-02-20T09:46:51.000Z</time>
      </trkpt>
      <trkpt lat="45.32161" lon="4.60279">
        <ele>741.40002441406</ele>
        <time>2019-02-20T09:46:52.000Z</time>
      </trkpt>
      <trkpt lat="45.32162" lon="4.60285">
        <ele>740.59997558594</ele>
        <time>2019-02-20T09:46:53.000Z</time>
      </trkpt>
      <trkpt lat="45.32163" lon="4.60292">
        <ele>739.79998779297</ele>
        <time>2019-02-20T09:46:54.000Z</time>
      </trkpt>
      <trkpt lat="45.32163" lon="4.60299">
        <ele>738.20001220703</ele>
        <time>2019-02-20T09:46:55.000Z</time>
      </trkpt>
      <trkpt lat="45.32163" lon="4.60306">
        <ele>737</ele>
        <time>2019-02-20T09:46:56.000Z</time>
      </trkpt>
      <trkpt lat="45.32162" lon="4.60314">
        <ele>736</ele>
        <time>2019-02-20T09:46:57.000Z</time>
      </trkpt>
      <trkpt lat="45.32161" lon="4.6032">
        <ele>734.79998779297</ele>
        <time>2019-02-20T09:46:58.000Z</time>
      </trkpt>
      <trkpt lat="45.32159" lon="4.60327">
        <ele>733.59997558594</ele>
        <time>2019-02-20T09:46:59.000Z</time>
      </trkpt>
      <trkpt lat="45.32156" lon="4.60332">
        <ele>732.59997558594</ele>
        <time>2019-02-20T09:47:00.000Z</time>
      </trkpt>
      <trkpt lat="45.32152" lon="4.60336">
        <ele>732.20001220703</ele>
        <time>2019-02-20T09:47:01.000Z</time>
      </trkpt>
      <trkpt lat="45.32148" lon="4.60339">
        <ele>731</ele>
        <time>2019-02-20T09:47:02.000Z</time>
      </trkpt>
      <trkpt lat="45.32144" lon="4.60341">
        <ele>729.59997558594</ele>
        <time>2019-02-20T09:47:03.000Z</time>
      </trkpt>
      <trkpt lat="45.32139" lon="4.60343">
        <ele>729</ele>
        <time>2019-02-20T09:47:04.000Z</time>
      </trkpt>
      <trkpt lat="45.32135" lon="4.60344">
        <ele>727.59997558594</ele>
        <time>2019-02-20T09:47:05.000Z</time>
      </trkpt>
      <trkpt lat="45.32131" lon="4.60345">
        <ele>726.40002441406</ele>
        <time>2019-02-20T09:47:06.000Z</time>
      </trkpt>
      <trkpt lat="45.32126" lon="4.60347">
        <ele>725.40002441406</ele>
        <time>2019-02-20T09:47:07.000Z</time>
      </trkpt>
      <trkpt lat="45.32121" lon="4.60349">
        <ele>724.59997558594</ele>
        <time>2019-02-20T09:47:08.000Z</time>
      </trkpt>
      <trkpt lat="45.32114" lon="4.60352">
        <ele>723.79998779297</ele>
        <time>2019-02-20T09:47:09.000Z</time>
      </trkpt>
      <trkpt lat="45.32107" lon="4.60356">
        <ele>723.20001220703</ele>
        <time>2019-02-20T09:47:10.000Z</time>
      </trkpt>
      <trkpt lat="45.321" lon="4.60362">
        <ele>722.40002441406</ele>
        <time>2019-02-20T09:47:11.000Z</time>
      </trkpt>
      <trkpt lat="45.32095" lon="4.60369">
        <ele>721.40002441406</ele>
        <time>2019-02-20T09:47:12.000Z</time>
      </trkpt>
      <trkpt lat="45.32091" lon="4.60375">
        <ele>720.59997558594</ele>
        <time>2019-02-20T09:47:13.000Z</time>
      </trkpt>
      <trkpt lat="45.32088" lon="4.60382">
        <ele>719.20001220703</ele>
        <time>2019-02-20T09:47:14.000Z</time>
      </trkpt>
      <trkpt lat="45.32086" lon="4.60388">
        <ele>718.40002441406</ele>
        <time>2019-02-20T09:47:15.000Z</time>
      </trkpt>
      <trkpt lat="45.32084" lon="4.60394">
        <ele>717.59997558594</ele>
        <time>2019-02-20T09:47:16.000Z</time>
      </trkpt>
      <trkpt lat="45.32084" lon="4.60399">
        <ele>716.79998779297</ele>
        <time>2019-02-20T09:47:17.000Z</time>
      </trkpt>
      <trkpt lat="45.32083" lon="4.60403">
        <ele>714.40002441406</ele>
        <time>2019-02-20T09:47:18.000Z</time>
      </trkpt>
      <trkpt lat="45.32083" lon="4.60406">
        <ele>712.79998779297</ele>
        <time>2019-02-20T09:47:19.000Z</time>
      </trkpt>
      <trkpt lat="45.32083" lon="4.60408">
        <ele>711.59997558594</ele>
        <time>2019-02-20T09:47:20.000Z</time>
      </trkpt>
      <trkpt lat="45.32083" lon="4.6041">
        <ele>710.59997558594</ele>
        <time>2019-02-20T09:47:21.000Z</time>
      </trkpt>
      <trkpt lat="45.32082" lon="4.6041">
        <ele>710</ele>
        <time>2019-02-20T09:47:22.000Z</time>
      </trkpt>
      <trkpt lat="45.32082" lon="4.6041">
        <ele>709.59997558594</ele>
        <time>2019-02-20T09:47:23.000Z</time>
      </trkpt>
      <trkpt lat="45.32081" lon="4.60414">
        <ele>707.79998779297</ele>
        <time>2019-02-20T09:47:32.000Z</time>
      </trkpt>
      <trkpt lat="45.3208" lon="4.60416">
        <ele>707.79998779297</ele>
        <time>2019-02-20T09:47:33.000Z</time>
      </trkpt>
      <trkpt lat="45.32079" lon="4.60418">
        <ele>707.79998779297</ele>
        <time>2019-02-20T09:47:34.000Z</time>
      </trkpt>
      <trkpt lat="45.32077" lon="4.60421">
        <ele>707.79998779297</ele>
        <time>2019-02-20T09:47:35.000Z</time>
      </trkpt>
      <trkpt lat="45.32075" lon="4.60425">
        <ele>707.79998779297</ele>
        <time>2019-02-20T09:47:36.000Z</time>
      </trkpt>
      <trkpt lat="45.32075" lon="4.60429">
        <ele>707.79998779297</ele>
        <time>2019-02-20T09:47:37.000Z</time>
      </trkpt>
      <trkpt lat="45.32074" lon="4.60435">
        <ele>707.79998779297</ele>
        <time>2019-02-20T09:47:38.000Z</time>
      </trkpt>
      <trkpt lat="45.32072" lon="4.60443">
        <ele>707.59997558594</ele>
        <time>2019-02-20T09:47:39.000Z</time>
      </trkpt>
      <trkpt lat="45.3207" lon="4.60452">
        <ele>707.79998779297</ele>
        <time>2019-02-20T09:47:40.000Z</time>
      </trkpt>
      <trkpt lat="45.32068" lon="4.60462">
        <ele>707.40002441406</ele>
        <time>2019-02-20T09:47:41.000Z</time>
      </trkpt>
      <trkpt lat="45.32064" lon="4.60474">
        <ele>707.20001220703</ele>
        <time>2019-02-20T09:47:42.000Z</time>
      </trkpt>
      <trkpt lat="45.3206" lon="4.60487">
        <ele>707.20001220703</ele>
        <time>2019-02-20T09:47:43.000Z</time>
      </trkpt>
      <trkpt lat="45.32057" lon="4.60501">
        <ele>706.79998779297</ele>
        <time>2019-02-20T09:47:44.000Z</time>
      </trkpt>
      <trkpt lat="45.32055" lon="4.60515">
        <ele>706.40002441406</ele>
        <time>2019-02-20T09:47:45.000Z</time>
      </trkpt>
      <trkpt lat="45.32054" lon="4.60531">
        <ele>704.40002441406</ele>
        <time>2019-02-20T09:47:46.000Z</time>
      </trkpt>
      <trkpt lat="45.32052" lon="4.60547">
        <ele>703.20001220703</ele>
        <time>2019-02-20T09:47:47.000Z</time>
      </trkpt>
      <trkpt lat="45.32051" lon="4.6056">
        <ele>702.20001220703</ele>
        <time>2019-02-20T09:47:48.000Z</time>
      </trkpt>
      <trkpt lat="45.3205" lon="4.60571">
        <ele>700.20001220703</ele>
        <time>2019-02-20T09:47:49.000Z</time>
      </trkpt>
      <trkpt lat="45.32048" lon="4.6058">
        <ele>697.79998779297</ele>
        <time>2019-02-20T09:47:50.000Z</time>
      </trkpt>
      <trkpt lat="45.32048" lon="4.60586">
        <ele>696.59997558594</ele>
        <time>2019-02-20T09:47:51.000Z</time>
      </trkpt>
      <trkpt lat="45.32048" lon="4.6059">
        <ele>695.40002441406</ele>
        <time>2019-02-20T09:47:52.000Z</time>
      </trkpt>
      <trkpt lat="45.3205" lon="4.60592">
        <ele>693.59997558594</ele>
        <time>2019-02-20T09:47:53.000Z</time>
      </trkpt>
      <trkpt lat="45.32052" lon="4.60593">
        <ele>690.20001220703</ele>
        <time>2019-02-20T09:47:54.000Z</time>
      </trkpt>
      <trkpt lat="45.32054" lon="4.60592">
        <ele>688.59997558594</ele>
        <time>2019-02-20T09:47:55.000Z</time>
      </trkpt>
      <trkpt lat="45.32056" lon="4.60591">
        <ele>687.40002441406</ele>
        <time>2019-02-20T09:47:56.000Z</time>
      </trkpt>
      <trkpt lat="45.32058" lon="4.6059">
        <ele>687</ele>
        <time>2019-02-20T09:47:57.000Z</time>
      </trkpt>
      <trkpt lat="45.3206" lon="4.60589">
        <ele>686.40002441406</ele>
        <time>2019-02-20T09:47:58.000Z</time>
      </trkpt>
      <trkpt lat="45.32062" lon="4.60587">
        <ele>686.20001220703</ele>
        <time>2019-02-20T09:47:59.000Z</time>
      </trkpt>
      <trkpt lat="45.32064" lon="4.60586">
        <ele>686</ele>
        <time>2019-02-20T09:48:00.000Z</time>
      </trkpt>
      <trkpt lat="45.32066" lon="4.60584">
        <ele>686</ele>
        <time>2019-02-20T09:48:01.000Z</time>
      </trkpt>
      <trkpt lat="45.32068" lon="4.60582">
        <ele>685.59997558594</ele>
        <time>2019-02-20T09:48:02.000Z</time>
      </trkpt>
      <trkpt lat="45.32069" lon="4.60581">
        <ele>685.59997558594</ele>
        <time>2019-02-20T09:48:03.000Z</time>
      </trkpt>
      <trkpt lat="45.32071" lon="4.60579">
        <ele>685.59997558594</ele>
        <time>2019-02-20T09:48:04.000Z</time>
      </trkpt>
      <trkpt lat="45.32073" lon="4.60577">
        <ele>685.79998779297</ele>
        <time>2019-02-20T09:48:05.000Z</time>
      </trkpt>
      <trkpt lat="45.32074" lon="4.60575">
        <ele>685.59997558594</ele>
        <time>2019-02-20T09:48:06.000Z</time>
      </trkpt>
      <trkpt lat="45.32076" lon="4.60574">
        <ele>685.79998779297</ele>
        <time>2019-02-20T09:48:07.000Z</time>
      </trkpt>
      <trkpt lat="45.32077" lon="4.60572">
        <ele>685.59997558594</ele>
        <time>2019-02-20T09:48:08.000Z</time>
      </trkpt>
      <trkpt lat="45.32079" lon="4.60571">
        <ele>685.59997558594</ele>
        <time>2019-02-20T09:48:09.000Z</time>
      </trkpt>
      <trkpt lat="45.3208" lon="4.60569">
        <ele>686</ele>
        <time>2019-02-20T09:48:10.000Z</time>
      </trkpt>
      <trkpt lat="45.32081" lon="4.60568">
        <ele>686</ele>
        <time>2019-02-20T09:48:11.000Z</time>
      </trkpt>
      <trkpt lat="45.32083" lon="4.60567">
        <ele>686</ele>
        <time>2019-02-20T09:48:12.000Z</time>
      </trkpt>
      <trkpt lat="45.32084" lon="4.60565">
        <ele>686.20001220703</ele>
        <time>2019-02-20T09:48:13.000Z</time>
      </trkpt>
      <trkpt lat="45.32085" lon="4.60564">
        <ele>686.40002441406</ele>
        <time>2019-02-20T09:48:14.000Z</time>
      </trkpt>
      <trkpt lat="45.32086" lon="4.60563">
        <ele>686.79998779297</ele>
        <time>2019-02-20T09:48:15.000Z</time>
      </trkpt>
      <trkpt lat="45.32088" lon="4.60562">
        <ele>686.79998779297</ele>
        <time>2019-02-20T09:48:16.000Z</time>
      </trkpt>
      <trkpt lat="45.32089" lon="4.60561">
        <ele>686.79998779297</ele>
        <time>2019-02-20T09:48:17.000Z</time>
      </trkpt>
      <trkpt lat="45.3209" lon="4.6056">
        <ele>687</ele>
        <time>2019-02-20T09:48:18.000Z</time>
      </trkpt>
      <trkpt lat="45.32092" lon="4.60559">
        <ele>687.20001220703</ele>
        <time>2019-02-20T09:48:19.000Z</time>
      </trkpt>
      <trkpt lat="45.32093" lon="4.60557">
        <ele>687.40002441406</ele>
        <time>2019-02-20T09:48:20.000Z</time>
      </trkpt>
      <trkpt lat="45.32095" lon="4.60556">
        <ele>687.59997558594</ele>
        <time>2019-02-20T09:48:21.000Z</time>
      </trkpt>
      <trkpt lat="45.32096" lon="4.60555">
        <ele>687.79998779297</ele>
        <time>2019-02-20T09:48:22.000Z</time>
      </trkpt>
      <trkpt lat="45.32097" lon="4.60554">
        <ele>687.59997558594</ele>
        <time>2019-02-20T09:48:23.000Z</time>
      </trkpt>
      <trkpt lat="45.32099" lon="4.60552">
        <ele>687.79998779297</ele>
        <time>2019-02-20T09:48:24.000Z</time>
      </trkpt>
      <trkpt lat="45.321" lon="4.60551">
        <ele>687.79998779297</ele>
        <time>2019-02-20T09:48:25.000Z</time>
      </trkpt>
      <trkpt lat="45.32101" lon="4.6055">
        <ele>688</ele>
        <time>2019-02-20T09:48:26.000Z</time>
      </trkpt>
      <trkpt lat="45.32103" lon="4.60548">
        <ele>688.20001220703</ele>
        <time>2019-02-20T09:48:27.000Z</time>
      </trkpt>
      <trkpt lat="45.32105" lon="4.60547">
        <ele>688.20001220703</ele>
        <time>2019-02-20T09:48:28.000Z</time>
      </trkpt>
      <trkpt lat="45.32106" lon="4.60545">
        <ele>688.20001220703</ele>
        <time>2019-02-20T09:48:29.000Z</time>
      </trkpt>
      <trkpt lat="45.32108" lon="4.60544">
        <ele>688.40002441406</ele>
        <time>2019-02-20T09:48:30.000Z</time>
      </trkpt>
      <trkpt lat="45.32109" lon="4.60542">
        <ele>688.20001220703</ele>
        <time>2019-02-20T09:48:31.000Z</time>
      </trkpt>
      <trkpt lat="45.32111" lon="4.60541">
        <ele>688.40002441406</ele>
        <time>2019-02-20T09:48:32.000Z</time>
      </trkpt>
      <trkpt lat="45.32113" lon="4.60539">
        <ele>688.20001220703</ele>
        <time>2019-02-20T09:48:33.000Z</time>
      </trkpt>
      <trkpt lat="45.32114" lon="4.60538">
        <ele>688.40002441406</ele>
        <time>2019-02-20T09:48:34.000Z</time>
      </trkpt>
      <trkpt lat="45.32116" lon="4.60536">
        <ele>688.40002441406</ele>
        <time>2019-02-20T09:48:35.000Z</time>
      </trkpt>
      <trkpt lat="45.32117" lon="4.60535">
        <ele>688.40002441406</ele>
        <time>2019-02-20T09:48:36.000Z</time>
      </trkpt>
      <trkpt lat="45.32119" lon="4.60533">
        <ele>688.40002441406</ele>
        <time>2019-02-20T09:48:37.000Z</time>
      </trkpt>
      <trkpt lat="45.32121" lon="4.60532">
        <ele>688.59997558594</ele>
        <time>2019-02-20T09:48:38.000Z</time>
      </trkpt>
      <trkpt lat="45.32123" lon="4.6053">
        <ele>688.40002441406</ele>
        <time>2019-02-20T09:48:39.000Z</time>
      </trkpt>
      <trkpt lat="45.32124" lon="4.60529">
        <ele>688.59997558594</ele>
        <time>2019-02-20T09:48:40.000Z</time>
      </trkpt>
      <trkpt lat="45.32126" lon="4.60527">
        <ele>688.40002441406</ele>
        <time>2019-02-20T09:48:41.000Z</time>
      </trkpt>
      <trkpt lat="45.32128" lon="4.60525">
        <ele>688.59997558594</ele>
        <time>2019-02-20T09:48:42.000Z</time>
      </trkpt>
      <trkpt lat="45.3213" lon="4.60524">
        <ele>688.59997558594</ele>
        <time>2019-02-20T09:48:43.000Z</time>
      </trkpt>
      <trkpt lat="45.32132" lon="4.60522">
        <ele>688.79998779297</ele>
        <time>2019-02-20T09:48:44.000Z</time>
      </trkpt>
      <trkpt lat="45.32134" lon="4.6052">
        <ele>688.79998779297</ele>
        <time>2019-02-20T09:48:45.000Z</time>
      </trkpt>
      <trkpt lat="45.32135" lon="4.60519">
        <ele>688.79998779297</ele>
        <time>2019-02-20T09:48:46.000Z</time>
      </trkpt>
      <trkpt lat="45.32137" lon="4.60518">
        <ele>688.79998779297</ele>
        <time>2019-02-20T09:48:47.000Z</time>
      </trkpt>
      <trkpt lat="45.32139" lon="4.60516">
        <ele>688.59997558594</ele>
        <time>2019-02-20T09:48:48.000Z</time>
      </trkpt>
      <trkpt lat="45.3214" lon="4.60515">
        <ele>688.79998779297</ele>
        <time>2019-02-20T09:48:49.000Z</time>
      </trkpt>
      <trkpt lat="45.32141" lon="4.60514">
        <ele>688.79998779297</ele>
        <time>2019-02-20T09:48:50.000Z</time>
      </trkpt>
      <trkpt lat="45.32143" lon="4.60513">
        <ele>688.79998779297</ele>
        <time>2019-02-20T09:48:51.000Z</time>
      </trkpt>
      <trkpt lat="45.32145" lon="4.60512">
        <ele>689</ele>
        <time>2019-02-20T09:48:52.000Z</time>
      </trkpt>
      <trkpt lat="45.32146" lon="4.6051">
        <ele>689</ele>
        <time>2019-02-20T09:48:53.000Z</time>
      </trkpt>
      <trkpt lat="45.32147" lon="4.60509">
        <ele>689</ele>
        <time>2019-02-20T09:48:54.000Z</time>
      </trkpt>
      <trkpt lat="45.32149" lon="4.60507">
        <ele>689.20001220703</ele>
        <time>2019-02-20T09:48:55.000Z</time>
      </trkpt>
      <trkpt lat="45.32151" lon="4.60506">
        <ele>689.20001220703</ele>
        <time>2019-02-20T09:48:56.000Z</time>
      </trkpt>
      <trkpt lat="45.32152" lon="4.60504">
        <ele>689.40002441406</ele>
        <time>2019-02-20T09:48:57.000Z</time>
      </trkpt>
      <trkpt lat="45.32154" lon="4.60503">
        <ele>689.20001220703</ele>
        <time>2019-02-20T09:48:58.000Z</time>
      </trkpt>
      <trkpt lat="45.32155" lon="4.60501">
        <ele>689.20001220703</ele>
        <time>2019-02-20T09:48:59.000Z</time>
      </trkpt>
      <trkpt lat="45.32157" lon="4.605">
        <ele>689.20001220703</ele>
        <time>2019-02-20T09:49:00.000Z</time>
      </trkpt>
      <trkpt lat="45.32158" lon="4.60499">
        <ele>689.40002441406</ele>
        <time>2019-02-20T09:49:01.000Z</time>
      </trkpt>
      <trkpt lat="45.3216" lon="4.60498">
        <ele>689.20001220703</ele>
        <time>2019-02-20T09:49:02.000Z</time>
      </trkpt>
      <trkpt lat="45.32162" lon="4.60497">
        <ele>689.40002441406</ele>
        <time>2019-02-20T09:49:03.000Z</time>
      </trkpt>
      <trkpt lat="45.32164" lon="4.60497">
        <ele>689.40002441406</ele>
        <time>2019-02-20T09:49:04.000Z</time>
      </trkpt>
      <trkpt lat="45.32167" lon="4.60498">
        <ele>689.40002441406</ele>
        <time>2019-02-20T09:49:05.000Z</time>
      </trkpt>
      <trkpt lat="45.3217" lon="4.605">
        <ele>689.40002441406</ele>
        <time>2019-02-20T09:49:06.000Z</time>
      </trkpt>
      <trkpt lat="45.32173" lon="4.60501">
        <ele>689.40002441406</ele>
        <time>2019-02-20T09:49:07.000Z</time>
      </trkpt>
      <trkpt lat="45.32176" lon="4.60503">
        <ele>689.40002441406</ele>
        <time>2019-02-20T09:49:08.000Z</time>
      </trkpt>
      <trkpt lat="45.32179" lon="4.60504">
        <ele>689.40002441406</ele>
        <time>2019-02-20T09:49:09.000Z</time>
      </trkpt>
      <trkpt lat="45.32182" lon="4.60506">
        <ele>689.40002441406</ele>
        <time>2019-02-20T09:49:10.000Z</time>
      </trkpt>
      <trkpt lat="45.32186" lon="4.60508">
        <ele>689.20001220703</ele>
        <time>2019-02-20T09:49:11.000Z</time>
      </trkpt>
      <trkpt lat="45.3219" lon="4.6051">
        <ele>689</ele>
        <time>2019-02-20T09:49:12.000Z</time>
      </trkpt>
      <trkpt lat="45.32194" lon="4.60512">
        <ele>688.40002441406</ele>
        <time>2019-02-20T09:49:13.000Z</time>
      </trkpt>
      <trkpt lat="45.32198" lon="4.60513">
        <ele>688</ele>
        <time>2019-02-20T09:49:14.000Z</time>
      </trkpt>
      <trkpt lat="45.32203" lon="4.60514">
        <ele>687.59997558594</ele>
        <time>2019-02-20T09:49:15.000Z</time>
      </trkpt>
      <trkpt lat="45.32209" lon="4.60515">
        <ele>687.20001220703</ele>
        <time>2019-02-20T09:49:16.000Z</time>
      </trkpt>
      <trkpt lat="45.32214" lon="4.60515">
        <ele>686.79998779297</ele>
        <time>2019-02-20T09:49:17.000Z</time>
      </trkpt>
      <trkpt lat="45.3222" lon="4.60515">
        <ele>685.40002441406</ele>
        <time>2019-02-20T09:49:18.000Z</time>
      </trkpt>
      <trkpt lat="45.32226" lon="4.60514">
        <ele>684.79998779297</ele>
        <time>2019-02-20T09:49:19.000Z</time>
      </trkpt>
      <trkpt lat="45.32232" lon="4.60513">
        <ele>684.20001220703</ele>
        <time>2019-02-20T09:49:20.000Z</time>
      </trkpt>
      <trkpt lat="45.32237" lon="4.60511">
        <ele>683.59997558594</ele>
        <time>2019-02-20T09:49:21.000Z</time>
      </trkpt>
      <trkpt lat="45.32243" lon="4.60509">
        <ele>682.79998779297</ele>
        <time>2019-02-20T09:49:22.000Z</time>
      </trkpt>
      <trkpt lat="45.32249" lon="4.60507">
        <ele>682</ele>
        <time>2019-02-20T09:49:23.000Z</time>
      </trkpt>
      <trkpt lat="45.32255" lon="4.60505">
        <ele>681.40002441406</ele>
        <time>2019-02-20T09:49:24.000Z</time>
      </trkpt>
      <trkpt lat="45.3226" lon="4.60504">
        <ele>680.40002441406</ele>
        <time>2019-02-20T09:49:25.000Z</time>
      </trkpt>
      <trkpt lat="45.32264" lon="4.60502">
        <ele>679.79998779297</ele>
        <time>2019-02-20T09:49:26.000Z</time>
      </trkpt>
      <trkpt lat="45.32268" lon="4.605">
        <ele>679.20001220703</ele>
        <time>2019-02-20T09:49:27.000Z</time>
      </trkpt>
      <trkpt lat="45.32272" lon="4.60498">
        <ele>678.79998779297</ele>
        <time>2019-02-20T09:49:28.000Z</time>
      </trkpt>
      <trkpt lat="45.32275" lon="4.60496">
        <ele>678.59997558594</ele>
        <time>2019-02-20T09:49:29.000Z</time>
      </trkpt>
      <trkpt lat="45.32278" lon="4.60494">
        <ele>678.40002441406</ele>
        <time>2019-02-20T09:49:30.000Z</time>
      </trkpt>
      <trkpt lat="45.32281" lon="4.60491">
        <ele>678.20001220703</ele>
        <time>2019-02-20T09:49:31.000Z</time>
      </trkpt>
      <trkpt lat="45.32283" lon="4.60487">
        <ele>678</ele>
        <time>2019-02-20T09:49:32.000Z</time>
      </trkpt>
      <trkpt lat="45.32285" lon="4.60483">
        <ele>678.20001220703</ele>
        <time>2019-02-20T09:49:33.000Z</time>
      </trkpt>
      <trkpt lat="45.32287" lon="4.60478">
        <ele>678</ele>
        <time>2019-02-20T09:49:34.000Z</time>
      </trkpt>
      <trkpt lat="45.32289" lon="4.60473">
        <ele>678</ele>
        <time>2019-02-20T09:49:35.000Z</time>
      </trkpt>
      <trkpt lat="45.32291" lon="4.60468">
        <ele>678</ele>
        <time>2019-02-20T09:49:36.000Z</time>
      </trkpt>
      <trkpt lat="45.32292" lon="4.60463">
        <ele>678</ele>
        <time>2019-02-20T09:49:37.000Z</time>
      </trkpt>
      <trkpt lat="45.32293" lon="4.60459">
        <ele>678</ele>
        <time>2019-02-20T09:49:38.000Z</time>
      </trkpt>
      <trkpt lat="45.32296" lon="4.60454">
        <ele>677.79998779297</ele>
        <time>2019-02-20T09:49:39.000Z</time>
      </trkpt>
      <trkpt lat="45.323" lon="4.60451">
        <ele>678</ele>
        <time>2019-02-20T09:49:40.000Z</time>
      </trkpt>
      <trkpt lat="45.32304" lon="4.60449">
        <ele>677.79998779297</ele>
        <time>2019-02-20T09:49:41.000Z</time>
      </trkpt>
      <trkpt lat="45.32308" lon="4.60448">
        <ele>677.79998779297</ele>
        <time>2019-02-20T09:49:42.000Z</time>
      </trkpt>
      <trkpt lat="45.32312" lon="4.60447">
        <ele>677.59997558594</ele>
        <time>2019-02-20T09:49:43.000Z</time>
      </trkpt>
      <trkpt lat="45.32315" lon="4.60447">
        <ele>677.40002441406</ele>
        <time>2019-02-20T09:49:44.000Z</time>
      </trkpt>
      <trkpt lat="45.32319" lon="4.60446">
        <ele>676.79998779297</ele>
        <time>2019-02-20T09:49:45.000Z</time>
      </trkpt>
      <trkpt lat="45.32322" lon="4.60445">
        <ele>676.40002441406</ele>
        <time>2019-02-20T09:49:46.000Z</time>
      </trkpt>
      <trkpt lat="45.32325" lon="4.60444">
        <ele>676.40002441406</ele>
        <time>2019-02-20T09:49:47.000Z</time>
      </trkpt>
      <trkpt lat="45.32328" lon="4.60443">
        <ele>676.40002441406</ele>
        <time>2019-02-20T09:49:48.000Z</time>
      </trkpt>
      <trkpt lat="45.32331" lon="4.60443">
        <ele>676.20001220703</ele>
        <time>2019-02-20T09:49:49.000Z</time>
      </trkpt>
      <trkpt lat="45.32334" lon="4.60444">
        <ele>676.40002441406</ele>
        <time>2019-02-20T09:49:50.000Z</time>
      </trkpt>
      <trkpt lat="45.32337" lon="4.60445">
        <ele>676.40002441406</ele>
        <time>2019-02-20T09:49:51.000Z</time>
      </trkpt>
      <trkpt lat="45.3234" lon="4.60447">
        <ele>676.20001220703</ele>
        <time>2019-02-20T09:49:52.000Z</time>
      </trkpt>
      <trkpt lat="45.32342" lon="4.60448">
        <ele>676.20001220703</ele>
        <time>2019-02-20T09:49:53.000Z</time>
      </trkpt>
      <trkpt lat="45.32345" lon="4.60449">
        <ele>676.20001220703</ele>
        <time>2019-02-20T09:49:54.000Z</time>
      </trkpt>
      <trkpt lat="45.32348" lon="4.60451">
        <ele>676.20001220703</ele>
        <time>2019-02-20T09:49:55.000Z</time>
      </trkpt>
      <trkpt lat="45.32351" lon="4.60452">
        <ele>676.40002441406</ele>
        <time>2019-02-20T09:49:56.000Z</time>
      </trkpt>
      <trkpt lat="45.32353" lon="4.60454">
        <ele>676.59997558594</ele>
        <time>2019-02-20T09:49:57.000Z</time>
      </trkpt>
      <trkpt lat="45.32356" lon="4.60456">
        <ele>676.79998779297</ele>
        <time>2019-02-20T09:49:58.000Z</time>
      </trkpt>
      <trkpt lat="45.32358" lon="4.60457">
        <ele>676.79998779297</ele>
        <time>2019-02-20T09:49:59.000Z</time>
      </trkpt>
      <trkpt lat="45.3236" lon="4.60459">
        <ele>677</ele>
        <time>2019-02-20T09:50:00.000Z</time>
      </trkpt>
      <trkpt lat="45.32361" lon="4.6046">
        <ele>677.20001220703</ele>
        <time>2019-02-20T09:50:01.000Z</time>
      </trkpt>
      <trkpt lat="45.32363" lon="4.60461">
        <ele>677.40002441406</ele>
        <time>2019-02-20T09:50:02.000Z</time>
      </trkpt>
      <trkpt lat="45.32365" lon="4.60462">
        <ele>677.59997558594</ele>
        <time>2019-02-20T09:50:03.000Z</time>
      </trkpt>
      <trkpt lat="45.32366" lon="4.60463">
        <ele>677.59997558594</ele>
        <time>2019-02-20T09:50:04.000Z</time>
      </trkpt>
      <trkpt lat="45.32368" lon="4.60465">
        <ele>677.59997558594</ele>
        <time>2019-02-20T09:50:05.000Z</time>
      </trkpt>
      <trkpt lat="45.3237" lon="4.60466">
        <ele>677.59997558594</ele>
        <time>2019-02-20T09:50:06.000Z</time>
      </trkpt>
      <trkpt lat="45.32372" lon="4.60468">
        <ele>677.79998779297</ele>
        <time>2019-02-20T09:50:07.000Z</time>
      </trkpt>
      <trkpt lat="45.32374" lon="4.60471">
        <ele>678.20001220703</ele>
        <time>2019-02-20T09:50:08.000Z</time>
      </trkpt>
      <trkpt lat="45.32376" lon="4.60473">
        <ele>678.59997558594</ele>
        <time>2019-02-20T09:50:09.000Z</time>
      </trkpt>
      <trkpt lat="45.32378" lon="4.60475">
        <ele>678.79998779297</ele>
        <time>2019-02-20T09:50:10.000Z</time>
      </trkpt>
      <trkpt lat="45.3238" lon="4.60478">
        <ele>679.40002441406</ele>
        <time>2019-02-20T09:50:11.000Z</time>
      </trkpt>
      <trkpt lat="45.32383" lon="4.60481">
        <ele>679.59997558594</ele>
        <time>2019-02-20T09:50:12.000Z</time>
      </trkpt>
      <trkpt lat="45.32385" lon="4.60483">
        <ele>680</ele>
        <time>2019-02-20T09:50:13.000Z</time>
      </trkpt>
      <trkpt lat="45.32388" lon="4.60485">
        <ele>680.20001220703</ele>
        <time>2019-02-20T09:50:14.000Z</time>
      </trkpt>
      <trkpt lat="45.3239" lon="4.60487">
        <ele>680.20001220703</ele>
        <time>2019-02-20T09:50:15.000Z</time>
      </trkpt>
      <trkpt lat="45.32392" lon="4.60489">
        <ele>680.20001220703</ele>
        <time>2019-02-20T09:50:16.000Z</time>
      </trkpt>
      <trkpt lat="45.32395" lon="4.60491">
        <ele>680.40002441406</ele>
        <time>2019-02-20T09:50:17.000Z</time>
      </trkpt>
      <trkpt lat="45.32397" lon="4.60493">
        <ele>680.40002441406</ele>
        <time>2019-02-20T09:50:18.000Z</time>
      </trkpt>
      <trkpt lat="45.324" lon="4.60495">
        <ele>680.40002441406</ele>
        <time>2019-02-20T09:50:19.000Z</time>
      </trkpt>
      <trkpt lat="45.32403" lon="4.60497">
        <ele>680.20001220703</ele>
        <time>2019-02-20T09:50:20.000Z</time>
      </trkpt>
      <trkpt lat="45.32407" lon="4.60499">
        <ele>680.20001220703</ele>
        <time>2019-02-20T09:50:21.000Z</time>
      </trkpt>
      <trkpt lat="45.32411" lon="4.60501">
        <ele>680.20001220703</ele>
        <time>2019-02-20T09:50:22.000Z</time>
      </trkpt>
      <trkpt lat="45.32415" lon="4.60503">
        <ele>680</ele>
        <time>2019-02-20T09:50:23.000Z</time>
      </trkpt>
      <trkpt lat="45.32419" lon="4.60505">
        <ele>680.20001220703</ele>
        <time>2019-02-20T09:50:24.000Z</time>
      </trkpt>
      <trkpt lat="45.32423" lon="4.60506">
        <ele>679.79998779297</ele>
        <time>2019-02-20T09:50:25.000Z</time>
      </trkpt>
      <trkpt lat="45.32428" lon="4.60507">
        <ele>679.59997558594</ele>
        <time>2019-02-20T09:50:26.000Z</time>
      </trkpt>
      <trkpt lat="45.32432" lon="4.60508">
        <ele>679.40002441406</ele>
        <time>2019-02-20T09:50:27.000Z</time>
      </trkpt>
      <trkpt lat="45.32436" lon="4.60509">
        <ele>679.20001220703</ele>
        <time>2019-02-20T09:50:28.000Z</time>
      </trkpt>
      <trkpt lat="45.3244" lon="4.6051">
        <ele>679</ele>
        <time>2019-02-20T09:50:29.000Z</time>
      </trkpt>
      <trkpt lat="45.32444" lon="4.60512">
        <ele>678.59997558594</ele>
        <time>2019-02-20T09:50:30.000Z</time>
      </trkpt>
      <trkpt lat="45.32448" lon="4.60513">
        <ele>678.20001220703</ele>
        <time>2019-02-20T09:50:31.000Z</time>
      </trkpt>
      <trkpt lat="45.32452" lon="4.60514">
        <ele>678</ele>
        <time>2019-02-20T09:50:32.000Z</time>
      </trkpt>
      <trkpt lat="45.32456" lon="4.60516">
        <ele>677.79998779297</ele>
        <time>2019-02-20T09:50:33.000Z</time>
      </trkpt>
      <trkpt lat="45.3246" lon="4.60517">
        <ele>677.79998779297</ele>
        <time>2019-02-20T09:50:34.000Z</time>
      </trkpt>
      <trkpt lat="45.32464" lon="4.60519">
        <ele>677.59997558594</ele>
        <time>2019-02-20T09:50:35.000Z</time>
      </trkpt>
      <trkpt lat="45.32467" lon="4.6052">
        <ele>677.40002441406</ele>
        <time>2019-02-20T09:50:36.000Z</time>
      </trkpt>
      <trkpt lat="45.32471" lon="4.60521">
        <ele>677.20001220703</ele>
        <time>2019-02-20T09:50:37.000Z</time>
      </trkpt>
      <trkpt lat="45.32474" lon="4.60522">
        <ele>677.20001220703</ele>
        <time>2019-02-20T09:50:38.000Z</time>
      </trkpt>
      <trkpt lat="45.32477" lon="4.60523">
        <ele>677</ele>
        <time>2019-02-20T09:50:39.000Z</time>
      </trkpt>
      <trkpt lat="45.32481" lon="4.60524">
        <ele>677</ele>
        <time>2019-02-20T09:50:40.000Z</time>
      </trkpt>
      <trkpt lat="45.32484" lon="4.60525">
        <ele>677</ele>
        <time>2019-02-20T09:50:41.000Z</time>
      </trkpt>
      <trkpt lat="45.32487" lon="4.60526">
        <ele>677</ele>
        <time>2019-02-20T09:50:42.000Z</time>
      </trkpt>
      <trkpt lat="45.3249" lon="4.60527">
        <ele>677</ele>
        <time>2019-02-20T09:50:43.000Z</time>
      </trkpt>
      <trkpt lat="45.32493" lon="4.60528">
        <ele>677</ele>
        <time>2019-02-20T09:50:44.000Z</time>
      </trkpt>
      <trkpt lat="45.32496" lon="4.60529">
        <ele>677</ele>
        <time>2019-02-20T09:50:45.000Z</time>
      </trkpt>
      <trkpt lat="45.325" lon="4.6053">
        <ele>677</ele>
        <time>2019-02-20T09:50:46.000Z</time>
      </trkpt>
      <trkpt lat="45.32503" lon="4.60532">
        <ele>677</ele>
        <time>2019-02-20T09:50:47.000Z</time>
      </trkpt>
      <trkpt lat="45.32506" lon="4.60533">
        <ele>677.20001220703</ele>
        <time>2019-02-20T09:50:48.000Z</time>
      </trkpt>
      <trkpt lat="45.32509" lon="4.60535">
        <ele>677.20001220703</ele>
        <time>2019-02-20T09:50:49.000Z</time>
      </trkpt>
      <trkpt lat="45.32512" lon="4.60536">
        <ele>677.20001220703</ele>
        <time>2019-02-20T09:50:50.000Z</time>
      </trkpt>
      <trkpt lat="45.32515" lon="4.60538">
        <ele>677.20001220703</ele>
        <time>2019-02-20T09:50:51.000Z</time>
      </trkpt>
      <trkpt lat="45.32518" lon="4.6054">
        <ele>677.20001220703</ele>
        <time>2019-02-20T09:50:52.000Z</time>
      </trkpt>
      <trkpt lat="45.32521" lon="4.60542">
        <ele>677.20001220703</ele>
        <time>2019-02-20T09:50:53.000Z</time>
      </trkpt>
      <trkpt lat="45.32524" lon="4.60544">
        <ele>677.20001220703</ele>
        <time>2019-02-20T09:50:54.000Z</time>
      </trkpt>
      <trkpt lat="45.32527" lon="4.60546">
        <ele>677.40002441406</ele>
        <time>2019-02-20T09:50:55.000Z</time>
      </trkpt>
      <trkpt lat="45.3253" lon="4.60547">
        <ele>677.40002441406</ele>
        <time>2019-02-20T09:50:56.000Z</time>
      </trkpt>
      <trkpt lat="45.32533" lon="4.60549">
        <ele>677.40002441406</ele>
        <time>2019-02-20T09:50:57.000Z</time>
      </trkpt>
      <trkpt lat="45.32536" lon="4.60552">
        <ele>677.40002441406</ele>
        <time>2019-02-20T09:50:58.000Z</time>
      </trkpt>
      <trkpt lat="45.32539" lon="4.60554">
        <ele>677.40002441406</ele>
        <time>2019-02-20T09:50:59.000Z</time>
      </trkpt>
      <trkpt lat="45.32543" lon="4.60557">
        <ele>677.40002441406</ele>
        <time>2019-02-20T09:51:00.000Z</time>
      </trkpt>
      <trkpt lat="45.32546" lon="4.60559">
        <ele>677.40002441406</ele>
        <time>2019-02-20T09:51:01.000Z</time>
      </trkpt>
      <trkpt lat="45.3255" lon="4.60562">
        <ele>677.40002441406</ele>
        <time>2019-02-20T09:51:02.000Z</time>
      </trkpt>
      <trkpt lat="45.32554" lon="4.60566">
        <ele>677.20001220703</ele>
        <time>2019-02-20T09:51:03.000Z</time>
      </trkpt>
      <trkpt lat="45.32557" lon="4.60569">
        <ele>677.40002441406</ele>
        <time>2019-02-20T09:51:04.000Z</time>
      </trkpt>
      <trkpt lat="45.32561" lon="4.60573">
        <ele>677.20001220703</ele>
        <time>2019-02-20T09:51:05.000Z</time>
      </trkpt>
      <trkpt lat="45.32563" lon="4.60577">
        <ele>677.20001220703</ele>
        <time>2019-02-20T09:51:06.000Z</time>
      </trkpt>
      <trkpt lat="45.32566" lon="4.60582">
        <ele>677.20001220703</ele>
        <time>2019-02-20T09:51:07.000Z</time>
      </trkpt>
      <trkpt lat="45.32568" lon="4.60586">
        <ele>677.20001220703</ele>
        <time>2019-02-20T09:51:08.000Z</time>
      </trkpt>
      <trkpt lat="45.3257" lon="4.60591">
        <ele>677</ele>
        <time>2019-02-20T09:51:09.000Z</time>
      </trkpt>
      <trkpt lat="45.32573" lon="4.60596">
        <ele>676.79998779297</ele>
        <time>2019-02-20T09:51:10.000Z</time>
      </trkpt>
      <trkpt lat="45.32575" lon="4.606">
        <ele>676.59997558594</ele>
        <time>2019-02-20T09:51:11.000Z</time>
      </trkpt>
      <trkpt lat="45.32577" lon="4.60604">
        <ele>676.40002441406</ele>
        <time>2019-02-20T09:51:12.000Z</time>
      </trkpt>
      <trkpt lat="45.3258" lon="4.60608">
        <ele>676.40002441406</ele>
        <time>2019-02-20T09:51:13.000Z</time>
      </trkpt>
      <trkpt lat="45.32584" lon="4.60611">
        <ele>676.20001220703</ele>
        <time>2019-02-20T09:51:14.000Z</time>
      </trkpt>
      <trkpt lat="45.32588" lon="4.60612">
        <ele>676.20001220703</ele>
        <time>2019-02-20T09:51:15.000Z</time>
      </trkpt>
      <trkpt lat="45.32592" lon="4.60611">
        <ele>676</ele>
        <time>2019-02-20T09:51:16.000Z</time>
      </trkpt>
      <trkpt lat="45.32596" lon="4.60609">
        <ele>676</ele>
        <time>2019-02-20T09:51:17.000Z</time>
      </trkpt>
      <trkpt lat="45.326" lon="4.60605">
        <ele>676</ele>
        <time>2019-02-20T09:51:18.000Z</time>
      </trkpt>
      <trkpt lat="45.32604" lon="4.60601">
        <ele>675.79998779297</ele>
        <time>2019-02-20T09:51:19.000Z</time>
      </trkpt>
      <trkpt lat="45.32607" lon="4.60595">
        <ele>676</ele>
        <time>2019-02-20T09:51:20.000Z</time>
      </trkpt>
      <trkpt lat="45.3261" lon="4.60588">
        <ele>675.79998779297</ele>
        <time>2019-02-20T09:51:21.000Z</time>
      </trkpt>
      <trkpt lat="45.32613" lon="4.6058">
        <ele>675.79998779297</ele>
        <time>2019-02-20T09:51:22.000Z</time>
      </trkpt>
      <trkpt lat="45.32616" lon="4.60572">
        <ele>675.79998779297</ele>
        <time>2019-02-20T09:51:23.000Z</time>
      </trkpt>
      <trkpt lat="45.32617" lon="4.60565">
        <ele>675.59997558594</ele>
        <time>2019-02-20T09:51:24.000Z</time>
      </trkpt>
      <trkpt lat="45.32619" lon="4.60558">
        <ele>675.40002441406</ele>
        <time>2019-02-20T09:51:25.000Z</time>
      </trkpt>
      <trkpt lat="45.3262" lon="4.60551">
        <ele>675</ele>
        <time>2019-02-20T09:51:26.000Z</time>
      </trkpt>
      <trkpt lat="45.32623" lon="4.60546">
        <ele>674.20001220703</ele>
        <time>2019-02-20T09:51:27.000Z</time>
      </trkpt>
      <trkpt lat="45.32627" lon="4.60543">
        <ele>673.20001220703</ele>
        <time>2019-02-20T09:51:28.000Z</time>
      </trkpt>
      <trkpt lat="45.32632" lon="4.60543">
        <ele>672.59997558594</ele>
        <time>2019-02-20T09:51:29.000Z</time>
      </trkpt>
      <trkpt lat="45.32637" lon="4.60544">
        <ele>671.79998779297</ele>
        <time>2019-02-20T09:51:30.000Z</time>
      </trkpt>
      <trkpt lat="45.32642" lon="4.60545">
        <ele>671</ele>
        <time>2019-02-20T09:51:31.000Z</time>
      </trkpt>
      <trkpt lat="45.32645" lon="4.60547">
        <ele>670.20001220703</ele>
        <time>2019-02-20T09:51:32.000Z</time>
      </trkpt>
      <trkpt lat="45.32648" lon="4.60549">
        <ele>669.59997558594</ele>
        <time>2019-02-20T09:51:33.000Z</time>
      </trkpt>
      <trkpt lat="45.32651" lon="4.60551">
        <ele>669</ele>
        <time>2019-02-20T09:51:34.000Z</time>
      </trkpt>
      <trkpt lat="45.32654" lon="4.60553">
        <ele>668.20001220703</ele>
        <time>2019-02-20T09:51:35.000Z</time>
      </trkpt>
      <trkpt lat="45.32657" lon="4.60555">
        <ele>667.40002441406</ele>
        <time>2019-02-20T09:51:36.000Z</time>
      </trkpt>
      <trkpt lat="45.3266" lon="4.60556">
        <ele>666.59997558594</ele>
        <time>2019-02-20T09:51:37.000Z</time>
      </trkpt>
      <trkpt lat="45.32663" lon="4.60557">
        <ele>666.20001220703</ele>
        <time>2019-02-20T09:51:38.000Z</time>
      </trkpt>
      <trkpt lat="45.32666" lon="4.60556">
        <ele>665.40002441406</ele>
        <time>2019-02-20T09:51:39.000Z</time>
      </trkpt>
      <trkpt lat="45.32669" lon="4.60556">
        <ele>665</ele>
        <time>2019-02-20T09:51:40.000Z</time>
      </trkpt>
      <trkpt lat="45.32672" lon="4.60556">
        <ele>664.59997558594</ele>
        <time>2019-02-20T09:51:41.000Z</time>
      </trkpt>
      <trkpt lat="45.32675" lon="4.60556">
        <ele>664.40002441406</ele>
        <time>2019-02-20T09:51:42.000Z</time>
      </trkpt>
      <trkpt lat="45.32678" lon="4.60555">
        <ele>664.40002441406</ele>
        <time>2019-02-20T09:51:43.000Z</time>
      </trkpt>
      <trkpt lat="45.32682" lon="4.60554">
        <ele>664.40002441406</ele>
        <time>2019-02-20T09:51:44.000Z</time>
      </trkpt>
      <trkpt lat="45.32686" lon="4.60554">
        <ele>664.40002441406</ele>
        <time>2019-02-20T09:51:45.000Z</time>
      </trkpt>
      <trkpt lat="45.3269" lon="4.60553">
        <ele>664.20001220703</ele>
        <time>2019-02-20T09:51:46.000Z</time>
      </trkpt>
      <trkpt lat="45.32694" lon="4.60552">
        <ele>664</ele>
        <time>2019-02-20T09:51:47.000Z</time>
      </trkpt>
      <trkpt lat="45.32699" lon="4.60552">
        <ele>664.20001220703</ele>
        <time>2019-02-20T09:51:48.000Z</time>
      </trkpt>
      <trkpt lat="45.32703" lon="4.60551">
        <ele>664</ele>
        <time>2019-02-20T09:51:49.000Z</time>
      </trkpt>
      <trkpt lat="45.32708" lon="4.60551">
        <ele>664</ele>
        <time>2019-02-20T09:51:50.000Z</time>
      </trkpt>
      <trkpt lat="45.32714" lon="4.60551">
        <ele>664</ele>
        <time>2019-02-20T09:51:51.000Z</time>
      </trkpt>
      <trkpt lat="45.32719" lon="4.60551">
        <ele>663.79998779297</ele>
        <time>2019-02-20T09:51:52.000Z</time>
      </trkpt>
      <trkpt lat="45.32726" lon="4.60552">
        <ele>663.79998779297</ele>
        <time>2019-02-20T09:51:53.000Z</time>
      </trkpt>
      <trkpt lat="45.32732" lon="4.60553">
        <ele>663.79998779297</ele>
        <time>2019-02-20T09:51:54.000Z</time>
      </trkpt>
      <trkpt lat="45.32739" lon="4.60555">
        <ele>663.79998779297</ele>
        <time>2019-02-20T09:51:55.000Z</time>
      </trkpt>
      <trkpt lat="45.32745" lon="4.60557">
        <ele>663.59997558594</ele>
        <time>2019-02-20T09:51:56.000Z</time>
      </trkpt>
      <trkpt lat="45.32751" lon="4.60559">
        <ele>663.40002441406</ele>
        <time>2019-02-20T09:51:57.000Z</time>
      </trkpt>
      <trkpt lat="45.32755" lon="4.6056">
        <ele>663</ele>
        <time>2019-02-20T09:51:58.000Z</time>
      </trkpt>
      <trkpt lat="45.32758" lon="4.60561">
        <ele>662.59997558594</ele>
        <time>2019-02-20T09:51:59.000Z</time>
      </trkpt>
      <trkpt lat="45.32759" lon="4.60561">
        <ele>662.20001220703</ele>
        <time>2019-02-20T09:52:00.000Z</time>
      </trkpt>
      <trkpt lat="45.3276" lon="4.60562">
        <ele>661.79998779297</ele>
        <time>2019-02-20T09:52:01.000Z</time>
      </trkpt>
      <trkpt lat="45.32761" lon="4.60563">
        <ele>661.20001220703</ele>
        <time>2019-02-20T09:52:02.000Z</time>
      </trkpt>
      <trkpt lat="45.32762" lon="4.60565">
        <ele>660.20001220703</ele>
        <time>2019-02-20T09:52:03.000Z</time>
      </trkpt>
      <trkpt lat="45.3276" lon="4.60566">
        <ele>659.59997558594</ele>
        <time>2019-02-20T09:52:04.000Z</time>
      </trkpt>
      <trkpt lat="45.32758" lon="4.60569">
        <ele>659.20001220703</ele>
        <time>2019-02-20T09:52:05.000Z</time>
      </trkpt>
      <trkpt lat="45.32755" lon="4.60572">
        <ele>658.79998779297</ele>
        <time>2019-02-20T09:52:06.000Z</time>
      </trkpt>
      <trkpt lat="45.32751" lon="4.60577">
        <ele>658.59997558594</ele>
        <time>2019-02-20T09:52:07.000Z</time>
      </trkpt>
      <trkpt lat="45.32747" lon="4.60584">
        <ele>658.59997558594</ele>
        <time>2019-02-20T09:52:08.000Z</time>
      </trkpt>
      <trkpt lat="45.32742" lon="4.6059">
        <ele>658.40002441406</ele>
        <time>2019-02-20T09:52:09.000Z</time>
      </trkpt>
      <trkpt lat="45.32736" lon="4.60595">
        <ele>658</ele>
        <time>2019-02-20T09:52:10.000Z</time>
      </trkpt>
      <trkpt lat="45.3273" lon="4.606">
        <ele>657.59997558594</ele>
        <time>2019-02-20T09:52:11.000Z</time>
      </trkpt>
      <trkpt lat="45.32724" lon="4.60605">
        <ele>657.59997558594</ele>
        <time>2019-02-20T09:52:12.000Z</time>
      </trkpt>
      <trkpt lat="45.32718" lon="4.60611">
        <ele>657.20001220703</ele>
        <time>2019-02-20T09:52:13.000Z</time>
      </trkpt>
      <trkpt lat="45.32712" lon="4.60618">
        <ele>656.40002441406</ele>
        <time>2019-02-20T09:52:14.000Z</time>
      </trkpt>
      <trkpt lat="45.32706" lon="4.60626">
        <ele>655.20001220703</ele>
        <time>2019-02-20T09:52:15.000Z</time>
      </trkpt>
      <trkpt lat="45.327" lon="4.60634">
        <ele>654.20001220703</ele>
        <time>2019-02-20T09:52:16.000Z</time>
      </trkpt>
      <trkpt lat="45.32696" lon="4.6064">
        <ele>653</ele>
        <time>2019-02-20T09:52:17.000Z</time>
      </trkpt>
      <trkpt lat="45.32693" lon="4.60647">
        <ele>652.20001220703</ele>
        <time>2019-02-20T09:52:18.000Z</time>
      </trkpt>
      <trkpt lat="45.32693" lon="4.60653">
        <ele>651.59997558594</ele>
        <time>2019-02-20T09:52:19.000Z</time>
      </trkpt>
      <trkpt lat="45.32695" lon="4.6066">
        <ele>651.40002441406</ele>
        <time>2019-02-20T09:52:20.000Z</time>
      </trkpt>
      <trkpt lat="45.32699" lon="4.60667">
        <ele>650</ele>
        <time>2019-02-20T09:52:21.000Z</time>
      </trkpt>
      <trkpt lat="45.32702" lon="4.60676">
        <ele>647.20001220703</ele>
        <time>2019-02-20T09:52:22.000Z</time>
      </trkpt>
      <trkpt lat="45.32705" lon="4.60686">
        <ele>644.59997558594</ele>
        <time>2019-02-20T09:52:23.000Z</time>
      </trkpt>
      <trkpt lat="45.32707" lon="4.60696">
        <ele>642.79998779297</ele>
        <time>2019-02-20T09:52:24.000Z</time>
      </trkpt>
      <trkpt lat="45.32709" lon="4.60705">
        <ele>641.79998779297</ele>
        <time>2019-02-20T09:52:25.000Z</time>
      </trkpt>
      <trkpt lat="45.3271" lon="4.60713">
        <ele>641.20001220703</ele>
        <time>2019-02-20T09:52:26.000Z</time>
      </trkpt>
      <trkpt lat="45.32711" lon="4.6072">
        <ele>640.59997558594</ele>
        <time>2019-02-20T09:52:27.000Z</time>
      </trkpt>
      <trkpt lat="45.32711" lon="4.60726">
        <ele>640</ele>
        <time>2019-02-20T09:52:28.000Z</time>
      </trkpt>
      <trkpt lat="45.3271" lon="4.60729">
        <ele>639</ele>
        <time>2019-02-20T09:52:29.000Z</time>
      </trkpt>
      <trkpt lat="45.32709" lon="4.60731">
        <ele>636.40002441406</ele>
        <time>2019-02-20T09:52:30.000Z</time>
      </trkpt>
      <trkpt lat="45.32708" lon="4.60733">
        <ele>634.79998779297</ele>
        <time>2019-02-20T09:52:31.000Z</time>
      </trkpt>
      <trkpt lat="45.32706" lon="4.60736">
        <ele>634</ele>
        <time>2019-02-20T09:52:32.000Z</time>
      </trkpt>
      <trkpt lat="45.32704" lon="4.6074">
        <ele>633</ele>
        <time>2019-02-20T09:52:33.000Z</time>
      </trkpt>
      <trkpt lat="45.32701" lon="4.60744">
        <ele>632.79998779297</ele>
        <time>2019-02-20T09:52:34.000Z</time>
      </trkpt>
      <trkpt lat="45.32698" lon="4.60748">
        <ele>631.40002441406</ele>
        <time>2019-02-20T09:52:35.000Z</time>
      </trkpt>
      <trkpt lat="45.32695" lon="4.60752">
        <ele>629.40002441406</ele>
        <time>2019-02-20T09:52:36.000Z</time>
      </trkpt>
      <trkpt lat="45.32692" lon="4.60756">
        <ele>628.79998779297</ele>
        <time>2019-02-20T09:52:37.000Z</time>
      </trkpt>
      <trkpt lat="45.32689" lon="4.60759">
        <ele>628.59997558594</ele>
        <time>2019-02-20T09:52:38.000Z</time>
      </trkpt>
      <trkpt lat="45.32687" lon="4.60762">
        <ele>628.40002441406</ele>
        <time>2019-02-20T09:52:39.000Z</time>
      </trkpt>
      <trkpt lat="45.32685" lon="4.60766">
        <ele>628.20001220703</ele>
        <time>2019-02-20T09:52:40.000Z</time>
      </trkpt>
      <trkpt lat="45.32682" lon="4.60768">
        <ele>628</ele>
        <time>2019-02-20T09:52:41.000Z</time>
      </trkpt>
      <trkpt lat="45.3268" lon="4.60771">
        <ele>628.20001220703</ele>
        <time>2019-02-20T09:52:42.000Z</time>
      </trkpt>
      <trkpt lat="45.32677" lon="4.60774">
        <ele>628</ele>
        <time>2019-02-20T09:52:43.000Z</time>
      </trkpt>
      <trkpt lat="45.32675" lon="4.60776">
        <ele>628</ele>
        <time>2019-02-20T09:52:44.000Z</time>
      </trkpt>
      <trkpt lat="45.32672" lon="4.60778">
        <ele>628</ele>
        <time>2019-02-20T09:52:45.000Z</time>
      </trkpt>
      <trkpt lat="45.3267" lon="4.6078">
        <ele>627.79998779297</ele>
        <time>2019-02-20T09:52:46.000Z</time>
      </trkpt>
      <trkpt lat="45.32667" lon="4.60783">
        <ele>627.79998779297</ele>
        <time>2019-02-20T09:52:47.000Z</time>
      </trkpt>
      <trkpt lat="45.32665" lon="4.60786">
        <ele>627.79998779297</ele>
        <time>2019-02-20T09:52:48.000Z</time>
      </trkpt>
      <trkpt lat="45.32663" lon="4.60789">
        <ele>627.79998779297</ele>
        <time>2019-02-20T09:52:49.000Z</time>
      </trkpt>
      <trkpt lat="45.32661" lon="4.60792">
        <ele>627.79998779297</ele>
        <time>2019-02-20T09:52:50.000Z</time>
      </trkpt>
      <trkpt lat="45.32659" lon="4.60795">
        <ele>627.79998779297</ele>
        <time>2019-02-20T09:52:51.000Z</time>
      </trkpt>
      <trkpt lat="45.32657" lon="4.60799">
        <ele>627.79998779297</ele>
        <time>2019-02-20T09:52:52.000Z</time>
      </trkpt>
      <trkpt lat="45.32655" lon="4.60802">
        <ele>628</ele>
        <time>2019-02-20T09:52:53.000Z</time>
      </trkpt>
      <trkpt lat="45.32653" lon="4.60806">
        <ele>628</ele>
        <time>2019-02-20T09:52:54.000Z</time>
      </trkpt>
      <trkpt lat="45.32651" lon="4.60809">
        <ele>628</ele>
        <time>2019-02-20T09:52:55.000Z</time>
      </trkpt>
      <trkpt lat="45.3265" lon="4.60813">
        <ele>628</ele>
        <time>2019-02-20T09:52:56.000Z</time>
      </trkpt>
      <trkpt lat="45.32648" lon="4.60817">
        <ele>628</ele>
        <time>2019-02-20T09:52:57.000Z</time>
      </trkpt>
      <trkpt lat="45.32646" lon="4.60821">
        <ele>628</ele>
        <time>2019-02-20T09:52:58.000Z</time>
      </trkpt>
      <trkpt lat="45.32645" lon="4.60826">
        <ele>628</ele>
        <time>2019-02-20T09:52:59.000Z</time>
      </trkpt>
      <trkpt lat="45.32643" lon="4.60831">
        <ele>628</ele>
        <time>2019-02-20T09:53:00.000Z</time>
      </trkpt>
      <trkpt lat="45.32641" lon="4.60836">
        <ele>628</ele>
        <time>2019-02-20T09:53:01.000Z</time>
      </trkpt>
      <trkpt lat="45.3264" lon="4.60841">
        <ele>628</ele>
        <time>2019-02-20T09:53:02.000Z</time>
      </trkpt>
      <trkpt lat="45.32638" lon="4.60846">
        <ele>628</ele>
        <time>2019-02-20T09:53:03.000Z</time>
      </trkpt>
      <trkpt lat="45.32636" lon="4.60851">
        <ele>628</ele>
        <time>2019-02-20T09:53:04.000Z</time>
      </trkpt>
      <trkpt lat="45.32635" lon="4.60856">
        <ele>627.79998779297</ele>
        <time>2019-02-20T09:53:05.000Z</time>
      </trkpt>
      <trkpt lat="45.32634" lon="4.60861">
        <ele>627.59997558594</ele>
        <time>2019-02-20T09:53:06.000Z</time>
      </trkpt>
      <trkpt lat="45.32633" lon="4.60867">
        <ele>627.20001220703</ele>
        <time>2019-02-20T09:53:07.000Z</time>
      </trkpt>
      <trkpt lat="45.32631" lon="4.60872">
        <ele>627.20001220703</ele>
        <time>2019-02-20T09:53:08.000Z</time>
      </trkpt>
      <trkpt lat="45.3263" lon="4.60878">
        <ele>627.20001220703</ele>
        <time>2019-02-20T09:53:09.000Z</time>
      </trkpt>
      <trkpt lat="45.32629" lon="4.60884">
        <ele>627</ele>
        <time>2019-02-20T09:53:10.000Z</time>
      </trkpt>
      <trkpt lat="45.32627" lon="4.60891">
        <ele>627</ele>
        <time>2019-02-20T09:53:11.000Z</time>
      </trkpt>
      <trkpt lat="45.32625" lon="4.60898">
        <ele>626.79998779297</ele>
        <time>2019-02-20T09:53:12.000Z</time>
      </trkpt>
      <trkpt lat="45.32622" lon="4.60905">
        <ele>626.79998779297</ele>
        <time>2019-02-20T09:53:13.000Z</time>
      </trkpt>
      <trkpt lat="45.32619" lon="4.60912">
        <ele>626.79998779297</ele>
        <time>2019-02-20T09:53:14.000Z</time>
      </trkpt>
      <trkpt lat="45.32615" lon="4.60919">
        <ele>626.59997558594</ele>
        <time>2019-02-20T09:53:15.000Z</time>
      </trkpt>
      <trkpt lat="45.3261" lon="4.60925">
        <ele>626.40002441406</ele>
        <time>2019-02-20T09:53:16.000Z</time>
      </trkpt>
      <trkpt lat="45.32605" lon="4.60931">
        <ele>626.40002441406</ele>
        <time>2019-02-20T09:53:17.000Z</time>
      </trkpt>
      <trkpt lat="45.326" lon="4.60936">
        <ele>626</ele>
        <time>2019-02-20T09:53:18.000Z</time>
      </trkpt>
      <trkpt lat="45.32594" lon="4.6094">
        <ele>626</ele>
        <time>2019-02-20T09:53:19.000Z</time>
      </trkpt>
      <trkpt lat="45.32589" lon="4.60943">
        <ele>625.20001220703</ele>
        <time>2019-02-20T09:53:20.000Z</time>
      </trkpt>
      <trkpt lat="45.32583" lon="4.60945">
        <ele>625</ele>
        <time>2019-02-20T09:53:21.000Z</time>
      </trkpt>
      <trkpt lat="45.32577" lon="4.60947">
        <ele>624.40002441406</ele>
        <time>2019-02-20T09:53:22.000Z</time>
      </trkpt>
      <trkpt lat="45.32572" lon="4.60949">
        <ele>623.79998779297</ele>
        <time>2019-02-20T09:53:23.000Z</time>
      </trkpt>
      <trkpt lat="45.32566" lon="4.60951">
        <ele>623</ele>
        <time>2019-02-20T09:53:24.000Z</time>
      </trkpt>
      <trkpt lat="45.3256" lon="4.60954">
        <ele>622.20001220703</ele>
        <time>2019-02-20T09:53:25.000Z</time>
      </trkpt>
      <trkpt lat="45.32555" lon="4.60959">
        <ele>621.59997558594</ele>
        <time>2019-02-20T09:53:26.000Z</time>
      </trkpt>
      <trkpt lat="45.3255" lon="4.60966">
        <ele>621</ele>
        <time>2019-02-20T09:53:27.000Z</time>
      </trkpt>
      <trkpt lat="45.32546" lon="4.60973">
        <ele>620.20001220703</ele>
        <time>2019-02-20T09:53:28.000Z</time>
      </trkpt>
      <trkpt lat="45.32542" lon="4.60981">
        <ele>619.79998779297</ele>
        <time>2019-02-20T09:53:29.000Z</time>
      </trkpt>
      <trkpt lat="45.32539" lon="4.60989">
        <ele>619.59997558594</ele>
        <time>2019-02-20T09:53:30.000Z</time>
      </trkpt>
      <trkpt lat="45.32537" lon="4.60997">
        <ele>619.40002441406</ele>
        <time>2019-02-20T09:53:31.000Z</time>
      </trkpt>
      <trkpt lat="45.32535" lon="4.61005">
        <ele>618.59997558594</ele>
        <time>2019-02-20T09:53:32.000Z</time>
      </trkpt>
      <trkpt lat="45.32533" lon="4.61011">
        <ele>618</ele>
        <time>2019-02-20T09:53:33.000Z</time>
      </trkpt>
      <trkpt lat="45.32531" lon="4.61016">
        <ele>617.40002441406</ele>
        <time>2019-02-20T09:53:34.000Z</time>
      </trkpt>
      <trkpt lat="45.3253" lon="4.6102">
        <ele>616.40002441406</ele>
        <time>2019-02-20T09:53:35.000Z</time>
      </trkpt>
      <trkpt lat="45.3253" lon="4.61022">
        <ele>615.59997558594</ele>
        <time>2019-02-20T09:53:36.000Z</time>
      </trkpt>
      <trkpt lat="45.3253" lon="4.61024">
        <ele>614.79998779297</ele>
        <time>2019-02-20T09:53:37.000Z</time>
      </trkpt>
      <trkpt lat="45.32531" lon="4.61026">
        <ele>614</ele>
        <time>2019-02-20T09:53:38.000Z</time>
      </trkpt>
      <trkpt lat="45.32533" lon="4.61027">
        <ele>613.40002441406</ele>
        <time>2019-02-20T09:53:39.000Z</time>
      </trkpt>
      <trkpt lat="45.32536" lon="4.61028">
        <ele>613</ele>
        <time>2019-02-20T09:53:40.000Z</time>
      </trkpt>
      <trkpt lat="45.32538" lon="4.61029">
        <ele>612.79998779297</ele>
        <time>2019-02-20T09:53:41.000Z</time>
      </trkpt>
      <trkpt lat="45.32541" lon="4.61029">
        <ele>612.59997558594</ele>
        <time>2019-02-20T09:53:42.000Z</time>
      </trkpt>
      <trkpt lat="45.32545" lon="4.61029">
        <ele>612.40002441406</ele>
        <time>2019-02-20T09:53:43.000Z</time>
      </trkpt>
      <trkpt lat="45.32548" lon="4.6103">
        <ele>612.40002441406</ele>
        <time>2019-02-20T09:53:44.000Z</time>
      </trkpt>
      <trkpt lat="45.32552" lon="4.6103">
        <ele>612.40002441406</ele>
        <time>2019-02-20T09:53:45.000Z</time>
      </trkpt>
      <trkpt lat="45.32556" lon="4.6103">
        <ele>612.40002441406</ele>
        <time>2019-02-20T09:53:46.000Z</time>
      </trkpt>
      <trkpt lat="45.32559" lon="4.6103">
        <ele>612.40002441406</ele>
        <time>2019-02-20T09:53:47.000Z</time>
      </trkpt>
      <trkpt lat="45.32563" lon="4.6103">
        <ele>612.40002441406</ele>
        <time>2019-02-20T09:53:48.000Z</time>
      </trkpt>
      <trkpt lat="45.32566" lon="4.6103">
        <ele>612.40002441406</ele>
        <time>2019-02-20T09:53:49.000Z</time>
      </trkpt>
      <trkpt lat="45.3257" lon="4.61031">
        <ele>612.20001220703</ele>
        <time>2019-02-20T09:53:50.000Z</time>
      </trkpt>
      <trkpt lat="45.32573" lon="4.61031">
        <ele>612.20001220703</ele>
        <time>2019-02-20T09:53:51.000Z</time>
      </trkpt>
      <trkpt lat="45.32577" lon="4.61032">
        <ele>612</ele>
        <time>2019-02-20T09:53:52.000Z</time>
      </trkpt>
      <trkpt lat="45.32581" lon="4.61033">
        <ele>612</ele>
        <time>2019-02-20T09:53:53.000Z</time>
      </trkpt>
      <trkpt lat="45.32584" lon="4.61035">
        <ele>611.59997558594</ele>
        <time>2019-02-20T09:53:54.000Z</time>
      </trkpt>
      <trkpt lat="45.32587" lon="4.61038">
        <ele>611.40002441406</ele>
        <time>2019-02-20T09:53:55.000Z</time>
      </trkpt>
      <trkpt lat="45.3259" lon="4.61041">
        <ele>611.40002441406</ele>
        <time>2019-02-20T09:53:56.000Z</time>
      </trkpt>
      <trkpt lat="45.32592" lon="4.61045">
        <ele>611.20001220703</ele>
        <time>2019-02-20T09:53:57.000Z</time>
      </trkpt>
      <trkpt lat="45.32594" lon="4.61049">
        <ele>611.40002441406</ele>
        <time>2019-02-20T09:53:58.000Z</time>
      </trkpt>
      <trkpt lat="45.32596" lon="4.61054">
        <ele>611.20001220703</ele>
        <time>2019-02-20T09:53:59.000Z</time>
      </trkpt>
      <trkpt lat="45.32598" lon="4.61059">
        <ele>611</ele>
        <time>2019-02-20T09:54:00.000Z</time>
      </trkpt>
      <trkpt lat="45.32599" lon="4.61063">
        <ele>611</ele>
        <time>2019-02-20T09:54:01.000Z</time>
      </trkpt>
      <trkpt lat="45.326" lon="4.61067">
        <ele>611</ele>
        <time>2019-02-20T09:54:02.000Z</time>
      </trkpt>
      <trkpt lat="45.32602" lon="4.61071">
        <ele>611</ele>
        <time>2019-02-20T09:54:03.000Z</time>
      </trkpt>
      <trkpt lat="45.32603" lon="4.61075">
        <ele>611</ele>
        <time>2019-02-20T09:54:04.000Z</time>
      </trkpt>
      <trkpt lat="45.32605" lon="4.61079">
        <ele>610.59997558594</ele>
        <time>2019-02-20T09:54:05.000Z</time>
      </trkpt>
      <trkpt lat="45.32607" lon="4.61083">
        <ele>610.59997558594</ele>
        <time>2019-02-20T09:54:06.000Z</time>
      </trkpt>
      <trkpt lat="45.32608" lon="4.61087">
        <ele>610.59997558594</ele>
        <time>2019-02-20T09:54:07.000Z</time>
      </trkpt>
      <trkpt lat="45.3261" lon="4.61091">
        <ele>610.59997558594</ele>
        <time>2019-02-20T09:54:08.000Z</time>
      </trkpt>
      <trkpt lat="45.32611" lon="4.61095">
        <ele>610.79998779297</ele>
        <time>2019-02-20T09:54:09.000Z</time>
      </trkpt>
      <trkpt lat="45.32613" lon="4.61099">
        <ele>610.59997558594</ele>
        <time>2019-02-20T09:54:10.000Z</time>
      </trkpt>
      <trkpt lat="45.32614" lon="4.61102">
        <ele>610.59997558594</ele>
        <time>2019-02-20T09:54:11.000Z</time>
      </trkpt>
      <trkpt lat="45.32616" lon="4.61106">
        <ele>610.59997558594</ele>
        <time>2019-02-20T09:54:12.000Z</time>
      </trkpt>
      <trkpt lat="45.32617" lon="4.61109">
        <ele>610.59997558594</ele>
        <time>2019-02-20T09:54:13.000Z</time>
      </trkpt>
      <trkpt lat="45.32619" lon="4.61112">
        <ele>610.59997558594</ele>
        <time>2019-02-20T09:54:14.000Z</time>
      </trkpt>
      <trkpt lat="45.3262" lon="4.61115">
        <ele>610.59997558594</ele>
        <time>2019-02-20T09:54:15.000Z</time>
      </trkpt>
      <trkpt lat="45.32621" lon="4.61117">
        <ele>610.59997558594</ele>
        <time>2019-02-20T09:54:16.000Z</time>
      </trkpt>
      <trkpt lat="45.32622" lon="4.6112">
        <ele>610.79998779297</ele>
        <time>2019-02-20T09:54:17.000Z</time>
      </trkpt>
      <trkpt lat="45.32623" lon="4.61122">
        <ele>611.20001220703</ele>
        <time>2019-02-20T09:54:18.000Z</time>
      </trkpt>
      <trkpt lat="45.32624" lon="4.61125">
        <ele>611.20001220703</ele>
        <time>2019-02-20T09:54:19.000Z</time>
      </trkpt>
      <trkpt lat="45.32625" lon="4.61127">
        <ele>611.40002441406</ele>
        <time>2019-02-20T09:54:20.000Z</time>
      </trkpt>
      <trkpt lat="45.32627" lon="4.61128">
        <ele>611.79998779297</ele>
        <time>2019-02-20T09:54:21.000Z</time>
      </trkpt>
      <trkpt lat="45.32628" lon="4.6113">
        <ele>612</ele>
        <time>2019-02-20T09:54:22.000Z</time>
      </trkpt>
      <trkpt lat="45.32629" lon="4.61132">
        <ele>612.20001220703</ele>
        <time>2019-02-20T09:54:23.000Z</time>
      </trkpt>
      <trkpt lat="45.3263" lon="4.61134">
        <ele>612.40002441406</ele>
        <time>2019-02-20T09:54:24.000Z</time>
      </trkpt>
      <trkpt lat="45.3263" lon="4.61136">
        <ele>612.59997558594</ele>
        <time>2019-02-20T09:54:25.000Z</time>
      </trkpt>
      <trkpt lat="45.32631" lon="4.61138">
        <ele>612.59997558594</ele>
        <time>2019-02-20T09:54:26.000Z</time>
      </trkpt>
      <trkpt lat="45.32631" lon="4.6114">
        <ele>613</ele>
        <time>2019-02-20T09:54:27.000Z</time>
      </trkpt>
      <trkpt lat="45.32632" lon="4.61141">
        <ele>613.20001220703</ele>
        <time>2019-02-20T09:54:28.000Z</time>
      </trkpt>
      <trkpt lat="45.32632" lon="4.61143">
        <ele>613.20001220703</ele>
        <time>2019-02-20T09:54:29.000Z</time>
      </trkpt>
      <trkpt lat="45.32633" lon="4.61144">
        <ele>613.40002441406</ele>
        <time>2019-02-20T09:54:30.000Z</time>
      </trkpt>
      <trkpt lat="45.32634" lon="4.61146">
        <ele>614</ele>
        <time>2019-02-20T09:54:31.000Z</time>
      </trkpt>
      <trkpt lat="45.32635" lon="4.61147">
        <ele>614</ele>
        <time>2019-02-20T09:54:32.000Z</time>
      </trkpt>
      <trkpt lat="45.32636" lon="4.61149">
        <ele>614.20001220703</ele>
        <time>2019-02-20T09:54:33.000Z</time>
      </trkpt>
      <trkpt lat="45.32637" lon="4.6115">
        <ele>614.40002441406</ele>
        <time>2019-02-20T09:54:34.000Z</time>
      </trkpt>
      <trkpt lat="45.32638" lon="4.61151">
        <ele>614.59997558594</ele>
        <time>2019-02-20T09:54:35.000Z</time>
      </trkpt>
      <trkpt lat="45.32638" lon="4.61152">
        <ele>614.79998779297</ele>
        <time>2019-02-20T09:54:36.000Z</time>
      </trkpt>
      <trkpt lat="45.32639" lon="4.61153">
        <ele>615.20001220703</ele>
        <time>2019-02-20T09:54:37.000Z</time>
      </trkpt>
      <trkpt lat="45.3264" lon="4.61154">
        <ele>615.59997558594</ele>
        <time>2019-02-20T09:54:38.000Z</time>
      </trkpt>
      <trkpt lat="45.32641" lon="4.61156">
        <ele>615.59997558594</ele>
        <time>2019-02-20T09:54:39.000Z</time>
      </trkpt>
      <trkpt lat="45.32642" lon="4.61157">
        <ele>616</ele>
        <time>2019-02-20T09:54:40.000Z</time>
      </trkpt>
      <trkpt lat="45.32643" lon="4.61158">
        <ele>616.20001220703</ele>
        <time>2019-02-20T09:54:41.000Z</time>
      </trkpt>
      <trkpt lat="45.32644" lon="4.61159">
        <ele>616.59997558594</ele>
        <time>2019-02-20T09:54:42.000Z</time>
      </trkpt>
      <trkpt lat="45.32646" lon="4.61159">
        <ele>616.79998779297</ele>
        <time>2019-02-20T09:54:43.000Z</time>
      </trkpt>
      <trkpt lat="45.32647" lon="4.61159">
        <ele>617.40002441406</ele>
        <time>2019-02-20T09:54:44.000Z</time>
      </trkpt>
      <trkpt lat="45.32648" lon="4.6116">
        <ele>617.59997558594</ele>
        <time>2019-02-20T09:54:45.000Z</time>
      </trkpt>
      <trkpt lat="45.32649" lon="4.6116">
        <ele>617.79998779297</ele>
        <time>2019-02-20T09:54:46.000Z</time>
      </trkpt>
      <trkpt lat="45.3265" lon="4.6116">
        <ele>618</ele>
        <time>2019-02-20T09:54:47.000Z</time>
      </trkpt>
      <trkpt lat="45.32651" lon="4.6116">
        <ele>618.40002441406</ele>
        <time>2019-02-20T09:54:48.000Z</time>
      </trkpt>
      <trkpt lat="45.32652" lon="4.61161">
        <ele>618.79998779297</ele>
        <time>2019-02-20T09:54:49.000Z</time>
      </trkpt>
      <trkpt lat="45.32653" lon="4.61161">
        <ele>619</ele>
        <time>2019-02-20T09:54:50.000Z</time>
      </trkpt>
      <trkpt lat="45.32655" lon="4.61161">
        <ele>619.40002441406</ele>
        <time>2019-02-20T09:54:51.000Z</time>
      </trkpt>
      <trkpt lat="45.32656" lon="4.61161">
        <ele>619.59997558594</ele>
        <time>2019-02-20T09:54:52.000Z</time>
      </trkpt>
      <trkpt lat="45.32657" lon="4.6116">
        <ele>619.79998779297</ele>
        <time>2019-02-20T09:54:53.000Z</time>
      </trkpt>
      <trkpt lat="45.32659" lon="4.6116">
        <ele>619.79998779297</ele>
        <time>2019-02-20T09:54:54.000Z</time>
      </trkpt>
      <trkpt lat="45.3266" lon="4.6116">
        <ele>620</ele>
        <time>2019-02-20T09:54:55.000Z</time>
      </trkpt>
      <trkpt lat="45.32661" lon="4.6116">
        <ele>620.40002441406</ele>
        <time>2019-02-20T09:54:56.000Z</time>
      </trkpt>
      <trkpt lat="45.32663" lon="4.61159">
        <ele>620.59997558594</ele>
        <time>2019-02-20T09:54:57.000Z</time>
      </trkpt>
      <trkpt lat="45.32664" lon="4.61159">
        <ele>620.79998779297</ele>
        <time>2019-02-20T09:54:58.000Z</time>
      </trkpt>
      <trkpt lat="45.32665" lon="4.61158">
        <ele>621</ele>
        <time>2019-02-20T09:54:59.000Z</time>
      </trkpt>
      <trkpt lat="45.32667" lon="4.61158">
        <ele>621.59997558594</ele>
        <time>2019-02-20T09:55:00.000Z</time>
      </trkpt>
      <trkpt lat="45.32668" lon="4.61158">
        <ele>621.59997558594</ele>
        <time>2019-02-20T09:55:01.000Z</time>
      </trkpt>
      <trkpt lat="45.32669" lon="4.61159">
        <ele>621.79998779297</ele>
        <time>2019-02-20T09:55:02.000Z</time>
      </trkpt>
      <trkpt lat="45.3267" lon="4.6116">
        <ele>622</ele>
        <time>2019-02-20T09:55:03.000Z</time>
      </trkpt>
      <trkpt lat="45.3267" lon="4.61162">
        <ele>622.20001220703</ele>
        <time>2019-02-20T09:55:04.000Z</time>
      </trkpt>
      <trkpt lat="45.32669" lon="4.61164">
        <ele>622.40002441406</ele>
        <time>2019-02-20T09:55:05.000Z</time>
      </trkpt>
      <trkpt lat="45.32669" lon="4.61165">
        <ele>622.79998779297</ele>
        <time>2019-02-20T09:55:06.000Z</time>
      </trkpt>
      <trkpt lat="45.32668" lon="4.61166">
        <ele>623.20001220703</ele>
        <time>2019-02-20T09:55:07.000Z</time>
      </trkpt>
      <trkpt lat="45.32666" lon="4.61167">
        <ele>623.20001220703</ele>
        <time>2019-02-20T09:55:08.000Z</time>
      </trkpt>
      <trkpt lat="45.32665" lon="4.61168">
        <ele>623.40002441406</ele>
        <time>2019-02-20T09:55:09.000Z</time>
      </trkpt>
      <trkpt lat="45.32663" lon="4.61169">
        <ele>624</ele>
        <time>2019-02-20T09:55:10.000Z</time>
      </trkpt>
      <trkpt lat="45.32662" lon="4.6117">
        <ele>623.79998779297</ele>
        <time>2019-02-20T09:55:11.000Z</time>
      </trkpt>
      <trkpt lat="45.32661" lon="4.61171">
        <ele>624.20001220703</ele>
        <time>2019-02-20T09:55:12.000Z</time>
      </trkpt>
      <trkpt lat="45.3266" lon="4.61172">
        <ele>624.20001220703</ele>
        <time>2019-02-20T09:55:13.000Z</time>
      </trkpt>
      <trkpt lat="45.3266" lon="4.61173">
        <ele>624.40002441406</ele>
        <time>2019-02-20T09:55:14.000Z</time>
      </trkpt>
      <trkpt lat="45.32659" lon="4.61175">
        <ele>624.59997558594</ele>
        <time>2019-02-20T09:55:15.000Z</time>
      </trkpt>
      <trkpt lat="45.32659" lon="4.61176">
        <ele>624.79998779297</ele>
        <time>2019-02-20T09:55:16.000Z</time>
      </trkpt>
      <trkpt lat="45.32658" lon="4.61178">
        <ele>625</ele>
        <time>2019-02-20T09:55:17.000Z</time>
      </trkpt>
      <trkpt lat="45.32657" lon="4.6118">
        <ele>625.40002441406</ele>
        <time>2019-02-20T09:55:18.000Z</time>
      </trkpt>
      <trkpt lat="45.32657" lon="4.61181">
        <ele>625.40002441406</ele>
        <time>2019-02-20T09:55:19.000Z</time>
      </trkpt>
      <trkpt lat="45.32657" lon="4.61183">
        <ele>625.79998779297</ele>
        <time>2019-02-20T09:55:20.000Z</time>
      </trkpt>
      <trkpt lat="45.32656" lon="4.61184">
        <ele>626</ele>
        <time>2019-02-20T09:55:21.000Z</time>
      </trkpt>
      <trkpt lat="45.32656" lon="4.61186">
        <ele>626.20001220703</ele>
        <time>2019-02-20T09:55:22.000Z</time>
      </trkpt>
      <trkpt lat="45.32656" lon="4.61188">
        <ele>626.40002441406</ele>
        <time>2019-02-20T09:55:23.000Z</time>
      </trkpt>
      <trkpt lat="45.32656" lon="4.61189">
        <ele>626.40002441406</ele>
        <time>2019-02-20T09:55:24.000Z</time>
      </trkpt>
      <trkpt lat="45.32656" lon="4.6119">
        <ele>626.79998779297</ele>
        <time>2019-02-20T09:55:25.000Z</time>
      </trkpt>
      <trkpt lat="45.32655" lon="4.61192">
        <ele>627</ele>
        <time>2019-02-20T09:55:26.000Z</time>
      </trkpt>
      <trkpt lat="45.32655" lon="4.61193">
        <ele>627.59997558594</ele>
        <time>2019-02-20T09:55:27.000Z</time>
      </trkpt>
      <trkpt lat="45.32654" lon="4.61195">
        <ele>627.79998779297</ele>
        <time>2019-02-20T09:55:28.000Z</time>
      </trkpt>
      <trkpt lat="45.32654" lon="4.61197">
        <ele>628</ele>
        <time>2019-02-20T09:55:29.000Z</time>
      </trkpt>
      <trkpt lat="45.32653" lon="4.61198">
        <ele>628</ele>
        <time>2019-02-20T09:55:30.000Z</time>
      </trkpt>
      <trkpt lat="45.32653" lon="4.612">
        <ele>628</ele>
        <time>2019-02-20T09:55:31.000Z</time>
      </trkpt>
      <trkpt lat="45.32653" lon="4.61202">
        <ele>628.40002441406</ele>
        <time>2019-02-20T09:55:32.000Z</time>
      </trkpt>
      <trkpt lat="45.32652" lon="4.61204">
        <ele>628.59997558594</ele>
        <time>2019-02-20T09:55:33.000Z</time>
      </trkpt>
      <trkpt lat="45.32652" lon="4.61205">
        <ele>628.79998779297</ele>
        <time>2019-02-20T09:55:34.000Z</time>
      </trkpt>
      <trkpt lat="45.32652" lon="4.61207">
        <ele>629</ele>
        <time>2019-02-20T09:55:35.000Z</time>
      </trkpt>
      <trkpt lat="45.32652" lon="4.61209">
        <ele>629.20001220703</ele>
        <time>2019-02-20T09:55:36.000Z</time>
      </trkpt>
      <trkpt lat="45.32652" lon="4.61212">
        <ele>629.20001220703</ele>
        <time>2019-02-20T09:55:37.000Z</time>
      </trkpt>
      <trkpt lat="45.32651" lon="4.61214">
        <ele>629.40002441406</ele>
        <time>2019-02-20T09:55:38.000Z</time>
      </trkpt>
      <trkpt lat="45.3265" lon="4.61216">
        <ele>629.40002441406</ele>
        <time>2019-02-20T09:55:39.000Z</time>
      </trkpt>
      <trkpt lat="45.32649" lon="4.61218">
        <ele>629.59997558594</ele>
        <time>2019-02-20T09:55:40.000Z</time>
      </trkpt>
      <trkpt lat="45.32649" lon="4.6122">
        <ele>630</ele>
        <time>2019-02-20T09:55:41.000Z</time>
      </trkpt>
      <trkpt lat="45.32648" lon="4.61222">
        <ele>630.40002441406</ele>
        <time>2019-02-20T09:55:42.000Z</time>
      </trkpt>
      <trkpt lat="45.32647" lon="4.61224">
        <ele>630.40002441406</ele>
        <time>2019-02-20T09:55:43.000Z</time>
      </trkpt>
      <trkpt lat="45.32647" lon="4.61226">
        <ele>630.59997558594</ele>
        <time>2019-02-20T09:55:44.000Z</time>
      </trkpt>
      <trkpt lat="45.32647" lon="4.61228">
        <ele>631.20001220703</ele>
        <time>2019-02-20T09:55:45.000Z</time>
      </trkpt>
      <trkpt lat="45.32647" lon="4.6123">
        <ele>631.40002441406</ele>
        <time>2019-02-20T09:55:46.000Z</time>
      </trkpt>
      <trkpt lat="45.32647" lon="4.61232">
        <ele>631.79998779297</ele>
        <time>2019-02-20T09:55:47.000Z</time>
      </trkpt>
      <trkpt lat="45.32647" lon="4.61234">
        <ele>632</ele>
        <time>2019-02-20T09:55:48.000Z</time>
      </trkpt>
      <trkpt lat="45.32647" lon="4.61236">
        <ele>632</ele>
        <time>2019-02-20T09:55:49.000Z</time>
      </trkpt>
      <trkpt lat="45.32648" lon="4.61237">
        <ele>632.20001220703</ele>
        <time>2019-02-20T09:55:50.000Z</time>
      </trkpt>
      <trkpt lat="45.32648" lon="4.61239">
        <ele>632.59997558594</ele>
        <time>2019-02-20T09:55:51.000Z</time>
      </trkpt>
      <trkpt lat="45.32648" lon="4.61241">
        <ele>632.59997558594</ele>
        <time>2019-02-20T09:55:52.000Z</time>
      </trkpt>
      <trkpt lat="45.32649" lon="4.61243">
        <ele>632.79998779297</ele>
        <time>2019-02-20T09:55:53.000Z</time>
      </trkpt>
      <trkpt lat="45.32649" lon="4.61245">
        <ele>633.20001220703</ele>
        <time>2019-02-20T09:55:54.000Z</time>
      </trkpt>
      <trkpt lat="45.32649" lon="4.61247">
        <ele>633.40002441406</ele>
        <time>2019-02-20T09:55:55.000Z</time>
      </trkpt>
      <trkpt lat="45.32649" lon="4.61249">
        <ele>633.59997558594</ele>
        <time>2019-02-20T09:55:56.000Z</time>
      </trkpt>
      <trkpt lat="45.32649" lon="4.6125">
        <ele>633.79998779297</ele>
        <time>2019-02-20T09:55:57.000Z</time>
      </trkpt>
      <trkpt lat="45.32649" lon="4.61252">
        <ele>634</ele>
        <time>2019-02-20T09:55:58.000Z</time>
      </trkpt>
      <trkpt lat="45.32649" lon="4.61254">
        <ele>634</ele>
        <time>2019-02-20T09:55:59.000Z</time>
      </trkpt>
      <trkpt lat="45.32649" lon="4.61256">
        <ele>634.20001220703</ele>
        <time>2019-02-20T09:56:00.000Z</time>
      </trkpt>
      <trkpt lat="45.32649" lon="4.61258">
        <ele>634.20001220703</ele>
        <time>2019-02-20T09:56:01.000Z</time>
      </trkpt>
      <trkpt lat="45.32648" lon="4.6126">
        <ele>634.59997558594</ele>
        <time>2019-02-20T09:56:02.000Z</time>
      </trkpt>
      <trkpt lat="45.32648" lon="4.61262">
        <ele>634.59997558594</ele>
        <time>2019-02-20T09:56:03.000Z</time>
      </trkpt>
      <trkpt lat="45.32648" lon="4.61264">
        <ele>634.59997558594</ele>
        <time>2019-02-20T09:56:04.000Z</time>
      </trkpt>
      <trkpt lat="45.32647" lon="4.61266">
        <ele>635</ele>
        <time>2019-02-20T09:56:05.000Z</time>
      </trkpt>
      <trkpt lat="45.32647" lon="4.61268">
        <ele>635</ele>
        <time>2019-02-20T09:56:06.000Z</time>
      </trkpt>
      <trkpt lat="45.32647" lon="4.6127">
        <ele>635.20001220703</ele>
        <time>2019-02-20T09:56:07.000Z</time>
      </trkpt>
      <trkpt lat="45.32647" lon="4.61272">
        <ele>635.40002441406</ele>
        <time>2019-02-20T09:56:08.000Z</time>
      </trkpt>
      <trkpt lat="45.32646" lon="4.61274">
        <ele>635.59997558594</ele>
        <time>2019-02-20T09:56:09.000Z</time>
      </trkpt>
      <trkpt lat="45.32646" lon="4.61276">
        <ele>635.79998779297</ele>
        <time>2019-02-20T09:56:10.000Z</time>
      </trkpt>
      <trkpt lat="45.32646" lon="4.61278">
        <ele>635.79998779297</ele>
        <time>2019-02-20T09:56:11.000Z</time>
      </trkpt>
      <trkpt lat="45.32646" lon="4.6128">
        <ele>636.20001220703</ele>
        <time>2019-02-20T09:56:12.000Z</time>
      </trkpt>
      <trkpt lat="45.32646" lon="4.61283">
        <ele>636.20001220703</ele>
        <time>2019-02-20T09:56:13.000Z</time>
      </trkpt>
      <trkpt lat="45.32646" lon="4.61285">
        <ele>636.40002441406</ele>
        <time>2019-02-20T09:56:14.000Z</time>
      </trkpt>
      <trkpt lat="45.32645" lon="4.61287">
        <ele>636.40002441406</ele>
        <time>2019-02-20T09:56:15.000Z</time>
      </trkpt>
      <trkpt lat="45.32645" lon="4.61289">
        <ele>636.40002441406</ele>
        <time>2019-02-20T09:56:16.000Z</time>
      </trkpt>
      <trkpt lat="45.32645" lon="4.6129">
        <ele>636.40002441406</ele>
        <time>2019-02-20T09:56:17.000Z</time>
      </trkpt>
      <trkpt lat="45.32645" lon="4.61292">
        <ele>636.59997558594</ele>
        <time>2019-02-20T09:56:18.000Z</time>
      </trkpt>
      <trkpt lat="45.32645" lon="4.61293">
        <ele>636.59997558594</ele>
        <time>2019-02-20T09:56:19.000Z</time>
      </trkpt>
      <trkpt lat="45.32644" lon="4.61295">
        <ele>636.79998779297</ele>
        <time>2019-02-20T09:56:20.000Z</time>
      </trkpt>
      <trkpt lat="45.32644" lon="4.61297">
        <ele>636.79998779297</ele>
        <time>2019-02-20T09:56:21.000Z</time>
      </trkpt>
      <trkpt lat="45.32644" lon="4.61299">
        <ele>636.79998779297</ele>
        <time>2019-02-20T09:56:22.000Z</time>
      </trkpt>
      <trkpt lat="45.32644" lon="4.61301">
        <ele>637</ele>
        <time>2019-02-20T09:56:23.000Z</time>
      </trkpt>
      <trkpt lat="45.32644" lon="4.61303">
        <ele>637</ele>
        <time>2019-02-20T09:56:24.000Z</time>
      </trkpt>
      <trkpt lat="45.32644" lon="4.61305">
        <ele>637.20001220703</ele>
        <time>2019-02-20T09:56:25.000Z</time>
      </trkpt>
      <trkpt lat="45.32644" lon="4.61307">
        <ele>637.20001220703</ele>
        <time>2019-02-20T09:56:26.000Z</time>
      </trkpt>
      <trkpt lat="45.32644" lon="4.61309">
        <ele>637.40002441406</ele>
        <time>2019-02-20T09:56:27.000Z</time>
      </trkpt>
      <trkpt lat="45.32644" lon="4.61311">
        <ele>637.40002441406</ele>
        <time>2019-02-20T09:56:28.000Z</time>
      </trkpt>
      <trkpt lat="45.32645" lon="4.61313">
        <ele>637.59997558594</ele>
        <time>2019-02-20T09:56:29.000Z</time>
      </trkpt>
      <trkpt lat="45.32645" lon="4.61316">
        <ele>637.79998779297</ele>
        <time>2019-02-20T09:56:30.000Z</time>
      </trkpt>
      <trkpt lat="45.32645" lon="4.61317">
        <ele>638</ele>
        <time>2019-02-20T09:56:31.000Z</time>
      </trkpt>
      <trkpt lat="45.32645" lon="4.61319">
        <ele>638.20001220703</ele>
        <time>2019-02-20T09:56:32.000Z</time>
      </trkpt>
      <trkpt lat="45.32645" lon="4.61321">
        <ele>638.40002441406</ele>
        <time>2019-02-20T09:56:33.000Z</time>
      </trkpt>
      <trkpt lat="45.32646" lon="4.61323">
        <ele>638.59997558594</ele>
        <time>2019-02-20T09:56:34.000Z</time>
      </trkpt>
      <trkpt lat="45.32646" lon="4.61325">
        <ele>639</ele>
        <time>2019-02-20T09:56:35.000Z</time>
      </trkpt>
      <trkpt lat="45.32646" lon="4.61327">
        <ele>639</ele>
        <time>2019-02-20T09:56:36.000Z</time>
      </trkpt>
      <trkpt lat="45.32646" lon="4.61329">
        <ele>639.40002441406</ele>
        <time>2019-02-20T09:56:37.000Z</time>
      </trkpt>
      <trkpt lat="45.32646" lon="4.6133">
        <ele>639.40002441406</ele>
        <time>2019-02-20T09:56:38.000Z</time>
      </trkpt>
      <trkpt lat="45.32646" lon="4.61332">
        <ele>639.59997558594</ele>
        <time>2019-02-20T09:56:39.000Z</time>
      </trkpt>
      <trkpt lat="45.32646" lon="4.61335">
        <ele>639.79998779297</ele>
        <time>2019-02-20T09:56:40.000Z</time>
      </trkpt>
      <trkpt lat="45.32646" lon="4.61337">
        <ele>639.79998779297</ele>
        <time>2019-02-20T09:56:41.000Z</time>
      </trkpt>
      <trkpt lat="45.32646" lon="4.61339">
        <ele>640</ele>
        <time>2019-02-20T09:56:42.000Z</time>
      </trkpt>
      <trkpt lat="45.32646" lon="4.61342">
        <ele>640</ele>
        <time>2019-02-20T09:56:43.000Z</time>
      </trkpt>
      <trkpt lat="45.32646" lon="4.61344">
        <ele>640.20001220703</ele>
        <time>2019-02-20T09:56:44.000Z</time>
      </trkpt>
      <trkpt lat="45.32646" lon="4.61346">
        <ele>640.20001220703</ele>
        <time>2019-02-20T09:56:45.000Z</time>
      </trkpt>
      <trkpt lat="45.32646" lon="4.61348">
        <ele>640.40002441406</ele>
        <time>2019-02-20T09:56:46.000Z</time>
      </trkpt>
      <trkpt lat="45.32646" lon="4.6135">
        <ele>640.59997558594</ele>
        <time>2019-02-20T09:56:47.000Z</time>
      </trkpt>
      <trkpt lat="45.32646" lon="4.61352">
        <ele>640.79998779297</ele>
        <time>2019-02-20T09:56:48.000Z</time>
      </trkpt>
      <trkpt lat="45.32646" lon="4.61354">
        <ele>640.79998779297</ele>
        <time>2019-02-20T09:56:49.000Z</time>
      </trkpt>
      <trkpt lat="45.32646" lon="4.61357">
        <ele>641</ele>
        <time>2019-02-20T09:56:50.000Z</time>
      </trkpt>
      <trkpt lat="45.32646" lon="4.61359">
        <ele>641</ele>
        <time>2019-02-20T09:56:51.000Z</time>
      </trkpt>
      <trkpt lat="45.32646" lon="4.61362">
        <ele>641.20001220703</ele>
        <time>2019-02-20T09:56:52.000Z</time>
      </trkpt>
      <trkpt lat="45.32646" lon="4.61364">
        <ele>641.40002441406</ele>
        <time>2019-02-20T09:56:53.000Z</time>
      </trkpt>
      <trkpt lat="45.32646" lon="4.61367">
        <ele>641.40002441406</ele>
        <time>2019-02-20T09:56:54.000Z</time>
      </trkpt>
      <trkpt lat="45.32645" lon="4.61369">
        <ele>641.59997558594</ele>
        <time>2019-02-20T09:56:55.000Z</time>
      </trkpt>
      <trkpt lat="45.32645" lon="4.61371">
        <ele>641.40002441406</ele>
        <time>2019-02-20T09:56:56.000Z</time>
      </trkpt>
      <trkpt lat="45.32645" lon="4.61373">
        <ele>641.59997558594</ele>
        <time>2019-02-20T09:56:57.000Z</time>
      </trkpt>
      <trkpt lat="45.32644" lon="4.61375">
        <ele>641.59997558594</ele>
        <time>2019-02-20T09:56:58.000Z</time>
      </trkpt>
      <trkpt lat="45.32643" lon="4.61377">
        <ele>641.59997558594</ele>
        <time>2019-02-20T09:56:59.000Z</time>
      </trkpt>
      <trkpt lat="45.32642" lon="4.61378">
        <ele>641.79998779297</ele>
        <time>2019-02-20T09:57:00.000Z</time>
      </trkpt>
      <trkpt lat="45.32642" lon="4.6138">
        <ele>641.59997558594</ele>
        <time>2019-02-20T09:57:01.000Z</time>
      </trkpt>
      <trkpt lat="45.32641" lon="4.61382">
        <ele>641.79998779297</ele>
        <time>2019-02-20T09:57:02.000Z</time>
      </trkpt>
      <trkpt lat="45.32641" lon="4.61385">
        <ele>642</ele>
        <time>2019-02-20T09:57:03.000Z</time>
      </trkpt>
      <trkpt lat="45.3264" lon="4.61388">
        <ele>642</ele>
        <time>2019-02-20T09:57:04.000Z</time>
      </trkpt>
      <trkpt lat="45.32639" lon="4.6139">
        <ele>642</ele>
        <time>2019-02-20T09:57:05.000Z</time>
      </trkpt>
      <trkpt lat="45.32638" lon="4.61393">
        <ele>642</ele>
        <time>2019-02-20T09:57:06.000Z</time>
      </trkpt>
      <trkpt lat="45.32636" lon="4.61395">
        <ele>642</ele>
        <time>2019-02-20T09:57:07.000Z</time>
      </trkpt>
      <trkpt lat="45.32635" lon="4.61397">
        <ele>642</ele>
        <time>2019-02-20T09:57:08.000Z</time>
      </trkpt>
      <trkpt lat="45.32634" lon="4.61398">
        <ele>642</ele>
        <time>2019-02-20T09:57:09.000Z</time>
      </trkpt>
      <trkpt lat="45.32632" lon="4.61399">
        <ele>642</ele>
        <time>2019-02-20T09:57:10.000Z</time>
      </trkpt>
      <trkpt lat="45.3263" lon="4.614">
        <ele>642</ele>
        <time>2019-02-20T09:57:11.000Z</time>
      </trkpt>
      <trkpt lat="45.32628" lon="4.61401">
        <ele>641.79998779297</ele>
        <time>2019-02-20T09:57:12.000Z</time>
      </trkpt>
      <trkpt lat="45.32627" lon="4.61401">
        <ele>641.20001220703</ele>
        <time>2019-02-20T09:57:13.000Z</time>
      </trkpt>
      <trkpt lat="45.32626" lon="4.61402">
        <ele>640.79998779297</ele>
        <time>2019-02-20T09:57:14.000Z</time>
      </trkpt>
      <trkpt lat="45.32626" lon="4.61403">
        <ele>640.20001220703</ele>
        <time>2019-02-20T09:57:15.000Z</time>
      </trkpt>
      <trkpt lat="45.32625" lon="4.61406">
        <ele>639.79998779297</ele>
        <time>2019-02-20T09:57:16.000Z</time>
      </trkpt>
      <trkpt lat="45.32624" lon="4.61408">
        <ele>639.40002441406</ele>
        <time>2019-02-20T09:57:17.000Z</time>
      </trkpt>
      <trkpt lat="45.32622" lon="4.6141">
        <ele>639</ele>
        <time>2019-02-20T09:57:18.000Z</time>
      </trkpt>
      <trkpt lat="45.3262" lon="4.61412">
        <ele>638.59997558594</ele>
        <time>2019-02-20T09:57:19.000Z</time>
      </trkpt>
      <trkpt lat="45.32618" lon="4.61415">
        <ele>638.40002441406</ele>
        <time>2019-02-20T09:57:20.000Z</time>
      </trkpt>
      <trkpt lat="45.32616" lon="4.61418">
        <ele>638</ele>
        <time>2019-02-20T09:57:21.000Z</time>
      </trkpt>
      <trkpt lat="45.32613" lon="4.61422">
        <ele>638</ele>
        <time>2019-02-20T09:57:22.000Z</time>
      </trkpt>
      <trkpt lat="45.3261" lon="4.61427">
        <ele>637.79998779297</ele>
        <time>2019-02-20T09:57:23.000Z</time>
      </trkpt>
      <trkpt lat="45.32606" lon="4.61433">
        <ele>637.59997558594</ele>
        <time>2019-02-20T09:57:24.000Z</time>
      </trkpt>
      <trkpt lat="45.32603" lon="4.6144">
        <ele>637.20001220703</ele>
        <time>2019-02-20T09:57:25.000Z</time>
      </trkpt>
      <trkpt lat="45.32601" lon="4.61446">
        <ele>637</ele>
        <time>2019-02-20T09:57:26.000Z</time>
      </trkpt>
      <trkpt lat="45.32598" lon="4.61452">
        <ele>636.20001220703</ele>
        <time>2019-02-20T09:57:27.000Z</time>
      </trkpt>
      <trkpt lat="45.32596" lon="4.61458">
        <ele>635.59997558594</ele>
        <time>2019-02-20T09:57:28.000Z</time>
      </trkpt>
      <trkpt lat="45.32595" lon="4.61463">
        <ele>635</ele>
        <time>2019-02-20T09:57:29.000Z</time>
      </trkpt>
      <trkpt lat="45.32593" lon="4.61467">
        <ele>634.59997558594</ele>
        <time>2019-02-20T09:57:30.000Z</time>
      </trkpt>
      <trkpt lat="45.32591" lon="4.61472">
        <ele>634.40002441406</ele>
        <time>2019-02-20T09:57:31.000Z</time>
      </trkpt>
      <trkpt lat="45.3259" lon="4.61476">
        <ele>634.40002441406</ele>
        <time>2019-02-20T09:57:32.000Z</time>
      </trkpt>
      <trkpt lat="45.32589" lon="4.61479">
        <ele>634.20001220703</ele>
        <time>2019-02-20T09:57:33.000Z</time>
      </trkpt>
      <trkpt lat="45.32588" lon="4.61482">
        <ele>634.40002441406</ele>
        <time>2019-02-20T09:57:34.000Z</time>
      </trkpt>
      <trkpt lat="45.32586" lon="4.61485">
        <ele>634.40002441406</ele>
        <time>2019-02-20T09:57:35.000Z</time>
      </trkpt>
      <trkpt lat="45.32585" lon="4.61488">
        <ele>634.20001220703</ele>
        <time>2019-02-20T09:57:36.000Z</time>
      </trkpt>
      <trkpt lat="45.32584" lon="4.61491">
        <ele>634.20001220703</ele>
        <time>2019-02-20T09:57:37.000Z</time>
      </trkpt>
      <trkpt lat="45.32584" lon="4.61494">
        <ele>634.20001220703</ele>
        <time>2019-02-20T09:57:38.000Z</time>
      </trkpt>
      <trkpt lat="45.32583" lon="4.61497">
        <ele>634.20001220703</ele>
        <time>2019-02-20T09:57:39.000Z</time>
      </trkpt>
      <trkpt lat="45.32582" lon="4.615">
        <ele>634.20001220703</ele>
        <time>2019-02-20T09:57:40.000Z</time>
      </trkpt>
      <trkpt lat="45.32582" lon="4.61503">
        <ele>634.20001220703</ele>
        <time>2019-02-20T09:57:41.000Z</time>
      </trkpt>
      <trkpt lat="45.32582" lon="4.61506">
        <ele>634.20001220703</ele>
        <time>2019-02-20T09:57:42.000Z</time>
      </trkpt>
      <trkpt lat="45.32582" lon="4.61508">
        <ele>634.40002441406</ele>
        <time>2019-02-20T09:57:43.000Z</time>
      </trkpt>
      <trkpt lat="45.32583" lon="4.6151">
        <ele>634.59997558594</ele>
        <time>2019-02-20T09:57:44.000Z</time>
      </trkpt>
      <trkpt lat="45.32583" lon="4.61513">
        <ele>634.59997558594</ele>
        <time>2019-02-20T09:57:45.000Z</time>
      </trkpt>
      <trkpt lat="45.32583" lon="4.61515">
        <ele>634.79998779297</ele>
        <time>2019-02-20T09:57:46.000Z</time>
      </trkpt>
      <trkpt lat="45.32584" lon="4.61517">
        <ele>635</ele>
        <time>2019-02-20T09:57:47.000Z</time>
      </trkpt>
      <trkpt lat="45.32584" lon="4.6152">
        <ele>635</ele>
        <time>2019-02-20T09:57:48.000Z</time>
      </trkpt>
      <trkpt lat="45.32584" lon="4.61522">
        <ele>635.20001220703</ele>
        <time>2019-02-20T09:57:49.000Z</time>
      </trkpt>
      <trkpt lat="45.32584" lon="4.61524">
        <ele>635.40002441406</ele>
        <time>2019-02-20T09:57:50.000Z</time>
      </trkpt>
      <trkpt lat="45.32584" lon="4.61527">
        <ele>635.59997558594</ele>
        <time>2019-02-20T09:57:51.000Z</time>
      </trkpt>
      <trkpt lat="45.32584" lon="4.61529">
        <ele>635.79998779297</ele>
        <time>2019-02-20T09:57:52.000Z</time>
      </trkpt>
      <trkpt lat="45.32583" lon="4.61531">
        <ele>636</ele>
        <time>2019-02-20T09:57:53.000Z</time>
      </trkpt>
      <trkpt lat="45.32583" lon="4.61533">
        <ele>636.40002441406</ele>
        <time>2019-02-20T09:57:54.000Z</time>
      </trkpt>
      <trkpt lat="45.32582" lon="4.61536">
        <ele>636.59997558594</ele>
        <time>2019-02-20T09:57:55.000Z</time>
      </trkpt>
      <trkpt lat="45.32582" lon="4.61538">
        <ele>636.79998779297</ele>
        <time>2019-02-20T09:57:56.000Z</time>
      </trkpt>
      <trkpt lat="45.32582" lon="4.61541">
        <ele>637</ele>
        <time>2019-02-20T09:57:57.000Z</time>
      </trkpt>
      <trkpt lat="45.32581" lon="4.61544">
        <ele>637.20001220703</ele>
        <time>2019-02-20T09:57:58.000Z</time>
      </trkpt>
      <trkpt lat="45.32581" lon="4.61547">
        <ele>637.40002441406</ele>
        <time>2019-02-20T09:57:59.000Z</time>
      </trkpt>
      <trkpt lat="45.3258" lon="4.61549">
        <ele>637.79998779297</ele>
        <time>2019-02-20T09:58:00.000Z</time>
      </trkpt>
      <trkpt lat="45.3258" lon="4.61552">
        <ele>637.79998779297</ele>
        <time>2019-02-20T09:58:01.000Z</time>
      </trkpt>
      <trkpt lat="45.3258" lon="4.61555">
        <ele>638</ele>
        <time>2019-02-20T09:58:02.000Z</time>
      </trkpt>
      <trkpt lat="45.32579" lon="4.61558">
        <ele>638.20001220703</ele>
        <time>2019-02-20T09:58:03.000Z</time>
      </trkpt>
      <trkpt lat="45.32579" lon="4.61561">
        <ele>638.20001220703</ele>
        <time>2019-02-20T09:58:04.000Z</time>
      </trkpt>
      <trkpt lat="45.32579" lon="4.61564">
        <ele>638.20001220703</ele>
        <time>2019-02-20T09:58:05.000Z</time>
      </trkpt>
      <trkpt lat="45.32578" lon="4.61567">
        <ele>638.40002441406</ele>
        <time>2019-02-20T09:58:06.000Z</time>
      </trkpt>
      <trkpt lat="45.32578" lon="4.6157">
        <ele>638.40002441406</ele>
        <time>2019-02-20T09:58:07.000Z</time>
      </trkpt>
      <trkpt lat="45.32578" lon="4.61574">
        <ele>638.40002441406</ele>
        <time>2019-02-20T09:58:08.000Z</time>
      </trkpt>
      <trkpt lat="45.32577" lon="4.61577">
        <ele>638.40002441406</ele>
        <time>2019-02-20T09:58:09.000Z</time>
      </trkpt>
      <trkpt lat="45.32577" lon="4.6158">
        <ele>638.40002441406</ele>
        <time>2019-02-20T09:58:10.000Z</time>
      </trkpt>
      <trkpt lat="45.32576" lon="4.61583">
        <ele>638.40002441406</ele>
        <time>2019-02-20T09:58:11.000Z</time>
      </trkpt>
      <trkpt lat="45.32576" lon="4.61586">
        <ele>638.40002441406</ele>
        <time>2019-02-20T09:58:12.000Z</time>
      </trkpt>
      <trkpt lat="45.32576" lon="4.61589">
        <ele>638.59997558594</ele>
        <time>2019-02-20T09:58:13.000Z</time>
      </trkpt>
      <trkpt lat="45.32576" lon="4.61592">
        <ele>638.59997558594</ele>
        <time>2019-02-20T09:58:14.000Z</time>
      </trkpt>
      <trkpt lat="45.32576" lon="4.61595">
        <ele>638.59997558594</ele>
        <time>2019-02-20T09:58:15.000Z</time>
      </trkpt>
      <trkpt lat="45.32576" lon="4.61599">
        <ele>638.59997558594</ele>
        <time>2019-02-20T09:58:16.000Z</time>
      </trkpt>
      <trkpt lat="45.32577" lon="4.61602">
        <ele>638.59997558594</ele>
        <time>2019-02-20T09:58:17.000Z</time>
      </trkpt>
      <trkpt lat="45.32577" lon="4.61605">
        <ele>638.59997558594</ele>
        <time>2019-02-20T09:58:18.000Z</time>
      </trkpt>
      <trkpt lat="45.32577" lon="4.61609">
        <ele>638.59997558594</ele>
        <time>2019-02-20T09:58:19.000Z</time>
      </trkpt>
      <trkpt lat="45.32577" lon="4.61613">
        <ele>638.59997558594</ele>
        <time>2019-02-20T09:58:20.000Z</time>
      </trkpt>
      <trkpt lat="45.32576" lon="4.61616">
        <ele>638.59997558594</ele>
        <time>2019-02-20T09:58:21.000Z</time>
      </trkpt>
      <trkpt lat="45.32576" lon="4.6162">
        <ele>638.40002441406</ele>
        <time>2019-02-20T09:58:22.000Z</time>
      </trkpt>
      <trkpt lat="45.32576" lon="4.61624">
        <ele>638.40002441406</ele>
        <time>2019-02-20T09:58:23.000Z</time>
      </trkpt>
      <trkpt lat="45.32575" lon="4.61627">
        <ele>638.40002441406</ele>
        <time>2019-02-20T09:58:24.000Z</time>
      </trkpt>
      <trkpt lat="45.32575" lon="4.61631">
        <ele>638.20001220703</ele>
        <time>2019-02-20T09:58:25.000Z</time>
      </trkpt>
      <trkpt lat="45.32575" lon="4.61635">
        <ele>638.20001220703</ele>
        <time>2019-02-20T09:58:26.000Z</time>
      </trkpt>
      <trkpt lat="45.32575" lon="4.61639">
        <ele>638</ele>
        <time>2019-02-20T09:58:27.000Z</time>
      </trkpt>
      <trkpt lat="45.32575" lon="4.61644">
        <ele>638</ele>
        <time>2019-02-20T09:58:28.000Z</time>
      </trkpt>
      <trkpt lat="45.32575" lon="4.61648">
        <ele>638</ele>
        <time>2019-02-20T09:58:29.000Z</time>
      </trkpt>
      <trkpt lat="45.32575" lon="4.61652">
        <ele>637.79998779297</ele>
        <time>2019-02-20T09:58:30.000Z</time>
      </trkpt>
      <trkpt lat="45.32575" lon="4.61656">
        <ele>637.79998779297</ele>
        <time>2019-02-20T09:58:31.000Z</time>
      </trkpt>
      <trkpt lat="45.32575" lon="4.61659">
        <ele>637.79998779297</ele>
        <time>2019-02-20T09:58:32.000Z</time>
      </trkpt>
      <trkpt lat="45.32575" lon="4.61663">
        <ele>637.79998779297</ele>
        <time>2019-02-20T09:58:33.000Z</time>
      </trkpt>
      <trkpt lat="45.32575" lon="4.61667">
        <ele>637.59997558594</ele>
        <time>2019-02-20T09:58:34.000Z</time>
      </trkpt>
      <trkpt lat="45.32575" lon="4.6167">
        <ele>637.79998779297</ele>
        <time>2019-02-20T09:58:35.000Z</time>
      </trkpt>
      <trkpt lat="45.32575" lon="4.61674">
        <ele>637.59997558594</ele>
        <time>2019-02-20T09:58:36.000Z</time>
      </trkpt>
      <trkpt lat="45.32575" lon="4.61677">
        <ele>637.40002441406</ele>
        <time>2019-02-20T09:58:37.000Z</time>
      </trkpt>
      <trkpt lat="45.32575" lon="4.61681">
        <ele>637.40002441406</ele>
        <time>2019-02-20T09:58:38.000Z</time>
      </trkpt>
      <trkpt lat="45.32576" lon="4.61684">
        <ele>637.59997558594</ele>
        <time>2019-02-20T09:58:39.000Z</time>
      </trkpt>
      <trkpt lat="45.32576" lon="4.61688">
        <ele>637.40002441406</ele>
        <time>2019-02-20T09:58:40.000Z</time>
      </trkpt>
      <trkpt lat="45.32576" lon="4.61691">
        <ele>637.40002441406</ele>
        <time>2019-02-20T09:58:41.000Z</time>
      </trkpt>
      <trkpt lat="45.32576" lon="4.61695">
        <ele>637.40002441406</ele>
        <time>2019-02-20T09:58:42.000Z</time>
      </trkpt>
      <trkpt lat="45.32576" lon="4.61699">
        <ele>637.40002441406</ele>
        <time>2019-02-20T09:58:43.000Z</time>
      </trkpt>
      <trkpt lat="45.32576" lon="4.61703">
        <ele>637.20001220703</ele>
        <time>2019-02-20T09:58:44.000Z</time>
      </trkpt>
      <trkpt lat="45.32575" lon="4.61707">
        <ele>637.20001220703</ele>
        <time>2019-02-20T09:58:45.000Z</time>
      </trkpt>
      <trkpt lat="45.32575" lon="4.61712">
        <ele>637.40002441406</ele>
        <time>2019-02-20T09:58:46.000Z</time>
      </trkpt>
      <trkpt lat="45.32575" lon="4.61716">
        <ele>637.20001220703</ele>
        <time>2019-02-20T09:58:47.000Z</time>
      </trkpt>
      <trkpt lat="45.32575" lon="4.6172">
        <ele>637.40002441406</ele>
        <time>2019-02-20T09:58:48.000Z</time>
      </trkpt>
      <trkpt lat="45.32575" lon="4.61724">
        <ele>637.40002441406</ele>
        <time>2019-02-20T09:58:49.000Z</time>
      </trkpt>
      <trkpt lat="45.32575" lon="4.61728">
        <ele>637.20001220703</ele>
        <time>2019-02-20T09:58:50.000Z</time>
      </trkpt>
      <trkpt lat="45.32574" lon="4.61732">
        <ele>637.20001220703</ele>
        <time>2019-02-20T09:58:51.000Z</time>
      </trkpt>
      <trkpt lat="45.32574" lon="4.61736">
        <ele>637.20001220703</ele>
        <time>2019-02-20T09:58:52.000Z</time>
      </trkpt>
      <trkpt lat="45.32574" lon="4.61739">
        <ele>637.20001220703</ele>
        <time>2019-02-20T09:58:53.000Z</time>
      </trkpt>
      <trkpt lat="45.32575" lon="4.61743">
        <ele>637</ele>
        <time>2019-02-20T09:58:54.000Z</time>
      </trkpt>
      <trkpt lat="45.32575" lon="4.61747">
        <ele>637</ele>
        <time>2019-02-20T09:58:55.000Z</time>
      </trkpt>
      <trkpt lat="45.32576" lon="4.61751">
        <ele>637</ele>
        <time>2019-02-20T09:58:56.000Z</time>
      </trkpt>
      <trkpt lat="45.32576" lon="4.61755">
        <ele>637</ele>
        <time>2019-02-20T09:58:57.000Z</time>
      </trkpt>
      <trkpt lat="45.32577" lon="4.61759">
        <ele>637.20001220703</ele>
        <time>2019-02-20T09:58:58.000Z</time>
      </trkpt>
      <trkpt lat="45.32578" lon="4.61763">
        <ele>637</ele>
        <time>2019-02-20T09:58:59.000Z</time>
      </trkpt>
      <trkpt lat="45.32578" lon="4.61767">
        <ele>636.79998779297</ele>
        <time>2019-02-20T09:59:00.000Z</time>
      </trkpt>
      <trkpt lat="45.32579" lon="4.6177">
        <ele>637</ele>
        <time>2019-02-20T09:59:01.000Z</time>
      </trkpt>
      <trkpt lat="45.3258" lon="4.61774">
        <ele>636.79998779297</ele>
        <time>2019-02-20T09:59:02.000Z</time>
      </trkpt>
      <trkpt lat="45.3258" lon="4.61778">
        <ele>637</ele>
        <time>2019-02-20T09:59:03.000Z</time>
      </trkpt>
      <trkpt lat="45.32581" lon="4.61781">
        <ele>637.20001220703</ele>
        <time>2019-02-20T09:59:04.000Z</time>
      </trkpt>
      <trkpt lat="45.32581" lon="4.61785">
        <ele>637.20001220703</ele>
        <time>2019-02-20T09:59:05.000Z</time>
      </trkpt>
      <trkpt lat="45.32582" lon="4.61789">
        <ele>637.40002441406</ele>
        <time>2019-02-20T09:59:06.000Z</time>
      </trkpt>
      <trkpt lat="45.32582" lon="4.61792">
        <ele>637.40002441406</ele>
        <time>2019-02-20T09:59:07.000Z</time>
      </trkpt>
      <trkpt lat="45.32583" lon="4.61796">
        <ele>637.59997558594</ele>
        <time>2019-02-20T09:59:08.000Z</time>
      </trkpt>
      <trkpt lat="45.32584" lon="4.61799">
        <ele>637.79998779297</ele>
        <time>2019-02-20T09:59:09.000Z</time>
      </trkpt>
      <trkpt lat="45.32584" lon="4.61802">
        <ele>638</ele>
        <time>2019-02-20T09:59:10.000Z</time>
      </trkpt>
      <trkpt lat="45.32585" lon="4.61805">
        <ele>638.20001220703</ele>
        <time>2019-02-20T09:59:11.000Z</time>
      </trkpt>
      <trkpt lat="45.32586" lon="4.61809">
        <ele>638.59997558594</ele>
        <time>2019-02-20T09:59:12.000Z</time>
      </trkpt>
      <trkpt lat="45.32586" lon="4.61812">
        <ele>638.79998779297</ele>
        <time>2019-02-20T09:59:13.000Z</time>
      </trkpt>
      <trkpt lat="45.32587" lon="4.61815">
        <ele>638.79998779297</ele>
        <time>2019-02-20T09:59:14.000Z</time>
      </trkpt>
      <trkpt lat="45.32587" lon="4.61818">
        <ele>638.79998779297</ele>
        <time>2019-02-20T09:59:15.000Z</time>
      </trkpt>
      <trkpt lat="45.32588" lon="4.61821">
        <ele>639</ele>
        <time>2019-02-20T09:59:16.000Z</time>
      </trkpt>
      <trkpt lat="45.32588" lon="4.61824">
        <ele>639.20001220703</ele>
        <time>2019-02-20T09:59:17.000Z</time>
      </trkpt>
      <trkpt lat="45.32589" lon="4.61827">
        <ele>639.40002441406</ele>
        <time>2019-02-20T09:59:18.000Z</time>
      </trkpt>
      <trkpt lat="45.32589" lon="4.6183">
        <ele>639.59997558594</ele>
        <time>2019-02-20T09:59:19.000Z</time>
      </trkpt>
      <trkpt lat="45.3259" lon="4.61833">
        <ele>639.59997558594</ele>
        <time>2019-02-20T09:59:20.000Z</time>
      </trkpt>
      <trkpt lat="45.3259" lon="4.61836">
        <ele>639.79998779297</ele>
        <time>2019-02-20T09:59:21.000Z</time>
      </trkpt>
      <trkpt lat="45.32591" lon="4.61839">
        <ele>640</ele>
        <time>2019-02-20T09:59:22.000Z</time>
      </trkpt>
      <trkpt lat="45.32591" lon="4.61842">
        <ele>640.20001220703</ele>
        <time>2019-02-20T09:59:23.000Z</time>
      </trkpt>
      <trkpt lat="45.32591" lon="4.61845">
        <ele>640.20001220703</ele>
        <time>2019-02-20T09:59:24.000Z</time>
      </trkpt>
      <trkpt lat="45.32591" lon="4.61848">
        <ele>640.40002441406</ele>
        <time>2019-02-20T09:59:25.000Z</time>
      </trkpt>
      <trkpt lat="45.32591" lon="4.61851">
        <ele>640.59997558594</ele>
        <time>2019-02-20T09:59:26.000Z</time>
      </trkpt>
      <trkpt lat="45.32591" lon="4.61853">
        <ele>640.59997558594</ele>
        <time>2019-02-20T09:59:27.000Z</time>
      </trkpt>
      <trkpt lat="45.3259" lon="4.61856">
        <ele>641</ele>
        <time>2019-02-20T09:59:28.000Z</time>
      </trkpt>
      <trkpt lat="45.32589" lon="4.61858">
        <ele>641</ele>
        <time>2019-02-20T09:59:29.000Z</time>
      </trkpt>
      <trkpt lat="45.32587" lon="4.61861">
        <ele>641</ele>
        <time>2019-02-20T09:59:30.000Z</time>
      </trkpt>
      <trkpt lat="45.32586" lon="4.61864">
        <ele>641.20001220703</ele>
        <time>2019-02-20T09:59:31.000Z</time>
      </trkpt>
      <trkpt lat="45.32584" lon="4.61866">
        <ele>641.20001220703</ele>
        <time>2019-02-20T09:59:32.000Z</time>
      </trkpt>
      <trkpt lat="45.32582" lon="4.61869">
        <ele>641.20001220703</ele>
        <time>2019-02-20T09:59:33.000Z</time>
      </trkpt>
      <trkpt lat="45.3258" lon="4.61873">
        <ele>641.20001220703</ele>
        <time>2019-02-20T09:59:34.000Z</time>
      </trkpt>
      <trkpt lat="45.32578" lon="4.61877">
        <ele>641.20001220703</ele>
        <time>2019-02-20T09:59:35.000Z</time>
      </trkpt>
      <trkpt lat="45.32575" lon="4.61882">
        <ele>641.20001220703</ele>
        <time>2019-02-20T09:59:36.000Z</time>
      </trkpt>
      <trkpt lat="45.32571" lon="4.61888">
        <ele>641.20001220703</ele>
        <time>2019-02-20T09:59:37.000Z</time>
      </trkpt>
      <trkpt lat="45.32567" lon="4.61894">
        <ele>641.20001220703</ele>
        <time>2019-02-20T09:59:38.000Z</time>
      </trkpt>
      <trkpt lat="45.32562" lon="4.619">
        <ele>641.20001220703</ele>
        <time>2019-02-20T09:59:39.000Z</time>
      </trkpt>
      <trkpt lat="45.32556" lon="4.61907">
        <ele>641</ele>
        <time>2019-02-20T09:59:40.000Z</time>
      </trkpt>
      <trkpt lat="45.3255" lon="4.61913">
        <ele>640.79998779297</ele>
        <time>2019-02-20T09:59:41.000Z</time>
      </trkpt>
      <trkpt lat="45.32544" lon="4.6192">
        <ele>640.59997558594</ele>
        <time>2019-02-20T09:59:42.000Z</time>
      </trkpt>
      <trkpt lat="45.32537" lon="4.61926">
        <ele>640.20001220703</ele>
        <time>2019-02-20T09:59:43.000Z</time>
      </trkpt>
      <trkpt lat="45.3253" lon="4.61933">
        <ele>639.59997558594</ele>
        <time>2019-02-20T09:59:44.000Z</time>
      </trkpt>
      <trkpt lat="45.32523" lon="4.61938">
        <ele>639</ele>
        <time>2019-02-20T09:59:45.000Z</time>
      </trkpt>
      <trkpt lat="45.32515" lon="4.61944">
        <ele>638.59997558594</ele>
        <time>2019-02-20T09:59:46.000Z</time>
      </trkpt>
      <trkpt lat="45.32508" lon="4.6195">
        <ele>637.59997558594</ele>
        <time>2019-02-20T09:59:47.000Z</time>
      </trkpt>
      <trkpt lat="45.325" lon="4.61956">
        <ele>636.79998779297</ele>
        <time>2019-02-20T09:59:48.000Z</time>
      </trkpt>
      <trkpt lat="45.32493" lon="4.61961">
        <ele>635.79998779297</ele>
        <time>2019-02-20T09:59:49.000Z</time>
      </trkpt>
      <trkpt lat="45.32485" lon="4.61965">
        <ele>635.20001220703</ele>
        <time>2019-02-20T09:59:50.000Z</time>
      </trkpt>
      <trkpt lat="45.32478" lon="4.61969">
        <ele>633.79998779297</ele>
        <time>2019-02-20T09:59:51.000Z</time>
      </trkpt>
      <trkpt lat="45.32472" lon="4.61972">
        <ele>632.20001220703</ele>
        <time>2019-02-20T09:59:52.000Z</time>
      </trkpt>
      <trkpt lat="45.32467" lon="4.61975">
        <ele>631.20001220703</ele>
        <time>2019-02-20T09:59:53.000Z</time>
      </trkpt>
      <trkpt lat="45.32463" lon="4.61978">
        <ele>630.20001220703</ele>
        <time>2019-02-20T09:59:54.000Z</time>
      </trkpt>
      <trkpt lat="45.3246" lon="4.61981">
        <ele>629.59997558594</ele>
        <time>2019-02-20T09:59:55.000Z</time>
      </trkpt>
      <trkpt lat="45.32458" lon="4.61984">
        <ele>628.79998779297</ele>
        <time>2019-02-20T09:59:56.000Z</time>
      </trkpt>
      <trkpt lat="45.32457" lon="4.61988">
        <ele>628.20001220703</ele>
        <time>2019-02-20T09:59:57.000Z</time>
      </trkpt>
      <trkpt lat="45.32459" lon="4.61992">
        <ele>627.79998779297</ele>
        <time>2019-02-20T09:59:58.000Z</time>
      </trkpt>
      <trkpt lat="45.32461" lon="4.61997">
        <ele>627</ele>
        <time>2019-02-20T09:59:59.000Z</time>
      </trkpt>
      <trkpt lat="45.32464" lon="4.62002">
        <ele>626.20001220703</ele>
        <time>2019-02-20T10:00:00.000Z</time>
      </trkpt>
      <trkpt lat="45.32468" lon="4.62008">
        <ele>625.59997558594</ele>
        <time>2019-02-20T10:00:01.000Z</time>
      </trkpt>
      <trkpt lat="45.32472" lon="4.62014">
        <ele>625.20001220703</ele>
        <time>2019-02-20T10:00:02.000Z</time>
      </trkpt>
      <trkpt lat="45.32476" lon="4.6202">
        <ele>625</ele>
        <time>2019-02-20T10:00:03.000Z</time>
      </trkpt>
      <trkpt lat="45.3248" lon="4.62027">
        <ele>624.59997558594</ele>
        <time>2019-02-20T10:00:04.000Z</time>
      </trkpt>
      <trkpt lat="45.32485" lon="4.62034">
        <ele>624.40002441406</ele>
        <time>2019-02-20T10:00:05.000Z</time>
      </trkpt>
      <trkpt lat="45.32489" lon="4.62042">
        <ele>624</ele>
        <time>2019-02-20T10:00:06.000Z</time>
      </trkpt>
      <trkpt lat="45.32494" lon="4.6205">
        <ele>623.40002441406</ele>
        <time>2019-02-20T10:00:07.000Z</time>
      </trkpt>
      <trkpt lat="45.32498" lon="4.62058">
        <ele>623</ele>
        <time>2019-02-20T10:00:08.000Z</time>
      </trkpt>
      <trkpt lat="45.32502" lon="4.62066">
        <ele>622.59997558594</ele>
        <time>2019-02-20T10:00:09.000Z</time>
      </trkpt>
      <trkpt lat="45.32507" lon="4.62075">
        <ele>621.79998779297</ele>
        <time>2019-02-20T10:00:10.000Z</time>
      </trkpt>
      <trkpt lat="45.32511" lon="4.62083">
        <ele>621.59997558594</ele>
        <time>2019-02-20T10:00:11.000Z</time>
      </trkpt>
      <trkpt lat="45.32515" lon="4.6209">
        <ele>621</ele>
        <time>2019-02-20T10:00:12.000Z</time>
      </trkpt>
      <trkpt lat="45.32519" lon="4.62098">
        <ele>620.40002441406</ele>
        <time>2019-02-20T10:00:13.000Z</time>
      </trkpt>
      <trkpt lat="45.32522" lon="4.62105">
        <ele>619.79998779297</ele>
        <time>2019-02-20T10:00:14.000Z</time>
      </trkpt>
      <trkpt lat="45.32525" lon="4.62111">
        <ele>619.20001220703</ele>
        <time>2019-02-20T10:00:15.000Z</time>
      </trkpt>
      <trkpt lat="45.32528" lon="4.62118">
        <ele>618.20001220703</ele>
        <time>2019-02-20T10:00:16.000Z</time>
      </trkpt>
      <trkpt lat="45.3253" lon="4.62123">
        <ele>617.59997558594</ele>
        <time>2019-02-20T10:00:17.000Z</time>
      </trkpt>
      <trkpt lat="45.32532" lon="4.62128">
        <ele>617</ele>
        <time>2019-02-20T10:00:18.000Z</time>
      </trkpt>
      <trkpt lat="45.32534" lon="4.62133">
        <ele>616.20001220703</ele>
        <time>2019-02-20T10:00:19.000Z</time>
      </trkpt>
      <trkpt lat="45.32536" lon="4.62138">
        <ele>615.20001220703</ele>
        <time>2019-02-20T10:00:20.000Z</time>
      </trkpt>
      <trkpt lat="45.32537" lon="4.62143">
        <ele>614.40002441406</ele>
        <time>2019-02-20T10:00:21.000Z</time>
      </trkpt>
      <trkpt lat="45.32539" lon="4.62149">
        <ele>614</ele>
        <time>2019-02-20T10:00:22.000Z</time>
      </trkpt>
      <trkpt lat="45.32542" lon="4.62155">
        <ele>613.79998779297</ele>
        <time>2019-02-20T10:00:23.000Z</time>
      </trkpt>
      <trkpt lat="45.32544" lon="4.62162">
        <ele>613.40002441406</ele>
        <time>2019-02-20T10:00:24.000Z</time>
      </trkpt>
      <trkpt lat="45.32546" lon="4.62168">
        <ele>613</ele>
        <time>2019-02-20T10:00:25.000Z</time>
      </trkpt>
      <trkpt lat="45.32549" lon="4.62174">
        <ele>612.59997558594</ele>
        <time>2019-02-20T10:00:26.000Z</time>
      </trkpt>
      <trkpt lat="45.32552" lon="4.6218">
        <ele>612</ele>
        <time>2019-02-20T10:00:27.000Z</time>
      </trkpt>
      <trkpt lat="45.32556" lon="4.62186">
        <ele>611.40002441406</ele>
        <time>2019-02-20T10:00:28.000Z</time>
      </trkpt>
      <trkpt lat="45.32559" lon="4.62192">
        <ele>610.79998779297</ele>
        <time>2019-02-20T10:00:29.000Z</time>
      </trkpt>
      <trkpt lat="45.32564" lon="4.62197">
        <ele>610.59997558594</ele>
        <time>2019-02-20T10:00:30.000Z</time>
      </trkpt>
      <trkpt lat="45.32568" lon="4.62203">
        <ele>610.20001220703</ele>
        <time>2019-02-20T10:00:31.000Z</time>
      </trkpt>
      <trkpt lat="45.32573" lon="4.62207">
        <ele>609.40002441406</ele>
        <time>2019-02-20T10:00:32.000Z</time>
      </trkpt>
      <trkpt lat="45.32578" lon="4.62212">
        <ele>608.79998779297</ele>
        <time>2019-02-20T10:00:33.000Z</time>
      </trkpt>
      <trkpt lat="45.32585" lon="4.62216">
        <ele>608.59997558594</ele>
        <time>2019-02-20T10:00:34.000Z</time>
      </trkpt>
      <trkpt lat="45.32592" lon="4.62219">
        <ele>608.40002441406</ele>
        <time>2019-02-20T10:00:35.000Z</time>
      </trkpt>
      <trkpt lat="45.32599" lon="4.62222">
        <ele>607.20001220703</ele>
        <time>2019-02-20T10:00:36.000Z</time>
      </trkpt>
      <trkpt lat="45.32606" lon="4.62225">
        <ele>606.79998779297</ele>
        <time>2019-02-20T10:00:37.000Z</time>
      </trkpt>
      <trkpt lat="45.32614" lon="4.62228">
        <ele>606.79998779297</ele>
        <time>2019-02-20T10:00:38.000Z</time>
      </trkpt>
      <trkpt lat="45.32623" lon="4.62229">
        <ele>606.40002441406</ele>
        <time>2019-02-20T10:00:39.000Z</time>
      </trkpt>
      <trkpt lat="45.32632" lon="4.62231">
        <ele>606</ele>
        <time>2019-02-20T10:00:40.000Z</time>
      </trkpt>
      <trkpt lat="45.3264" lon="4.62231">
        <ele>605</ele>
        <time>2019-02-20T10:00:41.000Z</time>
      </trkpt>
      <trkpt lat="45.32648" lon="4.62231">
        <ele>604.59997558594</ele>
        <time>2019-02-20T10:00:42.000Z</time>
      </trkpt>
      <trkpt lat="45.32655" lon="4.6223">
        <ele>604</ele>
        <time>2019-02-20T10:00:43.000Z</time>
      </trkpt>
      <trkpt lat="45.3266" lon="4.62228">
        <ele>603.20001220703</ele>
        <time>2019-02-20T10:00:44.000Z</time>
      </trkpt>
      <trkpt lat="45.32665" lon="4.62227">
        <ele>601.20001220703</ele>
        <time>2019-02-20T10:00:45.000Z</time>
      </trkpt>
      <trkpt lat="45.32669" lon="4.62225">
        <ele>599.40002441406</ele>
        <time>2019-02-20T10:00:46.000Z</time>
      </trkpt>
      <trkpt lat="45.32673" lon="4.62224">
        <ele>597.79998779297</ele>
        <time>2019-02-20T10:00:47.000Z</time>
      </trkpt>
      <trkpt lat="45.32676" lon="4.62223">
        <ele>597</ele>
        <time>2019-02-20T10:00:48.000Z</time>
      </trkpt>
      <trkpt lat="45.32679" lon="4.62221">
        <ele>596.20001220703</ele>
        <time>2019-02-20T10:00:49.000Z</time>
      </trkpt>
      <trkpt lat="45.32682" lon="4.6222">
        <ele>595.79998779297</ele>
        <time>2019-02-20T10:00:50.000Z</time>
      </trkpt>
      <trkpt lat="45.32684" lon="4.62219">
        <ele>595.40002441406</ele>
        <time>2019-02-20T10:00:51.000Z</time>
      </trkpt>
      <trkpt lat="45.32687" lon="4.62218">
        <ele>594.79998779297</ele>
        <time>2019-02-20T10:00:52.000Z</time>
      </trkpt>
      <trkpt lat="45.32689" lon="4.62217">
        <ele>594.40002441406</ele>
        <time>2019-02-20T10:00:53.000Z</time>
      </trkpt>
      <trkpt lat="45.3269" lon="4.62217">
        <ele>594</ele>
        <time>2019-02-20T10:00:54.000Z</time>
      </trkpt>
      <trkpt lat="45.32691" lon="4.62216">
        <ele>594</ele>
        <time>2019-02-20T10:00:55.000Z</time>
      </trkpt>
      <trkpt lat="45.32691" lon="4.62216">
        <ele>593.59997558594</ele>
        <time>2019-02-20T10:00:56.000Z</time>
      </trkpt>
      <trkpt lat="45.32692" lon="4.62216">
        <ele>593.59997558594</ele>
        <time>2019-02-20T10:00:57.000Z</time>
      </trkpt>
      <trkpt lat="45.32693" lon="4.62216">
        <ele>593.40002441406</ele>
        <time>2019-02-20T10:00:58.000Z</time>
      </trkpt>
      <trkpt lat="45.32693" lon="4.62218">
        <ele>593</ele>
        <time>2019-02-20T10:00:59.000Z</time>
      </trkpt>
      <trkpt lat="45.32693" lon="4.62219">
        <ele>593</ele>
        <time>2019-02-20T10:01:00.000Z</time>
      </trkpt>
      <trkpt lat="45.32693" lon="4.6222">
        <ele>592.79998779297</ele>
        <time>2019-02-20T10:01:01.000Z</time>
      </trkpt>
      <trkpt lat="45.32692" lon="4.62221">
        <ele>592.79998779297</ele>
        <time>2019-02-20T10:01:02.000Z</time>
      </trkpt>
      <trkpt lat="45.3269" lon="4.62222">
        <ele>592.59997558594</ele>
        <time>2019-02-20T10:01:03.000Z</time>
      </trkpt>
      <trkpt lat="45.32689" lon="4.62224">
        <ele>592.59997558594</ele>
        <time>2019-02-20T10:01:04.000Z</time>
      </trkpt>
      <trkpt lat="45.32686" lon="4.62229">
        <ele>592.79998779297</ele>
        <time>2019-02-20T10:01:05.000Z</time>
      </trkpt>
      <trkpt lat="45.32684" lon="4.62233">
        <ele>592.59997558594</ele>
        <time>2019-02-20T10:01:06.000Z</time>
      </trkpt>
      <trkpt lat="45.3268" lon="4.62237">
        <ele>592.59997558594</ele>
        <time>2019-02-20T10:01:07.000Z</time>
      </trkpt>
      <trkpt lat="45.32676" lon="4.62241">
        <ele>592.40002441406</ele>
        <time>2019-02-20T10:01:08.000Z</time>
      </trkpt>
      <trkpt lat="45.32671" lon="4.62244">
        <ele>592.20001220703</ele>
        <time>2019-02-20T10:01:09.000Z</time>
      </trkpt>
      <trkpt lat="45.32667" lon="4.62248">
        <ele>591.79998779297</ele>
        <time>2019-02-20T10:01:10.000Z</time>
      </trkpt>
      <trkpt lat="45.32662" lon="4.62251">
        <ele>591.40002441406</ele>
        <time>2019-02-20T10:01:11.000Z</time>
      </trkpt>
      <trkpt lat="45.32659" lon="4.62254">
        <ele>591</ele>
        <time>2019-02-20T10:01:12.000Z</time>
      </trkpt>
      <trkpt lat="45.32656" lon="4.62257">
        <ele>589.20001220703</ele>
        <time>2019-02-20T10:01:13.000Z</time>
      </trkpt>
      <trkpt lat="45.32653" lon="4.6226">
        <ele>588.40002441406</ele>
        <time>2019-02-20T10:01:14.000Z</time>
      </trkpt>
      <trkpt lat="45.3265" lon="4.62264">
        <ele>587.79998779297</ele>
        <time>2019-02-20T10:01:15.000Z</time>
      </trkpt>
      <trkpt lat="45.32646" lon="4.62268">
        <ele>587</ele>
        <time>2019-02-20T10:01:16.000Z</time>
      </trkpt>
      <trkpt lat="45.32644" lon="4.6227">
        <ele>586.59997558594</ele>
        <time>2019-02-20T10:01:17.000Z</time>
      </trkpt>
      <trkpt lat="45.3264" lon="4.62273">
        <ele>585.59997558594</ele>
        <time>2019-02-20T10:01:18.000Z</time>
      </trkpt>
      <trkpt lat="45.32635" lon="4.62276">
        <ele>584.59997558594</ele>
        <time>2019-02-20T10:01:19.000Z</time>
      </trkpt>
      <trkpt lat="45.3263" lon="4.6228">
        <ele>584</ele>
        <time>2019-02-20T10:01:20.000Z</time>
      </trkpt>
      <trkpt lat="45.32625" lon="4.62285">
        <ele>583.59997558594</ele>
        <time>2019-02-20T10:01:21.000Z</time>
      </trkpt>
      <trkpt lat="45.3262" lon="4.62291">
        <ele>582.40002441406</ele>
        <time>2019-02-20T10:01:22.000Z</time>
      </trkpt>
      <trkpt lat="45.32615" lon="4.62298">
        <ele>581.59997558594</ele>
        <time>2019-02-20T10:01:23.000Z</time>
      </trkpt>
      <trkpt lat="45.32609" lon="4.62306">
        <ele>581</ele>
        <time>2019-02-20T10:01:24.000Z</time>
      </trkpt>
      <trkpt lat="45.32604" lon="4.62315">
        <ele>580.40002441406</ele>
        <time>2019-02-20T10:01:25.000Z</time>
      </trkpt>
      <trkpt lat="45.32598" lon="4.62326">
        <ele>579.20001220703</ele>
        <time>2019-02-20T10:01:26.000Z</time>
      </trkpt>
      <trkpt lat="45.32592" lon="4.62335">
        <ele>578.79998779297</ele>
        <time>2019-02-20T10:01:27.000Z</time>
      </trkpt>
      <trkpt lat="45.32587" lon="4.62344">
        <ele>577.79998779297</ele>
        <time>2019-02-20T10:01:28.000Z</time>
      </trkpt>
      <trkpt lat="45.32583" lon="4.62352">
        <ele>577.40002441406</ele>
        <time>2019-02-20T10:01:29.000Z</time>
      </trkpt>
      <trkpt lat="45.32579" lon="4.6236">
        <ele>576</ele>
        <time>2019-02-20T10:01:30.000Z</time>
      </trkpt>
      <trkpt lat="45.32575" lon="4.62369">
        <ele>573.79998779297</ele>
        <time>2019-02-20T10:01:31.000Z</time>
      </trkpt>
      <trkpt lat="45.32571" lon="4.62378">
        <ele>571.79998779297</ele>
        <time>2019-02-20T10:01:32.000Z</time>
      </trkpt>
      <trkpt lat="45.32567" lon="4.62387">
        <ele>570.20001220703</ele>
        <time>2019-02-20T10:01:33.000Z</time>
      </trkpt>
      <trkpt lat="45.32564" lon="4.62396">
        <ele>569.59997558594</ele>
        <time>2019-02-20T10:01:34.000Z</time>
      </trkpt>
      <trkpt lat="45.32562" lon="4.62407">
        <ele>568.40002441406</ele>
        <time>2019-02-20T10:01:35.000Z</time>
      </trkpt>
      <trkpt lat="45.3256" lon="4.62417">
        <ele>566.79998779297</ele>
        <time>2019-02-20T10:01:36.000Z</time>
      </trkpt>
      <trkpt lat="45.32558" lon="4.62427">
        <ele>565.59997558594</ele>
        <time>2019-02-20T10:01:37.000Z</time>
      </trkpt>
      <trkpt lat="45.32556" lon="4.62437">
        <ele>564.20001220703</ele>
        <time>2019-02-20T10:01:38.000Z</time>
      </trkpt>
      <trkpt lat="45.32553" lon="4.62448">
        <ele>563.20001220703</ele>
        <time>2019-02-20T10:01:39.000Z</time>
      </trkpt>
      <trkpt lat="45.32551" lon="4.62458">
        <ele>562</ele>
        <time>2019-02-20T10:01:40.000Z</time>
      </trkpt>
      <trkpt lat="45.32548" lon="4.62468">
        <ele>560.79998779297</ele>
        <time>2019-02-20T10:01:41.000Z</time>
      </trkpt>
      <trkpt lat="45.32546" lon="4.62477">
        <ele>559.40002441406</ele>
        <time>2019-02-20T10:01:42.000Z</time>
      </trkpt>
      <trkpt lat="45.32544" lon="4.62487">
        <ele>558.79998779297</ele>
        <time>2019-02-20T10:01:43.000Z</time>
      </trkpt>
      <trkpt lat="45.32542" lon="4.62496">
        <ele>557.40002441406</ele>
        <time>2019-02-20T10:01:44.000Z</time>
      </trkpt>
      <trkpt lat="45.32542" lon="4.62506">
        <ele>555.79998779297</ele>
        <time>2019-02-20T10:01:45.000Z</time>
      </trkpt>
      <trkpt lat="45.32542" lon="4.62516">
        <ele>554.20001220703</ele>
        <time>2019-02-20T10:01:46.000Z</time>
      </trkpt>
      <trkpt lat="45.32542" lon="4.62526">
        <ele>553.20001220703</ele>
        <time>2019-02-20T10:01:47.000Z</time>
      </trkpt>
      <trkpt lat="45.32542" lon="4.62537">
        <ele>552.59997558594</ele>
        <time>2019-02-20T10:01:48.000Z</time>
      </trkpt>
      <trkpt lat="45.32542" lon="4.62548">
        <ele>551.40002441406</ele>
        <time>2019-02-20T10:01:49.000Z</time>
      </trkpt>
      <trkpt lat="45.32543" lon="4.62557">
        <ele>549.79998779297</ele>
        <time>2019-02-20T10:01:50.000Z</time>
      </trkpt>
      <trkpt lat="45.32544" lon="4.62568">
        <ele>548</ele>
        <time>2019-02-20T10:01:51.000Z</time>
      </trkpt>
      <trkpt lat="45.32543" lon="4.6258">
        <ele>547.20001220703</ele>
        <time>2019-02-20T10:01:52.000Z</time>
      </trkpt>
      <trkpt lat="45.32541" lon="4.6259">
        <ele>546.59997558594</ele>
        <time>2019-02-20T10:01:53.000Z</time>
      </trkpt>
      <trkpt lat="45.3254" lon="4.62599">
        <ele>546</ele>
        <time>2019-02-20T10:01:54.000Z</time>
      </trkpt>
      <trkpt lat="45.32537" lon="4.62609">
        <ele>545.20001220703</ele>
        <time>2019-02-20T10:01:55.000Z</time>
      </trkpt>
      <trkpt lat="45.32533" lon="4.62618">
        <ele>544.20001220703</ele>
        <time>2019-02-20T10:01:56.000Z</time>
      </trkpt>
      <trkpt lat="45.32528" lon="4.62627">
        <ele>543</ele>
        <time>2019-02-20T10:01:57.000Z</time>
      </trkpt>
      <trkpt lat="45.32523" lon="4.62632">
        <ele>542</ele>
        <time>2019-02-20T10:01:58.000Z</time>
      </trkpt>
      <trkpt lat="45.32519" lon="4.62637">
        <ele>541.20001220703</ele>
        <time>2019-02-20T10:01:59.000Z</time>
      </trkpt>
      <trkpt lat="45.32515" lon="4.6264">
        <ele>540.20001220703</ele>
        <time>2019-02-20T10:02:00.000Z</time>
      </trkpt>
      <trkpt lat="45.32511" lon="4.62643">
        <ele>539.20001220703</ele>
        <time>2019-02-20T10:02:01.000Z</time>
      </trkpt>
      <trkpt lat="45.32509" lon="4.62644">
        <ele>538.20001220703</ele>
        <time>2019-02-20T10:02:02.000Z</time>
      </trkpt>
      <trkpt lat="45.32507" lon="4.62646">
        <ele>537.59997558594</ele>
        <time>2019-02-20T10:02:03.000Z</time>
      </trkpt>
      <trkpt lat="45.32506" lon="4.62648">
        <ele>537</ele>
        <time>2019-02-20T10:02:04.000Z</time>
      </trkpt>
      <trkpt lat="45.32505" lon="4.62649">
        <ele>536.40002441406</ele>
        <time>2019-02-20T10:02:05.000Z</time>
      </trkpt>
      <trkpt lat="45.32505" lon="4.6265">
        <ele>536.20001220703</ele>
        <time>2019-02-20T10:02:06.000Z</time>
      </trkpt>
      <trkpt lat="45.32505" lon="4.6265">
        <ele>535.79998779297</ele>
        <time>2019-02-20T10:02:07.000Z</time>
      </trkpt>
      <trkpt lat="45.32507" lon="4.62656">
        <ele>534.79998779297</ele>
        <time>2019-02-20T10:02:18.000Z</time>
      </trkpt>
      <trkpt lat="45.32509" lon="4.62657">
        <ele>534.79998779297</ele>
        <time>2019-02-20T10:02:19.000Z</time>
      </trkpt>
      <trkpt lat="45.32511" lon="4.62658">
        <ele>534.59997558594</ele>
        <time>2019-02-20T10:02:20.000Z</time>
      </trkpt>
      <trkpt lat="45.32514" lon="4.62659">
        <ele>534.79998779297</ele>
        <time>2019-02-20T10:02:21.000Z</time>
      </trkpt>
      <trkpt lat="45.32517" lon="4.62661">
        <ele>534.59997558594</ele>
        <time>2019-02-20T10:02:22.000Z</time>
      </trkpt>
      <trkpt lat="45.32521" lon="4.62663">
        <ele>534.59997558594</ele>
        <time>2019-02-20T10:02:23.000Z</time>
      </trkpt>
      <trkpt lat="45.32524" lon="4.62665">
        <ele>534.59997558594</ele>
        <time>2019-02-20T10:02:24.000Z</time>
      </trkpt>
      <trkpt lat="45.32529" lon="4.62667">
        <ele>534.59997558594</ele>
        <time>2019-02-20T10:02:25.000Z</time>
      </trkpt>
      <trkpt lat="45.32533" lon="4.62669">
        <ele>534.59997558594</ele>
        <time>2019-02-20T10:02:26.000Z</time>
      </trkpt>
      <trkpt lat="45.32538" lon="4.62672">
        <ele>534.40002441406</ele>
        <time>2019-02-20T10:02:27.000Z</time>
      </trkpt>
      <trkpt lat="45.32542" lon="4.62674">
        <ele>534.40002441406</ele>
        <time>2019-02-20T10:02:28.000Z</time>
      </trkpt>
      <trkpt lat="45.32545" lon="4.62676">
        <ele>534.20001220703</ele>
        <time>2019-02-20T10:02:29.000Z</time>
      </trkpt>
      <trkpt lat="45.32548" lon="4.62679">
        <ele>534</ele>
        <time>2019-02-20T10:02:30.000Z</time>
      </trkpt>
      <trkpt lat="45.32549" lon="4.62682">
        <ele>533.59997558594</ele>
        <time>2019-02-20T10:02:31.000Z</time>
      </trkpt>
      <trkpt lat="45.32548" lon="4.62685">
        <ele>533.40002441406</ele>
        <time>2019-02-20T10:02:32.000Z</time>
      </trkpt>
      <trkpt lat="45.32544" lon="4.62687">
        <ele>533</ele>
        <time>2019-02-20T10:02:33.000Z</time>
      </trkpt>
      <trkpt lat="45.3254" lon="4.62688">
        <ele>532.20001220703</ele>
        <time>2019-02-20T10:02:34.000Z</time>
      </trkpt>
      <trkpt lat="45.32536" lon="4.62688">
        <ele>532</ele>
        <time>2019-02-20T10:02:35.000Z</time>
      </trkpt>
      <trkpt lat="45.32532" lon="4.62689">
        <ele>531.79998779297</ele>
        <time>2019-02-20T10:02:36.000Z</time>
      </trkpt>
      <trkpt lat="45.32527" lon="4.62691">
        <ele>531.20001220703</ele>
        <time>2019-02-20T10:02:37.000Z</time>
      </trkpt>
      <trkpt lat="45.32523" lon="4.62693">
        <ele>531</ele>
        <time>2019-02-20T10:02:38.000Z</time>
      </trkpt>
      <trkpt lat="45.32519" lon="4.62695">
        <ele>530.59997558594</ele>
        <time>2019-02-20T10:02:39.000Z</time>
      </trkpt>
      <trkpt lat="45.32515" lon="4.62697">
        <ele>530.20001220703</ele>
        <time>2019-02-20T10:02:40.000Z</time>
      </trkpt>
      <trkpt lat="45.32512" lon="4.627">
        <ele>530</ele>
        <time>2019-02-20T10:02:41.000Z</time>
      </trkpt>
      <trkpt lat="45.32508" lon="4.62704">
        <ele>529.40002441406</ele>
        <time>2019-02-20T10:02:42.000Z</time>
      </trkpt>
      <trkpt lat="45.32505" lon="4.62709">
        <ele>528.79998779297</ele>
        <time>2019-02-20T10:02:43.000Z</time>
      </trkpt>
      <trkpt lat="45.32502" lon="4.62714">
        <ele>528.40002441406</ele>
        <time>2019-02-20T10:02:44.000Z</time>
      </trkpt>
      <trkpt lat="45.32499" lon="4.6272">
        <ele>528.20001220703</ele>
        <time>2019-02-20T10:02:45.000Z</time>
      </trkpt>
      <trkpt lat="45.32496" lon="4.62726">
        <ele>527.79998779297</ele>
        <time>2019-02-20T10:02:46.000Z</time>
      </trkpt>
      <trkpt lat="45.32493" lon="4.62733">
        <ele>527.59997558594</ele>
        <time>2019-02-20T10:02:47.000Z</time>
      </trkpt>
      <trkpt lat="45.32491" lon="4.6274">
        <ele>527.20001220703</ele>
        <time>2019-02-20T10:02:48.000Z</time>
      </trkpt>
      <trkpt lat="45.32488" lon="4.62747">
        <ele>526.79998779297</ele>
        <time>2019-02-20T10:02:49.000Z</time>
      </trkpt>
      <trkpt lat="45.32485" lon="4.62754">
        <ele>526.40002441406</ele>
        <time>2019-02-20T10:02:50.000Z</time>
      </trkpt>
      <trkpt lat="45.32481" lon="4.62762">
        <ele>526.40002441406</ele>
        <time>2019-02-20T10:02:51.000Z</time>
      </trkpt>
      <trkpt lat="45.32478" lon="4.6277">
        <ele>525.20001220703</ele>
        <time>2019-02-20T10:02:52.000Z</time>
      </trkpt>
      <trkpt lat="45.32474" lon="4.62779">
        <ele>525</ele>
        <time>2019-02-20T10:02:53.000Z</time>
      </trkpt>
      <trkpt lat="45.32471" lon="4.62787">
        <ele>524.59997558594</ele>
        <time>2019-02-20T10:02:54.000Z</time>
      </trkpt>
      <trkpt lat="45.32467" lon="4.62796">
        <ele>524.20001220703</ele>
        <time>2019-02-20T10:02:55.000Z</time>
      </trkpt>
      <trkpt lat="45.32464" lon="4.62805">
        <ele>523.59997558594</ele>
        <time>2019-02-20T10:02:56.000Z</time>
      </trkpt>
      <trkpt lat="45.3246" lon="4.62813">
        <ele>523.40002441406</ele>
        <time>2019-02-20T10:02:57.000Z</time>
      </trkpt>
      <trkpt lat="45.32455" lon="4.62821">
        <ele>523</ele>
        <time>2019-02-20T10:02:58.000Z</time>
      </trkpt>
      <trkpt lat="45.3245" lon="4.6283">
        <ele>522.79998779297</ele>
        <time>2019-02-20T10:02:59.000Z</time>
      </trkpt>
      <trkpt lat="45.32445" lon="4.62838">
        <ele>522.40002441406</ele>
        <time>2019-02-20T10:03:00.000Z</time>
      </trkpt>
      <trkpt lat="45.3244" lon="4.62846">
        <ele>522</ele>
        <time>2019-02-20T10:03:01.000Z</time>
      </trkpt>
      <trkpt lat="45.32434" lon="4.62855">
        <ele>521.40002441406</ele>
        <time>2019-02-20T10:03:02.000Z</time>
      </trkpt>
      <trkpt lat="45.32428" lon="4.62863">
        <ele>520.59997558594</ele>
        <time>2019-02-20T10:03:03.000Z</time>
      </trkpt>
      <trkpt lat="45.32421" lon="4.62871">
        <ele>519.79998779297</ele>
        <time>2019-02-20T10:03:04.000Z</time>
      </trkpt>
      <trkpt lat="45.32415" lon="4.62879">
        <ele>519.20001220703</ele>
        <time>2019-02-20T10:03:05.000Z</time>
      </trkpt>
      <trkpt lat="45.32408" lon="4.62886">
        <ele>518.40002441406</ele>
        <time>2019-02-20T10:03:06.000Z</time>
      </trkpt>
      <trkpt lat="45.32401" lon="4.62893">
        <ele>517.79998779297</ele>
        <time>2019-02-20T10:03:07.000Z</time>
      </trkpt>
      <trkpt lat="45.32395" lon="4.629">
        <ele>517.20001220703</ele>
        <time>2019-02-20T10:03:08.000Z</time>
      </trkpt>
      <trkpt lat="45.32388" lon="4.62908">
        <ele>516.59997558594</ele>
        <time>2019-02-20T10:03:09.000Z</time>
      </trkpt>
      <trkpt lat="45.32382" lon="4.62916">
        <ele>516.20001220703</ele>
        <time>2019-02-20T10:03:10.000Z</time>
      </trkpt>
      <trkpt lat="45.32376" lon="4.62925">
        <ele>516</ele>
        <time>2019-02-20T10:03:11.000Z</time>
      </trkpt>
      <trkpt lat="45.32371" lon="4.62935">
        <ele>515.40002441406</ele>
        <time>2019-02-20T10:03:12.000Z</time>
      </trkpt>
      <trkpt lat="45.32365" lon="4.62944">
        <ele>515</ele>
        <time>2019-02-20T10:03:13.000Z</time>
      </trkpt>
      <trkpt lat="45.3236" lon="4.62953">
        <ele>514.40002441406</ele>
        <time>2019-02-20T10:03:14.000Z</time>
      </trkpt>
      <trkpt lat="45.32354" lon="4.62963">
        <ele>514.40002441406</ele>
        <time>2019-02-20T10:03:15.000Z</time>
      </trkpt>
      <trkpt lat="45.32349" lon="4.62972">
        <ele>513.79998779297</ele>
        <time>2019-02-20T10:03:16.000Z</time>
      </trkpt>
      <trkpt lat="45.32343" lon="4.62981">
        <ele>513.59997558594</ele>
        <time>2019-02-20T10:03:17.000Z</time>
      </trkpt>
      <trkpt lat="45.32338" lon="4.62991">
        <ele>513</ele>
        <time>2019-02-20T10:03:18.000Z</time>
      </trkpt>
      <trkpt lat="45.32333" lon="4.63001">
        <ele>511.79998779297</ele>
        <time>2019-02-20T10:03:19.000Z</time>
      </trkpt>
      <trkpt lat="45.32328" lon="4.63012">
        <ele>510.60000610352</ele>
        <time>2019-02-20T10:03:20.000Z</time>
      </trkpt>
      <trkpt lat="45.32325" lon="4.63024">
        <ele>509.79998779297</ele>
        <time>2019-02-20T10:03:21.000Z</time>
      </trkpt>
      <trkpt lat="45.32324" lon="4.63035">
        <ele>509.39999389648</ele>
        <time>2019-02-20T10:03:22.000Z</time>
      </trkpt>
      <trkpt lat="45.32322" lon="4.63047">
        <ele>509</ele>
        <time>2019-02-20T10:03:23.000Z</time>
      </trkpt>
      <trkpt lat="45.32321" lon="4.63059">
        <ele>508.79998779297</ele>
        <time>2019-02-20T10:03:24.000Z</time>
      </trkpt>
      <trkpt lat="45.32321" lon="4.63071">
        <ele>508.79998779297</ele>
        <time>2019-02-20T10:03:25.000Z</time>
      </trkpt>
      <trkpt lat="45.3232" lon="4.63084">
        <ele>508.20001220703</ele>
        <time>2019-02-20T10:03:26.000Z</time>
      </trkpt>
      <trkpt lat="45.32319" lon="4.63098">
        <ele>507.79998779297</ele>
        <time>2019-02-20T10:03:27.000Z</time>
      </trkpt>
      <trkpt lat="45.32318" lon="4.63111">
        <ele>507</ele>
        <time>2019-02-20T10:03:28.000Z</time>
      </trkpt>
      <trkpt lat="45.32318" lon="4.63124">
        <ele>506.20001220703</ele>
        <time>2019-02-20T10:03:29.000Z</time>
      </trkpt>
      <trkpt lat="45.32317" lon="4.63136">
        <ele>505.39999389648</ele>
        <time>2019-02-20T10:03:30.000Z</time>
      </trkpt>
      <trkpt lat="45.32318" lon="4.63149">
        <ele>504.79998779297</ele>
        <time>2019-02-20T10:03:31.000Z</time>
      </trkpt>
      <trkpt lat="45.32319" lon="4.63161">
        <ele>504</ele>
        <time>2019-02-20T10:03:32.000Z</time>
      </trkpt>
      <trkpt lat="45.32319" lon="4.63172">
        <ele>503.39999389648</ele>
        <time>2019-02-20T10:03:33.000Z</time>
      </trkpt>
      <trkpt lat="45.3232" lon="4.63183">
        <ele>503.20001220703</ele>
        <time>2019-02-20T10:03:34.000Z</time>
      </trkpt>
      <trkpt lat="45.32321" lon="4.63193">
        <ele>503</ele>
        <time>2019-02-20T10:03:35.000Z</time>
      </trkpt>
      <trkpt lat="45.32322" lon="4.63203">
        <ele>503</ele>
        <time>2019-02-20T10:03:36.000Z</time>
      </trkpt>
      <trkpt lat="45.32322" lon="4.63212">
        <ele>502.79998779297</ele>
        <time>2019-02-20T10:03:37.000Z</time>
      </trkpt>
      <trkpt lat="45.32323" lon="4.63221">
        <ele>503</ele>
        <time>2019-02-20T10:03:38.000Z</time>
      </trkpt>
      <trkpt lat="45.32323" lon="4.6323">
        <ele>503</ele>
        <time>2019-02-20T10:03:39.000Z</time>
      </trkpt>
      <trkpt lat="45.32323" lon="4.63238">
        <ele>503</ele>
        <time>2019-02-20T10:03:40.000Z</time>
      </trkpt>
      <trkpt lat="45.32322" lon="4.63246">
        <ele>503</ele>
        <time>2019-02-20T10:03:41.000Z</time>
      </trkpt>
      <trkpt lat="45.32322" lon="4.63252">
        <ele>503</ele>
        <time>2019-02-20T10:03:42.000Z</time>
      </trkpt>
      <trkpt lat="45.32322" lon="4.63259">
        <ele>503.20001220703</ele>
        <time>2019-02-20T10:03:43.000Z</time>
      </trkpt>
      <trkpt lat="45.32322" lon="4.63265">
        <ele>503.20001220703</ele>
        <time>2019-02-20T10:03:44.000Z</time>
      </trkpt>
      <trkpt lat="45.32321" lon="4.63272">
        <ele>503.39999389648</ele>
        <time>2019-02-20T10:03:45.000Z</time>
      </trkpt>
      <trkpt lat="45.3232" lon="4.63278">
        <ele>503.60000610352</ele>
        <time>2019-02-20T10:03:46.000Z</time>
      </trkpt>
      <trkpt lat="45.32319" lon="4.63283">
        <ele>503.79998779297</ele>
        <time>2019-02-20T10:03:47.000Z</time>
      </trkpt>
      <trkpt lat="45.32319" lon="4.63289">
        <ele>504.39999389648</ele>
        <time>2019-02-20T10:03:48.000Z</time>
      </trkpt>
      <trkpt lat="45.32318" lon="4.63295">
        <ele>504.79998779297</ele>
        <time>2019-02-20T10:03:49.000Z</time>
      </trkpt>
      <trkpt lat="45.32317" lon="4.633">
        <ele>505.20001220703</ele>
        <time>2019-02-20T10:03:50.000Z</time>
      </trkpt>
      <trkpt lat="45.32315" lon="4.63306">
        <ele>505.60000610352</ele>
        <time>2019-02-20T10:03:51.000Z</time>
      </trkpt>
      <trkpt lat="45.32314" lon="4.63311">
        <ele>505.60000610352</ele>
        <time>2019-02-20T10:03:52.000Z</time>
      </trkpt>
      <trkpt lat="45.32313" lon="4.63317">
        <ele>505.79998779297</ele>
        <time>2019-02-20T10:03:53.000Z</time>
      </trkpt>
      <trkpt lat="45.32311" lon="4.63323">
        <ele>506.20001220703</ele>
        <time>2019-02-20T10:03:54.000Z</time>
      </trkpt>
      <trkpt lat="45.3231" lon="4.63328">
        <ele>506.20001220703</ele>
        <time>2019-02-20T10:03:55.000Z</time>
      </trkpt>
      <trkpt lat="45.32308" lon="4.63334">
        <ele>506.39999389648</ele>
        <time>2019-02-20T10:03:56.000Z</time>
      </trkpt>
      <trkpt lat="45.32306" lon="4.63339">
        <ele>506.39999389648</ele>
        <time>2019-02-20T10:03:57.000Z</time>
      </trkpt>
      <trkpt lat="45.32304" lon="4.63344">
        <ele>506.39999389648</ele>
        <time>2019-02-20T10:03:58.000Z</time>
      </trkpt>
      <trkpt lat="45.32302" lon="4.63349">
        <ele>506.39999389648</ele>
        <time>2019-02-20T10:03:59.000Z</time>
      </trkpt>
      <trkpt lat="45.323" lon="4.63354">
        <ele>506.60000610352</ele>
        <time>2019-02-20T10:04:00.000Z</time>
      </trkpt>
      <trkpt lat="45.32297" lon="4.63359">
        <ele>506.60000610352</ele>
        <time>2019-02-20T10:04:01.000Z</time>
      </trkpt>
      <trkpt lat="45.32295" lon="4.63364">
        <ele>506.60000610352</ele>
        <time>2019-02-20T10:04:02.000Z</time>
      </trkpt>
      <trkpt lat="45.32292" lon="4.63368">
        <ele>506.60000610352</ele>
        <time>2019-02-20T10:04:03.000Z</time>
      </trkpt>
      <trkpt lat="45.32289" lon="4.63373">
        <ele>506.79998779297</ele>
        <time>2019-02-20T10:04:04.000Z</time>
      </trkpt>
      <trkpt lat="45.32287" lon="4.63378">
        <ele>506.79998779297</ele>
        <time>2019-02-20T10:04:05.000Z</time>
      </trkpt>
      <trkpt lat="45.32284" lon="4.63382">
        <ele>506.79998779297</ele>
        <time>2019-02-20T10:04:06.000Z</time>
      </trkpt>
      <trkpt lat="45.32282" lon="4.63388">
        <ele>506.79998779297</ele>
        <time>2019-02-20T10:04:07.000Z</time>
      </trkpt>
      <trkpt lat="45.32279" lon="4.63393">
        <ele>506.79998779297</ele>
        <time>2019-02-20T10:04:08.000Z</time>
      </trkpt>
      <trkpt lat="45.32277" lon="4.63398">
        <ele>507</ele>
        <time>2019-02-20T10:04:09.000Z</time>
      </trkpt>
      <trkpt lat="45.32275" lon="4.63404">
        <ele>506.79998779297</ele>
        <time>2019-02-20T10:04:10.000Z</time>
      </trkpt>
      <trkpt lat="45.32273" lon="4.6341">
        <ele>506.60000610352</ele>
        <time>2019-02-20T10:04:11.000Z</time>
      </trkpt>
      <trkpt lat="45.32271" lon="4.63416">
        <ele>506.60000610352</ele>
        <time>2019-02-20T10:04:12.000Z</time>
      </trkpt>
      <trkpt lat="45.32269" lon="4.63423">
        <ele>506.60000610352</ele>
        <time>2019-02-20T10:04:13.000Z</time>
      </trkpt>
      <trkpt lat="45.32267" lon="4.6343">
        <ele>506.39999389648</ele>
        <time>2019-02-20T10:04:14.000Z</time>
      </trkpt>
      <trkpt lat="45.32265" lon="4.63438">
        <ele>506.39999389648</ele>
        <time>2019-02-20T10:04:15.000Z</time>
      </trkpt>
      <trkpt lat="45.32263" lon="4.63446">
        <ele>506.39999389648</ele>
        <time>2019-02-20T10:04:16.000Z</time>
      </trkpt>
      <trkpt lat="45.32261" lon="4.63455">
        <ele>506.20001220703</ele>
        <time>2019-02-20T10:04:17.000Z</time>
      </trkpt>
      <trkpt lat="45.32259" lon="4.63463">
        <ele>506</ele>
        <time>2019-02-20T10:04:18.000Z</time>
      </trkpt>
      <trkpt lat="45.32257" lon="4.63472">
        <ele>505.79998779297</ele>
        <time>2019-02-20T10:04:19.000Z</time>
      </trkpt>
      <trkpt lat="45.32255" lon="4.63481">
        <ele>505.20001220703</ele>
        <time>2019-02-20T10:04:20.000Z</time>
      </trkpt>
      <trkpt lat="45.32253" lon="4.63489">
        <ele>505</ele>
        <time>2019-02-20T10:04:21.000Z</time>
      </trkpt>
      <trkpt lat="45.3225" lon="4.63497">
        <ele>504.79998779297</ele>
        <time>2019-02-20T10:04:22.000Z</time>
      </trkpt>
      <trkpt lat="45.32248" lon="4.63505">
        <ele>504.39999389648</ele>
        <time>2019-02-20T10:04:23.000Z</time>
      </trkpt>
      <trkpt lat="45.32246" lon="4.63512">
        <ele>504</ele>
        <time>2019-02-20T10:04:24.000Z</time>
      </trkpt>
      <trkpt lat="45.32245" lon="4.6352">
        <ele>503.60000610352</ele>
        <time>2019-02-20T10:04:25.000Z</time>
      </trkpt>
      <trkpt lat="45.32246" lon="4.63527">
        <ele>503.39999389648</ele>
        <time>2019-02-20T10:04:26.000Z</time>
      </trkpt>
      <trkpt lat="45.32248" lon="4.63533">
        <ele>503.20001220703</ele>
        <time>2019-02-20T10:04:27.000Z</time>
      </trkpt>
      <trkpt lat="45.32249" lon="4.63539">
        <ele>502.79998779297</ele>
        <time>2019-02-20T10:04:28.000Z</time>
      </trkpt>
      <trkpt lat="45.32251" lon="4.63545">
        <ele>502.60000610352</ele>
        <time>2019-02-20T10:04:29.000Z</time>
      </trkpt>
      <trkpt lat="45.32254" lon="4.63551">
        <ele>502.60000610352</ele>
        <time>2019-02-20T10:04:30.000Z</time>
      </trkpt>
      <trkpt lat="45.32256" lon="4.63557">
        <ele>502.20001220703</ele>
        <time>2019-02-20T10:04:31.000Z</time>
      </trkpt>
      <trkpt lat="45.32258" lon="4.63563">
        <ele>502.20001220703</ele>
        <time>2019-02-20T10:04:32.000Z</time>
      </trkpt>
      <trkpt lat="45.32259" lon="4.63569">
        <ele>502</ele>
        <time>2019-02-20T10:04:33.000Z</time>
      </trkpt>
      <trkpt lat="45.32261" lon="4.63575">
        <ele>502</ele>
        <time>2019-02-20T10:04:34.000Z</time>
      </trkpt>
      <trkpt lat="45.32262" lon="4.6358">
        <ele>502</ele>
        <time>2019-02-20T10:04:35.000Z</time>
      </trkpt>
      <trkpt lat="45.32264" lon="4.63585">
        <ele>501.79998779297</ele>
        <time>2019-02-20T10:04:36.000Z</time>
      </trkpt>
      <trkpt lat="45.32265" lon="4.6359">
        <ele>502</ele>
        <time>2019-02-20T10:04:37.000Z</time>
      </trkpt>
      <trkpt lat="45.32267" lon="4.63595">
        <ele>501.79998779297</ele>
        <time>2019-02-20T10:04:38.000Z</time>
      </trkpt>
      <trkpt lat="45.32268" lon="4.63599">
        <ele>501.79998779297</ele>
        <time>2019-02-20T10:04:39.000Z</time>
      </trkpt>
      <trkpt lat="45.32269" lon="4.63603">
        <ele>501.79998779297</ele>
        <time>2019-02-20T10:04:40.000Z</time>
      </trkpt>
      <trkpt lat="45.3227" lon="4.63608">
        <ele>502</ele>
        <time>2019-02-20T10:04:41.000Z</time>
      </trkpt>
      <trkpt lat="45.32271" lon="4.63612">
        <ele>502</ele>
        <time>2019-02-20T10:04:42.000Z</time>
      </trkpt>
      <trkpt lat="45.32271" lon="4.63616">
        <ele>502</ele>
        <time>2019-02-20T10:04:43.000Z</time>
      </trkpt>
      <trkpt lat="45.32272" lon="4.6362">
        <ele>502.39999389648</ele>
        <time>2019-02-20T10:04:44.000Z</time>
      </trkpt>
      <trkpt lat="45.32273" lon="4.63623">
        <ele>502.39999389648</ele>
        <time>2019-02-20T10:04:45.000Z</time>
      </trkpt>
      <trkpt lat="45.32274" lon="4.63627">
        <ele>502.79998779297</ele>
        <time>2019-02-20T10:04:46.000Z</time>
      </trkpt>
      <trkpt lat="45.32275" lon="4.6363">
        <ele>503</ele>
        <time>2019-02-20T10:04:47.000Z</time>
      </trkpt>
      <trkpt lat="45.32277" lon="4.63634">
        <ele>503</ele>
        <time>2019-02-20T10:04:48.000Z</time>
      </trkpt>
      <trkpt lat="45.32278" lon="4.63637">
        <ele>503.39999389648</ele>
        <time>2019-02-20T10:04:49.000Z</time>
      </trkpt>
      <trkpt lat="45.3228" lon="4.6364">
        <ele>503.79998779297</ele>
        <time>2019-02-20T10:04:50.000Z</time>
      </trkpt>
      <trkpt lat="45.32281" lon="4.63643">
        <ele>504</ele>
        <time>2019-02-20T10:04:51.000Z</time>
      </trkpt>
      <trkpt lat="45.32283" lon="4.63647">
        <ele>504.39999389648</ele>
        <time>2019-02-20T10:04:52.000Z</time>
      </trkpt>
      <trkpt lat="45.32284" lon="4.63651">
        <ele>504.79998779297</ele>
        <time>2019-02-20T10:04:53.000Z</time>
      </trkpt>
      <trkpt lat="45.32285" lon="4.63654">
        <ele>505</ele>
        <time>2019-02-20T10:04:54.000Z</time>
      </trkpt>
      <trkpt lat="45.32286" lon="4.63658">
        <ele>505.39999389648</ele>
        <time>2019-02-20T10:04:55.000Z</time>
      </trkpt>
      <trkpt lat="45.32287" lon="4.63662">
        <ele>505.60000610352</ele>
        <time>2019-02-20T10:04:56.000Z</time>
      </trkpt>
      <trkpt lat="45.32288" lon="4.63666">
        <ele>505.79998779297</ele>
        <time>2019-02-20T10:04:57.000Z</time>
      </trkpt>
      <trkpt lat="45.32289" lon="4.6367">
        <ele>506</ele>
        <time>2019-02-20T10:04:58.000Z</time>
      </trkpt>
      <trkpt lat="45.3229" lon="4.63673">
        <ele>506.20001220703</ele>
        <time>2019-02-20T10:04:59.000Z</time>
      </trkpt>
      <trkpt lat="45.32292" lon="4.63676">
        <ele>506.39999389648</ele>
        <time>2019-02-20T10:05:00.000Z</time>
      </trkpt>
      <trkpt lat="45.32293" lon="4.63679">
        <ele>506.39999389648</ele>
        <time>2019-02-20T10:05:01.000Z</time>
      </trkpt>
      <trkpt lat="45.32295" lon="4.63682">
        <ele>506.39999389648</ele>
        <time>2019-02-20T10:05:02.000Z</time>
      </trkpt>
      <trkpt lat="45.32296" lon="4.63685">
        <ele>506.39999389648</ele>
        <time>2019-02-20T10:05:03.000Z</time>
      </trkpt>
      <trkpt lat="45.32298" lon="4.63689">
        <ele>506.60000610352</ele>
        <time>2019-02-20T10:05:04.000Z</time>
      </trkpt>
      <trkpt lat="45.323" lon="4.63693">
        <ele>506.60000610352</ele>
        <time>2019-02-20T10:05:05.000Z</time>
      </trkpt>
      <trkpt lat="45.32301" lon="4.63698">
        <ele>506.60000610352</ele>
        <time>2019-02-20T10:05:06.000Z</time>
      </trkpt>
      <trkpt lat="45.32303" lon="4.63702">
        <ele>506.79998779297</ele>
        <time>2019-02-20T10:05:07.000Z</time>
      </trkpt>
      <trkpt lat="45.32304" lon="4.63707">
        <ele>506.79998779297</ele>
        <time>2019-02-20T10:05:08.000Z</time>
      </trkpt>
      <trkpt lat="45.32306" lon="4.63711">
        <ele>506.79998779297</ele>
        <time>2019-02-20T10:05:09.000Z</time>
      </trkpt>
      <trkpt lat="45.32307" lon="4.63716">
        <ele>506.79998779297</ele>
        <time>2019-02-20T10:05:10.000Z</time>
      </trkpt>
      <trkpt lat="45.32309" lon="4.6372">
        <ele>507</ele>
        <time>2019-02-20T10:05:11.000Z</time>
      </trkpt>
      <trkpt lat="45.32311" lon="4.63724">
        <ele>507</ele>
        <time>2019-02-20T10:05:12.000Z</time>
      </trkpt>
      <trkpt lat="45.32312" lon="4.63728">
        <ele>507.20001220703</ele>
        <time>2019-02-20T10:05:13.000Z</time>
      </trkpt>
      <trkpt lat="45.32313" lon="4.63733">
        <ele>507.20001220703</ele>
        <time>2019-02-20T10:05:14.000Z</time>
      </trkpt>
      <trkpt lat="45.32315" lon="4.63737">
        <ele>507.39999389648</ele>
        <time>2019-02-20T10:05:15.000Z</time>
      </trkpt>
      <trkpt lat="45.32316" lon="4.63741">
        <ele>507.39999389648</ele>
        <time>2019-02-20T10:05:16.000Z</time>
      </trkpt>
      <trkpt lat="45.32317" lon="4.63744">
        <ele>507.20001220703</ele>
        <time>2019-02-20T10:05:17.000Z</time>
      </trkpt>
      <trkpt lat="45.32318" lon="4.63748">
        <ele>507.39999389648</ele>
        <time>2019-02-20T10:05:18.000Z</time>
      </trkpt>
      <trkpt lat="45.32319" lon="4.63752">
        <ele>507.39999389648</ele>
        <time>2019-02-20T10:05:19.000Z</time>
      </trkpt>
      <trkpt lat="45.3232" lon="4.63756">
        <ele>507.60000610352</ele>
        <time>2019-02-20T10:05:20.000Z</time>
      </trkpt>
      <trkpt lat="45.32321" lon="4.6376">
        <ele>507.39999389648</ele>
        <time>2019-02-20T10:05:21.000Z</time>
      </trkpt>
      <trkpt lat="45.32322" lon="4.63764">
        <ele>507.39999389648</ele>
        <time>2019-02-20T10:05:22.000Z</time>
      </trkpt>
      <trkpt lat="45.32323" lon="4.63768">
        <ele>507.39999389648</ele>
        <time>2019-02-20T10:05:23.000Z</time>
      </trkpt>
      <trkpt lat="45.32324" lon="4.63772">
        <ele>507.39999389648</ele>
        <time>2019-02-20T10:05:24.000Z</time>
      </trkpt>
      <trkpt lat="45.32325" lon="4.63775">
        <ele>507.39999389648</ele>
        <time>2019-02-20T10:05:25.000Z</time>
      </trkpt>
      <trkpt lat="45.32326" lon="4.63779">
        <ele>507.39999389648</ele>
        <time>2019-02-20T10:05:26.000Z</time>
      </trkpt>
      <trkpt lat="45.32327" lon="4.63783">
        <ele>507.60000610352</ele>
        <time>2019-02-20T10:05:27.000Z</time>
      </trkpt>
      <trkpt lat="45.32328" lon="4.63787">
        <ele>507.60000610352</ele>
        <time>2019-02-20T10:05:28.000Z</time>
      </trkpt>
      <trkpt lat="45.32329" lon="4.63791">
        <ele>507.60000610352</ele>
        <time>2019-02-20T10:05:29.000Z</time>
      </trkpt>
      <trkpt lat="45.3233" lon="4.63795">
        <ele>507.79998779297</ele>
        <time>2019-02-20T10:05:30.000Z</time>
      </trkpt>
      <trkpt lat="45.32331" lon="4.63798">
        <ele>507.79998779297</ele>
        <time>2019-02-20T10:05:31.000Z</time>
      </trkpt>
      <trkpt lat="45.32332" lon="4.63803">
        <ele>507.79998779297</ele>
        <time>2019-02-20T10:05:32.000Z</time>
      </trkpt>
      <trkpt lat="45.32334" lon="4.63807">
        <ele>508</ele>
        <time>2019-02-20T10:05:33.000Z</time>
      </trkpt>
      <trkpt lat="45.32335" lon="4.63811">
        <ele>508</ele>
        <time>2019-02-20T10:05:34.000Z</time>
      </trkpt>
      <trkpt lat="45.32336" lon="4.63816">
        <ele>508</ele>
        <time>2019-02-20T10:05:35.000Z</time>
      </trkpt>
      <trkpt lat="45.32337" lon="4.63821">
        <ele>508</ele>
        <time>2019-02-20T10:05:36.000Z</time>
      </trkpt>
      <trkpt lat="45.32339" lon="4.63826">
        <ele>508</ele>
        <time>2019-02-20T10:05:37.000Z</time>
      </trkpt>
      <trkpt lat="45.3234" lon="4.63832">
        <ele>508</ele>
        <time>2019-02-20T10:05:38.000Z</time>
      </trkpt>
      <trkpt lat="45.32341" lon="4.63838">
        <ele>507.79998779297</ele>
        <time>2019-02-20T10:05:39.000Z</time>
      </trkpt>
      <trkpt lat="45.32342" lon="4.63844">
        <ele>508</ele>
        <time>2019-02-20T10:05:40.000Z</time>
      </trkpt>
      <trkpt lat="45.32343" lon="4.6385">
        <ele>508</ele>
        <time>2019-02-20T10:05:41.000Z</time>
      </trkpt>
      <trkpt lat="45.32344" lon="4.63856">
        <ele>507.79998779297</ele>
        <time>2019-02-20T10:05:42.000Z</time>
      </trkpt>
      <trkpt lat="45.32345" lon="4.63862">
        <ele>507.60000610352</ele>
        <time>2019-02-20T10:05:43.000Z</time>
      </trkpt>
      <trkpt lat="45.32346" lon="4.63868">
        <ele>507.79998779297</ele>
        <time>2019-02-20T10:05:44.000Z</time>
      </trkpt>
      <trkpt lat="45.32347" lon="4.63874">
        <ele>507.60000610352</ele>
        <time>2019-02-20T10:05:45.000Z</time>
      </trkpt>
      <trkpt lat="45.32348" lon="4.6388">
        <ele>507.39999389648</ele>
        <time>2019-02-20T10:05:46.000Z</time>
      </trkpt>
      <trkpt lat="45.32349" lon="4.63886">
        <ele>507.39999389648</ele>
        <time>2019-02-20T10:05:47.000Z</time>
      </trkpt>
      <trkpt lat="45.32349" lon="4.63892">
        <ele>507.20001220703</ele>
        <time>2019-02-20T10:05:48.000Z</time>
      </trkpt>
      <trkpt lat="45.3235" lon="4.63897">
        <ele>507.20001220703</ele>
        <time>2019-02-20T10:05:49.000Z</time>
      </trkpt>
      <trkpt lat="45.32351" lon="4.63903">
        <ele>507.20001220703</ele>
        <time>2019-02-20T10:05:50.000Z</time>
      </trkpt>
      <trkpt lat="45.32351" lon="4.63908">
        <ele>507</ele>
        <time>2019-02-20T10:05:51.000Z</time>
      </trkpt>
      <trkpt lat="45.32352" lon="4.63914">
        <ele>507.20001220703</ele>
        <time>2019-02-20T10:05:52.000Z</time>
      </trkpt>
      <trkpt lat="45.32353" lon="4.63919">
        <ele>506.79998779297</ele>
        <time>2019-02-20T10:05:53.000Z</time>
      </trkpt>
      <trkpt lat="45.32353" lon="4.63924">
        <ele>506.79998779297</ele>
        <time>2019-02-20T10:05:54.000Z</time>
      </trkpt>
      <trkpt lat="45.32353" lon="4.63929">
        <ele>506.79998779297</ele>
        <time>2019-02-20T10:05:55.000Z</time>
      </trkpt>
      <trkpt lat="45.32353" lon="4.63935">
        <ele>506.79998779297</ele>
        <time>2019-02-20T10:05:56.000Z</time>
      </trkpt>
      <trkpt lat="45.32353" lon="4.6394">
        <ele>506.79998779297</ele>
        <time>2019-02-20T10:05:57.000Z</time>
      </trkpt>
      <trkpt lat="45.32354" lon="4.63945">
        <ele>506.60000610352</ele>
        <time>2019-02-20T10:05:58.000Z</time>
      </trkpt>
      <trkpt lat="45.32354" lon="4.63951">
        <ele>506.79998779297</ele>
        <time>2019-02-20T10:05:59.000Z</time>
      </trkpt>
      <trkpt lat="45.32355" lon="4.63956">
        <ele>506.60000610352</ele>
        <time>2019-02-20T10:06:00.000Z</time>
      </trkpt>
      <trkpt lat="45.32355" lon="4.63961">
        <ele>506.60000610352</ele>
        <time>2019-02-20T10:06:01.000Z</time>
      </trkpt>
      <trkpt lat="45.32355" lon="4.63966">
        <ele>506.60000610352</ele>
        <time>2019-02-20T10:06:02.000Z</time>
      </trkpt>
      <trkpt lat="45.32356" lon="4.63972">
        <ele>506.60000610352</ele>
        <time>2019-02-20T10:06:03.000Z</time>
      </trkpt>
      <trkpt lat="45.32356" lon="4.63978">
        <ele>506.39999389648</ele>
        <time>2019-02-20T10:06:04.000Z</time>
      </trkpt>
      <trkpt lat="45.32357" lon="4.63984">
        <ele>506.39999389648</ele>
        <time>2019-02-20T10:06:05.000Z</time>
      </trkpt>
      <trkpt lat="45.32357" lon="4.63991">
        <ele>506.39999389648</ele>
        <time>2019-02-20T10:06:06.000Z</time>
      </trkpt>
      <trkpt lat="45.32357" lon="4.63997">
        <ele>506.39999389648</ele>
        <time>2019-02-20T10:06:07.000Z</time>
      </trkpt>
      <trkpt lat="45.32357" lon="4.64003">
        <ele>506.39999389648</ele>
        <time>2019-02-20T10:06:08.000Z</time>
      </trkpt>
      <trkpt lat="45.32357" lon="4.64009">
        <ele>506.39999389648</ele>
        <time>2019-02-20T10:06:09.000Z</time>
      </trkpt>
      <trkpt lat="45.32356" lon="4.64015">
        <ele>506.39999389648</ele>
        <time>2019-02-20T10:06:10.000Z</time>
      </trkpt>
      <trkpt lat="45.32355" lon="4.64021">
        <ele>506</ele>
        <time>2019-02-20T10:06:11.000Z</time>
      </trkpt>
      <trkpt lat="45.32353" lon="4.64026">
        <ele>506</ele>
        <time>2019-02-20T10:06:12.000Z</time>
      </trkpt>
      <trkpt lat="45.32351" lon="4.64031">
        <ele>505.79998779297</ele>
        <time>2019-02-20T10:06:13.000Z</time>
      </trkpt>
      <trkpt lat="45.32349" lon="4.64037">
        <ele>505.79998779297</ele>
        <time>2019-02-20T10:06:14.000Z</time>
      </trkpt>
      <trkpt lat="45.32347" lon="4.64041">
        <ele>505.60000610352</ele>
        <time>2019-02-20T10:06:15.000Z</time>
      </trkpt>
      <trkpt lat="45.32345" lon="4.64046">
        <ele>505.60000610352</ele>
        <time>2019-02-20T10:06:16.000Z</time>
      </trkpt>
      <trkpt lat="45.32343" lon="4.64049">
        <ele>505.60000610352</ele>
        <time>2019-02-20T10:06:17.000Z</time>
      </trkpt>
      <trkpt lat="45.32341" lon="4.64052">
        <ele>505.39999389648</ele>
        <time>2019-02-20T10:06:18.000Z</time>
      </trkpt>
      <trkpt lat="45.32339" lon="4.64055">
        <ele>505.60000610352</ele>
        <time>2019-02-20T10:06:19.000Z</time>
      </trkpt>
      <trkpt lat="45.32337" lon="4.64058">
        <ele>505.60000610352</ele>
        <time>2019-02-20T10:06:20.000Z</time>
      </trkpt>
      <trkpt lat="45.32335" lon="4.6406">
        <ele>505.39999389648</ele>
        <time>2019-02-20T10:06:21.000Z</time>
      </trkpt>
      <trkpt lat="45.32334" lon="4.64063">
        <ele>505.39999389648</ele>
        <time>2019-02-20T10:06:22.000Z</time>
      </trkpt>
      <trkpt lat="45.32332" lon="4.64066">
        <ele>505.39999389648</ele>
        <time>2019-02-20T10:06:23.000Z</time>
      </trkpt>
      <trkpt lat="45.32331" lon="4.64069">
        <ele>505.20001220703</ele>
        <time>2019-02-20T10:06:24.000Z</time>
      </trkpt>
      <trkpt lat="45.32329" lon="4.64072">
        <ele>505.20001220703</ele>
        <time>2019-02-20T10:06:25.000Z</time>
      </trkpt>
      <trkpt lat="45.32327" lon="4.64075">
        <ele>505.39999389648</ele>
        <time>2019-02-20T10:06:26.000Z</time>
      </trkpt>
      <trkpt lat="45.32325" lon="4.64079">
        <ele>505.39999389648</ele>
        <time>2019-02-20T10:06:27.000Z</time>
      </trkpt>
      <trkpt lat="45.32323" lon="4.64082">
        <ele>505.20001220703</ele>
        <time>2019-02-20T10:06:28.000Z</time>
      </trkpt>
      <trkpt lat="45.32322" lon="4.64086">
        <ele>505.20001220703</ele>
        <time>2019-02-20T10:06:29.000Z</time>
      </trkpt>
      <trkpt lat="45.3232" lon="4.64089">
        <ele>505.20001220703</ele>
        <time>2019-02-20T10:06:30.000Z</time>
      </trkpt>
      <trkpt lat="45.32319" lon="4.64093">
        <ele>505.39999389648</ele>
        <time>2019-02-20T10:06:31.000Z</time>
      </trkpt>
      <trkpt lat="45.32317" lon="4.64097">
        <ele>505.20001220703</ele>
        <time>2019-02-20T10:06:32.000Z</time>
      </trkpt>
      <trkpt lat="45.32316" lon="4.641">
        <ele>505.39999389648</ele>
        <time>2019-02-20T10:06:33.000Z</time>
      </trkpt>
      <trkpt lat="45.32314" lon="4.64104">
        <ele>505.39999389648</ele>
        <time>2019-02-20T10:06:34.000Z</time>
      </trkpt>
      <trkpt lat="45.32313" lon="4.64108">
        <ele>505.39999389648</ele>
        <time>2019-02-20T10:06:35.000Z</time>
      </trkpt>
      <trkpt lat="45.32312" lon="4.64112">
        <ele>505.39999389648</ele>
        <time>2019-02-20T10:06:36.000Z</time>
      </trkpt>
      <trkpt lat="45.32311" lon="4.64116">
        <ele>505.60000610352</ele>
        <time>2019-02-20T10:06:37.000Z</time>
      </trkpt>
      <trkpt lat="45.32311" lon="4.6412">
        <ele>505.79998779297</ele>
        <time>2019-02-20T10:06:38.000Z</time>
      </trkpt>
      <trkpt lat="45.32312" lon="4.64123">
        <ele>505.79998779297</ele>
        <time>2019-02-20T10:06:39.000Z</time>
      </trkpt>
      <trkpt lat="45.32315" lon="4.64124">
        <ele>506</ele>
        <time>2019-02-20T10:06:40.000Z</time>
      </trkpt>
      <trkpt lat="45.32317" lon="4.64124">
        <ele>506.20001220703</ele>
        <time>2019-02-20T10:06:41.000Z</time>
      </trkpt>
      <trkpt lat="45.32319" lon="4.64122">
        <ele>506.39999389648</ele>
        <time>2019-02-20T10:06:42.000Z</time>
      </trkpt>
      <trkpt lat="45.3232" lon="4.6412">
        <ele>506.39999389648</ele>
        <time>2019-02-20T10:06:43.000Z</time>
      </trkpt>
      <trkpt lat="45.32322" lon="4.64118">
        <ele>506.39999389648</ele>
        <time>2019-02-20T10:06:44.000Z</time>
      </trkpt>
      <trkpt lat="45.32324" lon="4.64116">
        <ele>506.60000610352</ele>
        <time>2019-02-20T10:06:45.000Z</time>
      </trkpt>
      <trkpt lat="45.32327" lon="4.64114">
        <ele>506.60000610352</ele>
        <time>2019-02-20T10:06:46.000Z</time>
      </trkpt>
      <trkpt lat="45.32329" lon="4.64112">
        <ele>506.60000610352</ele>
        <time>2019-02-20T10:06:47.000Z</time>
      </trkpt>
      <trkpt lat="45.32331" lon="4.64111">
        <ele>506.79998779297</ele>
        <time>2019-02-20T10:06:48.000Z</time>
      </trkpt>
      <trkpt lat="45.32333" lon="4.6411">
        <ele>506.79998779297</ele>
        <time>2019-02-20T10:06:49.000Z</time>
      </trkpt>
      <trkpt lat="45.32336" lon="4.64108">
        <ele>506.79998779297</ele>
        <time>2019-02-20T10:06:50.000Z</time>
      </trkpt>
      <trkpt lat="45.32338" lon="4.64107">
        <ele>506.79998779297</ele>
        <time>2019-02-20T10:06:51.000Z</time>
      </trkpt>
      <trkpt lat="45.3234" lon="4.64107">
        <ele>507</ele>
        <time>2019-02-20T10:06:52.000Z</time>
      </trkpt>
      <trkpt lat="45.32343" lon="4.64106">
        <ele>507.20001220703</ele>
        <time>2019-02-20T10:06:53.000Z</time>
      </trkpt>
      <trkpt lat="45.32345" lon="4.64105">
        <ele>507.39999389648</ele>
        <time>2019-02-20T10:06:54.000Z</time>
      </trkpt>
      <trkpt lat="45.32347" lon="4.64105">
        <ele>507.60000610352</ele>
        <time>2019-02-20T10:06:55.000Z</time>
      </trkpt>
      <trkpt lat="45.3235" lon="4.64105">
        <ele>508</ele>
        <time>2019-02-20T10:06:56.000Z</time>
      </trkpt>
      <trkpt lat="45.32352" lon="4.64105">
        <ele>508</ele>
        <time>2019-02-20T10:06:57.000Z</time>
      </trkpt>
      <trkpt lat="45.32355" lon="4.64105">
        <ele>508.20001220703</ele>
        <time>2019-02-20T10:06:58.000Z</time>
      </trkpt>
      <trkpt lat="45.32357" lon="4.64106">
        <ele>508.39999389648</ele>
        <time>2019-02-20T10:06:59.000Z</time>
      </trkpt>
      <trkpt lat="45.32359" lon="4.64106">
        <ele>508.79998779297</ele>
        <time>2019-02-20T10:07:00.000Z</time>
      </trkpt>
      <trkpt lat="45.32362" lon="4.64106">
        <ele>509</ele>
        <time>2019-02-20T10:07:01.000Z</time>
      </trkpt>
      <trkpt lat="45.32364" lon="4.64106">
        <ele>509.20001220703</ele>
        <time>2019-02-20T10:07:02.000Z</time>
      </trkpt>
      <trkpt lat="45.32366" lon="4.64107">
        <ele>509.39999389648</ele>
        <time>2019-02-20T10:07:03.000Z</time>
      </trkpt>
      <trkpt lat="45.32368" lon="4.64108">
        <ele>509.79998779297</ele>
        <time>2019-02-20T10:07:04.000Z</time>
      </trkpt>
      <trkpt lat="45.3237" lon="4.64109">
        <ele>510.20001220703</ele>
        <time>2019-02-20T10:07:05.000Z</time>
      </trkpt>
      <trkpt lat="45.32372" lon="4.6411">
        <ele>510.39999389648</ele>
        <time>2019-02-20T10:07:06.000Z</time>
      </trkpt>
      <trkpt lat="45.32374" lon="4.64111">
        <ele>510.60000610352</ele>
        <time>2019-02-20T10:07:07.000Z</time>
      </trkpt>
      <trkpt lat="45.32376" lon="4.64113">
        <ele>511</ele>
        <time>2019-02-20T10:07:08.000Z</time>
      </trkpt>
      <trkpt lat="45.32378" lon="4.64114">
        <ele>511.39999389648</ele>
        <time>2019-02-20T10:07:09.000Z</time>
      </trkpt>
      <trkpt lat="45.3238" lon="4.64115">
        <ele>511.39999389648</ele>
        <time>2019-02-20T10:07:10.000Z</time>
      </trkpt>
      <trkpt lat="45.32382" lon="4.64117">
        <ele>511.60000610352</ele>
        <time>2019-02-20T10:07:11.000Z</time>
      </trkpt>
      <trkpt lat="45.32385" lon="4.64118">
        <ele>512</ele>
        <time>2019-02-20T10:07:12.000Z</time>
      </trkpt>
      <trkpt lat="45.32387" lon="4.64119">
        <ele>512</ele>
        <time>2019-02-20T10:07:13.000Z</time>
      </trkpt>
      <trkpt lat="45.32389" lon="4.64121">
        <ele>512.20001220703</ele>
        <time>2019-02-20T10:07:14.000Z</time>
      </trkpt>
      <trkpt lat="45.32391" lon="4.64122">
        <ele>512.59997558594</ele>
        <time>2019-02-20T10:07:15.000Z</time>
      </trkpt>
      <trkpt lat="45.32392" lon="4.64124">
        <ele>513.20001220703</ele>
        <time>2019-02-20T10:07:16.000Z</time>
      </trkpt>
      <trkpt lat="45.32394" lon="4.64125">
        <ele>513.59997558594</ele>
        <time>2019-02-20T10:07:17.000Z</time>
      </trkpt>
      <trkpt lat="45.32396" lon="4.64126">
        <ele>513.79998779297</ele>
        <time>2019-02-20T10:07:18.000Z</time>
      </trkpt>
      <trkpt lat="45.32398" lon="4.64128">
        <ele>514</ele>
        <time>2019-02-20T10:07:19.000Z</time>
      </trkpt>
      <trkpt lat="45.324" lon="4.64129">
        <ele>514.20001220703</ele>
        <time>2019-02-20T10:07:20.000Z</time>
      </trkpt>
      <trkpt lat="45.32402" lon="4.64131">
        <ele>514.40002441406</ele>
        <time>2019-02-20T10:07:21.000Z</time>
      </trkpt>
      <trkpt lat="45.32404" lon="4.64132">
        <ele>514.79998779297</ele>
        <time>2019-02-20T10:07:22.000Z</time>
      </trkpt>
      <trkpt lat="45.32406" lon="4.64133">
        <ele>515</ele>
        <time>2019-02-20T10:07:23.000Z</time>
      </trkpt>
      <trkpt lat="45.32407" lon="4.64134">
        <ele>515.20001220703</ele>
        <time>2019-02-20T10:07:24.000Z</time>
      </trkpt>
      <trkpt lat="45.32409" lon="4.64135">
        <ele>515.40002441406</ele>
        <time>2019-02-20T10:07:25.000Z</time>
      </trkpt>
      <trkpt lat="45.32411" lon="4.64136">
        <ele>515.40002441406</ele>
        <time>2019-02-20T10:07:26.000Z</time>
      </trkpt>
      <trkpt lat="45.32413" lon="4.64138">
        <ele>515.40002441406</ele>
        <time>2019-02-20T10:07:27.000Z</time>
      </trkpt>
      <trkpt lat="45.32415" lon="4.64139">
        <ele>515.59997558594</ele>
        <time>2019-02-20T10:07:28.000Z</time>
      </trkpt>
      <trkpt lat="45.32417" lon="4.64141">
        <ele>515.79998779297</ele>
        <time>2019-02-20T10:07:29.000Z</time>
      </trkpt>
      <trkpt lat="45.32419" lon="4.64142">
        <ele>515.79998779297</ele>
        <time>2019-02-20T10:07:30.000Z</time>
      </trkpt>
      <trkpt lat="45.32421" lon="4.64143">
        <ele>516</ele>
        <time>2019-02-20T10:07:31.000Z</time>
      </trkpt>
      <trkpt lat="45.32423" lon="4.64145">
        <ele>516.20001220703</ele>
        <time>2019-02-20T10:07:32.000Z</time>
      </trkpt>
      <trkpt lat="45.32425" lon="4.64146">
        <ele>516.40002441406</ele>
        <time>2019-02-20T10:07:33.000Z</time>
      </trkpt>
      <trkpt lat="45.32428" lon="4.64147">
        <ele>516.40002441406</ele>
        <time>2019-02-20T10:07:34.000Z</time>
      </trkpt>
      <trkpt lat="45.3243" lon="4.64148">
        <ele>516.40002441406</ele>
        <time>2019-02-20T10:07:35.000Z</time>
      </trkpt>
      <trkpt lat="45.32432" lon="4.64149">
        <ele>516.59997558594</ele>
        <time>2019-02-20T10:07:36.000Z</time>
      </trkpt>
      <trkpt lat="45.32435" lon="4.64151">
        <ele>516.59997558594</ele>
        <time>2019-02-20T10:07:37.000Z</time>
      </trkpt>
      <trkpt lat="45.32437" lon="4.64151">
        <ele>516.79998779297</ele>
        <time>2019-02-20T10:07:38.000Z</time>
      </trkpt>
      <trkpt lat="45.32439" lon="4.64153">
        <ele>516.59997558594</ele>
        <time>2019-02-20T10:07:39.000Z</time>
      </trkpt>
      <trkpt lat="45.32442" lon="4.64154">
        <ele>516.79998779297</ele>
        <time>2019-02-20T10:07:40.000Z</time>
      </trkpt>
      <trkpt lat="45.32444" lon="4.64155">
        <ele>516.79998779297</ele>
        <time>2019-02-20T10:07:41.000Z</time>
      </trkpt>
      <trkpt lat="45.32446" lon="4.64157">
        <ele>517</ele>
        <time>2019-02-20T10:07:42.000Z</time>
      </trkpt>
      <trkpt lat="45.32448" lon="4.64158">
        <ele>516.79998779297</ele>
        <time>2019-02-20T10:07:43.000Z</time>
      </trkpt>
      <trkpt lat="45.3245" lon="4.64159">
        <ele>517</ele>
        <time>2019-02-20T10:07:44.000Z</time>
      </trkpt>
      <trkpt lat="45.32452" lon="4.6416">
        <ele>517</ele>
        <time>2019-02-20T10:07:45.000Z</time>
      </trkpt>
      <trkpt lat="45.32454" lon="4.64161">
        <ele>517</ele>
        <time>2019-02-20T10:07:46.000Z</time>
      </trkpt>
      <trkpt lat="45.32456" lon="4.64162">
        <ele>516.79998779297</ele>
        <time>2019-02-20T10:07:47.000Z</time>
      </trkpt>
      <trkpt lat="45.32458" lon="4.64163">
        <ele>516.79998779297</ele>
        <time>2019-02-20T10:07:48.000Z</time>
      </trkpt>
      <trkpt lat="45.32461" lon="4.64164">
        <ele>517</ele>
        <time>2019-02-20T10:07:49.000Z</time>
      </trkpt>
      <trkpt lat="45.32463" lon="4.64165">
        <ele>517.20001220703</ele>
        <time>2019-02-20T10:07:50.000Z</time>
      </trkpt>
      <trkpt lat="45.32465" lon="4.64166">
        <ele>517</ele>
        <time>2019-02-20T10:07:51.000Z</time>
      </trkpt>
      <trkpt lat="45.32467" lon="4.64167">
        <ele>517</ele>
        <time>2019-02-20T10:07:52.000Z</time>
      </trkpt>
      <trkpt lat="45.32469" lon="4.64168">
        <ele>517</ele>
        <time>2019-02-20T10:07:53.000Z</time>
      </trkpt>
      <trkpt lat="45.32471" lon="4.6417">
        <ele>517</ele>
        <time>2019-02-20T10:07:54.000Z</time>
      </trkpt>
      <trkpt lat="45.32473" lon="4.64172">
        <ele>517.20001220703</ele>
        <time>2019-02-20T10:07:55.000Z</time>
      </trkpt>
      <trkpt lat="45.32475" lon="4.64174">
        <ele>517</ele>
        <time>2019-02-20T10:07:56.000Z</time>
      </trkpt>
      <trkpt lat="45.32477" lon="4.64176">
        <ele>517</ele>
        <time>2019-02-20T10:07:57.000Z</time>
      </trkpt>
      <trkpt lat="45.32478" lon="4.64179">
        <ele>517</ele>
        <time>2019-02-20T10:07:58.000Z</time>
      </trkpt>
      <trkpt lat="45.32479" lon="4.64183">
        <ele>516.79998779297</ele>
        <time>2019-02-20T10:07:59.000Z</time>
      </trkpt>
      <trkpt lat="45.3248" lon="4.64187">
        <ele>517</ele>
        <time>2019-02-20T10:08:00.000Z</time>
      </trkpt>
      <trkpt lat="45.3248" lon="4.64191">
        <ele>516.79998779297</ele>
        <time>2019-02-20T10:08:01.000Z</time>
      </trkpt>
      <trkpt lat="45.3248" lon="4.64194">
        <ele>516.79998779297</ele>
        <time>2019-02-20T10:08:02.000Z</time>
      </trkpt>
      <trkpt lat="45.3248" lon="4.64197">
        <ele>517</ele>
        <time>2019-02-20T10:08:03.000Z</time>
      </trkpt>
      <trkpt lat="45.32481" lon="4.64199">
        <ele>517</ele>
        <time>2019-02-20T10:08:04.000Z</time>
      </trkpt>
      <trkpt lat="45.32481" lon="4.64202">
        <ele>517.20001220703</ele>
        <time>2019-02-20T10:08:05.000Z</time>
      </trkpt>
      <trkpt lat="45.3248" lon="4.64204">
        <ele>517</ele>
        <time>2019-02-20T10:08:06.000Z</time>
      </trkpt>
      <trkpt lat="45.3248" lon="4.64208">
        <ele>517.20001220703</ele>
        <time>2019-02-20T10:08:07.000Z</time>
      </trkpt>
      <trkpt lat="45.3248" lon="4.64211">
        <ele>517.20001220703</ele>
        <time>2019-02-20T10:08:08.000Z</time>
      </trkpt>
      <trkpt lat="45.3248" lon="4.64214">
        <ele>517.59997558594</ele>
        <time>2019-02-20T10:08:09.000Z</time>
      </trkpt>
      <trkpt lat="45.3248" lon="4.64217">
        <ele>517.79998779297</ele>
        <time>2019-02-20T10:08:10.000Z</time>
      </trkpt>
      <trkpt lat="45.3248" lon="4.6422">
        <ele>518</ele>
        <time>2019-02-20T10:08:11.000Z</time>
      </trkpt>
      <trkpt lat="45.32479" lon="4.64222">
        <ele>518.20001220703</ele>
        <time>2019-02-20T10:08:12.000Z</time>
      </trkpt>
      <trkpt lat="45.32478" lon="4.64225">
        <ele>518.59997558594</ele>
        <time>2019-02-20T10:08:13.000Z</time>
      </trkpt>
      <trkpt lat="45.32477" lon="4.64228">
        <ele>519</ele>
        <time>2019-02-20T10:08:14.000Z</time>
      </trkpt>
      <trkpt lat="45.32476" lon="4.64231">
        <ele>519.40002441406</ele>
        <time>2019-02-20T10:08:15.000Z</time>
      </trkpt>
      <trkpt lat="45.32476" lon="4.64233">
        <ele>519.79998779297</ele>
        <time>2019-02-20T10:08:16.000Z</time>
      </trkpt>
      <trkpt lat="45.32476" lon="4.64236">
        <ele>519.79998779297</ele>
        <time>2019-02-20T10:08:17.000Z</time>
      </trkpt>
      <trkpt lat="45.32476" lon="4.64239">
        <ele>520.20001220703</ele>
        <time>2019-02-20T10:08:18.000Z</time>
      </trkpt>
      <trkpt lat="45.32476" lon="4.64241">
        <ele>520.59997558594</ele>
        <time>2019-02-20T10:08:19.000Z</time>
      </trkpt>
      <trkpt lat="45.32477" lon="4.64244">
        <ele>520.79998779297</ele>
        <time>2019-02-20T10:08:20.000Z</time>
      </trkpt>
      <trkpt lat="45.32477" lon="4.64247">
        <ele>521</ele>
        <time>2019-02-20T10:08:21.000Z</time>
      </trkpt>
      <trkpt lat="45.32478" lon="4.6425">
        <ele>521.40002441406</ele>
        <time>2019-02-20T10:08:22.000Z</time>
      </trkpt>
      <trkpt lat="45.32479" lon="4.64252">
        <ele>521.79998779297</ele>
        <time>2019-02-20T10:08:23.000Z</time>
      </trkpt>
      <trkpt lat="45.3248" lon="4.64254">
        <ele>522.20001220703</ele>
        <time>2019-02-20T10:08:24.000Z</time>
      </trkpt>
      <trkpt lat="45.32481" lon="4.64255">
        <ele>522.59997558594</ele>
        <time>2019-02-20T10:08:25.000Z</time>
      </trkpt>
      <trkpt lat="45.32481" lon="4.64258">
        <ele>522.79998779297</ele>
        <time>2019-02-20T10:08:26.000Z</time>
      </trkpt>
      <trkpt lat="45.32481" lon="4.6426">
        <ele>523.40002441406</ele>
        <time>2019-02-20T10:08:27.000Z</time>
      </trkpt>
      <trkpt lat="45.32481" lon="4.64262">
        <ele>523.59997558594</ele>
        <time>2019-02-20T10:08:28.000Z</time>
      </trkpt>
      <trkpt lat="45.32482" lon="4.64265">
        <ele>523.79998779297</ele>
        <time>2019-02-20T10:08:29.000Z</time>
      </trkpt>
      <trkpt lat="45.32482" lon="4.64267">
        <ele>524.20001220703</ele>
        <time>2019-02-20T10:08:30.000Z</time>
      </trkpt>
      <trkpt lat="45.32482" lon="4.64269">
        <ele>524.79998779297</ele>
        <time>2019-02-20T10:08:31.000Z</time>
      </trkpt>
      <trkpt lat="45.32482" lon="4.64272">
        <ele>525.20001220703</ele>
        <time>2019-02-20T10:08:32.000Z</time>
      </trkpt>
      <trkpt lat="45.32482" lon="4.64273">
        <ele>525.40002441406</ele>
        <time>2019-02-20T10:08:33.000Z</time>
      </trkpt>
      <trkpt lat="45.32482" lon="4.64275">
        <ele>525.59997558594</ele>
        <time>2019-02-20T10:08:34.000Z</time>
      </trkpt>
      <trkpt lat="45.32482" lon="4.64277">
        <ele>525.79998779297</ele>
        <time>2019-02-20T10:08:35.000Z</time>
      </trkpt>
      <trkpt lat="45.32482" lon="4.64278">
        <ele>526</ele>
        <time>2019-02-20T10:08:36.000Z</time>
      </trkpt>
      <trkpt lat="45.32482" lon="4.64279">
        <ele>526</ele>
        <time>2019-02-20T10:08:37.000Z</time>
      </trkpt>
      <trkpt lat="45.32482" lon="4.64279">
        <ele>526.59997558594</ele>
        <time>2019-02-20T10:08:38.000Z</time>
      </trkpt>
      <trkpt lat="45.32474" lon="4.64278">
        <ele>528.59997558594</ele>
        <time>2019-02-20T10:11:09.000Z</time>
      </trkpt>
      <trkpt lat="45.32472" lon="4.64279">
        <ele>528.79998779297</ele>
        <time>2019-02-20T10:11:10.000Z</time>
      </trkpt>
      <trkpt lat="45.32471" lon="4.64279">
        <ele>528.79998779297</ele>
        <time>2019-02-20T10:11:11.000Z</time>
      </trkpt>
      <trkpt lat="45.32469" lon="4.6428">
        <ele>528.59997558594</ele>
        <time>2019-02-20T10:11:12.000Z</time>
      </trkpt>
      <trkpt lat="45.32468" lon="4.6428">
        <ele>528.59997558594</ele>
        <time>2019-02-20T10:11:13.000Z</time>
      </trkpt>
      <trkpt lat="45.32467" lon="4.6428">
        <ele>528.79998779297</ele>
        <time>2019-02-20T10:11:14.000Z</time>
      </trkpt>
      <trkpt lat="45.32466" lon="4.6428">
        <ele>528.79998779297</ele>
        <time>2019-02-20T10:11:15.000Z</time>
      </trkpt>
      <trkpt lat="45.32464" lon="4.6428">
        <ele>529</ele>
        <time>2019-02-20T10:11:16.000Z</time>
      </trkpt>
      <trkpt lat="45.32463" lon="4.6428">
        <ele>529</ele>
        <time>2019-02-20T10:11:17.000Z</time>
      </trkpt>
      <trkpt lat="45.32462" lon="4.6428">
        <ele>529.40002441406</ele>
        <time>2019-02-20T10:11:18.000Z</time>
      </trkpt>
      <trkpt lat="45.3246" lon="4.6428">
        <ele>529.40002441406</ele>
        <time>2019-02-20T10:11:19.000Z</time>
      </trkpt>
      <trkpt lat="45.32459" lon="4.64281">
        <ele>529.59997558594</ele>
        <time>2019-02-20T10:11:20.000Z</time>
      </trkpt>
      <trkpt lat="45.32458" lon="4.64281">
        <ele>529.79998779297</ele>
        <time>2019-02-20T10:11:21.000Z</time>
      </trkpt>
      <trkpt lat="45.32456" lon="4.64281">
        <ele>530</ele>
        <time>2019-02-20T10:11:22.000Z</time>
      </trkpt>
      <trkpt lat="45.32455" lon="4.64281">
        <ele>530.40002441406</ele>
        <time>2019-02-20T10:11:23.000Z</time>
      </trkpt>
      <trkpt lat="45.32454" lon="4.64281">
        <ele>530.59997558594</ele>
        <time>2019-02-20T10:11:24.000Z</time>
      </trkpt>
      <trkpt lat="45.32453" lon="4.64281">
        <ele>530.79998779297</ele>
        <time>2019-02-20T10:11:25.000Z</time>
      </trkpt>
      <trkpt lat="45.32451" lon="4.64281">
        <ele>531</ele>
        <time>2019-02-20T10:11:26.000Z</time>
      </trkpt>
      <trkpt lat="45.3245" lon="4.64281">
        <ele>531.20001220703</ele>
        <time>2019-02-20T10:11:27.000Z</time>
      </trkpt>
      <trkpt lat="45.32449" lon="4.64281">
        <ele>531.20001220703</ele>
        <time>2019-02-20T10:11:28.000Z</time>
      </trkpt>
      <trkpt lat="45.32447" lon="4.64281">
        <ele>531.40002441406</ele>
        <time>2019-02-20T10:11:29.000Z</time>
      </trkpt>
      <trkpt lat="45.32446" lon="4.64281">
        <ele>531.79998779297</ele>
        <time>2019-02-20T10:11:30.000Z</time>
      </trkpt>
      <trkpt lat="45.32444" lon="4.64281">
        <ele>531.79998779297</ele>
        <time>2019-02-20T10:11:31.000Z</time>
      </trkpt>
      <trkpt lat="45.32443" lon="4.64282">
        <ele>532.20001220703</ele>
        <time>2019-02-20T10:11:32.000Z</time>
      </trkpt>
      <trkpt lat="45.32442" lon="4.64282">
        <ele>532.40002441406</ele>
        <time>2019-02-20T10:11:33.000Z</time>
      </trkpt>
      <trkpt lat="45.3244" lon="4.64282">
        <ele>532.40002441406</ele>
        <time>2019-02-20T10:11:34.000Z</time>
      </trkpt>
      <trkpt lat="45.32439" lon="4.64282">
        <ele>532.59997558594</ele>
        <time>2019-02-20T10:11:35.000Z</time>
      </trkpt>
      <trkpt lat="45.32437" lon="4.64282">
        <ele>532.79998779297</ele>
        <time>2019-02-20T10:11:36.000Z</time>
      </trkpt>
      <trkpt lat="45.32436" lon="4.64281">
        <ele>533</ele>
        <time>2019-02-20T10:11:37.000Z</time>
      </trkpt>
      <trkpt lat="45.32435" lon="4.64281">
        <ele>533.40002441406</ele>
        <time>2019-02-20T10:11:38.000Z</time>
      </trkpt>
      <trkpt lat="45.32434" lon="4.64281">
        <ele>533.59997558594</ele>
        <time>2019-02-20T10:11:39.000Z</time>
      </trkpt>
      <trkpt lat="45.32433" lon="4.64281">
        <ele>533.59997558594</ele>
        <time>2019-02-20T10:11:40.000Z</time>
      </trkpt>
      <trkpt lat="45.32431" lon="4.64282">
        <ele>533.79998779297</ele>
        <time>2019-02-20T10:11:41.000Z</time>
      </trkpt>
      <trkpt lat="45.3243" lon="4.64282">
        <ele>533.79998779297</ele>
        <time>2019-02-20T10:11:42.000Z</time>
      </trkpt>
      <trkpt lat="45.32429" lon="4.64282">
        <ele>534.20001220703</ele>
        <time>2019-02-20T10:11:43.000Z</time>
      </trkpt>
      <trkpt lat="45.32428" lon="4.64282">
        <ele>534.20001220703</ele>
        <time>2019-02-20T10:11:44.000Z</time>
      </trkpt>
      <trkpt lat="45.32427" lon="4.64282">
        <ele>534.40002441406</ele>
        <time>2019-02-20T10:11:45.000Z</time>
      </trkpt>
      <trkpt lat="45.32426" lon="4.64282">
        <ele>534.59997558594</ele>
        <time>2019-02-20T10:11:46.000Z</time>
      </trkpt>
      <trkpt lat="45.32425" lon="4.64283">
        <ele>534.79998779297</ele>
        <time>2019-02-20T10:11:47.000Z</time>
      </trkpt>
      <trkpt lat="45.32423" lon="4.64283">
        <ele>535</ele>
        <time>2019-02-20T10:11:48.000Z</time>
      </trkpt>
      <trkpt lat="45.32422" lon="4.64283">
        <ele>535.20001220703</ele>
        <time>2019-02-20T10:11:49.000Z</time>
      </trkpt>
      <trkpt lat="45.32421" lon="4.64283">
        <ele>535.20001220703</ele>
        <time>2019-02-20T10:11:50.000Z</time>
      </trkpt>
      <trkpt lat="45.3242" lon="4.64283">
        <ele>535.40002441406</ele>
        <time>2019-02-20T10:11:51.000Z</time>
      </trkpt>
      <trkpt lat="45.32419" lon="4.64284">
        <ele>535.59997558594</ele>
        <time>2019-02-20T10:11:52.000Z</time>
      </trkpt>
      <trkpt lat="45.32418" lon="4.64284">
        <ele>535.79998779297</ele>
        <time>2019-02-20T10:11:53.000Z</time>
      </trkpt>
      <trkpt lat="45.32417" lon="4.64284">
        <ele>536</ele>
        <time>2019-02-20T10:11:54.000Z</time>
      </trkpt>
      <trkpt lat="45.32415" lon="4.64284">
        <ele>536</ele>
        <time>2019-02-20T10:11:55.000Z</time>
      </trkpt>
      <trkpt lat="45.32414" lon="4.64284">
        <ele>536</ele>
        <time>2019-02-20T10:11:56.000Z</time>
      </trkpt>
      <trkpt lat="45.32413" lon="4.64285">
        <ele>536.20001220703</ele>
        <time>2019-02-20T10:11:57.000Z</time>
      </trkpt>
      <trkpt lat="45.32412" lon="4.64285">
        <ele>536.40002441406</ele>
        <time>2019-02-20T10:11:58.000Z</time>
      </trkpt>
      <trkpt lat="45.32411" lon="4.64285">
        <ele>536.59997558594</ele>
        <time>2019-02-20T10:11:59.000Z</time>
      </trkpt>
      <trkpt lat="45.3241" lon="4.64285">
        <ele>536.79998779297</ele>
        <time>2019-02-20T10:12:00.000Z</time>
      </trkpt>
      <trkpt lat="45.32408" lon="4.64286">
        <ele>537</ele>
        <time>2019-02-20T10:12:01.000Z</time>
      </trkpt>
      <trkpt lat="45.32407" lon="4.64286">
        <ele>537.20001220703</ele>
        <time>2019-02-20T10:12:02.000Z</time>
      </trkpt>
      <trkpt lat="45.32406" lon="4.64286">
        <ele>537.59997558594</ele>
        <time>2019-02-20T10:12:03.000Z</time>
      </trkpt>
      <trkpt lat="45.32405" lon="4.64286">
        <ele>537.79998779297</ele>
        <time>2019-02-20T10:12:04.000Z</time>
      </trkpt>
      <trkpt lat="45.32403" lon="4.64286">
        <ele>538</ele>
        <time>2019-02-20T10:12:05.000Z</time>
      </trkpt>
      <trkpt lat="45.32402" lon="4.64286">
        <ele>538.20001220703</ele>
        <time>2019-02-20T10:12:06.000Z</time>
      </trkpt>
      <trkpt lat="45.324" lon="4.64286">
        <ele>538.40002441406</ele>
        <time>2019-02-20T10:12:07.000Z</time>
      </trkpt>
      <trkpt lat="45.32399" lon="4.64287">
        <ele>538.40002441406</ele>
        <time>2019-02-20T10:12:08.000Z</time>
      </trkpt>
      <trkpt lat="45.32397" lon="4.64287">
        <ele>538.59997558594</ele>
        <time>2019-02-20T10:12:09.000Z</time>
      </trkpt>
      <trkpt lat="45.32395" lon="4.64287">
        <ele>538.79998779297</ele>
        <time>2019-02-20T10:12:10.000Z</time>
      </trkpt>
      <trkpt lat="45.32394" lon="4.64287">
        <ele>539</ele>
        <time>2019-02-20T10:12:11.000Z</time>
      </trkpt>
      <trkpt lat="45.32393" lon="4.64287">
        <ele>539.20001220703</ele>
        <time>2019-02-20T10:12:12.000Z</time>
      </trkpt>
      <trkpt lat="45.32392" lon="4.64287">
        <ele>539.40002441406</ele>
        <time>2019-02-20T10:12:13.000Z</time>
      </trkpt>
      <trkpt lat="45.32391" lon="4.64288">
        <ele>539.79998779297</ele>
        <time>2019-02-20T10:12:14.000Z</time>
      </trkpt>
      <trkpt lat="45.32389" lon="4.64288">
        <ele>540</ele>
        <time>2019-02-20T10:12:15.000Z</time>
      </trkpt>
      <trkpt lat="45.32388" lon="4.64289">
        <ele>540.20001220703</ele>
        <time>2019-02-20T10:12:16.000Z</time>
      </trkpt>
      <trkpt lat="45.32387" lon="4.64289">
        <ele>540.40002441406</ele>
        <time>2019-02-20T10:12:17.000Z</time>
      </trkpt>
      <trkpt lat="45.32385" lon="4.6429">
        <ele>540.59997558594</ele>
        <time>2019-02-20T10:12:18.000Z</time>
      </trkpt>
      <trkpt lat="45.32384" lon="4.6429">
        <ele>541</ele>
        <time>2019-02-20T10:12:19.000Z</time>
      </trkpt>
      <trkpt lat="45.32383" lon="4.64291">
        <ele>541.20001220703</ele>
        <time>2019-02-20T10:12:20.000Z</time>
      </trkpt>
      <trkpt lat="45.32382" lon="4.64291">
        <ele>541.40002441406</ele>
        <time>2019-02-20T10:12:21.000Z</time>
      </trkpt>
      <trkpt lat="45.3238" lon="4.64293">
        <ele>541.59997558594</ele>
        <time>2019-02-20T10:12:22.000Z</time>
      </trkpt>
      <trkpt lat="45.32379" lon="4.64294">
        <ele>541.79998779297</ele>
        <time>2019-02-20T10:12:23.000Z</time>
      </trkpt>
      <trkpt lat="45.32378" lon="4.64294">
        <ele>542</ele>
        <time>2019-02-20T10:12:24.000Z</time>
      </trkpt>
      <trkpt lat="45.32376" lon="4.64295">
        <ele>542.40002441406</ele>
        <time>2019-02-20T10:12:25.000Z</time>
      </trkpt>
      <trkpt lat="45.32375" lon="4.64296">
        <ele>542.79998779297</ele>
        <time>2019-02-20T10:12:26.000Z</time>
      </trkpt>
      <trkpt lat="45.32374" lon="4.64296">
        <ele>543</ele>
        <time>2019-02-20T10:12:27.000Z</time>
      </trkpt>
      <trkpt lat="45.32373" lon="4.64297">
        <ele>543.20001220703</ele>
        <time>2019-02-20T10:12:28.000Z</time>
      </trkpt>
      <trkpt lat="45.32372" lon="4.64297">
        <ele>543.40002441406</ele>
        <time>2019-02-20T10:12:29.000Z</time>
      </trkpt>
      <trkpt lat="45.32371" lon="4.64298">
        <ele>543.59997558594</ele>
        <time>2019-02-20T10:12:30.000Z</time>
      </trkpt>
      <trkpt lat="45.32369" lon="4.64298">
        <ele>544</ele>
        <time>2019-02-20T10:12:31.000Z</time>
      </trkpt>
      <trkpt lat="45.32368" lon="4.64298">
        <ele>544.20001220703</ele>
        <time>2019-02-20T10:12:32.000Z</time>
      </trkpt>
      <trkpt lat="45.32367" lon="4.64299">
        <ele>544.40002441406</ele>
        <time>2019-02-20T10:12:33.000Z</time>
      </trkpt>
      <trkpt lat="45.32366" lon="4.64299">
        <ele>544.59997558594</ele>
        <time>2019-02-20T10:12:34.000Z</time>
      </trkpt>
      <trkpt lat="45.32365" lon="4.643">
        <ele>545</ele>
        <time>2019-02-20T10:12:35.000Z</time>
      </trkpt>
      <trkpt lat="45.32363" lon="4.643">
        <ele>545.20001220703</ele>
        <time>2019-02-20T10:12:36.000Z</time>
      </trkpt>
      <trkpt lat="45.32362" lon="4.64301">
        <ele>545.40002441406</ele>
        <time>2019-02-20T10:12:37.000Z</time>
      </trkpt>
      <trkpt lat="45.32361" lon="4.64302">
        <ele>545.79998779297</ele>
        <time>2019-02-20T10:12:38.000Z</time>
      </trkpt>
      <trkpt lat="45.32359" lon="4.64302">
        <ele>545.79998779297</ele>
        <time>2019-02-20T10:12:39.000Z</time>
      </trkpt>
      <trkpt lat="45.32358" lon="4.64303">
        <ele>546</ele>
        <time>2019-02-20T10:12:40.000Z</time>
      </trkpt>
      <trkpt lat="45.32357" lon="4.64303">
        <ele>546.20001220703</ele>
        <time>2019-02-20T10:12:41.000Z</time>
      </trkpt>
      <trkpt lat="45.32356" lon="4.64304">
        <ele>546.59997558594</ele>
        <time>2019-02-20T10:12:42.000Z</time>
      </trkpt>
      <trkpt lat="45.32355" lon="4.64304">
        <ele>546.79998779297</ele>
        <time>2019-02-20T10:12:43.000Z</time>
      </trkpt>
      <trkpt lat="45.32353" lon="4.64304">
        <ele>546.79998779297</ele>
        <time>2019-02-20T10:12:44.000Z</time>
      </trkpt>
      <trkpt lat="45.32352" lon="4.64305">
        <ele>547</ele>
        <time>2019-02-20T10:12:45.000Z</time>
      </trkpt>
      <trkpt lat="45.32351" lon="4.64306">
        <ele>547.20001220703</ele>
        <time>2019-02-20T10:12:46.000Z</time>
      </trkpt>
      <trkpt lat="45.3235" lon="4.64306">
        <ele>547.20001220703</ele>
        <time>2019-02-20T10:12:47.000Z</time>
      </trkpt>
      <trkpt lat="45.32349" lon="4.64307">
        <ele>547.59997558594</ele>
        <time>2019-02-20T10:12:48.000Z</time>
      </trkpt>
      <trkpt lat="45.32348" lon="4.64308">
        <ele>547.59997558594</ele>
        <time>2019-02-20T10:12:49.000Z</time>
      </trkpt>
      <trkpt lat="45.32346" lon="4.64308">
        <ele>548</ele>
        <time>2019-02-20T10:12:50.000Z</time>
      </trkpt>
      <trkpt lat="45.32345" lon="4.64309">
        <ele>548.20001220703</ele>
        <time>2019-02-20T10:12:51.000Z</time>
      </trkpt>
      <trkpt lat="45.32344" lon="4.64309">
        <ele>548.40002441406</ele>
        <time>2019-02-20T10:12:52.000Z</time>
      </trkpt>
      <trkpt lat="45.32343" lon="4.6431">
        <ele>548.59997558594</ele>
        <time>2019-02-20T10:12:53.000Z</time>
      </trkpt>
      <trkpt lat="45.32342" lon="4.64311">
        <ele>548.79998779297</ele>
        <time>2019-02-20T10:12:54.000Z</time>
      </trkpt>
      <trkpt lat="45.3234" lon="4.64312">
        <ele>549.20001220703</ele>
        <time>2019-02-20T10:12:55.000Z</time>
      </trkpt>
      <trkpt lat="45.32339" lon="4.64312">
        <ele>549.20001220703</ele>
        <time>2019-02-20T10:12:56.000Z</time>
      </trkpt>
      <trkpt lat="45.32338" lon="4.64313">
        <ele>549.40002441406</ele>
        <time>2019-02-20T10:12:57.000Z</time>
      </trkpt>
      <trkpt lat="45.32336" lon="4.64313">
        <ele>549.40002441406</ele>
        <time>2019-02-20T10:12:58.000Z</time>
      </trkpt>
      <trkpt lat="45.32335" lon="4.64314">
        <ele>549.79998779297</ele>
        <time>2019-02-20T10:12:59.000Z</time>
      </trkpt>
      <trkpt lat="45.32334" lon="4.64314">
        <ele>550</ele>
        <time>2019-02-20T10:13:00.000Z</time>
      </trkpt>
      <trkpt lat="45.32333" lon="4.64315">
        <ele>550.20001220703</ele>
        <time>2019-02-20T10:13:01.000Z</time>
      </trkpt>
      <trkpt lat="45.32331" lon="4.64315">
        <ele>550.40002441406</ele>
        <time>2019-02-20T10:13:02.000Z</time>
      </trkpt>
      <trkpt lat="45.3233" lon="4.64316">
        <ele>550.59997558594</ele>
        <time>2019-02-20T10:13:03.000Z</time>
      </trkpt>
      <trkpt lat="45.32329" lon="4.64317">
        <ele>550.79998779297</ele>
        <time>2019-02-20T10:13:04.000Z</time>
      </trkpt>
      <trkpt lat="45.32327" lon="4.64318">
        <ele>551</ele>
        <time>2019-02-20T10:13:05.000Z</time>
      </trkpt>
      <trkpt lat="45.32325" lon="4.64319">
        <ele>551.20001220703</ele>
        <time>2019-02-20T10:13:06.000Z</time>
      </trkpt>
      <trkpt lat="45.32324" lon="4.6432">
        <ele>551.40002441406</ele>
        <time>2019-02-20T10:13:07.000Z</time>
      </trkpt>
      <trkpt lat="45.32322" lon="4.64321">
        <ele>551.59997558594</ele>
        <time>2019-02-20T10:13:08.000Z</time>
      </trkpt>
      <trkpt lat="45.32321" lon="4.64322">
        <ele>551.59997558594</ele>
        <time>2019-02-20T10:13:09.000Z</time>
      </trkpt>
      <trkpt lat="45.3232" lon="4.64323">
        <ele>552</ele>
        <time>2019-02-20T10:13:10.000Z</time>
      </trkpt>
      <trkpt lat="45.32319" lon="4.64324">
        <ele>552.20001220703</ele>
        <time>2019-02-20T10:13:11.000Z</time>
      </trkpt>
      <trkpt lat="45.32317" lon="4.64324">
        <ele>552.20001220703</ele>
        <time>2019-02-20T10:13:12.000Z</time>
      </trkpt>
      <trkpt lat="45.32316" lon="4.64325">
        <ele>552.40002441406</ele>
        <time>2019-02-20T10:13:13.000Z</time>
      </trkpt>
      <trkpt lat="45.32315" lon="4.64326">
        <ele>552.40002441406</ele>
        <time>2019-02-20T10:13:14.000Z</time>
      </trkpt>
      <trkpt lat="45.32313" lon="4.64326">
        <ele>552.79998779297</ele>
        <time>2019-02-20T10:13:15.000Z</time>
      </trkpt>
      <trkpt lat="45.32312" lon="4.64326">
        <ele>553.20001220703</ele>
        <time>2019-02-20T10:13:16.000Z</time>
      </trkpt>
      <trkpt lat="45.32311" lon="4.64327">
        <ele>553.40002441406</ele>
        <time>2019-02-20T10:13:17.000Z</time>
      </trkpt>
      <trkpt lat="45.3231" lon="4.64327">
        <ele>553.79998779297</ele>
        <time>2019-02-20T10:13:18.000Z</time>
      </trkpt>
      <trkpt lat="45.32309" lon="4.64328">
        <ele>554</ele>
        <time>2019-02-20T10:13:19.000Z</time>
      </trkpt>
      <trkpt lat="45.32308" lon="4.64328">
        <ele>554.20001220703</ele>
        <time>2019-02-20T10:13:20.000Z</time>
      </trkpt>
      <trkpt lat="45.32306" lon="4.64329">
        <ele>554.40002441406</ele>
        <time>2019-02-20T10:13:21.000Z</time>
      </trkpt>
      <trkpt lat="45.32305" lon="4.64329">
        <ele>554.40002441406</ele>
        <time>2019-02-20T10:13:22.000Z</time>
      </trkpt>
      <trkpt lat="45.32304" lon="4.64329">
        <ele>554.59997558594</ele>
        <time>2019-02-20T10:13:23.000Z</time>
      </trkpt>
      <trkpt lat="45.32302" lon="4.6433">
        <ele>554.79998779297</ele>
        <time>2019-02-20T10:13:24.000Z</time>
      </trkpt>
      <trkpt lat="45.32301" lon="4.64331">
        <ele>555</ele>
        <time>2019-02-20T10:13:25.000Z</time>
      </trkpt>
      <trkpt lat="45.323" lon="4.64331">
        <ele>555</ele>
        <time>2019-02-20T10:13:26.000Z</time>
      </trkpt>
      <trkpt lat="45.32299" lon="4.64332">
        <ele>555.40002441406</ele>
        <time>2019-02-20T10:13:27.000Z</time>
      </trkpt>
      <trkpt lat="45.32298" lon="4.64333">
        <ele>555.40002441406</ele>
        <time>2019-02-20T10:13:28.000Z</time>
      </trkpt>
      <trkpt lat="45.32297" lon="4.64333">
        <ele>555.79998779297</ele>
        <time>2019-02-20T10:13:29.000Z</time>
      </trkpt>
      <trkpt lat="45.32296" lon="4.64334">
        <ele>555.79998779297</ele>
        <time>2019-02-20T10:13:30.000Z</time>
      </trkpt>
      <trkpt lat="45.32295" lon="4.64335">
        <ele>555.79998779297</ele>
        <time>2019-02-20T10:13:31.000Z</time>
      </trkpt>
      <trkpt lat="45.32294" lon="4.64335">
        <ele>556</ele>
        <time>2019-02-20T10:13:32.000Z</time>
      </trkpt>
      <trkpt lat="45.32293" lon="4.64336">
        <ele>556</ele>
        <time>2019-02-20T10:13:33.000Z</time>
      </trkpt>
      <trkpt lat="45.32292" lon="4.64336">
        <ele>556.59997558594</ele>
        <time>2019-02-20T10:13:34.000Z</time>
      </trkpt>
      <trkpt lat="45.32291" lon="4.64337">
        <ele>556.79998779297</ele>
        <time>2019-02-20T10:13:35.000Z</time>
      </trkpt>
      <trkpt lat="45.3229" lon="4.64337">
        <ele>557</ele>
        <time>2019-02-20T10:13:36.000Z</time>
      </trkpt>
      <trkpt lat="45.32289" lon="4.64338">
        <ele>557.40002441406</ele>
        <time>2019-02-20T10:13:37.000Z</time>
      </trkpt>
      <trkpt lat="45.32287" lon="4.64339">
        <ele>557.40002441406</ele>
        <time>2019-02-20T10:13:38.000Z</time>
      </trkpt>
      <trkpt lat="45.32286" lon="4.64339">
        <ele>557.59997558594</ele>
        <time>2019-02-20T10:13:39.000Z</time>
      </trkpt>
      <trkpt lat="45.32285" lon="4.6434">
        <ele>557.79998779297</ele>
        <time>2019-02-20T10:13:40.000Z</time>
      </trkpt>
      <trkpt lat="45.32284" lon="4.6434">
        <ele>557.79998779297</ele>
        <time>2019-02-20T10:13:41.000Z</time>
      </trkpt>
      <trkpt lat="45.32283" lon="4.64341">
        <ele>558</ele>
        <time>2019-02-20T10:13:42.000Z</time>
      </trkpt>
      <trkpt lat="45.32282" lon="4.64341">
        <ele>558.20001220703</ele>
        <time>2019-02-20T10:13:43.000Z</time>
      </trkpt>
      <trkpt lat="45.32281" lon="4.64343">
        <ele>558.20001220703</ele>
        <time>2019-02-20T10:13:44.000Z</time>
      </trkpt>
      <trkpt lat="45.3228" lon="4.64344">
        <ele>558.59997558594</ele>
        <time>2019-02-20T10:13:45.000Z</time>
      </trkpt>
      <trkpt lat="45.32279" lon="4.64345">
        <ele>558.79998779297</ele>
        <time>2019-02-20T10:13:46.000Z</time>
      </trkpt>
      <trkpt lat="45.32278" lon="4.64346">
        <ele>558.79998779297</ele>
        <time>2019-02-20T10:13:47.000Z</time>
      </trkpt>
      <trkpt lat="45.32277" lon="4.64347">
        <ele>559</ele>
        <time>2019-02-20T10:13:48.000Z</time>
      </trkpt>
      <trkpt lat="45.32276" lon="4.64349">
        <ele>559.20001220703</ele>
        <time>2019-02-20T10:13:49.000Z</time>
      </trkpt>
      <trkpt lat="45.32275" lon="4.6435">
        <ele>559.40002441406</ele>
        <time>2019-02-20T10:13:50.000Z</time>
      </trkpt>
      <trkpt lat="45.32274" lon="4.6435">
        <ele>559.59997558594</ele>
        <time>2019-02-20T10:13:51.000Z</time>
      </trkpt>
      <trkpt lat="45.32273" lon="4.64351">
        <ele>559.79998779297</ele>
        <time>2019-02-20T10:13:52.000Z</time>
      </trkpt>
      <trkpt lat="45.32272" lon="4.64352">
        <ele>560</ele>
        <time>2019-02-20T10:13:53.000Z</time>
      </trkpt>
      <trkpt lat="45.3227" lon="4.64352">
        <ele>560.20001220703</ele>
        <time>2019-02-20T10:13:54.000Z</time>
      </trkpt>
      <trkpt lat="45.32269" lon="4.64353">
        <ele>560.40002441406</ele>
        <time>2019-02-20T10:13:55.000Z</time>
      </trkpt>
      <trkpt lat="45.32268" lon="4.64354">
        <ele>560.79998779297</ele>
        <time>2019-02-20T10:13:56.000Z</time>
      </trkpt>
      <trkpt lat="45.32267" lon="4.64354">
        <ele>560.79998779297</ele>
        <time>2019-02-20T10:13:57.000Z</time>
      </trkpt>
      <trkpt lat="45.32266" lon="4.64355">
        <ele>561.20001220703</ele>
        <time>2019-02-20T10:13:58.000Z</time>
      </trkpt>
      <trkpt lat="45.32265" lon="4.64356">
        <ele>561.59997558594</ele>
        <time>2019-02-20T10:13:59.000Z</time>
      </trkpt>
      <trkpt lat="45.32263" lon="4.64357">
        <ele>561.79998779297</ele>
        <time>2019-02-20T10:14:00.000Z</time>
      </trkpt>
      <trkpt lat="45.32262" lon="4.64358">
        <ele>562</ele>
        <time>2019-02-20T10:14:01.000Z</time>
      </trkpt>
      <trkpt lat="45.3226" lon="4.64359">
        <ele>562.40002441406</ele>
        <time>2019-02-20T10:14:02.000Z</time>
      </trkpt>
      <trkpt lat="45.32259" lon="4.64361">
        <ele>562.59997558594</ele>
        <time>2019-02-20T10:14:03.000Z</time>
      </trkpt>
      <trkpt lat="45.32259" lon="4.64361">
        <ele>562.59997558594</ele>
        <time>2019-02-20T10:14:04.000Z</time>
      </trkpt>
      <trkpt lat="45.32258" lon="4.64363">
        <ele>562.79998779297</ele>
        <time>2019-02-20T10:14:05.000Z</time>
      </trkpt>
      <trkpt lat="45.32257" lon="4.64364">
        <ele>563.20001220703</ele>
        <time>2019-02-20T10:14:06.000Z</time>
      </trkpt>
      <trkpt lat="45.32255" lon="4.64365">
        <ele>563.20001220703</ele>
        <time>2019-02-20T10:14:07.000Z</time>
      </trkpt>
      <trkpt lat="45.32254" lon="4.64366">
        <ele>563.40002441406</ele>
        <time>2019-02-20T10:14:08.000Z</time>
      </trkpt>
      <trkpt lat="45.32253" lon="4.64368">
        <ele>563.59997558594</ele>
        <time>2019-02-20T10:14:09.000Z</time>
      </trkpt>
      <trkpt lat="45.32252" lon="4.64369">
        <ele>563.79998779297</ele>
        <time>2019-02-20T10:14:10.000Z</time>
      </trkpt>
      <trkpt lat="45.3225" lon="4.6437">
        <ele>563.79998779297</ele>
        <time>2019-02-20T10:14:11.000Z</time>
      </trkpt>
      <trkpt lat="45.32249" lon="4.64371">
        <ele>564</ele>
        <time>2019-02-20T10:14:12.000Z</time>
      </trkpt>
      <trkpt lat="45.32248" lon="4.64372">
        <ele>564.20001220703</ele>
        <time>2019-02-20T10:14:13.000Z</time>
      </trkpt>
      <trkpt lat="45.32247" lon="4.64373">
        <ele>564.20001220703</ele>
        <time>2019-02-20T10:14:14.000Z</time>
      </trkpt>
      <trkpt lat="45.32246" lon="4.64375">
        <ele>564.40002441406</ele>
        <time>2019-02-20T10:14:15.000Z</time>
      </trkpt>
      <trkpt lat="45.32245" lon="4.64376">
        <ele>564.40002441406</ele>
        <time>2019-02-20T10:14:16.000Z</time>
      </trkpt>
      <trkpt lat="45.32244" lon="4.64377">
        <ele>564.79998779297</ele>
        <time>2019-02-20T10:14:17.000Z</time>
      </trkpt>
      <trkpt lat="45.32243" lon="4.64379">
        <ele>565</ele>
        <time>2019-02-20T10:14:18.000Z</time>
      </trkpt>
      <trkpt lat="45.32242" lon="4.6438">
        <ele>565.20001220703</ele>
        <time>2019-02-20T10:14:19.000Z</time>
      </trkpt>
      <trkpt lat="45.32241" lon="4.64381">
        <ele>565.40002441406</ele>
        <time>2019-02-20T10:14:20.000Z</time>
      </trkpt>
      <trkpt lat="45.3224" lon="4.64382">
        <ele>565.40002441406</ele>
        <time>2019-02-20T10:14:21.000Z</time>
      </trkpt>
      <trkpt lat="45.32239" lon="4.64383">
        <ele>565.40002441406</ele>
        <time>2019-02-20T10:14:22.000Z</time>
      </trkpt>
      <trkpt lat="45.32238" lon="4.64385">
        <ele>565.79998779297</ele>
        <time>2019-02-20T10:14:23.000Z</time>
      </trkpt>
      <trkpt lat="45.32236" lon="4.64385">
        <ele>566</ele>
        <time>2019-02-20T10:14:24.000Z</time>
      </trkpt>
      <trkpt lat="45.32235" lon="4.64386">
        <ele>566</ele>
        <time>2019-02-20T10:14:25.000Z</time>
      </trkpt>
      <trkpt lat="45.32234" lon="4.64388">
        <ele>566.20001220703</ele>
        <time>2019-02-20T10:14:26.000Z</time>
      </trkpt>
      <trkpt lat="45.32233" lon="4.64389">
        <ele>566.20001220703</ele>
        <time>2019-02-20T10:14:27.000Z</time>
      </trkpt>
      <trkpt lat="45.32232" lon="4.6439">
        <ele>566.40002441406</ele>
        <time>2019-02-20T10:14:28.000Z</time>
      </trkpt>
      <trkpt lat="45.3223" lon="4.64391">
        <ele>566.59997558594</ele>
        <time>2019-02-20T10:14:29.000Z</time>
      </trkpt>
      <trkpt lat="45.32229" lon="4.64392">
        <ele>566.59997558594</ele>
        <time>2019-02-20T10:14:30.000Z</time>
      </trkpt>
      <trkpt lat="45.32228" lon="4.64393">
        <ele>566.79998779297</ele>
        <time>2019-02-20T10:14:31.000Z</time>
      </trkpt>
      <trkpt lat="45.32226" lon="4.64394">
        <ele>567.20001220703</ele>
        <time>2019-02-20T10:14:32.000Z</time>
      </trkpt>
      <trkpt lat="45.32225" lon="4.64395">
        <ele>567.40002441406</ele>
        <time>2019-02-20T10:14:33.000Z</time>
      </trkpt>
      <trkpt lat="45.32224" lon="4.64396">
        <ele>567.40002441406</ele>
        <time>2019-02-20T10:14:34.000Z</time>
      </trkpt>
      <trkpt lat="45.32223" lon="4.64397">
        <ele>567.59997558594</ele>
        <time>2019-02-20T10:14:35.000Z</time>
      </trkpt>
      <trkpt lat="45.32222" lon="4.64398">
        <ele>567.79998779297</ele>
        <time>2019-02-20T10:14:36.000Z</time>
      </trkpt>
      <trkpt lat="45.32221" lon="4.644">
        <ele>568</ele>
        <time>2019-02-20T10:14:37.000Z</time>
      </trkpt>
      <trkpt lat="45.3222" lon="4.64401">
        <ele>568</ele>
        <time>2019-02-20T10:14:38.000Z</time>
      </trkpt>
      <trkpt lat="45.32219" lon="4.64401">
        <ele>568.20001220703</ele>
        <time>2019-02-20T10:14:39.000Z</time>
      </trkpt>
      <trkpt lat="45.32217" lon="4.64402">
        <ele>568.59997558594</ele>
        <time>2019-02-20T10:14:40.000Z</time>
      </trkpt>
      <trkpt lat="45.32216" lon="4.64403">
        <ele>568.79998779297</ele>
        <time>2019-02-20T10:14:41.000Z</time>
      </trkpt>
      <trkpt lat="45.32214" lon="4.64404">
        <ele>569.20001220703</ele>
        <time>2019-02-20T10:14:42.000Z</time>
      </trkpt>
      <trkpt lat="45.32213" lon="4.64405">
        <ele>569.40002441406</ele>
        <time>2019-02-20T10:14:43.000Z</time>
      </trkpt>
      <trkpt lat="45.32212" lon="4.64406">
        <ele>569.40002441406</ele>
        <time>2019-02-20T10:14:44.000Z</time>
      </trkpt>
      <trkpt lat="45.32211" lon="4.64407">
        <ele>569.59997558594</ele>
        <time>2019-02-20T10:14:45.000Z</time>
      </trkpt>
      <trkpt lat="45.32209" lon="4.64409">
        <ele>569.59997558594</ele>
        <time>2019-02-20T10:14:46.000Z</time>
      </trkpt>
      <trkpt lat="45.32208" lon="4.6441">
        <ele>569.79998779297</ele>
        <time>2019-02-20T10:14:47.000Z</time>
      </trkpt>
      <trkpt lat="45.32207" lon="4.64411">
        <ele>570</ele>
        <time>2019-02-20T10:14:48.000Z</time>
      </trkpt>
      <trkpt lat="45.32205" lon="4.64412">
        <ele>570</ele>
        <time>2019-02-20T10:14:49.000Z</time>
      </trkpt>
      <trkpt lat="45.32204" lon="4.64413">
        <ele>570.40002441406</ele>
        <time>2019-02-20T10:14:50.000Z</time>
      </trkpt>
      <trkpt lat="45.32202" lon="4.64414">
        <ele>570.40002441406</ele>
        <time>2019-02-20T10:14:51.000Z</time>
      </trkpt>
      <trkpt lat="45.32201" lon="4.64415">
        <ele>570.59997558594</ele>
        <time>2019-02-20T10:14:52.000Z</time>
      </trkpt>
      <trkpt lat="45.32199" lon="4.64416">
        <ele>570.59997558594</ele>
        <time>2019-02-20T10:14:53.000Z</time>
      </trkpt>
      <trkpt lat="45.32198" lon="4.64417">
        <ele>570.79998779297</ele>
        <time>2019-02-20T10:14:54.000Z</time>
      </trkpt>
      <trkpt lat="45.32196" lon="4.64418">
        <ele>570.79998779297</ele>
        <time>2019-02-20T10:14:55.000Z</time>
      </trkpt>
      <trkpt lat="45.32195" lon="4.64419">
        <ele>571</ele>
        <time>2019-02-20T10:14:56.000Z</time>
      </trkpt>
      <trkpt lat="45.32193" lon="4.6442">
        <ele>571.20001220703</ele>
        <time>2019-02-20T10:14:57.000Z</time>
      </trkpt>
      <trkpt lat="45.32192" lon="4.64421">
        <ele>571.20001220703</ele>
        <time>2019-02-20T10:14:58.000Z</time>
      </trkpt>
      <trkpt lat="45.32191" lon="4.64422">
        <ele>571.59997558594</ele>
        <time>2019-02-20T10:14:59.000Z</time>
      </trkpt>
      <trkpt lat="45.3219" lon="4.64423">
        <ele>571.40002441406</ele>
        <time>2019-02-20T10:15:00.000Z</time>
      </trkpt>
      <trkpt lat="45.32189" lon="4.64424">
        <ele>571.79998779297</ele>
        <time>2019-02-20T10:15:01.000Z</time>
      </trkpt>
      <trkpt lat="45.32188" lon="4.64424">
        <ele>571.79998779297</ele>
        <time>2019-02-20T10:15:02.000Z</time>
      </trkpt>
      <trkpt lat="45.32187" lon="4.64425">
        <ele>571.79998779297</ele>
        <time>2019-02-20T10:15:03.000Z</time>
      </trkpt>
      <trkpt lat="45.32186" lon="4.64426">
        <ele>572.20001220703</ele>
        <time>2019-02-20T10:15:04.000Z</time>
      </trkpt>
      <trkpt lat="45.32185" lon="4.64427">
        <ele>572.40002441406</ele>
        <time>2019-02-20T10:15:05.000Z</time>
      </trkpt>
      <trkpt lat="45.32184" lon="4.64428">
        <ele>572.40002441406</ele>
        <time>2019-02-20T10:15:06.000Z</time>
      </trkpt>
      <trkpt lat="45.32182" lon="4.64428">
        <ele>572.59997558594</ele>
        <time>2019-02-20T10:15:07.000Z</time>
      </trkpt>
      <trkpt lat="45.32181" lon="4.64429">
        <ele>572.59997558594</ele>
        <time>2019-02-20T10:15:08.000Z</time>
      </trkpt>
      <trkpt lat="45.3218" lon="4.6443">
        <ele>572.79998779297</ele>
        <time>2019-02-20T10:15:09.000Z</time>
      </trkpt>
      <trkpt lat="45.32179" lon="4.6443">
        <ele>573</ele>
        <time>2019-02-20T10:15:10.000Z</time>
      </trkpt>
      <trkpt lat="45.32178" lon="4.64431">
        <ele>573.20001220703</ele>
        <time>2019-02-20T10:15:11.000Z</time>
      </trkpt>
      <trkpt lat="45.32177" lon="4.64432">
        <ele>573.20001220703</ele>
        <time>2019-02-20T10:15:12.000Z</time>
      </trkpt>
      <trkpt lat="45.32177" lon="4.64433">
        <ele>573.40002441406</ele>
        <time>2019-02-20T10:15:13.000Z</time>
      </trkpt>
      <trkpt lat="45.32175" lon="4.64435">
        <ele>573.59997558594</ele>
        <time>2019-02-20T10:15:14.000Z</time>
      </trkpt>
      <trkpt lat="45.32173" lon="4.64436">
        <ele>573.59997558594</ele>
        <time>2019-02-20T10:15:15.000Z</time>
      </trkpt>
      <trkpt lat="45.32172" lon="4.64437">
        <ele>574.20001220703</ele>
        <time>2019-02-20T10:15:16.000Z</time>
      </trkpt>
      <trkpt lat="45.3217" lon="4.64439">
        <ele>574.20001220703</ele>
        <time>2019-02-20T10:15:17.000Z</time>
      </trkpt>
      <trkpt lat="45.32168" lon="4.64439">
        <ele>574.40002441406</ele>
        <time>2019-02-20T10:15:18.000Z</time>
      </trkpt>
      <trkpt lat="45.32167" lon="4.6444">
        <ele>574.40002441406</ele>
        <time>2019-02-20T10:15:19.000Z</time>
      </trkpt>
      <trkpt lat="45.32166" lon="4.64441">
        <ele>574.79998779297</ele>
        <time>2019-02-20T10:15:20.000Z</time>
      </trkpt>
      <trkpt lat="45.32164" lon="4.64442">
        <ele>575.20001220703</ele>
        <time>2019-02-20T10:15:21.000Z</time>
      </trkpt>
      <trkpt lat="45.32163" lon="4.64443">
        <ele>575.20001220703</ele>
        <time>2019-02-20T10:15:22.000Z</time>
      </trkpt>
      <trkpt lat="45.32162" lon="4.64443">
        <ele>575.40002441406</ele>
        <time>2019-02-20T10:15:23.000Z</time>
      </trkpt>
      <trkpt lat="45.3216" lon="4.64444">
        <ele>575.59997558594</ele>
        <time>2019-02-20T10:15:24.000Z</time>
      </trkpt>
      <trkpt lat="45.32158" lon="4.64444">
        <ele>575.59997558594</ele>
        <time>2019-02-20T10:15:25.000Z</time>
      </trkpt>
      <trkpt lat="45.32157" lon="4.64445">
        <ele>575.79998779297</ele>
        <time>2019-02-20T10:15:26.000Z</time>
      </trkpt>
      <trkpt lat="45.32155" lon="4.64446">
        <ele>575.79998779297</ele>
        <time>2019-02-20T10:15:27.000Z</time>
      </trkpt>
      <trkpt lat="45.32153" lon="4.64447">
        <ele>576</ele>
        <time>2019-02-20T10:15:28.000Z</time>
      </trkpt>
      <trkpt lat="45.32151" lon="4.64448">
        <ele>576.20001220703</ele>
        <time>2019-02-20T10:15:29.000Z</time>
      </trkpt>
      <trkpt lat="45.32149" lon="4.64449">
        <ele>576.20001220703</ele>
        <time>2019-02-20T10:15:30.000Z</time>
      </trkpt>
      <trkpt lat="45.32147" lon="4.64451">
        <ele>576.40002441406</ele>
        <time>2019-02-20T10:15:31.000Z</time>
      </trkpt>
      <trkpt lat="45.32145" lon="4.64453">
        <ele>576.40002441406</ele>
        <time>2019-02-20T10:15:32.000Z</time>
      </trkpt>
      <trkpt lat="45.32143" lon="4.64456">
        <ele>576.40002441406</ele>
        <time>2019-02-20T10:15:33.000Z</time>
      </trkpt>
      <trkpt lat="45.32141" lon="4.64458">
        <ele>576.40002441406</ele>
        <time>2019-02-20T10:15:34.000Z</time>
      </trkpt>
      <trkpt lat="45.32139" lon="4.64461">
        <ele>576.40002441406</ele>
        <time>2019-02-20T10:15:35.000Z</time>
      </trkpt>
      <trkpt lat="45.32137" lon="4.64464">
        <ele>576.59997558594</ele>
        <time>2019-02-20T10:15:36.000Z</time>
      </trkpt>
      <trkpt lat="45.32135" lon="4.64466">
        <ele>576.59997558594</ele>
        <time>2019-02-20T10:15:37.000Z</time>
      </trkpt>
      <trkpt lat="45.32133" lon="4.64468">
        <ele>576.79998779297</ele>
        <time>2019-02-20T10:15:38.000Z</time>
      </trkpt>
      <trkpt lat="45.32131" lon="4.64469">
        <ele>576.59997558594</ele>
        <time>2019-02-20T10:15:39.000Z</time>
      </trkpt>
      <trkpt lat="45.32129" lon="4.64468">
        <ele>576.59997558594</ele>
        <time>2019-02-20T10:15:40.000Z</time>
      </trkpt>
      <trkpt lat="45.32127" lon="4.64467">
        <ele>576.59997558594</ele>
        <time>2019-02-20T10:15:41.000Z</time>
      </trkpt>
      <trkpt lat="45.32126" lon="4.64467">
        <ele>576.59997558594</ele>
        <time>2019-02-20T10:15:42.000Z</time>
      </trkpt>
      <trkpt lat="45.32125" lon="4.64466">
        <ele>576.59997558594</ele>
        <time>2019-02-20T10:15:43.000Z</time>
      </trkpt>
      <trkpt lat="45.32124" lon="4.64465">
        <ele>576.59997558594</ele>
        <time>2019-02-20T10:15:44.000Z</time>
      </trkpt>
      <trkpt lat="45.32123" lon="4.64463">
        <ele>576.79998779297</ele>
        <time>2019-02-20T10:15:45.000Z</time>
      </trkpt>
      <trkpt lat="45.32122" lon="4.64462">
        <ele>576.79998779297</ele>
        <time>2019-02-20T10:15:46.000Z</time>
      </trkpt>
      <trkpt lat="45.32121" lon="4.6446">
        <ele>576.79998779297</ele>
        <time>2019-02-20T10:15:47.000Z</time>
      </trkpt>
      <trkpt lat="45.32119" lon="4.64459">
        <ele>576.79998779297</ele>
        <time>2019-02-20T10:15:48.000Z</time>
      </trkpt>
      <trkpt lat="45.32118" lon="4.64458">
        <ele>576.79998779297</ele>
        <time>2019-02-20T10:15:49.000Z</time>
      </trkpt>
      <trkpt lat="45.32117" lon="4.64456">
        <ele>576.79998779297</ele>
        <time>2019-02-20T10:15:50.000Z</time>
      </trkpt>
      <trkpt lat="45.32116" lon="4.64454">
        <ele>577</ele>
        <time>2019-02-20T10:15:51.000Z</time>
      </trkpt>
      <trkpt lat="45.32115" lon="4.64452">
        <ele>577.20001220703</ele>
        <time>2019-02-20T10:15:52.000Z</time>
      </trkpt>
      <trkpt lat="45.32114" lon="4.6445">
        <ele>577.20001220703</ele>
        <time>2019-02-20T10:15:53.000Z</time>
      </trkpt>
      <trkpt lat="45.32113" lon="4.64448">
        <ele>577.20001220703</ele>
        <time>2019-02-20T10:15:54.000Z</time>
      </trkpt>
      <trkpt lat="45.32112" lon="4.64446">
        <ele>577.20001220703</ele>
        <time>2019-02-20T10:15:55.000Z</time>
      </trkpt>
      <trkpt lat="45.32111" lon="4.64444">
        <ele>577.40002441406</ele>
        <time>2019-02-20T10:15:56.000Z</time>
      </trkpt>
      <trkpt lat="45.3211" lon="4.64443">
        <ele>577.40002441406</ele>
        <time>2019-02-20T10:15:57.000Z</time>
      </trkpt>
      <trkpt lat="45.32109" lon="4.64441">
        <ele>577.40002441406</ele>
        <time>2019-02-20T10:15:58.000Z</time>
      </trkpt>
      <trkpt lat="45.32108" lon="4.64438">
        <ele>577.40002441406</ele>
        <time>2019-02-20T10:15:59.000Z</time>
      </trkpt>
      <trkpt lat="45.32107" lon="4.64436">
        <ele>577.59997558594</ele>
        <time>2019-02-20T10:16:00.000Z</time>
      </trkpt>
      <trkpt lat="45.32106" lon="4.64434">
        <ele>577.40002441406</ele>
        <time>2019-02-20T10:16:01.000Z</time>
      </trkpt>
      <trkpt lat="45.32105" lon="4.64432">
        <ele>577.59997558594</ele>
        <time>2019-02-20T10:16:02.000Z</time>
      </trkpt>
      <trkpt lat="45.32104" lon="4.64431">
        <ele>577.79998779297</ele>
        <time>2019-02-20T10:16:03.000Z</time>
      </trkpt>
      <trkpt lat="45.32104" lon="4.64429">
        <ele>577.79998779297</ele>
        <time>2019-02-20T10:16:04.000Z</time>
      </trkpt>
      <trkpt lat="45.32103" lon="4.64427">
        <ele>577.79998779297</ele>
        <time>2019-02-20T10:16:05.000Z</time>
      </trkpt>
      <trkpt lat="45.32102" lon="4.64426">
        <ele>577.79998779297</ele>
        <time>2019-02-20T10:16:06.000Z</time>
      </trkpt>
      <trkpt lat="45.32101" lon="4.64424">
        <ele>578</ele>
        <time>2019-02-20T10:16:07.000Z</time>
      </trkpt>
      <trkpt lat="45.32101" lon="4.64422">
        <ele>577.79998779297</ele>
        <time>2019-02-20T10:16:08.000Z</time>
      </trkpt>
      <trkpt lat="45.321" lon="4.64421">
        <ele>578</ele>
        <time>2019-02-20T10:16:09.000Z</time>
      </trkpt>
      <trkpt lat="45.321" lon="4.64419">
        <ele>578.40002441406</ele>
        <time>2019-02-20T10:16:10.000Z</time>
      </trkpt>
      <trkpt lat="45.32099" lon="4.64417">
        <ele>578.20001220703</ele>
        <time>2019-02-20T10:16:11.000Z</time>
      </trkpt>
      <trkpt lat="45.32099" lon="4.64416">
        <ele>578.40002441406</ele>
        <time>2019-02-20T10:16:12.000Z</time>
      </trkpt>
      <trkpt lat="45.32099" lon="4.64414">
        <ele>578.59997558594</ele>
        <time>2019-02-20T10:16:13.000Z</time>
      </trkpt>
      <trkpt lat="45.32098" lon="4.64412">
        <ele>579</ele>
        <time>2019-02-20T10:16:14.000Z</time>
      </trkpt>
      <trkpt lat="45.32098" lon="4.6441">
        <ele>579.20001220703</ele>
        <time>2019-02-20T10:16:15.000Z</time>
      </trkpt>
      <trkpt lat="45.32098" lon="4.64409">
        <ele>579.59997558594</ele>
        <time>2019-02-20T10:16:16.000Z</time>
      </trkpt>
      <trkpt lat="45.32098" lon="4.64407">
        <ele>579.59997558594</ele>
        <time>2019-02-20T10:16:17.000Z</time>
      </trkpt>
      <trkpt lat="45.32097" lon="4.64406">
        <ele>579.79998779297</ele>
        <time>2019-02-20T10:16:18.000Z</time>
      </trkpt>
      <trkpt lat="45.32097" lon="4.64404">
        <ele>580</ele>
        <time>2019-02-20T10:16:19.000Z</time>
      </trkpt>
      <trkpt lat="45.32095" lon="4.64401">
        <ele>580.20001220703</ele>
        <time>2019-02-20T10:16:20.000Z</time>
      </trkpt>
      <trkpt lat="45.32095" lon="4.64399">
        <ele>580.40002441406</ele>
        <time>2019-02-20T10:16:21.000Z</time>
      </trkpt>
      <trkpt lat="45.32094" lon="4.64397">
        <ele>580.59997558594</ele>
        <time>2019-02-20T10:16:22.000Z</time>
      </trkpt>
      <trkpt lat="45.32093" lon="4.64394">
        <ele>581</ele>
        <time>2019-02-20T10:16:23.000Z</time>
      </trkpt>
      <trkpt lat="45.32091" lon="4.64392">
        <ele>581.20001220703</ele>
        <time>2019-02-20T10:16:24.000Z</time>
      </trkpt>
      <trkpt lat="45.32089" lon="4.64389">
        <ele>581.40002441406</ele>
        <time>2019-02-20T10:16:25.000Z</time>
      </trkpt>
      <trkpt lat="45.32088" lon="4.64387">
        <ele>581.79998779297</ele>
        <time>2019-02-20T10:16:26.000Z</time>
      </trkpt>
      <trkpt lat="45.32086" lon="4.64385">
        <ele>582.20001220703</ele>
        <time>2019-02-20T10:16:27.000Z</time>
      </trkpt>
      <trkpt lat="45.32084" lon="4.64384">
        <ele>582.40002441406</ele>
        <time>2019-02-20T10:16:28.000Z</time>
      </trkpt>
      <trkpt lat="45.32081" lon="4.64382">
        <ele>582.40002441406</ele>
        <time>2019-02-20T10:16:29.000Z</time>
      </trkpt>
      <trkpt lat="45.32078" lon="4.64381">
        <ele>582.40002441406</ele>
        <time>2019-02-20T10:16:30.000Z</time>
      </trkpt>
      <trkpt lat="45.32076" lon="4.64379">
        <ele>582.40002441406</ele>
        <time>2019-02-20T10:16:31.000Z</time>
      </trkpt>
      <trkpt lat="45.32073" lon="4.64378">
        <ele>582.59997558594</ele>
        <time>2019-02-20T10:16:32.000Z</time>
      </trkpt>
      <trkpt lat="45.32071" lon="4.64377">
        <ele>582.59997558594</ele>
        <time>2019-02-20T10:16:33.000Z</time>
      </trkpt>
      <trkpt lat="45.32068" lon="4.64375">
        <ele>582.59997558594</ele>
        <time>2019-02-20T10:16:34.000Z</time>
      </trkpt>
      <trkpt lat="45.32066" lon="4.64374">
        <ele>582.59997558594</ele>
        <time>2019-02-20T10:16:35.000Z</time>
      </trkpt>
      <trkpt lat="45.32063" lon="4.64372">
        <ele>582.59997558594</ele>
        <time>2019-02-20T10:16:36.000Z</time>
      </trkpt>
      <trkpt lat="45.3206" lon="4.64371">
        <ele>582.59997558594</ele>
        <time>2019-02-20T10:16:37.000Z</time>
      </trkpt>
      <trkpt lat="45.32058" lon="4.64369">
        <ele>582.59997558594</ele>
        <time>2019-02-20T10:16:38.000Z</time>
      </trkpt>
      <trkpt lat="45.32055" lon="4.64368">
        <ele>582.59997558594</ele>
        <time>2019-02-20T10:16:39.000Z</time>
      </trkpt>
      <trkpt lat="45.32053" lon="4.64367">
        <ele>582.59997558594</ele>
        <time>2019-02-20T10:16:40.000Z</time>
      </trkpt>
      <trkpt lat="45.3205" lon="4.64366">
        <ele>582.59997558594</ele>
        <time>2019-02-20T10:16:41.000Z</time>
      </trkpt>
      <trkpt lat="45.32048" lon="4.64364">
        <ele>582.79998779297</ele>
        <time>2019-02-20T10:16:42.000Z</time>
      </trkpt>
      <trkpt lat="45.32045" lon="4.64363">
        <ele>582.79998779297</ele>
        <time>2019-02-20T10:16:43.000Z</time>
      </trkpt>
      <trkpt lat="45.32043" lon="4.64362">
        <ele>582.79998779297</ele>
        <time>2019-02-20T10:16:44.000Z</time>
      </trkpt>
      <trkpt lat="45.32041" lon="4.64361">
        <ele>583</ele>
        <time>2019-02-20T10:16:45.000Z</time>
      </trkpt>
      <trkpt lat="45.32039" lon="4.6436">
        <ele>583</ele>
        <time>2019-02-20T10:16:46.000Z</time>
      </trkpt>
      <trkpt lat="45.32037" lon="4.64359">
        <ele>583</ele>
        <time>2019-02-20T10:16:47.000Z</time>
      </trkpt>
      <trkpt lat="45.32035" lon="4.64357">
        <ele>583</ele>
        <time>2019-02-20T10:16:48.000Z</time>
      </trkpt>
      <trkpt lat="45.32033" lon="4.64356">
        <ele>583.20001220703</ele>
        <time>2019-02-20T10:16:49.000Z</time>
      </trkpt>
      <trkpt lat="45.32031" lon="4.64355">
        <ele>583.40002441406</ele>
        <time>2019-02-20T10:16:50.000Z</time>
      </trkpt>
      <trkpt lat="45.3203" lon="4.64354">
        <ele>583.40002441406</ele>
        <time>2019-02-20T10:16:51.000Z</time>
      </trkpt>
      <trkpt lat="45.32028" lon="4.64353">
        <ele>583.59997558594</ele>
        <time>2019-02-20T10:16:52.000Z</time>
      </trkpt>
      <trkpt lat="45.32026" lon="4.64352">
        <ele>583.59997558594</ele>
        <time>2019-02-20T10:16:53.000Z</time>
      </trkpt>
      <trkpt lat="45.32024" lon="4.64351">
        <ele>584</ele>
        <time>2019-02-20T10:16:54.000Z</time>
      </trkpt>
      <trkpt lat="45.32023" lon="4.6435">
        <ele>584.40002441406</ele>
        <time>2019-02-20T10:16:55.000Z</time>
      </trkpt>
      <trkpt lat="45.32021" lon="4.64349">
        <ele>584.59997558594</ele>
        <time>2019-02-20T10:16:56.000Z</time>
      </trkpt>
      <trkpt lat="45.32019" lon="4.64348">
        <ele>584.79998779297</ele>
        <time>2019-02-20T10:16:57.000Z</time>
      </trkpt>
      <trkpt lat="45.32018" lon="4.64346">
        <ele>585</ele>
        <time>2019-02-20T10:16:58.000Z</time>
      </trkpt>
      <trkpt lat="45.32016" lon="4.64345">
        <ele>585.20001220703</ele>
        <time>2019-02-20T10:16:59.000Z</time>
      </trkpt>
      <trkpt lat="45.32015" lon="4.64344">
        <ele>585.40002441406</ele>
        <time>2019-02-20T10:17:00.000Z</time>
      </trkpt>
      <trkpt lat="45.32013" lon="4.64343">
        <ele>585.59997558594</ele>
        <time>2019-02-20T10:17:01.000Z</time>
      </trkpt>
      <trkpt lat="45.32011" lon="4.64342">
        <ele>585.59997558594</ele>
        <time>2019-02-20T10:17:02.000Z</time>
      </trkpt>
      <trkpt lat="45.3201" lon="4.64341">
        <ele>585.79998779297</ele>
        <time>2019-02-20T10:17:03.000Z</time>
      </trkpt>
      <trkpt lat="45.32008" lon="4.6434">
        <ele>586</ele>
        <time>2019-02-20T10:17:04.000Z</time>
      </trkpt>
      <trkpt lat="45.32006" lon="4.64339">
        <ele>586.20001220703</ele>
        <time>2019-02-20T10:17:05.000Z</time>
      </trkpt>
      <trkpt lat="45.32004" lon="4.64337">
        <ele>586.40002441406</ele>
        <time>2019-02-20T10:17:06.000Z</time>
      </trkpt>
      <trkpt lat="45.32003" lon="4.64336">
        <ele>586.59997558594</ele>
        <time>2019-02-20T10:17:07.000Z</time>
      </trkpt>
      <trkpt lat="45.32001" lon="4.64335">
        <ele>586.79998779297</ele>
        <time>2019-02-20T10:17:08.000Z</time>
      </trkpt>
      <trkpt lat="45.31999" lon="4.64334">
        <ele>586.79998779297</ele>
        <time>2019-02-20T10:17:09.000Z</time>
      </trkpt>
      <trkpt lat="45.31997" lon="4.64333">
        <ele>587</ele>
        <time>2019-02-20T10:17:10.000Z</time>
      </trkpt>
      <trkpt lat="45.31996" lon="4.64332">
        <ele>587</ele>
        <time>2019-02-20T10:17:11.000Z</time>
      </trkpt>
      <trkpt lat="45.31994" lon="4.64331">
        <ele>587</ele>
        <time>2019-02-20T10:17:12.000Z</time>
      </trkpt>
      <trkpt lat="45.31992" lon="4.6433">
        <ele>587</ele>
        <time>2019-02-20T10:17:13.000Z</time>
      </trkpt>
      <trkpt lat="45.3199" lon="4.64329">
        <ele>587.20001220703</ele>
        <time>2019-02-20T10:17:14.000Z</time>
      </trkpt>
      <trkpt lat="45.31988" lon="4.64328">
        <ele>587.20001220703</ele>
        <time>2019-02-20T10:17:15.000Z</time>
      </trkpt>
      <trkpt lat="45.31987" lon="4.64327">
        <ele>587.40002441406</ele>
        <time>2019-02-20T10:17:16.000Z</time>
      </trkpt>
      <trkpt lat="45.31985" lon="4.64326">
        <ele>587.20001220703</ele>
        <time>2019-02-20T10:17:17.000Z</time>
      </trkpt>
      <trkpt lat="45.31983" lon="4.64325">
        <ele>587.40002441406</ele>
        <time>2019-02-20T10:17:18.000Z</time>
      </trkpt>
      <trkpt lat="45.31981" lon="4.64324">
        <ele>587.59997558594</ele>
        <time>2019-02-20T10:17:19.000Z</time>
      </trkpt>
      <trkpt lat="45.31979" lon="4.64323">
        <ele>587.79998779297</ele>
        <time>2019-02-20T10:17:20.000Z</time>
      </trkpt>
      <trkpt lat="45.31977" lon="4.64322">
        <ele>587.79998779297</ele>
        <time>2019-02-20T10:17:21.000Z</time>
      </trkpt>
      <trkpt lat="45.31975" lon="4.64321">
        <ele>587.79998779297</ele>
        <time>2019-02-20T10:17:22.000Z</time>
      </trkpt>
      <trkpt lat="45.31973" lon="4.64321">
        <ele>588</ele>
        <time>2019-02-20T10:17:23.000Z</time>
      </trkpt>
      <trkpt lat="45.31971" lon="4.6432">
        <ele>587.79998779297</ele>
        <time>2019-02-20T10:17:24.000Z</time>
      </trkpt>
      <trkpt lat="45.31969" lon="4.64319">
        <ele>587.79998779297</ele>
        <time>2019-02-20T10:17:25.000Z</time>
      </trkpt>
      <trkpt lat="45.31967" lon="4.64319">
        <ele>588</ele>
        <time>2019-02-20T10:17:26.000Z</time>
      </trkpt>
      <trkpt lat="45.31966" lon="4.64318">
        <ele>588</ele>
        <time>2019-02-20T10:17:27.000Z</time>
      </trkpt>
      <trkpt lat="45.31964" lon="4.64317">
        <ele>588</ele>
        <time>2019-02-20T10:17:28.000Z</time>
      </trkpt>
      <trkpt lat="45.31962" lon="4.64317">
        <ele>588.20001220703</ele>
        <time>2019-02-20T10:17:29.000Z</time>
      </trkpt>
      <trkpt lat="45.31959" lon="4.64317">
        <ele>588.20001220703</ele>
        <time>2019-02-20T10:17:30.000Z</time>
      </trkpt>
      <trkpt lat="45.31957" lon="4.64317">
        <ele>588.20001220703</ele>
        <time>2019-02-20T10:17:31.000Z</time>
      </trkpt>
      <trkpt lat="45.31955" lon="4.64316">
        <ele>588.20001220703</ele>
        <time>2019-02-20T10:17:32.000Z</time>
      </trkpt>
      <trkpt lat="45.31952" lon="4.64316">
        <ele>588.20001220703</ele>
        <time>2019-02-20T10:17:33.000Z</time>
      </trkpt>
      <trkpt lat="45.3195" lon="4.64316">
        <ele>588.20001220703</ele>
        <time>2019-02-20T10:17:34.000Z</time>
      </trkpt>
      <trkpt lat="45.31948" lon="4.64316">
        <ele>588.40002441406</ele>
        <time>2019-02-20T10:17:35.000Z</time>
      </trkpt>
      <trkpt lat="45.31946" lon="4.64316">
        <ele>588.20001220703</ele>
        <time>2019-02-20T10:17:36.000Z</time>
      </trkpt>
      <trkpt lat="45.31944" lon="4.64317">
        <ele>588.40002441406</ele>
        <time>2019-02-20T10:17:37.000Z</time>
      </trkpt>
      <trkpt lat="45.31942" lon="4.64317">
        <ele>588.59997558594</ele>
        <time>2019-02-20T10:17:38.000Z</time>
      </trkpt>
      <trkpt lat="45.3194" lon="4.64318">
        <ele>588.59997558594</ele>
        <time>2019-02-20T10:17:39.000Z</time>
      </trkpt>
      <trkpt lat="45.31938" lon="4.64319">
        <ele>588.79998779297</ele>
        <time>2019-02-20T10:17:40.000Z</time>
      </trkpt>
      <trkpt lat="45.31936" lon="4.6432">
        <ele>588.59997558594</ele>
        <time>2019-02-20T10:17:41.000Z</time>
      </trkpt>
      <trkpt lat="45.31934" lon="4.6432">
        <ele>589</ele>
        <time>2019-02-20T10:17:42.000Z</time>
      </trkpt>
      <trkpt lat="45.31932" lon="4.64321">
        <ele>589</ele>
        <time>2019-02-20T10:17:43.000Z</time>
      </trkpt>
      <trkpt lat="45.3193" lon="4.64322">
        <ele>589.20001220703</ele>
        <time>2019-02-20T10:17:44.000Z</time>
      </trkpt>
      <trkpt lat="45.31929" lon="4.64323">
        <ele>589.20001220703</ele>
        <time>2019-02-20T10:17:45.000Z</time>
      </trkpt>
      <trkpt lat="45.31927" lon="4.64324">
        <ele>589.40002441406</ele>
        <time>2019-02-20T10:17:46.000Z</time>
      </trkpt>
      <trkpt lat="45.31925" lon="4.64324">
        <ele>589.20001220703</ele>
        <time>2019-02-20T10:17:47.000Z</time>
      </trkpt>
      <trkpt lat="45.31924" lon="4.64325">
        <ele>589.40002441406</ele>
        <time>2019-02-20T10:17:48.000Z</time>
      </trkpt>
      <trkpt lat="45.31923" lon="4.64326">
        <ele>589.40002441406</ele>
        <time>2019-02-20T10:17:49.000Z</time>
      </trkpt>
      <trkpt lat="45.31921" lon="4.64327">
        <ele>589.59997558594</ele>
        <time>2019-02-20T10:17:50.000Z</time>
      </trkpt>
      <trkpt lat="45.3192" lon="4.64328">
        <ele>589.79998779297</ele>
        <time>2019-02-20T10:17:51.000Z</time>
      </trkpt>
      <trkpt lat="45.31918" lon="4.64329">
        <ele>589.79998779297</ele>
        <time>2019-02-20T10:17:52.000Z</time>
      </trkpt>
      <trkpt lat="45.31916" lon="4.6433">
        <ele>590</ele>
        <time>2019-02-20T10:17:53.000Z</time>
      </trkpt>
      <trkpt lat="45.31915" lon="4.64331">
        <ele>590</ele>
        <time>2019-02-20T10:17:54.000Z</time>
      </trkpt>
      <trkpt lat="45.31913" lon="4.64332">
        <ele>590.20001220703</ele>
        <time>2019-02-20T10:17:55.000Z</time>
      </trkpt>
      <trkpt lat="45.31912" lon="4.64333">
        <ele>590.40002441406</ele>
        <time>2019-02-20T10:17:56.000Z</time>
      </trkpt>
      <trkpt lat="45.3191" lon="4.64334">
        <ele>590.40002441406</ele>
        <time>2019-02-20T10:17:57.000Z</time>
      </trkpt>
      <trkpt lat="45.31909" lon="4.64334">
        <ele>590.40002441406</ele>
        <time>2019-02-20T10:17:58.000Z</time>
      </trkpt>
      <trkpt lat="45.31907" lon="4.64335">
        <ele>590.59997558594</ele>
        <time>2019-02-20T10:17:59.000Z</time>
      </trkpt>
      <trkpt lat="45.31906" lon="4.64335">
        <ele>590.59997558594</ele>
        <time>2019-02-20T10:18:00.000Z</time>
      </trkpt>
      <trkpt lat="45.31905" lon="4.64336">
        <ele>590.59997558594</ele>
        <time>2019-02-20T10:18:01.000Z</time>
      </trkpt>
      <trkpt lat="45.31904" lon="4.64337">
        <ele>590.79998779297</ele>
        <time>2019-02-20T10:18:02.000Z</time>
      </trkpt>
      <trkpt lat="45.31902" lon="4.64338">
        <ele>590.79998779297</ele>
        <time>2019-02-20T10:18:03.000Z</time>
      </trkpt>
      <trkpt lat="45.319" lon="4.64339">
        <ele>590.79998779297</ele>
        <time>2019-02-20T10:18:04.000Z</time>
      </trkpt>
      <trkpt lat="45.31899" lon="4.64339">
        <ele>591</ele>
        <time>2019-02-20T10:18:05.000Z</time>
      </trkpt>
      <trkpt lat="45.31898" lon="4.64341">
        <ele>591</ele>
        <time>2019-02-20T10:18:06.000Z</time>
      </trkpt>
      <trkpt lat="45.31896" lon="4.64342">
        <ele>591</ele>
        <time>2019-02-20T10:18:07.000Z</time>
      </trkpt>
      <trkpt lat="45.31895" lon="4.64344">
        <ele>591.20001220703</ele>
        <time>2019-02-20T10:18:08.000Z</time>
      </trkpt>
      <trkpt lat="45.31894" lon="4.64345">
        <ele>591.40002441406</ele>
        <time>2019-02-20T10:18:09.000Z</time>
      </trkpt>
      <trkpt lat="45.31894" lon="4.64347">
        <ele>591.40002441406</ele>
        <time>2019-02-20T10:18:10.000Z</time>
      </trkpt>
      <trkpt lat="45.31894" lon="4.64348">
        <ele>591.40002441406</ele>
        <time>2019-02-20T10:18:11.000Z</time>
      </trkpt>
      <trkpt lat="45.31894" lon="4.6435">
        <ele>591.59997558594</ele>
        <time>2019-02-20T10:18:12.000Z</time>
      </trkpt>
      <trkpt lat="45.31895" lon="4.64352">
        <ele>591.79998779297</ele>
        <time>2019-02-20T10:18:13.000Z</time>
      </trkpt>
      <trkpt lat="45.31896" lon="4.64354">
        <ele>591.79998779297</ele>
        <time>2019-02-20T10:18:14.000Z</time>
      </trkpt>
      <trkpt lat="45.31896" lon="4.64356">
        <ele>591.79998779297</ele>
        <time>2019-02-20T10:18:15.000Z</time>
      </trkpt>
      <trkpt lat="45.31897" lon="4.64358">
        <ele>591.79998779297</ele>
        <time>2019-02-20T10:18:16.000Z</time>
      </trkpt>
      <trkpt lat="45.31898" lon="4.6436">
        <ele>591.79998779297</ele>
        <time>2019-02-20T10:18:17.000Z</time>
      </trkpt>
      <trkpt lat="45.319" lon="4.64363">
        <ele>592</ele>
        <time>2019-02-20T10:18:18.000Z</time>
      </trkpt>
      <trkpt lat="45.31901" lon="4.64365">
        <ele>592</ele>
        <time>2019-02-20T10:18:19.000Z</time>
      </trkpt>
      <trkpt lat="45.31902" lon="4.64367">
        <ele>591.79998779297</ele>
        <time>2019-02-20T10:18:20.000Z</time>
      </trkpt>
      <trkpt lat="45.31903" lon="4.64369">
        <ele>592</ele>
        <time>2019-02-20T10:18:21.000Z</time>
      </trkpt>
      <trkpt lat="45.31905" lon="4.64372">
        <ele>592</ele>
        <time>2019-02-20T10:18:22.000Z</time>
      </trkpt>
      <trkpt lat="45.31906" lon="4.64374">
        <ele>592.20001220703</ele>
        <time>2019-02-20T10:18:23.000Z</time>
      </trkpt>
      <trkpt lat="45.31907" lon="4.64376">
        <ele>592</ele>
        <time>2019-02-20T10:18:24.000Z</time>
      </trkpt>
      <trkpt lat="45.31908" lon="4.64378">
        <ele>592</ele>
        <time>2019-02-20T10:18:25.000Z</time>
      </trkpt>
      <trkpt lat="45.31909" lon="4.6438">
        <ele>592</ele>
        <time>2019-02-20T10:18:26.000Z</time>
      </trkpt>
      <trkpt lat="45.3191" lon="4.64382">
        <ele>592.20001220703</ele>
        <time>2019-02-20T10:18:27.000Z</time>
      </trkpt>
      <trkpt lat="45.31911" lon="4.64384">
        <ele>592.20001220703</ele>
        <time>2019-02-20T10:18:28.000Z</time>
      </trkpt>
      <trkpt lat="45.31912" lon="4.64386">
        <ele>592.20001220703</ele>
        <time>2019-02-20T10:18:29.000Z</time>
      </trkpt>
      <trkpt lat="45.31913" lon="4.64388">
        <ele>592.20001220703</ele>
        <time>2019-02-20T10:18:30.000Z</time>
      </trkpt>
      <trkpt lat="45.31914" lon="4.64389">
        <ele>592.40002441406</ele>
        <time>2019-02-20T10:18:31.000Z</time>
      </trkpt>
      <trkpt lat="45.31915" lon="4.64391">
        <ele>592.40002441406</ele>
        <time>2019-02-20T10:18:32.000Z</time>
      </trkpt>
      <trkpt lat="45.31916" lon="4.64393">
        <ele>592.40002441406</ele>
        <time>2019-02-20T10:18:33.000Z</time>
      </trkpt>
      <trkpt lat="45.31917" lon="4.64394">
        <ele>592.40002441406</ele>
        <time>2019-02-20T10:18:34.000Z</time>
      </trkpt>
      <trkpt lat="45.31917" lon="4.64396">
        <ele>592.59997558594</ele>
        <time>2019-02-20T10:18:35.000Z</time>
      </trkpt>
      <trkpt lat="45.31918" lon="4.64398">
        <ele>592.59997558594</ele>
        <time>2019-02-20T10:18:36.000Z</time>
      </trkpt>
      <trkpt lat="45.31919" lon="4.64399">
        <ele>592.59997558594</ele>
        <time>2019-02-20T10:18:37.000Z</time>
      </trkpt>
      <trkpt lat="45.3192" lon="4.64401">
        <ele>592.59997558594</ele>
        <time>2019-02-20T10:18:38.000Z</time>
      </trkpt>
      <trkpt lat="45.31921" lon="4.64403">
        <ele>592.79998779297</ele>
        <time>2019-02-20T10:18:39.000Z</time>
      </trkpt>
      <trkpt lat="45.31922" lon="4.64404">
        <ele>592.79998779297</ele>
        <time>2019-02-20T10:18:40.000Z</time>
      </trkpt>
      <trkpt lat="45.31922" lon="4.64406">
        <ele>592.79998779297</ele>
        <time>2019-02-20T10:18:41.000Z</time>
      </trkpt>
      <trkpt lat="45.31923" lon="4.64407">
        <ele>592.79998779297</ele>
        <time>2019-02-20T10:18:42.000Z</time>
      </trkpt>
      <trkpt lat="45.31924" lon="4.64408">
        <ele>593</ele>
        <time>2019-02-20T10:18:43.000Z</time>
      </trkpt>
      <trkpt lat="45.31925" lon="4.6441">
        <ele>593.20001220703</ele>
        <time>2019-02-20T10:18:44.000Z</time>
      </trkpt>
      <trkpt lat="45.31926" lon="4.64411">
        <ele>593.20001220703</ele>
        <time>2019-02-20T10:18:45.000Z</time>
      </trkpt>
      <trkpt lat="45.31927" lon="4.64413">
        <ele>593</ele>
        <time>2019-02-20T10:18:46.000Z</time>
      </trkpt>
      <trkpt lat="45.31928" lon="4.64415">
        <ele>593.20001220703</ele>
        <time>2019-02-20T10:18:47.000Z</time>
      </trkpt>
      <trkpt lat="45.31928" lon="4.64417">
        <ele>593.20001220703</ele>
        <time>2019-02-20T10:18:48.000Z</time>
      </trkpt>
      <trkpt lat="45.31929" lon="4.6442">
        <ele>593.20001220703</ele>
        <time>2019-02-20T10:18:49.000Z</time>
      </trkpt>
      <trkpt lat="45.3193" lon="4.64422">
        <ele>593.40002441406</ele>
        <time>2019-02-20T10:18:50.000Z</time>
      </trkpt>
      <trkpt lat="45.31931" lon="4.64424">
        <ele>593.40002441406</ele>
        <time>2019-02-20T10:18:51.000Z</time>
      </trkpt>
      <trkpt lat="45.31932" lon="4.64426">
        <ele>593.59997558594</ele>
        <time>2019-02-20T10:18:52.000Z</time>
      </trkpt>
      <trkpt lat="45.31933" lon="4.64428">
        <ele>593.59997558594</ele>
        <time>2019-02-20T10:18:53.000Z</time>
      </trkpt>
      <trkpt lat="45.31934" lon="4.64431">
        <ele>593.59997558594</ele>
        <time>2019-02-20T10:18:54.000Z</time>
      </trkpt>
      <trkpt lat="45.31935" lon="4.64433">
        <ele>593.59997558594</ele>
        <time>2019-02-20T10:18:55.000Z</time>
      </trkpt>
      <trkpt lat="45.31936" lon="4.64435">
        <ele>593.79998779297</ele>
        <time>2019-02-20T10:18:56.000Z</time>
      </trkpt>
      <trkpt lat="45.31937" lon="4.64437">
        <ele>593.79998779297</ele>
        <time>2019-02-20T10:18:57.000Z</time>
      </trkpt>
      <trkpt lat="45.31938" lon="4.6444">
        <ele>594</ele>
        <time>2019-02-20T10:18:58.000Z</time>
      </trkpt>
      <trkpt lat="45.31938" lon="4.64442">
        <ele>594</ele>
        <time>2019-02-20T10:18:59.000Z</time>
      </trkpt>
      <trkpt lat="45.31939" lon="4.64444">
        <ele>594</ele>
        <time>2019-02-20T10:19:00.000Z</time>
      </trkpt>
      <trkpt lat="45.3194" lon="4.64446">
        <ele>594.20001220703</ele>
        <time>2019-02-20T10:19:01.000Z</time>
      </trkpt>
      <trkpt lat="45.31941" lon="4.64448">
        <ele>594.20001220703</ele>
        <time>2019-02-20T10:19:02.000Z</time>
      </trkpt>
      <trkpt lat="45.31942" lon="4.6445">
        <ele>594.40002441406</ele>
        <time>2019-02-20T10:19:03.000Z</time>
      </trkpt>
      <trkpt lat="45.31943" lon="4.64452">
        <ele>594.40002441406</ele>
        <time>2019-02-20T10:19:04.000Z</time>
      </trkpt>
      <trkpt lat="45.31944" lon="4.64454">
        <ele>594.59997558594</ele>
        <time>2019-02-20T10:19:05.000Z</time>
      </trkpt>
      <trkpt lat="45.31945" lon="4.64456">
        <ele>594.59997558594</ele>
        <time>2019-02-20T10:19:06.000Z</time>
      </trkpt>
      <trkpt lat="45.31946" lon="4.64457">
        <ele>594.59997558594</ele>
        <time>2019-02-20T10:19:07.000Z</time>
      </trkpt>
      <trkpt lat="45.31947" lon="4.64459">
        <ele>594.79998779297</ele>
        <time>2019-02-20T10:19:08.000Z</time>
      </trkpt>
      <trkpt lat="45.31948" lon="4.64461">
        <ele>594.79998779297</ele>
        <time>2019-02-20T10:19:09.000Z</time>
      </trkpt>
      <trkpt lat="45.31949" lon="4.64463">
        <ele>595</ele>
        <time>2019-02-20T10:19:10.000Z</time>
      </trkpt>
      <trkpt lat="45.3195" lon="4.64465">
        <ele>595</ele>
        <time>2019-02-20T10:19:11.000Z</time>
      </trkpt>
      <trkpt lat="45.3195" lon="4.64466">
        <ele>595.20001220703</ele>
        <time>2019-02-20T10:19:12.000Z</time>
      </trkpt>
      <trkpt lat="45.31951" lon="4.64468">
        <ele>595.40002441406</ele>
        <time>2019-02-20T10:19:13.000Z</time>
      </trkpt>
      <trkpt lat="45.31952" lon="4.64469">
        <ele>595.59997558594</ele>
        <time>2019-02-20T10:19:14.000Z</time>
      </trkpt>
      <trkpt lat="45.31953" lon="4.64471">
        <ele>595.79998779297</ele>
        <time>2019-02-20T10:19:15.000Z</time>
      </trkpt>
      <trkpt lat="45.31954" lon="4.64473">
        <ele>596</ele>
        <time>2019-02-20T10:19:16.000Z</time>
      </trkpt>
      <trkpt lat="45.31955" lon="4.64474">
        <ele>596.40002441406</ele>
        <time>2019-02-20T10:19:17.000Z</time>
      </trkpt>
      <trkpt lat="45.31956" lon="4.64476">
        <ele>596.20001220703</ele>
        <time>2019-02-20T10:19:18.000Z</time>
      </trkpt>
      <trkpt lat="45.31957" lon="4.64478">
        <ele>596.40002441406</ele>
        <time>2019-02-20T10:19:19.000Z</time>
      </trkpt>
      <trkpt lat="45.31958" lon="4.6448">
        <ele>596.59997558594</ele>
        <time>2019-02-20T10:19:20.000Z</time>
      </trkpt>
      <trkpt lat="45.31959" lon="4.64481">
        <ele>596.59997558594</ele>
        <time>2019-02-20T10:19:21.000Z</time>
      </trkpt>
      <trkpt lat="45.3196" lon="4.64483">
        <ele>596.79998779297</ele>
        <time>2019-02-20T10:19:22.000Z</time>
      </trkpt>
      <trkpt lat="45.31961" lon="4.64485">
        <ele>597</ele>
        <time>2019-02-20T10:19:23.000Z</time>
      </trkpt>
      <trkpt lat="45.31961" lon="4.64486">
        <ele>597</ele>
        <time>2019-02-20T10:19:24.000Z</time>
      </trkpt>
      <trkpt lat="45.31962" lon="4.64488">
        <ele>597.20001220703</ele>
        <time>2019-02-20T10:19:25.000Z</time>
      </trkpt>
      <trkpt lat="45.31963" lon="4.64489">
        <ele>597.59997558594</ele>
        <time>2019-02-20T10:19:26.000Z</time>
      </trkpt>
      <trkpt lat="45.31964" lon="4.64491">
        <ele>597.59997558594</ele>
        <time>2019-02-20T10:19:27.000Z</time>
      </trkpt>
      <trkpt lat="45.31965" lon="4.64493">
        <ele>597.79998779297</ele>
        <time>2019-02-20T10:19:28.000Z</time>
      </trkpt>
      <trkpt lat="45.31966" lon="4.64495">
        <ele>598</ele>
        <time>2019-02-20T10:19:29.000Z</time>
      </trkpt>
      <trkpt lat="45.31967" lon="4.64496">
        <ele>598</ele>
        <time>2019-02-20T10:19:30.000Z</time>
      </trkpt>
      <trkpt lat="45.31968" lon="4.64498">
        <ele>598.20001220703</ele>
        <time>2019-02-20T10:19:31.000Z</time>
      </trkpt>
      <trkpt lat="45.31969" lon="4.645">
        <ele>598</ele>
        <time>2019-02-20T10:19:32.000Z</time>
      </trkpt>
      <trkpt lat="45.3197" lon="4.64502">
        <ele>598.20001220703</ele>
        <time>2019-02-20T10:19:33.000Z</time>
      </trkpt>
      <trkpt lat="45.31971" lon="4.64504">
        <ele>598.20001220703</ele>
        <time>2019-02-20T10:19:34.000Z</time>
      </trkpt>
      <trkpt lat="45.31972" lon="4.64506">
        <ele>598.40002441406</ele>
        <time>2019-02-20T10:19:35.000Z</time>
      </trkpt>
      <trkpt lat="45.31973" lon="4.64508">
        <ele>598.59997558594</ele>
        <time>2019-02-20T10:19:36.000Z</time>
      </trkpt>
      <trkpt lat="45.31974" lon="4.6451">
        <ele>598.79998779297</ele>
        <time>2019-02-20T10:19:37.000Z</time>
      </trkpt>
      <trkpt lat="45.31975" lon="4.64512">
        <ele>599</ele>
        <time>2019-02-20T10:19:38.000Z</time>
      </trkpt>
      <trkpt lat="45.31976" lon="4.64513">
        <ele>599.20001220703</ele>
        <time>2019-02-20T10:19:39.000Z</time>
      </trkpt>
      <trkpt lat="45.31977" lon="4.64515">
        <ele>599.40002441406</ele>
        <time>2019-02-20T10:19:40.000Z</time>
      </trkpt>
      <trkpt lat="45.31978" lon="4.64517">
        <ele>599.59997558594</ele>
        <time>2019-02-20T10:19:41.000Z</time>
      </trkpt>
      <trkpt lat="45.31979" lon="4.64519">
        <ele>599.79998779297</ele>
        <time>2019-02-20T10:19:42.000Z</time>
      </trkpt>
      <trkpt lat="45.3198" lon="4.64521">
        <ele>600</ele>
        <time>2019-02-20T10:19:43.000Z</time>
      </trkpt>
      <trkpt lat="45.31981" lon="4.64523">
        <ele>600</ele>
        <time>2019-02-20T10:19:44.000Z</time>
      </trkpt>
      <trkpt lat="45.31981" lon="4.64525">
        <ele>600.40002441406</ele>
        <time>2019-02-20T10:19:45.000Z</time>
      </trkpt>
      <trkpt lat="45.31982" lon="4.64527">
        <ele>600.40002441406</ele>
        <time>2019-02-20T10:19:46.000Z</time>
      </trkpt>
      <trkpt lat="45.31983" lon="4.64529">
        <ele>600.59997558594</ele>
        <time>2019-02-20T10:19:47.000Z</time>
      </trkpt>
      <trkpt lat="45.31984" lon="4.6453">
        <ele>600.59997558594</ele>
        <time>2019-02-20T10:19:48.000Z</time>
      </trkpt>
      <trkpt lat="45.31985" lon="4.64532">
        <ele>601</ele>
        <time>2019-02-20T10:19:49.000Z</time>
      </trkpt>
      <trkpt lat="45.31986" lon="4.64534">
        <ele>601</ele>
        <time>2019-02-20T10:19:50.000Z</time>
      </trkpt>
      <trkpt lat="45.31987" lon="4.64536">
        <ele>601.40002441406</ele>
        <time>2019-02-20T10:19:51.000Z</time>
      </trkpt>
      <trkpt lat="45.31988" lon="4.64537">
        <ele>601.59997558594</ele>
        <time>2019-02-20T10:19:52.000Z</time>
      </trkpt>
      <trkpt lat="45.31989" lon="4.64539">
        <ele>602</ele>
        <time>2019-02-20T10:19:53.000Z</time>
      </trkpt>
      <trkpt lat="45.3199" lon="4.64541">
        <ele>602</ele>
        <time>2019-02-20T10:19:54.000Z</time>
      </trkpt>
      <trkpt lat="45.3199" lon="4.64542">
        <ele>602.40002441406</ele>
        <time>2019-02-20T10:19:55.000Z</time>
      </trkpt>
      <trkpt lat="45.31991" lon="4.64544">
        <ele>602.59997558594</ele>
        <time>2019-02-20T10:19:56.000Z</time>
      </trkpt>
      <trkpt lat="45.31992" lon="4.64546">
        <ele>602.79998779297</ele>
        <time>2019-02-20T10:19:57.000Z</time>
      </trkpt>
      <trkpt lat="45.31993" lon="4.64547">
        <ele>603.20001220703</ele>
        <time>2019-02-20T10:19:58.000Z</time>
      </trkpt>
      <trkpt lat="45.31993" lon="4.64548">
        <ele>603.59997558594</ele>
        <time>2019-02-20T10:19:59.000Z</time>
      </trkpt>
      <trkpt lat="45.31994" lon="4.6455">
        <ele>603.59997558594</ele>
        <time>2019-02-20T10:20:00.000Z</time>
      </trkpt>
      <trkpt lat="45.31995" lon="4.64551">
        <ele>603.79998779297</ele>
        <time>2019-02-20T10:20:01.000Z</time>
      </trkpt>
      <trkpt lat="45.31995" lon="4.64553">
        <ele>604</ele>
        <time>2019-02-20T10:20:02.000Z</time>
      </trkpt>
      <trkpt lat="45.31996" lon="4.64555">
        <ele>604</ele>
        <time>2019-02-20T10:20:03.000Z</time>
      </trkpt>
      <trkpt lat="45.31997" lon="4.64557">
        <ele>604</ele>
        <time>2019-02-20T10:20:04.000Z</time>
      </trkpt>
      <trkpt lat="45.31998" lon="4.64559">
        <ele>604.20001220703</ele>
        <time>2019-02-20T10:20:05.000Z</time>
      </trkpt>
      <trkpt lat="45.31998" lon="4.6456">
        <ele>604.20001220703</ele>
        <time>2019-02-20T10:20:06.000Z</time>
      </trkpt>
      <trkpt lat="45.31999" lon="4.64562">
        <ele>604.20001220703</ele>
        <time>2019-02-20T10:20:07.000Z</time>
      </trkpt>
      <trkpt lat="45.32" lon="4.64564">
        <ele>604.40002441406</ele>
        <time>2019-02-20T10:20:08.000Z</time>
      </trkpt>
      <trkpt lat="45.32" lon="4.64566">
        <ele>604.79998779297</ele>
        <time>2019-02-20T10:20:09.000Z</time>
      </trkpt>
      <trkpt lat="45.32001" lon="4.64568">
        <ele>605</ele>
        <time>2019-02-20T10:20:10.000Z</time>
      </trkpt>
      <trkpt lat="45.32002" lon="4.64569">
        <ele>605.20001220703</ele>
        <time>2019-02-20T10:20:11.000Z</time>
      </trkpt>
      <trkpt lat="45.32003" lon="4.64571">
        <ele>605.40002441406</ele>
        <time>2019-02-20T10:20:12.000Z</time>
      </trkpt>
      <trkpt lat="45.32004" lon="4.64573">
        <ele>605.40002441406</ele>
        <time>2019-02-20T10:20:13.000Z</time>
      </trkpt>
      <trkpt lat="45.32004" lon="4.64575">
        <ele>605.59997558594</ele>
        <time>2019-02-20T10:20:14.000Z</time>
      </trkpt>
      <trkpt lat="45.32005" lon="4.64577">
        <ele>605.59997558594</ele>
        <time>2019-02-20T10:20:15.000Z</time>
      </trkpt>
      <trkpt lat="45.32006" lon="4.64579">
        <ele>605.79998779297</ele>
        <time>2019-02-20T10:20:16.000Z</time>
      </trkpt>
      <trkpt lat="45.32006" lon="4.64581">
        <ele>605.79998779297</ele>
        <time>2019-02-20T10:20:17.000Z</time>
      </trkpt>
      <trkpt lat="45.32007" lon="4.64582">
        <ele>606</ele>
        <time>2019-02-20T10:20:18.000Z</time>
      </trkpt>
      <trkpt lat="45.32008" lon="4.64584">
        <ele>606</ele>
        <time>2019-02-20T10:20:19.000Z</time>
      </trkpt>
      <trkpt lat="45.32009" lon="4.64586">
        <ele>606.20001220703</ele>
        <time>2019-02-20T10:20:20.000Z</time>
      </trkpt>
      <trkpt lat="45.32009" lon="4.64588">
        <ele>606.20001220703</ele>
        <time>2019-02-20T10:20:21.000Z</time>
      </trkpt>
      <trkpt lat="45.3201" lon="4.64589">
        <ele>606.40002441406</ele>
        <time>2019-02-20T10:20:22.000Z</time>
      </trkpt>
      <trkpt lat="45.32011" lon="4.64591">
        <ele>606.59997558594</ele>
        <time>2019-02-20T10:20:23.000Z</time>
      </trkpt>
      <trkpt lat="45.32012" lon="4.64592">
        <ele>607</ele>
        <time>2019-02-20T10:20:24.000Z</time>
      </trkpt>
      <trkpt lat="45.32013" lon="4.64593">
        <ele>607.40002441406</ele>
        <time>2019-02-20T10:20:25.000Z</time>
      </trkpt>
      <trkpt lat="45.32015" lon="4.64595">
        <ele>607.59997558594</ele>
        <time>2019-02-20T10:20:26.000Z</time>
      </trkpt>
      <trkpt lat="45.32016" lon="4.64597">
        <ele>607.79998779297</ele>
        <time>2019-02-20T10:20:27.000Z</time>
      </trkpt>
      <trkpt lat="45.32017" lon="4.64598">
        <ele>608</ele>
        <time>2019-02-20T10:20:28.000Z</time>
      </trkpt>
      <trkpt lat="45.32018" lon="4.64599">
        <ele>608.20001220703</ele>
        <time>2019-02-20T10:20:29.000Z</time>
      </trkpt>
      <trkpt lat="45.32018" lon="4.646">
        <ele>608.40002441406</ele>
        <time>2019-02-20T10:20:30.000Z</time>
      </trkpt>
      <trkpt lat="45.32019" lon="4.64601">
        <ele>608.40002441406</ele>
        <time>2019-02-20T10:20:31.000Z</time>
      </trkpt>
      <trkpt lat="45.32021" lon="4.64602">
        <ele>608.79998779297</ele>
        <time>2019-02-20T10:20:32.000Z</time>
      </trkpt>
      <trkpt lat="45.32022" lon="4.64603">
        <ele>609.20001220703</ele>
        <time>2019-02-20T10:20:33.000Z</time>
      </trkpt>
      <trkpt lat="45.32023" lon="4.64604">
        <ele>609.20001220703</ele>
        <time>2019-02-20T10:20:34.000Z</time>
      </trkpt>
      <trkpt lat="45.32024" lon="4.64605">
        <ele>609.40002441406</ele>
        <time>2019-02-20T10:20:35.000Z</time>
      </trkpt>
      <trkpt lat="45.32026" lon="4.64606">
        <ele>609.59997558594</ele>
        <time>2019-02-20T10:20:36.000Z</time>
      </trkpt>
      <trkpt lat="45.32027" lon="4.64607">
        <ele>609.79998779297</ele>
        <time>2019-02-20T10:20:37.000Z</time>
      </trkpt>
      <trkpt lat="45.32028" lon="4.64607">
        <ele>610.20001220703</ele>
        <time>2019-02-20T10:20:38.000Z</time>
      </trkpt>
      <trkpt lat="45.3203" lon="4.64608">
        <ele>610.20001220703</ele>
        <time>2019-02-20T10:20:39.000Z</time>
      </trkpt>
      <trkpt lat="45.32031" lon="4.64609">
        <ele>610.20001220703</ele>
        <time>2019-02-20T10:20:40.000Z</time>
      </trkpt>
      <trkpt lat="45.32032" lon="4.6461">
        <ele>610.79998779297</ele>
        <time>2019-02-20T10:20:41.000Z</time>
      </trkpt>
      <trkpt lat="45.32033" lon="4.64611">
        <ele>611</ele>
        <time>2019-02-20T10:20:42.000Z</time>
      </trkpt>
      <trkpt lat="45.32034" lon="4.64612">
        <ele>611.20001220703</ele>
        <time>2019-02-20T10:20:43.000Z</time>
      </trkpt>
      <trkpt lat="45.32035" lon="4.64612">
        <ele>611.20001220703</ele>
        <time>2019-02-20T10:20:44.000Z</time>
      </trkpt>
      <trkpt lat="45.32035" lon="4.64613">
        <ele>611.59997558594</ele>
        <time>2019-02-20T10:20:45.000Z</time>
      </trkpt>
      <trkpt lat="45.32036" lon="4.64614">
        <ele>611.79998779297</ele>
        <time>2019-02-20T10:20:46.000Z</time>
      </trkpt>
      <trkpt lat="45.32037" lon="4.64615">
        <ele>612.20001220703</ele>
        <time>2019-02-20T10:20:47.000Z</time>
      </trkpt>
      <trkpt lat="45.32038" lon="4.64616">
        <ele>612.40002441406</ele>
        <time>2019-02-20T10:20:48.000Z</time>
      </trkpt>
      <trkpt lat="45.32039" lon="4.64617">
        <ele>612.59997558594</ele>
        <time>2019-02-20T10:20:49.000Z</time>
      </trkpt>
      <trkpt lat="45.3204" lon="4.64618">
        <ele>612.59997558594</ele>
        <time>2019-02-20T10:20:50.000Z</time>
      </trkpt>
      <trkpt lat="45.32041" lon="4.64619">
        <ele>612.79998779297</ele>
        <time>2019-02-20T10:20:51.000Z</time>
      </trkpt>
      <trkpt lat="45.32042" lon="4.6462">
        <ele>613</ele>
        <time>2019-02-20T10:20:52.000Z</time>
      </trkpt>
      <trkpt lat="45.32043" lon="4.64621">
        <ele>613.20001220703</ele>
        <time>2019-02-20T10:20:53.000Z</time>
      </trkpt>
      <trkpt lat="45.32043" lon="4.64622">
        <ele>613.20001220703</ele>
        <time>2019-02-20T10:20:54.000Z</time>
      </trkpt>
      <trkpt lat="45.32044" lon="4.64624">
        <ele>613.40002441406</ele>
        <time>2019-02-20T10:20:55.000Z</time>
      </trkpt>
      <trkpt lat="45.32045" lon="4.64625">
        <ele>613.59997558594</ele>
        <time>2019-02-20T10:20:56.000Z</time>
      </trkpt>
      <trkpt lat="45.32045" lon="4.64626">
        <ele>613.79998779297</ele>
        <time>2019-02-20T10:20:57.000Z</time>
      </trkpt>
      <trkpt lat="45.32046" lon="4.64627">
        <ele>614</ele>
        <time>2019-02-20T10:20:58.000Z</time>
      </trkpt>
      <trkpt lat="45.32046" lon="4.64629">
        <ele>614.20001220703</ele>
        <time>2019-02-20T10:20:59.000Z</time>
      </trkpt>
      <trkpt lat="45.32046" lon="4.6463">
        <ele>614.20001220703</ele>
        <time>2019-02-20T10:21:00.000Z</time>
      </trkpt>
      <trkpt lat="45.32045" lon="4.64631">
        <ele>614.40002441406</ele>
        <time>2019-02-20T10:21:01.000Z</time>
      </trkpt>
      <trkpt lat="45.32043" lon="4.64631">
        <ele>614.40002441406</ele>
        <time>2019-02-20T10:21:02.000Z</time>
      </trkpt>
      <trkpt lat="45.32042" lon="4.64632">
        <ele>614.59997558594</ele>
        <time>2019-02-20T10:21:03.000Z</time>
      </trkpt>
      <trkpt lat="45.32041" lon="4.64632">
        <ele>615</ele>
        <time>2019-02-20T10:21:04.000Z</time>
      </trkpt>
      <trkpt lat="45.3204" lon="4.64633">
        <ele>615</ele>
        <time>2019-02-20T10:21:05.000Z</time>
      </trkpt>
      <trkpt lat="45.32038" lon="4.64634">
        <ele>615.20001220703</ele>
        <time>2019-02-20T10:21:06.000Z</time>
      </trkpt>
      <trkpt lat="45.32037" lon="4.64635">
        <ele>615.40002441406</ele>
        <time>2019-02-20T10:21:07.000Z</time>
      </trkpt>
      <trkpt lat="45.32035" lon="4.64636">
        <ele>615.59997558594</ele>
        <time>2019-02-20T10:21:08.000Z</time>
      </trkpt>
      <trkpt lat="45.32034" lon="4.64637">
        <ele>615.59997558594</ele>
        <time>2019-02-20T10:21:09.000Z</time>
      </trkpt>
      <trkpt lat="45.32032" lon="4.64637">
        <ele>615.79998779297</ele>
        <time>2019-02-20T10:21:10.000Z</time>
      </trkpt>
      <trkpt lat="45.32031" lon="4.64638">
        <ele>616</ele>
        <time>2019-02-20T10:21:11.000Z</time>
      </trkpt>
      <trkpt lat="45.32029" lon="4.64639">
        <ele>616</ele>
        <time>2019-02-20T10:21:12.000Z</time>
      </trkpt>
      <trkpt lat="45.32028" lon="4.6464">
        <ele>616.20001220703</ele>
        <time>2019-02-20T10:21:13.000Z</time>
      </trkpt>
      <trkpt lat="45.32027" lon="4.6464">
        <ele>616.40002441406</ele>
        <time>2019-02-20T10:21:14.000Z</time>
      </trkpt>
      <trkpt lat="45.32026" lon="4.64641">
        <ele>616.59997558594</ele>
        <time>2019-02-20T10:21:15.000Z</time>
      </trkpt>
      <trkpt lat="45.32025" lon="4.64642">
        <ele>616.79998779297</ele>
        <time>2019-02-20T10:21:16.000Z</time>
      </trkpt>
      <trkpt lat="45.32023" lon="4.64643">
        <ele>616.79998779297</ele>
        <time>2019-02-20T10:21:17.000Z</time>
      </trkpt>
      <trkpt lat="45.32022" lon="4.64644">
        <ele>616.79998779297</ele>
        <time>2019-02-20T10:21:18.000Z</time>
      </trkpt>
      <trkpt lat="45.3202" lon="4.64645">
        <ele>617.20001220703</ele>
        <time>2019-02-20T10:21:19.000Z</time>
      </trkpt>
      <trkpt lat="45.32019" lon="4.64646">
        <ele>617.40002441406</ele>
        <time>2019-02-20T10:21:20.000Z</time>
      </trkpt>
      <trkpt lat="45.32017" lon="4.64647">
        <ele>617.59997558594</ele>
        <time>2019-02-20T10:21:21.000Z</time>
      </trkpt>
      <trkpt lat="45.32016" lon="4.64648">
        <ele>617.59997558594</ele>
        <time>2019-02-20T10:21:22.000Z</time>
      </trkpt>
      <trkpt lat="45.32014" lon="4.64649">
        <ele>617.59997558594</ele>
        <time>2019-02-20T10:21:23.000Z</time>
      </trkpt>
      <trkpt lat="45.32013" lon="4.6465">
        <ele>617.59997558594</ele>
        <time>2019-02-20T10:21:24.000Z</time>
      </trkpt>
      <trkpt lat="45.32011" lon="4.6465">
        <ele>617.79998779297</ele>
        <time>2019-02-20T10:21:25.000Z</time>
      </trkpt>
      <trkpt lat="45.32009" lon="4.64651">
        <ele>617.79998779297</ele>
        <time>2019-02-20T10:21:26.000Z</time>
      </trkpt>
      <trkpt lat="45.32007" lon="4.64651">
        <ele>618</ele>
        <time>2019-02-20T10:21:27.000Z</time>
      </trkpt>
      <trkpt lat="45.32006" lon="4.64651">
        <ele>618.20001220703</ele>
        <time>2019-02-20T10:21:28.000Z</time>
      </trkpt>
      <trkpt lat="45.32004" lon="4.64651">
        <ele>618</ele>
        <time>2019-02-20T10:21:29.000Z</time>
      </trkpt>
      <trkpt lat="45.32002" lon="4.64652">
        <ele>618.20001220703</ele>
        <time>2019-02-20T10:21:30.000Z</time>
      </trkpt>
      <trkpt lat="45.32001" lon="4.64652">
        <ele>618.20001220703</ele>
        <time>2019-02-20T10:21:31.000Z</time>
      </trkpt>
      <trkpt lat="45.31999" lon="4.64653">
        <ele>618.40002441406</ele>
        <time>2019-02-20T10:21:32.000Z</time>
      </trkpt>
      <trkpt lat="45.31997" lon="4.64654">
        <ele>618.40002441406</ele>
        <time>2019-02-20T10:21:33.000Z</time>
      </trkpt>
      <trkpt lat="45.31996" lon="4.64654">
        <ele>618.40002441406</ele>
        <time>2019-02-20T10:21:34.000Z</time>
      </trkpt>
      <trkpt lat="45.31994" lon="4.64655">
        <ele>618.59997558594</ele>
        <time>2019-02-20T10:21:35.000Z</time>
      </trkpt>
      <trkpt lat="45.31992" lon="4.64656">
        <ele>618.40002441406</ele>
        <time>2019-02-20T10:21:36.000Z</time>
      </trkpt>
      <trkpt lat="45.31991" lon="4.64657">
        <ele>618.40002441406</ele>
        <time>2019-02-20T10:21:37.000Z</time>
      </trkpt>
      <trkpt lat="45.31989" lon="4.64658">
        <ele>618.59997558594</ele>
        <time>2019-02-20T10:21:38.000Z</time>
      </trkpt>
      <trkpt lat="45.31988" lon="4.64659">
        <ele>618.59997558594</ele>
        <time>2019-02-20T10:21:39.000Z</time>
      </trkpt>
      <trkpt lat="45.31986" lon="4.64661">
        <ele>618.59997558594</ele>
        <time>2019-02-20T10:21:40.000Z</time>
      </trkpt>
      <trkpt lat="45.31985" lon="4.64662">
        <ele>618.40002441406</ele>
        <time>2019-02-20T10:21:41.000Z</time>
      </trkpt>
      <trkpt lat="45.31983" lon="4.64663">
        <ele>618.59997558594</ele>
        <time>2019-02-20T10:21:42.000Z</time>
      </trkpt>
      <trkpt lat="45.31982" lon="4.64665">
        <ele>618.59997558594</ele>
        <time>2019-02-20T10:21:43.000Z</time>
      </trkpt>
      <trkpt lat="45.31981" lon="4.64667">
        <ele>618.79998779297</ele>
        <time>2019-02-20T10:21:44.000Z</time>
      </trkpt>
      <trkpt lat="45.31979" lon="4.64668">
        <ele>618.59997558594</ele>
        <time>2019-02-20T10:21:45.000Z</time>
      </trkpt>
      <trkpt lat="45.31978" lon="4.64669">
        <ele>618.79998779297</ele>
        <time>2019-02-20T10:21:46.000Z</time>
      </trkpt>
      <trkpt lat="45.31977" lon="4.64671">
        <ele>618.79998779297</ele>
        <time>2019-02-20T10:21:47.000Z</time>
      </trkpt>
      <trkpt lat="45.31975" lon="4.64672">
        <ele>619</ele>
        <time>2019-02-20T10:21:48.000Z</time>
      </trkpt>
      <trkpt lat="45.31974" lon="4.64674">
        <ele>619</ele>
        <time>2019-02-20T10:21:49.000Z</time>
      </trkpt>
      <trkpt lat="45.31972" lon="4.64676">
        <ele>619.20001220703</ele>
        <time>2019-02-20T10:21:50.000Z</time>
      </trkpt>
      <trkpt lat="45.31971" lon="4.64677">
        <ele>619.20001220703</ele>
        <time>2019-02-20T10:21:51.000Z</time>
      </trkpt>
      <trkpt lat="45.31969" lon="4.64679">
        <ele>619.40002441406</ele>
        <time>2019-02-20T10:21:52.000Z</time>
      </trkpt>
      <trkpt lat="45.31967" lon="4.6468">
        <ele>619.59997558594</ele>
        <time>2019-02-20T10:21:53.000Z</time>
      </trkpt>
      <trkpt lat="45.31966" lon="4.64682">
        <ele>619.40002441406</ele>
        <time>2019-02-20T10:21:54.000Z</time>
      </trkpt>
      <trkpt lat="45.31964" lon="4.64684">
        <ele>619.79998779297</ele>
        <time>2019-02-20T10:21:55.000Z</time>
      </trkpt>
      <trkpt lat="45.31963" lon="4.64686">
        <ele>619.79998779297</ele>
        <time>2019-02-20T10:21:56.000Z</time>
      </trkpt>
      <trkpt lat="45.31961" lon="4.64688">
        <ele>619.79998779297</ele>
        <time>2019-02-20T10:21:57.000Z</time>
      </trkpt>
      <trkpt lat="45.31959" lon="4.6469">
        <ele>620</ele>
        <time>2019-02-20T10:21:58.000Z</time>
      </trkpt>
      <trkpt lat="45.31958" lon="4.64691">
        <ele>620</ele>
        <time>2019-02-20T10:21:59.000Z</time>
      </trkpt>
      <trkpt lat="45.31956" lon="4.64693">
        <ele>620</ele>
        <time>2019-02-20T10:22:00.000Z</time>
      </trkpt>
      <trkpt lat="45.31954" lon="4.64695">
        <ele>620.20001220703</ele>
        <time>2019-02-20T10:22:01.000Z</time>
      </trkpt>
      <trkpt lat="45.31952" lon="4.64697">
        <ele>620.40002441406</ele>
        <time>2019-02-20T10:22:02.000Z</time>
      </trkpt>
      <trkpt lat="45.31951" lon="4.64698">
        <ele>620.40002441406</ele>
        <time>2019-02-20T10:22:03.000Z</time>
      </trkpt>
      <trkpt lat="45.31949" lon="4.647">
        <ele>620.40002441406</ele>
        <time>2019-02-20T10:22:04.000Z</time>
      </trkpt>
      <trkpt lat="45.31948" lon="4.64702">
        <ele>620.40002441406</ele>
        <time>2019-02-20T10:22:05.000Z</time>
      </trkpt>
      <trkpt lat="45.31946" lon="4.64704">
        <ele>620.59997558594</ele>
        <time>2019-02-20T10:22:06.000Z</time>
      </trkpt>
      <trkpt lat="45.31945" lon="4.64705">
        <ele>620.59997558594</ele>
        <time>2019-02-20T10:22:07.000Z</time>
      </trkpt>
      <trkpt lat="45.31943" lon="4.64707">
        <ele>620.59997558594</ele>
        <time>2019-02-20T10:22:08.000Z</time>
      </trkpt>
      <trkpt lat="45.31942" lon="4.64708">
        <ele>620.59997558594</ele>
        <time>2019-02-20T10:22:09.000Z</time>
      </trkpt>
      <trkpt lat="45.31941" lon="4.6471">
        <ele>620.79998779297</ele>
        <time>2019-02-20T10:22:10.000Z</time>
      </trkpt>
      <trkpt lat="45.31939" lon="4.64711">
        <ele>621</ele>
        <time>2019-02-20T10:22:11.000Z</time>
      </trkpt>
      <trkpt lat="45.31937" lon="4.64713">
        <ele>621.20001220703</ele>
        <time>2019-02-20T10:22:12.000Z</time>
      </trkpt>
      <trkpt lat="45.31936" lon="4.64715">
        <ele>621.20001220703</ele>
        <time>2019-02-20T10:22:13.000Z</time>
      </trkpt>
      <trkpt lat="45.31934" lon="4.64717">
        <ele>621.40002441406</ele>
        <time>2019-02-20T10:22:14.000Z</time>
      </trkpt>
      <trkpt lat="45.31933" lon="4.64718">
        <ele>621.59997558594</ele>
        <time>2019-02-20T10:22:15.000Z</time>
      </trkpt>
      <trkpt lat="45.31932" lon="4.6472">
        <ele>621.79998779297</ele>
        <time>2019-02-20T10:22:16.000Z</time>
      </trkpt>
      <trkpt lat="45.3193" lon="4.64722">
        <ele>621.79998779297</ele>
        <time>2019-02-20T10:22:17.000Z</time>
      </trkpt>
      <trkpt lat="45.31928" lon="4.64724">
        <ele>622</ele>
        <time>2019-02-20T10:22:18.000Z</time>
      </trkpt>
      <trkpt lat="45.31927" lon="4.64725">
        <ele>622</ele>
        <time>2019-02-20T10:22:19.000Z</time>
      </trkpt>
      <trkpt lat="45.31925" lon="4.64727">
        <ele>622</ele>
        <time>2019-02-20T10:22:20.000Z</time>
      </trkpt>
      <trkpt lat="45.31924" lon="4.64729">
        <ele>622.20001220703</ele>
        <time>2019-02-20T10:22:21.000Z</time>
      </trkpt>
      <trkpt lat="45.31923" lon="4.6473">
        <ele>622.40002441406</ele>
        <time>2019-02-20T10:22:22.000Z</time>
      </trkpt>
      <trkpt lat="45.31922" lon="4.64731">
        <ele>622.40002441406</ele>
        <time>2019-02-20T10:22:23.000Z</time>
      </trkpt>
      <trkpt lat="45.3192" lon="4.64732">
        <ele>622.40002441406</ele>
        <time>2019-02-20T10:22:24.000Z</time>
      </trkpt>
      <trkpt lat="45.31919" lon="4.64734">
        <ele>622.40002441406</ele>
        <time>2019-02-20T10:22:25.000Z</time>
      </trkpt>
      <trkpt lat="45.31918" lon="4.64736">
        <ele>622.59997558594</ele>
        <time>2019-02-20T10:22:26.000Z</time>
      </trkpt>
      <trkpt lat="45.31916" lon="4.64737">
        <ele>622.59997558594</ele>
        <time>2019-02-20T10:22:27.000Z</time>
      </trkpt>
      <trkpt lat="45.31915" lon="4.64739">
        <ele>622.59997558594</ele>
        <time>2019-02-20T10:22:28.000Z</time>
      </trkpt>
      <trkpt lat="45.31913" lon="4.64741">
        <ele>622.59997558594</ele>
        <time>2019-02-20T10:22:29.000Z</time>
      </trkpt>
      <trkpt lat="45.31912" lon="4.64742">
        <ele>622.79998779297</ele>
        <time>2019-02-20T10:22:30.000Z</time>
      </trkpt>
      <trkpt lat="45.31911" lon="4.64744">
        <ele>623</ele>
        <time>2019-02-20T10:22:31.000Z</time>
      </trkpt>
      <trkpt lat="45.31909" lon="4.64745">
        <ele>623.20001220703</ele>
        <time>2019-02-20T10:22:32.000Z</time>
      </trkpt>
      <trkpt lat="45.31908" lon="4.64746">
        <ele>623.20001220703</ele>
        <time>2019-02-20T10:22:33.000Z</time>
      </trkpt>
      <trkpt lat="45.31907" lon="4.64748">
        <ele>623.40002441406</ele>
        <time>2019-02-20T10:22:34.000Z</time>
      </trkpt>
      <trkpt lat="45.31906" lon="4.64749">
        <ele>623.59997558594</ele>
        <time>2019-02-20T10:22:35.000Z</time>
      </trkpt>
      <trkpt lat="45.31904" lon="4.64751">
        <ele>623.40002441406</ele>
        <time>2019-02-20T10:22:36.000Z</time>
      </trkpt>
      <trkpt lat="45.31903" lon="4.64753">
        <ele>623.59997558594</ele>
        <time>2019-02-20T10:22:37.000Z</time>
      </trkpt>
      <trkpt lat="45.31901" lon="4.64755">
        <ele>623.79998779297</ele>
        <time>2019-02-20T10:22:38.000Z</time>
      </trkpt>
      <trkpt lat="45.319" lon="4.64757">
        <ele>624</ele>
        <time>2019-02-20T10:22:39.000Z</time>
      </trkpt>
      <trkpt lat="45.31898" lon="4.64759">
        <ele>624.20001220703</ele>
        <time>2019-02-20T10:22:40.000Z</time>
      </trkpt>
      <trkpt lat="45.31897" lon="4.64761">
        <ele>624.40002441406</ele>
        <time>2019-02-20T10:22:41.000Z</time>
      </trkpt>
      <trkpt lat="45.31895" lon="4.64763">
        <ele>624.59997558594</ele>
        <time>2019-02-20T10:22:42.000Z</time>
      </trkpt>
      <trkpt lat="45.31894" lon="4.64765">
        <ele>624.40002441406</ele>
        <time>2019-02-20T10:22:43.000Z</time>
      </trkpt>
      <trkpt lat="45.31893" lon="4.64768">
        <ele>624.59997558594</ele>
        <time>2019-02-20T10:22:44.000Z</time>
      </trkpt>
      <trkpt lat="45.31892" lon="4.6477">
        <ele>624.59997558594</ele>
        <time>2019-02-20T10:22:45.000Z</time>
      </trkpt>
      <trkpt lat="45.31891" lon="4.64773">
        <ele>624.59997558594</ele>
        <time>2019-02-20T10:22:46.000Z</time>
      </trkpt>
      <trkpt lat="45.31889" lon="4.64775">
        <ele>625</ele>
        <time>2019-02-20T10:22:47.000Z</time>
      </trkpt>
      <trkpt lat="45.31888" lon="4.64778">
        <ele>624.79998779297</ele>
        <time>2019-02-20T10:22:48.000Z</time>
      </trkpt>
      <trkpt lat="45.31887" lon="4.64781">
        <ele>625</ele>
        <time>2019-02-20T10:22:49.000Z</time>
      </trkpt>
      <trkpt lat="45.31886" lon="4.64783">
        <ele>625</ele>
        <time>2019-02-20T10:22:50.000Z</time>
      </trkpt>
      <trkpt lat="45.31885" lon="4.64786">
        <ele>625.20001220703</ele>
        <time>2019-02-20T10:22:51.000Z</time>
      </trkpt>
      <trkpt lat="45.31884" lon="4.64788">
        <ele>625.20001220703</ele>
        <time>2019-02-20T10:22:52.000Z</time>
      </trkpt>
      <trkpt lat="45.31883" lon="4.64791">
        <ele>625.40002441406</ele>
        <time>2019-02-20T10:22:53.000Z</time>
      </trkpt>
      <trkpt lat="45.31883" lon="4.64794">
        <ele>625.40002441406</ele>
        <time>2019-02-20T10:22:54.000Z</time>
      </trkpt>
      <trkpt lat="45.31882" lon="4.64797">
        <ele>625.59997558594</ele>
        <time>2019-02-20T10:22:55.000Z</time>
      </trkpt>
      <trkpt lat="45.31882" lon="4.648">
        <ele>625.79998779297</ele>
        <time>2019-02-20T10:22:56.000Z</time>
      </trkpt>
      <trkpt lat="45.31881" lon="4.64803">
        <ele>626</ele>
        <time>2019-02-20T10:22:57.000Z</time>
      </trkpt>
      <trkpt lat="45.31881" lon="4.64806">
        <ele>626</ele>
        <time>2019-02-20T10:22:58.000Z</time>
      </trkpt>
      <trkpt lat="45.3188" lon="4.64808">
        <ele>626</ele>
        <time>2019-02-20T10:22:59.000Z</time>
      </trkpt>
      <trkpt lat="45.3188" lon="4.64811">
        <ele>626</ele>
        <time>2019-02-20T10:23:00.000Z</time>
      </trkpt>
      <trkpt lat="45.3188" lon="4.64813">
        <ele>626.20001220703</ele>
        <time>2019-02-20T10:23:01.000Z</time>
      </trkpt>
      <trkpt lat="45.31879" lon="4.64815">
        <ele>626.40002441406</ele>
        <time>2019-02-20T10:23:02.000Z</time>
      </trkpt>
      <trkpt lat="45.31878" lon="4.64817">
        <ele>626.40002441406</ele>
        <time>2019-02-20T10:23:03.000Z</time>
      </trkpt>
      <trkpt lat="45.31878" lon="4.6482">
        <ele>626.59997558594</ele>
        <time>2019-02-20T10:23:04.000Z</time>
      </trkpt>
      <trkpt lat="45.31877" lon="4.64822">
        <ele>626.59997558594</ele>
        <time>2019-02-20T10:23:05.000Z</time>
      </trkpt>
      <trkpt lat="45.31876" lon="4.64825">
        <ele>627</ele>
        <time>2019-02-20T10:23:06.000Z</time>
      </trkpt>
      <trkpt lat="45.31876" lon="4.64828">
        <ele>627.20001220703</ele>
        <time>2019-02-20T10:23:07.000Z</time>
      </trkpt>
      <trkpt lat="45.31875" lon="4.64831">
        <ele>627.40002441406</ele>
        <time>2019-02-20T10:23:08.000Z</time>
      </trkpt>
      <trkpt lat="45.31874" lon="4.64833">
        <ele>627.40002441406</ele>
        <time>2019-02-20T10:23:09.000Z</time>
      </trkpt>
      <trkpt lat="45.31873" lon="4.64836">
        <ele>627.40002441406</ele>
        <time>2019-02-20T10:23:10.000Z</time>
      </trkpt>
      <trkpt lat="45.31873" lon="4.64839">
        <ele>627.79998779297</ele>
        <time>2019-02-20T10:23:11.000Z</time>
      </trkpt>
      <trkpt lat="45.31872" lon="4.64842">
        <ele>627.59997558594</ele>
        <time>2019-02-20T10:23:12.000Z</time>
      </trkpt>
      <trkpt lat="45.31872" lon="4.64844">
        <ele>627.79998779297</ele>
        <time>2019-02-20T10:23:13.000Z</time>
      </trkpt>
      <trkpt lat="45.31871" lon="4.64847">
        <ele>627.79998779297</ele>
        <time>2019-02-20T10:23:14.000Z</time>
      </trkpt>
      <trkpt lat="45.31871" lon="4.64851">
        <ele>627.79998779297</ele>
        <time>2019-02-20T10:23:15.000Z</time>
      </trkpt>
      <trkpt lat="45.3187" lon="4.64854">
        <ele>627.79998779297</ele>
        <time>2019-02-20T10:23:16.000Z</time>
      </trkpt>
      <trkpt lat="45.3187" lon="4.64857">
        <ele>628.20001220703</ele>
        <time>2019-02-20T10:23:17.000Z</time>
      </trkpt>
      <trkpt lat="45.3187" lon="4.6486">
        <ele>628</ele>
        <time>2019-02-20T10:23:18.000Z</time>
      </trkpt>
      <trkpt lat="45.3187" lon="4.64862">
        <ele>628.20001220703</ele>
        <time>2019-02-20T10:23:19.000Z</time>
      </trkpt>
      <trkpt lat="45.3187" lon="4.64865">
        <ele>628.20001220703</ele>
        <time>2019-02-20T10:23:20.000Z</time>
      </trkpt>
      <trkpt lat="45.31869" lon="4.64867">
        <ele>628.20001220703</ele>
        <time>2019-02-20T10:23:21.000Z</time>
      </trkpt>
      <trkpt lat="45.31869" lon="4.6487">
        <ele>628.40002441406</ele>
        <time>2019-02-20T10:23:22.000Z</time>
      </trkpt>
      <trkpt lat="45.31869" lon="4.64873">
        <ele>628.40002441406</ele>
        <time>2019-02-20T10:23:23.000Z</time>
      </trkpt>
      <trkpt lat="45.31869" lon="4.64875">
        <ele>628.59997558594</ele>
        <time>2019-02-20T10:23:24.000Z</time>
      </trkpt>
      <trkpt lat="45.31869" lon="4.64878">
        <ele>628.79998779297</ele>
        <time>2019-02-20T10:23:25.000Z</time>
      </trkpt>
      <trkpt lat="45.31869" lon="4.64881">
        <ele>629</ele>
        <time>2019-02-20T10:23:26.000Z</time>
      </trkpt>
      <trkpt lat="45.31869" lon="4.64884">
        <ele>629</ele>
        <time>2019-02-20T10:23:27.000Z</time>
      </trkpt>
      <trkpt lat="45.31869" lon="4.64886">
        <ele>629.20001220703</ele>
        <time>2019-02-20T10:23:28.000Z</time>
      </trkpt>
      <trkpt lat="45.31869" lon="4.64889">
        <ele>629.20001220703</ele>
        <time>2019-02-20T10:23:29.000Z</time>
      </trkpt>
      <trkpt lat="45.31868" lon="4.64892">
        <ele>629.20001220703</ele>
        <time>2019-02-20T10:23:30.000Z</time>
      </trkpt>
      <trkpt lat="45.31868" lon="4.64895">
        <ele>629.40002441406</ele>
        <time>2019-02-20T10:23:31.000Z</time>
      </trkpt>
      <trkpt lat="45.31868" lon="4.64898">
        <ele>629.59997558594</ele>
        <time>2019-02-20T10:23:32.000Z</time>
      </trkpt>
      <trkpt lat="45.31868" lon="4.64901">
        <ele>629.59997558594</ele>
        <time>2019-02-20T10:23:33.000Z</time>
      </trkpt>
      <trkpt lat="45.31868" lon="4.64904">
        <ele>629.79998779297</ele>
        <time>2019-02-20T10:23:34.000Z</time>
      </trkpt>
      <trkpt lat="45.31868" lon="4.64907">
        <ele>629.79998779297</ele>
        <time>2019-02-20T10:23:35.000Z</time>
      </trkpt>
      <trkpt lat="45.31867" lon="4.6491">
        <ele>629.79998779297</ele>
        <time>2019-02-20T10:23:36.000Z</time>
      </trkpt>
      <trkpt lat="45.31867" lon="4.64913">
        <ele>629.79998779297</ele>
        <time>2019-02-20T10:23:37.000Z</time>
      </trkpt>
      <trkpt lat="45.31867" lon="4.64916">
        <ele>630</ele>
        <time>2019-02-20T10:23:38.000Z</time>
      </trkpt>
      <trkpt lat="45.31867" lon="4.64918">
        <ele>630</ele>
        <time>2019-02-20T10:23:39.000Z</time>
      </trkpt>
      <trkpt lat="45.31867" lon="4.64921">
        <ele>630.20001220703</ele>
        <time>2019-02-20T10:23:40.000Z</time>
      </trkpt>
      <trkpt lat="45.31867" lon="4.64924">
        <ele>630.20001220703</ele>
        <time>2019-02-20T10:23:41.000Z</time>
      </trkpt>
      <trkpt lat="45.31867" lon="4.64927">
        <ele>630.59997558594</ele>
        <time>2019-02-20T10:23:42.000Z</time>
      </trkpt>
      <trkpt lat="45.31867" lon="4.6493">
        <ele>630.59997558594</ele>
        <time>2019-02-20T10:23:43.000Z</time>
      </trkpt>
      <trkpt lat="45.31867" lon="4.64933">
        <ele>630.79998779297</ele>
        <time>2019-02-20T10:23:44.000Z</time>
      </trkpt>
      <trkpt lat="45.31867" lon="4.64936">
        <ele>630.59997558594</ele>
        <time>2019-02-20T10:23:45.000Z</time>
      </trkpt>
      <trkpt lat="45.31867" lon="4.64939">
        <ele>631</ele>
        <time>2019-02-20T10:23:46.000Z</time>
      </trkpt>
      <trkpt lat="45.31867" lon="4.64943">
        <ele>631</ele>
        <time>2019-02-20T10:23:47.000Z</time>
      </trkpt>
      <trkpt lat="45.31868" lon="4.64946">
        <ele>631.20001220703</ele>
        <time>2019-02-20T10:23:48.000Z</time>
      </trkpt>
      <trkpt lat="45.31868" lon="4.64949">
        <ele>631.20001220703</ele>
        <time>2019-02-20T10:23:49.000Z</time>
      </trkpt>
      <trkpt lat="45.31868" lon="4.64952">
        <ele>631.59997558594</ele>
        <time>2019-02-20T10:23:50.000Z</time>
      </trkpt>
      <trkpt lat="45.31867" lon="4.64955">
        <ele>632.20001220703</ele>
        <time>2019-02-20T10:23:51.000Z</time>
      </trkpt>
      <trkpt lat="45.31867" lon="4.64959">
        <ele>632.20001220703</ele>
        <time>2019-02-20T10:23:52.000Z</time>
      </trkpt>
      <trkpt lat="45.31867" lon="4.64962">
        <ele>632.59997558594</ele>
        <time>2019-02-20T10:23:53.000Z</time>
      </trkpt>
      <trkpt lat="45.31867" lon="4.64965">
        <ele>632.59997558594</ele>
        <time>2019-02-20T10:23:54.000Z</time>
      </trkpt>
      <trkpt lat="45.31867" lon="4.64968">
        <ele>632.79998779297</ele>
        <time>2019-02-20T10:23:55.000Z</time>
      </trkpt>
      <trkpt lat="45.31867" lon="4.64972">
        <ele>632.79998779297</ele>
        <time>2019-02-20T10:23:56.000Z</time>
      </trkpt>
      <trkpt lat="45.31867" lon="4.64975">
        <ele>633</ele>
        <time>2019-02-20T10:23:57.000Z</time>
      </trkpt>
      <trkpt lat="45.31867" lon="4.64978">
        <ele>633.20001220703</ele>
        <time>2019-02-20T10:23:58.000Z</time>
      </trkpt>
      <trkpt lat="45.31867" lon="4.64981">
        <ele>633.40002441406</ele>
        <time>2019-02-20T10:23:59.000Z</time>
      </trkpt>
      <trkpt lat="45.31866" lon="4.64984">
        <ele>633.40002441406</ele>
        <time>2019-02-20T10:24:00.000Z</time>
      </trkpt>
      <trkpt lat="45.31866" lon="4.64987">
        <ele>633.40002441406</ele>
        <time>2019-02-20T10:24:01.000Z</time>
      </trkpt>
      <trkpt lat="45.31866" lon="4.6499">
        <ele>633.59997558594</ele>
        <time>2019-02-20T10:24:02.000Z</time>
      </trkpt>
      <trkpt lat="45.31866" lon="4.64993">
        <ele>633.59997558594</ele>
        <time>2019-02-20T10:24:03.000Z</time>
      </trkpt>
      <trkpt lat="45.31866" lon="4.64996">
        <ele>633.79998779297</ele>
        <time>2019-02-20T10:24:04.000Z</time>
      </trkpt>
      <trkpt lat="45.31866" lon="4.64999">
        <ele>633.79998779297</ele>
        <time>2019-02-20T10:24:05.000Z</time>
      </trkpt>
      <trkpt lat="45.31866" lon="4.65002">
        <ele>634</ele>
        <time>2019-02-20T10:24:06.000Z</time>
      </trkpt>
      <trkpt lat="45.31866" lon="4.65005">
        <ele>634</ele>
        <time>2019-02-20T10:24:07.000Z</time>
      </trkpt>
      <trkpt lat="45.31866" lon="4.65008">
        <ele>634.20001220703</ele>
        <time>2019-02-20T10:24:08.000Z</time>
      </trkpt>
      <trkpt lat="45.31866" lon="4.6501">
        <ele>634.20001220703</ele>
        <time>2019-02-20T10:24:09.000Z</time>
      </trkpt>
      <trkpt lat="45.31866" lon="4.65013">
        <ele>634.20001220703</ele>
        <time>2019-02-20T10:24:10.000Z</time>
      </trkpt>
      <trkpt lat="45.31866" lon="4.65016">
        <ele>634.40002441406</ele>
        <time>2019-02-20T10:24:11.000Z</time>
      </trkpt>
      <trkpt lat="45.31866" lon="4.65019">
        <ele>634.40002441406</ele>
        <time>2019-02-20T10:24:12.000Z</time>
      </trkpt>
      <trkpt lat="45.31866" lon="4.65021">
        <ele>634.40002441406</ele>
        <time>2019-02-20T10:24:13.000Z</time>
      </trkpt>
      <trkpt lat="45.31866" lon="4.65024">
        <ele>634.79998779297</ele>
        <time>2019-02-20T10:24:14.000Z</time>
      </trkpt>
      <trkpt lat="45.31866" lon="4.65027">
        <ele>634.79998779297</ele>
        <time>2019-02-20T10:24:15.000Z</time>
      </trkpt>
      <trkpt lat="45.31866" lon="4.65029">
        <ele>634.79998779297</ele>
        <time>2019-02-20T10:24:16.000Z</time>
      </trkpt>
      <trkpt lat="45.31866" lon="4.65032">
        <ele>634.79998779297</ele>
        <time>2019-02-20T10:24:17.000Z</time>
      </trkpt>
      <trkpt lat="45.31866" lon="4.65036">
        <ele>635</ele>
        <time>2019-02-20T10:24:18.000Z</time>
      </trkpt>
      <trkpt lat="45.31866" lon="4.65039">
        <ele>635.20001220703</ele>
        <time>2019-02-20T10:24:19.000Z</time>
      </trkpt>
      <trkpt lat="45.31866" lon="4.65042">
        <ele>635.40002441406</ele>
        <time>2019-02-20T10:24:20.000Z</time>
      </trkpt>
      <trkpt lat="45.31866" lon="4.65045">
        <ele>635.20001220703</ele>
        <time>2019-02-20T10:24:21.000Z</time>
      </trkpt>
      <trkpt lat="45.31866" lon="4.65048">
        <ele>635.40002441406</ele>
        <time>2019-02-20T10:24:22.000Z</time>
      </trkpt>
      <trkpt lat="45.31866" lon="4.65051">
        <ele>635.40002441406</ele>
        <time>2019-02-20T10:24:23.000Z</time>
      </trkpt>
      <trkpt lat="45.31866" lon="4.65054">
        <ele>635.40002441406</ele>
        <time>2019-02-20T10:24:24.000Z</time>
      </trkpt>
      <trkpt lat="45.31866" lon="4.65057">
        <ele>635.59997558594</ele>
        <time>2019-02-20T10:24:25.000Z</time>
      </trkpt>
      <trkpt lat="45.31866" lon="4.6506">
        <ele>635.59997558594</ele>
        <time>2019-02-20T10:24:26.000Z</time>
      </trkpt>
      <trkpt lat="45.31866" lon="4.65064">
        <ele>635.79998779297</ele>
        <time>2019-02-20T10:24:27.000Z</time>
      </trkpt>
      <trkpt lat="45.31866" lon="4.65067">
        <ele>635.59997558594</ele>
        <time>2019-02-20T10:24:28.000Z</time>
      </trkpt>
      <trkpt lat="45.31866" lon="4.65071">
        <ele>635.79998779297</ele>
        <time>2019-02-20T10:24:29.000Z</time>
      </trkpt>
      <trkpt lat="45.31866" lon="4.65074">
        <ele>635.79998779297</ele>
        <time>2019-02-20T10:24:30.000Z</time>
      </trkpt>
      <trkpt lat="45.31866" lon="4.65078">
        <ele>635.79998779297</ele>
        <time>2019-02-20T10:24:31.000Z</time>
      </trkpt>
      <trkpt lat="45.31866" lon="4.65081">
        <ele>635.79998779297</ele>
        <time>2019-02-20T10:24:32.000Z</time>
      </trkpt>
      <trkpt lat="45.31866" lon="4.65085">
        <ele>636</ele>
        <time>2019-02-20T10:24:33.000Z</time>
      </trkpt>
      <trkpt lat="45.31866" lon="4.65089">
        <ele>636.20001220703</ele>
        <time>2019-02-20T10:24:34.000Z</time>
      </trkpt>
      <trkpt lat="45.31866" lon="4.65092">
        <ele>636.20001220703</ele>
        <time>2019-02-20T10:24:35.000Z</time>
      </trkpt>
      <trkpt lat="45.31865" lon="4.65096">
        <ele>636.40002441406</ele>
        <time>2019-02-20T10:24:36.000Z</time>
      </trkpt>
      <trkpt lat="45.31865" lon="4.651">
        <ele>636.40002441406</ele>
        <time>2019-02-20T10:24:37.000Z</time>
      </trkpt>
      <trkpt lat="45.31865" lon="4.65104">
        <ele>636.59997558594</ele>
        <time>2019-02-20T10:24:38.000Z</time>
      </trkpt>
      <trkpt lat="45.31864" lon="4.65109">
        <ele>636.59997558594</ele>
        <time>2019-02-20T10:24:39.000Z</time>
      </trkpt>
      <trkpt lat="45.31864" lon="4.65113">
        <ele>636.79998779297</ele>
        <time>2019-02-20T10:24:40.000Z</time>
      </trkpt>
      <trkpt lat="45.31864" lon="4.65118">
        <ele>636.79998779297</ele>
        <time>2019-02-20T10:24:41.000Z</time>
      </trkpt>
      <trkpt lat="45.31864" lon="4.65123">
        <ele>636.79998779297</ele>
        <time>2019-02-20T10:24:42.000Z</time>
      </trkpt>
      <trkpt lat="45.31863" lon="4.65127">
        <ele>636.79998779297</ele>
        <time>2019-02-20T10:24:43.000Z</time>
      </trkpt>
      <trkpt lat="45.31863" lon="4.65132">
        <ele>636.79998779297</ele>
        <time>2019-02-20T10:24:44.000Z</time>
      </trkpt>
      <trkpt lat="45.31863" lon="4.65137">
        <ele>637.20001220703</ele>
        <time>2019-02-20T10:24:45.000Z</time>
      </trkpt>
      <trkpt lat="45.31863" lon="4.65141">
        <ele>637.20001220703</ele>
        <time>2019-02-20T10:24:46.000Z</time>
      </trkpt>
      <trkpt lat="45.31863" lon="4.65146">
        <ele>637.40002441406</ele>
        <time>2019-02-20T10:24:47.000Z</time>
      </trkpt>
      <trkpt lat="45.31863" lon="4.65151">
        <ele>637.40002441406</ele>
        <time>2019-02-20T10:24:48.000Z</time>
      </trkpt>
      <trkpt lat="45.31863" lon="4.65155">
        <ele>637.59997558594</ele>
        <time>2019-02-20T10:24:49.000Z</time>
      </trkpt>
      <trkpt lat="45.31864" lon="4.65158">
        <ele>637.79998779297</ele>
        <time>2019-02-20T10:24:50.000Z</time>
      </trkpt>
      <trkpt lat="45.31864" lon="4.65162">
        <ele>638</ele>
        <time>2019-02-20T10:24:51.000Z</time>
      </trkpt>
      <trkpt lat="45.31865" lon="4.65165">
        <ele>637.79998779297</ele>
        <time>2019-02-20T10:24:52.000Z</time>
      </trkpt>
      <trkpt lat="45.31865" lon="4.65168">
        <ele>638</ele>
        <time>2019-02-20T10:24:53.000Z</time>
      </trkpt>
      <trkpt lat="45.31866" lon="4.65172">
        <ele>638</ele>
        <time>2019-02-20T10:24:54.000Z</time>
      </trkpt>
      <trkpt lat="45.31867" lon="4.65175">
        <ele>638.20001220703</ele>
        <time>2019-02-20T10:24:55.000Z</time>
      </trkpt>
      <trkpt lat="45.31868" lon="4.65178">
        <ele>638.20001220703</ele>
        <time>2019-02-20T10:24:56.000Z</time>
      </trkpt>
      <trkpt lat="45.31869" lon="4.65181">
        <ele>638.20001220703</ele>
        <time>2019-02-20T10:24:57.000Z</time>
      </trkpt>
      <trkpt lat="45.3187" lon="4.65185">
        <ele>638.20001220703</ele>
        <time>2019-02-20T10:24:58.000Z</time>
      </trkpt>
      <trkpt lat="45.31871" lon="4.65189">
        <ele>638.40002441406</ele>
        <time>2019-02-20T10:24:59.000Z</time>
      </trkpt>
      <trkpt lat="45.31873" lon="4.65193">
        <ele>638.40002441406</ele>
        <time>2019-02-20T10:25:00.000Z</time>
      </trkpt>
      <trkpt lat="45.31874" lon="4.65196">
        <ele>638.59997558594</ele>
        <time>2019-02-20T10:25:01.000Z</time>
      </trkpt>
      <trkpt lat="45.31875" lon="4.652">
        <ele>638.59997558594</ele>
        <time>2019-02-20T10:25:02.000Z</time>
      </trkpt>
      <trkpt lat="45.31876" lon="4.65203">
        <ele>638.59997558594</ele>
        <time>2019-02-20T10:25:03.000Z</time>
      </trkpt>
      <trkpt lat="45.31877" lon="4.65206">
        <ele>639</ele>
        <time>2019-02-20T10:25:04.000Z</time>
      </trkpt>
      <trkpt lat="45.31879" lon="4.6521">
        <ele>639</ele>
        <time>2019-02-20T10:25:05.000Z</time>
      </trkpt>
      <trkpt lat="45.3188" lon="4.65213">
        <ele>639</ele>
        <time>2019-02-20T10:25:06.000Z</time>
      </trkpt>
      <trkpt lat="45.31881" lon="4.65217">
        <ele>639</ele>
        <time>2019-02-20T10:25:07.000Z</time>
      </trkpt>
      <trkpt lat="45.31882" lon="4.6522">
        <ele>639.20001220703</ele>
        <time>2019-02-20T10:25:08.000Z</time>
      </trkpt>
      <trkpt lat="45.31884" lon="4.65224">
        <ele>639.20001220703</ele>
        <time>2019-02-20T10:25:09.000Z</time>
      </trkpt>
      <trkpt lat="45.31885" lon="4.65227">
        <ele>639.20001220703</ele>
        <time>2019-02-20T10:25:10.000Z</time>
      </trkpt>
      <trkpt lat="45.31887" lon="4.65231">
        <ele>639.40002441406</ele>
        <time>2019-02-20T10:25:11.000Z</time>
      </trkpt>
      <trkpt lat="45.31888" lon="4.65234">
        <ele>639.40002441406</ele>
        <time>2019-02-20T10:25:12.000Z</time>
      </trkpt>
      <trkpt lat="45.3189" lon="4.65237">
        <ele>639.40002441406</ele>
        <time>2019-02-20T10:25:13.000Z</time>
      </trkpt>
      <trkpt lat="45.31891" lon="4.6524">
        <ele>639.40002441406</ele>
        <time>2019-02-20T10:25:14.000Z</time>
      </trkpt>
      <trkpt lat="45.31892" lon="4.65243">
        <ele>639.40002441406</ele>
        <time>2019-02-20T10:25:15.000Z</time>
      </trkpt>
      <trkpt lat="45.31894" lon="4.65246">
        <ele>639.59997558594</ele>
        <time>2019-02-20T10:25:16.000Z</time>
      </trkpt>
      <trkpt lat="45.31895" lon="4.65249">
        <ele>639.40002441406</ele>
        <time>2019-02-20T10:25:17.000Z</time>
      </trkpt>
      <trkpt lat="45.31897" lon="4.65252">
        <ele>639.59997558594</ele>
        <time>2019-02-20T10:25:18.000Z</time>
      </trkpt>
      <trkpt lat="45.31899" lon="4.65255">
        <ele>639.59997558594</ele>
        <time>2019-02-20T10:25:19.000Z</time>
      </trkpt>
      <trkpt lat="45.31901" lon="4.65259">
        <ele>639.79998779297</ele>
        <time>2019-02-20T10:25:20.000Z</time>
      </trkpt>
      <trkpt lat="45.31902" lon="4.65262">
        <ele>639.79998779297</ele>
        <time>2019-02-20T10:25:21.000Z</time>
      </trkpt>
      <trkpt lat="45.31904" lon="4.65265">
        <ele>639.79998779297</ele>
        <time>2019-02-20T10:25:22.000Z</time>
      </trkpt>
      <trkpt lat="45.31906" lon="4.65268">
        <ele>639.79998779297</ele>
        <time>2019-02-20T10:25:23.000Z</time>
      </trkpt>
      <trkpt lat="45.31907" lon="4.65271">
        <ele>639.79998779297</ele>
        <time>2019-02-20T10:25:24.000Z</time>
      </trkpt>
      <trkpt lat="45.31909" lon="4.65274">
        <ele>640</ele>
        <time>2019-02-20T10:25:25.000Z</time>
      </trkpt>
      <trkpt lat="45.3191" lon="4.65277">
        <ele>640</ele>
        <time>2019-02-20T10:25:26.000Z</time>
      </trkpt>
      <trkpt lat="45.31912" lon="4.6528">
        <ele>640</ele>
        <time>2019-02-20T10:25:27.000Z</time>
      </trkpt>
      <trkpt lat="45.31913" lon="4.65283">
        <ele>640</ele>
        <time>2019-02-20T10:25:28.000Z</time>
      </trkpt>
      <trkpt lat="45.31915" lon="4.65285">
        <ele>640</ele>
        <time>2019-02-20T10:25:29.000Z</time>
      </trkpt>
      <trkpt lat="45.31916" lon="4.65288">
        <ele>640</ele>
        <time>2019-02-20T10:25:30.000Z</time>
      </trkpt>
      <trkpt lat="45.31917" lon="4.65289">
        <ele>640</ele>
        <time>2019-02-20T10:25:31.000Z</time>
      </trkpt>
      <trkpt lat="45.31917" lon="4.65289">
        <ele>640.20001220703</ele>
        <time>2019-02-20T10:25:32.000Z</time>
      </trkpt>
      <trkpt lat="45.31917" lon="4.65289">
        <ele>640</ele>
        <time>2019-02-20T10:25:33.000Z</time>
      </trkpt>
      <trkpt lat="45.31918" lon="4.65294">
        <ele>640</ele>
        <time>2019-02-20T10:28:12.000Z</time>
      </trkpt>
      <trkpt lat="45.31918" lon="4.65296">
        <ele>640</ele>
        <time>2019-02-20T10:28:13.000Z</time>
      </trkpt>
      <trkpt lat="45.31917" lon="4.65298">
        <ele>639.79998779297</ele>
        <time>2019-02-20T10:28:14.000Z</time>
      </trkpt>
      <trkpt lat="45.31916" lon="4.65299">
        <ele>640</ele>
        <time>2019-02-20T10:28:15.000Z</time>
      </trkpt>
      <trkpt lat="45.31915" lon="4.65301">
        <ele>640</ele>
        <time>2019-02-20T10:28:16.000Z</time>
      </trkpt>
      <trkpt lat="45.31913" lon="4.65302">
        <ele>640</ele>
        <time>2019-02-20T10:28:17.000Z</time>
      </trkpt>
      <trkpt lat="45.31911" lon="4.65302">
        <ele>639.79998779297</ele>
        <time>2019-02-20T10:28:18.000Z</time>
      </trkpt>
      <trkpt lat="45.3191" lon="4.65304">
        <ele>639.79998779297</ele>
        <time>2019-02-20T10:28:19.000Z</time>
      </trkpt>
      <trkpt lat="45.31908" lon="4.65306">
        <ele>639.79998779297</ele>
        <time>2019-02-20T10:28:20.000Z</time>
      </trkpt>
      <trkpt lat="45.31906" lon="4.65307">
        <ele>639.79998779297</ele>
        <time>2019-02-20T10:28:21.000Z</time>
      </trkpt>
      <trkpt lat="45.31904" lon="4.6531">
        <ele>639.59997558594</ele>
        <time>2019-02-20T10:28:22.000Z</time>
      </trkpt>
      <trkpt lat="45.31902" lon="4.65312">
        <ele>639.59997558594</ele>
        <time>2019-02-20T10:28:23.000Z</time>
      </trkpt>
      <trkpt lat="45.31899" lon="4.65315">
        <ele>639.40002441406</ele>
        <time>2019-02-20T10:28:24.000Z</time>
      </trkpt>
      <trkpt lat="45.31897" lon="4.65318">
        <ele>639.20001220703</ele>
        <time>2019-02-20T10:28:25.000Z</time>
      </trkpt>
      <trkpt lat="45.31894" lon="4.65321">
        <ele>639</ele>
        <time>2019-02-20T10:28:26.000Z</time>
      </trkpt>
      <trkpt lat="45.31891" lon="4.65325">
        <ele>638.79998779297</ele>
        <time>2019-02-20T10:28:27.000Z</time>
      </trkpt>
      <trkpt lat="45.31888" lon="4.65328">
        <ele>638.79998779297</ele>
        <time>2019-02-20T10:28:28.000Z</time>
      </trkpt>
      <trkpt lat="45.31885" lon="4.65332">
        <ele>638.40002441406</ele>
        <time>2019-02-20T10:28:29.000Z</time>
      </trkpt>
      <trkpt lat="45.31882" lon="4.65335">
        <ele>638.40002441406</ele>
        <time>2019-02-20T10:28:30.000Z</time>
      </trkpt>
      <trkpt lat="45.31879" lon="4.65339">
        <ele>638</ele>
        <time>2019-02-20T10:28:31.000Z</time>
      </trkpt>
      <trkpt lat="45.31875" lon="4.65342">
        <ele>637.79998779297</ele>
        <time>2019-02-20T10:28:32.000Z</time>
      </trkpt>
      <trkpt lat="45.31871" lon="4.65346">
        <ele>637.59997558594</ele>
        <time>2019-02-20T10:28:33.000Z</time>
      </trkpt>
      <trkpt lat="45.31868" lon="4.65349">
        <ele>637.40002441406</ele>
        <time>2019-02-20T10:28:34.000Z</time>
      </trkpt>
      <trkpt lat="45.31864" lon="4.65353">
        <ele>637.20001220703</ele>
        <time>2019-02-20T10:28:35.000Z</time>
      </trkpt>
      <trkpt lat="45.31861" lon="4.65358">
        <ele>637</ele>
        <time>2019-02-20T10:28:36.000Z</time>
      </trkpt>
      <trkpt lat="45.31858" lon="4.65363">
        <ele>636.79998779297</ele>
        <time>2019-02-20T10:28:37.000Z</time>
      </trkpt>
      <trkpt lat="45.31855" lon="4.65368">
        <ele>636.59997558594</ele>
        <time>2019-02-20T10:28:38.000Z</time>
      </trkpt>
      <trkpt lat="45.31851" lon="4.65374">
        <ele>636</ele>
        <time>2019-02-20T10:28:39.000Z</time>
      </trkpt>
      <trkpt lat="45.31848" lon="4.6538">
        <ele>635.79998779297</ele>
        <time>2019-02-20T10:28:40.000Z</time>
      </trkpt>
      <trkpt lat="45.31843" lon="4.65386">
        <ele>635.40002441406</ele>
        <time>2019-02-20T10:28:41.000Z</time>
      </trkpt>
      <trkpt lat="45.31838" lon="4.65392">
        <ele>634.79998779297</ele>
        <time>2019-02-20T10:28:42.000Z</time>
      </trkpt>
      <trkpt lat="45.31832" lon="4.65399">
        <ele>634.40002441406</ele>
        <time>2019-02-20T10:28:43.000Z</time>
      </trkpt>
      <trkpt lat="45.31826" lon="4.65406">
        <ele>634.40002441406</ele>
        <time>2019-02-20T10:28:44.000Z</time>
      </trkpt>
      <trkpt lat="45.3182" lon="4.65414">
        <ele>634.40002441406</ele>
        <time>2019-02-20T10:28:45.000Z</time>
      </trkpt>
      <trkpt lat="45.31815" lon="4.65422">
        <ele>633.59997558594</ele>
        <time>2019-02-20T10:28:46.000Z</time>
      </trkpt>
      <trkpt lat="45.31808" lon="4.6543">
        <ele>633</ele>
        <time>2019-02-20T10:28:47.000Z</time>
      </trkpt>
      <trkpt lat="45.31803" lon="4.65439">
        <ele>632.59997558594</ele>
        <time>2019-02-20T10:28:48.000Z</time>
      </trkpt>
      <trkpt lat="45.31797" lon="4.65447">
        <ele>631.79998779297</ele>
        <time>2019-02-20T10:28:49.000Z</time>
      </trkpt>
      <trkpt lat="45.31792" lon="4.65456">
        <ele>631</ele>
        <time>2019-02-20T10:28:50.000Z</time>
      </trkpt>
      <trkpt lat="45.31788" lon="4.65465">
        <ele>630.40002441406</ele>
        <time>2019-02-20T10:28:51.000Z</time>
      </trkpt>
      <trkpt lat="45.31784" lon="4.65473">
        <ele>630</ele>
        <time>2019-02-20T10:28:52.000Z</time>
      </trkpt>
      <trkpt lat="45.3178" lon="4.65482">
        <ele>629.59997558594</ele>
        <time>2019-02-20T10:28:53.000Z</time>
      </trkpt>
      <trkpt lat="45.31777" lon="4.6549">
        <ele>628.59997558594</ele>
        <time>2019-02-20T10:28:54.000Z</time>
      </trkpt>
      <trkpt lat="45.31774" lon="4.65498">
        <ele>627.20001220703</ele>
        <time>2019-02-20T10:28:55.000Z</time>
      </trkpt>
      <trkpt lat="45.31771" lon="4.65505">
        <ele>626.40002441406</ele>
        <time>2019-02-20T10:28:56.000Z</time>
      </trkpt>
      <trkpt lat="45.31768" lon="4.65511">
        <ele>625.79998779297</ele>
        <time>2019-02-20T10:28:57.000Z</time>
      </trkpt>
      <trkpt lat="45.31764" lon="4.65516">
        <ele>625.20001220703</ele>
        <time>2019-02-20T10:28:58.000Z</time>
      </trkpt>
      <trkpt lat="45.3176" lon="4.6552">
        <ele>625</ele>
        <time>2019-02-20T10:28:59.000Z</time>
      </trkpt>
      <trkpt lat="45.31756" lon="4.65523">
        <ele>624.79998779297</ele>
        <time>2019-02-20T10:29:00.000Z</time>
      </trkpt>
      <trkpt lat="45.31752" lon="4.65525">
        <ele>624.79998779297</ele>
        <time>2019-02-20T10:29:01.000Z</time>
      </trkpt>
      <trkpt lat="45.31747" lon="4.65527">
        <ele>624.79998779297</ele>
        <time>2019-02-20T10:29:02.000Z</time>
      </trkpt>
      <trkpt lat="45.31743" lon="4.65529">
        <ele>625</ele>
        <time>2019-02-20T10:29:03.000Z</time>
      </trkpt>
      <trkpt lat="45.31738" lon="4.65531">
        <ele>624.79998779297</ele>
        <time>2019-02-20T10:29:04.000Z</time>
      </trkpt>
      <trkpt lat="45.31734" lon="4.65533">
        <ele>624.79998779297</ele>
        <time>2019-02-20T10:29:05.000Z</time>
      </trkpt>
      <trkpt lat="45.31729" lon="4.65535">
        <ele>624.59997558594</ele>
        <time>2019-02-20T10:29:06.000Z</time>
      </trkpt>
      <trkpt lat="45.31725" lon="4.65537">
        <ele>624.59997558594</ele>
        <time>2019-02-20T10:29:07.000Z</time>
      </trkpt>
      <trkpt lat="45.3172" lon="4.65538">
        <ele>624.59997558594</ele>
        <time>2019-02-20T10:29:08.000Z</time>
      </trkpt>
      <trkpt lat="45.31716" lon="4.6554">
        <ele>624.59997558594</ele>
        <time>2019-02-20T10:29:09.000Z</time>
      </trkpt>
      <trkpt lat="45.31712" lon="4.65541">
        <ele>624.40002441406</ele>
        <time>2019-02-20T10:29:10.000Z</time>
      </trkpt>
      <trkpt lat="45.31707" lon="4.65543">
        <ele>624.59997558594</ele>
        <time>2019-02-20T10:29:11.000Z</time>
      </trkpt>
      <trkpt lat="45.31703" lon="4.65544">
        <ele>624.59997558594</ele>
        <time>2019-02-20T10:29:12.000Z</time>
      </trkpt>
      <trkpt lat="45.31699" lon="4.65545">
        <ele>624.40002441406</ele>
        <time>2019-02-20T10:29:13.000Z</time>
      </trkpt>
      <trkpt lat="45.31694" lon="4.65545">
        <ele>624.40002441406</ele>
        <time>2019-02-20T10:29:14.000Z</time>
      </trkpt>
      <trkpt lat="45.3169" lon="4.65546">
        <ele>624.40002441406</ele>
        <time>2019-02-20T10:29:15.000Z</time>
      </trkpt>
      <trkpt lat="45.31686" lon="4.65546">
        <ele>624.40002441406</ele>
        <time>2019-02-20T10:29:16.000Z</time>
      </trkpt>
      <trkpt lat="45.31682" lon="4.65547">
        <ele>624.40002441406</ele>
        <time>2019-02-20T10:29:17.000Z</time>
      </trkpt>
      <trkpt lat="45.31678" lon="4.65547">
        <ele>624.40002441406</ele>
        <time>2019-02-20T10:29:18.000Z</time>
      </trkpt>
      <trkpt lat="45.31674" lon="4.65548">
        <ele>624.40002441406</ele>
        <time>2019-02-20T10:29:19.000Z</time>
      </trkpt>
      <trkpt lat="45.3167" lon="4.65548">
        <ele>624.40002441406</ele>
        <time>2019-02-20T10:29:20.000Z</time>
      </trkpt>
      <trkpt lat="45.31666" lon="4.65548">
        <ele>624.40002441406</ele>
        <time>2019-02-20T10:29:21.000Z</time>
      </trkpt>
      <trkpt lat="45.31662" lon="4.65548">
        <ele>624.40002441406</ele>
        <time>2019-02-20T10:29:22.000Z</time>
      </trkpt>
      <trkpt lat="45.31658" lon="4.65548">
        <ele>624.20001220703</ele>
        <time>2019-02-20T10:29:23.000Z</time>
      </trkpt>
      <trkpt lat="45.31654" lon="4.65549">
        <ele>624.40002441406</ele>
        <time>2019-02-20T10:29:24.000Z</time>
      </trkpt>
      <trkpt lat="45.31651" lon="4.6555">
        <ele>624.40002441406</ele>
        <time>2019-02-20T10:29:25.000Z</time>
      </trkpt>
      <trkpt lat="45.31648" lon="4.65551">
        <ele>624.20001220703</ele>
        <time>2019-02-20T10:29:26.000Z</time>
      </trkpt>
      <trkpt lat="45.31644" lon="4.65553">
        <ele>624.20001220703</ele>
        <time>2019-02-20T10:29:27.000Z</time>
      </trkpt>
      <trkpt lat="45.31641" lon="4.65555">
        <ele>624.40002441406</ele>
        <time>2019-02-20T10:29:28.000Z</time>
      </trkpt>
      <trkpt lat="45.31638" lon="4.65558">
        <ele>624.20001220703</ele>
        <time>2019-02-20T10:29:29.000Z</time>
      </trkpt>
      <trkpt lat="45.31634" lon="4.65561">
        <ele>624.20001220703</ele>
        <time>2019-02-20T10:29:30.000Z</time>
      </trkpt>
      <trkpt lat="45.31631" lon="4.65564">
        <ele>624.20001220703</ele>
        <time>2019-02-20T10:29:31.000Z</time>
      </trkpt>
      <trkpt lat="45.31628" lon="4.65567">
        <ele>624.20001220703</ele>
        <time>2019-02-20T10:29:32.000Z</time>
      </trkpt>
      <trkpt lat="45.31624" lon="4.6557">
        <ele>624.20001220703</ele>
        <time>2019-02-20T10:29:33.000Z</time>
      </trkpt>
      <trkpt lat="45.3162" lon="4.65574">
        <ele>624.20001220703</ele>
        <time>2019-02-20T10:29:34.000Z</time>
      </trkpt>
      <trkpt lat="45.31617" lon="4.65578">
        <ele>624</ele>
        <time>2019-02-20T10:29:35.000Z</time>
      </trkpt>
      <trkpt lat="45.31612" lon="4.65581">
        <ele>624</ele>
        <time>2019-02-20T10:29:36.000Z</time>
      </trkpt>
      <trkpt lat="45.31608" lon="4.65584">
        <ele>624.20001220703</ele>
        <time>2019-02-20T10:29:37.000Z</time>
      </trkpt>
      <trkpt lat="45.31603" lon="4.65587">
        <ele>624</ele>
        <time>2019-02-20T10:29:38.000Z</time>
      </trkpt>
      <trkpt lat="45.31598" lon="4.65589">
        <ele>624.20001220703</ele>
        <time>2019-02-20T10:29:39.000Z</time>
      </trkpt>
      <trkpt lat="45.31594" lon="4.65591">
        <ele>624</ele>
        <time>2019-02-20T10:29:40.000Z</time>
      </trkpt>
      <trkpt lat="45.31589" lon="4.65593">
        <ele>624</ele>
        <time>2019-02-20T10:29:41.000Z</time>
      </trkpt>
      <trkpt lat="45.31584" lon="4.65595">
        <ele>623.79998779297</ele>
        <time>2019-02-20T10:29:42.000Z</time>
      </trkpt>
      <trkpt lat="45.3158" lon="4.65597">
        <ele>623.79998779297</ele>
        <time>2019-02-20T10:29:43.000Z</time>
      </trkpt>
      <trkpt lat="45.31575" lon="4.65599">
        <ele>623.59997558594</ele>
        <time>2019-02-20T10:29:44.000Z</time>
      </trkpt>
      <trkpt lat="45.3157" lon="4.656">
        <ele>623.40002441406</ele>
        <time>2019-02-20T10:29:45.000Z</time>
      </trkpt>
      <trkpt lat="45.31565" lon="4.65601">
        <ele>623.40002441406</ele>
        <time>2019-02-20T10:29:46.000Z</time>
      </trkpt>
      <trkpt lat="45.3156" lon="4.65602">
        <ele>623.20001220703</ele>
        <time>2019-02-20T10:29:47.000Z</time>
      </trkpt>
      <trkpt lat="45.31556" lon="4.65603">
        <ele>623.20001220703</ele>
        <time>2019-02-20T10:29:48.000Z</time>
      </trkpt>
      <trkpt lat="45.31551" lon="4.65604">
        <ele>623</ele>
        <time>2019-02-20T10:29:49.000Z</time>
      </trkpt>
      <trkpt lat="45.31546" lon="4.65605">
        <ele>622.79998779297</ele>
        <time>2019-02-20T10:29:50.000Z</time>
      </trkpt>
      <trkpt lat="45.31541" lon="4.65606">
        <ele>622.79998779297</ele>
        <time>2019-02-20T10:29:51.000Z</time>
      </trkpt>
      <trkpt lat="45.31536" lon="4.65607">
        <ele>622.79998779297</ele>
        <time>2019-02-20T10:29:52.000Z</time>
      </trkpt>
      <trkpt lat="45.31531" lon="4.65607">
        <ele>622.59997558594</ele>
        <time>2019-02-20T10:29:53.000Z</time>
      </trkpt>
      <trkpt lat="45.31527" lon="4.65608">
        <ele>622.40002441406</ele>
        <time>2019-02-20T10:29:54.000Z</time>
      </trkpt>
      <trkpt lat="45.31522" lon="4.65609">
        <ele>622.40002441406</ele>
        <time>2019-02-20T10:29:55.000Z</time>
      </trkpt>
      <trkpt lat="45.31517" lon="4.6561">
        <ele>622.20001220703</ele>
        <time>2019-02-20T10:29:56.000Z</time>
      </trkpt>
      <trkpt lat="45.31513" lon="4.6561">
        <ele>622.40002441406</ele>
        <time>2019-02-20T10:29:57.000Z</time>
      </trkpt>
      <trkpt lat="45.31509" lon="4.65611">
        <ele>622.20001220703</ele>
        <time>2019-02-20T10:29:58.000Z</time>
      </trkpt>
      <trkpt lat="45.31504" lon="4.65612">
        <ele>622.40002441406</ele>
        <time>2019-02-20T10:29:59.000Z</time>
      </trkpt>
      <trkpt lat="45.315" lon="4.65612">
        <ele>622.40002441406</ele>
        <time>2019-02-20T10:30:00.000Z</time>
      </trkpt>
      <trkpt lat="45.31495" lon="4.65612">
        <ele>622.20001220703</ele>
        <time>2019-02-20T10:30:01.000Z</time>
      </trkpt>
      <trkpt lat="45.31491" lon="4.65613">
        <ele>622.20001220703</ele>
        <time>2019-02-20T10:30:02.000Z</time>
      </trkpt>
      <trkpt lat="45.31487" lon="4.65613">
        <ele>622.40002441406</ele>
        <time>2019-02-20T10:30:03.000Z</time>
      </trkpt>
      <trkpt lat="45.31482" lon="4.65613">
        <ele>622.20001220703</ele>
        <time>2019-02-20T10:30:04.000Z</time>
      </trkpt>
      <trkpt lat="45.31478" lon="4.65614">
        <ele>622.20001220703</ele>
        <time>2019-02-20T10:30:05.000Z</time>
      </trkpt>
      <trkpt lat="45.31474" lon="4.65614">
        <ele>622</ele>
        <time>2019-02-20T10:30:06.000Z</time>
      </trkpt>
      <trkpt lat="45.3147" lon="4.65615">
        <ele>621.79998779297</ele>
        <time>2019-02-20T10:30:07.000Z</time>
      </trkpt>
      <trkpt lat="45.31466" lon="4.65615">
        <ele>622</ele>
        <time>2019-02-20T10:30:08.000Z</time>
      </trkpt>
      <trkpt lat="45.31462" lon="4.65616">
        <ele>622</ele>
        <time>2019-02-20T10:30:09.000Z</time>
      </trkpt>
      <trkpt lat="45.31458" lon="4.65616">
        <ele>621.79998779297</ele>
        <time>2019-02-20T10:30:10.000Z</time>
      </trkpt>
      <trkpt lat="45.31454" lon="4.65617">
        <ele>622</ele>
        <time>2019-02-20T10:30:11.000Z</time>
      </trkpt>
      <trkpt lat="45.31451" lon="4.65618">
        <ele>622</ele>
        <time>2019-02-20T10:30:12.000Z</time>
      </trkpt>
      <trkpt lat="45.31447" lon="4.65618">
        <ele>622</ele>
        <time>2019-02-20T10:30:13.000Z</time>
      </trkpt>
      <trkpt lat="45.31443" lon="4.65619">
        <ele>622</ele>
        <time>2019-02-20T10:30:14.000Z</time>
      </trkpt>
      <trkpt lat="45.31439" lon="4.6562">
        <ele>621.79998779297</ele>
        <time>2019-02-20T10:30:15.000Z</time>
      </trkpt>
      <trkpt lat="45.31436" lon="4.6562">
        <ele>622</ele>
        <time>2019-02-20T10:30:16.000Z</time>
      </trkpt>
      <trkpt lat="45.31432" lon="4.65621">
        <ele>621.59997558594</ele>
        <time>2019-02-20T10:30:17.000Z</time>
      </trkpt>
      <trkpt lat="45.31429" lon="4.65621">
        <ele>621.79998779297</ele>
        <time>2019-02-20T10:30:18.000Z</time>
      </trkpt>
      <trkpt lat="45.31425" lon="4.65622">
        <ele>621.79998779297</ele>
        <time>2019-02-20T10:30:19.000Z</time>
      </trkpt>
      <trkpt lat="45.31421" lon="4.65622">
        <ele>621.79998779297</ele>
        <time>2019-02-20T10:30:20.000Z</time>
      </trkpt>
      <trkpt lat="45.31417" lon="4.65623">
        <ele>621.79998779297</ele>
        <time>2019-02-20T10:30:21.000Z</time>
      </trkpt>
      <trkpt lat="45.31413" lon="4.65623">
        <ele>621.79998779297</ele>
        <time>2019-02-20T10:30:22.000Z</time>
      </trkpt>
      <trkpt lat="45.31409" lon="4.65624">
        <ele>622</ele>
        <time>2019-02-20T10:30:23.000Z</time>
      </trkpt>
      <trkpt lat="45.31405" lon="4.65625">
        <ele>621.79998779297</ele>
        <time>2019-02-20T10:30:24.000Z</time>
      </trkpt>
      <trkpt lat="45.31401" lon="4.65626">
        <ele>621.79998779297</ele>
        <time>2019-02-20T10:30:25.000Z</time>
      </trkpt>
      <trkpt lat="45.31397" lon="4.65626">
        <ele>621.79998779297</ele>
        <time>2019-02-20T10:30:26.000Z</time>
      </trkpt>
      <trkpt lat="45.31392" lon="4.65627">
        <ele>621.79998779297</ele>
        <time>2019-02-20T10:30:27.000Z</time>
      </trkpt>
      <trkpt lat="45.31388" lon="4.65628">
        <ele>621.79998779297</ele>
        <time>2019-02-20T10:30:28.000Z</time>
      </trkpt>
      <trkpt lat="45.31384" lon="4.65629">
        <ele>621.79998779297</ele>
        <time>2019-02-20T10:30:29.000Z</time>
      </trkpt>
      <trkpt lat="45.3138" lon="4.6563">
        <ele>621.79998779297</ele>
        <time>2019-02-20T10:30:30.000Z</time>
      </trkpt>
      <trkpt lat="45.31376" lon="4.65632">
        <ele>621.79998779297</ele>
        <time>2019-02-20T10:30:31.000Z</time>
      </trkpt>
      <trkpt lat="45.31372" lon="4.65633">
        <ele>621.40002441406</ele>
        <time>2019-02-20T10:30:32.000Z</time>
      </trkpt>
      <trkpt lat="45.31369" lon="4.65635">
        <ele>621.40002441406</ele>
        <time>2019-02-20T10:30:33.000Z</time>
      </trkpt>
      <trkpt lat="45.31366" lon="4.65636">
        <ele>621.40002441406</ele>
        <time>2019-02-20T10:30:34.000Z</time>
      </trkpt>
      <trkpt lat="45.31362" lon="4.65638">
        <ele>621.40002441406</ele>
        <time>2019-02-20T10:30:35.000Z</time>
      </trkpt>
      <trkpt lat="45.31359" lon="4.65639">
        <ele>621.40002441406</ele>
        <time>2019-02-20T10:30:36.000Z</time>
      </trkpt>
      <trkpt lat="45.31356" lon="4.65641">
        <ele>621.20001220703</ele>
        <time>2019-02-20T10:30:37.000Z</time>
      </trkpt>
      <trkpt lat="45.31352" lon="4.65643">
        <ele>621</ele>
        <time>2019-02-20T10:30:38.000Z</time>
      </trkpt>
      <trkpt lat="45.31349" lon="4.65645">
        <ele>621</ele>
        <time>2019-02-20T10:30:39.000Z</time>
      </trkpt>
      <trkpt lat="45.31346" lon="4.65646">
        <ele>621</ele>
        <time>2019-02-20T10:30:40.000Z</time>
      </trkpt>
      <trkpt lat="45.31344" lon="4.65648">
        <ele>621</ele>
        <time>2019-02-20T10:30:41.000Z</time>
      </trkpt>
      <trkpt lat="45.31342" lon="4.65649">
        <ele>621</ele>
        <time>2019-02-20T10:30:42.000Z</time>
      </trkpt>
      <trkpt lat="45.31341" lon="4.6565">
        <ele>621</ele>
        <time>2019-02-20T10:30:43.000Z</time>
      </trkpt>
      <trkpt lat="45.31339" lon="4.65651">
        <ele>621.20001220703</ele>
        <time>2019-02-20T10:30:44.000Z</time>
      </trkpt>
      <trkpt lat="45.31337" lon="4.65651">
        <ele>621</ele>
        <time>2019-02-20T10:30:45.000Z</time>
      </trkpt>
      <trkpt lat="45.31335" lon="4.65652">
        <ele>621</ele>
        <time>2019-02-20T10:30:46.000Z</time>
      </trkpt>
      <trkpt lat="45.31333" lon="4.65654">
        <ele>621</ele>
        <time>2019-02-20T10:30:47.000Z</time>
      </trkpt>
      <trkpt lat="45.3133" lon="4.65655">
        <ele>621.20001220703</ele>
        <time>2019-02-20T10:30:48.000Z</time>
      </trkpt>
      <trkpt lat="45.31328" lon="4.65657">
        <ele>621.40002441406</ele>
        <time>2019-02-20T10:30:49.000Z</time>
      </trkpt>
      <trkpt lat="45.31324" lon="4.65659">
        <ele>621.40002441406</ele>
        <time>2019-02-20T10:30:50.000Z</time>
      </trkpt>
      <trkpt lat="45.31321" lon="4.65662">
        <ele>621.59997558594</ele>
        <time>2019-02-20T10:30:51.000Z</time>
      </trkpt>
      <trkpt lat="45.31318" lon="4.65664">
        <ele>621.79998779297</ele>
        <time>2019-02-20T10:30:52.000Z</time>
      </trkpt>
      <trkpt lat="45.31314" lon="4.65666">
        <ele>621.79998779297</ele>
        <time>2019-02-20T10:30:53.000Z</time>
      </trkpt>
      <trkpt lat="45.31312" lon="4.65669">
        <ele>621.79998779297</ele>
        <time>2019-02-20T10:30:54.000Z</time>
      </trkpt>
      <trkpt lat="45.31309" lon="4.6567">
        <ele>621.79998779297</ele>
        <time>2019-02-20T10:30:55.000Z</time>
      </trkpt>
      <trkpt lat="45.31306" lon="4.65672">
        <ele>621.79998779297</ele>
        <time>2019-02-20T10:30:56.000Z</time>
      </trkpt>
      <trkpt lat="45.31303" lon="4.65673">
        <ele>622</ele>
        <time>2019-02-20T10:30:57.000Z</time>
      </trkpt>
      <trkpt lat="45.313" lon="4.65674">
        <ele>622</ele>
        <time>2019-02-20T10:30:58.000Z</time>
      </trkpt>
      <trkpt lat="45.31297" lon="4.65675">
        <ele>622</ele>
        <time>2019-02-20T10:30:59.000Z</time>
      </trkpt>
      <trkpt lat="45.31294" lon="4.65676">
        <ele>622.20001220703</ele>
        <time>2019-02-20T10:31:00.000Z</time>
      </trkpt>
      <trkpt lat="45.31291" lon="4.65676">
        <ele>622.20001220703</ele>
        <time>2019-02-20T10:31:01.000Z</time>
      </trkpt>
      <trkpt lat="45.31289" lon="4.65677">
        <ele>622.20001220703</ele>
        <time>2019-02-20T10:31:02.000Z</time>
      </trkpt>
      <trkpt lat="45.31287" lon="4.65677">
        <ele>622.20001220703</ele>
        <time>2019-02-20T10:31:03.000Z</time>
      </trkpt>
      <trkpt lat="45.31284" lon="4.65677">
        <ele>622.20001220703</ele>
        <time>2019-02-20T10:31:04.000Z</time>
      </trkpt>
      <trkpt lat="45.31282" lon="4.65677">
        <ele>622.20001220703</ele>
        <time>2019-02-20T10:31:05.000Z</time>
      </trkpt>
      <trkpt lat="45.3128" lon="4.65677">
        <ele>622.20001220703</ele>
        <time>2019-02-20T10:31:06.000Z</time>
      </trkpt>
      <trkpt lat="45.31278" lon="4.65677">
        <ele>622.40002441406</ele>
        <time>2019-02-20T10:31:07.000Z</time>
      </trkpt>
      <trkpt lat="45.31276" lon="4.65677">
        <ele>622.40002441406</ele>
        <time>2019-02-20T10:31:08.000Z</time>
      </trkpt>
      <trkpt lat="45.31275" lon="4.65677">
        <ele>622.40002441406</ele>
        <time>2019-02-20T10:31:09.000Z</time>
      </trkpt>
      <trkpt lat="45.31273" lon="4.65677">
        <ele>622.40002441406</ele>
        <time>2019-02-20T10:31:10.000Z</time>
      </trkpt>
      <trkpt lat="45.31271" lon="4.65677">
        <ele>622.40002441406</ele>
        <time>2019-02-20T10:31:11.000Z</time>
      </trkpt>
      <trkpt lat="45.31269" lon="4.65677">
        <ele>622.40002441406</ele>
        <time>2019-02-20T10:31:12.000Z</time>
      </trkpt>
      <trkpt lat="45.31267" lon="4.65677">
        <ele>622.40002441406</ele>
        <time>2019-02-20T10:31:13.000Z</time>
      </trkpt>
      <trkpt lat="45.31265" lon="4.65677">
        <ele>622.40002441406</ele>
        <time>2019-02-20T10:31:14.000Z</time>
      </trkpt>
      <trkpt lat="45.31263" lon="4.65676">
        <ele>622.40002441406</ele>
        <time>2019-02-20T10:31:15.000Z</time>
      </trkpt>
      <trkpt lat="45.3126" lon="4.65676">
        <ele>622.40002441406</ele>
        <time>2019-02-20T10:31:16.000Z</time>
      </trkpt>
      <trkpt lat="45.31258" lon="4.65676">
        <ele>622.40002441406</ele>
        <time>2019-02-20T10:31:17.000Z</time>
      </trkpt>
      <trkpt lat="45.31255" lon="4.65676">
        <ele>622.40002441406</ele>
        <time>2019-02-20T10:31:18.000Z</time>
      </trkpt>
      <trkpt lat="45.31252" lon="4.65676">
        <ele>622.40002441406</ele>
        <time>2019-02-20T10:31:19.000Z</time>
      </trkpt>
      <trkpt lat="45.31248" lon="4.65676">
        <ele>622.40002441406</ele>
        <time>2019-02-20T10:31:20.000Z</time>
      </trkpt>
      <trkpt lat="45.31245" lon="4.65675">
        <ele>622.20001220703</ele>
        <time>2019-02-20T10:31:21.000Z</time>
      </trkpt>
      <trkpt lat="45.31242" lon="4.65674">
        <ele>622</ele>
        <time>2019-02-20T10:31:22.000Z</time>
      </trkpt>
      <trkpt lat="45.31239" lon="4.65674">
        <ele>622</ele>
        <time>2019-02-20T10:31:23.000Z</time>
      </trkpt>
      <trkpt lat="45.31236" lon="4.65674">
        <ele>622</ele>
        <time>2019-02-20T10:31:24.000Z</time>
      </trkpt>
      <trkpt lat="45.31232" lon="4.65673">
        <ele>621.79998779297</ele>
        <time>2019-02-20T10:31:25.000Z</time>
      </trkpt>
      <trkpt lat="45.31228" lon="4.65671">
        <ele>621.40002441406</ele>
        <time>2019-02-20T10:31:26.000Z</time>
      </trkpt>
      <trkpt lat="45.31223" lon="4.65669">
        <ele>621.40002441406</ele>
        <time>2019-02-20T10:31:27.000Z</time>
      </trkpt>
      <trkpt lat="45.31219" lon="4.65668">
        <ele>621.20001220703</ele>
        <time>2019-02-20T10:31:28.000Z</time>
      </trkpt>
      <trkpt lat="45.31215" lon="4.65667">
        <ele>620.79998779297</ele>
        <time>2019-02-20T10:31:29.000Z</time>
      </trkpt>
      <trkpt lat="45.31211" lon="4.65667">
        <ele>620.79998779297</ele>
        <time>2019-02-20T10:31:30.000Z</time>
      </trkpt>
      <trkpt lat="45.31207" lon="4.65667">
        <ele>620.59997558594</ele>
        <time>2019-02-20T10:31:31.000Z</time>
      </trkpt>
      <trkpt lat="45.31203" lon="4.65667">
        <ele>620.40002441406</ele>
        <time>2019-02-20T10:31:32.000Z</time>
      </trkpt>
      <trkpt lat="45.312" lon="4.65666">
        <ele>620.20001220703</ele>
        <time>2019-02-20T10:31:33.000Z</time>
      </trkpt>
      <trkpt lat="45.31196" lon="4.65666">
        <ele>619.79998779297</ele>
        <time>2019-02-20T10:31:34.000Z</time>
      </trkpt>
      <trkpt lat="45.31193" lon="4.65665">
        <ele>619.20001220703</ele>
        <time>2019-02-20T10:31:35.000Z</time>
      </trkpt>
      <trkpt lat="45.3119" lon="4.65664">
        <ele>618.79998779297</ele>
        <time>2019-02-20T10:31:36.000Z</time>
      </trkpt>
      <trkpt lat="45.31186" lon="4.65663">
        <ele>618.59997558594</ele>
        <time>2019-02-20T10:31:37.000Z</time>
      </trkpt>
      <trkpt lat="45.31182" lon="4.65663">
        <ele>618.59997558594</ele>
        <time>2019-02-20T10:31:38.000Z</time>
      </trkpt>
      <trkpt lat="45.31178" lon="4.65662">
        <ele>618.59997558594</ele>
        <time>2019-02-20T10:31:39.000Z</time>
      </trkpt>
      <trkpt lat="45.31173" lon="4.65661">
        <ele>618.40002441406</ele>
        <time>2019-02-20T10:31:40.000Z</time>
      </trkpt>
      <trkpt lat="45.31168" lon="4.65661">
        <ele>618.40002441406</ele>
        <time>2019-02-20T10:31:41.000Z</time>
      </trkpt>
      <trkpt lat="45.31163" lon="4.6566">
        <ele>618</ele>
        <time>2019-02-20T10:31:42.000Z</time>
      </trkpt>
      <trkpt lat="45.31159" lon="4.65659">
        <ele>618</ele>
        <time>2019-02-20T10:31:43.000Z</time>
      </trkpt>
      <trkpt lat="45.31155" lon="4.65659">
        <ele>617.79998779297</ele>
        <time>2019-02-20T10:31:44.000Z</time>
      </trkpt>
      <trkpt lat="45.31151" lon="4.65659">
        <ele>617.79998779297</ele>
        <time>2019-02-20T10:31:45.000Z</time>
      </trkpt>
      <trkpt lat="45.31147" lon="4.65658">
        <ele>617.79998779297</ele>
        <time>2019-02-20T10:31:46.000Z</time>
      </trkpt>
      <trkpt lat="45.31143" lon="4.65657">
        <ele>617.79998779297</ele>
        <time>2019-02-20T10:31:47.000Z</time>
      </trkpt>
      <trkpt lat="45.31139" lon="4.65655">
        <ele>617</ele>
        <time>2019-02-20T10:31:48.000Z</time>
      </trkpt>
      <trkpt lat="45.31135" lon="4.65654">
        <ele>617</ele>
        <time>2019-02-20T10:31:49.000Z</time>
      </trkpt>
      <trkpt lat="45.31131" lon="4.65653">
        <ele>616.79998779297</ele>
        <time>2019-02-20T10:31:50.000Z</time>
      </trkpt>
      <trkpt lat="45.31128" lon="4.65652">
        <ele>616.59997558594</ele>
        <time>2019-02-20T10:31:51.000Z</time>
      </trkpt>
      <trkpt lat="45.31125" lon="4.65651">
        <ele>616.40002441406</ele>
        <time>2019-02-20T10:31:52.000Z</time>
      </trkpt>
      <trkpt lat="45.31123" lon="4.6565">
        <ele>616.40002441406</ele>
        <time>2019-02-20T10:31:53.000Z</time>
      </trkpt>
      <trkpt lat="45.31122" lon="4.65648">
        <ele>616.20001220703</ele>
        <time>2019-02-20T10:31:54.000Z</time>
      </trkpt>
      <trkpt lat="45.3112" lon="4.65646">
        <ele>616</ele>
        <time>2019-02-20T10:31:55.000Z</time>
      </trkpt>
      <trkpt lat="45.3112" lon="4.65642">
        <ele>615.59997558594</ele>
        <time>2019-02-20T10:31:56.000Z</time>
      </trkpt>
      <trkpt lat="45.3112" lon="4.6564">
        <ele>615</ele>
        <time>2019-02-20T10:31:57.000Z</time>
      </trkpt>
      <trkpt lat="45.31121" lon="4.65637">
        <ele>614.20001220703</ele>
        <time>2019-02-20T10:31:58.000Z</time>
      </trkpt>
      <trkpt lat="45.31122" lon="4.65636">
        <ele>614</ele>
        <time>2019-02-20T10:31:59.000Z</time>
      </trkpt>
      <trkpt lat="45.31122" lon="4.65635">
        <ele>613.59997558594</ele>
        <time>2019-02-20T10:32:00.000Z</time>
      </trkpt>
      <trkpt lat="45.31123" lon="4.65634">
        <ele>613.20001220703</ele>
        <time>2019-02-20T10:32:01.000Z</time>
      </trkpt>
      <trkpt lat="45.31123" lon="4.65634">
        <ele>613.20001220703</ele>
        <time>2019-02-20T10:32:02.000Z</time>
      </trkpt>
      <trkpt lat="45.31124" lon="4.65633">
        <ele>612.79998779297</ele>
        <time>2019-02-20T10:32:03.000Z</time>
      </trkpt>
      <trkpt lat="45.31124" lon="4.65632">
        <ele>612.40002441406</ele>
        <time>2019-02-20T10:32:04.000Z</time>
      </trkpt>
      <trkpt lat="45.31124" lon="4.65631">
        <ele>612.40002441406</ele>
        <time>2019-02-20T10:32:05.000Z</time>
      </trkpt>
      <trkpt lat="45.31123" lon="4.6563">
        <ele>612</ele>
        <time>2019-02-20T10:32:06.000Z</time>
      </trkpt>
      <trkpt lat="45.31122" lon="4.6563">
        <ele>612</ele>
        <time>2019-02-20T10:32:07.000Z</time>
      </trkpt>
      <trkpt lat="45.31121" lon="4.6563">
        <ele>612</ele>
        <time>2019-02-20T10:32:08.000Z</time>
      </trkpt>
      <trkpt lat="45.3112" lon="4.65632">
        <ele>611.79998779297</ele>
        <time>2019-02-20T10:32:09.000Z</time>
      </trkpt>
      <trkpt lat="45.31119" lon="4.65633">
        <ele>611.79998779297</ele>
        <time>2019-02-20T10:32:10.000Z</time>
      </trkpt>
      <trkpt lat="45.31119" lon="4.65634">
        <ele>611.79998779297</ele>
        <time>2019-02-20T10:32:11.000Z</time>
      </trkpt>
      <trkpt lat="45.31118" lon="4.65636">
        <ele>611.79998779297</ele>
        <time>2019-02-20T10:32:12.000Z</time>
      </trkpt>
      <trkpt lat="45.31118" lon="4.65637">
        <ele>611.59997558594</ele>
        <time>2019-02-20T10:32:13.000Z</time>
      </trkpt>
      <trkpt lat="45.31118" lon="4.65639">
        <ele>611.59997558594</ele>
        <time>2019-02-20T10:32:14.000Z</time>
      </trkpt>
      <trkpt lat="45.31118" lon="4.6564">
        <ele>611.59997558594</ele>
        <time>2019-02-20T10:32:15.000Z</time>
      </trkpt>
      <trkpt lat="45.31118" lon="4.65641">
        <ele>611.59997558594</ele>
        <time>2019-02-20T10:32:16.000Z</time>
      </trkpt>
      <trkpt lat="45.31118" lon="4.65643">
        <ele>611.59997558594</ele>
        <time>2019-02-20T10:32:17.000Z</time>
      </trkpt>
      <trkpt lat="45.31118" lon="4.65645">
        <ele>611.79998779297</ele>
        <time>2019-02-20T10:32:18.000Z</time>
      </trkpt>
      <trkpt lat="45.31119" lon="4.65646">
        <ele>611.59997558594</ele>
        <time>2019-02-20T10:32:19.000Z</time>
      </trkpt>
      <trkpt lat="45.3112" lon="4.65647">
        <ele>611.79998779297</ele>
        <time>2019-02-20T10:32:20.000Z</time>
      </trkpt>
      <trkpt lat="45.31121" lon="4.65647">
        <ele>611.79998779297</ele>
        <time>2019-02-20T10:32:21.000Z</time>
      </trkpt>
      <trkpt lat="45.31122" lon="4.65648">
        <ele>612</ele>
        <time>2019-02-20T10:32:22.000Z</time>
      </trkpt>
      <trkpt lat="45.31124" lon="4.65648">
        <ele>612</ele>
        <time>2019-02-20T10:32:23.000Z</time>
      </trkpt>
      <trkpt lat="45.31125" lon="4.65648">
        <ele>612.20001220703</ele>
        <time>2019-02-20T10:32:24.000Z</time>
      </trkpt>
      <trkpt lat="45.31127" lon="4.65648">
        <ele>612.20001220703</ele>
        <time>2019-02-20T10:32:25.000Z</time>
      </trkpt>
      <trkpt lat="45.31129" lon="4.65649">
        <ele>612.40002441406</ele>
        <time>2019-02-20T10:32:26.000Z</time>
      </trkpt>
      <trkpt lat="45.3113" lon="4.65649">
        <ele>612.59997558594</ele>
        <time>2019-02-20T10:32:27.000Z</time>
      </trkpt>
      <trkpt lat="45.31131" lon="4.65649">
        <ele>612.59997558594</ele>
        <time>2019-02-20T10:32:28.000Z</time>
      </trkpt>
      <trkpt lat="45.31133" lon="4.65649">
        <ele>612.79998779297</ele>
        <time>2019-02-20T10:32:29.000Z</time>
      </trkpt>
      <trkpt lat="45.31134" lon="4.6565">
        <ele>612.79998779297</ele>
        <time>2019-02-20T10:32:30.000Z</time>
      </trkpt>
      <trkpt lat="45.31136" lon="4.65651">
        <ele>613</ele>
        <time>2019-02-20T10:32:31.000Z</time>
      </trkpt>
      <trkpt lat="45.31137" lon="4.65651">
        <ele>613.20001220703</ele>
        <time>2019-02-20T10:32:32.000Z</time>
      </trkpt>
      <trkpt lat="45.31138" lon="4.65652">
        <ele>613.40002441406</ele>
        <time>2019-02-20T10:32:33.000Z</time>
      </trkpt>
      <trkpt lat="45.3114" lon="4.65652">
        <ele>613.40002441406</ele>
        <time>2019-02-20T10:32:34.000Z</time>
      </trkpt>
      <trkpt lat="45.31141" lon="4.65652">
        <ele>613.59997558594</ele>
        <time>2019-02-20T10:32:35.000Z</time>
      </trkpt>
      <trkpt lat="45.31142" lon="4.65652">
        <ele>613.79998779297</ele>
        <time>2019-02-20T10:32:36.000Z</time>
      </trkpt>
      <trkpt lat="45.31142" lon="4.65652">
        <ele>614</ele>
        <time>2019-02-20T10:32:37.000Z</time>
      </trkpt>
      <trkpt lat="45.31143" lon="4.65652">
        <ele>614.20001220703</ele>
        <time>2019-02-20T10:32:38.000Z</time>
      </trkpt>
      <trkpt lat="45.31144" lon="4.65652">
        <ele>614.20001220703</ele>
        <time>2019-02-20T10:32:39.000Z</time>
      </trkpt>
      <trkpt lat="45.31145" lon="4.65652">
        <ele>614.40002441406</ele>
        <time>2019-02-20T10:32:40.000Z</time>
      </trkpt>
      <trkpt lat="45.31146" lon="4.65653">
        <ele>614.59997558594</ele>
        <time>2019-02-20T10:32:41.000Z</time>
      </trkpt>
      <trkpt lat="45.31146" lon="4.65653">
        <ele>615</ele>
        <time>2019-02-20T10:32:42.000Z</time>
      </trkpt>
      <trkpt lat="45.31147" lon="4.65653">
        <ele>615</ele>
        <time>2019-02-20T10:32:43.000Z</time>
      </trkpt>
      <trkpt lat="45.31148" lon="4.65653">
        <ele>615.20001220703</ele>
        <time>2019-02-20T10:32:44.000Z</time>
      </trkpt>
      <trkpt lat="45.31148" lon="4.65653">
        <ele>615.20001220703</ele>
        <time>2019-02-20T10:32:45.000Z</time>
      </trkpt>
      <trkpt lat="45.31149" lon="4.65654">
        <ele>615.20001220703</ele>
        <time>2019-02-20T10:32:46.000Z</time>
      </trkpt>
      <trkpt lat="45.3115" lon="4.65654">
        <ele>615.40002441406</ele>
        <time>2019-02-20T10:32:47.000Z</time>
      </trkpt>
      <trkpt lat="45.31151" lon="4.65654">
        <ele>615.59997558594</ele>
        <time>2019-02-20T10:32:48.000Z</time>
      </trkpt>
      <trkpt lat="45.31151" lon="4.65655">
        <ele>615.59997558594</ele>
        <time>2019-02-20T10:32:49.000Z</time>
      </trkpt>
      <trkpt lat="45.31152" lon="4.65655">
        <ele>615.59997558594</ele>
        <time>2019-02-20T10:32:50.000Z</time>
      </trkpt>
      <trkpt lat="45.31153" lon="4.65656">
        <ele>615.59997558594</ele>
        <time>2019-02-20T10:32:51.000Z</time>
      </trkpt>
      <trkpt lat="45.31154" lon="4.65656">
        <ele>615.79998779297</ele>
        <time>2019-02-20T10:32:52.000Z</time>
      </trkpt>
      <trkpt lat="45.31155" lon="4.65657">
        <ele>616</ele>
        <time>2019-02-20T10:32:53.000Z</time>
      </trkpt>
      <trkpt lat="45.31156" lon="4.65657">
        <ele>616</ele>
        <time>2019-02-20T10:32:54.000Z</time>
      </trkpt>
      <trkpt lat="45.31157" lon="4.65657">
        <ele>616</ele>
        <time>2019-02-20T10:32:55.000Z</time>
      </trkpt>
      <trkpt lat="45.31158" lon="4.65657">
        <ele>616.40002441406</ele>
        <time>2019-02-20T10:32:56.000Z</time>
      </trkpt>
      <trkpt lat="45.31159" lon="4.65657">
        <ele>616.40002441406</ele>
        <time>2019-02-20T10:32:57.000Z</time>
      </trkpt>
      <trkpt lat="45.3116" lon="4.65657">
        <ele>616.40002441406</ele>
        <time>2019-02-20T10:32:58.000Z</time>
      </trkpt>
      <trkpt lat="45.3116" lon="4.65657">
        <ele>616.59997558594</ele>
        <time>2019-02-20T10:32:59.000Z</time>
      </trkpt>
      <trkpt lat="45.3116" lon="4.65658">
        <ele>616.59997558594</ele>
        <time>2019-02-20T10:33:00.000Z</time>
      </trkpt>
      <trkpt lat="45.31161" lon="4.65658">
        <ele>616.59997558594</ele>
        <time>2019-02-20T10:33:01.000Z</time>
      </trkpt>
      <trkpt lat="45.31167" lon="4.6566">
        <ele>617</ele>
        <time>2019-02-20T10:34:59.000Z</time>
      </trkpt>
      <trkpt lat="45.31169" lon="4.6566">
        <ele>617</ele>
        <time>2019-02-20T10:35:00.000Z</time>
      </trkpt>
      <trkpt lat="45.31171" lon="4.6566">
        <ele>617</ele>
        <time>2019-02-20T10:35:01.000Z</time>
      </trkpt>
      <trkpt lat="45.31173" lon="4.6566">
        <ele>617</ele>
        <time>2019-02-20T10:35:02.000Z</time>
      </trkpt>
      <trkpt lat="45.31174" lon="4.65661">
        <ele>617</ele>
        <time>2019-02-20T10:35:03.000Z</time>
      </trkpt>
      <trkpt lat="45.31176" lon="4.65661">
        <ele>617</ele>
        <time>2019-02-20T10:35:04.000Z</time>
      </trkpt>
      <trkpt lat="45.31178" lon="4.65662">
        <ele>617</ele>
        <time>2019-02-20T10:35:05.000Z</time>
      </trkpt>
      <trkpt lat="45.3118" lon="4.65662">
        <ele>617</ele>
        <time>2019-02-20T10:35:06.000Z</time>
      </trkpt>
      <trkpt lat="45.31181" lon="4.65662">
        <ele>617</ele>
        <time>2019-02-20T10:35:07.000Z</time>
      </trkpt>
      <trkpt lat="45.31183" lon="4.65663">
        <ele>617</ele>
        <time>2019-02-20T10:35:08.000Z</time>
      </trkpt>
      <trkpt lat="45.31184" lon="4.65663">
        <ele>617.20001220703</ele>
        <time>2019-02-20T10:35:09.000Z</time>
      </trkpt>
      <trkpt lat="45.31186" lon="4.65663">
        <ele>617.20001220703</ele>
        <time>2019-02-20T10:35:10.000Z</time>
      </trkpt>
      <trkpt lat="45.31187" lon="4.65663">
        <ele>617</ele>
        <time>2019-02-20T10:35:11.000Z</time>
      </trkpt>
      <trkpt lat="45.31188" lon="4.65664">
        <ele>617.20001220703</ele>
        <time>2019-02-20T10:35:12.000Z</time>
      </trkpt>
      <trkpt lat="45.31189" lon="4.65664">
        <ele>617.20001220703</ele>
        <time>2019-02-20T10:35:13.000Z</time>
      </trkpt>
      <trkpt lat="45.3119" lon="4.65663">
        <ele>617.40002441406</ele>
        <time>2019-02-20T10:35:14.000Z</time>
      </trkpt>
      <trkpt lat="45.31191" lon="4.65663">
        <ele>617.40002441406</ele>
        <time>2019-02-20T10:35:15.000Z</time>
      </trkpt>
      <trkpt lat="45.31192" lon="4.65663">
        <ele>617.40002441406</ele>
        <time>2019-02-20T10:35:16.000Z</time>
      </trkpt>
      <trkpt lat="45.31194" lon="4.65663">
        <ele>617.59997558594</ele>
        <time>2019-02-20T10:35:17.000Z</time>
      </trkpt>
      <trkpt lat="45.31195" lon="4.65663">
        <ele>617.59997558594</ele>
        <time>2019-02-20T10:35:18.000Z</time>
      </trkpt>
      <trkpt lat="45.31196" lon="4.65663">
        <ele>617.79998779297</ele>
        <time>2019-02-20T10:35:19.000Z</time>
      </trkpt>
      <trkpt lat="45.31198" lon="4.65663">
        <ele>617.79998779297</ele>
        <time>2019-02-20T10:35:20.000Z</time>
      </trkpt>
      <trkpt lat="45.31199" lon="4.65663">
        <ele>617.79998779297</ele>
        <time>2019-02-20T10:35:21.000Z</time>
      </trkpt>
      <trkpt lat="45.31201" lon="4.65662">
        <ele>618</ele>
        <time>2019-02-20T10:35:22.000Z</time>
      </trkpt>
      <trkpt lat="45.31203" lon="4.65663">
        <ele>618.20001220703</ele>
        <time>2019-02-20T10:35:23.000Z</time>
      </trkpt>
      <trkpt lat="45.31205" lon="4.65663">
        <ele>618.40002441406</ele>
        <time>2019-02-20T10:35:24.000Z</time>
      </trkpt>
      <trkpt lat="45.31206" lon="4.65663">
        <ele>618.40002441406</ele>
        <time>2019-02-20T10:35:25.000Z</time>
      </trkpt>
      <trkpt lat="45.31208" lon="4.65663">
        <ele>618.40002441406</ele>
        <time>2019-02-20T10:35:26.000Z</time>
      </trkpt>
      <trkpt lat="45.3121" lon="4.65664">
        <ele>618.59997558594</ele>
        <time>2019-02-20T10:35:27.000Z</time>
      </trkpt>
      <trkpt lat="45.31211" lon="4.65664">
        <ele>618.59997558594</ele>
        <time>2019-02-20T10:35:28.000Z</time>
      </trkpt>
      <trkpt lat="45.31213" lon="4.65664">
        <ele>618.59997558594</ele>
        <time>2019-02-20T10:35:29.000Z</time>
      </trkpt>
      <trkpt lat="45.31215" lon="4.65664">
        <ele>618.59997558594</ele>
        <time>2019-02-20T10:35:30.000Z</time>
      </trkpt>
      <trkpt lat="45.31217" lon="4.65664">
        <ele>618.59997558594</ele>
        <time>2019-02-20T10:35:31.000Z</time>
      </trkpt>
      <trkpt lat="45.31219" lon="4.65664">
        <ele>618.59997558594</ele>
        <time>2019-02-20T10:35:32.000Z</time>
      </trkpt>
      <trkpt lat="45.31221" lon="4.65664">
        <ele>618.59997558594</ele>
        <time>2019-02-20T10:35:33.000Z</time>
      </trkpt>
      <trkpt lat="45.31223" lon="4.65665">
        <ele>618.59997558594</ele>
        <time>2019-02-20T10:35:34.000Z</time>
      </trkpt>
      <trkpt lat="45.31225" lon="4.65665">
        <ele>618.59997558594</ele>
        <time>2019-02-20T10:35:35.000Z</time>
      </trkpt>
      <trkpt lat="45.31227" lon="4.65665">
        <ele>618.59997558594</ele>
        <time>2019-02-20T10:35:36.000Z</time>
      </trkpt>
      <trkpt lat="45.31229" lon="4.65666">
        <ele>618.59997558594</ele>
        <time>2019-02-20T10:35:37.000Z</time>
      </trkpt>
      <trkpt lat="45.31231" lon="4.65667">
        <ele>618.79998779297</ele>
        <time>2019-02-20T10:35:38.000Z</time>
      </trkpt>
      <trkpt lat="45.31233" lon="4.65668">
        <ele>618.59997558594</ele>
        <time>2019-02-20T10:35:39.000Z</time>
      </trkpt>
      <trkpt lat="45.31235" lon="4.65669">
        <ele>618.59997558594</ele>
        <time>2019-02-20T10:35:40.000Z</time>
      </trkpt>
      <trkpt lat="45.31237" lon="4.65669">
        <ele>618.59997558594</ele>
        <time>2019-02-20T10:35:41.000Z</time>
      </trkpt>
      <trkpt lat="45.31238" lon="4.6567">
        <ele>618.79998779297</ele>
        <time>2019-02-20T10:35:42.000Z</time>
      </trkpt>
      <trkpt lat="45.3124" lon="4.65671">
        <ele>618.79998779297</ele>
        <time>2019-02-20T10:35:43.000Z</time>
      </trkpt>
      <trkpt lat="45.31242" lon="4.65672">
        <ele>618.59997558594</ele>
        <time>2019-02-20T10:35:44.000Z</time>
      </trkpt>
      <trkpt lat="45.31243" lon="4.65672">
        <ele>618.59997558594</ele>
        <time>2019-02-20T10:35:45.000Z</time>
      </trkpt>
      <trkpt lat="45.31245" lon="4.65673">
        <ele>618.59997558594</ele>
        <time>2019-02-20T10:35:46.000Z</time>
      </trkpt>
      <trkpt lat="45.31247" lon="4.65673">
        <ele>618.40002441406</ele>
        <time>2019-02-20T10:35:47.000Z</time>
      </trkpt>
      <trkpt lat="45.31249" lon="4.65674">
        <ele>618.59997558594</ele>
        <time>2019-02-20T10:35:48.000Z</time>
      </trkpt>
      <trkpt lat="45.31251" lon="4.65674">
        <ele>619</ele>
        <time>2019-02-20T10:35:49.000Z</time>
      </trkpt>
      <trkpt lat="45.31253" lon="4.65675">
        <ele>619.20001220703</ele>
        <time>2019-02-20T10:35:50.000Z</time>
      </trkpt>
      <trkpt lat="45.31255" lon="4.65675">
        <ele>619.40002441406</ele>
        <time>2019-02-20T10:35:51.000Z</time>
      </trkpt>
      <trkpt lat="45.31257" lon="4.65676">
        <ele>619.79998779297</ele>
        <time>2019-02-20T10:35:52.000Z</time>
      </trkpt>
      <trkpt lat="45.31259" lon="4.65676">
        <ele>620.20001220703</ele>
        <time>2019-02-20T10:35:53.000Z</time>
      </trkpt>
      <trkpt lat="45.31261" lon="4.65676">
        <ele>620.20001220703</ele>
        <time>2019-02-20T10:35:54.000Z</time>
      </trkpt>
      <trkpt lat="45.31263" lon="4.65676">
        <ele>620.40002441406</ele>
        <time>2019-02-20T10:35:55.000Z</time>
      </trkpt>
      <trkpt lat="45.31265" lon="4.65676">
        <ele>620.59997558594</ele>
        <time>2019-02-20T10:35:56.000Z</time>
      </trkpt>
      <trkpt lat="45.31267" lon="4.65676">
        <ele>620.59997558594</ele>
        <time>2019-02-20T10:35:57.000Z</time>
      </trkpt>
      <trkpt lat="45.31269" lon="4.65676">
        <ele>620.59997558594</ele>
        <time>2019-02-20T10:35:58.000Z</time>
      </trkpt>
      <trkpt lat="45.31271" lon="4.65677">
        <ele>620.79998779297</ele>
        <time>2019-02-20T10:35:59.000Z</time>
      </trkpt>
      <trkpt lat="45.31273" lon="4.65677">
        <ele>621</ele>
        <time>2019-02-20T10:36:00.000Z</time>
      </trkpt>
      <trkpt lat="45.31275" lon="4.65677">
        <ele>621</ele>
        <time>2019-02-20T10:36:01.000Z</time>
      </trkpt>
      <trkpt lat="45.31277" lon="4.65677">
        <ele>621</ele>
        <time>2019-02-20T10:36:02.000Z</time>
      </trkpt>
      <trkpt lat="45.31279" lon="4.65676">
        <ele>621.20001220703</ele>
        <time>2019-02-20T10:36:03.000Z</time>
      </trkpt>
      <trkpt lat="45.31282" lon="4.65676">
        <ele>621.40002441406</ele>
        <time>2019-02-20T10:36:04.000Z</time>
      </trkpt>
      <trkpt lat="45.31284" lon="4.65676">
        <ele>621.59997558594</ele>
        <time>2019-02-20T10:36:05.000Z</time>
      </trkpt>
      <trkpt lat="45.31286" lon="4.65676">
        <ele>621.59997558594</ele>
        <time>2019-02-20T10:36:06.000Z</time>
      </trkpt>
      <trkpt lat="45.31288" lon="4.65676">
        <ele>621.59997558594</ele>
        <time>2019-02-20T10:36:07.000Z</time>
      </trkpt>
      <trkpt lat="45.31291" lon="4.65676">
        <ele>621.79998779297</ele>
        <time>2019-02-20T10:36:08.000Z</time>
      </trkpt>
      <trkpt lat="45.31293" lon="4.65675">
        <ele>622</ele>
        <time>2019-02-20T10:36:09.000Z</time>
      </trkpt>
      <trkpt lat="45.31295" lon="4.65674">
        <ele>622</ele>
        <time>2019-02-20T10:36:10.000Z</time>
      </trkpt>
      <trkpt lat="45.31297" lon="4.65673">
        <ele>622</ele>
        <time>2019-02-20T10:36:11.000Z</time>
      </trkpt>
      <trkpt lat="45.313" lon="4.65672">
        <ele>622</ele>
        <time>2019-02-20T10:36:12.000Z</time>
      </trkpt>
      <trkpt lat="45.31302" lon="4.65671">
        <ele>622.20001220703</ele>
        <time>2019-02-20T10:36:13.000Z</time>
      </trkpt>
      <trkpt lat="45.31305" lon="4.6567">
        <ele>622.20001220703</ele>
        <time>2019-02-20T10:36:14.000Z</time>
      </trkpt>
      <trkpt lat="45.31307" lon="4.65669">
        <ele>622</ele>
        <time>2019-02-20T10:36:15.000Z</time>
      </trkpt>
      <trkpt lat="45.3131" lon="4.65668">
        <ele>622.20001220703</ele>
        <time>2019-02-20T10:36:16.000Z</time>
      </trkpt>
      <trkpt lat="45.31313" lon="4.65667">
        <ele>622.20001220703</ele>
        <time>2019-02-20T10:36:17.000Z</time>
      </trkpt>
      <trkpt lat="45.31315" lon="4.65666">
        <ele>622.20001220703</ele>
        <time>2019-02-20T10:36:18.000Z</time>
      </trkpt>
      <trkpt lat="45.31318" lon="4.65664">
        <ele>622.20001220703</ele>
        <time>2019-02-20T10:36:19.000Z</time>
      </trkpt>
      <trkpt lat="45.31321" lon="4.65662">
        <ele>622.20001220703</ele>
        <time>2019-02-20T10:36:20.000Z</time>
      </trkpt>
      <trkpt lat="45.31324" lon="4.65661">
        <ele>622.20001220703</ele>
        <time>2019-02-20T10:36:21.000Z</time>
      </trkpt>
      <trkpt lat="45.31326" lon="4.65659">
        <ele>622</ele>
        <time>2019-02-20T10:36:22.000Z</time>
      </trkpt>
      <trkpt lat="45.31329" lon="4.65658">
        <ele>622</ele>
        <time>2019-02-20T10:36:23.000Z</time>
      </trkpt>
      <trkpt lat="45.31331" lon="4.65656">
        <ele>622</ele>
        <time>2019-02-20T10:36:24.000Z</time>
      </trkpt>
      <trkpt lat="45.31334" lon="4.65655">
        <ele>621.79998779297</ele>
        <time>2019-02-20T10:36:25.000Z</time>
      </trkpt>
      <trkpt lat="45.31336" lon="4.65654">
        <ele>621.79998779297</ele>
        <time>2019-02-20T10:36:26.000Z</time>
      </trkpt>
      <trkpt lat="45.31339" lon="4.65653">
        <ele>621.59997558594</ele>
        <time>2019-02-20T10:36:27.000Z</time>
      </trkpt>
      <trkpt lat="45.31341" lon="4.65653">
        <ele>621.59997558594</ele>
        <time>2019-02-20T10:36:28.000Z</time>
      </trkpt>
      <trkpt lat="45.31344" lon="4.65653">
        <ele>621.79998779297</ele>
        <time>2019-02-20T10:36:29.000Z</time>
      </trkpt>
      <trkpt lat="45.31346" lon="4.65653">
        <ele>621.59997558594</ele>
        <time>2019-02-20T10:36:30.000Z</time>
      </trkpt>
      <trkpt lat="45.31349" lon="4.65653">
        <ele>621.40002441406</ele>
        <time>2019-02-20T10:36:31.000Z</time>
      </trkpt>
      <trkpt lat="45.31351" lon="4.65654">
        <ele>621.59997558594</ele>
        <time>2019-02-20T10:36:32.000Z</time>
      </trkpt>
      <trkpt lat="45.31353" lon="4.65654">
        <ele>621.59997558594</ele>
        <time>2019-02-20T10:36:33.000Z</time>
      </trkpt>
      <trkpt lat="45.31355" lon="4.65655">
        <ele>621.59997558594</ele>
        <time>2019-02-20T10:36:34.000Z</time>
      </trkpt>
      <trkpt lat="45.31357" lon="4.65655">
        <ele>621.59997558594</ele>
        <time>2019-02-20T10:36:35.000Z</time>
      </trkpt>
      <trkpt lat="45.31359" lon="4.65656">
        <ele>621.40002441406</ele>
        <time>2019-02-20T10:36:36.000Z</time>
      </trkpt>
      <trkpt lat="45.31361" lon="4.65656">
        <ele>621.59997558594</ele>
        <time>2019-02-20T10:36:37.000Z</time>
      </trkpt>
      <trkpt lat="45.31363" lon="4.65656">
        <ele>621.79998779297</ele>
        <time>2019-02-20T10:36:38.000Z</time>
      </trkpt>
      <trkpt lat="45.31365" lon="4.65657">
        <ele>621.79998779297</ele>
        <time>2019-02-20T10:36:39.000Z</time>
      </trkpt>
      <trkpt lat="45.31367" lon="4.65658">
        <ele>622.20001220703</ele>
        <time>2019-02-20T10:36:40.000Z</time>
      </trkpt>
      <trkpt lat="45.31369" lon="4.65658">
        <ele>622.40002441406</ele>
        <time>2019-02-20T10:36:41.000Z</time>
      </trkpt>
      <trkpt lat="45.31371" lon="4.65659">
        <ele>622.59997558594</ele>
        <time>2019-02-20T10:36:42.000Z</time>
      </trkpt>
      <trkpt lat="45.31373" lon="4.65659">
        <ele>623</ele>
        <time>2019-02-20T10:36:43.000Z</time>
      </trkpt>
      <trkpt lat="45.31375" lon="4.6566">
        <ele>623.40002441406</ele>
        <time>2019-02-20T10:36:44.000Z</time>
      </trkpt>
      <trkpt lat="45.31377" lon="4.6566">
        <ele>623.59997558594</ele>
        <time>2019-02-20T10:36:45.000Z</time>
      </trkpt>
      <trkpt lat="45.31379" lon="4.65661">
        <ele>623.79998779297</ele>
        <time>2019-02-20T10:36:46.000Z</time>
      </trkpt>
      <trkpt lat="45.31381" lon="4.65661">
        <ele>624</ele>
        <time>2019-02-20T10:36:47.000Z</time>
      </trkpt>
      <trkpt lat="45.31383" lon="4.65662">
        <ele>624.20001220703</ele>
        <time>2019-02-20T10:36:48.000Z</time>
      </trkpt>
      <trkpt lat="45.31384" lon="4.65662">
        <ele>624.40002441406</ele>
        <time>2019-02-20T10:36:49.000Z</time>
      </trkpt>
      <trkpt lat="45.31386" lon="4.65663">
        <ele>624.59997558594</ele>
        <time>2019-02-20T10:36:50.000Z</time>
      </trkpt>
      <trkpt lat="45.31388" lon="4.65663">
        <ele>624.59997558594</ele>
        <time>2019-02-20T10:36:51.000Z</time>
      </trkpt>
      <trkpt lat="45.3139" lon="4.65664">
        <ele>625.20001220703</ele>
        <time>2019-02-20T10:36:52.000Z</time>
      </trkpt>
      <trkpt lat="45.31391" lon="4.65664">
        <ele>625.40002441406</ele>
        <time>2019-02-20T10:36:53.000Z</time>
      </trkpt>
      <trkpt lat="45.31393" lon="4.65665">
        <ele>625.59997558594</ele>
        <time>2019-02-20T10:36:54.000Z</time>
      </trkpt>
      <trkpt lat="45.31395" lon="4.65665">
        <ele>626</ele>
        <time>2019-02-20T10:36:55.000Z</time>
      </trkpt>
      <trkpt lat="45.31397" lon="4.65666">
        <ele>626.20001220703</ele>
        <time>2019-02-20T10:36:56.000Z</time>
      </trkpt>
      <trkpt lat="45.31399" lon="4.65666">
        <ele>626.40002441406</ele>
        <time>2019-02-20T10:36:57.000Z</time>
      </trkpt>
      <trkpt lat="45.314" lon="4.65666">
        <ele>626.40002441406</ele>
        <time>2019-02-20T10:36:58.000Z</time>
      </trkpt>
      <trkpt lat="45.31402" lon="4.65667">
        <ele>626.79998779297</ele>
        <time>2019-02-20T10:36:59.000Z</time>
      </trkpt>
      <trkpt lat="45.31404" lon="4.65667">
        <ele>626.79998779297</ele>
        <time>2019-02-20T10:37:00.000Z</time>
      </trkpt>
      <trkpt lat="45.31406" lon="4.65668">
        <ele>627.20001220703</ele>
        <time>2019-02-20T10:37:01.000Z</time>
      </trkpt>
      <trkpt lat="45.31408" lon="4.65669">
        <ele>627.40002441406</ele>
        <time>2019-02-20T10:37:02.000Z</time>
      </trkpt>
      <trkpt lat="45.31409" lon="4.6567">
        <ele>627.59997558594</ele>
        <time>2019-02-20T10:37:03.000Z</time>
      </trkpt>
      <trkpt lat="45.31411" lon="4.65671">
        <ele>627.59997558594</ele>
        <time>2019-02-20T10:37:04.000Z</time>
      </trkpt>
      <trkpt lat="45.31412" lon="4.65672">
        <ele>627.79998779297</ele>
        <time>2019-02-20T10:37:05.000Z</time>
      </trkpt>
      <trkpt lat="45.31414" lon="4.65674">
        <ele>628</ele>
        <time>2019-02-20T10:37:06.000Z</time>
      </trkpt>
      <trkpt lat="45.31415" lon="4.65675">
        <ele>628</ele>
        <time>2019-02-20T10:37:07.000Z</time>
      </trkpt>
      <trkpt lat="45.31417" lon="4.65676">
        <ele>628.40002441406</ele>
        <time>2019-02-20T10:37:08.000Z</time>
      </trkpt>
      <trkpt lat="45.31419" lon="4.65677">
        <ele>628.40002441406</ele>
        <time>2019-02-20T10:37:09.000Z</time>
      </trkpt>
      <trkpt lat="45.3142" lon="4.65678">
        <ele>628.40002441406</ele>
        <time>2019-02-20T10:37:10.000Z</time>
      </trkpt>
      <trkpt lat="45.31422" lon="4.65679">
        <ele>628.40002441406</ele>
        <time>2019-02-20T10:37:11.000Z</time>
      </trkpt>
      <trkpt lat="45.31423" lon="4.6568">
        <ele>628.59997558594</ele>
        <time>2019-02-20T10:37:12.000Z</time>
      </trkpt>
      <trkpt lat="45.31425" lon="4.65681">
        <ele>629</ele>
        <time>2019-02-20T10:37:13.000Z</time>
      </trkpt>
      <trkpt lat="45.31427" lon="4.65682">
        <ele>629</ele>
        <time>2019-02-20T10:37:14.000Z</time>
      </trkpt>
      <trkpt lat="45.31428" lon="4.65684">
        <ele>629.20001220703</ele>
        <time>2019-02-20T10:37:15.000Z</time>
      </trkpt>
      <trkpt lat="45.3143" lon="4.65685">
        <ele>629.20001220703</ele>
        <time>2019-02-20T10:37:16.000Z</time>
      </trkpt>
      <trkpt lat="45.31431" lon="4.65686">
        <ele>629.59997558594</ele>
        <time>2019-02-20T10:37:17.000Z</time>
      </trkpt>
      <trkpt lat="45.31432" lon="4.65688">
        <ele>629.59997558594</ele>
        <time>2019-02-20T10:37:18.000Z</time>
      </trkpt>
      <trkpt lat="45.31433" lon="4.65689">
        <ele>629.59997558594</ele>
        <time>2019-02-20T10:37:19.000Z</time>
      </trkpt>
      <trkpt lat="45.31434" lon="4.6569">
        <ele>630.20001220703</ele>
        <time>2019-02-20T10:37:20.000Z</time>
      </trkpt>
      <trkpt lat="45.31435" lon="4.65692">
        <ele>630.40002441406</ele>
        <time>2019-02-20T10:37:21.000Z</time>
      </trkpt>
      <trkpt lat="45.31436" lon="4.65694">
        <ele>630.59997558594</ele>
        <time>2019-02-20T10:37:22.000Z</time>
      </trkpt>
      <trkpt lat="45.31437" lon="4.65695">
        <ele>630.59997558594</ele>
        <time>2019-02-20T10:37:23.000Z</time>
      </trkpt>
      <trkpt lat="45.31439" lon="4.65696">
        <ele>630.79998779297</ele>
        <time>2019-02-20T10:37:24.000Z</time>
      </trkpt>
      <trkpt lat="45.3144" lon="4.65698">
        <ele>631</ele>
        <time>2019-02-20T10:37:25.000Z</time>
      </trkpt>
      <trkpt lat="45.31441" lon="4.65699">
        <ele>631.20001220703</ele>
        <time>2019-02-20T10:37:26.000Z</time>
      </trkpt>
      <trkpt lat="45.31442" lon="4.65701">
        <ele>631.40002441406</ele>
        <time>2019-02-20T10:37:27.000Z</time>
      </trkpt>
      <trkpt lat="45.31443" lon="4.65702">
        <ele>631.40002441406</ele>
        <time>2019-02-20T10:37:28.000Z</time>
      </trkpt>
      <trkpt lat="45.31445" lon="4.65704">
        <ele>631.79998779297</ele>
        <time>2019-02-20T10:37:29.000Z</time>
      </trkpt>
      <trkpt lat="45.31446" lon="4.65705">
        <ele>632</ele>
        <time>2019-02-20T10:37:30.000Z</time>
      </trkpt>
      <trkpt lat="45.31447" lon="4.65706">
        <ele>632.20001220703</ele>
        <time>2019-02-20T10:37:31.000Z</time>
      </trkpt>
      <trkpt lat="45.31449" lon="4.65707">
        <ele>632.40002441406</ele>
        <time>2019-02-20T10:37:32.000Z</time>
      </trkpt>
      <trkpt lat="45.3145" lon="4.65708">
        <ele>632.79998779297</ele>
        <time>2019-02-20T10:37:33.000Z</time>
      </trkpt>
      <trkpt lat="45.31451" lon="4.6571">
        <ele>632.79998779297</ele>
        <time>2019-02-20T10:37:34.000Z</time>
      </trkpt>
      <trkpt lat="45.31453" lon="4.65711">
        <ele>633.20001220703</ele>
        <time>2019-02-20T10:37:35.000Z</time>
      </trkpt>
      <trkpt lat="45.31454" lon="4.65712">
        <ele>633.20001220703</ele>
        <time>2019-02-20T10:37:36.000Z</time>
      </trkpt>
      <trkpt lat="45.31455" lon="4.65713">
        <ele>633.40002441406</ele>
        <time>2019-02-20T10:37:37.000Z</time>
      </trkpt>
      <trkpt lat="45.31456" lon="4.65714">
        <ele>633.59997558594</ele>
        <time>2019-02-20T10:37:38.000Z</time>
      </trkpt>
      <trkpt lat="45.31457" lon="4.65715">
        <ele>634</ele>
        <time>2019-02-20T10:37:39.000Z</time>
      </trkpt>
      <trkpt lat="45.31459" lon="4.65716">
        <ele>634</ele>
        <time>2019-02-20T10:37:40.000Z</time>
      </trkpt>
      <trkpt lat="45.3146" lon="4.65718">
        <ele>634.20001220703</ele>
        <time>2019-02-20T10:37:41.000Z</time>
      </trkpt>
      <trkpt lat="45.31461" lon="4.65718">
        <ele>634.20001220703</ele>
        <time>2019-02-20T10:37:42.000Z</time>
      </trkpt>
      <trkpt lat="45.31462" lon="4.65719">
        <ele>634.40002441406</ele>
        <time>2019-02-20T10:37:43.000Z</time>
      </trkpt>
      <trkpt lat="45.31464" lon="4.6572">
        <ele>634.40002441406</ele>
        <time>2019-02-20T10:37:44.000Z</time>
      </trkpt>
      <trkpt lat="45.31465" lon="4.65722">
        <ele>634.59997558594</ele>
        <time>2019-02-20T10:37:45.000Z</time>
      </trkpt>
      <trkpt lat="45.31466" lon="4.65723">
        <ele>634.79998779297</ele>
        <time>2019-02-20T10:37:46.000Z</time>
      </trkpt>
      <trkpt lat="45.31468" lon="4.65724">
        <ele>635</ele>
        <time>2019-02-20T10:37:47.000Z</time>
      </trkpt>
      <trkpt lat="45.31469" lon="4.65725">
        <ele>635</ele>
        <time>2019-02-20T10:37:48.000Z</time>
      </trkpt>
      <trkpt lat="45.3147" lon="4.65726">
        <ele>635.20001220703</ele>
        <time>2019-02-20T10:37:49.000Z</time>
      </trkpt>
      <trkpt lat="45.31472" lon="4.65727">
        <ele>635.20001220703</ele>
        <time>2019-02-20T10:37:50.000Z</time>
      </trkpt>
      <trkpt lat="45.31473" lon="4.65728">
        <ele>635.40002441406</ele>
        <time>2019-02-20T10:37:51.000Z</time>
      </trkpt>
      <trkpt lat="45.31474" lon="4.65729">
        <ele>635.59997558594</ele>
        <time>2019-02-20T10:37:52.000Z</time>
      </trkpt>
      <trkpt lat="45.31476" lon="4.6573">
        <ele>635.79998779297</ele>
        <time>2019-02-20T10:37:53.000Z</time>
      </trkpt>
      <trkpt lat="45.31477" lon="4.6573">
        <ele>636.20001220703</ele>
        <time>2019-02-20T10:37:54.000Z</time>
      </trkpt>
      <trkpt lat="45.31479" lon="4.65731">
        <ele>636.20001220703</ele>
        <time>2019-02-20T10:37:55.000Z</time>
      </trkpt>
      <trkpt lat="45.31481" lon="4.65732">
        <ele>636.20001220703</ele>
        <time>2019-02-20T10:37:56.000Z</time>
      </trkpt>
      <trkpt lat="45.31482" lon="4.65733">
        <ele>636.40002441406</ele>
        <time>2019-02-20T10:37:57.000Z</time>
      </trkpt>
      <trkpt lat="45.31484" lon="4.65734">
        <ele>636.40002441406</ele>
        <time>2019-02-20T10:37:58.000Z</time>
      </trkpt>
      <trkpt lat="45.31485" lon="4.65735">
        <ele>636.59997558594</ele>
        <time>2019-02-20T10:37:59.000Z</time>
      </trkpt>
      <trkpt lat="45.31487" lon="4.65736">
        <ele>636.79998779297</ele>
        <time>2019-02-20T10:38:00.000Z</time>
      </trkpt>
      <trkpt lat="45.31488" lon="4.65736">
        <ele>636.79998779297</ele>
        <time>2019-02-20T10:38:01.000Z</time>
      </trkpt>
      <trkpt lat="45.3149" lon="4.65737">
        <ele>637</ele>
        <time>2019-02-20T10:38:02.000Z</time>
      </trkpt>
      <trkpt lat="45.31491" lon="4.65737">
        <ele>637.20001220703</ele>
        <time>2019-02-20T10:38:03.000Z</time>
      </trkpt>
      <trkpt lat="45.31493" lon="4.65737">
        <ele>637.40002441406</ele>
        <time>2019-02-20T10:38:04.000Z</time>
      </trkpt>
      <trkpt lat="45.31495" lon="4.65738">
        <ele>637.79998779297</ele>
        <time>2019-02-20T10:38:05.000Z</time>
      </trkpt>
      <trkpt lat="45.31496" lon="4.65739">
        <ele>637.79998779297</ele>
        <time>2019-02-20T10:38:06.000Z</time>
      </trkpt>
      <trkpt lat="45.31498" lon="4.65739">
        <ele>637.79998779297</ele>
        <time>2019-02-20T10:38:07.000Z</time>
      </trkpt>
      <trkpt lat="45.315" lon="4.6574">
        <ele>638</ele>
        <time>2019-02-20T10:38:08.000Z</time>
      </trkpt>
      <trkpt lat="45.31501" lon="4.65741">
        <ele>638</ele>
        <time>2019-02-20T10:38:09.000Z</time>
      </trkpt>
      <trkpt lat="45.31503" lon="4.65741">
        <ele>638.20001220703</ele>
        <time>2019-02-20T10:38:10.000Z</time>
      </trkpt>
      <trkpt lat="45.31504" lon="4.65742">
        <ele>638.40002441406</ele>
        <time>2019-02-20T10:38:11.000Z</time>
      </trkpt>
      <trkpt lat="45.31505" lon="4.65743">
        <ele>638.59997558594</ele>
        <time>2019-02-20T10:38:12.000Z</time>
      </trkpt>
      <trkpt lat="45.31507" lon="4.65744">
        <ele>638.59997558594</ele>
        <time>2019-02-20T10:38:13.000Z</time>
      </trkpt>
      <trkpt lat="45.31508" lon="4.65745">
        <ele>638.59997558594</ele>
        <time>2019-02-20T10:38:14.000Z</time>
      </trkpt>
      <trkpt lat="45.31509" lon="4.65746">
        <ele>638.79998779297</ele>
        <time>2019-02-20T10:38:15.000Z</time>
      </trkpt>
      <trkpt lat="45.3151" lon="4.65747">
        <ele>638.79998779297</ele>
        <time>2019-02-20T10:38:16.000Z</time>
      </trkpt>
      <trkpt lat="45.3151" lon="4.65749">
        <ele>639</ele>
        <time>2019-02-20T10:38:17.000Z</time>
      </trkpt>
      <trkpt lat="45.31511" lon="4.6575">
        <ele>639</ele>
        <time>2019-02-20T10:38:18.000Z</time>
      </trkpt>
      <trkpt lat="45.31511" lon="4.65751">
        <ele>639.20001220703</ele>
        <time>2019-02-20T10:38:19.000Z</time>
      </trkpt>
      <trkpt lat="45.31512" lon="4.65752">
        <ele>639.40002441406</ele>
        <time>2019-02-20T10:38:20.000Z</time>
      </trkpt>
      <trkpt lat="45.31512" lon="4.65754">
        <ele>639.40002441406</ele>
        <time>2019-02-20T10:38:21.000Z</time>
      </trkpt>
      <trkpt lat="45.31512" lon="4.65756">
        <ele>639.59997558594</ele>
        <time>2019-02-20T10:38:22.000Z</time>
      </trkpt>
      <trkpt lat="45.31512" lon="4.65759">
        <ele>639.79998779297</ele>
        <time>2019-02-20T10:38:23.000Z</time>
      </trkpt>
      <trkpt lat="45.31511" lon="4.65762">
        <ele>640</ele>
        <time>2019-02-20T10:38:24.000Z</time>
      </trkpt>
      <trkpt lat="45.3151" lon="4.65764">
        <ele>640</ele>
        <time>2019-02-20T10:38:25.000Z</time>
      </trkpt>
      <trkpt lat="45.31508" lon="4.65767">
        <ele>640.40002441406</ele>
        <time>2019-02-20T10:38:26.000Z</time>
      </trkpt>
      <trkpt lat="45.31507" lon="4.65769">
        <ele>640.40002441406</ele>
        <time>2019-02-20T10:38:27.000Z</time>
      </trkpt>
      <trkpt lat="45.31505" lon="4.6577">
        <ele>640.59997558594</ele>
        <time>2019-02-20T10:38:28.000Z</time>
      </trkpt>
      <trkpt lat="45.31503" lon="4.65771">
        <ele>640.79998779297</ele>
        <time>2019-02-20T10:38:29.000Z</time>
      </trkpt>
      <trkpt lat="45.31502" lon="4.65772">
        <ele>641.20001220703</ele>
        <time>2019-02-20T10:38:30.000Z</time>
      </trkpt>
      <trkpt lat="45.315" lon="4.65773">
        <ele>641.40002441406</ele>
        <time>2019-02-20T10:38:31.000Z</time>
      </trkpt>
      <trkpt lat="45.31498" lon="4.65773">
        <ele>641.40002441406</ele>
        <time>2019-02-20T10:38:32.000Z</time>
      </trkpt>
      <trkpt lat="45.31497" lon="4.65774">
        <ele>641.79998779297</ele>
        <time>2019-02-20T10:38:33.000Z</time>
      </trkpt>
      <trkpt lat="45.31495" lon="4.65775">
        <ele>642</ele>
        <time>2019-02-20T10:38:34.000Z</time>
      </trkpt>
      <trkpt lat="45.31493" lon="4.65775">
        <ele>642.20001220703</ele>
        <time>2019-02-20T10:38:35.000Z</time>
      </trkpt>
      <trkpt lat="45.31492" lon="4.65776">
        <ele>642.59997558594</ele>
        <time>2019-02-20T10:38:36.000Z</time>
      </trkpt>
      <trkpt lat="45.3149" lon="4.65777">
        <ele>642.79998779297</ele>
        <time>2019-02-20T10:38:37.000Z</time>
      </trkpt>
      <trkpt lat="45.31489" lon="4.65777">
        <ele>643.20001220703</ele>
        <time>2019-02-20T10:38:38.000Z</time>
      </trkpt>
      <trkpt lat="45.31487" lon="4.65778">
        <ele>643.20001220703</ele>
        <time>2019-02-20T10:38:39.000Z</time>
      </trkpt>
      <trkpt lat="45.31485" lon="4.65779">
        <ele>643.40002441406</ele>
        <time>2019-02-20T10:38:40.000Z</time>
      </trkpt>
      <trkpt lat="45.31484" lon="4.6578">
        <ele>643.40002441406</ele>
        <time>2019-02-20T10:38:41.000Z</time>
      </trkpt>
      <trkpt lat="45.31482" lon="4.65781">
        <ele>643.40002441406</ele>
        <time>2019-02-20T10:38:42.000Z</time>
      </trkpt>
      <trkpt lat="45.31481" lon="4.65782">
        <ele>643.59997558594</ele>
        <time>2019-02-20T10:38:43.000Z</time>
      </trkpt>
      <trkpt lat="45.31479" lon="4.65783">
        <ele>643.59997558594</ele>
        <time>2019-02-20T10:38:44.000Z</time>
      </trkpt>
      <trkpt lat="45.31478" lon="4.65784">
        <ele>643.79998779297</ele>
        <time>2019-02-20T10:38:45.000Z</time>
      </trkpt>
      <trkpt lat="45.31477" lon="4.65785">
        <ele>644</ele>
        <time>2019-02-20T10:38:46.000Z</time>
      </trkpt>
      <trkpt lat="45.31475" lon="4.65786">
        <ele>644.20001220703</ele>
        <time>2019-02-20T10:38:47.000Z</time>
      </trkpt>
      <trkpt lat="45.31474" lon="4.65787">
        <ele>644.20001220703</ele>
        <time>2019-02-20T10:38:48.000Z</time>
      </trkpt>
      <trkpt lat="45.31473" lon="4.65788">
        <ele>644.20001220703</ele>
        <time>2019-02-20T10:38:49.000Z</time>
      </trkpt>
      <trkpt lat="45.31471" lon="4.65789">
        <ele>644.20001220703</ele>
        <time>2019-02-20T10:38:50.000Z</time>
      </trkpt>
      <trkpt lat="45.3147" lon="4.6579">
        <ele>644.40002441406</ele>
        <time>2019-02-20T10:38:51.000Z</time>
      </trkpt>
      <trkpt lat="45.31468" lon="4.6579">
        <ele>644.40002441406</ele>
        <time>2019-02-20T10:38:52.000Z</time>
      </trkpt>
      <trkpt lat="45.31467" lon="4.65791">
        <ele>644.59997558594</ele>
        <time>2019-02-20T10:38:53.000Z</time>
      </trkpt>
      <trkpt lat="45.31466" lon="4.65792">
        <ele>644.79998779297</ele>
        <time>2019-02-20T10:38:54.000Z</time>
      </trkpt>
      <trkpt lat="45.31464" lon="4.65792">
        <ele>645</ele>
        <time>2019-02-20T10:38:55.000Z</time>
      </trkpt>
      <trkpt lat="45.31463" lon="4.65793">
        <ele>645</ele>
        <time>2019-02-20T10:38:56.000Z</time>
      </trkpt>
      <trkpt lat="45.31461" lon="4.65794">
        <ele>645.20001220703</ele>
        <time>2019-02-20T10:38:57.000Z</time>
      </trkpt>
      <trkpt lat="45.3146" lon="4.65795">
        <ele>645.40002441406</ele>
        <time>2019-02-20T10:38:58.000Z</time>
      </trkpt>
      <trkpt lat="45.31458" lon="4.65795">
        <ele>645.40002441406</ele>
        <time>2019-02-20T10:38:59.000Z</time>
      </trkpt>
      <trkpt lat="45.31457" lon="4.65796">
        <ele>645.40002441406</ele>
        <time>2019-02-20T10:39:00.000Z</time>
      </trkpt>
      <trkpt lat="45.31456" lon="4.65796">
        <ele>645.59997558594</ele>
        <time>2019-02-20T10:39:01.000Z</time>
      </trkpt>
      <trkpt lat="45.31454" lon="4.65796">
        <ele>645.79998779297</ele>
        <time>2019-02-20T10:39:02.000Z</time>
      </trkpt>
      <trkpt lat="45.31453" lon="4.65796">
        <ele>646</ele>
        <time>2019-02-20T10:39:03.000Z</time>
      </trkpt>
      <trkpt lat="45.31451" lon="4.65797">
        <ele>646</ele>
        <time>2019-02-20T10:39:04.000Z</time>
      </trkpt>
      <trkpt lat="45.3145" lon="4.65797">
        <ele>646.40002441406</ele>
        <time>2019-02-20T10:39:05.000Z</time>
      </trkpt>
      <trkpt lat="45.31448" lon="4.65798">
        <ele>646.59997558594</ele>
        <time>2019-02-20T10:39:06.000Z</time>
      </trkpt>
      <trkpt lat="45.31447" lon="4.65799">
        <ele>646.59997558594</ele>
        <time>2019-02-20T10:39:07.000Z</time>
      </trkpt>
      <trkpt lat="45.31446" lon="4.658">
        <ele>647</ele>
        <time>2019-02-20T10:39:08.000Z</time>
      </trkpt>
      <trkpt lat="45.31445" lon="4.658">
        <ele>647</ele>
        <time>2019-02-20T10:39:09.000Z</time>
      </trkpt>
      <trkpt lat="45.31443" lon="4.658">
        <ele>647</ele>
        <time>2019-02-20T10:39:10.000Z</time>
      </trkpt>
      <trkpt lat="45.31442" lon="4.65801">
        <ele>647.20001220703</ele>
        <time>2019-02-20T10:39:11.000Z</time>
      </trkpt>
      <trkpt lat="45.31441" lon="4.65802">
        <ele>647.59997558594</ele>
        <time>2019-02-20T10:39:12.000Z</time>
      </trkpt>
      <trkpt lat="45.3144" lon="4.65802">
        <ele>647.59997558594</ele>
        <time>2019-02-20T10:39:13.000Z</time>
      </trkpt>
      <trkpt lat="45.31439" lon="4.65803">
        <ele>647.79998779297</ele>
        <time>2019-02-20T10:39:14.000Z</time>
      </trkpt>
      <trkpt lat="45.31437" lon="4.65804">
        <ele>648</ele>
        <time>2019-02-20T10:39:15.000Z</time>
      </trkpt>
      <trkpt lat="45.31436" lon="4.65805">
        <ele>648.20001220703</ele>
        <time>2019-02-20T10:39:16.000Z</time>
      </trkpt>
      <trkpt lat="45.31434" lon="4.65806">
        <ele>648.40002441406</ele>
        <time>2019-02-20T10:39:17.000Z</time>
      </trkpt>
      <trkpt lat="45.31433" lon="4.65806">
        <ele>648.59997558594</ele>
        <time>2019-02-20T10:39:18.000Z</time>
      </trkpt>
      <trkpt lat="45.31431" lon="4.65807">
        <ele>648.59997558594</ele>
        <time>2019-02-20T10:39:19.000Z</time>
      </trkpt>
      <trkpt lat="45.3143" lon="4.65808">
        <ele>648.79998779297</ele>
        <time>2019-02-20T10:39:20.000Z</time>
      </trkpt>
      <trkpt lat="45.31429" lon="4.65809">
        <ele>649</ele>
        <time>2019-02-20T10:39:21.000Z</time>
      </trkpt>
      <trkpt lat="45.31427" lon="4.65809">
        <ele>649.20001220703</ele>
        <time>2019-02-20T10:39:22.000Z</time>
      </trkpt>
      <trkpt lat="45.31426" lon="4.6581">
        <ele>649.40002441406</ele>
        <time>2019-02-20T10:39:23.000Z</time>
      </trkpt>
      <trkpt lat="45.31425" lon="4.65811">
        <ele>649.59997558594</ele>
        <time>2019-02-20T10:39:24.000Z</time>
      </trkpt>
      <trkpt lat="45.31423" lon="4.65812">
        <ele>649.79998779297</ele>
        <time>2019-02-20T10:39:25.000Z</time>
      </trkpt>
      <trkpt lat="45.31422" lon="4.65813">
        <ele>649.79998779297</ele>
        <time>2019-02-20T10:39:26.000Z</time>
      </trkpt>
      <trkpt lat="45.31421" lon="4.65814">
        <ele>650</ele>
        <time>2019-02-20T10:39:27.000Z</time>
      </trkpt>
      <trkpt lat="45.31419" lon="4.65815">
        <ele>650</ele>
        <time>2019-02-20T10:39:28.000Z</time>
      </trkpt>
      <trkpt lat="45.31418" lon="4.65816">
        <ele>650.40002441406</ele>
        <time>2019-02-20T10:39:29.000Z</time>
      </trkpt>
      <trkpt lat="45.31417" lon="4.65817">
        <ele>650.40002441406</ele>
        <time>2019-02-20T10:39:30.000Z</time>
      </trkpt>
      <trkpt lat="45.31416" lon="4.65818">
        <ele>650.59997558594</ele>
        <time>2019-02-20T10:39:31.000Z</time>
      </trkpt>
      <trkpt lat="45.31414" lon="4.65819">
        <ele>650.59997558594</ele>
        <time>2019-02-20T10:39:32.000Z</time>
      </trkpt>
      <trkpt lat="45.31413" lon="4.65819">
        <ele>651</ele>
        <time>2019-02-20T10:39:33.000Z</time>
      </trkpt>
      <trkpt lat="45.31411" lon="4.6582">
        <ele>651.20001220703</ele>
        <time>2019-02-20T10:39:34.000Z</time>
      </trkpt>
      <trkpt lat="45.3141" lon="4.65821">
        <ele>651.20001220703</ele>
        <time>2019-02-20T10:39:35.000Z</time>
      </trkpt>
      <trkpt lat="45.31409" lon="4.65823">
        <ele>651.40002441406</ele>
        <time>2019-02-20T10:39:36.000Z</time>
      </trkpt>
      <trkpt lat="45.31408" lon="4.65824">
        <ele>651.59997558594</ele>
        <time>2019-02-20T10:39:37.000Z</time>
      </trkpt>
      <trkpt lat="45.31406" lon="4.65825">
        <ele>651.59997558594</ele>
        <time>2019-02-20T10:39:38.000Z</time>
      </trkpt>
      <trkpt lat="45.31405" lon="4.65825">
        <ele>651.79998779297</ele>
        <time>2019-02-20T10:39:39.000Z</time>
      </trkpt>
      <trkpt lat="45.31404" lon="4.65826">
        <ele>651.79998779297</ele>
        <time>2019-02-20T10:39:40.000Z</time>
      </trkpt>
      <trkpt lat="45.31403" lon="4.65827">
        <ele>651.79998779297</ele>
        <time>2019-02-20T10:39:41.000Z</time>
      </trkpt>
      <trkpt lat="45.31401" lon="4.65828">
        <ele>652</ele>
        <time>2019-02-20T10:39:42.000Z</time>
      </trkpt>
      <trkpt lat="45.314" lon="4.65829">
        <ele>652.20001220703</ele>
        <time>2019-02-20T10:39:43.000Z</time>
      </trkpt>
      <trkpt lat="45.31399" lon="4.6583">
        <ele>652.59997558594</ele>
        <time>2019-02-20T10:39:44.000Z</time>
      </trkpt>
      <trkpt lat="45.31398" lon="4.65831">
        <ele>652.59997558594</ele>
        <time>2019-02-20T10:39:45.000Z</time>
      </trkpt>
      <trkpt lat="45.31397" lon="4.65832">
        <ele>652.79998779297</ele>
        <time>2019-02-20T10:39:46.000Z</time>
      </trkpt>
      <trkpt lat="45.31396" lon="4.65833">
        <ele>653.20001220703</ele>
        <time>2019-02-20T10:39:47.000Z</time>
      </trkpt>
      <trkpt lat="45.31395" lon="4.65834">
        <ele>653.40002441406</ele>
        <time>2019-02-20T10:39:48.000Z</time>
      </trkpt>
      <trkpt lat="45.31394" lon="4.65835">
        <ele>653.79998779297</ele>
        <time>2019-02-20T10:39:49.000Z</time>
      </trkpt>
      <trkpt lat="45.31393" lon="4.65836">
        <ele>654</ele>
        <time>2019-02-20T10:39:50.000Z</time>
      </trkpt>
      <trkpt lat="45.31392" lon="4.65837">
        <ele>654.40002441406</ele>
        <time>2019-02-20T10:39:51.000Z</time>
      </trkpt>
      <trkpt lat="45.31391" lon="4.65839">
        <ele>654.40002441406</ele>
        <time>2019-02-20T10:39:52.000Z</time>
      </trkpt>
      <trkpt lat="45.31389" lon="4.6584">
        <ele>654.59997558594</ele>
        <time>2019-02-20T10:39:53.000Z</time>
      </trkpt>
      <trkpt lat="45.31389" lon="4.65842">
        <ele>654.79998779297</ele>
        <time>2019-02-20T10:39:54.000Z</time>
      </trkpt>
      <trkpt lat="45.31388" lon="4.65843">
        <ele>655</ele>
        <time>2019-02-20T10:39:55.000Z</time>
      </trkpt>
      <trkpt lat="45.31387" lon="4.65844">
        <ele>655.20001220703</ele>
        <time>2019-02-20T10:39:56.000Z</time>
      </trkpt>
      <trkpt lat="45.31387" lon="4.65846">
        <ele>655.40002441406</ele>
        <time>2019-02-20T10:39:57.000Z</time>
      </trkpt>
      <trkpt lat="45.31386" lon="4.65848">
        <ele>655.40002441406</ele>
        <time>2019-02-20T10:39:58.000Z</time>
      </trkpt>
      <trkpt lat="45.31385" lon="4.65849">
        <ele>655.79998779297</ele>
        <time>2019-02-20T10:39:59.000Z</time>
      </trkpt>
      <trkpt lat="45.31385" lon="4.65851">
        <ele>655.79998779297</ele>
        <time>2019-02-20T10:40:00.000Z</time>
      </trkpt>
      <trkpt lat="45.31384" lon="4.65853">
        <ele>656</ele>
        <time>2019-02-20T10:40:01.000Z</time>
      </trkpt>
      <trkpt lat="45.31384" lon="4.65854">
        <ele>656.20001220703</ele>
        <time>2019-02-20T10:40:02.000Z</time>
      </trkpt>
      <trkpt lat="45.31383" lon="4.65856">
        <ele>656.20001220703</ele>
        <time>2019-02-20T10:40:03.000Z</time>
      </trkpt>
      <trkpt lat="45.31383" lon="4.65859">
        <ele>656.40002441406</ele>
        <time>2019-02-20T10:40:04.000Z</time>
      </trkpt>
      <trkpt lat="45.31383" lon="4.65861">
        <ele>656.79998779297</ele>
        <time>2019-02-20T10:40:05.000Z</time>
      </trkpt>
      <trkpt lat="45.31383" lon="4.65863">
        <ele>657</ele>
        <time>2019-02-20T10:40:06.000Z</time>
      </trkpt>
      <trkpt lat="45.31383" lon="4.65865">
        <ele>657.20001220703</ele>
        <time>2019-02-20T10:40:07.000Z</time>
      </trkpt>
      <trkpt lat="45.31383" lon="4.65867">
        <ele>657</ele>
        <time>2019-02-20T10:40:08.000Z</time>
      </trkpt>
      <trkpt lat="45.31383" lon="4.65869">
        <ele>657.40002441406</ele>
        <time>2019-02-20T10:40:09.000Z</time>
      </trkpt>
      <trkpt lat="45.31383" lon="4.65871">
        <ele>657.59997558594</ele>
        <time>2019-02-20T10:40:10.000Z</time>
      </trkpt>
      <trkpt lat="45.31384" lon="4.65873">
        <ele>657.59997558594</ele>
        <time>2019-02-20T10:40:11.000Z</time>
      </trkpt>
      <trkpt lat="45.31384" lon="4.65875">
        <ele>657.59997558594</ele>
        <time>2019-02-20T10:40:12.000Z</time>
      </trkpt>
      <trkpt lat="45.31384" lon="4.65877">
        <ele>657.79998779297</ele>
        <time>2019-02-20T10:40:13.000Z</time>
      </trkpt>
      <trkpt lat="45.31385" lon="4.65879">
        <ele>658.20001220703</ele>
        <time>2019-02-20T10:40:14.000Z</time>
      </trkpt>
      <trkpt lat="45.31385" lon="4.65881">
        <ele>658.20001220703</ele>
        <time>2019-02-20T10:40:15.000Z</time>
      </trkpt>
      <trkpt lat="45.31386" lon="4.65883">
        <ele>658.59997558594</ele>
        <time>2019-02-20T10:40:16.000Z</time>
      </trkpt>
      <trkpt lat="45.31386" lon="4.65885">
        <ele>658.79998779297</ele>
        <time>2019-02-20T10:40:17.000Z</time>
      </trkpt>
      <trkpt lat="45.31386" lon="4.65886">
        <ele>659</ele>
        <time>2019-02-20T10:40:18.000Z</time>
      </trkpt>
      <trkpt lat="45.31387" lon="4.65888">
        <ele>659</ele>
        <time>2019-02-20T10:40:19.000Z</time>
      </trkpt>
      <trkpt lat="45.31387" lon="4.6589">
        <ele>659.20001220703</ele>
        <time>2019-02-20T10:40:20.000Z</time>
      </trkpt>
      <trkpt lat="45.31387" lon="4.65892">
        <ele>659.20001220703</ele>
        <time>2019-02-20T10:40:21.000Z</time>
      </trkpt>
      <trkpt lat="45.31388" lon="4.65894">
        <ele>659.40002441406</ele>
        <time>2019-02-20T10:40:22.000Z</time>
      </trkpt>
      <trkpt lat="45.31388" lon="4.65896">
        <ele>659.20001220703</ele>
        <time>2019-02-20T10:40:23.000Z</time>
      </trkpt>
      <trkpt lat="45.31388" lon="4.65897">
        <ele>659.59997558594</ele>
        <time>2019-02-20T10:40:24.000Z</time>
      </trkpt>
      <trkpt lat="45.31388" lon="4.65899">
        <ele>659.59997558594</ele>
        <time>2019-02-20T10:40:25.000Z</time>
      </trkpt>
      <trkpt lat="45.31389" lon="4.65901">
        <ele>659.59997558594</ele>
        <time>2019-02-20T10:40:26.000Z</time>
      </trkpt>
      <trkpt lat="45.31389" lon="4.65903">
        <ele>659.79998779297</ele>
        <time>2019-02-20T10:40:27.000Z</time>
      </trkpt>
      <trkpt lat="45.31389" lon="4.65906">
        <ele>659.79998779297</ele>
        <time>2019-02-20T10:40:28.000Z</time>
      </trkpt>
      <trkpt lat="45.31389" lon="4.65908">
        <ele>660</ele>
        <time>2019-02-20T10:40:29.000Z</time>
      </trkpt>
      <trkpt lat="45.31389" lon="4.65911">
        <ele>660</ele>
        <time>2019-02-20T10:40:30.000Z</time>
      </trkpt>
      <trkpt lat="45.31389" lon="4.65913">
        <ele>660.20001220703</ele>
        <time>2019-02-20T10:40:31.000Z</time>
      </trkpt>
      <trkpt lat="45.31389" lon="4.65915">
        <ele>660.59997558594</ele>
        <time>2019-02-20T10:40:32.000Z</time>
      </trkpt>
      <trkpt lat="45.31389" lon="4.65918">
        <ele>660.59997558594</ele>
        <time>2019-02-20T10:40:33.000Z</time>
      </trkpt>
      <trkpt lat="45.31389" lon="4.6592">
        <ele>660.79998779297</ele>
        <time>2019-02-20T10:40:34.000Z</time>
      </trkpt>
      <trkpt lat="45.31389" lon="4.65922">
        <ele>661</ele>
        <time>2019-02-20T10:40:35.000Z</time>
      </trkpt>
      <trkpt lat="45.31389" lon="4.65924">
        <ele>661.20001220703</ele>
        <time>2019-02-20T10:40:36.000Z</time>
      </trkpt>
      <trkpt lat="45.31389" lon="4.65926">
        <ele>661.20001220703</ele>
        <time>2019-02-20T10:40:37.000Z</time>
      </trkpt>
      <trkpt lat="45.31389" lon="4.65929">
        <ele>661.20001220703</ele>
        <time>2019-02-20T10:40:38.000Z</time>
      </trkpt>
      <trkpt lat="45.31389" lon="4.65931">
        <ele>661.40002441406</ele>
        <time>2019-02-20T10:40:39.000Z</time>
      </trkpt>
      <trkpt lat="45.3139" lon="4.65933">
        <ele>661.40002441406</ele>
        <time>2019-02-20T10:40:40.000Z</time>
      </trkpt>
      <trkpt lat="45.3139" lon="4.65936">
        <ele>661.59997558594</ele>
        <time>2019-02-20T10:40:41.000Z</time>
      </trkpt>
      <trkpt lat="45.3139" lon="4.65938">
        <ele>661.79998779297</ele>
        <time>2019-02-20T10:40:42.000Z</time>
      </trkpt>
      <trkpt lat="45.3139" lon="4.6594">
        <ele>661.79998779297</ele>
        <time>2019-02-20T10:40:43.000Z</time>
      </trkpt>
      <trkpt lat="45.3139" lon="4.65943">
        <ele>662</ele>
        <time>2019-02-20T10:40:44.000Z</time>
      </trkpt>
      <trkpt lat="45.3139" lon="4.65945">
        <ele>661.79998779297</ele>
        <time>2019-02-20T10:40:45.000Z</time>
      </trkpt>
      <trkpt lat="45.3139" lon="4.65948">
        <ele>662</ele>
        <time>2019-02-20T10:40:46.000Z</time>
      </trkpt>
      <trkpt lat="45.3139" lon="4.6595">
        <ele>662</ele>
        <time>2019-02-20T10:40:47.000Z</time>
      </trkpt>
      <trkpt lat="45.31389" lon="4.65953">
        <ele>662</ele>
        <time>2019-02-20T10:40:48.000Z</time>
      </trkpt>
      <trkpt lat="45.3139" lon="4.65955">
        <ele>662.20001220703</ele>
        <time>2019-02-20T10:40:49.000Z</time>
      </trkpt>
      <trkpt lat="45.3139" lon="4.65958">
        <ele>662.40002441406</ele>
        <time>2019-02-20T10:40:50.000Z</time>
      </trkpt>
      <trkpt lat="45.31389" lon="4.65961">
        <ele>662.79998779297</ele>
        <time>2019-02-20T10:40:51.000Z</time>
      </trkpt>
      <trkpt lat="45.31389" lon="4.65964">
        <ele>663</ele>
        <time>2019-02-20T10:40:52.000Z</time>
      </trkpt>
      <trkpt lat="45.31389" lon="4.65966">
        <ele>663.20001220703</ele>
        <time>2019-02-20T10:40:53.000Z</time>
      </trkpt>
      <trkpt lat="45.31389" lon="4.65969">
        <ele>663.40002441406</ele>
        <time>2019-02-20T10:40:54.000Z</time>
      </trkpt>
      <trkpt lat="45.31389" lon="4.65972">
        <ele>663.59997558594</ele>
        <time>2019-02-20T10:40:55.000Z</time>
      </trkpt>
      <trkpt lat="45.31389" lon="4.65974">
        <ele>663.59997558594</ele>
        <time>2019-02-20T10:40:56.000Z</time>
      </trkpt>
      <trkpt lat="45.31389" lon="4.65977">
        <ele>663.79998779297</ele>
        <time>2019-02-20T10:40:57.000Z</time>
      </trkpt>
      <trkpt lat="45.3139" lon="4.65979">
        <ele>663.79998779297</ele>
        <time>2019-02-20T10:40:58.000Z</time>
      </trkpt>
      <trkpt lat="45.3139" lon="4.65981">
        <ele>663.79998779297</ele>
        <time>2019-02-20T10:40:59.000Z</time>
      </trkpt>
      <trkpt lat="45.3139" lon="4.65984">
        <ele>664.20001220703</ele>
        <time>2019-02-20T10:41:00.000Z</time>
      </trkpt>
      <trkpt lat="45.3139" lon="4.65986">
        <ele>664.40002441406</ele>
        <time>2019-02-20T10:41:01.000Z</time>
      </trkpt>
      <trkpt lat="45.31391" lon="4.65989">
        <ele>664.20001220703</ele>
        <time>2019-02-20T10:41:02.000Z</time>
      </trkpt>
      <trkpt lat="45.31391" lon="4.65991">
        <ele>664.40002441406</ele>
        <time>2019-02-20T10:41:03.000Z</time>
      </trkpt>
      <trkpt lat="45.31391" lon="4.65993">
        <ele>664.40002441406</ele>
        <time>2019-02-20T10:41:04.000Z</time>
      </trkpt>
      <trkpt lat="45.31392" lon="4.65996">
        <ele>664.59997558594</ele>
        <time>2019-02-20T10:41:05.000Z</time>
      </trkpt>
      <trkpt lat="45.31393" lon="4.65998">
        <ele>664.59997558594</ele>
        <time>2019-02-20T10:41:06.000Z</time>
      </trkpt>
      <trkpt lat="45.31393" lon="4.66">
        <ele>664.79998779297</ele>
        <time>2019-02-20T10:41:07.000Z</time>
      </trkpt>
      <trkpt lat="45.31394" lon="4.66003">
        <ele>664.59997558594</ele>
        <time>2019-02-20T10:41:08.000Z</time>
      </trkpt>
      <trkpt lat="45.31394" lon="4.66005">
        <ele>664.79998779297</ele>
        <time>2019-02-20T10:41:09.000Z</time>
      </trkpt>
      <trkpt lat="45.31395" lon="4.66007">
        <ele>665</ele>
        <time>2019-02-20T10:41:10.000Z</time>
      </trkpt>
      <trkpt lat="45.31396" lon="4.6601">
        <ele>664.79998779297</ele>
        <time>2019-02-20T10:41:11.000Z</time>
      </trkpt>
      <trkpt lat="45.31397" lon="4.66012">
        <ele>665</ele>
        <time>2019-02-20T10:41:12.000Z</time>
      </trkpt>
      <trkpt lat="45.31398" lon="4.66015">
        <ele>665</ele>
        <time>2019-02-20T10:41:13.000Z</time>
      </trkpt>
      <trkpt lat="45.31398" lon="4.66017">
        <ele>665.40002441406</ele>
        <time>2019-02-20T10:41:14.000Z</time>
      </trkpt>
      <trkpt lat="45.31399" lon="4.6602">
        <ele>665.40002441406</ele>
        <time>2019-02-20T10:41:15.000Z</time>
      </trkpt>
      <trkpt lat="45.314" lon="4.66022">
        <ele>665.59997558594</ele>
        <time>2019-02-20T10:41:16.000Z</time>
      </trkpt>
      <trkpt lat="45.31401" lon="4.66025">
        <ele>665.59997558594</ele>
        <time>2019-02-20T10:41:17.000Z</time>
      </trkpt>
      <trkpt lat="45.31401" lon="4.66027">
        <ele>665.79998779297</ele>
        <time>2019-02-20T10:41:18.000Z</time>
      </trkpt>
      <trkpt lat="45.31402" lon="4.66029">
        <ele>665.79998779297</ele>
        <time>2019-02-20T10:41:19.000Z</time>
      </trkpt>
      <trkpt lat="45.31403" lon="4.66031">
        <ele>666</ele>
        <time>2019-02-20T10:41:20.000Z</time>
      </trkpt>
      <trkpt lat="45.31404" lon="4.66034">
        <ele>666.20001220703</ele>
        <time>2019-02-20T10:41:21.000Z</time>
      </trkpt>
      <trkpt lat="45.31405" lon="4.66036">
        <ele>666</ele>
        <time>2019-02-20T10:41:22.000Z</time>
      </trkpt>
      <trkpt lat="45.31406" lon="4.66039">
        <ele>666.20001220703</ele>
        <time>2019-02-20T10:41:23.000Z</time>
      </trkpt>
      <trkpt lat="45.31407" lon="4.66041">
        <ele>666.20001220703</ele>
        <time>2019-02-20T10:41:24.000Z</time>
      </trkpt>
      <trkpt lat="45.31408" lon="4.66044">
        <ele>666.40002441406</ele>
        <time>2019-02-20T10:41:25.000Z</time>
      </trkpt>
      <trkpt lat="45.31409" lon="4.66046">
        <ele>666.40002441406</ele>
        <time>2019-02-20T10:41:26.000Z</time>
      </trkpt>
      <trkpt lat="45.3141" lon="4.66049">
        <ele>666.59997558594</ele>
        <time>2019-02-20T10:41:27.000Z</time>
      </trkpt>
      <trkpt lat="45.31411" lon="4.66052">
        <ele>666.59997558594</ele>
        <time>2019-02-20T10:41:28.000Z</time>
      </trkpt>
      <trkpt lat="45.31412" lon="4.66054">
        <ele>666.79998779297</ele>
        <time>2019-02-20T10:41:29.000Z</time>
      </trkpt>
      <trkpt lat="45.31413" lon="4.66057">
        <ele>666.79998779297</ele>
        <time>2019-02-20T10:41:30.000Z</time>
      </trkpt>
      <trkpt lat="45.31413" lon="4.6606">
        <ele>667</ele>
        <time>2019-02-20T10:41:31.000Z</time>
      </trkpt>
      <trkpt lat="45.31414" lon="4.66063">
        <ele>667</ele>
        <time>2019-02-20T10:41:32.000Z</time>
      </trkpt>
      <trkpt lat="45.31415" lon="4.66066">
        <ele>667</ele>
        <time>2019-02-20T10:41:33.000Z</time>
      </trkpt>
      <trkpt lat="45.31416" lon="4.66069">
        <ele>667</ele>
        <time>2019-02-20T10:41:34.000Z</time>
      </trkpt>
      <trkpt lat="45.31417" lon="4.66072">
        <ele>667.20001220703</ele>
        <time>2019-02-20T10:41:35.000Z</time>
      </trkpt>
      <trkpt lat="45.31417" lon="4.66074">
        <ele>667.20001220703</ele>
        <time>2019-02-20T10:41:36.000Z</time>
      </trkpt>
      <trkpt lat="45.31418" lon="4.66077">
        <ele>667.40002441406</ele>
        <time>2019-02-20T10:41:37.000Z</time>
      </trkpt>
      <trkpt lat="45.31418" lon="4.66081">
        <ele>667.40002441406</ele>
        <time>2019-02-20T10:41:38.000Z</time>
      </trkpt>
      <trkpt lat="45.31419" lon="4.66084">
        <ele>667.40002441406</ele>
        <time>2019-02-20T10:41:39.000Z</time>
      </trkpt>
      <trkpt lat="45.31419" lon="4.66087">
        <ele>667.40002441406</ele>
        <time>2019-02-20T10:41:40.000Z</time>
      </trkpt>
      <trkpt lat="45.3142" lon="4.6609">
        <ele>667.40002441406</ele>
        <time>2019-02-20T10:41:41.000Z</time>
      </trkpt>
      <trkpt lat="45.3142" lon="4.66093">
        <ele>667.59997558594</ele>
        <time>2019-02-20T10:41:42.000Z</time>
      </trkpt>
      <trkpt lat="45.3142" lon="4.66097">
        <ele>667.59997558594</ele>
        <time>2019-02-20T10:41:43.000Z</time>
      </trkpt>
      <trkpt lat="45.31421" lon="4.661">
        <ele>667.59997558594</ele>
        <time>2019-02-20T10:41:44.000Z</time>
      </trkpt>
      <trkpt lat="45.31421" lon="4.66103">
        <ele>667.59997558594</ele>
        <time>2019-02-20T10:41:45.000Z</time>
      </trkpt>
      <trkpt lat="45.31421" lon="4.66106">
        <ele>667.79998779297</ele>
        <time>2019-02-20T10:41:46.000Z</time>
      </trkpt>
      <trkpt lat="45.31421" lon="4.66109">
        <ele>667.79998779297</ele>
        <time>2019-02-20T10:41:47.000Z</time>
      </trkpt>
      <trkpt lat="45.31421" lon="4.66112">
        <ele>667.79998779297</ele>
        <time>2019-02-20T10:41:48.000Z</time>
      </trkpt>
      <trkpt lat="45.31421" lon="4.66115">
        <ele>667.79998779297</ele>
        <time>2019-02-20T10:41:49.000Z</time>
      </trkpt>
      <trkpt lat="45.31421" lon="4.66118">
        <ele>667.79998779297</ele>
        <time>2019-02-20T10:41:50.000Z</time>
      </trkpt>
      <trkpt lat="45.31421" lon="4.66121">
        <ele>667.79998779297</ele>
        <time>2019-02-20T10:41:51.000Z</time>
      </trkpt>
      <trkpt lat="45.31421" lon="4.66123">
        <ele>667.79998779297</ele>
        <time>2019-02-20T10:41:52.000Z</time>
      </trkpt>
      <trkpt lat="45.31421" lon="4.66126">
        <ele>668</ele>
        <time>2019-02-20T10:41:53.000Z</time>
      </trkpt>
      <trkpt lat="45.31421" lon="4.66129">
        <ele>668</ele>
        <time>2019-02-20T10:41:54.000Z</time>
      </trkpt>
      <trkpt lat="45.31421" lon="4.66132">
        <ele>668</ele>
        <time>2019-02-20T10:41:55.000Z</time>
      </trkpt>
      <trkpt lat="45.3142" lon="4.66135">
        <ele>668</ele>
        <time>2019-02-20T10:41:56.000Z</time>
      </trkpt>
      <trkpt lat="45.3142" lon="4.66137">
        <ele>668.20001220703</ele>
        <time>2019-02-20T10:41:57.000Z</time>
      </trkpt>
      <trkpt lat="45.3142" lon="4.6614">
        <ele>668.20001220703</ele>
        <time>2019-02-20T10:41:58.000Z</time>
      </trkpt>
      <trkpt lat="45.31419" lon="4.66143">
        <ele>668.20001220703</ele>
        <time>2019-02-20T10:41:59.000Z</time>
      </trkpt>
      <trkpt lat="45.31419" lon="4.66145">
        <ele>668.40002441406</ele>
        <time>2019-02-20T10:42:00.000Z</time>
      </trkpt>
      <trkpt lat="45.31418" lon="4.66148">
        <ele>668.40002441406</ele>
        <time>2019-02-20T10:42:01.000Z</time>
      </trkpt>
      <trkpt lat="45.31417" lon="4.6615">
        <ele>668.40002441406</ele>
        <time>2019-02-20T10:42:02.000Z</time>
      </trkpt>
      <trkpt lat="45.31417" lon="4.66153">
        <ele>668.59997558594</ele>
        <time>2019-02-20T10:42:03.000Z</time>
      </trkpt>
      <trkpt lat="45.31416" lon="4.66155">
        <ele>668.59997558594</ele>
        <time>2019-02-20T10:42:04.000Z</time>
      </trkpt>
      <trkpt lat="45.31416" lon="4.66157">
        <ele>668.59997558594</ele>
        <time>2019-02-20T10:42:05.000Z</time>
      </trkpt>
      <trkpt lat="45.31415" lon="4.66159">
        <ele>668.79998779297</ele>
        <time>2019-02-20T10:42:06.000Z</time>
      </trkpt>
      <trkpt lat="45.31414" lon="4.66162">
        <ele>669</ele>
        <time>2019-02-20T10:42:07.000Z</time>
      </trkpt>
      <trkpt lat="45.31414" lon="4.66164">
        <ele>669</ele>
        <time>2019-02-20T10:42:08.000Z</time>
      </trkpt>
      <trkpt lat="45.31413" lon="4.66166">
        <ele>669.20001220703</ele>
        <time>2019-02-20T10:42:09.000Z</time>
      </trkpt>
      <trkpt lat="45.31412" lon="4.66169">
        <ele>669.40002441406</ele>
        <time>2019-02-20T10:42:10.000Z</time>
      </trkpt>
      <trkpt lat="45.31412" lon="4.66171">
        <ele>669.40002441406</ele>
        <time>2019-02-20T10:42:11.000Z</time>
      </trkpt>
      <trkpt lat="45.31411" lon="4.66174">
        <ele>669.59997558594</ele>
        <time>2019-02-20T10:42:12.000Z</time>
      </trkpt>
      <trkpt lat="45.3141" lon="4.66176">
        <ele>669.79998779297</ele>
        <time>2019-02-20T10:42:13.000Z</time>
      </trkpt>
      <trkpt lat="45.31409" lon="4.66179">
        <ele>670</ele>
        <time>2019-02-20T10:42:14.000Z</time>
      </trkpt>
      <trkpt lat="45.31408" lon="4.66182">
        <ele>670</ele>
        <time>2019-02-20T10:42:15.000Z</time>
      </trkpt>
      <trkpt lat="45.31408" lon="4.66184">
        <ele>670.20001220703</ele>
        <time>2019-02-20T10:42:16.000Z</time>
      </trkpt>
      <trkpt lat="45.31407" lon="4.66186">
        <ele>670.40002441406</ele>
        <time>2019-02-20T10:42:17.000Z</time>
      </trkpt>
      <trkpt lat="45.31406" lon="4.66189">
        <ele>670.40002441406</ele>
        <time>2019-02-20T10:42:18.000Z</time>
      </trkpt>
      <trkpt lat="45.31405" lon="4.66191">
        <ele>670.59997558594</ele>
        <time>2019-02-20T10:42:19.000Z</time>
      </trkpt>
      <trkpt lat="45.31405" lon="4.66193">
        <ele>670.59997558594</ele>
        <time>2019-02-20T10:42:20.000Z</time>
      </trkpt>
      <trkpt lat="45.31404" lon="4.66195">
        <ele>670.79998779297</ele>
        <time>2019-02-20T10:42:21.000Z</time>
      </trkpt>
      <trkpt lat="45.31403" lon="4.66197">
        <ele>670.79998779297</ele>
        <time>2019-02-20T10:42:22.000Z</time>
      </trkpt>
      <trkpt lat="45.31402" lon="4.66199">
        <ele>671</ele>
        <time>2019-02-20T10:42:23.000Z</time>
      </trkpt>
      <trkpt lat="45.31401" lon="4.66201">
        <ele>671.20001220703</ele>
        <time>2019-02-20T10:42:24.000Z</time>
      </trkpt>
      <trkpt lat="45.314" lon="4.66203">
        <ele>671</ele>
        <time>2019-02-20T10:42:25.000Z</time>
      </trkpt>
      <trkpt lat="45.31399" lon="4.66205">
        <ele>671.20001220703</ele>
        <time>2019-02-20T10:42:26.000Z</time>
      </trkpt>
      <trkpt lat="45.31398" lon="4.66207">
        <ele>671.40002441406</ele>
        <time>2019-02-20T10:42:27.000Z</time>
      </trkpt>
      <trkpt lat="45.31397" lon="4.66208">
        <ele>671.59997558594</ele>
        <time>2019-02-20T10:42:28.000Z</time>
      </trkpt>
      <trkpt lat="45.31396" lon="4.6621">
        <ele>671.40002441406</ele>
        <time>2019-02-20T10:42:29.000Z</time>
      </trkpt>
      <trkpt lat="45.31395" lon="4.66212">
        <ele>671.59997558594</ele>
        <time>2019-02-20T10:42:30.000Z</time>
      </trkpt>
      <trkpt lat="45.31393" lon="4.66213">
        <ele>671.79998779297</ele>
        <time>2019-02-20T10:42:31.000Z</time>
      </trkpt>
      <trkpt lat="45.31392" lon="4.66215">
        <ele>672</ele>
        <time>2019-02-20T10:42:32.000Z</time>
      </trkpt>
      <trkpt lat="45.31391" lon="4.66216">
        <ele>672.40002441406</ele>
        <time>2019-02-20T10:42:33.000Z</time>
      </trkpt>
      <trkpt lat="45.31389" lon="4.66218">
        <ele>672.40002441406</ele>
        <time>2019-02-20T10:42:34.000Z</time>
      </trkpt>
      <trkpt lat="45.31387" lon="4.66219">
        <ele>672.40002441406</ele>
        <time>2019-02-20T10:42:35.000Z</time>
      </trkpt>
      <trkpt lat="45.31386" lon="4.66221">
        <ele>672.59997558594</ele>
        <time>2019-02-20T10:42:36.000Z</time>
      </trkpt>
      <trkpt lat="45.31384" lon="4.66222">
        <ele>672.79998779297</ele>
        <time>2019-02-20T10:42:37.000Z</time>
      </trkpt>
      <trkpt lat="45.31383" lon="4.66223">
        <ele>673</ele>
        <time>2019-02-20T10:42:38.000Z</time>
      </trkpt>
      <trkpt lat="45.31381" lon="4.66224">
        <ele>673</ele>
        <time>2019-02-20T10:42:39.000Z</time>
      </trkpt>
      <trkpt lat="45.3138" lon="4.66225">
        <ele>673</ele>
        <time>2019-02-20T10:42:40.000Z</time>
      </trkpt>
      <trkpt lat="45.31378" lon="4.66225">
        <ele>673.40002441406</ele>
        <time>2019-02-20T10:42:41.000Z</time>
      </trkpt>
      <trkpt lat="45.31376" lon="4.66226">
        <ele>673.40002441406</ele>
        <time>2019-02-20T10:42:42.000Z</time>
      </trkpt>
      <trkpt lat="45.31374" lon="4.66227">
        <ele>673.40002441406</ele>
        <time>2019-02-20T10:42:43.000Z</time>
      </trkpt>
      <trkpt lat="45.31373" lon="4.66228">
        <ele>673.40002441406</ele>
        <time>2019-02-20T10:42:44.000Z</time>
      </trkpt>
      <trkpt lat="45.31371" lon="4.66228">
        <ele>673.59997558594</ele>
        <time>2019-02-20T10:42:45.000Z</time>
      </trkpt>
      <trkpt lat="45.31369" lon="4.66229">
        <ele>673.59997558594</ele>
        <time>2019-02-20T10:42:46.000Z</time>
      </trkpt>
      <trkpt lat="45.31367" lon="4.66229">
        <ele>673.79998779297</ele>
        <time>2019-02-20T10:42:47.000Z</time>
      </trkpt>
      <trkpt lat="45.31366" lon="4.66229">
        <ele>673.79998779297</ele>
        <time>2019-02-20T10:42:48.000Z</time>
      </trkpt>
      <trkpt lat="45.31364" lon="4.66229">
        <ele>674</ele>
        <time>2019-02-20T10:42:49.000Z</time>
      </trkpt>
      <trkpt lat="45.31363" lon="4.66228">
        <ele>674</ele>
        <time>2019-02-20T10:42:50.000Z</time>
      </trkpt>
      <trkpt lat="45.31361" lon="4.66228">
        <ele>674</ele>
        <time>2019-02-20T10:42:51.000Z</time>
      </trkpt>
      <trkpt lat="45.31359" lon="4.66227">
        <ele>674.20001220703</ele>
        <time>2019-02-20T10:42:52.000Z</time>
      </trkpt>
      <trkpt lat="45.31357" lon="4.66227">
        <ele>674.20001220703</ele>
        <time>2019-02-20T10:42:53.000Z</time>
      </trkpt>
      <trkpt lat="45.31356" lon="4.66226">
        <ele>674.20001220703</ele>
        <time>2019-02-20T10:42:54.000Z</time>
      </trkpt>
      <trkpt lat="45.31354" lon="4.66226">
        <ele>674.20001220703</ele>
        <time>2019-02-20T10:42:55.000Z</time>
      </trkpt>
      <trkpt lat="45.31353" lon="4.66225">
        <ele>674.40002441406</ele>
        <time>2019-02-20T10:42:56.000Z</time>
      </trkpt>
      <trkpt lat="45.31351" lon="4.66225">
        <ele>674.59997558594</ele>
        <time>2019-02-20T10:42:57.000Z</time>
      </trkpt>
      <trkpt lat="45.31349" lon="4.66225">
        <ele>674.79998779297</ele>
        <time>2019-02-20T10:42:58.000Z</time>
      </trkpt>
      <trkpt lat="45.31348" lon="4.66225">
        <ele>674.79998779297</ele>
        <time>2019-02-20T10:42:59.000Z</time>
      </trkpt>
      <trkpt lat="45.31346" lon="4.66224">
        <ele>675</ele>
        <time>2019-02-20T10:43:00.000Z</time>
      </trkpt>
      <trkpt lat="45.31344" lon="4.66224">
        <ele>675</ele>
        <time>2019-02-20T10:43:01.000Z</time>
      </trkpt>
      <trkpt lat="45.31343" lon="4.66224">
        <ele>675</ele>
        <time>2019-02-20T10:43:02.000Z</time>
      </trkpt>
      <trkpt lat="45.31341" lon="4.66224">
        <ele>675</ele>
        <time>2019-02-20T10:43:03.000Z</time>
      </trkpt>
      <trkpt lat="45.31339" lon="4.66224">
        <ele>675</ele>
        <time>2019-02-20T10:43:04.000Z</time>
      </trkpt>
      <trkpt lat="45.31338" lon="4.66224">
        <ele>675</ele>
        <time>2019-02-20T10:43:05.000Z</time>
      </trkpt>
      <trkpt lat="45.31336" lon="4.66224">
        <ele>675</ele>
        <time>2019-02-20T10:43:06.000Z</time>
      </trkpt>
      <trkpt lat="45.31335" lon="4.66224">
        <ele>675.20001220703</ele>
        <time>2019-02-20T10:43:07.000Z</time>
      </trkpt>
      <trkpt lat="45.31333" lon="4.66224">
        <ele>675.20001220703</ele>
        <time>2019-02-20T10:43:08.000Z</time>
      </trkpt>
      <trkpt lat="45.31331" lon="4.66224">
        <ele>675.20001220703</ele>
        <time>2019-02-20T10:43:09.000Z</time>
      </trkpt>
      <trkpt lat="45.3133" lon="4.66224">
        <ele>675.40002441406</ele>
        <time>2019-02-20T10:43:10.000Z</time>
      </trkpt>
      <trkpt lat="45.31328" lon="4.66224">
        <ele>675.20001220703</ele>
        <time>2019-02-20T10:43:11.000Z</time>
      </trkpt>
      <trkpt lat="45.31326" lon="4.66224">
        <ele>675.40002441406</ele>
        <time>2019-02-20T10:43:12.000Z</time>
      </trkpt>
      <trkpt lat="45.31325" lon="4.66224">
        <ele>675.40002441406</ele>
        <time>2019-02-20T10:43:13.000Z</time>
      </trkpt>
      <trkpt lat="45.31323" lon="4.66224">
        <ele>675.40002441406</ele>
        <time>2019-02-20T10:43:14.000Z</time>
      </trkpt>
      <trkpt lat="45.31321" lon="4.66224">
        <ele>675.40002441406</ele>
        <time>2019-02-20T10:43:15.000Z</time>
      </trkpt>
      <trkpt lat="45.3132" lon="4.66224">
        <ele>675.59997558594</ele>
        <time>2019-02-20T10:43:16.000Z</time>
      </trkpt>
      <trkpt lat="45.31318" lon="4.66224">
        <ele>675.59997558594</ele>
        <time>2019-02-20T10:43:17.000Z</time>
      </trkpt>
      <trkpt lat="45.31317" lon="4.66224">
        <ele>675.40002441406</ele>
        <time>2019-02-20T10:43:18.000Z</time>
      </trkpt>
      <trkpt lat="45.31315" lon="4.66224">
        <ele>675.40002441406</ele>
        <time>2019-02-20T10:43:19.000Z</time>
      </trkpt>
      <trkpt lat="45.31313" lon="4.66224">
        <ele>675.59997558594</ele>
        <time>2019-02-20T10:43:20.000Z</time>
      </trkpt>
      <trkpt lat="45.31312" lon="4.66224">
        <ele>675.59997558594</ele>
        <time>2019-02-20T10:43:21.000Z</time>
      </trkpt>
      <trkpt lat="45.3131" lon="4.66224">
        <ele>675.59997558594</ele>
        <time>2019-02-20T10:43:22.000Z</time>
      </trkpt>
      <trkpt lat="45.31309" lon="4.66224">
        <ele>675.59997558594</ele>
        <time>2019-02-20T10:43:23.000Z</time>
      </trkpt>
      <trkpt lat="45.31308" lon="4.66224">
        <ele>675.59997558594</ele>
        <time>2019-02-20T10:43:24.000Z</time>
      </trkpt>
      <trkpt lat="45.31306" lon="4.66224">
        <ele>675.59997558594</ele>
        <time>2019-02-20T10:43:25.000Z</time>
      </trkpt>
      <trkpt lat="45.31305" lon="4.66224">
        <ele>675.79998779297</ele>
        <time>2019-02-20T10:43:26.000Z</time>
      </trkpt>
      <trkpt lat="45.31303" lon="4.66225">
        <ele>675.79998779297</ele>
        <time>2019-02-20T10:43:27.000Z</time>
      </trkpt>
      <trkpt lat="45.31302" lon="4.66225">
        <ele>675.79998779297</ele>
        <time>2019-02-20T10:43:28.000Z</time>
      </trkpt>
      <trkpt lat="45.313" lon="4.66225">
        <ele>675.79998779297</ele>
        <time>2019-02-20T10:43:29.000Z</time>
      </trkpt>
      <trkpt lat="45.31299" lon="4.66225">
        <ele>675.79998779297</ele>
        <time>2019-02-20T10:43:30.000Z</time>
      </trkpt>
      <trkpt lat="45.31297" lon="4.66225">
        <ele>676</ele>
        <time>2019-02-20T10:43:31.000Z</time>
      </trkpt>
      <trkpt lat="45.31295" lon="4.66225">
        <ele>676</ele>
        <time>2019-02-20T10:43:32.000Z</time>
      </trkpt>
      <trkpt lat="45.31293" lon="4.66225">
        <ele>676</ele>
        <time>2019-02-20T10:43:33.000Z</time>
      </trkpt>
      <trkpt lat="45.31292" lon="4.66225">
        <ele>676</ele>
        <time>2019-02-20T10:43:34.000Z</time>
      </trkpt>
      <trkpt lat="45.3129" lon="4.66225">
        <ele>676.20001220703</ele>
        <time>2019-02-20T10:43:35.000Z</time>
      </trkpt>
      <trkpt lat="45.31289" lon="4.66225">
        <ele>676.20001220703</ele>
        <time>2019-02-20T10:43:36.000Z</time>
      </trkpt>
      <trkpt lat="45.31287" lon="4.66226">
        <ele>676.20001220703</ele>
        <time>2019-02-20T10:43:37.000Z</time>
      </trkpt>
      <trkpt lat="45.31286" lon="4.66226">
        <ele>676.20001220703</ele>
        <time>2019-02-20T10:43:38.000Z</time>
      </trkpt>
      <trkpt lat="45.31284" lon="4.66226">
        <ele>676.40002441406</ele>
        <time>2019-02-20T10:43:39.000Z</time>
      </trkpt>
      <trkpt lat="45.31282" lon="4.66226">
        <ele>676.40002441406</ele>
        <time>2019-02-20T10:43:40.000Z</time>
      </trkpt>
      <trkpt lat="45.31281" lon="4.66226">
        <ele>676.59997558594</ele>
        <time>2019-02-20T10:43:41.000Z</time>
      </trkpt>
      <trkpt lat="45.31279" lon="4.66226">
        <ele>676.59997558594</ele>
        <time>2019-02-20T10:43:42.000Z</time>
      </trkpt>
      <trkpt lat="45.31278" lon="4.66227">
        <ele>676.79998779297</ele>
        <time>2019-02-20T10:43:43.000Z</time>
      </trkpt>
      <trkpt lat="45.31276" lon="4.66227">
        <ele>676.79998779297</ele>
        <time>2019-02-20T10:43:44.000Z</time>
      </trkpt>
      <trkpt lat="45.31275" lon="4.66227">
        <ele>676.79998779297</ele>
        <time>2019-02-20T10:43:45.000Z</time>
      </trkpt>
      <trkpt lat="45.31273" lon="4.66228">
        <ele>676.79998779297</ele>
        <time>2019-02-20T10:43:46.000Z</time>
      </trkpt>
      <trkpt lat="45.31272" lon="4.66228">
        <ele>677</ele>
        <time>2019-02-20T10:43:47.000Z</time>
      </trkpt>
      <trkpt lat="45.31271" lon="4.66229">
        <ele>677</ele>
        <time>2019-02-20T10:43:48.000Z</time>
      </trkpt>
      <trkpt lat="45.31269" lon="4.66229">
        <ele>677.20001220703</ele>
        <time>2019-02-20T10:43:49.000Z</time>
      </trkpt>
      <trkpt lat="45.31268" lon="4.66229">
        <ele>677</ele>
        <time>2019-02-20T10:43:50.000Z</time>
      </trkpt>
      <trkpt lat="45.31267" lon="4.66229">
        <ele>677.20001220703</ele>
        <time>2019-02-20T10:43:51.000Z</time>
      </trkpt>
      <trkpt lat="45.31266" lon="4.6623">
        <ele>677.40002441406</ele>
        <time>2019-02-20T10:43:52.000Z</time>
      </trkpt>
      <trkpt lat="45.31265" lon="4.6623">
        <ele>677.59997558594</ele>
        <time>2019-02-20T10:43:53.000Z</time>
      </trkpt>
      <trkpt lat="45.31264" lon="4.6623">
        <ele>677.79998779297</ele>
        <time>2019-02-20T10:43:54.000Z</time>
      </trkpt>
      <trkpt lat="45.31262" lon="4.6623">
        <ele>677.79998779297</ele>
        <time>2019-02-20T10:43:55.000Z</time>
      </trkpt>
      <trkpt lat="45.31261" lon="4.6623">
        <ele>678</ele>
        <time>2019-02-20T10:43:56.000Z</time>
      </trkpt>
      <trkpt lat="45.31259" lon="4.6623">
        <ele>678.20001220703</ele>
        <time>2019-02-20T10:43:57.000Z</time>
      </trkpt>
      <trkpt lat="45.31257" lon="4.66231">
        <ele>678.40002441406</ele>
        <time>2019-02-20T10:43:58.000Z</time>
      </trkpt>
      <trkpt lat="45.31256" lon="4.66231">
        <ele>678.40002441406</ele>
        <time>2019-02-20T10:43:59.000Z</time>
      </trkpt>
      <trkpt lat="45.31255" lon="4.66231">
        <ele>678.59997558594</ele>
        <time>2019-02-20T10:44:00.000Z</time>
      </trkpt>
      <trkpt lat="45.31254" lon="4.66231">
        <ele>678.59997558594</ele>
        <time>2019-02-20T10:44:01.000Z</time>
      </trkpt>
      <trkpt lat="45.31252" lon="4.66231">
        <ele>678.59997558594</ele>
        <time>2019-02-20T10:44:02.000Z</time>
      </trkpt>
      <trkpt lat="45.31251" lon="4.66231">
        <ele>678.79998779297</ele>
        <time>2019-02-20T10:44:03.000Z</time>
      </trkpt>
      <trkpt lat="45.3125" lon="4.66231">
        <ele>679.20001220703</ele>
        <time>2019-02-20T10:44:04.000Z</time>
      </trkpt>
      <trkpt lat="45.31248" lon="4.66231">
        <ele>679.20001220703</ele>
        <time>2019-02-20T10:44:05.000Z</time>
      </trkpt>
      <trkpt lat="45.31246" lon="4.66232">
        <ele>679.59997558594</ele>
        <time>2019-02-20T10:44:06.000Z</time>
      </trkpt>
      <trkpt lat="45.31245" lon="4.66233">
        <ele>679.59997558594</ele>
        <time>2019-02-20T10:44:07.000Z</time>
      </trkpt>
      <trkpt lat="45.31243" lon="4.66234">
        <ele>679.79998779297</ele>
        <time>2019-02-20T10:44:08.000Z</time>
      </trkpt>
      <trkpt lat="45.31242" lon="4.66234">
        <ele>680.20001220703</ele>
        <time>2019-02-20T10:44:09.000Z</time>
      </trkpt>
      <trkpt lat="45.3124" lon="4.66235">
        <ele>680.59997558594</ele>
        <time>2019-02-20T10:44:10.000Z</time>
      </trkpt>
      <trkpt lat="45.31239" lon="4.66235">
        <ele>680.59997558594</ele>
        <time>2019-02-20T10:44:11.000Z</time>
      </trkpt>
      <trkpt lat="45.31238" lon="4.66236">
        <ele>680.59997558594</ele>
        <time>2019-02-20T10:44:12.000Z</time>
      </trkpt>
      <trkpt lat="45.31237" lon="4.66236">
        <ele>680.79998779297</ele>
        <time>2019-02-20T10:44:13.000Z</time>
      </trkpt>
      <trkpt lat="45.31236" lon="4.66237">
        <ele>681</ele>
        <time>2019-02-20T10:44:14.000Z</time>
      </trkpt>
      <trkpt lat="45.31235" lon="4.66237">
        <ele>681.20001220703</ele>
        <time>2019-02-20T10:44:15.000Z</time>
      </trkpt>
      <trkpt lat="45.31234" lon="4.66238">
        <ele>681.40002441406</ele>
        <time>2019-02-20T10:44:16.000Z</time>
      </trkpt>
      <trkpt lat="45.31233" lon="4.66238">
        <ele>681.59997558594</ele>
        <time>2019-02-20T10:44:17.000Z</time>
      </trkpt>
      <trkpt lat="45.31232" lon="4.66239">
        <ele>681.79998779297</ele>
        <time>2019-02-20T10:44:18.000Z</time>
      </trkpt>
      <trkpt lat="45.31231" lon="4.66239">
        <ele>682.20001220703</ele>
        <time>2019-02-20T10:44:19.000Z</time>
      </trkpt>
      <trkpt lat="45.3123" lon="4.6624">
        <ele>682.40002441406</ele>
        <time>2019-02-20T10:44:20.000Z</time>
      </trkpt>
      <trkpt lat="45.31229" lon="4.6624">
        <ele>682.59997558594</ele>
        <time>2019-02-20T10:44:21.000Z</time>
      </trkpt>
      <trkpt lat="45.31227" lon="4.6624">
        <ele>682.59997558594</ele>
        <time>2019-02-20T10:44:22.000Z</time>
      </trkpt>
      <trkpt lat="45.31226" lon="4.6624">
        <ele>682.59997558594</ele>
        <time>2019-02-20T10:44:23.000Z</time>
      </trkpt>
      <trkpt lat="45.31225" lon="4.66241">
        <ele>682.79998779297</ele>
        <time>2019-02-20T10:44:24.000Z</time>
      </trkpt>
      <trkpt lat="45.31223" lon="4.66241">
        <ele>682.79998779297</ele>
        <time>2019-02-20T10:44:25.000Z</time>
      </trkpt>
      <trkpt lat="45.31222" lon="4.66241">
        <ele>683</ele>
        <time>2019-02-20T10:44:26.000Z</time>
      </trkpt>
      <trkpt lat="45.31221" lon="4.66241">
        <ele>683.20001220703</ele>
        <time>2019-02-20T10:44:27.000Z</time>
      </trkpt>
      <trkpt lat="45.3122" lon="4.66242">
        <ele>683.40002441406</ele>
        <time>2019-02-20T10:44:28.000Z</time>
      </trkpt>
      <trkpt lat="45.31218" lon="4.66242">
        <ele>683.40002441406</ele>
        <time>2019-02-20T10:44:29.000Z</time>
      </trkpt>
      <trkpt lat="45.31217" lon="4.66242">
        <ele>683.59997558594</ele>
        <time>2019-02-20T10:44:30.000Z</time>
      </trkpt>
      <trkpt lat="45.31216" lon="4.66242">
        <ele>683.79998779297</ele>
        <time>2019-02-20T10:44:31.000Z</time>
      </trkpt>
      <trkpt lat="45.31214" lon="4.66242">
        <ele>684</ele>
        <time>2019-02-20T10:44:32.000Z</time>
      </trkpt>
      <trkpt lat="45.31213" lon="4.66243">
        <ele>684</ele>
        <time>2019-02-20T10:44:33.000Z</time>
      </trkpt>
      <trkpt lat="45.31211" lon="4.66243">
        <ele>684.20001220703</ele>
        <time>2019-02-20T10:44:34.000Z</time>
      </trkpt>
      <trkpt lat="45.3121" lon="4.66243">
        <ele>684.40002441406</ele>
        <time>2019-02-20T10:44:35.000Z</time>
      </trkpt>
      <trkpt lat="45.31208" lon="4.66243">
        <ele>684.40002441406</ele>
        <time>2019-02-20T10:44:36.000Z</time>
      </trkpt>
      <trkpt lat="45.31207" lon="4.66243">
        <ele>684.59997558594</ele>
        <time>2019-02-20T10:44:37.000Z</time>
      </trkpt>
      <trkpt lat="45.31205" lon="4.66243">
        <ele>684.59997558594</ele>
        <time>2019-02-20T10:44:38.000Z</time>
      </trkpt>
      <trkpt lat="45.31204" lon="4.66242">
        <ele>684.79998779297</ele>
        <time>2019-02-20T10:44:39.000Z</time>
      </trkpt>
      <trkpt lat="45.31202" lon="4.66242">
        <ele>684.79998779297</ele>
        <time>2019-02-20T10:44:40.000Z</time>
      </trkpt>
      <trkpt lat="45.31201" lon="4.66242">
        <ele>685</ele>
        <time>2019-02-20T10:44:41.000Z</time>
      </trkpt>
      <trkpt lat="45.312" lon="4.66242">
        <ele>685.40002441406</ele>
        <time>2019-02-20T10:44:42.000Z</time>
      </trkpt>
      <trkpt lat="45.31198" lon="4.66242">
        <ele>685.40002441406</ele>
        <time>2019-02-20T10:44:43.000Z</time>
      </trkpt>
      <trkpt lat="45.31197" lon="4.66241">
        <ele>685.59997558594</ele>
        <time>2019-02-20T10:44:44.000Z</time>
      </trkpt>
      <trkpt lat="45.31195" lon="4.6624">
        <ele>685.59997558594</ele>
        <time>2019-02-20T10:44:45.000Z</time>
      </trkpt>
      <trkpt lat="45.31194" lon="4.66239">
        <ele>685.79998779297</ele>
        <time>2019-02-20T10:44:46.000Z</time>
      </trkpt>
      <trkpt lat="45.31193" lon="4.66239">
        <ele>686</ele>
        <time>2019-02-20T10:44:47.000Z</time>
      </trkpt>
      <trkpt lat="45.31192" lon="4.66238">
        <ele>686</ele>
        <time>2019-02-20T10:44:48.000Z</time>
      </trkpt>
      <trkpt lat="45.3119" lon="4.66238">
        <ele>686.20001220703</ele>
        <time>2019-02-20T10:44:49.000Z</time>
      </trkpt>
      <trkpt lat="45.31189" lon="4.66237">
        <ele>686.20001220703</ele>
        <time>2019-02-20T10:44:50.000Z</time>
      </trkpt>
      <trkpt lat="45.31187" lon="4.66237">
        <ele>686.59997558594</ele>
        <time>2019-02-20T10:44:51.000Z</time>
      </trkpt>
      <trkpt lat="45.31186" lon="4.66237">
        <ele>686.59997558594</ele>
        <time>2019-02-20T10:44:52.000Z</time>
      </trkpt>
      <trkpt lat="45.31185" lon="4.66237">
        <ele>687</ele>
        <time>2019-02-20T10:44:53.000Z</time>
      </trkpt>
      <trkpt lat="45.31183" lon="4.66236">
        <ele>687.20001220703</ele>
        <time>2019-02-20T10:44:54.000Z</time>
      </trkpt>
      <trkpt lat="45.31181" lon="4.66235">
        <ele>687.20001220703</ele>
        <time>2019-02-20T10:44:55.000Z</time>
      </trkpt>
      <trkpt lat="45.3118" lon="4.66235">
        <ele>687.40002441406</ele>
        <time>2019-02-20T10:44:56.000Z</time>
      </trkpt>
      <trkpt lat="45.31178" lon="4.66235">
        <ele>687.40002441406</ele>
        <time>2019-02-20T10:44:57.000Z</time>
      </trkpt>
      <trkpt lat="45.31176" lon="4.66234">
        <ele>687.79998779297</ele>
        <time>2019-02-20T10:44:58.000Z</time>
      </trkpt>
      <trkpt lat="45.31175" lon="4.66234">
        <ele>687.79998779297</ele>
        <time>2019-02-20T10:44:59.000Z</time>
      </trkpt>
      <trkpt lat="45.31174" lon="4.66234">
        <ele>688</ele>
        <time>2019-02-20T10:45:00.000Z</time>
      </trkpt>
      <trkpt lat="45.31173" lon="4.66234">
        <ele>688.20001220703</ele>
        <time>2019-02-20T10:45:01.000Z</time>
      </trkpt>
      <trkpt lat="45.31171" lon="4.66234">
        <ele>688.20001220703</ele>
        <time>2019-02-20T10:45:02.000Z</time>
      </trkpt>
      <trkpt lat="45.3117" lon="4.66233">
        <ele>688.20001220703</ele>
        <time>2019-02-20T10:45:03.000Z</time>
      </trkpt>
      <trkpt lat="45.31169" lon="4.66233">
        <ele>688.40002441406</ele>
        <time>2019-02-20T10:45:04.000Z</time>
      </trkpt>
      <trkpt lat="45.31168" lon="4.66233">
        <ele>688.79998779297</ele>
        <time>2019-02-20T10:45:05.000Z</time>
      </trkpt>
      <trkpt lat="45.31166" lon="4.66233">
        <ele>689</ele>
        <time>2019-02-20T10:45:06.000Z</time>
      </trkpt>
      <trkpt lat="45.31165" lon="4.66232">
        <ele>689</ele>
        <time>2019-02-20T10:45:07.000Z</time>
      </trkpt>
      <trkpt lat="45.31163" lon="4.66231">
        <ele>689.40002441406</ele>
        <time>2019-02-20T10:45:08.000Z</time>
      </trkpt>
      <trkpt lat="45.31162" lon="4.66231">
        <ele>689.20001220703</ele>
        <time>2019-02-20T10:45:09.000Z</time>
      </trkpt>
      <trkpt lat="45.3116" lon="4.66231">
        <ele>689.40002441406</ele>
        <time>2019-02-20T10:45:10.000Z</time>
      </trkpt>
      <trkpt lat="45.31158" lon="4.6623">
        <ele>689.40002441406</ele>
        <time>2019-02-20T10:45:11.000Z</time>
      </trkpt>
      <trkpt lat="45.31157" lon="4.6623">
        <ele>689.59997558594</ele>
        <time>2019-02-20T10:45:12.000Z</time>
      </trkpt>
      <trkpt lat="45.31155" lon="4.66229">
        <ele>689.79998779297</ele>
        <time>2019-02-20T10:45:13.000Z</time>
      </trkpt>
      <trkpt lat="45.31154" lon="4.66229">
        <ele>690</ele>
        <time>2019-02-20T10:45:14.000Z</time>
      </trkpt>
      <trkpt lat="45.31153" lon="4.66229">
        <ele>690.20001220703</ele>
        <time>2019-02-20T10:45:15.000Z</time>
      </trkpt>
      <trkpt lat="45.31152" lon="4.66228">
        <ele>690.20001220703</ele>
        <time>2019-02-20T10:45:16.000Z</time>
      </trkpt>
      <trkpt lat="45.3115" lon="4.66228">
        <ele>690.40002441406</ele>
        <time>2019-02-20T10:45:17.000Z</time>
      </trkpt>
      <trkpt lat="45.31149" lon="4.66227">
        <ele>690.40002441406</ele>
        <time>2019-02-20T10:45:18.000Z</time>
      </trkpt>
      <trkpt lat="45.31147" lon="4.66227">
        <ele>690.59997558594</ele>
        <time>2019-02-20T10:45:19.000Z</time>
      </trkpt>
      <trkpt lat="45.31145" lon="4.66226">
        <ele>690.79998779297</ele>
        <time>2019-02-20T10:45:20.000Z</time>
      </trkpt>
      <trkpt lat="45.31143" lon="4.66226">
        <ele>691.20001220703</ele>
        <time>2019-02-20T10:45:21.000Z</time>
      </trkpt>
      <trkpt lat="45.31142" lon="4.66225">
        <ele>691</ele>
        <time>2019-02-20T10:45:22.000Z</time>
      </trkpt>
      <trkpt lat="45.3114" lon="4.66224">
        <ele>691.79998779297</ele>
        <time>2019-02-20T10:45:23.000Z</time>
      </trkpt>
      <trkpt lat="45.31138" lon="4.66223">
        <ele>691.79998779297</ele>
        <time>2019-02-20T10:45:24.000Z</time>
      </trkpt>
      <trkpt lat="45.31137" lon="4.66223">
        <ele>692</ele>
        <time>2019-02-20T10:45:25.000Z</time>
      </trkpt>
      <trkpt lat="45.31135" lon="4.66222">
        <ele>692.20001220703</ele>
        <time>2019-02-20T10:45:26.000Z</time>
      </trkpt>
      <trkpt lat="45.31134" lon="4.66221">
        <ele>692.40002441406</ele>
        <time>2019-02-20T10:45:27.000Z</time>
      </trkpt>
      <trkpt lat="45.31132" lon="4.66221">
        <ele>692.59997558594</ele>
        <time>2019-02-20T10:45:28.000Z</time>
      </trkpt>
      <trkpt lat="45.31131" lon="4.6622">
        <ele>692.59997558594</ele>
        <time>2019-02-20T10:45:29.000Z</time>
      </trkpt>
      <trkpt lat="45.31129" lon="4.6622">
        <ele>692.79998779297</ele>
        <time>2019-02-20T10:45:30.000Z</time>
      </trkpt>
      <trkpt lat="45.31127" lon="4.66219">
        <ele>693</ele>
        <time>2019-02-20T10:45:31.000Z</time>
      </trkpt>
      <trkpt lat="45.31126" lon="4.66218">
        <ele>693.20001220703</ele>
        <time>2019-02-20T10:45:32.000Z</time>
      </trkpt>
      <trkpt lat="45.31124" lon="4.66216">
        <ele>693.20001220703</ele>
        <time>2019-02-20T10:45:33.000Z</time>
      </trkpt>
      <trkpt lat="45.31122" lon="4.66215">
        <ele>693.20001220703</ele>
        <time>2019-02-20T10:45:34.000Z</time>
      </trkpt>
      <trkpt lat="45.3112" lon="4.66214">
        <ele>693.40002441406</ele>
        <time>2019-02-20T10:45:35.000Z</time>
      </trkpt>
      <trkpt lat="45.31118" lon="4.66213">
        <ele>693.59997558594</ele>
        <time>2019-02-20T10:45:36.000Z</time>
      </trkpt>
      <trkpt lat="45.31117" lon="4.66211">
        <ele>693.59997558594</ele>
        <time>2019-02-20T10:45:37.000Z</time>
      </trkpt>
      <trkpt lat="45.31115" lon="4.6621">
        <ele>693.79998779297</ele>
        <time>2019-02-20T10:45:38.000Z</time>
      </trkpt>
      <trkpt lat="45.31113" lon="4.66208">
        <ele>693.79998779297</ele>
        <time>2019-02-20T10:45:39.000Z</time>
      </trkpt>
      <trkpt lat="45.31111" lon="4.66206">
        <ele>693.79998779297</ele>
        <time>2019-02-20T10:45:40.000Z</time>
      </trkpt>
      <trkpt lat="45.3111" lon="4.66205">
        <ele>694.20001220703</ele>
        <time>2019-02-20T10:45:41.000Z</time>
      </trkpt>
      <trkpt lat="45.31109" lon="4.66203">
        <ele>694.40002441406</ele>
        <time>2019-02-20T10:45:42.000Z</time>
      </trkpt>
      <trkpt lat="45.31106" lon="4.66202">
        <ele>694.40002441406</ele>
        <time>2019-02-20T10:45:43.000Z</time>
      </trkpt>
      <trkpt lat="45.31104" lon="4.662">
        <ele>694.40002441406</ele>
        <time>2019-02-20T10:45:44.000Z</time>
      </trkpt>
      <trkpt lat="45.31102" lon="4.66198">
        <ele>694.40002441406</ele>
        <time>2019-02-20T10:45:45.000Z</time>
      </trkpt>
      <trkpt lat="45.311" lon="4.66196">
        <ele>694.79998779297</ele>
        <time>2019-02-20T10:45:46.000Z</time>
      </trkpt>
      <trkpt lat="45.31099" lon="4.66195">
        <ele>694.79998779297</ele>
        <time>2019-02-20T10:45:47.000Z</time>
      </trkpt>
      <trkpt lat="45.31097" lon="4.66193">
        <ele>695</ele>
        <time>2019-02-20T10:45:48.000Z</time>
      </trkpt>
      <trkpt lat="45.31095" lon="4.66191">
        <ele>695</ele>
        <time>2019-02-20T10:45:49.000Z</time>
      </trkpt>
      <trkpt lat="45.31094" lon="4.66189">
        <ele>695</ele>
        <time>2019-02-20T10:45:50.000Z</time>
      </trkpt>
      <trkpt lat="45.31092" lon="4.66187">
        <ele>695.20001220703</ele>
        <time>2019-02-20T10:45:51.000Z</time>
      </trkpt>
      <trkpt lat="45.31091" lon="4.66186">
        <ele>695.40002441406</ele>
        <time>2019-02-20T10:45:52.000Z</time>
      </trkpt>
      <trkpt lat="45.31089" lon="4.66184">
        <ele>695.59997558594</ele>
        <time>2019-02-20T10:45:53.000Z</time>
      </trkpt>
      <trkpt lat="45.31087" lon="4.66183">
        <ele>695.59997558594</ele>
        <time>2019-02-20T10:45:54.000Z</time>
      </trkpt>
      <trkpt lat="45.31086" lon="4.66182">
        <ele>695.59997558594</ele>
        <time>2019-02-20T10:45:55.000Z</time>
      </trkpt>
      <trkpt lat="45.31084" lon="4.6618">
        <ele>695.79998779297</ele>
        <time>2019-02-20T10:45:56.000Z</time>
      </trkpt>
      <trkpt lat="45.31082" lon="4.66178">
        <ele>696</ele>
        <time>2019-02-20T10:45:57.000Z</time>
      </trkpt>
      <trkpt lat="45.3108" lon="4.66176">
        <ele>696</ele>
        <time>2019-02-20T10:45:58.000Z</time>
      </trkpt>
      <trkpt lat="45.31079" lon="4.66175">
        <ele>696</ele>
        <time>2019-02-20T10:45:59.000Z</time>
      </trkpt>
      <trkpt lat="45.31077" lon="4.66173">
        <ele>696.20001220703</ele>
        <time>2019-02-20T10:46:00.000Z</time>
      </trkpt>
      <trkpt lat="45.31075" lon="4.66171">
        <ele>696.20001220703</ele>
        <time>2019-02-20T10:46:01.000Z</time>
      </trkpt>
      <trkpt lat="45.31074" lon="4.6617">
        <ele>696.20001220703</ele>
        <time>2019-02-20T10:46:02.000Z</time>
      </trkpt>
      <trkpt lat="45.31072" lon="4.66168">
        <ele>696.40002441406</ele>
        <time>2019-02-20T10:46:03.000Z</time>
      </trkpt>
      <trkpt lat="45.3107" lon="4.66165">
        <ele>696.40002441406</ele>
        <time>2019-02-20T10:46:04.000Z</time>
      </trkpt>
      <trkpt lat="45.31068" lon="4.66163">
        <ele>696.59997558594</ele>
        <time>2019-02-20T10:46:05.000Z</time>
      </trkpt>
      <trkpt lat="45.31066" lon="4.6616">
        <ele>696.79998779297</ele>
        <time>2019-02-20T10:46:06.000Z</time>
      </trkpt>
      <trkpt lat="45.31064" lon="4.66158">
        <ele>696.59997558594</ele>
        <time>2019-02-20T10:46:07.000Z</time>
      </trkpt>
      <trkpt lat="45.31062" lon="4.66155">
        <ele>696.59997558594</ele>
        <time>2019-02-20T10:46:08.000Z</time>
      </trkpt>
      <trkpt lat="45.3106" lon="4.66152">
        <ele>696.59997558594</ele>
        <time>2019-02-20T10:46:09.000Z</time>
      </trkpt>
      <trkpt lat="45.31057" lon="4.66149">
        <ele>696.79998779297</ele>
        <time>2019-02-20T10:46:10.000Z</time>
      </trkpt>
      <trkpt lat="45.31056" lon="4.66147">
        <ele>696.79998779297</ele>
        <time>2019-02-20T10:46:11.000Z</time>
      </trkpt>
      <trkpt lat="45.31054" lon="4.66144">
        <ele>696.79998779297</ele>
        <time>2019-02-20T10:46:12.000Z</time>
      </trkpt>
      <trkpt lat="45.31052" lon="4.66142">
        <ele>696.79998779297</ele>
        <time>2019-02-20T10:46:13.000Z</time>
      </trkpt>
      <trkpt lat="45.3105" lon="4.66139">
        <ele>696.59997558594</ele>
        <time>2019-02-20T10:46:14.000Z</time>
      </trkpt>
      <trkpt lat="45.31048" lon="4.66137">
        <ele>696.79998779297</ele>
        <time>2019-02-20T10:46:15.000Z</time>
      </trkpt>
      <trkpt lat="45.31046" lon="4.66134">
        <ele>696.79998779297</ele>
        <time>2019-02-20T10:46:16.000Z</time>
      </trkpt>
      <trkpt lat="45.31044" lon="4.66132">
        <ele>696.79998779297</ele>
        <time>2019-02-20T10:46:17.000Z</time>
      </trkpt>
      <trkpt lat="45.31043" lon="4.6613">
        <ele>696.79998779297</ele>
        <time>2019-02-20T10:46:18.000Z</time>
      </trkpt>
      <trkpt lat="45.31041" lon="4.66128">
        <ele>696.79998779297</ele>
        <time>2019-02-20T10:46:19.000Z</time>
      </trkpt>
      <trkpt lat="45.31039" lon="4.66126">
        <ele>696.79998779297</ele>
        <time>2019-02-20T10:46:20.000Z</time>
      </trkpt>
      <trkpt lat="45.31038" lon="4.66124">
        <ele>696.79998779297</ele>
        <time>2019-02-20T10:46:21.000Z</time>
      </trkpt>
      <trkpt lat="45.31036" lon="4.66121">
        <ele>697</ele>
        <time>2019-02-20T10:46:22.000Z</time>
      </trkpt>
      <trkpt lat="45.31035" lon="4.66119">
        <ele>696.79998779297</ele>
        <time>2019-02-20T10:46:23.000Z</time>
      </trkpt>
      <trkpt lat="45.31033" lon="4.66117">
        <ele>696.79998779297</ele>
        <time>2019-02-20T10:46:24.000Z</time>
      </trkpt>
      <trkpt lat="45.31032" lon="4.66116">
        <ele>696.79998779297</ele>
        <time>2019-02-20T10:46:25.000Z</time>
      </trkpt>
      <trkpt lat="45.3103" lon="4.66115">
        <ele>696.79998779297</ele>
        <time>2019-02-20T10:46:26.000Z</time>
      </trkpt>
      <trkpt lat="45.31029" lon="4.66114">
        <ele>696.79998779297</ele>
        <time>2019-02-20T10:46:27.000Z</time>
      </trkpt>
      <trkpt lat="45.31028" lon="4.66113">
        <ele>696.79998779297</ele>
        <time>2019-02-20T10:46:28.000Z</time>
      </trkpt>
      <trkpt lat="45.31027" lon="4.66111">
        <ele>696.79998779297</ele>
        <time>2019-02-20T10:46:29.000Z</time>
      </trkpt>
      <trkpt lat="45.31026" lon="4.6611">
        <ele>696.79998779297</ele>
        <time>2019-02-20T10:46:30.000Z</time>
      </trkpt>
      <trkpt lat="45.31025" lon="4.66109">
        <ele>696.79998779297</ele>
        <time>2019-02-20T10:46:31.000Z</time>
      </trkpt>
      <trkpt lat="45.31025" lon="4.66108">
        <ele>696.79998779297</ele>
        <time>2019-02-20T10:46:32.000Z</time>
      </trkpt>
      <trkpt lat="45.31024" lon="4.66107">
        <ele>696.79998779297</ele>
        <time>2019-02-20T10:46:33.000Z</time>
      </trkpt>
      <trkpt lat="45.31024" lon="4.66106">
        <ele>696.79998779297</ele>
        <time>2019-02-20T10:46:34.000Z</time>
      </trkpt>
      <trkpt lat="45.31024" lon="4.66106">
        <ele>697</ele>
        <time>2019-02-20T10:46:35.000Z</time>
      </trkpt>
      <trkpt lat="45.31024" lon="4.66106">
        <ele>696.79998779297</ele>
        <time>2019-02-20T10:46:36.000Z</time>
      </trkpt>
      <trkpt lat="45.31018" lon="4.66099">
        <ele>696.79998779297</ele>
        <time>2019-02-20T10:48:33.000Z</time>
      </trkpt>
      <trkpt lat="45.31016" lon="4.66097">
        <ele>696.79998779297</ele>
        <time>2019-02-20T10:48:34.000Z</time>
      </trkpt>
      <trkpt lat="45.31015" lon="4.66095">
        <ele>696.79998779297</ele>
        <time>2019-02-20T10:48:35.000Z</time>
      </trkpt>
      <trkpt lat="45.31014" lon="4.66093">
        <ele>696.79998779297</ele>
        <time>2019-02-20T10:48:36.000Z</time>
      </trkpt>
      <trkpt lat="45.31012" lon="4.6609">
        <ele>696.79998779297</ele>
        <time>2019-02-20T10:48:37.000Z</time>
      </trkpt>
      <trkpt lat="45.31011" lon="4.66088">
        <ele>696.79998779297</ele>
        <time>2019-02-20T10:48:38.000Z</time>
      </trkpt>
      <trkpt lat="45.3101" lon="4.66085">
        <ele>696.59997558594</ele>
        <time>2019-02-20T10:48:39.000Z</time>
      </trkpt>
      <trkpt lat="45.31009" lon="4.66083">
        <ele>696.59997558594</ele>
        <time>2019-02-20T10:48:40.000Z</time>
      </trkpt>
      <trkpt lat="45.31007" lon="4.6608">
        <ele>696.79998779297</ele>
        <time>2019-02-20T10:48:41.000Z</time>
      </trkpt>
      <trkpt lat="45.31006" lon="4.66077">
        <ele>696.59997558594</ele>
        <time>2019-02-20T10:48:42.000Z</time>
      </trkpt>
      <trkpt lat="45.31005" lon="4.66075">
        <ele>696.59997558594</ele>
        <time>2019-02-20T10:48:43.000Z</time>
      </trkpt>
      <trkpt lat="45.31003" lon="4.66072">
        <ele>696.40002441406</ele>
        <time>2019-02-20T10:48:44.000Z</time>
      </trkpt>
      <trkpt lat="45.31002" lon="4.6607">
        <ele>696.40002441406</ele>
        <time>2019-02-20T10:48:45.000Z</time>
      </trkpt>
      <trkpt lat="45.31001" lon="4.66067">
        <ele>696.40002441406</ele>
        <time>2019-02-20T10:48:46.000Z</time>
      </trkpt>
      <trkpt lat="45.31" lon="4.66064">
        <ele>696.40002441406</ele>
        <time>2019-02-20T10:48:47.000Z</time>
      </trkpt>
      <trkpt lat="45.30998" lon="4.6606">
        <ele>696.20001220703</ele>
        <time>2019-02-20T10:48:48.000Z</time>
      </trkpt>
      <trkpt lat="45.30996" lon="4.66057">
        <ele>696.20001220703</ele>
        <time>2019-02-20T10:48:49.000Z</time>
      </trkpt>
      <trkpt lat="45.30993" lon="4.66053">
        <ele>696</ele>
        <time>2019-02-20T10:48:50.000Z</time>
      </trkpt>
      <trkpt lat="45.3099" lon="4.66049">
        <ele>696</ele>
        <time>2019-02-20T10:48:51.000Z</time>
      </trkpt>
      <trkpt lat="45.30986" lon="4.66044">
        <ele>696</ele>
        <time>2019-02-20T10:48:52.000Z</time>
      </trkpt>
      <trkpt lat="45.30982" lon="4.66039">
        <ele>696.20001220703</ele>
        <time>2019-02-20T10:48:53.000Z</time>
      </trkpt>
      <trkpt lat="45.30978" lon="4.66033">
        <ele>696.20001220703</ele>
        <time>2019-02-20T10:48:54.000Z</time>
      </trkpt>
      <trkpt lat="45.30974" lon="4.66027">
        <ele>696</ele>
        <time>2019-02-20T10:48:55.000Z</time>
      </trkpt>
      <trkpt lat="45.30969" lon="4.66021">
        <ele>696</ele>
        <time>2019-02-20T10:48:56.000Z</time>
      </trkpt>
      <trkpt lat="45.30964" lon="4.66015">
        <ele>695.79998779297</ele>
        <time>2019-02-20T10:48:57.000Z</time>
      </trkpt>
      <trkpt lat="45.30958" lon="4.66008">
        <ele>695.59997558594</ele>
        <time>2019-02-20T10:48:58.000Z</time>
      </trkpt>
      <trkpt lat="45.30952" lon="4.66">
        <ele>695.59997558594</ele>
        <time>2019-02-20T10:48:59.000Z</time>
      </trkpt>
      <trkpt lat="45.30946" lon="4.65992">
        <ele>695.20001220703</ele>
        <time>2019-02-20T10:49:00.000Z</time>
      </trkpt>
      <trkpt lat="45.30939" lon="4.65983">
        <ele>694.59997558594</ele>
        <time>2019-02-20T10:49:01.000Z</time>
      </trkpt>
      <trkpt lat="45.30932" lon="4.65975">
        <ele>693.59997558594</ele>
        <time>2019-02-20T10:49:02.000Z</time>
      </trkpt>
      <trkpt lat="45.30925" lon="4.65966">
        <ele>693.20001220703</ele>
        <time>2019-02-20T10:49:03.000Z</time>
      </trkpt>
      <trkpt lat="45.30918" lon="4.65958">
        <ele>692.40002441406</ele>
        <time>2019-02-20T10:49:04.000Z</time>
      </trkpt>
      <trkpt lat="45.3091" lon="4.6595">
        <ele>691.40002441406</ele>
        <time>2019-02-20T10:49:05.000Z</time>
      </trkpt>
      <trkpt lat="45.30903" lon="4.65943">
        <ele>689.79998779297</ele>
        <time>2019-02-20T10:49:06.000Z</time>
      </trkpt>
      <trkpt lat="45.30895" lon="4.65936">
        <ele>688.79998779297</ele>
        <time>2019-02-20T10:49:07.000Z</time>
      </trkpt>
      <trkpt lat="45.30888" lon="4.6593">
        <ele>687.59997558594</ele>
        <time>2019-02-20T10:49:08.000Z</time>
      </trkpt>
      <trkpt lat="45.30883" lon="4.65923">
        <ele>686.79998779297</ele>
        <time>2019-02-20T10:49:09.000Z</time>
      </trkpt>
      <trkpt lat="45.30877" lon="4.65916">
        <ele>686.20001220703</ele>
        <time>2019-02-20T10:49:10.000Z</time>
      </trkpt>
      <trkpt lat="45.30873" lon="4.65908">
        <ele>685.20001220703</ele>
        <time>2019-02-20T10:49:11.000Z</time>
      </trkpt>
      <trkpt lat="45.30868" lon="4.659">
        <ele>684.20001220703</ele>
        <time>2019-02-20T10:49:12.000Z</time>
      </trkpt>
      <trkpt lat="45.30864" lon="4.65892">
        <ele>683.79998779297</ele>
        <time>2019-02-20T10:49:13.000Z</time>
      </trkpt>
      <trkpt lat="45.30861" lon="4.65885">
        <ele>683.40002441406</ele>
        <time>2019-02-20T10:49:14.000Z</time>
      </trkpt>
      <trkpt lat="45.30857" lon="4.65878">
        <ele>683.20001220703</ele>
        <time>2019-02-20T10:49:15.000Z</time>
      </trkpt>
      <trkpt lat="45.30854" lon="4.65872">
        <ele>683</ele>
        <time>2019-02-20T10:49:16.000Z</time>
      </trkpt>
      <trkpt lat="45.30851" lon="4.65867">
        <ele>682.59997558594</ele>
        <time>2019-02-20T10:49:17.000Z</time>
      </trkpt>
      <trkpt lat="45.30847" lon="4.65863">
        <ele>682.40002441406</ele>
        <time>2019-02-20T10:49:18.000Z</time>
      </trkpt>
      <trkpt lat="45.30842" lon="4.65861">
        <ele>682.20001220703</ele>
        <time>2019-02-20T10:49:19.000Z</time>
      </trkpt>
      <trkpt lat="45.30838" lon="4.65862">
        <ele>681.79998779297</ele>
        <time>2019-02-20T10:49:20.000Z</time>
      </trkpt>
      <trkpt lat="45.30834" lon="4.65866">
        <ele>681</ele>
        <time>2019-02-20T10:49:21.000Z</time>
      </trkpt>
      <trkpt lat="45.3083" lon="4.65873">
        <ele>679</ele>
        <time>2019-02-20T10:49:22.000Z</time>
      </trkpt>
      <trkpt lat="45.30827" lon="4.6588">
        <ele>677.40002441406</ele>
        <time>2019-02-20T10:49:23.000Z</time>
      </trkpt>
      <trkpt lat="45.30824" lon="4.65888">
        <ele>676.40002441406</ele>
        <time>2019-02-20T10:49:24.000Z</time>
      </trkpt>
      <trkpt lat="45.30822" lon="4.65897">
        <ele>675.79998779297</ele>
        <time>2019-02-20T10:49:25.000Z</time>
      </trkpt>
      <trkpt lat="45.3082" lon="4.65907">
        <ele>674.59997558594</ele>
        <time>2019-02-20T10:49:26.000Z</time>
      </trkpt>
      <trkpt lat="45.30819" lon="4.65917">
        <ele>674.20001220703</ele>
        <time>2019-02-20T10:49:27.000Z</time>
      </trkpt>
      <trkpt lat="45.30818" lon="4.65928">
        <ele>673.59997558594</ele>
        <time>2019-02-20T10:49:28.000Z</time>
      </trkpt>
      <trkpt lat="45.30817" lon="4.65941">
        <ele>673.20001220703</ele>
        <time>2019-02-20T10:49:29.000Z</time>
      </trkpt>
      <trkpt lat="45.30817" lon="4.65953">
        <ele>672.59997558594</ele>
        <time>2019-02-20T10:49:30.000Z</time>
      </trkpt>
      <trkpt lat="45.30818" lon="4.65965">
        <ele>672.20001220703</ele>
        <time>2019-02-20T10:49:31.000Z</time>
      </trkpt>
      <trkpt lat="45.30818" lon="4.65977">
        <ele>671.59997558594</ele>
        <time>2019-02-20T10:49:32.000Z</time>
      </trkpt>
      <trkpt lat="45.30819" lon="4.65988">
        <ele>670.79998779297</ele>
        <time>2019-02-20T10:49:33.000Z</time>
      </trkpt>
      <trkpt lat="45.3082" lon="4.65999">
        <ele>669.79998779297</ele>
        <time>2019-02-20T10:49:34.000Z</time>
      </trkpt>
      <trkpt lat="45.30821" lon="4.66009">
        <ele>669.40002441406</ele>
        <time>2019-02-20T10:49:35.000Z</time>
      </trkpt>
      <trkpt lat="45.30822" lon="4.66019">
        <ele>669</ele>
        <time>2019-02-20T10:49:36.000Z</time>
      </trkpt>
      <trkpt lat="45.30823" lon="4.6603">
        <ele>667.40002441406</ele>
        <time>2019-02-20T10:49:37.000Z</time>
      </trkpt>
      <trkpt lat="45.30826" lon="4.66039">
        <ele>666.79998779297</ele>
        <time>2019-02-20T10:49:38.000Z</time>
      </trkpt>
      <trkpt lat="45.30829" lon="4.66049">
        <ele>666.20001220703</ele>
        <time>2019-02-20T10:49:39.000Z</time>
      </trkpt>
      <trkpt lat="45.30833" lon="4.66057">
        <ele>665.20001220703</ele>
        <time>2019-02-20T10:49:40.000Z</time>
      </trkpt>
      <trkpt lat="45.30837" lon="4.66064">
        <ele>664.59997558594</ele>
        <time>2019-02-20T10:49:41.000Z</time>
      </trkpt>
      <trkpt lat="45.30839" lon="4.66068">
        <ele>663.59997558594</ele>
        <time>2019-02-20T10:49:42.000Z</time>
      </trkpt>
      <trkpt lat="45.3084" lon="4.6607">
        <ele>663</ele>
        <time>2019-02-20T10:49:43.000Z</time>
      </trkpt>
      <trkpt lat="45.3084" lon="4.66072">
        <ele>662.40002441406</ele>
        <time>2019-02-20T10:49:44.000Z</time>
      </trkpt>
      <trkpt lat="45.30839" lon="4.66074">
        <ele>662</ele>
        <time>2019-02-20T10:49:45.000Z</time>
      </trkpt>
      <trkpt lat="45.30838" lon="4.66074">
        <ele>661.20001220703</ele>
        <time>2019-02-20T10:49:46.000Z</time>
      </trkpt>
      <trkpt lat="45.30836" lon="4.66073">
        <ele>660.79998779297</ele>
        <time>2019-02-20T10:49:47.000Z</time>
      </trkpt>
      <trkpt lat="45.30834" lon="4.66071">
        <ele>660.20001220703</ele>
        <time>2019-02-20T10:49:48.000Z</time>
      </trkpt>
      <trkpt lat="45.30831" lon="4.6607">
        <ele>659.79998779297</ele>
        <time>2019-02-20T10:49:49.000Z</time>
      </trkpt>
      <trkpt lat="45.30829" lon="4.66069">
        <ele>659.40002441406</ele>
        <time>2019-02-20T10:49:50.000Z</time>
      </trkpt>
      <trkpt lat="45.30825" lon="4.66067">
        <ele>659.40002441406</ele>
        <time>2019-02-20T10:49:51.000Z</time>
      </trkpt>
      <trkpt lat="45.30822" lon="4.66064">
        <ele>659</ele>
        <time>2019-02-20T10:49:52.000Z</time>
      </trkpt>
      <trkpt lat="45.30819" lon="4.66061">
        <ele>658.59997558594</ele>
        <time>2019-02-20T10:49:53.000Z</time>
      </trkpt>
      <trkpt lat="45.30816" lon="4.66059">
        <ele>658.59997558594</ele>
        <time>2019-02-20T10:49:54.000Z</time>
      </trkpt>
      <trkpt lat="45.30814" lon="4.66056">
        <ele>658.20001220703</ele>
        <time>2019-02-20T10:49:55.000Z</time>
      </trkpt>
      <trkpt lat="45.30811" lon="4.66053">
        <ele>657.40002441406</ele>
        <time>2019-02-20T10:49:56.000Z</time>
      </trkpt>
      <trkpt lat="45.30809" lon="4.66051">
        <ele>657</ele>
        <time>2019-02-20T10:49:57.000Z</time>
      </trkpt>
      <trkpt lat="45.30807" lon="4.66049">
        <ele>656.40002441406</ele>
        <time>2019-02-20T10:49:58.000Z</time>
      </trkpt>
      <trkpt lat="45.30804" lon="4.66046">
        <ele>656</ele>
        <time>2019-02-20T10:49:59.000Z</time>
      </trkpt>
      <trkpt lat="45.30801" lon="4.66041">
        <ele>655.59997558594</ele>
        <time>2019-02-20T10:50:00.000Z</time>
      </trkpt>
      <trkpt lat="45.30798" lon="4.66035">
        <ele>655.40002441406</ele>
        <time>2019-02-20T10:50:01.000Z</time>
      </trkpt>
      <trkpt lat="45.30796" lon="4.66027">
        <ele>655.40002441406</ele>
        <time>2019-02-20T10:50:02.000Z</time>
      </trkpt>
      <trkpt lat="45.30794" lon="4.66018">
        <ele>655.40002441406</ele>
        <time>2019-02-20T10:50:03.000Z</time>
      </trkpt>
      <trkpt lat="45.30792" lon="4.66008">
        <ele>655.20001220703</ele>
        <time>2019-02-20T10:50:04.000Z</time>
      </trkpt>
      <trkpt lat="45.3079" lon="4.65999">
        <ele>655.20001220703</ele>
        <time>2019-02-20T10:50:05.000Z</time>
      </trkpt>
      <trkpt lat="45.30787" lon="4.65988">
        <ele>655</ele>
        <time>2019-02-20T10:50:06.000Z</time>
      </trkpt>
      <trkpt lat="45.30784" lon="4.65978">
        <ele>654.79998779297</ele>
        <time>2019-02-20T10:50:07.000Z</time>
      </trkpt>
      <trkpt lat="45.30782" lon="4.65967">
        <ele>654.79998779297</ele>
        <time>2019-02-20T10:50:08.000Z</time>
      </trkpt>
      <trkpt lat="45.3078" lon="4.65956">
        <ele>654.40002441406</ele>
        <time>2019-02-20T10:50:09.000Z</time>
      </trkpt>
      <trkpt lat="45.30778" lon="4.65946">
        <ele>654</ele>
        <time>2019-02-20T10:50:10.000Z</time>
      </trkpt>
      <trkpt lat="45.30776" lon="4.65934">
        <ele>653.40002441406</ele>
        <time>2019-02-20T10:50:11.000Z</time>
      </trkpt>
      <trkpt lat="45.30772" lon="4.65923">
        <ele>652.79998779297</ele>
        <time>2019-02-20T10:50:12.000Z</time>
      </trkpt>
      <trkpt lat="45.30768" lon="4.65911">
        <ele>652.40002441406</ele>
        <time>2019-02-20T10:50:13.000Z</time>
      </trkpt>
      <trkpt lat="45.30764" lon="4.659">
        <ele>652</ele>
        <time>2019-02-20T10:50:14.000Z</time>
      </trkpt>
      <trkpt lat="45.3076" lon="4.65887">
        <ele>651.20001220703</ele>
        <time>2019-02-20T10:50:15.000Z</time>
      </trkpt>
      <trkpt lat="45.30756" lon="4.65875">
        <ele>650.59997558594</ele>
        <time>2019-02-20T10:50:16.000Z</time>
      </trkpt>
      <trkpt lat="45.30752" lon="4.65863">
        <ele>649.20001220703</ele>
        <time>2019-02-20T10:50:17.000Z</time>
      </trkpt>
      <trkpt lat="45.30749" lon="4.65851">
        <ele>648.20001220703</ele>
        <time>2019-02-20T10:50:18.000Z</time>
      </trkpt>
      <trkpt lat="45.30744" lon="4.6584">
        <ele>647.59997558594</ele>
        <time>2019-02-20T10:50:19.000Z</time>
      </trkpt>
      <trkpt lat="45.3074" lon="4.6583">
        <ele>646.79998779297</ele>
        <time>2019-02-20T10:50:20.000Z</time>
      </trkpt>
      <trkpt lat="45.30737" lon="4.65821">
        <ele>646</ele>
        <time>2019-02-20T10:50:21.000Z</time>
      </trkpt>
      <trkpt lat="45.30735" lon="4.65814">
        <ele>645.20001220703</ele>
        <time>2019-02-20T10:50:22.000Z</time>
      </trkpt>
      <trkpt lat="45.30733" lon="4.65806">
        <ele>644.79998779297</ele>
        <time>2019-02-20T10:50:23.000Z</time>
      </trkpt>
      <trkpt lat="45.30731" lon="4.65797">
        <ele>644.40002441406</ele>
        <time>2019-02-20T10:50:24.000Z</time>
      </trkpt>
      <trkpt lat="45.3073" lon="4.65789">
        <ele>644.20001220703</ele>
        <time>2019-02-20T10:50:25.000Z</time>
      </trkpt>
      <trkpt lat="45.30728" lon="4.6578">
        <ele>643.79998779297</ele>
        <time>2019-02-20T10:50:26.000Z</time>
      </trkpt>
      <trkpt lat="45.30726" lon="4.6577">
        <ele>643.59997558594</ele>
        <time>2019-02-20T10:50:27.000Z</time>
      </trkpt>
      <trkpt lat="45.30725" lon="4.6576">
        <ele>643.59997558594</ele>
        <time>2019-02-20T10:50:28.000Z</time>
      </trkpt>
      <trkpt lat="45.30724" lon="4.65748">
        <ele>643.40002441406</ele>
        <time>2019-02-20T10:50:29.000Z</time>
      </trkpt>
      <trkpt lat="45.30723" lon="4.65736">
        <ele>643.20001220703</ele>
        <time>2019-02-20T10:50:30.000Z</time>
      </trkpt>
      <trkpt lat="45.30723" lon="4.65723">
        <ele>643.20001220703</ele>
        <time>2019-02-20T10:50:31.000Z</time>
      </trkpt>
      <trkpt lat="45.30724" lon="4.65709">
        <ele>642.79998779297</ele>
        <time>2019-02-20T10:50:32.000Z</time>
      </trkpt>
      <trkpt lat="45.30726" lon="4.65694">
        <ele>642.59997558594</ele>
        <time>2019-02-20T10:50:33.000Z</time>
      </trkpt>
      <trkpt lat="45.30729" lon="4.65679">
        <ele>642.40002441406</ele>
        <time>2019-02-20T10:50:34.000Z</time>
      </trkpt>
      <trkpt lat="45.30734" lon="4.65666">
        <ele>642.40002441406</ele>
        <time>2019-02-20T10:50:35.000Z</time>
      </trkpt>
      <trkpt lat="45.30739" lon="4.65654">
        <ele>642</ele>
        <time>2019-02-20T10:50:36.000Z</time>
      </trkpt>
      <trkpt lat="45.30746" lon="4.65644">
        <ele>640.79998779297</ele>
        <time>2019-02-20T10:50:37.000Z</time>
      </trkpt>
      <trkpt lat="45.30753" lon="4.65633">
        <ele>639.40002441406</ele>
        <time>2019-02-20T10:50:38.000Z</time>
      </trkpt>
      <trkpt lat="45.30761" lon="4.65624">
        <ele>637.79998779297</ele>
        <time>2019-02-20T10:50:39.000Z</time>
      </trkpt>
      <trkpt lat="45.3077" lon="4.65614">
        <ele>636.79998779297</ele>
        <time>2019-02-20T10:50:40.000Z</time>
      </trkpt>
      <trkpt lat="45.30778" lon="4.65604">
        <ele>635.79998779297</ele>
        <time>2019-02-20T10:50:41.000Z</time>
      </trkpt>
      <trkpt lat="45.30787" lon="4.65595">
        <ele>635.40002441406</ele>
        <time>2019-02-20T10:50:42.000Z</time>
      </trkpt>
      <trkpt lat="45.30796" lon="4.65588">
        <ele>635</ele>
        <time>2019-02-20T10:50:43.000Z</time>
      </trkpt>
      <trkpt lat="45.30806" lon="4.65583">
        <ele>635</ele>
        <time>2019-02-20T10:50:44.000Z</time>
      </trkpt>
      <trkpt lat="45.30816" lon="4.65579">
        <ele>634.59997558594</ele>
        <time>2019-02-20T10:50:45.000Z</time>
      </trkpt>
      <trkpt lat="45.30826" lon="4.65576">
        <ele>634.40002441406</ele>
        <time>2019-02-20T10:50:46.000Z</time>
      </trkpt>
      <trkpt lat="45.30836" lon="4.65575">
        <ele>634.20001220703</ele>
        <time>2019-02-20T10:50:47.000Z</time>
      </trkpt>
      <trkpt lat="45.30846" lon="4.65573">
        <ele>633.40002441406</ele>
        <time>2019-02-20T10:50:48.000Z</time>
      </trkpt>
      <trkpt lat="45.30857" lon="4.65573">
        <ele>632.79998779297</ele>
        <time>2019-02-20T10:50:49.000Z</time>
      </trkpt>
      <trkpt lat="45.30867" lon="4.65574">
        <ele>631.79998779297</ele>
        <time>2019-02-20T10:50:50.000Z</time>
      </trkpt>
      <trkpt lat="45.30877" lon="4.65575">
        <ele>630</ele>
        <time>2019-02-20T10:50:51.000Z</time>
      </trkpt>
      <trkpt lat="45.30887" lon="4.65577">
        <ele>629.20001220703</ele>
        <time>2019-02-20T10:50:52.000Z</time>
      </trkpt>
      <trkpt lat="45.30896" lon="4.65578">
        <ele>628.40002441406</ele>
        <time>2019-02-20T10:50:53.000Z</time>
      </trkpt>
      <trkpt lat="45.30906" lon="4.6558">
        <ele>627.79998779297</ele>
        <time>2019-02-20T10:50:54.000Z</time>
      </trkpt>
      <trkpt lat="45.30915" lon="4.65582">
        <ele>627.40002441406</ele>
        <time>2019-02-20T10:50:55.000Z</time>
      </trkpt>
      <trkpt lat="45.30925" lon="4.65583">
        <ele>626.79998779297</ele>
        <time>2019-02-20T10:50:56.000Z</time>
      </trkpt>
      <trkpt lat="45.30935" lon="4.65586">
        <ele>626.59997558594</ele>
        <time>2019-02-20T10:50:57.000Z</time>
      </trkpt>
      <trkpt lat="45.30944" lon="4.6559">
        <ele>625.79998779297</ele>
        <time>2019-02-20T10:50:58.000Z</time>
      </trkpt>
      <trkpt lat="45.30954" lon="4.65596">
        <ele>625.20001220703</ele>
        <time>2019-02-20T10:50:59.000Z</time>
      </trkpt>
      <trkpt lat="45.30963" lon="4.65602">
        <ele>624.20001220703</ele>
        <time>2019-02-20T10:51:00.000Z</time>
      </trkpt>
      <trkpt lat="45.30971" lon="4.6561">
        <ele>623.59997558594</ele>
        <time>2019-02-20T10:51:01.000Z</time>
      </trkpt>
      <trkpt lat="45.3098" lon="4.65616">
        <ele>622.79998779297</ele>
        <time>2019-02-20T10:51:02.000Z</time>
      </trkpt>
      <trkpt lat="45.30989" lon="4.65621">
        <ele>621.59997558594</ele>
        <time>2019-02-20T10:51:03.000Z</time>
      </trkpt>
      <trkpt lat="45.30998" lon="4.65623">
        <ele>617.79998779297</ele>
        <time>2019-02-20T10:51:04.000Z</time>
      </trkpt>
      <trkpt lat="45.31006" lon="4.65624">
        <ele>616.59997558594</ele>
        <time>2019-02-20T10:51:05.000Z</time>
      </trkpt>
      <trkpt lat="45.31015" lon="4.65624">
        <ele>615.20001220703</ele>
        <time>2019-02-20T10:51:06.000Z</time>
      </trkpt>
      <trkpt lat="45.31023" lon="4.65625">
        <ele>613.59997558594</ele>
        <time>2019-02-20T10:51:07.000Z</time>
      </trkpt>
      <trkpt lat="45.31031" lon="4.65625">
        <ele>612.79998779297</ele>
        <time>2019-02-20T10:51:08.000Z</time>
      </trkpt>
      <trkpt lat="45.31039" lon="4.65626">
        <ele>612.20001220703</ele>
        <time>2019-02-20T10:51:09.000Z</time>
      </trkpt>
      <trkpt lat="45.31047" lon="4.65627">
        <ele>611.59997558594</ele>
        <time>2019-02-20T10:51:10.000Z</time>
      </trkpt>
      <trkpt lat="45.31055" lon="4.65629">
        <ele>611.20001220703</ele>
        <time>2019-02-20T10:51:11.000Z</time>
      </trkpt>
      <trkpt lat="45.3106" lon="4.6563">
        <ele>611</ele>
        <time>2019-02-20T10:51:12.000Z</time>
      </trkpt>
      <trkpt lat="45.31062" lon="4.65631">
        <ele>610.59997558594</ele>
        <time>2019-02-20T10:51:13.000Z</time>
      </trkpt>
      <trkpt lat="45.31063" lon="4.65631">
        <ele>610.40002441406</ele>
        <time>2019-02-20T10:51:14.000Z</time>
      </trkpt>
      <trkpt lat="45.31064" lon="4.65631">
        <ele>610.40002441406</ele>
        <time>2019-02-20T10:51:15.000Z</time>
      </trkpt>
      <trkpt lat="45.31063" lon="4.65632">
        <ele>610.59997558594</ele>
        <time>2019-02-20T10:51:16.000Z</time>
      </trkpt>
      <trkpt lat="45.31068" lon="4.65627">
        <ele>610.40002441406</ele>
        <time>2019-02-20T10:51:58.000Z</time>
      </trkpt>
      <trkpt lat="45.31069" lon="4.65624">
        <ele>610.40002441406</ele>
        <time>2019-02-20T10:51:59.000Z</time>
      </trkpt>
      <trkpt lat="45.31069" lon="4.65619">
        <ele>610.40002441406</ele>
        <time>2019-02-20T10:52:00.000Z</time>
      </trkpt>
      <trkpt lat="45.31069" lon="4.65613">
        <ele>610.40002441406</ele>
        <time>2019-02-20T10:52:01.000Z</time>
      </trkpt>
      <trkpt lat="45.31069" lon="4.65606">
        <ele>610.40002441406</ele>
        <time>2019-02-20T10:52:02.000Z</time>
      </trkpt>
      <trkpt lat="45.31066" lon="4.656">
        <ele>610.20001220703</ele>
        <time>2019-02-20T10:52:03.000Z</time>
      </trkpt>
      <trkpt lat="45.31063" lon="4.65595">
        <ele>610.40002441406</ele>
        <time>2019-02-20T10:52:04.000Z</time>
      </trkpt>
      <trkpt lat="45.31058" lon="4.6559">
        <ele>610.20001220703</ele>
        <time>2019-02-20T10:52:05.000Z</time>
      </trkpt>
      <trkpt lat="45.31052" lon="4.65585">
        <ele>610.20001220703</ele>
        <time>2019-02-20T10:52:06.000Z</time>
      </trkpt>
      <trkpt lat="45.31046" lon="4.6558">
        <ele>610</ele>
        <time>2019-02-20T10:52:07.000Z</time>
      </trkpt>
      <trkpt lat="45.3104" lon="4.65575">
        <ele>609.40002441406</ele>
        <time>2019-02-20T10:52:08.000Z</time>
      </trkpt>
      <trkpt lat="45.31033" lon="4.65569">
        <ele>608.79998779297</ele>
        <time>2019-02-20T10:52:09.000Z</time>
      </trkpt>
      <trkpt lat="45.31027" lon="4.65564">
        <ele>608</ele>
        <time>2019-02-20T10:52:10.000Z</time>
      </trkpt>
      <trkpt lat="45.3102" lon="4.65558">
        <ele>606.59997558594</ele>
        <time>2019-02-20T10:52:11.000Z</time>
      </trkpt>
      <trkpt lat="45.31012" lon="4.65551">
        <ele>604.79998779297</ele>
        <time>2019-02-20T10:52:12.000Z</time>
      </trkpt>
      <trkpt lat="45.31005" lon="4.65544">
        <ele>603.79998779297</ele>
        <time>2019-02-20T10:52:13.000Z</time>
      </trkpt>
      <trkpt lat="45.30999" lon="4.65537">
        <ele>603.40002441406</ele>
        <time>2019-02-20T10:52:14.000Z</time>
      </trkpt>
      <trkpt lat="45.30992" lon="4.65528">
        <ele>602.59997558594</ele>
        <time>2019-02-20T10:52:15.000Z</time>
      </trkpt>
      <trkpt lat="45.30985" lon="4.65519">
        <ele>602.20001220703</ele>
        <time>2019-02-20T10:52:16.000Z</time>
      </trkpt>
      <trkpt lat="45.30978" lon="4.6551">
        <ele>601.59997558594</ele>
        <time>2019-02-20T10:52:17.000Z</time>
      </trkpt>
      <trkpt lat="45.30971" lon="4.65501">
        <ele>600.59997558594</ele>
        <time>2019-02-20T10:52:18.000Z</time>
      </trkpt>
      <trkpt lat="45.30964" lon="4.65492">
        <ele>599.79998779297</ele>
        <time>2019-02-20T10:52:19.000Z</time>
      </trkpt>
      <trkpt lat="45.30957" lon="4.65482">
        <ele>599</ele>
        <time>2019-02-20T10:52:20.000Z</time>
      </trkpt>
      <trkpt lat="45.3095" lon="4.65473">
        <ele>598.20001220703</ele>
        <time>2019-02-20T10:52:21.000Z</time>
      </trkpt>
      <trkpt lat="45.30942" lon="4.65464">
        <ele>597.59997558594</ele>
        <time>2019-02-20T10:52:22.000Z</time>
      </trkpt>
      <trkpt lat="45.30934" lon="4.65456">
        <ele>596.40002441406</ele>
        <time>2019-02-20T10:52:23.000Z</time>
      </trkpt>
      <trkpt lat="45.30926" lon="4.65448">
        <ele>595.59997558594</ele>
        <time>2019-02-20T10:52:24.000Z</time>
      </trkpt>
      <trkpt lat="45.30918" lon="4.65441">
        <ele>595</ele>
        <time>2019-02-20T10:52:25.000Z</time>
      </trkpt>
      <trkpt lat="45.3091" lon="4.65433">
        <ele>594.40002441406</ele>
        <time>2019-02-20T10:52:26.000Z</time>
      </trkpt>
      <trkpt lat="45.30902" lon="4.65426">
        <ele>593.40002441406</ele>
        <time>2019-02-20T10:52:27.000Z</time>
      </trkpt>
      <trkpt lat="45.30894" lon="4.65418">
        <ele>592.40002441406</ele>
        <time>2019-02-20T10:52:28.000Z</time>
      </trkpt>
      <trkpt lat="45.30887" lon="4.6541">
        <ele>592</ele>
        <time>2019-02-20T10:52:29.000Z</time>
      </trkpt>
      <trkpt lat="45.30879" lon="4.65402">
        <ele>591.59997558594</ele>
        <time>2019-02-20T10:52:30.000Z</time>
      </trkpt>
      <trkpt lat="45.30871" lon="4.65395">
        <ele>591</ele>
        <time>2019-02-20T10:52:31.000Z</time>
      </trkpt>
      <trkpt lat="45.30863" lon="4.65387">
        <ele>590.20001220703</ele>
        <time>2019-02-20T10:52:32.000Z</time>
      </trkpt>
      <trkpt lat="45.30856" lon="4.6538">
        <ele>589.40002441406</ele>
        <time>2019-02-20T10:52:33.000Z</time>
      </trkpt>
      <trkpt lat="45.30848" lon="4.65372">
        <ele>588.79998779297</ele>
        <time>2019-02-20T10:52:34.000Z</time>
      </trkpt>
      <trkpt lat="45.3084" lon="4.65366">
        <ele>588.40002441406</ele>
        <time>2019-02-20T10:52:35.000Z</time>
      </trkpt>
      <trkpt lat="45.30833" lon="4.65359">
        <ele>588</ele>
        <time>2019-02-20T10:52:36.000Z</time>
      </trkpt>
      <trkpt lat="45.30828" lon="4.65352">
        <ele>587.40002441406</ele>
        <time>2019-02-20T10:52:37.000Z</time>
      </trkpt>
      <trkpt lat="45.30823" lon="4.65345">
        <ele>587.20001220703</ele>
        <time>2019-02-20T10:52:38.000Z</time>
      </trkpt>
      <trkpt lat="45.3082" lon="4.65337">
        <ele>586.79998779297</ele>
        <time>2019-02-20T10:52:39.000Z</time>
      </trkpt>
      <trkpt lat="45.3082" lon="4.6533">
        <ele>586.59997558594</ele>
        <time>2019-02-20T10:52:40.000Z</time>
      </trkpt>
      <trkpt lat="45.30821" lon="4.65323">
        <ele>586.20001220703</ele>
        <time>2019-02-20T10:52:41.000Z</time>
      </trkpt>
      <trkpt lat="45.30823" lon="4.65316">
        <ele>585.59997558594</ele>
        <time>2019-02-20T10:52:42.000Z</time>
      </trkpt>
      <trkpt lat="45.30825" lon="4.65311">
        <ele>585.20001220703</ele>
        <time>2019-02-20T10:52:43.000Z</time>
      </trkpt>
      <trkpt lat="45.30827" lon="4.65305">
        <ele>584.40002441406</ele>
        <time>2019-02-20T10:52:44.000Z</time>
      </trkpt>
      <trkpt lat="45.30829" lon="4.653">
        <ele>583.59997558594</ele>
        <time>2019-02-20T10:52:45.000Z</time>
      </trkpt>
      <trkpt lat="45.30831" lon="4.65295">
        <ele>583</ele>
        <time>2019-02-20T10:52:46.000Z</time>
      </trkpt>
      <trkpt lat="45.30834" lon="4.65291">
        <ele>582.79998779297</ele>
        <time>2019-02-20T10:52:47.000Z</time>
      </trkpt>
      <trkpt lat="45.30836" lon="4.65287">
        <ele>582.59997558594</ele>
        <time>2019-02-20T10:52:48.000Z</time>
      </trkpt>
      <trkpt lat="45.30837" lon="4.65283">
        <ele>582.79998779297</ele>
        <time>2019-02-20T10:52:49.000Z</time>
      </trkpt>
      <trkpt lat="45.30839" lon="4.65279">
        <ele>582.59997558594</ele>
        <time>2019-02-20T10:52:50.000Z</time>
      </trkpt>
      <trkpt lat="45.3084" lon="4.65275">
        <ele>582.59997558594</ele>
        <time>2019-02-20T10:52:51.000Z</time>
      </trkpt>
      <trkpt lat="45.30841" lon="4.65271">
        <ele>582.59997558594</ele>
        <time>2019-02-20T10:52:52.000Z</time>
      </trkpt>
      <trkpt lat="45.30843" lon="4.65266">
        <ele>582.59997558594</ele>
        <time>2019-02-20T10:52:53.000Z</time>
      </trkpt>
      <trkpt lat="45.30845" lon="4.65261">
        <ele>582.59997558594</ele>
        <time>2019-02-20T10:52:54.000Z</time>
      </trkpt>
      <trkpt lat="45.30846" lon="4.65256">
        <ele>582.79998779297</ele>
        <time>2019-02-20T10:52:55.000Z</time>
      </trkpt>
      <trkpt lat="45.30847" lon="4.65251">
        <ele>582.59997558594</ele>
        <time>2019-02-20T10:52:56.000Z</time>
      </trkpt>
      <trkpt lat="45.30848" lon="4.65247">
        <ele>582.79998779297</ele>
        <time>2019-02-20T10:52:57.000Z</time>
      </trkpt>
      <trkpt lat="45.30848" lon="4.65243">
        <ele>582.79998779297</ele>
        <time>2019-02-20T10:52:58.000Z</time>
      </trkpt>
      <trkpt lat="45.30847" lon="4.65238">
        <ele>582.59997558594</ele>
        <time>2019-02-20T10:52:59.000Z</time>
      </trkpt>
      <trkpt lat="45.30845" lon="4.65233">
        <ele>582.79998779297</ele>
        <time>2019-02-20T10:53:00.000Z</time>
      </trkpt>
      <trkpt lat="45.30842" lon="4.6523">
        <ele>582.79998779297</ele>
        <time>2019-02-20T10:53:01.000Z</time>
      </trkpt>
      <trkpt lat="45.30838" lon="4.65229">
        <ele>582.59997558594</ele>
        <time>2019-02-20T10:53:02.000Z</time>
      </trkpt>
      <trkpt lat="45.30833" lon="4.6523">
        <ele>582.59997558594</ele>
        <time>2019-02-20T10:53:03.000Z</time>
      </trkpt>
      <trkpt lat="45.30829" lon="4.65233">
        <ele>582.59997558594</ele>
        <time>2019-02-20T10:53:04.000Z</time>
      </trkpt>
      <trkpt lat="45.30825" lon="4.65236">
        <ele>582.59997558594</ele>
        <time>2019-02-20T10:53:05.000Z</time>
      </trkpt>
      <trkpt lat="45.30821" lon="4.65238">
        <ele>582.59997558594</ele>
        <time>2019-02-20T10:53:06.000Z</time>
      </trkpt>
      <trkpt lat="45.30817" lon="4.65241">
        <ele>582.40002441406</ele>
        <time>2019-02-20T10:53:07.000Z</time>
      </trkpt>
      <trkpt lat="45.30813" lon="4.65244">
        <ele>582.20001220703</ele>
        <time>2019-02-20T10:53:08.000Z</time>
      </trkpt>
      <trkpt lat="45.3081" lon="4.65246">
        <ele>581.79998779297</ele>
        <time>2019-02-20T10:53:09.000Z</time>
      </trkpt>
      <trkpt lat="45.30806" lon="4.65248">
        <ele>581.79998779297</ele>
        <time>2019-02-20T10:53:10.000Z</time>
      </trkpt>
      <trkpt lat="45.30802" lon="4.6525">
        <ele>581.59997558594</ele>
        <time>2019-02-20T10:53:11.000Z</time>
      </trkpt>
      <trkpt lat="45.30799" lon="4.65253">
        <ele>581.40002441406</ele>
        <time>2019-02-20T10:53:12.000Z</time>
      </trkpt>
      <trkpt lat="45.30795" lon="4.65255">
        <ele>581.20001220703</ele>
        <time>2019-02-20T10:53:13.000Z</time>
      </trkpt>
      <trkpt lat="45.30791" lon="4.65257">
        <ele>581.20001220703</ele>
        <time>2019-02-20T10:53:14.000Z</time>
      </trkpt>
      <trkpt lat="45.30788" lon="4.65258">
        <ele>581.20001220703</ele>
        <time>2019-02-20T10:53:15.000Z</time>
      </trkpt>
      <trkpt lat="45.30784" lon="4.6526">
        <ele>581</ele>
        <time>2019-02-20T10:53:16.000Z</time>
      </trkpt>
      <trkpt lat="45.30781" lon="4.65261">
        <ele>581</ele>
        <time>2019-02-20T10:53:17.000Z</time>
      </trkpt>
      <trkpt lat="45.30778" lon="4.65262">
        <ele>581</ele>
        <time>2019-02-20T10:53:18.000Z</time>
      </trkpt>
      <trkpt lat="45.30776" lon="4.65263">
        <ele>581.20001220703</ele>
        <time>2019-02-20T10:53:19.000Z</time>
      </trkpt>
      <trkpt lat="45.30773" lon="4.65263">
        <ele>581.20001220703</ele>
        <time>2019-02-20T10:53:20.000Z</time>
      </trkpt>
      <trkpt lat="45.30771" lon="4.65263">
        <ele>581.20001220703</ele>
        <time>2019-02-20T10:53:21.000Z</time>
      </trkpt>
      <trkpt lat="45.30768" lon="4.65263">
        <ele>581.20001220703</ele>
        <time>2019-02-20T10:53:22.000Z</time>
      </trkpt>
      <trkpt lat="45.30765" lon="4.65262">
        <ele>581.20001220703</ele>
        <time>2019-02-20T10:53:23.000Z</time>
      </trkpt>
      <trkpt lat="45.30763" lon="4.65262">
        <ele>581.40002441406</ele>
        <time>2019-02-20T10:53:24.000Z</time>
      </trkpt>
      <trkpt lat="45.3076" lon="4.65261">
        <ele>581.40002441406</ele>
        <time>2019-02-20T10:53:25.000Z</time>
      </trkpt>
      <trkpt lat="45.30758" lon="4.6526">
        <ele>581.40002441406</ele>
        <time>2019-02-20T10:53:26.000Z</time>
      </trkpt>
      <trkpt lat="45.30756" lon="4.6526">
        <ele>581.59997558594</ele>
        <time>2019-02-20T10:53:27.000Z</time>
      </trkpt>
      <trkpt lat="45.30754" lon="4.65259">
        <ele>581.59997558594</ele>
        <time>2019-02-20T10:53:28.000Z</time>
      </trkpt>
      <trkpt lat="45.30752" lon="4.65258">
        <ele>581.79998779297</ele>
        <time>2019-02-20T10:53:29.000Z</time>
      </trkpt>
      <trkpt lat="45.3075" lon="4.65257">
        <ele>582.20001220703</ele>
        <time>2019-02-20T10:53:30.000Z</time>
      </trkpt>
      <trkpt lat="45.30748" lon="4.65256">
        <ele>582.40002441406</ele>
        <time>2019-02-20T10:53:31.000Z</time>
      </trkpt>
      <trkpt lat="45.30747" lon="4.65256">
        <ele>582.79998779297</ele>
        <time>2019-02-20T10:53:32.000Z</time>
      </trkpt>
      <trkpt lat="45.30745" lon="4.65255">
        <ele>583.20001220703</ele>
        <time>2019-02-20T10:53:33.000Z</time>
      </trkpt>
      <trkpt lat="45.30744" lon="4.65254">
        <ele>583.40002441406</ele>
        <time>2019-02-20T10:53:34.000Z</time>
      </trkpt>
      <trkpt lat="45.30742" lon="4.65254">
        <ele>583.59997558594</ele>
        <time>2019-02-20T10:53:35.000Z</time>
      </trkpt>
      <trkpt lat="45.30741" lon="4.65254">
        <ele>583.59997558594</ele>
        <time>2019-02-20T10:53:36.000Z</time>
      </trkpt>
      <trkpt lat="45.30739" lon="4.65253">
        <ele>583.59997558594</ele>
        <time>2019-02-20T10:53:37.000Z</time>
      </trkpt>
      <trkpt lat="45.30737" lon="4.65253">
        <ele>583.79998779297</ele>
        <time>2019-02-20T10:53:38.000Z</time>
      </trkpt>
      <trkpt lat="45.30735" lon="4.65252">
        <ele>584</ele>
        <time>2019-02-20T10:53:39.000Z</time>
      </trkpt>
      <trkpt lat="45.30733" lon="4.65251">
        <ele>584.20001220703</ele>
        <time>2019-02-20T10:53:40.000Z</time>
      </trkpt>
      <trkpt lat="45.30731" lon="4.65251">
        <ele>584.20001220703</ele>
        <time>2019-02-20T10:53:41.000Z</time>
      </trkpt>
      <trkpt lat="45.3073" lon="4.65251">
        <ele>584.20001220703</ele>
        <time>2019-02-20T10:53:42.000Z</time>
      </trkpt>
      <trkpt lat="45.30728" lon="4.6525">
        <ele>584.40002441406</ele>
        <time>2019-02-20T10:53:43.000Z</time>
      </trkpt>
      <trkpt lat="45.30727" lon="4.6525">
        <ele>584.59997558594</ele>
        <time>2019-02-20T10:53:44.000Z</time>
      </trkpt>
      <trkpt lat="45.30725" lon="4.6525">
        <ele>584.59997558594</ele>
        <time>2019-02-20T10:53:45.000Z</time>
      </trkpt>
      <trkpt lat="45.30723" lon="4.6525">
        <ele>584.79998779297</ele>
        <time>2019-02-20T10:53:46.000Z</time>
      </trkpt>
      <trkpt lat="45.30721" lon="4.6525">
        <ele>585</ele>
        <time>2019-02-20T10:53:47.000Z</time>
      </trkpt>
      <trkpt lat="45.30719" lon="4.6525">
        <ele>585.20001220703</ele>
        <time>2019-02-20T10:53:48.000Z</time>
      </trkpt>
      <trkpt lat="45.30717" lon="4.65251">
        <ele>585.40002441406</ele>
        <time>2019-02-20T10:53:49.000Z</time>
      </trkpt>
      <trkpt lat="45.30715" lon="4.65254">
        <ele>585.59997558594</ele>
        <time>2019-02-20T10:53:50.000Z</time>
      </trkpt>
      <trkpt lat="45.30713" lon="4.65256">
        <ele>586</ele>
        <time>2019-02-20T10:53:51.000Z</time>
      </trkpt>
      <trkpt lat="45.30712" lon="4.65259">
        <ele>586.20001220703</ele>
        <time>2019-02-20T10:53:52.000Z</time>
      </trkpt>
      <trkpt lat="45.30711" lon="4.65261">
        <ele>586.59997558594</ele>
        <time>2019-02-20T10:53:53.000Z</time>
      </trkpt>
      <trkpt lat="45.3071" lon="4.65263">
        <ele>586.59997558594</ele>
        <time>2019-02-20T10:53:54.000Z</time>
      </trkpt>
      <trkpt lat="45.30708" lon="4.65264">
        <ele>586.79998779297</ele>
        <time>2019-02-20T10:53:55.000Z</time>
      </trkpt>
      <trkpt lat="45.30707" lon="4.65265">
        <ele>586.79998779297</ele>
        <time>2019-02-20T10:53:56.000Z</time>
      </trkpt>
      <trkpt lat="45.30706" lon="4.65266">
        <ele>587.20001220703</ele>
        <time>2019-02-20T10:53:57.000Z</time>
      </trkpt>
      <trkpt lat="45.30704" lon="4.65268">
        <ele>587.40002441406</ele>
        <time>2019-02-20T10:53:58.000Z</time>
      </trkpt>
      <trkpt lat="45.30703" lon="4.65271">
        <ele>588</ele>
        <time>2019-02-20T10:53:59.000Z</time>
      </trkpt>
      <trkpt lat="45.30701" lon="4.65274">
        <ele>588.40002441406</ele>
        <time>2019-02-20T10:54:00.000Z</time>
      </trkpt>
      <trkpt lat="45.307" lon="4.65276">
        <ele>588.40002441406</ele>
        <time>2019-02-20T10:54:01.000Z</time>
      </trkpt>
      <trkpt lat="45.30698" lon="4.65279">
        <ele>588.59997558594</ele>
        <time>2019-02-20T10:54:02.000Z</time>
      </trkpt>
      <trkpt lat="45.30697" lon="4.6528">
        <ele>588.79998779297</ele>
        <time>2019-02-20T10:54:03.000Z</time>
      </trkpt>
      <trkpt lat="45.30695" lon="4.65282">
        <ele>589</ele>
        <time>2019-02-20T10:54:04.000Z</time>
      </trkpt>
      <trkpt lat="45.30693" lon="4.65284">
        <ele>589.40002441406</ele>
        <time>2019-02-20T10:54:05.000Z</time>
      </trkpt>
      <trkpt lat="45.30692" lon="4.65286">
        <ele>589.59997558594</ele>
        <time>2019-02-20T10:54:06.000Z</time>
      </trkpt>
      <trkpt lat="45.3069" lon="4.65287">
        <ele>589.59997558594</ele>
        <time>2019-02-20T10:54:07.000Z</time>
      </trkpt>
      <trkpt lat="45.30688" lon="4.65289">
        <ele>590</ele>
        <time>2019-02-20T10:54:08.000Z</time>
      </trkpt>
      <trkpt lat="45.30685" lon="4.65291">
        <ele>590.20001220703</ele>
        <time>2019-02-20T10:54:09.000Z</time>
      </trkpt>
      <trkpt lat="45.30683" lon="4.65292">
        <ele>590.20001220703</ele>
        <time>2019-02-20T10:54:10.000Z</time>
      </trkpt>
      <trkpt lat="45.30681" lon="4.65294">
        <ele>590.79998779297</ele>
        <time>2019-02-20T10:54:11.000Z</time>
      </trkpt>
      <trkpt lat="45.30678" lon="4.65295">
        <ele>591</ele>
        <time>2019-02-20T10:54:12.000Z</time>
      </trkpt>
      <trkpt lat="45.30676" lon="4.65297">
        <ele>591.40002441406</ele>
        <time>2019-02-20T10:54:13.000Z</time>
      </trkpt>
      <trkpt lat="45.30674" lon="4.65298">
        <ele>591.40002441406</ele>
        <time>2019-02-20T10:54:14.000Z</time>
      </trkpt>
      <trkpt lat="45.30671" lon="4.65299">
        <ele>591.59997558594</ele>
        <time>2019-02-20T10:54:15.000Z</time>
      </trkpt>
      <trkpt lat="45.30669" lon="4.653">
        <ele>591.79998779297</ele>
        <time>2019-02-20T10:54:16.000Z</time>
      </trkpt>
      <trkpt lat="45.30666" lon="4.65301">
        <ele>591.79998779297</ele>
        <time>2019-02-20T10:54:17.000Z</time>
      </trkpt>
      <trkpt lat="45.30664" lon="4.65302">
        <ele>591.79998779297</ele>
        <time>2019-02-20T10:54:18.000Z</time>
      </trkpt>
      <trkpt lat="45.30662" lon="4.65303">
        <ele>592</ele>
        <time>2019-02-20T10:54:19.000Z</time>
      </trkpt>
      <trkpt lat="45.3066" lon="4.65304">
        <ele>592</ele>
        <time>2019-02-20T10:54:20.000Z</time>
      </trkpt>
      <trkpt lat="45.30658" lon="4.65305">
        <ele>592</ele>
        <time>2019-02-20T10:54:21.000Z</time>
      </trkpt>
      <trkpt lat="45.30655" lon="4.65307">
        <ele>592.20001220703</ele>
        <time>2019-02-20T10:54:22.000Z</time>
      </trkpt>
      <trkpt lat="45.30653" lon="4.65308">
        <ele>592.20001220703</ele>
        <time>2019-02-20T10:54:23.000Z</time>
      </trkpt>
      <trkpt lat="45.30651" lon="4.65309">
        <ele>592.20001220703</ele>
        <time>2019-02-20T10:54:24.000Z</time>
      </trkpt>
      <trkpt lat="45.3065" lon="4.6531">
        <ele>592.40002441406</ele>
        <time>2019-02-20T10:54:25.000Z</time>
      </trkpt>
      <trkpt lat="45.30648" lon="4.65311">
        <ele>592.59997558594</ele>
        <time>2019-02-20T10:54:26.000Z</time>
      </trkpt>
      <trkpt lat="45.30647" lon="4.65312">
        <ele>592.79998779297</ele>
        <time>2019-02-20T10:54:27.000Z</time>
      </trkpt>
      <trkpt lat="45.30645" lon="4.65313">
        <ele>592.79998779297</ele>
        <time>2019-02-20T10:54:28.000Z</time>
      </trkpt>
      <trkpt lat="45.30644" lon="4.65314">
        <ele>593</ele>
        <time>2019-02-20T10:54:29.000Z</time>
      </trkpt>
      <trkpt lat="45.30642" lon="4.65315">
        <ele>593.20001220703</ele>
        <time>2019-02-20T10:54:30.000Z</time>
      </trkpt>
      <trkpt lat="45.3064" lon="4.65316">
        <ele>593.20001220703</ele>
        <time>2019-02-20T10:54:31.000Z</time>
      </trkpt>
      <trkpt lat="45.30638" lon="4.65316">
        <ele>593.40002441406</ele>
        <time>2019-02-20T10:54:32.000Z</time>
      </trkpt>
      <trkpt lat="45.30636" lon="4.65317">
        <ele>593.40002441406</ele>
        <time>2019-02-20T10:54:33.000Z</time>
      </trkpt>
      <trkpt lat="45.30634" lon="4.65318">
        <ele>593.40002441406</ele>
        <time>2019-02-20T10:54:34.000Z</time>
      </trkpt>
      <trkpt lat="45.30632" lon="4.65318">
        <ele>593.40002441406</ele>
        <time>2019-02-20T10:54:35.000Z</time>
      </trkpt>
      <trkpt lat="45.30631" lon="4.65319">
        <ele>593.59997558594</ele>
        <time>2019-02-20T10:54:36.000Z</time>
      </trkpt>
      <trkpt lat="45.30631" lon="4.65319">
        <ele>593.59997558594</ele>
        <time>2019-02-20T10:54:37.000Z</time>
      </trkpt>
      <trkpt lat="45.30625" lon="4.65322">
        <ele>593.79998779297</ele>
        <time>2019-02-20T10:55:47.000Z</time>
      </trkpt>
      <trkpt lat="45.30622" lon="4.65324">
        <ele>593.79998779297</ele>
        <time>2019-02-20T10:55:48.000Z</time>
      </trkpt>
      <trkpt lat="45.30617" lon="4.65326">
        <ele>594</ele>
        <time>2019-02-20T10:55:49.000Z</time>
      </trkpt>
      <trkpt lat="45.30612" lon="4.65329">
        <ele>594</ele>
        <time>2019-02-20T10:55:50.000Z</time>
      </trkpt>
      <trkpt lat="45.30607" lon="4.65332">
        <ele>594</ele>
        <time>2019-02-20T10:55:51.000Z</time>
      </trkpt>
      <trkpt lat="45.306" lon="4.65335">
        <ele>594</ele>
        <time>2019-02-20T10:55:52.000Z</time>
      </trkpt>
      <trkpt lat="45.30595" lon="4.65337">
        <ele>593.79998779297</ele>
        <time>2019-02-20T10:55:53.000Z</time>
      </trkpt>
      <trkpt lat="45.30589" lon="4.65338">
        <ele>594</ele>
        <time>2019-02-20T10:55:54.000Z</time>
      </trkpt>
      <trkpt lat="45.30583" lon="4.6534">
        <ele>593.79998779297</ele>
        <time>2019-02-20T10:55:55.000Z</time>
      </trkpt>
      <trkpt lat="45.30576" lon="4.65342">
        <ele>593.79998779297</ele>
        <time>2019-02-20T10:55:56.000Z</time>
      </trkpt>
      <trkpt lat="45.30569" lon="4.65344">
        <ele>593.59997558594</ele>
        <time>2019-02-20T10:55:57.000Z</time>
      </trkpt>
      <trkpt lat="45.30562" lon="4.65346">
        <ele>593.40002441406</ele>
        <time>2019-02-20T10:55:58.000Z</time>
      </trkpt>
      <trkpt lat="45.30556" lon="4.65349">
        <ele>593.20001220703</ele>
        <time>2019-02-20T10:55:59.000Z</time>
      </trkpt>
      <trkpt lat="45.3055" lon="4.65352">
        <ele>593.20001220703</ele>
        <time>2019-02-20T10:56:00.000Z</time>
      </trkpt>
      <trkpt lat="45.30544" lon="4.65356">
        <ele>593.20001220703</ele>
        <time>2019-02-20T10:56:01.000Z</time>
      </trkpt>
      <trkpt lat="45.30538" lon="4.6536">
        <ele>593.20001220703</ele>
        <time>2019-02-20T10:56:02.000Z</time>
      </trkpt>
      <trkpt lat="45.30532" lon="4.65365">
        <ele>593</ele>
        <time>2019-02-20T10:56:03.000Z</time>
      </trkpt>
      <trkpt lat="45.30527" lon="4.6537">
        <ele>592.79998779297</ele>
        <time>2019-02-20T10:56:04.000Z</time>
      </trkpt>
      <trkpt lat="45.30523" lon="4.65376">
        <ele>592.79998779297</ele>
        <time>2019-02-20T10:56:05.000Z</time>
      </trkpt>
      <trkpt lat="45.30519" lon="4.65381">
        <ele>592.79998779297</ele>
        <time>2019-02-20T10:56:06.000Z</time>
      </trkpt>
      <trkpt lat="45.30515" lon="4.65387">
        <ele>592.79998779297</ele>
        <time>2019-02-20T10:56:07.000Z</time>
      </trkpt>
      <trkpt lat="45.3051" lon="4.65392">
        <ele>592.79998779297</ele>
        <time>2019-02-20T10:56:08.000Z</time>
      </trkpt>
      <trkpt lat="45.30506" lon="4.65397">
        <ele>592.59997558594</ele>
        <time>2019-02-20T10:56:09.000Z</time>
      </trkpt>
      <trkpt lat="45.30501" lon="4.65401">
        <ele>592.79998779297</ele>
        <time>2019-02-20T10:56:10.000Z</time>
      </trkpt>
      <trkpt lat="45.30496" lon="4.65406">
        <ele>593</ele>
        <time>2019-02-20T10:56:11.000Z</time>
      </trkpt>
      <trkpt lat="45.30491" lon="4.65411">
        <ele>593</ele>
        <time>2019-02-20T10:56:12.000Z</time>
      </trkpt>
      <trkpt lat="45.30486" lon="4.65414">
        <ele>592.79998779297</ele>
        <time>2019-02-20T10:56:13.000Z</time>
      </trkpt>
      <trkpt lat="45.3048" lon="4.65418">
        <ele>593</ele>
        <time>2019-02-20T10:56:14.000Z</time>
      </trkpt>
      <trkpt lat="45.30474" lon="4.65422">
        <ele>593.40002441406</ele>
        <time>2019-02-20T10:56:15.000Z</time>
      </trkpt>
      <trkpt lat="45.30468" lon="4.65425">
        <ele>593.59997558594</ele>
        <time>2019-02-20T10:56:16.000Z</time>
      </trkpt>
      <trkpt lat="45.30463" lon="4.65429">
        <ele>593.79998779297</ele>
        <time>2019-02-20T10:56:17.000Z</time>
      </trkpt>
      <trkpt lat="45.30458" lon="4.65432">
        <ele>593.79998779297</ele>
        <time>2019-02-20T10:56:18.000Z</time>
      </trkpt>
      <trkpt lat="45.30452" lon="4.65434">
        <ele>593.79998779297</ele>
        <time>2019-02-20T10:56:19.000Z</time>
      </trkpt>
      <trkpt lat="45.30446" lon="4.65436">
        <ele>593.79998779297</ele>
        <time>2019-02-20T10:56:20.000Z</time>
      </trkpt>
      <trkpt lat="45.30439" lon="4.65437">
        <ele>593.79998779297</ele>
        <time>2019-02-20T10:56:21.000Z</time>
      </trkpt>
      <trkpt lat="45.30433" lon="4.65437">
        <ele>594</ele>
        <time>2019-02-20T10:56:22.000Z</time>
      </trkpt>
      <trkpt lat="45.30428" lon="4.65436">
        <ele>593.79998779297</ele>
        <time>2019-02-20T10:56:23.000Z</time>
      </trkpt>
      <trkpt lat="45.30423" lon="4.65434">
        <ele>594</ele>
        <time>2019-02-20T10:56:24.000Z</time>
      </trkpt>
      <trkpt lat="45.30417" lon="4.65432">
        <ele>594</ele>
        <time>2019-02-20T10:56:25.000Z</time>
      </trkpt>
      <trkpt lat="45.30412" lon="4.65431">
        <ele>594.20001220703</ele>
        <time>2019-02-20T10:56:26.000Z</time>
      </trkpt>
      <trkpt lat="45.30407" lon="4.65428">
        <ele>594.20001220703</ele>
        <time>2019-02-20T10:56:27.000Z</time>
      </trkpt>
      <trkpt lat="45.30402" lon="4.65425">
        <ele>594.20001220703</ele>
        <time>2019-02-20T10:56:28.000Z</time>
      </trkpt>
      <trkpt lat="45.30397" lon="4.65421">
        <ele>594.20001220703</ele>
        <time>2019-02-20T10:56:29.000Z</time>
      </trkpt>
      <trkpt lat="45.30392" lon="4.65416">
        <ele>594.40002441406</ele>
        <time>2019-02-20T10:56:30.000Z</time>
      </trkpt>
      <trkpt lat="45.30388" lon="4.65411">
        <ele>594.40002441406</ele>
        <time>2019-02-20T10:56:31.000Z</time>
      </trkpt>
      <trkpt lat="45.30383" lon="4.65406">
        <ele>594.79998779297</ele>
        <time>2019-02-20T10:56:32.000Z</time>
      </trkpt>
      <trkpt lat="45.30378" lon="4.65401">
        <ele>594.79998779297</ele>
        <time>2019-02-20T10:56:33.000Z</time>
      </trkpt>
      <trkpt lat="45.30374" lon="4.65397">
        <ele>595</ele>
        <time>2019-02-20T10:56:34.000Z</time>
      </trkpt>
      <trkpt lat="45.30369" lon="4.65393">
        <ele>595.20001220703</ele>
        <time>2019-02-20T10:56:35.000Z</time>
      </trkpt>
      <trkpt lat="45.30365" lon="4.65388">
        <ele>595.20001220703</ele>
        <time>2019-02-20T10:56:36.000Z</time>
      </trkpt>
      <trkpt lat="45.30361" lon="4.65384">
        <ele>595.40002441406</ele>
        <time>2019-02-20T10:56:37.000Z</time>
      </trkpt>
      <trkpt lat="45.30358" lon="4.6538">
        <ele>595.59997558594</ele>
        <time>2019-02-20T10:56:38.000Z</time>
      </trkpt>
      <trkpt lat="45.30354" lon="4.65377">
        <ele>595.79998779297</ele>
        <time>2019-02-20T10:56:39.000Z</time>
      </trkpt>
      <trkpt lat="45.3035" lon="4.65375">
        <ele>596</ele>
        <time>2019-02-20T10:56:40.000Z</time>
      </trkpt>
      <trkpt lat="45.30347" lon="4.65372">
        <ele>596.20001220703</ele>
        <time>2019-02-20T10:56:41.000Z</time>
      </trkpt>
      <trkpt lat="45.30344" lon="4.65371">
        <ele>596.40002441406</ele>
        <time>2019-02-20T10:56:42.000Z</time>
      </trkpt>
      <trkpt lat="45.30342" lon="4.65368">
        <ele>596.59997558594</ele>
        <time>2019-02-20T10:56:43.000Z</time>
      </trkpt>
      <trkpt lat="45.30339" lon="4.65366">
        <ele>596.79998779297</ele>
        <time>2019-02-20T10:56:44.000Z</time>
      </trkpt>
      <trkpt lat="45.30337" lon="4.65364">
        <ele>597.20001220703</ele>
        <time>2019-02-20T10:56:45.000Z</time>
      </trkpt>
      <trkpt lat="45.30335" lon="4.65361">
        <ele>597.59997558594</ele>
        <time>2019-02-20T10:56:46.000Z</time>
      </trkpt>
      <trkpt lat="45.30333" lon="4.6536">
        <ele>597.79998779297</ele>
        <time>2019-02-20T10:56:47.000Z</time>
      </trkpt>
      <trkpt lat="45.30332" lon="4.65358">
        <ele>597.79998779297</ele>
        <time>2019-02-20T10:56:48.000Z</time>
      </trkpt>
      <trkpt lat="45.3033" lon="4.65356">
        <ele>598</ele>
        <time>2019-02-20T10:56:49.000Z</time>
      </trkpt>
      <trkpt lat="45.30328" lon="4.65355">
        <ele>598.20001220703</ele>
        <time>2019-02-20T10:56:50.000Z</time>
      </trkpt>
      <trkpt lat="45.30327" lon="4.65353">
        <ele>598.20001220703</ele>
        <time>2019-02-20T10:56:51.000Z</time>
      </trkpt>
      <trkpt lat="45.30325" lon="4.65351">
        <ele>598.20001220703</ele>
        <time>2019-02-20T10:56:52.000Z</time>
      </trkpt>
      <trkpt lat="45.30323" lon="4.65348">
        <ele>598.20001220703</ele>
        <time>2019-02-20T10:56:53.000Z</time>
      </trkpt>
      <trkpt lat="45.30322" lon="4.65346">
        <ele>598.59997558594</ele>
        <time>2019-02-20T10:56:54.000Z</time>
      </trkpt>
      <trkpt lat="45.3032" lon="4.65345">
        <ele>598.59997558594</ele>
        <time>2019-02-20T10:56:55.000Z</time>
      </trkpt>
      <trkpt lat="45.30318" lon="4.65343">
        <ele>599</ele>
        <time>2019-02-20T10:56:56.000Z</time>
      </trkpt>
      <trkpt lat="45.30317" lon="4.65341">
        <ele>599</ele>
        <time>2019-02-20T10:56:57.000Z</time>
      </trkpt>
      <trkpt lat="45.30315" lon="4.65338">
        <ele>599.20001220703</ele>
        <time>2019-02-20T10:56:58.000Z</time>
      </trkpt>
      <trkpt lat="45.30313" lon="4.65335">
        <ele>599.40002441406</ele>
        <time>2019-02-20T10:56:59.000Z</time>
      </trkpt>
      <trkpt lat="45.30311" lon="4.65333">
        <ele>599.79998779297</ele>
        <time>2019-02-20T10:57:00.000Z</time>
      </trkpt>
      <trkpt lat="45.30309" lon="4.6533">
        <ele>599.59997558594</ele>
        <time>2019-02-20T10:57:01.000Z</time>
      </trkpt>
      <trkpt lat="45.30306" lon="4.65327">
        <ele>599.79998779297</ele>
        <time>2019-02-20T10:57:02.000Z</time>
      </trkpt>
      <trkpt lat="45.30304" lon="4.65324">
        <ele>600</ele>
        <time>2019-02-20T10:57:03.000Z</time>
      </trkpt>
      <trkpt lat="45.30302" lon="4.65321">
        <ele>600.20001220703</ele>
        <time>2019-02-20T10:57:04.000Z</time>
      </trkpt>
      <trkpt lat="45.303" lon="4.65318">
        <ele>600.20001220703</ele>
        <time>2019-02-20T10:57:05.000Z</time>
      </trkpt>
      <trkpt lat="45.30298" lon="4.65315">
        <ele>600.20001220703</ele>
        <time>2019-02-20T10:57:06.000Z</time>
      </trkpt>
      <trkpt lat="45.30296" lon="4.65312">
        <ele>600.20001220703</ele>
        <time>2019-02-20T10:57:07.000Z</time>
      </trkpt>
      <trkpt lat="45.30294" lon="4.65309">
        <ele>600.20001220703</ele>
        <time>2019-02-20T10:57:08.000Z</time>
      </trkpt>
      <trkpt lat="45.30292" lon="4.65307">
        <ele>600.20001220703</ele>
        <time>2019-02-20T10:57:09.000Z</time>
      </trkpt>
      <trkpt lat="45.30289" lon="4.65303">
        <ele>600.20001220703</ele>
        <time>2019-02-20T10:57:10.000Z</time>
      </trkpt>
      <trkpt lat="45.30287" lon="4.653">
        <ele>600.40002441406</ele>
        <time>2019-02-20T10:57:11.000Z</time>
      </trkpt>
      <trkpt lat="45.30285" lon="4.65297">
        <ele>600.40002441406</ele>
        <time>2019-02-20T10:57:12.000Z</time>
      </trkpt>
      <trkpt lat="45.30283" lon="4.65293">
        <ele>600.40002441406</ele>
        <time>2019-02-20T10:57:13.000Z</time>
      </trkpt>
      <trkpt lat="45.30281" lon="4.65291">
        <ele>600.40002441406</ele>
        <time>2019-02-20T10:57:14.000Z</time>
      </trkpt>
      <trkpt lat="45.30278" lon="4.65287">
        <ele>600.40002441406</ele>
        <time>2019-02-20T10:57:15.000Z</time>
      </trkpt>
      <trkpt lat="45.30276" lon="4.65284">
        <ele>600.40002441406</ele>
        <time>2019-02-20T10:57:16.000Z</time>
      </trkpt>
      <trkpt lat="45.30274" lon="4.6528">
        <ele>600.40002441406</ele>
        <time>2019-02-20T10:57:17.000Z</time>
      </trkpt>
      <trkpt lat="45.30271" lon="4.65277">
        <ele>600.40002441406</ele>
        <time>2019-02-20T10:57:18.000Z</time>
      </trkpt>
      <trkpt lat="45.30268" lon="4.65274">
        <ele>600.20001220703</ele>
        <time>2019-02-20T10:57:19.000Z</time>
      </trkpt>
      <trkpt lat="45.30265" lon="4.65271">
        <ele>600.20001220703</ele>
        <time>2019-02-20T10:57:20.000Z</time>
      </trkpt>
      <trkpt lat="45.30262" lon="4.65269">
        <ele>600.20001220703</ele>
        <time>2019-02-20T10:57:21.000Z</time>
      </trkpt>
      <trkpt lat="45.30259" lon="4.65266">
        <ele>600.20001220703</ele>
        <time>2019-02-20T10:57:22.000Z</time>
      </trkpt>
      <trkpt lat="45.30255" lon="4.65265">
        <ele>600</ele>
        <time>2019-02-20T10:57:23.000Z</time>
      </trkpt>
      <trkpt lat="45.30252" lon="4.65263">
        <ele>600.20001220703</ele>
        <time>2019-02-20T10:57:24.000Z</time>
      </trkpt>
      <trkpt lat="45.30249" lon="4.6526">
        <ele>600</ele>
        <time>2019-02-20T10:57:25.000Z</time>
      </trkpt>
      <trkpt lat="45.30245" lon="4.65258">
        <ele>600</ele>
        <time>2019-02-20T10:57:26.000Z</time>
      </trkpt>
      <trkpt lat="45.30242" lon="4.65255">
        <ele>599.79998779297</ele>
        <time>2019-02-20T10:57:27.000Z</time>
      </trkpt>
      <trkpt lat="45.30239" lon="4.65253">
        <ele>599.79998779297</ele>
        <time>2019-02-20T10:57:28.000Z</time>
      </trkpt>
      <trkpt lat="45.30236" lon="4.65251">
        <ele>599.59997558594</ele>
        <time>2019-02-20T10:57:29.000Z</time>
      </trkpt>
      <trkpt lat="45.30233" lon="4.65249">
        <ele>599.40002441406</ele>
        <time>2019-02-20T10:57:30.000Z</time>
      </trkpt>
      <trkpt lat="45.30229" lon="4.65247">
        <ele>599.40002441406</ele>
        <time>2019-02-20T10:57:31.000Z</time>
      </trkpt>
      <trkpt lat="45.30226" lon="4.65245">
        <ele>599.40002441406</ele>
        <time>2019-02-20T10:57:32.000Z</time>
      </trkpt>
      <trkpt lat="45.30222" lon="4.65243">
        <ele>599.40002441406</ele>
        <time>2019-02-20T10:57:33.000Z</time>
      </trkpt>
      <trkpt lat="45.30219" lon="4.65241">
        <ele>599.20001220703</ele>
        <time>2019-02-20T10:57:34.000Z</time>
      </trkpt>
      <trkpt lat="45.30216" lon="4.65239">
        <ele>599.20001220703</ele>
        <time>2019-02-20T10:57:35.000Z</time>
      </trkpt>
      <trkpt lat="45.30212" lon="4.65237">
        <ele>599.20001220703</ele>
        <time>2019-02-20T10:57:36.000Z</time>
      </trkpt>
      <trkpt lat="45.30209" lon="4.65235">
        <ele>599.40002441406</ele>
        <time>2019-02-20T10:57:37.000Z</time>
      </trkpt>
      <trkpt lat="45.30206" lon="4.65233">
        <ele>599.40002441406</ele>
        <time>2019-02-20T10:57:38.000Z</time>
      </trkpt>
      <trkpt lat="45.30203" lon="4.65231">
        <ele>599.40002441406</ele>
        <time>2019-02-20T10:57:39.000Z</time>
      </trkpt>
      <trkpt lat="45.302" lon="4.65229">
        <ele>599.40002441406</ele>
        <time>2019-02-20T10:57:40.000Z</time>
      </trkpt>
      <trkpt lat="45.30197" lon="4.65227">
        <ele>599.59997558594</ele>
        <time>2019-02-20T10:57:41.000Z</time>
      </trkpt>
      <trkpt lat="45.30193" lon="4.65224">
        <ele>599.59997558594</ele>
        <time>2019-02-20T10:57:42.000Z</time>
      </trkpt>
      <trkpt lat="45.3019" lon="4.65221">
        <ele>599.79998779297</ele>
        <time>2019-02-20T10:57:43.000Z</time>
      </trkpt>
      <trkpt lat="45.30186" lon="4.65219">
        <ele>599.79998779297</ele>
        <time>2019-02-20T10:57:44.000Z</time>
      </trkpt>
      <trkpt lat="45.30182" lon="4.65216">
        <ele>600</ele>
        <time>2019-02-20T10:57:45.000Z</time>
      </trkpt>
      <trkpt lat="45.30179" lon="4.65214">
        <ele>600</ele>
        <time>2019-02-20T10:57:46.000Z</time>
      </trkpt>
      <trkpt lat="45.30176" lon="4.65211">
        <ele>600.20001220703</ele>
        <time>2019-02-20T10:57:47.000Z</time>
      </trkpt>
      <trkpt lat="45.30172" lon="4.65209">
        <ele>600.20001220703</ele>
        <time>2019-02-20T10:57:48.000Z</time>
      </trkpt>
      <trkpt lat="45.30169" lon="4.65207">
        <ele>600.20001220703</ele>
        <time>2019-02-20T10:57:49.000Z</time>
      </trkpt>
      <trkpt lat="45.30166" lon="4.65205">
        <ele>600.40002441406</ele>
        <time>2019-02-20T10:57:50.000Z</time>
      </trkpt>
      <trkpt lat="45.30163" lon="4.65203">
        <ele>600.59997558594</ele>
        <time>2019-02-20T10:57:51.000Z</time>
      </trkpt>
      <trkpt lat="45.30159" lon="4.65202">
        <ele>600.59997558594</ele>
        <time>2019-02-20T10:57:52.000Z</time>
      </trkpt>
      <trkpt lat="45.30155" lon="4.652">
        <ele>600.59997558594</ele>
        <time>2019-02-20T10:57:53.000Z</time>
      </trkpt>
      <trkpt lat="45.30152" lon="4.65198">
        <ele>600.79998779297</ele>
        <time>2019-02-20T10:57:54.000Z</time>
      </trkpt>
      <trkpt lat="45.30149" lon="4.65196">
        <ele>600.79998779297</ele>
        <time>2019-02-20T10:57:55.000Z</time>
      </trkpt>
      <trkpt lat="45.30146" lon="4.65194">
        <ele>600.79998779297</ele>
        <time>2019-02-20T10:57:56.000Z</time>
      </trkpt>
      <trkpt lat="45.30144" lon="4.65193">
        <ele>600.79998779297</ele>
        <time>2019-02-20T10:57:57.000Z</time>
      </trkpt>
      <trkpt lat="45.30141" lon="4.65191">
        <ele>601</ele>
        <time>2019-02-20T10:57:58.000Z</time>
      </trkpt>
      <trkpt lat="45.30139" lon="4.6519">
        <ele>601</ele>
        <time>2019-02-20T10:57:59.000Z</time>
      </trkpt>
      <trkpt lat="45.30137" lon="4.65189">
        <ele>601</ele>
        <time>2019-02-20T10:58:00.000Z</time>
      </trkpt>
      <trkpt lat="45.30134" lon="4.65187">
        <ele>601.20001220703</ele>
        <time>2019-02-20T10:58:01.000Z</time>
      </trkpt>
      <trkpt lat="45.30132" lon="4.65186">
        <ele>601.40002441406</ele>
        <time>2019-02-20T10:58:02.000Z</time>
      </trkpt>
      <trkpt lat="45.3013" lon="4.65185">
        <ele>601.40002441406</ele>
        <time>2019-02-20T10:58:03.000Z</time>
      </trkpt>
      <trkpt lat="45.30128" lon="4.65184">
        <ele>601.40002441406</ele>
        <time>2019-02-20T10:58:04.000Z</time>
      </trkpt>
      <trkpt lat="45.30125" lon="4.65182">
        <ele>601.40002441406</ele>
        <time>2019-02-20T10:58:05.000Z</time>
      </trkpt>
      <trkpt lat="45.30123" lon="4.65181">
        <ele>601.59997558594</ele>
        <time>2019-02-20T10:58:06.000Z</time>
      </trkpt>
      <trkpt lat="45.3012" lon="4.65179">
        <ele>601.59997558594</ele>
        <time>2019-02-20T10:58:07.000Z</time>
      </trkpt>
      <trkpt lat="45.30117" lon="4.65177">
        <ele>601.79998779297</ele>
        <time>2019-02-20T10:58:08.000Z</time>
      </trkpt>
      <trkpt lat="45.30115" lon="4.65176">
        <ele>602</ele>
        <time>2019-02-20T10:58:09.000Z</time>
      </trkpt>
      <trkpt lat="45.30112" lon="4.65174">
        <ele>602.20001220703</ele>
        <time>2019-02-20T10:58:10.000Z</time>
      </trkpt>
      <trkpt lat="45.3011" lon="4.65172">
        <ele>602.20001220703</ele>
        <time>2019-02-20T10:58:11.000Z</time>
      </trkpt>
      <trkpt lat="45.30108" lon="4.65171">
        <ele>602.40002441406</ele>
        <time>2019-02-20T10:58:12.000Z</time>
      </trkpt>
      <trkpt lat="45.30105" lon="4.6517">
        <ele>602.79998779297</ele>
        <time>2019-02-20T10:58:13.000Z</time>
      </trkpt>
      <trkpt lat="45.30103" lon="4.65168">
        <ele>603</ele>
        <time>2019-02-20T10:58:14.000Z</time>
      </trkpt>
      <trkpt lat="45.301" lon="4.65166">
        <ele>603</ele>
        <time>2019-02-20T10:58:15.000Z</time>
      </trkpt>
      <trkpt lat="45.30098" lon="4.65165">
        <ele>603.20001220703</ele>
        <time>2019-02-20T10:58:16.000Z</time>
      </trkpt>
      <trkpt lat="45.30095" lon="4.65164">
        <ele>603.20001220703</ele>
        <time>2019-02-20T10:58:17.000Z</time>
      </trkpt>
      <trkpt lat="45.30093" lon="4.65162">
        <ele>603.59997558594</ele>
        <time>2019-02-20T10:58:18.000Z</time>
      </trkpt>
      <trkpt lat="45.3009" lon="4.65161">
        <ele>603.59997558594</ele>
        <time>2019-02-20T10:58:19.000Z</time>
      </trkpt>
      <trkpt lat="45.30087" lon="4.65158">
        <ele>603.79998779297</ele>
        <time>2019-02-20T10:58:20.000Z</time>
      </trkpt>
      <trkpt lat="45.30085" lon="4.65156">
        <ele>604.20001220703</ele>
        <time>2019-02-20T10:58:21.000Z</time>
      </trkpt>
      <trkpt lat="45.30083" lon="4.65154">
        <ele>604.40002441406</ele>
        <time>2019-02-20T10:58:22.000Z</time>
      </trkpt>
      <trkpt lat="45.3008" lon="4.65152">
        <ele>604.40002441406</ele>
        <time>2019-02-20T10:58:23.000Z</time>
      </trkpt>
      <trkpt lat="45.30078" lon="4.6515">
        <ele>604.59997558594</ele>
        <time>2019-02-20T10:58:24.000Z</time>
      </trkpt>
      <trkpt lat="45.30075" lon="4.65149">
        <ele>604.59997558594</ele>
        <time>2019-02-20T10:58:25.000Z</time>
      </trkpt>
      <trkpt lat="45.30072" lon="4.65148">
        <ele>604.59997558594</ele>
        <time>2019-02-20T10:58:26.000Z</time>
      </trkpt>
      <trkpt lat="45.3007" lon="4.65146">
        <ele>604.79998779297</ele>
        <time>2019-02-20T10:58:27.000Z</time>
      </trkpt>
      <trkpt lat="45.30067" lon="4.65143">
        <ele>605.20001220703</ele>
        <time>2019-02-20T10:58:28.000Z</time>
      </trkpt>
      <trkpt lat="45.30065" lon="4.65141">
        <ele>605</ele>
        <time>2019-02-20T10:58:29.000Z</time>
      </trkpt>
      <trkpt lat="45.30063" lon="4.65139">
        <ele>605.20001220703</ele>
        <time>2019-02-20T10:58:30.000Z</time>
      </trkpt>
      <trkpt lat="45.3006" lon="4.65137">
        <ele>605.20001220703</ele>
        <time>2019-02-20T10:58:31.000Z</time>
      </trkpt>
      <trkpt lat="45.30058" lon="4.65135">
        <ele>605.20001220703</ele>
        <time>2019-02-20T10:58:32.000Z</time>
      </trkpt>
      <trkpt lat="45.30056" lon="4.65133">
        <ele>605.20001220703</ele>
        <time>2019-02-20T10:58:33.000Z</time>
      </trkpt>
      <trkpt lat="45.30053" lon="4.65131">
        <ele>605.40002441406</ele>
        <time>2019-02-20T10:58:34.000Z</time>
      </trkpt>
      <trkpt lat="45.30051" lon="4.65129">
        <ele>605.59997558594</ele>
        <time>2019-02-20T10:58:35.000Z</time>
      </trkpt>
      <trkpt lat="45.30049" lon="4.65127">
        <ele>605.40002441406</ele>
        <time>2019-02-20T10:58:36.000Z</time>
      </trkpt>
      <trkpt lat="45.30047" lon="4.65126">
        <ele>605.59997558594</ele>
        <time>2019-02-20T10:58:37.000Z</time>
      </trkpt>
      <trkpt lat="45.30044" lon="4.65124">
        <ele>605.59997558594</ele>
        <time>2019-02-20T10:58:38.000Z</time>
      </trkpt>
      <trkpt lat="45.30041" lon="4.65123">
        <ele>605.59997558594</ele>
        <time>2019-02-20T10:58:39.000Z</time>
      </trkpt>
      <trkpt lat="45.30038" lon="4.6512">
        <ele>606</ele>
        <time>2019-02-20T10:58:40.000Z</time>
      </trkpt>
      <trkpt lat="45.30035" lon="4.65118">
        <ele>606.20001220703</ele>
        <time>2019-02-20T10:58:41.000Z</time>
      </trkpt>
      <trkpt lat="45.30032" lon="4.65115">
        <ele>606.20001220703</ele>
        <time>2019-02-20T10:58:42.000Z</time>
      </trkpt>
      <trkpt lat="45.30028" lon="4.65113">
        <ele>606.20001220703</ele>
        <time>2019-02-20T10:58:43.000Z</time>
      </trkpt>
      <trkpt lat="45.30025" lon="4.6511">
        <ele>606.20001220703</ele>
        <time>2019-02-20T10:58:44.000Z</time>
      </trkpt>
      <trkpt lat="45.30021" lon="4.65107">
        <ele>606.20001220703</ele>
        <time>2019-02-20T10:58:45.000Z</time>
      </trkpt>
      <trkpt lat="45.30017" lon="4.65105">
        <ele>606.20001220703</ele>
        <time>2019-02-20T10:58:46.000Z</time>
      </trkpt>
      <trkpt lat="45.30012" lon="4.65101">
        <ele>606</ele>
        <time>2019-02-20T10:58:47.000Z</time>
      </trkpt>
      <trkpt lat="45.30007" lon="4.65097">
        <ele>606.20001220703</ele>
        <time>2019-02-20T10:58:48.000Z</time>
      </trkpt>
      <trkpt lat="45.30003" lon="4.65093">
        <ele>606</ele>
        <time>2019-02-20T10:58:49.000Z</time>
      </trkpt>
      <trkpt lat="45.29998" lon="4.6509">
        <ele>606.20001220703</ele>
        <time>2019-02-20T10:58:50.000Z</time>
      </trkpt>
      <trkpt lat="45.29992" lon="4.65087">
        <ele>606.20001220703</ele>
        <time>2019-02-20T10:58:51.000Z</time>
      </trkpt>
      <trkpt lat="45.29987" lon="4.65083">
        <ele>606</ele>
        <time>2019-02-20T10:58:52.000Z</time>
      </trkpt>
      <trkpt lat="45.29981" lon="4.6508">
        <ele>605.79998779297</ele>
        <time>2019-02-20T10:58:53.000Z</time>
      </trkpt>
      <trkpt lat="45.29976" lon="4.65076">
        <ele>605.79998779297</ele>
        <time>2019-02-20T10:58:54.000Z</time>
      </trkpt>
      <trkpt lat="45.2997" lon="4.65071">
        <ele>605.20001220703</ele>
        <time>2019-02-20T10:58:55.000Z</time>
      </trkpt>
      <trkpt lat="45.29964" lon="4.65066">
        <ele>604.79998779297</ele>
        <time>2019-02-20T10:58:56.000Z</time>
      </trkpt>
      <trkpt lat="45.29958" lon="4.65062">
        <ele>604.40002441406</ele>
        <time>2019-02-20T10:58:57.000Z</time>
      </trkpt>
      <trkpt lat="45.29952" lon="4.65058">
        <ele>604</ele>
        <time>2019-02-20T10:58:58.000Z</time>
      </trkpt>
      <trkpt lat="45.29945" lon="4.65053">
        <ele>603.79998779297</ele>
        <time>2019-02-20T10:58:59.000Z</time>
      </trkpt>
      <trkpt lat="45.29938" lon="4.65049">
        <ele>603.40002441406</ele>
        <time>2019-02-20T10:59:00.000Z</time>
      </trkpt>
      <trkpt lat="45.29931" lon="4.65044">
        <ele>603</ele>
        <time>2019-02-20T10:59:01.000Z</time>
      </trkpt>
      <trkpt lat="45.29924" lon="4.6504">
        <ele>602.59997558594</ele>
        <time>2019-02-20T10:59:02.000Z</time>
      </trkpt>
      <trkpt lat="45.29916" lon="4.65036">
        <ele>602</ele>
        <time>2019-02-20T10:59:03.000Z</time>
      </trkpt>
      <trkpt lat="45.29907" lon="4.6503">
        <ele>601.79998779297</ele>
        <time>2019-02-20T10:59:04.000Z</time>
      </trkpt>
      <trkpt lat="45.29899" lon="4.65025">
        <ele>601.59997558594</ele>
        <time>2019-02-20T10:59:05.000Z</time>
      </trkpt>
      <trkpt lat="45.29891" lon="4.65019">
        <ele>601.59997558594</ele>
        <time>2019-02-20T10:59:06.000Z</time>
      </trkpt>
      <trkpt lat="45.29883" lon="4.65014">
        <ele>601</ele>
        <time>2019-02-20T10:59:07.000Z</time>
      </trkpt>
      <trkpt lat="45.29876" lon="4.65009">
        <ele>600.59997558594</ele>
        <time>2019-02-20T10:59:08.000Z</time>
      </trkpt>
      <trkpt lat="45.2987" lon="4.65004">
        <ele>599.79998779297</ele>
        <time>2019-02-20T10:59:09.000Z</time>
      </trkpt>
      <trkpt lat="45.29863" lon="4.65">
        <ele>598.59997558594</ele>
        <time>2019-02-20T10:59:10.000Z</time>
      </trkpt>
      <trkpt lat="45.29855" lon="4.64997">
        <ele>597.79998779297</ele>
        <time>2019-02-20T10:59:11.000Z</time>
      </trkpt>
      <trkpt lat="45.29848" lon="4.64996">
        <ele>597.20001220703</ele>
        <time>2019-02-20T10:59:12.000Z</time>
      </trkpt>
      <trkpt lat="45.29841" lon="4.64996">
        <ele>595.40002441406</ele>
        <time>2019-02-20T10:59:13.000Z</time>
      </trkpt>
      <trkpt lat="45.29834" lon="4.64997">
        <ele>594</ele>
        <time>2019-02-20T10:59:14.000Z</time>
      </trkpt>
      <trkpt lat="45.29827" lon="4.64998">
        <ele>593.20001220703</ele>
        <time>2019-02-20T10:59:15.000Z</time>
      </trkpt>
      <trkpt lat="45.29821" lon="4.64999">
        <ele>592.20001220703</ele>
        <time>2019-02-20T10:59:16.000Z</time>
      </trkpt>
      <trkpt lat="45.29815" lon="4.65001">
        <ele>591.20001220703</ele>
        <time>2019-02-20T10:59:17.000Z</time>
      </trkpt>
      <trkpt lat="45.29809" lon="4.65002">
        <ele>590.79998779297</ele>
        <time>2019-02-20T10:59:18.000Z</time>
      </trkpt>
      <trkpt lat="45.29803" lon="4.65001">
        <ele>590.40002441406</ele>
        <time>2019-02-20T10:59:19.000Z</time>
      </trkpt>
      <trkpt lat="45.29798" lon="4.65">
        <ele>589.59997558594</ele>
        <time>2019-02-20T10:59:20.000Z</time>
      </trkpt>
      <trkpt lat="45.29793" lon="4.64997">
        <ele>589</ele>
        <time>2019-02-20T10:59:21.000Z</time>
      </trkpt>
      <trkpt lat="45.29788" lon="4.64995">
        <ele>587.20001220703</ele>
        <time>2019-02-20T10:59:22.000Z</time>
      </trkpt>
      <trkpt lat="45.29784" lon="4.64993">
        <ele>585.59997558594</ele>
        <time>2019-02-20T10:59:23.000Z</time>
      </trkpt>
      <trkpt lat="45.29781" lon="4.64991">
        <ele>584</ele>
        <time>2019-02-20T10:59:24.000Z</time>
      </trkpt>
      <trkpt lat="45.29777" lon="4.64988">
        <ele>583</ele>
        <time>2019-02-20T10:59:25.000Z</time>
      </trkpt>
      <trkpt lat="45.29773" lon="4.64986">
        <ele>582</ele>
        <time>2019-02-20T10:59:26.000Z</time>
      </trkpt>
      <trkpt lat="45.2977" lon="4.64983">
        <ele>581.79998779297</ele>
        <time>2019-02-20T10:59:27.000Z</time>
      </trkpt>
      <trkpt lat="45.29766" lon="4.64981">
        <ele>581.59997558594</ele>
        <time>2019-02-20T10:59:28.000Z</time>
      </trkpt>
      <trkpt lat="45.29762" lon="4.64979">
        <ele>581.59997558594</ele>
        <time>2019-02-20T10:59:29.000Z</time>
      </trkpt>
      <trkpt lat="45.29759" lon="4.64976">
        <ele>581.40002441406</ele>
        <time>2019-02-20T10:59:30.000Z</time>
      </trkpt>
      <trkpt lat="45.29756" lon="4.64973">
        <ele>581.40002441406</ele>
        <time>2019-02-20T10:59:31.000Z</time>
      </trkpt>
      <trkpt lat="45.29753" lon="4.6497">
        <ele>581.40002441406</ele>
        <time>2019-02-20T10:59:32.000Z</time>
      </trkpt>
      <trkpt lat="45.29751" lon="4.64968">
        <ele>581.59997558594</ele>
        <time>2019-02-20T10:59:33.000Z</time>
      </trkpt>
      <trkpt lat="45.29748" lon="4.64965">
        <ele>581.40002441406</ele>
        <time>2019-02-20T10:59:34.000Z</time>
      </trkpt>
      <trkpt lat="45.29746" lon="4.64963">
        <ele>581.59997558594</ele>
        <time>2019-02-20T10:59:35.000Z</time>
      </trkpt>
      <trkpt lat="45.29743" lon="4.6496">
        <ele>581.40002441406</ele>
        <time>2019-02-20T10:59:36.000Z</time>
      </trkpt>
      <trkpt lat="45.29741" lon="4.64958">
        <ele>581.59997558594</ele>
        <time>2019-02-20T10:59:37.000Z</time>
      </trkpt>
      <trkpt lat="45.29738" lon="4.64955">
        <ele>581.79998779297</ele>
        <time>2019-02-20T10:59:38.000Z</time>
      </trkpt>
      <trkpt lat="45.29735" lon="4.64953">
        <ele>581.79998779297</ele>
        <time>2019-02-20T10:59:39.000Z</time>
      </trkpt>
      <trkpt lat="45.29732" lon="4.6495">
        <ele>582</ele>
        <time>2019-02-20T10:59:40.000Z</time>
      </trkpt>
      <trkpt lat="45.2973" lon="4.64948">
        <ele>582.20001220703</ele>
        <time>2019-02-20T10:59:41.000Z</time>
      </trkpt>
      <trkpt lat="45.29728" lon="4.64945">
        <ele>582.20001220703</ele>
        <time>2019-02-20T10:59:42.000Z</time>
      </trkpt>
      <trkpt lat="45.29726" lon="4.64943">
        <ele>582.40002441406</ele>
        <time>2019-02-20T10:59:43.000Z</time>
      </trkpt>
      <trkpt lat="45.29724" lon="4.6494">
        <ele>582.79998779297</ele>
        <time>2019-02-20T10:59:44.000Z</time>
      </trkpt>
      <trkpt lat="45.29722" lon="4.64937">
        <ele>582.79998779297</ele>
        <time>2019-02-20T10:59:45.000Z</time>
      </trkpt>
      <trkpt lat="45.2972" lon="4.64935">
        <ele>583</ele>
        <time>2019-02-20T10:59:46.000Z</time>
      </trkpt>
      <trkpt lat="45.29718" lon="4.64932">
        <ele>583.20001220703</ele>
        <time>2019-02-20T10:59:47.000Z</time>
      </trkpt>
      <trkpt lat="45.29717" lon="4.64929">
        <ele>583.59997558594</ele>
        <time>2019-02-20T10:59:48.000Z</time>
      </trkpt>
      <trkpt lat="45.29715" lon="4.64927">
        <ele>584</ele>
        <time>2019-02-20T10:59:49.000Z</time>
      </trkpt>
      <trkpt lat="45.29714" lon="4.64925">
        <ele>584.40002441406</ele>
        <time>2019-02-20T10:59:50.000Z</time>
      </trkpt>
      <trkpt lat="45.29713" lon="4.64923">
        <ele>584.59997558594</ele>
        <time>2019-02-20T10:59:51.000Z</time>
      </trkpt>
      <trkpt lat="45.29711" lon="4.64921">
        <ele>584.59997558594</ele>
        <time>2019-02-20T10:59:52.000Z</time>
      </trkpt>
      <trkpt lat="45.2971" lon="4.64919">
        <ele>584.79998779297</ele>
        <time>2019-02-20T10:59:53.000Z</time>
      </trkpt>
      <trkpt lat="45.29709" lon="4.64917">
        <ele>585</ele>
        <time>2019-02-20T10:59:54.000Z</time>
      </trkpt>
      <trkpt lat="45.29707" lon="4.64914">
        <ele>585.40002441406</ele>
        <time>2019-02-20T10:59:55.000Z</time>
      </trkpt>
      <trkpt lat="45.29706" lon="4.64911">
        <ele>585.40002441406</ele>
        <time>2019-02-20T10:59:56.000Z</time>
      </trkpt>
      <trkpt lat="45.29705" lon="4.64909">
        <ele>585.79998779297</ele>
        <time>2019-02-20T10:59:57.000Z</time>
      </trkpt>
      <trkpt lat="45.29704" lon="4.64907">
        <ele>586</ele>
        <time>2019-02-20T10:59:58.000Z</time>
      </trkpt>
      <trkpt lat="45.29702" lon="4.64905">
        <ele>586.59997558594</ele>
        <time>2019-02-20T10:59:59.000Z</time>
      </trkpt>
      <trkpt lat="45.29701" lon="4.64903">
        <ele>586.79998779297</ele>
        <time>2019-02-20T11:00:00.000Z</time>
      </trkpt>
      <trkpt lat="45.297" lon="4.64901">
        <ele>587</ele>
        <time>2019-02-20T11:00:01.000Z</time>
      </trkpt>
      <trkpt lat="45.29698" lon="4.64899">
        <ele>587</ele>
        <time>2019-02-20T11:00:02.000Z</time>
      </trkpt>
      <trkpt lat="45.29697" lon="4.64897">
        <ele>587.20001220703</ele>
        <time>2019-02-20T11:00:03.000Z</time>
      </trkpt>
      <trkpt lat="45.29696" lon="4.64896">
        <ele>587.40002441406</ele>
        <time>2019-02-20T11:00:04.000Z</time>
      </trkpt>
      <trkpt lat="45.29694" lon="4.64894">
        <ele>587.79998779297</ele>
        <time>2019-02-20T11:00:05.000Z</time>
      </trkpt>
      <trkpt lat="45.29693" lon="4.64892">
        <ele>588.20001220703</ele>
        <time>2019-02-20T11:00:06.000Z</time>
      </trkpt>
      <trkpt lat="45.29691" lon="4.6489">
        <ele>588.40002441406</ele>
        <time>2019-02-20T11:00:07.000Z</time>
      </trkpt>
      <trkpt lat="45.2969" lon="4.64887">
        <ele>588.59997558594</ele>
        <time>2019-02-20T11:00:08.000Z</time>
      </trkpt>
      <trkpt lat="45.29689" lon="4.64885">
        <ele>589</ele>
        <time>2019-02-20T11:00:09.000Z</time>
      </trkpt>
      <trkpt lat="45.29687" lon="4.64883">
        <ele>589.20001220703</ele>
        <time>2019-02-20T11:00:10.000Z</time>
      </trkpt>
      <trkpt lat="45.29686" lon="4.64882">
        <ele>589.40002441406</ele>
        <time>2019-02-20T11:00:11.000Z</time>
      </trkpt>
      <trkpt lat="45.29685" lon="4.6488">
        <ele>589.59997558594</ele>
        <time>2019-02-20T11:00:12.000Z</time>
      </trkpt>
      <trkpt lat="45.29684" lon="4.64878">
        <ele>589.79998779297</ele>
        <time>2019-02-20T11:00:13.000Z</time>
      </trkpt>
      <trkpt lat="45.29683" lon="4.64876">
        <ele>589.79998779297</ele>
        <time>2019-02-20T11:00:14.000Z</time>
      </trkpt>
      <trkpt lat="45.29682" lon="4.64874">
        <ele>590</ele>
        <time>2019-02-20T11:00:15.000Z</time>
      </trkpt>
      <trkpt lat="45.29681" lon="4.64872">
        <ele>590</ele>
        <time>2019-02-20T11:00:16.000Z</time>
      </trkpt>
      <trkpt lat="45.2968" lon="4.6487">
        <ele>590.40002441406</ele>
        <time>2019-02-20T11:00:17.000Z</time>
      </trkpt>
      <trkpt lat="45.29679" lon="4.64868">
        <ele>590.59997558594</ele>
        <time>2019-02-20T11:00:18.000Z</time>
      </trkpt>
      <trkpt lat="45.29677" lon="4.64866">
        <ele>590.59997558594</ele>
        <time>2019-02-20T11:00:19.000Z</time>
      </trkpt>
      <trkpt lat="45.29676" lon="4.64864">
        <ele>591</ele>
        <time>2019-02-20T11:00:20.000Z</time>
      </trkpt>
      <trkpt lat="45.29675" lon="4.64863">
        <ele>591</ele>
        <time>2019-02-20T11:00:21.000Z</time>
      </trkpt>
      <trkpt lat="45.29674" lon="4.64861">
        <ele>591.40002441406</ele>
        <time>2019-02-20T11:00:22.000Z</time>
      </trkpt>
      <trkpt lat="45.29673" lon="4.64859">
        <ele>591.59997558594</ele>
        <time>2019-02-20T11:00:23.000Z</time>
      </trkpt>
      <trkpt lat="45.29672" lon="4.64857">
        <ele>591.59997558594</ele>
        <time>2019-02-20T11:00:24.000Z</time>
      </trkpt>
      <trkpt lat="45.2967" lon="4.64855">
        <ele>592</ele>
        <time>2019-02-20T11:00:25.000Z</time>
      </trkpt>
      <trkpt lat="45.29668" lon="4.64852">
        <ele>592</ele>
        <time>2019-02-20T11:00:26.000Z</time>
      </trkpt>
      <trkpt lat="45.29666" lon="4.64849">
        <ele>592.40002441406</ele>
        <time>2019-02-20T11:00:27.000Z</time>
      </trkpt>
      <trkpt lat="45.29663" lon="4.64844">
        <ele>592.59997558594</ele>
        <time>2019-02-20T11:00:28.000Z</time>
      </trkpt>
      <trkpt lat="45.29661" lon="4.6484">
        <ele>592.59997558594</ele>
        <time>2019-02-20T11:00:29.000Z</time>
      </trkpt>
      <trkpt lat="45.29659" lon="4.64837">
        <ele>592.79998779297</ele>
        <time>2019-02-20T11:00:30.000Z</time>
      </trkpt>
      <trkpt lat="45.29658" lon="4.64834">
        <ele>592.79998779297</ele>
        <time>2019-02-20T11:00:31.000Z</time>
      </trkpt>
      <trkpt lat="45.29656" lon="4.64833">
        <ele>592.79998779297</ele>
        <time>2019-02-20T11:00:32.000Z</time>
      </trkpt>
      <trkpt lat="45.29653" lon="4.64831">
        <ele>592.79998779297</ele>
        <time>2019-02-20T11:00:33.000Z</time>
      </trkpt>
      <trkpt lat="45.29651" lon="4.64829">
        <ele>592.79998779297</ele>
        <time>2019-02-20T11:00:34.000Z</time>
      </trkpt>
      <trkpt lat="45.29647" lon="4.64826">
        <ele>592.79998779297</ele>
        <time>2019-02-20T11:00:35.000Z</time>
      </trkpt>
      <trkpt lat="45.29644" lon="4.64824">
        <ele>592.79998779297</ele>
        <time>2019-02-20T11:00:36.000Z</time>
      </trkpt>
      <trkpt lat="45.29641" lon="4.64823">
        <ele>592.79998779297</ele>
        <time>2019-02-20T11:00:37.000Z</time>
      </trkpt>
      <trkpt lat="45.29638" lon="4.64822">
        <ele>592.79998779297</ele>
        <time>2019-02-20T11:00:38.000Z</time>
      </trkpt>
      <trkpt lat="45.29634" lon="4.64822">
        <ele>592.40002441406</ele>
        <time>2019-02-20T11:00:39.000Z</time>
      </trkpt>
      <trkpt lat="45.29629" lon="4.64822">
        <ele>592.20001220703</ele>
        <time>2019-02-20T11:00:40.000Z</time>
      </trkpt>
      <trkpt lat="45.29625" lon="4.64822">
        <ele>592</ele>
        <time>2019-02-20T11:00:41.000Z</time>
      </trkpt>
      <trkpt lat="45.29621" lon="4.64824">
        <ele>591.59997558594</ele>
        <time>2019-02-20T11:00:42.000Z</time>
      </trkpt>
      <trkpt lat="45.29617" lon="4.64825">
        <ele>591.40002441406</ele>
        <time>2019-02-20T11:00:43.000Z</time>
      </trkpt>
      <trkpt lat="45.29612" lon="4.64827">
        <ele>590.20001220703</ele>
        <time>2019-02-20T11:00:44.000Z</time>
      </trkpt>
      <trkpt lat="45.29607" lon="4.64828">
        <ele>589.59997558594</ele>
        <time>2019-02-20T11:00:45.000Z</time>
      </trkpt>
      <trkpt lat="45.29601" lon="4.6483">
        <ele>588.79998779297</ele>
        <time>2019-02-20T11:00:46.000Z</time>
      </trkpt>
      <trkpt lat="45.29595" lon="4.64832">
        <ele>586.79998779297</ele>
        <time>2019-02-20T11:00:47.000Z</time>
      </trkpt>
      <trkpt lat="45.29588" lon="4.64835">
        <ele>585.20001220703</ele>
        <time>2019-02-20T11:00:48.000Z</time>
      </trkpt>
      <trkpt lat="45.29582" lon="4.64838">
        <ele>584.20001220703</ele>
        <time>2019-02-20T11:00:49.000Z</time>
      </trkpt>
      <trkpt lat="45.29576" lon="4.6484">
        <ele>583.79998779297</ele>
        <time>2019-02-20T11:00:50.000Z</time>
      </trkpt>
      <trkpt lat="45.2957" lon="4.6484">
        <ele>583.20001220703</ele>
        <time>2019-02-20T11:00:51.000Z</time>
      </trkpt>
      <trkpt lat="45.29564" lon="4.64839">
        <ele>582.40002441406</ele>
        <time>2019-02-20T11:00:52.000Z</time>
      </trkpt>
      <trkpt lat="45.29558" lon="4.64838">
        <ele>580.59997558594</ele>
        <time>2019-02-20T11:00:53.000Z</time>
      </trkpt>
      <trkpt lat="45.29551" lon="4.64837">
        <ele>579.59997558594</ele>
        <time>2019-02-20T11:00:54.000Z</time>
      </trkpt>
      <trkpt lat="45.29546" lon="4.64838">
        <ele>578</ele>
        <time>2019-02-20T11:00:55.000Z</time>
      </trkpt>
      <trkpt lat="45.29542" lon="4.64838">
        <ele>577</ele>
        <time>2019-02-20T11:00:56.000Z</time>
      </trkpt>
      <trkpt lat="45.2954" lon="4.64837">
        <ele>576.59997558594</ele>
        <time>2019-02-20T11:00:57.000Z</time>
      </trkpt>
      <trkpt lat="45.29539" lon="4.64833">
        <ele>576.20001220703</ele>
        <time>2019-02-20T11:00:58.000Z</time>
      </trkpt>
      <trkpt lat="45.29538" lon="4.6483">
        <ele>576</ele>
        <time>2019-02-20T11:00:59.000Z</time>
      </trkpt>
      <trkpt lat="45.29536" lon="4.64829">
        <ele>575.79998779297</ele>
        <time>2019-02-20T11:01:00.000Z</time>
      </trkpt>
      <trkpt lat="45.29534" lon="4.64827">
        <ele>575.59997558594</ele>
        <time>2019-02-20T11:01:01.000Z</time>
      </trkpt>
      <trkpt lat="45.29532" lon="4.64823">
        <ele>574.59997558594</ele>
        <time>2019-02-20T11:01:02.000Z</time>
      </trkpt>
      <trkpt lat="45.29532" lon="4.64819">
        <ele>573.40002441406</ele>
        <time>2019-02-20T11:01:03.000Z</time>
      </trkpt>
      <trkpt lat="45.29533" lon="4.64815">
        <ele>572.79998779297</ele>
        <time>2019-02-20T11:01:04.000Z</time>
      </trkpt>
      <trkpt lat="45.29535" lon="4.64811">
        <ele>572.20001220703</ele>
        <time>2019-02-20T11:01:05.000Z</time>
      </trkpt>
      <trkpt lat="45.29538" lon="4.64807">
        <ele>572</ele>
        <time>2019-02-20T11:01:06.000Z</time>
      </trkpt>
      <trkpt lat="45.29543" lon="4.64801">
        <ele>571.59997558594</ele>
        <time>2019-02-20T11:01:07.000Z</time>
      </trkpt>
      <trkpt lat="45.29548" lon="4.64795">
        <ele>571.20001220703</ele>
        <time>2019-02-20T11:01:08.000Z</time>
      </trkpt>
      <trkpt lat="45.29553" lon="4.64789">
        <ele>570.79998779297</ele>
        <time>2019-02-20T11:01:09.000Z</time>
      </trkpt>
      <trkpt lat="45.29558" lon="4.64783">
        <ele>570.40002441406</ele>
        <time>2019-02-20T11:01:10.000Z</time>
      </trkpt>
      <trkpt lat="45.29563" lon="4.64778">
        <ele>570.20001220703</ele>
        <time>2019-02-20T11:01:11.000Z</time>
      </trkpt>
      <trkpt lat="45.29569" lon="4.64773">
        <ele>570</ele>
        <time>2019-02-20T11:01:12.000Z</time>
      </trkpt>
      <trkpt lat="45.29575" lon="4.64766">
        <ele>569.59997558594</ele>
        <time>2019-02-20T11:01:13.000Z</time>
      </trkpt>
      <trkpt lat="45.29581" lon="4.64759">
        <ele>569.59997558594</ele>
        <time>2019-02-20T11:01:14.000Z</time>
      </trkpt>
      <trkpt lat="45.29586" lon="4.6475">
        <ele>568.59997558594</ele>
        <time>2019-02-20T11:01:15.000Z</time>
      </trkpt>
      <trkpt lat="45.29591" lon="4.64742">
        <ele>567.40002441406</ele>
        <time>2019-02-20T11:01:16.000Z</time>
      </trkpt>
      <trkpt lat="45.29596" lon="4.64735">
        <ele>566.59997558594</ele>
        <time>2019-02-20T11:01:17.000Z</time>
      </trkpt>
      <trkpt lat="45.29599" lon="4.64727">
        <ele>566.20001220703</ele>
        <time>2019-02-20T11:01:18.000Z</time>
      </trkpt>
      <trkpt lat="45.29603" lon="4.64717">
        <ele>565.40002441406</ele>
        <time>2019-02-20T11:01:19.000Z</time>
      </trkpt>
      <trkpt lat="45.29607" lon="4.64706">
        <ele>564.59997558594</ele>
        <time>2019-02-20T11:01:20.000Z</time>
      </trkpt>
      <trkpt lat="45.29612" lon="4.64697">
        <ele>563.59997558594</ele>
        <time>2019-02-20T11:01:21.000Z</time>
      </trkpt>
      <trkpt lat="45.29616" lon="4.64688">
        <ele>560</ele>
        <time>2019-02-20T11:01:22.000Z</time>
      </trkpt>
      <trkpt lat="45.29622" lon="4.6468">
        <ele>558.59997558594</ele>
        <time>2019-02-20T11:01:23.000Z</time>
      </trkpt>
      <trkpt lat="45.29627" lon="4.64672">
        <ele>557.59997558594</ele>
        <time>2019-02-20T11:01:24.000Z</time>
      </trkpt>
      <trkpt lat="45.29631" lon="4.64664">
        <ele>557</ele>
        <time>2019-02-20T11:01:25.000Z</time>
      </trkpt>
      <trkpt lat="45.29634" lon="4.64657">
        <ele>556.59997558594</ele>
        <time>2019-02-20T11:01:26.000Z</time>
      </trkpt>
      <trkpt lat="45.29637" lon="4.64649">
        <ele>554.79998779297</ele>
        <time>2019-02-20T11:01:27.000Z</time>
      </trkpt>
      <trkpt lat="45.2964" lon="4.64642">
        <ele>553.40002441406</ele>
        <time>2019-02-20T11:01:28.000Z</time>
      </trkpt>
      <trkpt lat="45.29643" lon="4.64634">
        <ele>552.79998779297</ele>
        <time>2019-02-20T11:01:29.000Z</time>
      </trkpt>
      <trkpt lat="45.29646" lon="4.64626">
        <ele>552.20001220703</ele>
        <time>2019-02-20T11:01:30.000Z</time>
      </trkpt>
      <trkpt lat="45.29649" lon="4.64617">
        <ele>552</ele>
        <time>2019-02-20T11:01:31.000Z</time>
      </trkpt>
      <trkpt lat="45.29652" lon="4.64609">
        <ele>551.59997558594</ele>
        <time>2019-02-20T11:01:32.000Z</time>
      </trkpt>
      <trkpt lat="45.29655" lon="4.64601">
        <ele>551.40002441406</ele>
        <time>2019-02-20T11:01:33.000Z</time>
      </trkpt>
      <trkpt lat="45.29658" lon="4.64592">
        <ele>551.20001220703</ele>
        <time>2019-02-20T11:01:34.000Z</time>
      </trkpt>
      <trkpt lat="45.29661" lon="4.64583">
        <ele>550.79998779297</ele>
        <time>2019-02-20T11:01:35.000Z</time>
      </trkpt>
      <trkpt lat="45.29663" lon="4.64573">
        <ele>550.79998779297</ele>
        <time>2019-02-20T11:01:36.000Z</time>
      </trkpt>
      <trkpt lat="45.29664" lon="4.64563">
        <ele>550.40002441406</ele>
        <time>2019-02-20T11:01:37.000Z</time>
      </trkpt>
      <trkpt lat="45.29664" lon="4.64553">
        <ele>549.79998779297</ele>
        <time>2019-02-20T11:01:38.000Z</time>
      </trkpt>
      <trkpt lat="45.29663" lon="4.64543">
        <ele>548.59997558594</ele>
        <time>2019-02-20T11:01:39.000Z</time>
      </trkpt>
      <trkpt lat="45.29661" lon="4.64532">
        <ele>547.79998779297</ele>
        <time>2019-02-20T11:01:40.000Z</time>
      </trkpt>
      <trkpt lat="45.2966" lon="4.64522">
        <ele>547.20001220703</ele>
        <time>2019-02-20T11:01:41.000Z</time>
      </trkpt>
      <trkpt lat="45.29658" lon="4.64512">
        <ele>546.79998779297</ele>
        <time>2019-02-20T11:01:42.000Z</time>
      </trkpt>
      <trkpt lat="45.29656" lon="4.64503">
        <ele>546.59997558594</ele>
        <time>2019-02-20T11:01:43.000Z</time>
      </trkpt>
      <trkpt lat="45.29655" lon="4.64494">
        <ele>546.40002441406</ele>
        <time>2019-02-20T11:01:44.000Z</time>
      </trkpt>
      <trkpt lat="45.29655" lon="4.64485">
        <ele>546.20001220703</ele>
        <time>2019-02-20T11:01:45.000Z</time>
      </trkpt>
      <trkpt lat="45.29653" lon="4.64476">
        <ele>545.79998779297</ele>
        <time>2019-02-20T11:01:46.000Z</time>
      </trkpt>
      <trkpt lat="45.29652" lon="4.64467">
        <ele>545.40002441406</ele>
        <time>2019-02-20T11:01:47.000Z</time>
      </trkpt>
      <trkpt lat="45.2965" lon="4.6446">
        <ele>544.40002441406</ele>
        <time>2019-02-20T11:01:48.000Z</time>
      </trkpt>
      <trkpt lat="45.29648" lon="4.64452">
        <ele>543.59997558594</ele>
        <time>2019-02-20T11:01:49.000Z</time>
      </trkpt>
      <trkpt lat="45.29647" lon="4.64444">
        <ele>542.79998779297</ele>
        <time>2019-02-20T11:01:50.000Z</time>
      </trkpt>
      <trkpt lat="45.29645" lon="4.64437">
        <ele>542.40002441406</ele>
        <time>2019-02-20T11:01:51.000Z</time>
      </trkpt>
      <trkpt lat="45.29644" lon="4.64429">
        <ele>542</ele>
        <time>2019-02-20T11:01:52.000Z</time>
      </trkpt>
      <trkpt lat="45.29642" lon="4.64421">
        <ele>541.59997558594</ele>
        <time>2019-02-20T11:01:53.000Z</time>
      </trkpt>
      <trkpt lat="45.29641" lon="4.64413">
        <ele>541</ele>
        <time>2019-02-20T11:01:54.000Z</time>
      </trkpt>
      <trkpt lat="45.29639" lon="4.64404">
        <ele>540.40002441406</ele>
        <time>2019-02-20T11:01:55.000Z</time>
      </trkpt>
      <trkpt lat="45.29638" lon="4.64394">
        <ele>538.40002441406</ele>
        <time>2019-02-20T11:01:56.000Z</time>
      </trkpt>
      <trkpt lat="45.29636" lon="4.64385">
        <ele>538</ele>
        <time>2019-02-20T11:01:57.000Z</time>
      </trkpt>
      <trkpt lat="45.29634" lon="4.64376">
        <ele>536.79998779297</ele>
        <time>2019-02-20T11:01:58.000Z</time>
      </trkpt>
      <trkpt lat="45.29633" lon="4.64367">
        <ele>535.40002441406</ele>
        <time>2019-02-20T11:01:59.000Z</time>
      </trkpt>
      <trkpt lat="45.29631" lon="4.64359">
        <ele>534.40002441406</ele>
        <time>2019-02-20T11:02:00.000Z</time>
      </trkpt>
      <trkpt lat="45.2963" lon="4.64351">
        <ele>534</ele>
        <time>2019-02-20T11:02:01.000Z</time>
      </trkpt>
      <trkpt lat="45.29628" lon="4.64343">
        <ele>533.40002441406</ele>
        <time>2019-02-20T11:02:02.000Z</time>
      </trkpt>
      <trkpt lat="45.29626" lon="4.64335">
        <ele>532.20001220703</ele>
        <time>2019-02-20T11:02:03.000Z</time>
      </trkpt>
      <trkpt lat="45.29623" lon="4.64328">
        <ele>530.20001220703</ele>
        <time>2019-02-20T11:02:04.000Z</time>
      </trkpt>
      <trkpt lat="45.2962" lon="4.64322">
        <ele>528.79998779297</ele>
        <time>2019-02-20T11:02:05.000Z</time>
      </trkpt>
      <trkpt lat="45.29616" lon="4.64317">
        <ele>527.20001220703</ele>
        <time>2019-02-20T11:02:06.000Z</time>
      </trkpt>
      <trkpt lat="45.29613" lon="4.64313">
        <ele>525.40002441406</ele>
        <time>2019-02-20T11:02:07.000Z</time>
      </trkpt>
      <trkpt lat="45.2961" lon="4.64308">
        <ele>524</ele>
        <time>2019-02-20T11:02:08.000Z</time>
      </trkpt>
      <trkpt lat="45.29607" lon="4.64303">
        <ele>522.79998779297</ele>
        <time>2019-02-20T11:02:09.000Z</time>
      </trkpt>
      <trkpt lat="45.29604" lon="4.64299">
        <ele>521.59997558594</ele>
        <time>2019-02-20T11:02:10.000Z</time>
      </trkpt>
      <trkpt lat="45.29601" lon="4.64295">
        <ele>519.79998779297</ele>
        <time>2019-02-20T11:02:11.000Z</time>
      </trkpt>
      <trkpt lat="45.29597" lon="4.64293">
        <ele>517.79998779297</ele>
        <time>2019-02-20T11:02:12.000Z</time>
      </trkpt>
      <trkpt lat="45.29593" lon="4.6429">
        <ele>516.59997558594</ele>
        <time>2019-02-20T11:02:13.000Z</time>
      </trkpt>
      <trkpt lat="45.29589" lon="4.64288">
        <ele>515.40002441406</ele>
        <time>2019-02-20T11:02:14.000Z</time>
      </trkpt>
      <trkpt lat="45.29585" lon="4.64287">
        <ele>513.59997558594</ele>
        <time>2019-02-20T11:02:15.000Z</time>
      </trkpt>
      <trkpt lat="45.2958" lon="4.64287">
        <ele>512.40002441406</ele>
        <time>2019-02-20T11:02:16.000Z</time>
      </trkpt>
      <trkpt lat="45.29575" lon="4.64288">
        <ele>511</ele>
        <time>2019-02-20T11:02:17.000Z</time>
      </trkpt>
      <trkpt lat="45.2957" lon="4.64289">
        <ele>509.79998779297</ele>
        <time>2019-02-20T11:02:18.000Z</time>
      </trkpt>
      <trkpt lat="45.29566" lon="4.64291">
        <ele>509.20001220703</ele>
        <time>2019-02-20T11:02:19.000Z</time>
      </trkpt>
      <trkpt lat="45.29563" lon="4.64294">
        <ele>508</ele>
        <time>2019-02-20T11:02:20.000Z</time>
      </trkpt>
      <trkpt lat="45.29561" lon="4.64296">
        <ele>506.79998779297</ele>
        <time>2019-02-20T11:02:21.000Z</time>
      </trkpt>
      <trkpt lat="45.29558" lon="4.64298">
        <ele>505.79998779297</ele>
        <time>2019-02-20T11:02:22.000Z</time>
      </trkpt>
      <trkpt lat="45.29555" lon="4.64301">
        <ele>505</ele>
        <time>2019-02-20T11:02:23.000Z</time>
      </trkpt>
      <trkpt lat="45.29551" lon="4.64302">
        <ele>503.20001220703</ele>
        <time>2019-02-20T11:02:24.000Z</time>
      </trkpt>
      <trkpt lat="45.29548" lon="4.64301">
        <ele>501.79998779297</ele>
        <time>2019-02-20T11:02:25.000Z</time>
      </trkpt>
      <trkpt lat="45.29547" lon="4.64296">
        <ele>500.79998779297</ele>
        <time>2019-02-20T11:02:26.000Z</time>
      </trkpt>
      <trkpt lat="45.29546" lon="4.64289">
        <ele>500</ele>
        <time>2019-02-20T11:02:27.000Z</time>
      </trkpt>
      <trkpt lat="45.29547" lon="4.64281">
        <ele>499.60000610352</ele>
        <time>2019-02-20T11:02:28.000Z</time>
      </trkpt>
      <trkpt lat="45.29549" lon="4.64273">
        <ele>499.20001220703</ele>
        <time>2019-02-20T11:02:29.000Z</time>
      </trkpt>
      <trkpt lat="45.29551" lon="4.64265">
        <ele>498.39999389648</ele>
        <time>2019-02-20T11:02:30.000Z</time>
      </trkpt>
      <trkpt lat="45.29555" lon="4.64257">
        <ele>497.39999389648</ele>
        <time>2019-02-20T11:02:31.000Z</time>
      </trkpt>
      <trkpt lat="45.29559" lon="4.64248">
        <ele>496.20001220703</ele>
        <time>2019-02-20T11:02:32.000Z</time>
      </trkpt>
      <trkpt lat="45.29563" lon="4.6424">
        <ele>495.60000610352</ele>
        <time>2019-02-20T11:02:33.000Z</time>
      </trkpt>
      <trkpt lat="45.29567" lon="4.64233">
        <ele>494.79998779297</ele>
        <time>2019-02-20T11:02:34.000Z</time>
      </trkpt>
      <trkpt lat="45.29571" lon="4.64228">
        <ele>494.60000610352</ele>
        <time>2019-02-20T11:02:35.000Z</time>
      </trkpt>
      <trkpt lat="45.29574" lon="4.64226">
        <ele>494.20001220703</ele>
        <time>2019-02-20T11:02:36.000Z</time>
      </trkpt>
      <trkpt lat="45.29576" lon="4.64224">
        <ele>493.60000610352</ele>
        <time>2019-02-20T11:02:37.000Z</time>
      </trkpt>
      <trkpt lat="45.29578" lon="4.64222">
        <ele>492.60000610352</ele>
        <time>2019-02-20T11:02:38.000Z</time>
      </trkpt>
      <trkpt lat="45.29581" lon="4.64218">
        <ele>491.79998779297</ele>
        <time>2019-02-20T11:02:39.000Z</time>
      </trkpt>
      <trkpt lat="45.29584" lon="4.64215">
        <ele>491.60000610352</ele>
        <time>2019-02-20T11:02:40.000Z</time>
      </trkpt>
      <trkpt lat="45.29589" lon="4.64212">
        <ele>491.39999389648</ele>
        <time>2019-02-20T11:02:41.000Z</time>
      </trkpt>
      <trkpt lat="45.29594" lon="4.64211">
        <ele>491.20001220703</ele>
        <time>2019-02-20T11:02:42.000Z</time>
      </trkpt>
      <trkpt lat="45.29598" lon="4.64211">
        <ele>491</ele>
        <time>2019-02-20T11:02:43.000Z</time>
      </trkpt>
      <trkpt lat="45.29601" lon="4.64212">
        <ele>491</ele>
        <time>2019-02-20T11:02:44.000Z</time>
      </trkpt>
      <trkpt lat="45.29603" lon="4.64213">
        <ele>491</ele>
        <time>2019-02-20T11:02:45.000Z</time>
      </trkpt>
      <trkpt lat="45.29605" lon="4.64214">
        <ele>491</ele>
        <time>2019-02-20T11:02:46.000Z</time>
      </trkpt>
      <trkpt lat="45.29606" lon="4.64214">
        <ele>491</ele>
        <time>2019-02-20T11:02:47.000Z</time>
      </trkpt>
      <trkpt lat="45.29607" lon="4.64215">
        <ele>491</ele>
        <time>2019-02-20T11:02:48.000Z</time>
      </trkpt>
      <trkpt lat="45.29609" lon="4.64216">
        <ele>491</ele>
        <time>2019-02-20T11:02:49.000Z</time>
      </trkpt>
      <trkpt lat="45.2961" lon="4.64216">
        <ele>491</ele>
        <time>2019-02-20T11:02:50.000Z</time>
      </trkpt>
      <trkpt lat="45.29611" lon="4.64218">
        <ele>491.20001220703</ele>
        <time>2019-02-20T11:02:51.000Z</time>
      </trkpt>
      <trkpt lat="45.29612" lon="4.64219">
        <ele>491.20001220703</ele>
        <time>2019-02-20T11:02:52.000Z</time>
      </trkpt>
      <trkpt lat="45.29614" lon="4.6422">
        <ele>491.39999389648</ele>
        <time>2019-02-20T11:02:53.000Z</time>
      </trkpt>
      <trkpt lat="45.29615" lon="4.64221">
        <ele>492</ele>
        <time>2019-02-20T11:02:54.000Z</time>
      </trkpt>
      <trkpt lat="45.29617" lon="4.64223">
        <ele>492</ele>
        <time>2019-02-20T11:02:55.000Z</time>
      </trkpt>
      <trkpt lat="45.29618" lon="4.64226">
        <ele>492.39999389648</ele>
        <time>2019-02-20T11:02:56.000Z</time>
      </trkpt>
      <trkpt lat="45.29621" lon="4.64228">
        <ele>492.39999389648</ele>
        <time>2019-02-20T11:02:57.000Z</time>
      </trkpt>
      <trkpt lat="45.29623" lon="4.64231">
        <ele>492.60000610352</ele>
        <time>2019-02-20T11:02:58.000Z</time>
      </trkpt>
      <trkpt lat="45.29625" lon="4.64234">
        <ele>492.60000610352</ele>
        <time>2019-02-20T11:02:59.000Z</time>
      </trkpt>
      <trkpt lat="45.29627" lon="4.64237">
        <ele>492.79998779297</ele>
        <time>2019-02-20T11:03:00.000Z</time>
      </trkpt>
      <trkpt lat="45.29629" lon="4.6424">
        <ele>492.79998779297</ele>
        <time>2019-02-20T11:03:01.000Z</time>
      </trkpt>
      <trkpt lat="45.2963" lon="4.64243">
        <ele>492.79998779297</ele>
        <time>2019-02-20T11:03:02.000Z</time>
      </trkpt>
      <trkpt lat="45.29632" lon="4.64246">
        <ele>493</ele>
        <time>2019-02-20T11:03:03.000Z</time>
      </trkpt>
      <trkpt lat="45.29634" lon="4.64248">
        <ele>493.39999389648</ele>
        <time>2019-02-20T11:03:04.000Z</time>
      </trkpt>
      <trkpt lat="45.29636" lon="4.6425">
        <ele>493.39999389648</ele>
        <time>2019-02-20T11:03:05.000Z</time>
      </trkpt>
      <trkpt lat="45.29638" lon="4.64252">
        <ele>493.60000610352</ele>
        <time>2019-02-20T11:03:06.000Z</time>
      </trkpt>
      <trkpt lat="45.29639" lon="4.64255">
        <ele>494</ele>
        <time>2019-02-20T11:03:07.000Z</time>
      </trkpt>
      <trkpt lat="45.2964" lon="4.64257">
        <ele>494.20001220703</ele>
        <time>2019-02-20T11:03:08.000Z</time>
      </trkpt>
      <trkpt lat="45.29642" lon="4.6426">
        <ele>494.20001220703</ele>
        <time>2019-02-20T11:03:09.000Z</time>
      </trkpt>
      <trkpt lat="45.29643" lon="4.64261">
        <ele>494.39999389648</ele>
        <time>2019-02-20T11:03:10.000Z</time>
      </trkpt>
      <trkpt lat="45.29645" lon="4.64263">
        <ele>494.60000610352</ele>
        <time>2019-02-20T11:03:11.000Z</time>
      </trkpt>
      <trkpt lat="45.29647" lon="4.64264">
        <ele>495</ele>
        <time>2019-02-20T11:03:12.000Z</time>
      </trkpt>
      <trkpt lat="45.2965" lon="4.64265">
        <ele>495.20001220703</ele>
        <time>2019-02-20T11:03:13.000Z</time>
      </trkpt>
      <trkpt lat="45.29652" lon="4.64267">
        <ele>495.39999389648</ele>
        <time>2019-02-20T11:03:14.000Z</time>
      </trkpt>
      <trkpt lat="45.29654" lon="4.64269">
        <ele>495.39999389648</ele>
        <time>2019-02-20T11:03:15.000Z</time>
      </trkpt>
      <trkpt lat="45.29657" lon="4.64271">
        <ele>495.39999389648</ele>
        <time>2019-02-20T11:03:16.000Z</time>
      </trkpt>
      <trkpt lat="45.29659" lon="4.64272">
        <ele>495.79998779297</ele>
        <time>2019-02-20T11:03:17.000Z</time>
      </trkpt>
      <trkpt lat="45.29661" lon="4.64274">
        <ele>496</ele>
        <time>2019-02-20T11:03:18.000Z</time>
      </trkpt>
      <trkpt lat="45.29664" lon="4.64276">
        <ele>496.20001220703</ele>
        <time>2019-02-20T11:03:19.000Z</time>
      </trkpt>
      <trkpt lat="45.29666" lon="4.64277">
        <ele>496.39999389648</ele>
        <time>2019-02-20T11:03:20.000Z</time>
      </trkpt>
      <trkpt lat="45.29668" lon="4.6428">
        <ele>496.60000610352</ele>
        <time>2019-02-20T11:03:21.000Z</time>
      </trkpt>
      <trkpt lat="45.29671" lon="4.64283">
        <ele>496.79998779297</ele>
        <time>2019-02-20T11:03:22.000Z</time>
      </trkpt>
      <trkpt lat="45.29673" lon="4.64285">
        <ele>497</ele>
        <time>2019-02-20T11:03:23.000Z</time>
      </trkpt>
      <trkpt lat="45.29675" lon="4.64288">
        <ele>497.20001220703</ele>
        <time>2019-02-20T11:03:24.000Z</time>
      </trkpt>
      <trkpt lat="45.29677" lon="4.6429">
        <ele>497.20001220703</ele>
        <time>2019-02-20T11:03:25.000Z</time>
      </trkpt>
      <trkpt lat="45.29679" lon="4.64293">
        <ele>497.39999389648</ele>
        <time>2019-02-20T11:03:26.000Z</time>
      </trkpt>
      <trkpt lat="45.29681" lon="4.64296">
        <ele>497.60000610352</ele>
        <time>2019-02-20T11:03:27.000Z</time>
      </trkpt>
      <trkpt lat="45.29682" lon="4.64299">
        <ele>497.79998779297</ele>
        <time>2019-02-20T11:03:28.000Z</time>
      </trkpt>
      <trkpt lat="45.29684" lon="4.64302">
        <ele>498</ele>
        <time>2019-02-20T11:03:29.000Z</time>
      </trkpt>
      <trkpt lat="45.29686" lon="4.64305">
        <ele>498</ele>
        <time>2019-02-20T11:03:30.000Z</time>
      </trkpt>
      <trkpt lat="45.29687" lon="4.64308">
        <ele>498.20001220703</ele>
        <time>2019-02-20T11:03:31.000Z</time>
      </trkpt>
      <trkpt lat="45.29689" lon="4.64311">
        <ele>498.20001220703</ele>
        <time>2019-02-20T11:03:32.000Z</time>
      </trkpt>
      <trkpt lat="45.29691" lon="4.64314">
        <ele>498.39999389648</ele>
        <time>2019-02-20T11:03:33.000Z</time>
      </trkpt>
      <trkpt lat="45.29692" lon="4.64318">
        <ele>498.39999389648</ele>
        <time>2019-02-20T11:03:34.000Z</time>
      </trkpt>
      <trkpt lat="45.29693" lon="4.64322">
        <ele>498.60000610352</ele>
        <time>2019-02-20T11:03:35.000Z</time>
      </trkpt>
      <trkpt lat="45.29694" lon="4.64325">
        <ele>499</ele>
        <time>2019-02-20T11:03:36.000Z</time>
      </trkpt>
      <trkpt lat="45.29695" lon="4.64329">
        <ele>499</ele>
        <time>2019-02-20T11:03:37.000Z</time>
      </trkpt>
      <trkpt lat="45.29696" lon="4.64333">
        <ele>499.20001220703</ele>
        <time>2019-02-20T11:03:38.000Z</time>
      </trkpt>
      <trkpt lat="45.29697" lon="4.64337">
        <ele>499.60000610352</ele>
        <time>2019-02-20T11:03:39.000Z</time>
      </trkpt>
      <trkpt lat="45.29698" lon="4.6434">
        <ele>499.79998779297</ele>
        <time>2019-02-20T11:03:40.000Z</time>
      </trkpt>
      <trkpt lat="45.29698" lon="4.64344">
        <ele>499.79998779297</ele>
        <time>2019-02-20T11:03:41.000Z</time>
      </trkpt>
      <trkpt lat="45.297" lon="4.64347">
        <ele>500</ele>
        <time>2019-02-20T11:03:42.000Z</time>
      </trkpt>
      <trkpt lat="45.29701" lon="4.64351">
        <ele>500.20001220703</ele>
        <time>2019-02-20T11:03:43.000Z</time>
      </trkpt>
      <trkpt lat="45.29702" lon="4.64355">
        <ele>500.39999389648</ele>
        <time>2019-02-20T11:03:44.000Z</time>
      </trkpt>
      <trkpt lat="45.29703" lon="4.64359">
        <ele>500.60000610352</ele>
        <time>2019-02-20T11:03:45.000Z</time>
      </trkpt>
      <trkpt lat="45.29703" lon="4.64362">
        <ele>500.60000610352</ele>
        <time>2019-02-20T11:03:46.000Z</time>
      </trkpt>
      <trkpt lat="45.29704" lon="4.64365">
        <ele>501</ele>
        <time>2019-02-20T11:03:47.000Z</time>
      </trkpt>
      <trkpt lat="45.29705" lon="4.64369">
        <ele>501</ele>
        <time>2019-02-20T11:03:48.000Z</time>
      </trkpt>
      <trkpt lat="45.29706" lon="4.64372">
        <ele>501.20001220703</ele>
        <time>2019-02-20T11:03:49.000Z</time>
      </trkpt>
      <trkpt lat="45.29707" lon="4.64375">
        <ele>501.20001220703</ele>
        <time>2019-02-20T11:03:50.000Z</time>
      </trkpt>
      <trkpt lat="45.29708" lon="4.64378">
        <ele>501.39999389648</ele>
        <time>2019-02-20T11:03:51.000Z</time>
      </trkpt>
      <trkpt lat="45.29709" lon="4.64382">
        <ele>501.39999389648</ele>
        <time>2019-02-20T11:03:52.000Z</time>
      </trkpt>
      <trkpt lat="45.29711" lon="4.64385">
        <ele>501.39999389648</ele>
        <time>2019-02-20T11:03:53.000Z</time>
      </trkpt>
      <trkpt lat="45.29712" lon="4.64389">
        <ele>501.79998779297</ele>
        <time>2019-02-20T11:03:54.000Z</time>
      </trkpt>
      <trkpt lat="45.29713" lon="4.64392">
        <ele>502</ele>
        <time>2019-02-20T11:03:55.000Z</time>
      </trkpt>
      <trkpt lat="45.29715" lon="4.64395">
        <ele>502.20001220703</ele>
        <time>2019-02-20T11:03:56.000Z</time>
      </trkpt>
      <trkpt lat="45.29717" lon="4.64398">
        <ele>502.20001220703</ele>
        <time>2019-02-20T11:03:57.000Z</time>
      </trkpt>
      <trkpt lat="45.29719" lon="4.64401">
        <ele>502.39999389648</ele>
        <time>2019-02-20T11:03:58.000Z</time>
      </trkpt>
      <trkpt lat="45.29721" lon="4.64404">
        <ele>502.60000610352</ele>
        <time>2019-02-20T11:03:59.000Z</time>
      </trkpt>
      <trkpt lat="45.29722" lon="4.64406">
        <ele>502.60000610352</ele>
        <time>2019-02-20T11:04:00.000Z</time>
      </trkpt>
      <trkpt lat="45.29724" lon="4.6441">
        <ele>502.79998779297</ele>
        <time>2019-02-20T11:04:01.000Z</time>
      </trkpt>
      <trkpt lat="45.29727" lon="4.64413">
        <ele>502.79998779297</ele>
        <time>2019-02-20T11:04:02.000Z</time>
      </trkpt>
      <trkpt lat="45.29729" lon="4.64416">
        <ele>503.20001220703</ele>
        <time>2019-02-20T11:04:03.000Z</time>
      </trkpt>
      <trkpt lat="45.29732" lon="4.64419">
        <ele>503.20001220703</ele>
        <time>2019-02-20T11:04:04.000Z</time>
      </trkpt>
      <trkpt lat="45.29735" lon="4.64421">
        <ele>503.39999389648</ele>
        <time>2019-02-20T11:04:05.000Z</time>
      </trkpt>
      <trkpt lat="45.29737" lon="4.64424">
        <ele>503.39999389648</ele>
        <time>2019-02-20T11:04:06.000Z</time>
      </trkpt>
      <trkpt lat="45.2974" lon="4.64427">
        <ele>503.60000610352</ele>
        <time>2019-02-20T11:04:07.000Z</time>
      </trkpt>
      <trkpt lat="45.29743" lon="4.64429">
        <ele>503.60000610352</ele>
        <time>2019-02-20T11:04:08.000Z</time>
      </trkpt>
      <trkpt lat="45.29745" lon="4.64431">
        <ele>504</ele>
        <time>2019-02-20T11:04:09.000Z</time>
      </trkpt>
      <trkpt lat="45.29748" lon="4.64433">
        <ele>504.20001220703</ele>
        <time>2019-02-20T11:04:10.000Z</time>
      </trkpt>
      <trkpt lat="45.29751" lon="4.64435">
        <ele>504.60000610352</ele>
        <time>2019-02-20T11:04:11.000Z</time>
      </trkpt>
      <trkpt lat="45.29754" lon="4.64437">
        <ele>504.79998779297</ele>
        <time>2019-02-20T11:04:12.000Z</time>
      </trkpt>
      <trkpt lat="45.29756" lon="4.64439">
        <ele>505.20001220703</ele>
        <time>2019-02-20T11:04:13.000Z</time>
      </trkpt>
      <trkpt lat="45.29759" lon="4.64441">
        <ele>505.20001220703</ele>
        <time>2019-02-20T11:04:14.000Z</time>
      </trkpt>
      <trkpt lat="45.29762" lon="4.64444">
        <ele>505.39999389648</ele>
        <time>2019-02-20T11:04:15.000Z</time>
      </trkpt>
      <trkpt lat="45.29764" lon="4.64446">
        <ele>505.60000610352</ele>
        <time>2019-02-20T11:04:16.000Z</time>
      </trkpt>
      <trkpt lat="45.29767" lon="4.64449">
        <ele>505.79998779297</ele>
        <time>2019-02-20T11:04:17.000Z</time>
      </trkpt>
      <trkpt lat="45.2977" lon="4.64451">
        <ele>506</ele>
        <time>2019-02-20T11:04:18.000Z</time>
      </trkpt>
      <trkpt lat="45.29772" lon="4.64453">
        <ele>506.20001220703</ele>
        <time>2019-02-20T11:04:19.000Z</time>
      </trkpt>
      <trkpt lat="45.29775" lon="4.64455">
        <ele>506.20001220703</ele>
        <time>2019-02-20T11:04:20.000Z</time>
      </trkpt>
      <trkpt lat="45.29778" lon="4.64456">
        <ele>506.39999389648</ele>
        <time>2019-02-20T11:04:21.000Z</time>
      </trkpt>
      <trkpt lat="45.29781" lon="4.64458">
        <ele>506.39999389648</ele>
        <time>2019-02-20T11:04:22.000Z</time>
      </trkpt>
      <trkpt lat="45.29784" lon="4.64459">
        <ele>506.60000610352</ele>
        <time>2019-02-20T11:04:23.000Z</time>
      </trkpt>
      <trkpt lat="45.29786" lon="4.6446">
        <ele>506.60000610352</ele>
        <time>2019-02-20T11:04:24.000Z</time>
      </trkpt>
      <trkpt lat="45.29789" lon="4.64461">
        <ele>506.60000610352</ele>
        <time>2019-02-20T11:04:25.000Z</time>
      </trkpt>
      <trkpt lat="45.29792" lon="4.64462">
        <ele>506.79998779297</ele>
        <time>2019-02-20T11:04:26.000Z</time>
      </trkpt>
      <trkpt lat="45.29795" lon="4.64463">
        <ele>507.20001220703</ele>
        <time>2019-02-20T11:04:27.000Z</time>
      </trkpt>
      <trkpt lat="45.29798" lon="4.64464">
        <ele>507.39999389648</ele>
        <time>2019-02-20T11:04:28.000Z</time>
      </trkpt>
      <trkpt lat="45.29801" lon="4.64465">
        <ele>507.60000610352</ele>
        <time>2019-02-20T11:04:29.000Z</time>
      </trkpt>
      <trkpt lat="45.29804" lon="4.64466">
        <ele>507.60000610352</ele>
        <time>2019-02-20T11:04:30.000Z</time>
      </trkpt>
      <trkpt lat="45.29807" lon="4.64466">
        <ele>507.79998779297</ele>
        <time>2019-02-20T11:04:31.000Z</time>
      </trkpt>
      <trkpt lat="45.2981" lon="4.64467">
        <ele>508</ele>
        <time>2019-02-20T11:04:32.000Z</time>
      </trkpt>
      <trkpt lat="45.29813" lon="4.64468">
        <ele>508.20001220703</ele>
        <time>2019-02-20T11:04:33.000Z</time>
      </trkpt>
      <trkpt lat="45.29816" lon="4.64469">
        <ele>508.20001220703</ele>
        <time>2019-02-20T11:04:34.000Z</time>
      </trkpt>
      <trkpt lat="45.29819" lon="4.6447">
        <ele>508.60000610352</ele>
        <time>2019-02-20T11:04:35.000Z</time>
      </trkpt>
      <trkpt lat="45.29822" lon="4.6447">
        <ele>508.79998779297</ele>
        <time>2019-02-20T11:04:36.000Z</time>
      </trkpt>
      <trkpt lat="45.29824" lon="4.64471">
        <ele>508.79998779297</ele>
        <time>2019-02-20T11:04:37.000Z</time>
      </trkpt>
      <trkpt lat="45.29827" lon="4.64471">
        <ele>508.79998779297</ele>
        <time>2019-02-20T11:04:38.000Z</time>
      </trkpt>
      <trkpt lat="45.2983" lon="4.64472">
        <ele>509</ele>
        <time>2019-02-20T11:04:39.000Z</time>
      </trkpt>
      <trkpt lat="45.29832" lon="4.64473">
        <ele>509.39999389648</ele>
        <time>2019-02-20T11:04:40.000Z</time>
      </trkpt>
      <trkpt lat="45.29835" lon="4.64474">
        <ele>509.39999389648</ele>
        <time>2019-02-20T11:04:41.000Z</time>
      </trkpt>
      <trkpt lat="45.29838" lon="4.64474">
        <ele>509.60000610352</ele>
        <time>2019-02-20T11:04:42.000Z</time>
      </trkpt>
      <trkpt lat="45.29841" lon="4.64475">
        <ele>509.60000610352</ele>
        <time>2019-02-20T11:04:43.000Z</time>
      </trkpt>
      <trkpt lat="45.29844" lon="4.64476">
        <ele>509.79998779297</ele>
        <time>2019-02-20T11:04:44.000Z</time>
      </trkpt>
      <trkpt lat="45.29847" lon="4.64477">
        <ele>510</ele>
        <time>2019-02-20T11:04:45.000Z</time>
      </trkpt>
      <trkpt lat="45.2985" lon="4.64478">
        <ele>510</ele>
        <time>2019-02-20T11:04:46.000Z</time>
      </trkpt>
      <trkpt lat="45.29853" lon="4.64479">
        <ele>510.39999389648</ele>
        <time>2019-02-20T11:04:47.000Z</time>
      </trkpt>
      <trkpt lat="45.29856" lon="4.64481">
        <ele>510.60000610352</ele>
        <time>2019-02-20T11:04:48.000Z</time>
      </trkpt>
      <trkpt lat="45.29859" lon="4.64482">
        <ele>510.79998779297</ele>
        <time>2019-02-20T11:04:49.000Z</time>
      </trkpt>
      <trkpt lat="45.29862" lon="4.64483">
        <ele>511</ele>
        <time>2019-02-20T11:04:50.000Z</time>
      </trkpt>
      <trkpt lat="45.29866" lon="4.64484">
        <ele>511.20001220703</ele>
        <time>2019-02-20T11:04:51.000Z</time>
      </trkpt>
      <trkpt lat="45.2987" lon="4.64485">
        <ele>511.20001220703</ele>
        <time>2019-02-20T11:04:52.000Z</time>
      </trkpt>
      <trkpt lat="45.29873" lon="4.64486">
        <ele>511.39999389648</ele>
        <time>2019-02-20T11:04:53.000Z</time>
      </trkpt>
      <trkpt lat="45.29875" lon="4.64487">
        <ele>511.39999389648</ele>
        <time>2019-02-20T11:04:54.000Z</time>
      </trkpt>
      <trkpt lat="45.29879" lon="4.64488">
        <ele>511.39999389648</ele>
        <time>2019-02-20T11:04:55.000Z</time>
      </trkpt>
      <trkpt lat="45.29882" lon="4.64488">
        <ele>511.60000610352</ele>
        <time>2019-02-20T11:04:56.000Z</time>
      </trkpt>
      <trkpt lat="45.29885" lon="4.64488">
        <ele>511.39999389648</ele>
        <time>2019-02-20T11:04:57.000Z</time>
      </trkpt>
      <trkpt lat="45.29887" lon="4.64488">
        <ele>511.39999389648</ele>
        <time>2019-02-20T11:04:58.000Z</time>
      </trkpt>
      <trkpt lat="45.29889" lon="4.64487">
        <ele>511.60000610352</ele>
        <time>2019-02-20T11:04:59.000Z</time>
      </trkpt>
      <trkpt lat="45.2989" lon="4.64486">
        <ele>511.60000610352</ele>
        <time>2019-02-20T11:05:00.000Z</time>
      </trkpt>
      <trkpt lat="45.2989" lon="4.64484">
        <ele>511.60000610352</ele>
        <time>2019-02-20T11:05:01.000Z</time>
      </trkpt>
      <trkpt lat="45.29889" lon="4.64483">
        <ele>511.60000610352</ele>
        <time>2019-02-20T11:05:02.000Z</time>
      </trkpt>
      <trkpt lat="45.29887" lon="4.64484">
        <ele>511.60000610352</ele>
        <time>2019-02-20T11:05:03.000Z</time>
      </trkpt>
      <trkpt lat="45.29885" lon="4.64485">
        <ele>511.60000610352</ele>
        <time>2019-02-20T11:05:04.000Z</time>
      </trkpt>
      <trkpt lat="45.29884" lon="4.64486">
        <ele>511.79998779297</ele>
        <time>2019-02-20T11:05:05.000Z</time>
      </trkpt>
      <trkpt lat="45.29882" lon="4.64486">
        <ele>511.60000610352</ele>
        <time>2019-02-20T11:05:06.000Z</time>
      </trkpt>
      <trkpt lat="45.2988" lon="4.64486">
        <ele>511.60000610352</ele>
        <time>2019-02-20T11:05:07.000Z</time>
      </trkpt>
      <trkpt lat="45.29879" lon="4.64486">
        <ele>511.79998779297</ele>
        <time>2019-02-20T11:05:08.000Z</time>
      </trkpt>
      <trkpt lat="45.29877" lon="4.64486">
        <ele>511.60000610352</ele>
        <time>2019-02-20T11:05:09.000Z</time>
      </trkpt>
      <trkpt lat="45.29876" lon="4.64485">
        <ele>511.60000610352</ele>
        <time>2019-02-20T11:05:10.000Z</time>
      </trkpt>
      <trkpt lat="45.29875" lon="4.64485">
        <ele>511.60000610352</ele>
        <time>2019-02-20T11:05:11.000Z</time>
      </trkpt>
      <trkpt lat="45.29874" lon="4.64485">
        <ele>511.60000610352</ele>
        <time>2019-02-20T11:05:12.000Z</time>
      </trkpt>
      <trkpt lat="45.29872" lon="4.64485">
        <ele>511.60000610352</ele>
        <time>2019-02-20T11:05:13.000Z</time>
      </trkpt>
      <trkpt lat="45.29871" lon="4.64484">
        <ele>511.60000610352</ele>
        <time>2019-02-20T11:05:14.000Z</time>
      </trkpt>
      <trkpt lat="45.2987" lon="4.64484">
        <ele>511.60000610352</ele>
        <time>2019-02-20T11:05:15.000Z</time>
      </trkpt>
      <trkpt lat="45.29869" lon="4.64484">
        <ele>511.60000610352</ele>
        <time>2019-02-20T11:05:16.000Z</time>
      </trkpt>
      <trkpt lat="45.29869" lon="4.64484">
        <ele>511.39999389648</ele>
        <time>2019-02-20T11:05:17.000Z</time>
      </trkpt>
      <trkpt lat="45.29869" lon="4.64484">
        <ele>511.60000610352</ele>
        <time>2019-02-20T11:05:18.000Z</time>
      </trkpt>
      <trkpt lat="45.29877" lon="4.64494">
        <ele>511.60000610352</ele>
        <time>2019-02-20T11:08:05.000Z</time>
      </trkpt>
      <trkpt lat="45.29878" lon="4.64494">
        <ele>511.39999389648</ele>
        <time>2019-02-20T11:08:06.000Z</time>
      </trkpt>
      <trkpt lat="45.2988" lon="4.64494">
        <ele>511.39999389648</ele>
        <time>2019-02-20T11:08:07.000Z</time>
      </trkpt>
      <trkpt lat="45.29882" lon="4.64494">
        <ele>511.60000610352</ele>
        <time>2019-02-20T11:08:08.000Z</time>
      </trkpt>
      <trkpt lat="45.29884" lon="4.64494">
        <ele>511.39999389648</ele>
        <time>2019-02-20T11:08:09.000Z</time>
      </trkpt>
      <trkpt lat="45.29886" lon="4.64494">
        <ele>511.39999389648</ele>
        <time>2019-02-20T11:08:10.000Z</time>
      </trkpt>
      <trkpt lat="45.29888" lon="4.64494">
        <ele>511.39999389648</ele>
        <time>2019-02-20T11:08:11.000Z</time>
      </trkpt>
      <trkpt lat="45.29891" lon="4.64494">
        <ele>511.39999389648</ele>
        <time>2019-02-20T11:08:12.000Z</time>
      </trkpt>
      <trkpt lat="45.29893" lon="4.64493">
        <ele>511.39999389648</ele>
        <time>2019-02-20T11:08:13.000Z</time>
      </trkpt>
      <trkpt lat="45.29895" lon="4.64492">
        <ele>511.39999389648</ele>
        <time>2019-02-20T11:08:14.000Z</time>
      </trkpt>
      <trkpt lat="45.29898" lon="4.64491">
        <ele>511.39999389648</ele>
        <time>2019-02-20T11:08:15.000Z</time>
      </trkpt>
      <trkpt lat="45.299" lon="4.64489">
        <ele>511.60000610352</ele>
        <time>2019-02-20T11:08:16.000Z</time>
      </trkpt>
      <trkpt lat="45.29903" lon="4.64486">
        <ele>511.39999389648</ele>
        <time>2019-02-20T11:08:17.000Z</time>
      </trkpt>
      <trkpt lat="45.29905" lon="4.64484">
        <ele>511.39999389648</ele>
        <time>2019-02-20T11:08:18.000Z</time>
      </trkpt>
      <trkpt lat="45.29907" lon="4.64481">
        <ele>511.39999389648</ele>
        <time>2019-02-20T11:08:19.000Z</time>
      </trkpt>
      <trkpt lat="45.29909" lon="4.64478">
        <ele>511.39999389648</ele>
        <time>2019-02-20T11:08:20.000Z</time>
      </trkpt>
      <trkpt lat="45.29911" lon="4.64476">
        <ele>511.20001220703</ele>
        <time>2019-02-20T11:08:21.000Z</time>
      </trkpt>
      <trkpt lat="45.29913" lon="4.64473">
        <ele>511.20001220703</ele>
        <time>2019-02-20T11:08:22.000Z</time>
      </trkpt>
      <trkpt lat="45.29915" lon="4.6447">
        <ele>511.20001220703</ele>
        <time>2019-02-20T11:08:23.000Z</time>
      </trkpt>
      <trkpt lat="45.29918" lon="4.64468">
        <ele>511.20001220703</ele>
        <time>2019-02-20T11:08:24.000Z</time>
      </trkpt>
      <trkpt lat="45.29919" lon="4.64467">
        <ele>511</ele>
        <time>2019-02-20T11:08:25.000Z</time>
      </trkpt>
      <trkpt lat="45.29921" lon="4.64464">
        <ele>511.20001220703</ele>
        <time>2019-02-20T11:08:26.000Z</time>
      </trkpt>
      <trkpt lat="45.29923" lon="4.64461">
        <ele>511</ele>
        <time>2019-02-20T11:08:27.000Z</time>
      </trkpt>
      <trkpt lat="45.29925" lon="4.64458">
        <ele>511</ele>
        <time>2019-02-20T11:08:28.000Z</time>
      </trkpt>
      <trkpt lat="45.29927" lon="4.64455">
        <ele>511</ele>
        <time>2019-02-20T11:08:29.000Z</time>
      </trkpt>
      <trkpt lat="45.29929" lon="4.64452">
        <ele>511.20001220703</ele>
        <time>2019-02-20T11:08:30.000Z</time>
      </trkpt>
      <trkpt lat="45.29931" lon="4.64449">
        <ele>511.20001220703</ele>
        <time>2019-02-20T11:08:31.000Z</time>
      </trkpt>
      <trkpt lat="45.29933" lon="4.64446">
        <ele>511</ele>
        <time>2019-02-20T11:08:32.000Z</time>
      </trkpt>
      <trkpt lat="45.29936" lon="4.64443">
        <ele>511.20001220703</ele>
        <time>2019-02-20T11:08:33.000Z</time>
      </trkpt>
      <trkpt lat="45.29938" lon="4.64439">
        <ele>511</ele>
        <time>2019-02-20T11:08:34.000Z</time>
      </trkpt>
      <trkpt lat="45.2994" lon="4.64436">
        <ele>511.20001220703</ele>
        <time>2019-02-20T11:08:35.000Z</time>
      </trkpt>
      <trkpt lat="45.29943" lon="4.64433">
        <ele>511.20001220703</ele>
        <time>2019-02-20T11:08:36.000Z</time>
      </trkpt>
      <trkpt lat="45.29945" lon="4.6443">
        <ele>511.20001220703</ele>
        <time>2019-02-20T11:08:37.000Z</time>
      </trkpt>
      <trkpt lat="45.29947" lon="4.64426">
        <ele>511.20001220703</ele>
        <time>2019-02-20T11:08:38.000Z</time>
      </trkpt>
      <trkpt lat="45.29949" lon="4.64423">
        <ele>511.20001220703</ele>
        <time>2019-02-20T11:08:39.000Z</time>
      </trkpt>
      <trkpt lat="45.29952" lon="4.6442">
        <ele>511.20001220703</ele>
        <time>2019-02-20T11:08:40.000Z</time>
      </trkpt>
      <trkpt lat="45.29955" lon="4.64416">
        <ele>511</ele>
        <time>2019-02-20T11:08:41.000Z</time>
      </trkpt>
      <trkpt lat="45.29958" lon="4.64413">
        <ele>511.20001220703</ele>
        <time>2019-02-20T11:08:42.000Z</time>
      </trkpt>
      <trkpt lat="45.2996" lon="4.6441">
        <ele>511.20001220703</ele>
        <time>2019-02-20T11:08:43.000Z</time>
      </trkpt>
      <trkpt lat="45.29963" lon="4.64406">
        <ele>511.20001220703</ele>
        <time>2019-02-20T11:08:44.000Z</time>
      </trkpt>
      <trkpt lat="45.29965" lon="4.64403">
        <ele>511</ele>
        <time>2019-02-20T11:08:45.000Z</time>
      </trkpt>
      <trkpt lat="45.29969" lon="4.64401">
        <ele>510.79998779297</ele>
        <time>2019-02-20T11:08:46.000Z</time>
      </trkpt>
      <trkpt lat="45.29972" lon="4.644">
        <ele>511</ele>
        <time>2019-02-20T11:08:47.000Z</time>
      </trkpt>
      <trkpt lat="45.29975" lon="4.64399">
        <ele>511</ele>
        <time>2019-02-20T11:08:48.000Z</time>
      </trkpt>
      <trkpt lat="45.29979" lon="4.64398">
        <ele>511</ele>
        <time>2019-02-20T11:08:49.000Z</time>
      </trkpt>
      <trkpt lat="45.29982" lon="4.64398">
        <ele>511</ele>
        <time>2019-02-20T11:08:50.000Z</time>
      </trkpt>
      <trkpt lat="45.29985" lon="4.64397">
        <ele>511</ele>
        <time>2019-02-20T11:08:51.000Z</time>
      </trkpt>
      <trkpt lat="45.29988" lon="4.64396">
        <ele>510.79998779297</ele>
        <time>2019-02-20T11:08:52.000Z</time>
      </trkpt>
      <trkpt lat="45.29991" lon="4.64396">
        <ele>511</ele>
        <time>2019-02-20T11:08:53.000Z</time>
      </trkpt>
      <trkpt lat="45.29994" lon="4.64395">
        <ele>511</ele>
        <time>2019-02-20T11:08:54.000Z</time>
      </trkpt>
      <trkpt lat="45.29997" lon="4.64395">
        <ele>511</ele>
        <time>2019-02-20T11:08:55.000Z</time>
      </trkpt>
      <trkpt lat="45.3" lon="4.64394">
        <ele>511</ele>
        <time>2019-02-20T11:08:56.000Z</time>
      </trkpt>
      <trkpt lat="45.30004" lon="4.64393">
        <ele>511</ele>
        <time>2019-02-20T11:08:57.000Z</time>
      </trkpt>
      <trkpt lat="45.30007" lon="4.64392">
        <ele>511</ele>
        <time>2019-02-20T11:08:58.000Z</time>
      </trkpt>
      <trkpt lat="45.30011" lon="4.64391">
        <ele>511</ele>
        <time>2019-02-20T11:08:59.000Z</time>
      </trkpt>
      <trkpt lat="45.30014" lon="4.64391">
        <ele>511</ele>
        <time>2019-02-20T11:09:00.000Z</time>
      </trkpt>
      <trkpt lat="45.30018" lon="4.64391">
        <ele>511.20001220703</ele>
        <time>2019-02-20T11:09:01.000Z</time>
      </trkpt>
      <trkpt lat="45.30021" lon="4.64391">
        <ele>511.20001220703</ele>
        <time>2019-02-20T11:09:02.000Z</time>
      </trkpt>
      <trkpt lat="45.30024" lon="4.64391">
        <ele>511.39999389648</ele>
        <time>2019-02-20T11:09:03.000Z</time>
      </trkpt>
      <trkpt lat="45.30028" lon="4.64392">
        <ele>511.20001220703</ele>
        <time>2019-02-20T11:09:04.000Z</time>
      </trkpt>
      <trkpt lat="45.30031" lon="4.64393">
        <ele>511.20001220703</ele>
        <time>2019-02-20T11:09:05.000Z</time>
      </trkpt>
      <trkpt lat="45.30034" lon="4.64394">
        <ele>511.20001220703</ele>
        <time>2019-02-20T11:09:06.000Z</time>
      </trkpt>
      <trkpt lat="45.30038" lon="4.64395">
        <ele>511.60000610352</ele>
        <time>2019-02-20T11:09:07.000Z</time>
      </trkpt>
      <trkpt lat="45.30041" lon="4.64396">
        <ele>511.39999389648</ele>
        <time>2019-02-20T11:09:08.000Z</time>
      </trkpt>
      <trkpt lat="45.30044" lon="4.64398">
        <ele>511.60000610352</ele>
        <time>2019-02-20T11:09:09.000Z</time>
      </trkpt>
      <trkpt lat="45.30047" lon="4.644">
        <ele>511.60000610352</ele>
        <time>2019-02-20T11:09:10.000Z</time>
      </trkpt>
      <trkpt lat="45.30051" lon="4.64401">
        <ele>511.60000610352</ele>
        <time>2019-02-20T11:09:11.000Z</time>
      </trkpt>
      <trkpt lat="45.30054" lon="4.64403">
        <ele>511.60000610352</ele>
        <time>2019-02-20T11:09:12.000Z</time>
      </trkpt>
      <trkpt lat="45.30057" lon="4.64404">
        <ele>511.60000610352</ele>
        <time>2019-02-20T11:09:13.000Z</time>
      </trkpt>
      <trkpt lat="45.3006" lon="4.64406">
        <ele>511.39999389648</ele>
        <time>2019-02-20T11:09:14.000Z</time>
      </trkpt>
      <trkpt lat="45.30063" lon="4.64408">
        <ele>511.60000610352</ele>
        <time>2019-02-20T11:09:15.000Z</time>
      </trkpt>
      <trkpt lat="45.30065" lon="4.64409">
        <ele>511.60000610352</ele>
        <time>2019-02-20T11:09:16.000Z</time>
      </trkpt>
      <trkpt lat="45.30068" lon="4.64411">
        <ele>511.60000610352</ele>
        <time>2019-02-20T11:09:17.000Z</time>
      </trkpt>
      <trkpt lat="45.3007" lon="4.64412">
        <ele>511.60000610352</ele>
        <time>2019-02-20T11:09:18.000Z</time>
      </trkpt>
      <trkpt lat="45.30072" lon="4.64414">
        <ele>511.60000610352</ele>
        <time>2019-02-20T11:09:19.000Z</time>
      </trkpt>
      <trkpt lat="45.30075" lon="4.64416">
        <ele>511.60000610352</ele>
        <time>2019-02-20T11:09:20.000Z</time>
      </trkpt>
      <trkpt lat="45.30077" lon="4.64417">
        <ele>511.60000610352</ele>
        <time>2019-02-20T11:09:21.000Z</time>
      </trkpt>
      <trkpt lat="45.30078" lon="4.64418">
        <ele>511.60000610352</ele>
        <time>2019-02-20T11:09:22.000Z</time>
      </trkpt>
      <trkpt lat="45.30079" lon="4.64419">
        <ele>511.60000610352</ele>
        <time>2019-02-20T11:09:23.000Z</time>
      </trkpt>
      <trkpt lat="45.3008" lon="4.64419">
        <ele>511.60000610352</ele>
        <time>2019-02-20T11:09:24.000Z</time>
      </trkpt>
      <trkpt lat="45.30082" lon="4.64419">
        <ele>511.60000610352</ele>
        <time>2019-02-20T11:09:25.000Z</time>
      </trkpt>
      <trkpt lat="45.30083" lon="4.6442">
        <ele>511.60000610352</ele>
        <time>2019-02-20T11:09:26.000Z</time>
      </trkpt>
      <trkpt lat="45.30084" lon="4.64421">
        <ele>511.60000610352</ele>
        <time>2019-02-20T11:09:27.000Z</time>
      </trkpt>
      <trkpt lat="45.30085" lon="4.64422">
        <ele>511.60000610352</ele>
        <time>2019-02-20T11:09:28.000Z</time>
      </trkpt>
      <trkpt lat="45.30086" lon="4.64422">
        <ele>511.60000610352</ele>
        <time>2019-02-20T11:09:29.000Z</time>
      </trkpt>
      <trkpt lat="45.30086" lon="4.64422">
        <ele>511.60000610352</ele>
        <time>2019-02-20T11:09:30.000Z</time>
      </trkpt>
    </trkseg>
  </trk>
</gpx>